<?xml version="1.0" encoding="UTF-8" standalone="no" ?>
<gpx xmlns="http://www.topografix.com/GPX/1/1" xmlns:xsi="http://www.w3.org/2001/XMLSchema-instance" xsi:schemaLocation="http://www.topografix.com/GPX/1/1 http://www.topografix.com/GPX/1/1/gpx.xsd" version="1.1" creator="VisuGPX - https://www.visugpx.com">
  <metadata>
    <name>Les Glières 02 par les Ollières</name>
  </metadata>
  <trk>
    <name><![CDATA[Sortie Vélo Avec Pascal the Boss et Joffrey.]]></name>
    <extensions>
      <line xmlns="http://www.topografix.com/GPX/gpx_style/0/2">
        <color>0000FF</color>
        <width>4</width>
      </line>
    </extensions>
    <trkseg>
      <trkpt lat="46.05468" lon="6.36644">
        <ele>515.8</ele>
        <time>2021-03-27T12:43:56Z</time>
      </trkpt>
      <trkpt lat="46.05468" lon="6.36644">
        <ele>515.8</ele>
        <time>2021-03-27T12:43:56Z</time>
      </trkpt>
      <trkpt lat="46.0547" lon="6.36646">
        <ele>515.4</ele>
        <time>2021-03-27T12:43:55Z</time>
      </trkpt>
      <trkpt lat="46.05474" lon="6.36649">
        <ele>514.4</ele>
        <time>2021-03-27T12:43:53Z</time>
      </trkpt>
      <trkpt lat="46.05476" lon="6.36649">
        <ele>514.2</ele>
        <time>2021-03-27T12:43:52Z</time>
      </trkpt>
      <trkpt lat="46.0548" lon="6.36648">
        <ele>513.4</ele>
        <time>2021-03-27T12:43:50Z</time>
      </trkpt>
      <trkpt lat="46.05483" lon="6.36647">
        <ele>513</ele>
        <time>2021-03-27T12:43:49Z</time>
      </trkpt>
      <trkpt lat="46.05487" lon="6.36647">
        <ele>512</ele>
        <time>2021-03-27T12:43:47Z</time>
      </trkpt>
      <trkpt lat="46.05489" lon="6.36649">
        <ele>511.8</ele>
        <time>2021-03-27T12:43:46Z</time>
      </trkpt>
      <trkpt lat="46.05492" lon="6.36652">
        <ele>511</ele>
        <time>2021-03-27T12:43:44Z</time>
      </trkpt>
      <trkpt lat="46.05493" lon="6.36654">
        <ele>510.6</ele>
        <time>2021-03-27T12:43:43Z</time>
      </trkpt>
      <trkpt lat="46.05495" lon="6.36658">
        <ele>509.8</ele>
        <time>2021-03-27T12:43:41Z</time>
      </trkpt>
      <trkpt lat="46.05496" lon="6.3666">
        <ele>509.4</ele>
        <time>2021-03-27T12:43:40Z</time>
      </trkpt>
      <trkpt lat="46.05499" lon="6.36666">
        <ele>508.6</ele>
        <time>2021-03-27T12:43:38Z</time>
      </trkpt>
      <trkpt lat="46.055" lon="6.36668">
        <ele>508.2</ele>
        <time>2021-03-27T12:43:37Z</time>
      </trkpt>
      <trkpt lat="46.05503" lon="6.36672">
        <ele>507.4</ele>
        <time>2021-03-27T12:43:35Z</time>
      </trkpt>
      <trkpt lat="46.05504" lon="6.36675">
        <ele>507.2</ele>
        <time>2021-03-27T12:43:34Z</time>
      </trkpt>
      <trkpt lat="46.05506" lon="6.36678">
        <ele>506.2</ele>
        <time>2021-03-27T12:43:32Z</time>
      </trkpt>
      <trkpt lat="46.05508" lon="6.3668">
        <ele>505.8</ele>
        <time>2021-03-27T12:43:31Z</time>
      </trkpt>
      <trkpt lat="46.0551" lon="6.36684">
        <ele>504.6</ele>
        <time>2021-03-27T12:43:29Z</time>
      </trkpt>
      <trkpt lat="46.05511" lon="6.36685">
        <ele>504.2</ele>
        <time>2021-03-27T12:43:28Z</time>
      </trkpt>
      <trkpt lat="46.05515" lon="6.36688">
        <ele>503.6</ele>
        <time>2021-03-27T12:43:26Z</time>
      </trkpt>
      <trkpt lat="46.05517" lon="6.3669">
        <ele>503.4</ele>
        <time>2021-03-27T12:43:25Z</time>
      </trkpt>
      <trkpt lat="46.05519" lon="6.36691">
        <ele>502.8</ele>
        <time>2021-03-27T12:43:24Z</time>
      </trkpt>
      <trkpt lat="46.05521" lon="6.36691">
        <ele>502.8</ele>
        <time>2021-03-27T12:43:23Z</time>
      </trkpt>
      <trkpt lat="46.05523" lon="6.3669">
        <ele>502.6</ele>
        <time>2021-03-27T12:43:22Z</time>
      </trkpt>
      <trkpt lat="46.05525" lon="6.36688">
        <ele>502.6</ele>
        <time>2021-03-27T12:43:21Z</time>
      </trkpt>
      <trkpt lat="46.05527" lon="6.36685">
        <ele>502.6</ele>
        <time>2021-03-27T12:43:20Z</time>
      </trkpt>
      <trkpt lat="46.05528" lon="6.36681">
        <ele>502.6</ele>
        <time>2021-03-27T12:43:19Z</time>
      </trkpt>
      <trkpt lat="46.05529" lon="6.36676">
        <ele>502.6</ele>
        <time>2021-03-27T12:43:18Z</time>
      </trkpt>
      <trkpt lat="46.0553" lon="6.36671">
        <ele>502.6</ele>
        <time>2021-03-27T12:43:17Z</time>
      </trkpt>
      <trkpt lat="46.0553" lon="6.36666">
        <ele>502.6</ele>
        <time>2021-03-27T12:43:16Z</time>
      </trkpt>
      <trkpt lat="46.0553" lon="6.36661">
        <ele>502.2</ele>
        <time>2021-03-27T12:43:15Z</time>
      </trkpt>
      <trkpt lat="46.05531" lon="6.36655">
        <ele>502</ele>
        <time>2021-03-27T12:43:14Z</time>
      </trkpt>
      <trkpt lat="46.05531" lon="6.3665">
        <ele>502</ele>
        <time>2021-03-27T12:43:13Z</time>
      </trkpt>
      <trkpt lat="46.05532" lon="6.36638">
        <ele>501.6</ele>
        <time>2021-03-27T12:43:11Z</time>
      </trkpt>
      <trkpt lat="46.05533" lon="6.36632">
        <ele>501.4</ele>
        <time>2021-03-27T12:43:10Z</time>
      </trkpt>
      <trkpt lat="46.05533" lon="6.3662">
        <ele>501.2</ele>
        <time>2021-03-27T12:43:08Z</time>
      </trkpt>
      <trkpt lat="46.05533" lon="6.36614">
        <ele>501.2</ele>
        <time>2021-03-27T12:43:07Z</time>
      </trkpt>
      <trkpt lat="46.05534" lon="6.36603">
        <ele>500.6</ele>
        <time>2021-03-27T12:43:05Z</time>
      </trkpt>
      <trkpt lat="46.05534" lon="6.36597">
        <ele>500.4</ele>
        <time>2021-03-27T12:43:04Z</time>
      </trkpt>
      <trkpt lat="46.05535" lon="6.36586">
        <ele>500</ele>
        <time>2021-03-27T12:43:02Z</time>
      </trkpt>
      <trkpt lat="46.05536" lon="6.3658">
        <ele>499.8</ele>
        <time>2021-03-27T12:43:01Z</time>
      </trkpt>
      <trkpt lat="46.05536" lon="6.36574">
        <ele>499.6</ele>
        <time>2021-03-27T12:43:00Z</time>
      </trkpt>
      <trkpt lat="46.05537" lon="6.36568">
        <ele>499.4</ele>
        <time>2021-03-27T12:42:59Z</time>
      </trkpt>
      <trkpt lat="46.05537" lon="6.36563">
        <ele>499.2</ele>
        <time>2021-03-27T12:42:58Z</time>
      </trkpt>
      <trkpt lat="46.05538" lon="6.36558">
        <ele>498.8</ele>
        <time>2021-03-27T12:42:57Z</time>
      </trkpt>
      <trkpt lat="46.05538" lon="6.36553">
        <ele>498.6</ele>
        <time>2021-03-27T12:42:56Z</time>
      </trkpt>
      <trkpt lat="46.05538" lon="6.36548">
        <ele>498.6</ele>
        <time>2021-03-27T12:42:55Z</time>
      </trkpt>
      <trkpt lat="46.05539" lon="6.36542">
        <ele>498.6</ele>
        <time>2021-03-27T12:42:54Z</time>
      </trkpt>
      <trkpt lat="46.05539" lon="6.36537">
        <ele>498.4</ele>
        <time>2021-03-27T12:42:53Z</time>
      </trkpt>
      <trkpt lat="46.05539" lon="6.36531">
        <ele>498.2</ele>
        <time>2021-03-27T12:42:52Z</time>
      </trkpt>
      <trkpt lat="46.0554" lon="6.36525">
        <ele>498</ele>
        <time>2021-03-27T12:42:51Z</time>
      </trkpt>
      <trkpt lat="46.0554" lon="6.36519">
        <ele>497.8</ele>
        <time>2021-03-27T12:42:50Z</time>
      </trkpt>
      <trkpt lat="46.05541" lon="6.36513">
        <ele>497.6</ele>
        <time>2021-03-27T12:42:49Z</time>
      </trkpt>
      <trkpt lat="46.05542" lon="6.36508">
        <ele>497.6</ele>
        <time>2021-03-27T12:42:48Z</time>
      </trkpt>
      <trkpt lat="46.05544" lon="6.36502">
        <ele>497.4</ele>
        <time>2021-03-27T12:42:47Z</time>
      </trkpt>
      <trkpt lat="46.05546" lon="6.36497">
        <ele>497.2</ele>
        <time>2021-03-27T12:42:46Z</time>
      </trkpt>
      <trkpt lat="46.0555" lon="6.36494">
        <ele>497</ele>
        <time>2021-03-27T12:42:45Z</time>
      </trkpt>
      <trkpt lat="46.05553" lon="6.36492">
        <ele>496.6</ele>
        <time>2021-03-27T12:42:44Z</time>
      </trkpt>
      <trkpt lat="46.05557" lon="6.36492">
        <ele>496.4</ele>
        <time>2021-03-27T12:42:43Z</time>
      </trkpt>
      <trkpt lat="46.0556" lon="6.36492">
        <ele>496.2</ele>
        <time>2021-03-27T12:42:42Z</time>
      </trkpt>
      <trkpt lat="46.05563" lon="6.36492">
        <ele>496</ele>
        <time>2021-03-27T12:42:41Z</time>
      </trkpt>
      <trkpt lat="46.05566" lon="6.36492">
        <ele>495.8</ele>
        <time>2021-03-27T12:42:40Z</time>
      </trkpt>
      <trkpt lat="46.05568" lon="6.3649">
        <ele>495.4</ele>
        <time>2021-03-27T12:42:39Z</time>
      </trkpt>
      <trkpt lat="46.05571" lon="6.36487">
        <ele>495.2</ele>
        <time>2021-03-27T12:42:38Z</time>
      </trkpt>
      <trkpt lat="46.05573" lon="6.36483">
        <ele>495.2</ele>
        <time>2021-03-27T12:42:37Z</time>
      </trkpt>
      <trkpt lat="46.05574" lon="6.36478">
        <ele>494.8</ele>
        <time>2021-03-27T12:42:36Z</time>
      </trkpt>
      <trkpt lat="46.05575" lon="6.36473">
        <ele>494.4</ele>
        <time>2021-03-27T12:42:35Z</time>
      </trkpt>
      <trkpt lat="46.05575" lon="6.36468">
        <ele>494.2</ele>
        <time>2021-03-27T12:42:34Z</time>
      </trkpt>
      <trkpt lat="46.05575" lon="6.36463">
        <ele>494</ele>
        <time>2021-03-27T12:42:33Z</time>
      </trkpt>
      <trkpt lat="46.05575" lon="6.36457">
        <ele>493.8</ele>
        <time>2021-03-27T12:42:32Z</time>
      </trkpt>
      <trkpt lat="46.05576" lon="6.36452">
        <ele>493.8</ele>
        <time>2021-03-27T12:42:31Z</time>
      </trkpt>
      <trkpt lat="46.05576" lon="6.36447">
        <ele>493.6</ele>
        <time>2021-03-27T12:42:30Z</time>
      </trkpt>
      <trkpt lat="46.05577" lon="6.36441">
        <ele>493.4</ele>
        <time>2021-03-27T12:42:29Z</time>
      </trkpt>
      <trkpt lat="46.05577" lon="6.36436">
        <ele>493.2</ele>
        <time>2021-03-27T12:42:28Z</time>
      </trkpt>
      <trkpt lat="46.05578" lon="6.36431">
        <ele>493</ele>
        <time>2021-03-27T12:42:27Z</time>
      </trkpt>
      <trkpt lat="46.05578" lon="6.36426">
        <ele>492.6</ele>
        <time>2021-03-27T12:42:26Z</time>
      </trkpt>
      <trkpt lat="46.05579" lon="6.36421">
        <ele>492.4</ele>
        <time>2021-03-27T12:42:25Z</time>
      </trkpt>
      <trkpt lat="46.0558" lon="6.36416">
        <ele>492</ele>
        <time>2021-03-27T12:42:24Z</time>
      </trkpt>
      <trkpt lat="46.0558" lon="6.36411">
        <ele>491.8</ele>
        <time>2021-03-27T12:42:23Z</time>
      </trkpt>
      <trkpt lat="46.05581" lon="6.36406">
        <ele>491.4</ele>
        <time>2021-03-27T12:42:22Z</time>
      </trkpt>
      <trkpt lat="46.05582" lon="6.36401">
        <ele>491</ele>
        <time>2021-03-27T12:42:21Z</time>
      </trkpt>
      <trkpt lat="46.05583" lon="6.36396">
        <ele>490.8</ele>
        <time>2021-03-27T12:42:20Z</time>
      </trkpt>
      <trkpt lat="46.05584" lon="6.36391">
        <ele>490.6</ele>
        <time>2021-03-27T12:42:19Z</time>
      </trkpt>
      <trkpt lat="46.05585" lon="6.36386">
        <ele>490.6</ele>
        <time>2021-03-27T12:42:18Z</time>
      </trkpt>
      <trkpt lat="46.05585" lon="6.36382">
        <ele>490.2</ele>
        <time>2021-03-27T12:42:17Z</time>
      </trkpt>
      <trkpt lat="46.05586" lon="6.36377">
        <ele>490</ele>
        <time>2021-03-27T12:42:16Z</time>
      </trkpt>
      <trkpt lat="46.05587" lon="6.36373">
        <ele>489.8</ele>
        <time>2021-03-27T12:42:15Z</time>
      </trkpt>
      <trkpt lat="46.05588" lon="6.36368">
        <ele>489.6</ele>
        <time>2021-03-27T12:42:14Z</time>
      </trkpt>
      <trkpt lat="46.05588" lon="6.36364">
        <ele>489.4</ele>
        <time>2021-03-27T12:42:13Z</time>
      </trkpt>
      <trkpt lat="46.05589" lon="6.36359">
        <ele>488.8</ele>
        <time>2021-03-27T12:42:12Z</time>
      </trkpt>
      <trkpt lat="46.05589" lon="6.36355">
        <ele>488.8</ele>
        <time>2021-03-27T12:42:11Z</time>
      </trkpt>
      <trkpt lat="46.0559" lon="6.3635">
        <ele>488.2</ele>
        <time>2021-03-27T12:42:10Z</time>
      </trkpt>
      <trkpt lat="46.05591" lon="6.36345">
        <ele>487.6</ele>
        <time>2021-03-27T12:42:09Z</time>
      </trkpt>
      <trkpt lat="46.05591" lon="6.3634">
        <ele>487.4</ele>
        <time>2021-03-27T12:42:08Z</time>
      </trkpt>
      <trkpt lat="46.05593" lon="6.36335">
        <ele>487</ele>
        <time>2021-03-27T12:42:07Z</time>
      </trkpt>
      <trkpt lat="46.05594" lon="6.36331">
        <ele>486.4</ele>
        <time>2021-03-27T12:42:06Z</time>
      </trkpt>
      <trkpt lat="46.05596" lon="6.36327">
        <ele>485.8</ele>
        <time>2021-03-27T12:42:05Z</time>
      </trkpt>
      <trkpt lat="46.05599" lon="6.36324">
        <ele>485.6</ele>
        <time>2021-03-27T12:42:04Z</time>
      </trkpt>
      <trkpt lat="46.05601" lon="6.36322">
        <ele>485.2</ele>
        <time>2021-03-27T12:42:03Z</time>
      </trkpt>
      <trkpt lat="46.05604" lon="6.36321">
        <ele>484.6</ele>
        <time>2021-03-27T12:42:02Z</time>
      </trkpt>
      <trkpt lat="46.05606" lon="6.3632">
        <ele>484.2</ele>
        <time>2021-03-27T12:42:01Z</time>
      </trkpt>
      <trkpt lat="46.05609" lon="6.36321">
        <ele>483.4</ele>
        <time>2021-03-27T12:42:00Z</time>
      </trkpt>
      <trkpt lat="46.05612" lon="6.36321">
        <ele>482.8</ele>
        <time>2021-03-27T12:41:59Z</time>
      </trkpt>
      <trkpt lat="46.05615" lon="6.36322">
        <ele>482.6</ele>
        <time>2021-03-27T12:41:58Z</time>
      </trkpt>
      <trkpt lat="46.05618" lon="6.36323">
        <ele>482.4</ele>
        <time>2021-03-27T12:41:57Z</time>
      </trkpt>
      <trkpt lat="46.05621" lon="6.36324">
        <ele>482.2</ele>
        <time>2021-03-27T12:41:56Z</time>
      </trkpt>
      <trkpt lat="46.05628" lon="6.36327">
        <ele>482.4</ele>
        <time>2021-03-27T12:41:54Z</time>
      </trkpt>
      <trkpt lat="46.05633" lon="6.36329">
        <ele>482.2</ele>
        <time>2021-03-27T12:41:53Z</time>
      </trkpt>
      <trkpt lat="46.05637" lon="6.36331">
        <ele>482.2</ele>
        <time>2021-03-27T12:41:52Z</time>
      </trkpt>
      <trkpt lat="46.05642" lon="6.36332">
        <ele>482</ele>
        <time>2021-03-27T12:41:51Z</time>
      </trkpt>
      <trkpt lat="46.05647" lon="6.36334">
        <ele>482</ele>
        <time>2021-03-27T12:41:50Z</time>
      </trkpt>
      <trkpt lat="46.05652" lon="6.36335">
        <ele>482</ele>
        <time>2021-03-27T12:41:49Z</time>
      </trkpt>
      <trkpt lat="46.05657" lon="6.36336">
        <ele>481.8</ele>
        <time>2021-03-27T12:41:48Z</time>
      </trkpt>
      <trkpt lat="46.05663" lon="6.36337">
        <ele>481.6</ele>
        <time>2021-03-27T12:41:47Z</time>
      </trkpt>
      <trkpt lat="46.05669" lon="6.36338">
        <ele>481.6</ele>
        <time>2021-03-27T12:41:46Z</time>
      </trkpt>
      <trkpt lat="46.05675" lon="6.36339">
        <ele>481.4</ele>
        <time>2021-03-27T12:41:45Z</time>
      </trkpt>
      <trkpt lat="46.0568" lon="6.36339">
        <ele>481.4</ele>
        <time>2021-03-27T12:41:44Z</time>
      </trkpt>
      <trkpt lat="46.05686" lon="6.36339">
        <ele>481.2</ele>
        <time>2021-03-27T12:41:43Z</time>
      </trkpt>
      <trkpt lat="46.05692" lon="6.36339">
        <ele>481</ele>
        <time>2021-03-27T12:41:42Z</time>
      </trkpt>
      <trkpt lat="46.05699" lon="6.36339">
        <ele>481</ele>
        <time>2021-03-27T12:41:41Z</time>
      </trkpt>
      <trkpt lat="46.05705" lon="6.3634">
        <ele>480.8</ele>
        <time>2021-03-27T12:41:40Z</time>
      </trkpt>
      <trkpt lat="46.05711" lon="6.3634">
        <ele>480.4</ele>
        <time>2021-03-27T12:41:39Z</time>
      </trkpt>
      <trkpt lat="46.05717" lon="6.36341">
        <ele>480.4</ele>
        <time>2021-03-27T12:41:38Z</time>
      </trkpt>
      <trkpt lat="46.05722" lon="6.36341">
        <ele>480.4</ele>
        <time>2021-03-27T12:41:37Z</time>
      </trkpt>
      <trkpt lat="46.05728" lon="6.3634">
        <ele>480.4</ele>
        <time>2021-03-27T12:41:36Z</time>
      </trkpt>
      <trkpt lat="46.05734" lon="6.36339">
        <ele>480.2</ele>
        <time>2021-03-27T12:41:35Z</time>
      </trkpt>
      <trkpt lat="46.0574" lon="6.36339">
        <ele>480.4</ele>
        <time>2021-03-27T12:41:34Z</time>
      </trkpt>
      <trkpt lat="46.05746" lon="6.36338">
        <ele>480.2</ele>
        <time>2021-03-27T12:41:33Z</time>
      </trkpt>
      <trkpt lat="46.05752" lon="6.36337">
        <ele>480.2</ele>
        <time>2021-03-27T12:41:32Z</time>
      </trkpt>
      <trkpt lat="46.05759" lon="6.36337">
        <ele>480.2</ele>
        <time>2021-03-27T12:41:31Z</time>
      </trkpt>
      <trkpt lat="46.05765" lon="6.36335">
        <ele>480.2</ele>
        <time>2021-03-27T12:41:30Z</time>
      </trkpt>
      <trkpt lat="46.05771" lon="6.36334">
        <ele>480.2</ele>
        <time>2021-03-27T12:41:29Z</time>
      </trkpt>
      <trkpt lat="46.05777" lon="6.36333">
        <ele>480.2</ele>
        <time>2021-03-27T12:41:28Z</time>
      </trkpt>
      <trkpt lat="46.05783" lon="6.36333">
        <ele>480</ele>
        <time>2021-03-27T12:41:27Z</time>
      </trkpt>
      <trkpt lat="46.05789" lon="6.36332">
        <ele>480.2</ele>
        <time>2021-03-27T12:41:26Z</time>
      </trkpt>
      <trkpt lat="46.05795" lon="6.36331">
        <ele>480.2</ele>
        <time>2021-03-27T12:41:25Z</time>
      </trkpt>
      <trkpt lat="46.05801" lon="6.36331">
        <ele>480.2</ele>
        <time>2021-03-27T12:41:24Z</time>
      </trkpt>
      <trkpt lat="46.05807" lon="6.36331">
        <ele>480.2</ele>
        <time>2021-03-27T12:41:23Z</time>
      </trkpt>
      <trkpt lat="46.05813" lon="6.36331">
        <ele>480</ele>
        <time>2021-03-27T12:41:22Z</time>
      </trkpt>
      <trkpt lat="46.05819" lon="6.36331">
        <ele>480</ele>
        <time>2021-03-27T12:41:21Z</time>
      </trkpt>
      <trkpt lat="46.05825" lon="6.36331">
        <ele>480</ele>
        <time>2021-03-27T12:41:20Z</time>
      </trkpt>
      <trkpt lat="46.05831" lon="6.36331">
        <ele>480</ele>
        <time>2021-03-27T12:41:19Z</time>
      </trkpt>
      <trkpt lat="46.05837" lon="6.36331">
        <ele>480</ele>
        <time>2021-03-27T12:41:18Z</time>
      </trkpt>
      <trkpt lat="46.05843" lon="6.36331">
        <ele>480</ele>
        <time>2021-03-27T12:41:17Z</time>
      </trkpt>
      <trkpt lat="46.05849" lon="6.36331">
        <ele>480</ele>
        <time>2021-03-27T12:41:16Z</time>
      </trkpt>
      <trkpt lat="46.05855" lon="6.36331">
        <ele>480.2</ele>
        <time>2021-03-27T12:41:15Z</time>
      </trkpt>
      <trkpt lat="46.0586" lon="6.36331">
        <ele>480</ele>
        <time>2021-03-27T12:41:14Z</time>
      </trkpt>
      <trkpt lat="46.05865" lon="6.3633">
        <ele>480.2</ele>
        <time>2021-03-27T12:41:13Z</time>
      </trkpt>
      <trkpt lat="46.0587" lon="6.36331">
        <ele>480.2</ele>
        <time>2021-03-27T12:41:12Z</time>
      </trkpt>
      <trkpt lat="46.05875" lon="6.36331">
        <ele>480.4</ele>
        <time>2021-03-27T12:41:11Z</time>
      </trkpt>
      <trkpt lat="46.0588" lon="6.36332">
        <ele>480.2</ele>
        <time>2021-03-27T12:41:10Z</time>
      </trkpt>
      <trkpt lat="46.05884" lon="6.36334">
        <ele>480.2</ele>
        <time>2021-03-27T12:41:09Z</time>
      </trkpt>
      <trkpt lat="46.05888" lon="6.36337">
        <ele>480.4</ele>
        <time>2021-03-27T12:41:08Z</time>
      </trkpt>
      <trkpt lat="46.05891" lon="6.36343">
        <ele>480.2</ele>
        <time>2021-03-27T12:41:07Z</time>
      </trkpt>
      <trkpt lat="46.05893" lon="6.3635">
        <ele>480.2</ele>
        <time>2021-03-27T12:41:06Z</time>
      </trkpt>
      <trkpt lat="46.05895" lon="6.36358">
        <ele>480</ele>
        <time>2021-03-27T12:41:05Z</time>
      </trkpt>
      <trkpt lat="46.05898" lon="6.36365">
        <ele>480</ele>
        <time>2021-03-27T12:41:04Z</time>
      </trkpt>
      <trkpt lat="46.05902" lon="6.36371">
        <ele>480.2</ele>
        <time>2021-03-27T12:41:03Z</time>
      </trkpt>
      <trkpt lat="46.05906" lon="6.36377">
        <ele>480</ele>
        <time>2021-03-27T12:41:02Z</time>
      </trkpt>
      <trkpt lat="46.05912" lon="6.36381">
        <ele>480</ele>
        <time>2021-03-27T12:41:01Z</time>
      </trkpt>
      <trkpt lat="46.05917" lon="6.36385">
        <ele>480.2</ele>
        <time>2021-03-27T12:41:00Z</time>
      </trkpt>
      <trkpt lat="46.05922" lon="6.36389">
        <ele>480</ele>
        <time>2021-03-27T12:40:59Z</time>
      </trkpt>
      <trkpt lat="46.05927" lon="6.36392">
        <ele>479.8</ele>
        <time>2021-03-27T12:40:58Z</time>
      </trkpt>
      <trkpt lat="46.05932" lon="6.36393">
        <ele>479.6</ele>
        <time>2021-03-27T12:40:57Z</time>
      </trkpt>
      <trkpt lat="46.05937" lon="6.36395">
        <ele>479.4</ele>
        <time>2021-03-27T12:40:56Z</time>
      </trkpt>
      <trkpt lat="46.05943" lon="6.36397">
        <ele>479.4</ele>
        <time>2021-03-27T12:40:55Z</time>
      </trkpt>
      <trkpt lat="46.05947" lon="6.36396">
        <ele>479.4</ele>
        <time>2021-03-27T12:40:54Z</time>
      </trkpt>
      <trkpt lat="46.05952" lon="6.36394">
        <ele>479.2</ele>
        <time>2021-03-27T12:40:53Z</time>
      </trkpt>
      <trkpt lat="46.05955" lon="6.36388">
        <ele>479.2</ele>
        <time>2021-03-27T12:40:52Z</time>
      </trkpt>
      <trkpt lat="46.05957" lon="6.3638">
        <ele>479</ele>
        <time>2021-03-27T12:40:51Z</time>
      </trkpt>
      <trkpt lat="46.05958" lon="6.36372">
        <ele>479</ele>
        <time>2021-03-27T12:40:50Z</time>
      </trkpt>
      <trkpt lat="46.0596" lon="6.36365">
        <ele>479</ele>
        <time>2021-03-27T12:40:49Z</time>
      </trkpt>
      <trkpt lat="46.05963" lon="6.36359">
        <ele>478.8</ele>
        <time>2021-03-27T12:40:48Z</time>
      </trkpt>
      <trkpt lat="46.05968" lon="6.36355">
        <ele>479</ele>
        <time>2021-03-27T12:40:47Z</time>
      </trkpt>
      <trkpt lat="46.05974" lon="6.36352">
        <ele>478.8</ele>
        <time>2021-03-27T12:40:46Z</time>
      </trkpt>
      <trkpt lat="46.05979" lon="6.36351">
        <ele>478.8</ele>
        <time>2021-03-27T12:40:45Z</time>
      </trkpt>
      <trkpt lat="46.05985" lon="6.3635">
        <ele>478.8</ele>
        <time>2021-03-27T12:40:44Z</time>
      </trkpt>
      <trkpt lat="46.0599" lon="6.3635">
        <ele>478.8</ele>
        <time>2021-03-27T12:40:43Z</time>
      </trkpt>
      <trkpt lat="46.05996" lon="6.36351">
        <ele>478.8</ele>
        <time>2021-03-27T12:40:42Z</time>
      </trkpt>
      <trkpt lat="46.06001" lon="6.36352">
        <ele>478.8</ele>
        <time>2021-03-27T12:40:41Z</time>
      </trkpt>
      <trkpt lat="46.06007" lon="6.36353">
        <ele>478.8</ele>
        <time>2021-03-27T12:40:40Z</time>
      </trkpt>
      <trkpt lat="46.06014" lon="6.36354">
        <ele>478.6</ele>
        <time>2021-03-27T12:40:39Z</time>
      </trkpt>
      <trkpt lat="46.0602" lon="6.36355">
        <ele>478.8</ele>
        <time>2021-03-27T12:40:38Z</time>
      </trkpt>
      <trkpt lat="46.06027" lon="6.36356">
        <ele>478.8</ele>
        <time>2021-03-27T12:40:37Z</time>
      </trkpt>
      <trkpt lat="46.06033" lon="6.36358">
        <ele>478.6</ele>
        <time>2021-03-27T12:40:36Z</time>
      </trkpt>
      <trkpt lat="46.0604" lon="6.3636">
        <ele>478.4</ele>
        <time>2021-03-27T12:40:35Z</time>
      </trkpt>
      <trkpt lat="46.06046" lon="6.36361">
        <ele>478.2</ele>
        <time>2021-03-27T12:40:34Z</time>
      </trkpt>
      <trkpt lat="46.06053" lon="6.36363">
        <ele>478.2</ele>
        <time>2021-03-27T12:40:33Z</time>
      </trkpt>
      <trkpt lat="46.0606" lon="6.36364">
        <ele>477.8</ele>
        <time>2021-03-27T12:40:32Z</time>
      </trkpt>
      <trkpt lat="46.06067" lon="6.36365">
        <ele>477.8</ele>
        <time>2021-03-27T12:40:31Z</time>
      </trkpt>
      <trkpt lat="46.06073" lon="6.36367">
        <ele>477.8</ele>
        <time>2021-03-27T12:40:30Z</time>
      </trkpt>
      <trkpt lat="46.0608" lon="6.36367">
        <ele>477.8</ele>
        <time>2021-03-27T12:40:29Z</time>
      </trkpt>
      <trkpt lat="46.06087" lon="6.36368">
        <ele>477.6</ele>
        <time>2021-03-27T12:40:28Z</time>
      </trkpt>
      <trkpt lat="46.06094" lon="6.36369">
        <ele>477.6</ele>
        <time>2021-03-27T12:40:27Z</time>
      </trkpt>
      <trkpt lat="46.06101" lon="6.3637">
        <ele>477.6</ele>
        <time>2021-03-27T12:40:26Z</time>
      </trkpt>
      <trkpt lat="46.06107" lon="6.3637">
        <ele>477.6</ele>
        <time>2021-03-27T12:40:25Z</time>
      </trkpt>
      <trkpt lat="46.06114" lon="6.36371">
        <ele>477.6</ele>
        <time>2021-03-27T12:40:24Z</time>
      </trkpt>
      <trkpt lat="46.06121" lon="6.36371">
        <ele>477.2</ele>
        <time>2021-03-27T12:40:23Z</time>
      </trkpt>
      <trkpt lat="46.06128" lon="6.36372">
        <ele>477.4</ele>
        <time>2021-03-27T12:40:22Z</time>
      </trkpt>
      <trkpt lat="46.06134" lon="6.36372">
        <ele>477.4</ele>
        <time>2021-03-27T12:40:21Z</time>
      </trkpt>
      <trkpt lat="46.06141" lon="6.36373">
        <ele>477.2</ele>
        <time>2021-03-27T12:40:20Z</time>
      </trkpt>
      <trkpt lat="46.06148" lon="6.36373">
        <ele>477.4</ele>
        <time>2021-03-27T12:40:19Z</time>
      </trkpt>
      <trkpt lat="46.06155" lon="6.36372">
        <ele>477.4</ele>
        <time>2021-03-27T12:40:18Z</time>
      </trkpt>
      <trkpt lat="46.06161" lon="6.36371">
        <ele>477.2</ele>
        <time>2021-03-27T12:40:17Z</time>
      </trkpt>
      <trkpt lat="46.06168" lon="6.36369">
        <ele>477.2</ele>
        <time>2021-03-27T12:40:16Z</time>
      </trkpt>
      <trkpt lat="46.06175" lon="6.36368">
        <ele>477.2</ele>
        <time>2021-03-27T12:40:15Z</time>
      </trkpt>
      <trkpt lat="46.06181" lon="6.36368">
        <ele>477</ele>
        <time>2021-03-27T12:40:14Z</time>
      </trkpt>
      <trkpt lat="46.06188" lon="6.36368">
        <ele>476.8</ele>
        <time>2021-03-27T12:40:13Z</time>
      </trkpt>
      <trkpt lat="46.06195" lon="6.3637">
        <ele>477</ele>
        <time>2021-03-27T12:40:12Z</time>
      </trkpt>
      <trkpt lat="46.06202" lon="6.36371">
        <ele>476.8</ele>
        <time>2021-03-27T12:40:11Z</time>
      </trkpt>
      <trkpt lat="46.06208" lon="6.36373">
        <ele>476.8</ele>
        <time>2021-03-27T12:40:10Z</time>
      </trkpt>
      <trkpt lat="46.06215" lon="6.36375">
        <ele>476.4</ele>
        <time>2021-03-27T12:40:09Z</time>
      </trkpt>
      <trkpt lat="46.06222" lon="6.36377">
        <ele>476.4</ele>
        <time>2021-03-27T12:40:08Z</time>
      </trkpt>
      <trkpt lat="46.06229" lon="6.36378">
        <ele>476.2</ele>
        <time>2021-03-27T12:40:07Z</time>
      </trkpt>
      <trkpt lat="46.06235" lon="6.3638">
        <ele>476.2</ele>
        <time>2021-03-27T12:40:06Z</time>
      </trkpt>
      <trkpt lat="46.06242" lon="6.36381">
        <ele>476</ele>
        <time>2021-03-27T12:40:05Z</time>
      </trkpt>
      <trkpt lat="46.06249" lon="6.36383">
        <ele>476.2</ele>
        <time>2021-03-27T12:40:04Z</time>
      </trkpt>
      <trkpt lat="46.06255" lon="6.36385">
        <ele>476</ele>
        <time>2021-03-27T12:40:03Z</time>
      </trkpt>
      <trkpt lat="46.06261" lon="6.36386">
        <ele>476</ele>
        <time>2021-03-27T12:40:02Z</time>
      </trkpt>
      <trkpt lat="46.06267" lon="6.36388">
        <ele>476</ele>
        <time>2021-03-27T12:40:01Z</time>
      </trkpt>
      <trkpt lat="46.06274" lon="6.36389">
        <ele>476</ele>
        <time>2021-03-27T12:40:00Z</time>
      </trkpt>
      <trkpt lat="46.0628" lon="6.36391">
        <ele>475.8</ele>
        <time>2021-03-27T12:39:59Z</time>
      </trkpt>
      <trkpt lat="46.06286" lon="6.36392">
        <ele>475.6</ele>
        <time>2021-03-27T12:39:58Z</time>
      </trkpt>
      <trkpt lat="46.06293" lon="6.36394">
        <ele>475.8</ele>
        <time>2021-03-27T12:39:57Z</time>
      </trkpt>
      <trkpt lat="46.06299" lon="6.36395">
        <ele>475.6</ele>
        <time>2021-03-27T12:39:56Z</time>
      </trkpt>
      <trkpt lat="46.06305" lon="6.36396">
        <ele>475.6</ele>
        <time>2021-03-27T12:39:55Z</time>
      </trkpt>
      <trkpt lat="46.06312" lon="6.36398">
        <ele>475.6</ele>
        <time>2021-03-27T12:39:54Z</time>
      </trkpt>
      <trkpt lat="46.06318" lon="6.36399">
        <ele>475.4</ele>
        <time>2021-03-27T12:39:53Z</time>
      </trkpt>
      <trkpt lat="46.06325" lon="6.36401">
        <ele>475.4</ele>
        <time>2021-03-27T12:39:52Z</time>
      </trkpt>
      <trkpt lat="46.06331" lon="6.36402">
        <ele>475.2</ele>
        <time>2021-03-27T12:39:51Z</time>
      </trkpt>
      <trkpt lat="46.06338" lon="6.36403">
        <ele>475</ele>
        <time>2021-03-27T12:39:50Z</time>
      </trkpt>
      <trkpt lat="46.06344" lon="6.36404">
        <ele>474.8</ele>
        <time>2021-03-27T12:39:49Z</time>
      </trkpt>
      <trkpt lat="46.0635" lon="6.36404">
        <ele>474.6</ele>
        <time>2021-03-27T12:39:48Z</time>
      </trkpt>
      <trkpt lat="46.06356" lon="6.36405">
        <ele>474.4</ele>
        <time>2021-03-27T12:39:47Z</time>
      </trkpt>
      <trkpt lat="46.06362" lon="6.36405">
        <ele>474.4</ele>
        <time>2021-03-27T12:39:46Z</time>
      </trkpt>
      <trkpt lat="46.06369" lon="6.36405">
        <ele>474.2</ele>
        <time>2021-03-27T12:39:45Z</time>
      </trkpt>
      <trkpt lat="46.06375" lon="6.36406">
        <ele>474.2</ele>
        <time>2021-03-27T12:39:44Z</time>
      </trkpt>
      <trkpt lat="46.06381" lon="6.36405">
        <ele>474.2</ele>
        <time>2021-03-27T12:39:43Z</time>
      </trkpt>
      <trkpt lat="46.06387" lon="6.36405">
        <ele>473.8</ele>
        <time>2021-03-27T12:39:42Z</time>
      </trkpt>
      <trkpt lat="46.06393" lon="6.36404">
        <ele>473.8</ele>
        <time>2021-03-27T12:39:41Z</time>
      </trkpt>
      <trkpt lat="46.06399" lon="6.36403">
        <ele>473.6</ele>
        <time>2021-03-27T12:39:40Z</time>
      </trkpt>
      <trkpt lat="46.06406" lon="6.36403">
        <ele>473.8</ele>
        <time>2021-03-27T12:39:39Z</time>
      </trkpt>
      <trkpt lat="46.06412" lon="6.36403">
        <ele>473.6</ele>
        <time>2021-03-27T12:39:38Z</time>
      </trkpt>
      <trkpt lat="46.06419" lon="6.36402">
        <ele>473.4</ele>
        <time>2021-03-27T12:39:37Z</time>
      </trkpt>
      <trkpt lat="46.06425" lon="6.36402">
        <ele>473.4</ele>
        <time>2021-03-27T12:39:36Z</time>
      </trkpt>
      <trkpt lat="46.06432" lon="6.36402">
        <ele>473.2</ele>
        <time>2021-03-27T12:39:35Z</time>
      </trkpt>
      <trkpt lat="46.06438" lon="6.36401">
        <ele>473.2</ele>
        <time>2021-03-27T12:39:34Z</time>
      </trkpt>
      <trkpt lat="46.06445" lon="6.36402">
        <ele>473</ele>
        <time>2021-03-27T12:39:33Z</time>
      </trkpt>
      <trkpt lat="46.06452" lon="6.36402">
        <ele>473</ele>
        <time>2021-03-27T12:39:32Z</time>
      </trkpt>
      <trkpt lat="46.06458" lon="6.36402">
        <ele>472.8</ele>
        <time>2021-03-27T12:39:31Z</time>
      </trkpt>
      <trkpt lat="46.06465" lon="6.36403">
        <ele>472.6</ele>
        <time>2021-03-27T12:39:30Z</time>
      </trkpt>
      <trkpt lat="46.06471" lon="6.36404">
        <ele>472.6</ele>
        <time>2021-03-27T12:39:29Z</time>
      </trkpt>
      <trkpt lat="46.06478" lon="6.36404">
        <ele>472.6</ele>
        <time>2021-03-27T12:39:28Z</time>
      </trkpt>
      <trkpt lat="46.06484" lon="6.36405">
        <ele>472.4</ele>
        <time>2021-03-27T12:39:27Z</time>
      </trkpt>
      <trkpt lat="46.06491" lon="6.36405">
        <ele>472</ele>
        <time>2021-03-27T12:39:26Z</time>
      </trkpt>
      <trkpt lat="46.06498" lon="6.36405">
        <ele>471.4</ele>
        <time>2021-03-27T12:39:25Z</time>
      </trkpt>
      <trkpt lat="46.06504" lon="6.36406">
        <ele>471.2</ele>
        <time>2021-03-27T12:39:24Z</time>
      </trkpt>
      <trkpt lat="46.06511" lon="6.36406">
        <ele>471.2</ele>
        <time>2021-03-27T12:39:23Z</time>
      </trkpt>
      <trkpt lat="46.06518" lon="6.36407">
        <ele>471</ele>
        <time>2021-03-27T12:39:22Z</time>
      </trkpt>
      <trkpt lat="46.06524" lon="6.36407">
        <ele>471</ele>
        <time>2021-03-27T12:39:21Z</time>
      </trkpt>
      <trkpt lat="46.06531" lon="6.36408">
        <ele>470.8</ele>
        <time>2021-03-27T12:39:20Z</time>
      </trkpt>
      <trkpt lat="46.06537" lon="6.36407">
        <ele>470.8</ele>
        <time>2021-03-27T12:39:19Z</time>
      </trkpt>
      <trkpt lat="46.06543" lon="6.36406">
        <ele>470.6</ele>
        <time>2021-03-27T12:39:18Z</time>
      </trkpt>
      <trkpt lat="46.06549" lon="6.36404">
        <ele>470.6</ele>
        <time>2021-03-27T12:39:17Z</time>
      </trkpt>
      <trkpt lat="46.06555" lon="6.36404">
        <ele>470.6</ele>
        <time>2021-03-27T12:39:16Z</time>
      </trkpt>
      <trkpt lat="46.06561" lon="6.36406">
        <ele>470.6</ele>
        <time>2021-03-27T12:39:15Z</time>
      </trkpt>
      <trkpt lat="46.06567" lon="6.3641">
        <ele>470.4</ele>
        <time>2021-03-27T12:39:14Z</time>
      </trkpt>
      <trkpt lat="46.06573" lon="6.36413">
        <ele>470.6</ele>
        <time>2021-03-27T12:39:13Z</time>
      </trkpt>
      <trkpt lat="46.0658" lon="6.36416">
        <ele>470.6</ele>
        <time>2021-03-27T12:39:12Z</time>
      </trkpt>
      <trkpt lat="46.06586" lon="6.36417">
        <ele>470.4</ele>
        <time>2021-03-27T12:39:11Z</time>
      </trkpt>
      <trkpt lat="46.06593" lon="6.36419">
        <ele>470.4</ele>
        <time>2021-03-27T12:39:10Z</time>
      </trkpt>
      <trkpt lat="46.066" lon="6.36422">
        <ele>470.4</ele>
        <time>2021-03-27T12:39:09Z</time>
      </trkpt>
      <trkpt lat="46.06606" lon="6.36424">
        <ele>470.4</ele>
        <time>2021-03-27T12:39:08Z</time>
      </trkpt>
      <trkpt lat="46.06613" lon="6.36425">
        <ele>470.2</ele>
        <time>2021-03-27T12:39:07Z</time>
      </trkpt>
      <trkpt lat="46.06619" lon="6.36427">
        <ele>470.2</ele>
        <time>2021-03-27T12:39:06Z</time>
      </trkpt>
      <trkpt lat="46.06625" lon="6.36428">
        <ele>470</ele>
        <time>2021-03-27T12:39:05Z</time>
      </trkpt>
      <trkpt lat="46.06632" lon="6.36429">
        <ele>470</ele>
        <time>2021-03-27T12:39:04Z</time>
      </trkpt>
      <trkpt lat="46.06638" lon="6.3643">
        <ele>470</ele>
        <time>2021-03-27T12:39:03Z</time>
      </trkpt>
      <trkpt lat="46.06644" lon="6.36431">
        <ele>470</ele>
        <time>2021-03-27T12:39:02Z</time>
      </trkpt>
      <trkpt lat="46.06651" lon="6.36433">
        <ele>469.8</ele>
        <time>2021-03-27T12:39:01Z</time>
      </trkpt>
      <trkpt lat="46.06657" lon="6.36434">
        <ele>469.8</ele>
        <time>2021-03-27T12:39:00Z</time>
      </trkpt>
      <trkpt lat="46.06664" lon="6.36435">
        <ele>469.8</ele>
        <time>2021-03-27T12:38:59Z</time>
      </trkpt>
      <trkpt lat="46.0667" lon="6.36436">
        <ele>469.6</ele>
        <time>2021-03-27T12:38:58Z</time>
      </trkpt>
      <trkpt lat="46.06676" lon="6.36437">
        <ele>469.4</ele>
        <time>2021-03-27T12:38:57Z</time>
      </trkpt>
      <trkpt lat="46.06683" lon="6.36438">
        <ele>469.4</ele>
        <time>2021-03-27T12:38:56Z</time>
      </trkpt>
      <trkpt lat="46.0669" lon="6.36439">
        <ele>469.2</ele>
        <time>2021-03-27T12:38:55Z</time>
      </trkpt>
      <trkpt lat="46.06696" lon="6.3644">
        <ele>469</ele>
        <time>2021-03-27T12:38:54Z</time>
      </trkpt>
      <trkpt lat="46.06703" lon="6.36442">
        <ele>469</ele>
        <time>2021-03-27T12:38:53Z</time>
      </trkpt>
      <trkpt lat="46.06709" lon="6.36443">
        <ele>469</ele>
        <time>2021-03-27T12:38:52Z</time>
      </trkpt>
      <trkpt lat="46.06716" lon="6.36444">
        <ele>469</ele>
        <time>2021-03-27T12:38:51Z</time>
      </trkpt>
      <trkpt lat="46.06722" lon="6.36445">
        <ele>468.8</ele>
        <time>2021-03-27T12:38:50Z</time>
      </trkpt>
      <trkpt lat="46.06728" lon="6.36447">
        <ele>468.8</ele>
        <time>2021-03-27T12:38:49Z</time>
      </trkpt>
      <trkpt lat="46.06735" lon="6.36448">
        <ele>468.6</ele>
        <time>2021-03-27T12:38:48Z</time>
      </trkpt>
      <trkpt lat="46.06741" lon="6.36449">
        <ele>468.6</ele>
        <time>2021-03-27T12:38:47Z</time>
      </trkpt>
      <trkpt lat="46.06748" lon="6.3645">
        <ele>468.6</ele>
        <time>2021-03-27T12:38:46Z</time>
      </trkpt>
      <trkpt lat="46.06754" lon="6.36451">
        <ele>468.6</ele>
        <time>2021-03-27T12:38:45Z</time>
      </trkpt>
      <trkpt lat="46.06761" lon="6.36452">
        <ele>468.4</ele>
        <time>2021-03-27T12:38:44Z</time>
      </trkpt>
      <trkpt lat="46.06767" lon="6.36453">
        <ele>468.4</ele>
        <time>2021-03-27T12:38:43Z</time>
      </trkpt>
      <trkpt lat="46.06774" lon="6.36454">
        <ele>468.4</ele>
        <time>2021-03-27T12:38:42Z</time>
      </trkpt>
      <trkpt lat="46.0678" lon="6.36456">
        <ele>468.2</ele>
        <time>2021-03-27T12:38:41Z</time>
      </trkpt>
      <trkpt lat="46.06787" lon="6.36457">
        <ele>468.2</ele>
        <time>2021-03-27T12:38:40Z</time>
      </trkpt>
      <trkpt lat="46.06793" lon="6.36458">
        <ele>468</ele>
        <time>2021-03-27T12:38:39Z</time>
      </trkpt>
      <trkpt lat="46.06799" lon="6.36459">
        <ele>468</ele>
        <time>2021-03-27T12:38:38Z</time>
      </trkpt>
      <trkpt lat="46.06806" lon="6.3646">
        <ele>468</ele>
        <time>2021-03-27T12:38:37Z</time>
      </trkpt>
      <trkpt lat="46.06812" lon="6.36461">
        <ele>467.8</ele>
        <time>2021-03-27T12:38:36Z</time>
      </trkpt>
      <trkpt lat="46.06819" lon="6.36463">
        <ele>467.8</ele>
        <time>2021-03-27T12:38:35Z</time>
      </trkpt>
      <trkpt lat="46.06825" lon="6.36464">
        <ele>467.6</ele>
        <time>2021-03-27T12:38:34Z</time>
      </trkpt>
      <trkpt lat="46.06831" lon="6.36466">
        <ele>467.6</ele>
        <time>2021-03-27T12:38:33Z</time>
      </trkpt>
      <trkpt lat="46.06838" lon="6.36467">
        <ele>467.6</ele>
        <time>2021-03-27T12:38:32Z</time>
      </trkpt>
      <trkpt lat="46.06844" lon="6.36468">
        <ele>467.6</ele>
        <time>2021-03-27T12:38:31Z</time>
      </trkpt>
      <trkpt lat="46.0685" lon="6.3647">
        <ele>467.4</ele>
        <time>2021-03-27T12:38:30Z</time>
      </trkpt>
      <trkpt lat="46.06857" lon="6.36471">
        <ele>467.6</ele>
        <time>2021-03-27T12:38:29Z</time>
      </trkpt>
      <trkpt lat="46.06863" lon="6.36472">
        <ele>467.6</ele>
        <time>2021-03-27T12:38:28Z</time>
      </trkpt>
      <trkpt lat="46.06869" lon="6.36473">
        <ele>467.4</ele>
        <time>2021-03-27T12:38:27Z</time>
      </trkpt>
      <trkpt lat="46.06875" lon="6.36475">
        <ele>467.4</ele>
        <time>2021-03-27T12:38:26Z</time>
      </trkpt>
      <trkpt lat="46.06882" lon="6.36476">
        <ele>467.6</ele>
        <time>2021-03-27T12:38:25Z</time>
      </trkpt>
      <trkpt lat="46.06888" lon="6.36477">
        <ele>467.6</ele>
        <time>2021-03-27T12:38:24Z</time>
      </trkpt>
      <trkpt lat="46.06894" lon="6.36478">
        <ele>467.6</ele>
        <time>2021-03-27T12:38:23Z</time>
      </trkpt>
      <trkpt lat="46.069" lon="6.36479">
        <ele>467.6</ele>
        <time>2021-03-27T12:38:22Z</time>
      </trkpt>
      <trkpt lat="46.06906" lon="6.3648">
        <ele>467.6</ele>
        <time>2021-03-27T12:38:21Z</time>
      </trkpt>
      <trkpt lat="46.06913" lon="6.36482">
        <ele>467.6</ele>
        <time>2021-03-27T12:38:20Z</time>
      </trkpt>
      <trkpt lat="46.06919" lon="6.36483">
        <ele>467.8</ele>
        <time>2021-03-27T12:38:19Z</time>
      </trkpt>
      <trkpt lat="46.06925" lon="6.36484">
        <ele>467.8</ele>
        <time>2021-03-27T12:38:18Z</time>
      </trkpt>
      <trkpt lat="46.06931" lon="6.36485">
        <ele>467.8</ele>
        <time>2021-03-27T12:38:17Z</time>
      </trkpt>
      <trkpt lat="46.06937" lon="6.36486">
        <ele>468</ele>
        <time>2021-03-27T12:38:16Z</time>
      </trkpt>
      <trkpt lat="46.06944" lon="6.36486">
        <ele>468</ele>
        <time>2021-03-27T12:38:15Z</time>
      </trkpt>
      <trkpt lat="46.0695" lon="6.36487">
        <ele>468</ele>
        <time>2021-03-27T12:38:14Z</time>
      </trkpt>
      <trkpt lat="46.06956" lon="6.36488">
        <ele>468</ele>
        <time>2021-03-27T12:38:13Z</time>
      </trkpt>
      <trkpt lat="46.06963" lon="6.36488">
        <ele>468</ele>
        <time>2021-03-27T12:38:12Z</time>
      </trkpt>
      <trkpt lat="46.06969" lon="6.36489">
        <ele>468</ele>
        <time>2021-03-27T12:38:11Z</time>
      </trkpt>
      <trkpt lat="46.06975" lon="6.36489">
        <ele>468</ele>
        <time>2021-03-27T12:38:10Z</time>
      </trkpt>
      <trkpt lat="46.06981" lon="6.3649">
        <ele>467.8</ele>
        <time>2021-03-27T12:38:09Z</time>
      </trkpt>
      <trkpt lat="46.06987" lon="6.3649">
        <ele>468.2</ele>
        <time>2021-03-27T12:38:08Z</time>
      </trkpt>
      <trkpt lat="46.06993" lon="6.3649">
        <ele>468</ele>
        <time>2021-03-27T12:38:07Z</time>
      </trkpt>
      <trkpt lat="46.06999" lon="6.36491">
        <ele>468.2</ele>
        <time>2021-03-27T12:38:06Z</time>
      </trkpt>
      <trkpt lat="46.07004" lon="6.36491">
        <ele>468</ele>
        <time>2021-03-27T12:38:05Z</time>
      </trkpt>
      <trkpt lat="46.07009" lon="6.36492">
        <ele>468</ele>
        <time>2021-03-27T12:38:04Z</time>
      </trkpt>
      <trkpt lat="46.07015" lon="6.36492">
        <ele>468.2</ele>
        <time>2021-03-27T12:38:03Z</time>
      </trkpt>
      <trkpt lat="46.07019" lon="6.36492">
        <ele>468</ele>
        <time>2021-03-27T12:38:02Z</time>
      </trkpt>
      <trkpt lat="46.07024" lon="6.36493">
        <ele>468.2</ele>
        <time>2021-03-27T12:38:01Z</time>
      </trkpt>
      <trkpt lat="46.07029" lon="6.36493">
        <ele>468.2</ele>
        <time>2021-03-27T12:38:00Z</time>
      </trkpt>
      <trkpt lat="46.07033" lon="6.36494">
        <ele>468.2</ele>
        <time>2021-03-27T12:37:59Z</time>
      </trkpt>
      <trkpt lat="46.07037" lon="6.36494">
        <ele>468.2</ele>
        <time>2021-03-27T12:37:58Z</time>
      </trkpt>
      <trkpt lat="46.0704" lon="6.36494">
        <ele>468.2</ele>
        <time>2021-03-27T12:37:57Z</time>
      </trkpt>
      <trkpt lat="46.07043" lon="6.36495">
        <ele>468.4</ele>
        <time>2021-03-27T12:37:56Z</time>
      </trkpt>
      <trkpt lat="46.07046" lon="6.36495">
        <ele>468.2</ele>
        <time>2021-03-27T12:37:55Z</time>
      </trkpt>
      <trkpt lat="46.07048" lon="6.36495">
        <ele>468.4</ele>
        <time>2021-03-27T12:37:54Z</time>
      </trkpt>
      <trkpt lat="46.0705" lon="6.36496">
        <ele>468.2</ele>
        <time>2021-03-27T12:37:53Z</time>
      </trkpt>
      <trkpt lat="46.07051" lon="6.36496">
        <ele>468.2</ele>
        <time>2021-03-27T12:37:52Z</time>
      </trkpt>
      <trkpt lat="46.07053" lon="6.36496">
        <ele>468.4</ele>
        <time>2021-03-27T12:37:51Z</time>
      </trkpt>
      <trkpt lat="46.07053" lon="6.36496">
        <ele>468.4</ele>
        <time>2021-03-27T12:37:50Z</time>
      </trkpt>
      <trkpt lat="46.07054" lon="6.36496">
        <ele>468.2</ele>
        <time>2021-03-27T12:37:49Z</time>
      </trkpt>
      <trkpt lat="46.07054" lon="6.36496">
        <ele>468.4</ele>
        <time>2021-03-27T12:37:48Z</time>
      </trkpt>
      <trkpt lat="46.07055" lon="6.36495">
        <ele>468.2</ele>
        <time>2021-03-27T12:37:47Z</time>
      </trkpt>
      <trkpt lat="46.07055" lon="6.36494">
        <ele>468.2</ele>
        <time>2021-03-27T12:37:46Z</time>
      </trkpt>
      <trkpt lat="46.07056" lon="6.36493">
        <ele>468.4</ele>
        <time>2021-03-27T12:37:45Z</time>
      </trkpt>
      <trkpt lat="46.07056" lon="6.36493">
        <ele>468.2</ele>
        <time>2021-03-27T12:37:44Z</time>
      </trkpt>
      <trkpt lat="46.07056" lon="6.36493">
        <ele>468.4</ele>
        <time>2021-03-27T12:37:43Z</time>
      </trkpt>
      <trkpt lat="46.07056" lon="6.36493">
        <ele>468.2</ele>
        <time>2021-03-27T12:37:42Z</time>
      </trkpt>
      <trkpt lat="46.07056" lon="6.36493">
        <ele>468.2</ele>
        <time>2021-03-27T12:37:41Z</time>
      </trkpt>
      <trkpt lat="46.07056" lon="6.36493">
        <ele>468.4</ele>
        <time>2021-03-27T12:37:40Z</time>
      </trkpt>
      <trkpt lat="46.07056" lon="6.36493">
        <ele>468.4</ele>
        <time>2021-03-27T12:37:39Z</time>
      </trkpt>
      <trkpt lat="46.07056" lon="6.36493">
        <ele>468.4</ele>
        <time>2021-03-27T12:37:38Z</time>
      </trkpt>
      <trkpt lat="46.07056" lon="6.36493">
        <ele>468.4</ele>
        <time>2021-03-27T12:37:37Z</time>
      </trkpt>
      <trkpt lat="46.07056" lon="6.36493">
        <ele>468.4</ele>
        <time>2021-03-27T12:37:36Z</time>
      </trkpt>
      <trkpt lat="46.07056" lon="6.36493">
        <ele>468.4</ele>
        <time>2021-03-27T12:37:35Z</time>
      </trkpt>
      <trkpt lat="46.07056" lon="6.36493">
        <ele>468.4</ele>
        <time>2021-03-27T12:37:34Z</time>
      </trkpt>
      <trkpt lat="46.07056" lon="6.36493">
        <ele>468.4</ele>
        <time>2021-03-27T12:37:33Z</time>
      </trkpt>
      <trkpt lat="46.07056" lon="6.36493">
        <ele>468.4</ele>
        <time>2021-03-27T12:37:32Z</time>
      </trkpt>
      <trkpt lat="46.07056" lon="6.36493">
        <ele>468.2</ele>
        <time>2021-03-27T12:37:31Z</time>
      </trkpt>
      <trkpt lat="46.07056" lon="6.36493">
        <ele>468.2</ele>
        <time>2021-03-27T12:37:30Z</time>
      </trkpt>
      <trkpt lat="46.07056" lon="6.36493">
        <ele>468.2</ele>
        <time>2021-03-27T12:37:29Z</time>
      </trkpt>
      <trkpt lat="46.07056" lon="6.36493">
        <ele>468.4</ele>
        <time>2021-03-27T12:37:28Z</time>
      </trkpt>
      <trkpt lat="46.07056" lon="6.36493">
        <ele>468.2</ele>
        <time>2021-03-27T12:37:27Z</time>
      </trkpt>
      <trkpt lat="46.07056" lon="6.36493">
        <ele>468.4</ele>
        <time>2021-03-27T12:37:26Z</time>
      </trkpt>
      <trkpt lat="46.07056" lon="6.36493">
        <ele>468.2</ele>
        <time>2021-03-27T12:37:25Z</time>
      </trkpt>
      <trkpt lat="46.07056" lon="6.36493">
        <ele>468.2</ele>
        <time>2021-03-27T12:37:24Z</time>
      </trkpt>
      <trkpt lat="46.07056" lon="6.36493">
        <ele>468</ele>
        <time>2021-03-27T12:37:23Z</time>
      </trkpt>
      <trkpt lat="46.07056" lon="6.36493">
        <ele>468</ele>
        <time>2021-03-27T12:37:22Z</time>
      </trkpt>
      <trkpt lat="46.07056" lon="6.36493">
        <ele>468</ele>
        <time>2021-03-27T12:37:21Z</time>
      </trkpt>
      <trkpt lat="46.07056" lon="6.36493">
        <ele>468.2</ele>
        <time>2021-03-27T12:37:20Z</time>
      </trkpt>
      <trkpt lat="46.07056" lon="6.36493">
        <ele>468.2</ele>
        <time>2021-03-27T12:37:19Z</time>
      </trkpt>
      <trkpt lat="46.07056" lon="6.36493">
        <ele>468</ele>
        <time>2021-03-27T12:37:18Z</time>
      </trkpt>
      <trkpt lat="46.07056" lon="6.36493">
        <ele>468</ele>
        <time>2021-03-27T12:37:17Z</time>
      </trkpt>
      <trkpt lat="46.07056" lon="6.36493">
        <ele>468</ele>
        <time>2021-03-27T12:37:16Z</time>
      </trkpt>
      <trkpt lat="46.07056" lon="6.36493">
        <ele>468</ele>
        <time>2021-03-27T12:37:15Z</time>
      </trkpt>
      <trkpt lat="46.07056" lon="6.36493">
        <ele>468</ele>
        <time>2021-03-27T12:37:14Z</time>
      </trkpt>
      <trkpt lat="46.07056" lon="6.36493">
        <ele>468</ele>
        <time>2021-03-27T12:37:13Z</time>
      </trkpt>
      <trkpt lat="46.07056" lon="6.36493">
        <ele>468</ele>
        <time>2021-03-27T12:37:12Z</time>
      </trkpt>
      <trkpt lat="46.07056" lon="6.36493">
        <ele>468.2</ele>
        <time>2021-03-27T12:37:11Z</time>
      </trkpt>
      <trkpt lat="46.07056" lon="6.36493">
        <ele>468</ele>
        <time>2021-03-27T12:37:10Z</time>
      </trkpt>
      <trkpt lat="46.07056" lon="6.36493">
        <ele>468</ele>
        <time>2021-03-27T12:37:09Z</time>
      </trkpt>
      <trkpt lat="46.07056" lon="6.36493">
        <ele>468.2</ele>
        <time>2021-03-27T12:37:08Z</time>
      </trkpt>
      <trkpt lat="46.07056" lon="6.36493">
        <ele>468.2</ele>
        <time>2021-03-27T12:37:07Z</time>
      </trkpt>
      <trkpt lat="46.07056" lon="6.36493">
        <ele>468.2</ele>
        <time>2021-03-27T12:37:06Z</time>
      </trkpt>
      <trkpt lat="46.07056" lon="6.36493">
        <ele>468.2</ele>
        <time>2021-03-27T12:37:05Z</time>
      </trkpt>
      <trkpt lat="46.07056" lon="6.36493">
        <ele>468.2</ele>
        <time>2021-03-27T12:37:04Z</time>
      </trkpt>
      <trkpt lat="46.07056" lon="6.36493">
        <ele>468</ele>
        <time>2021-03-27T12:37:03Z</time>
      </trkpt>
      <trkpt lat="46.07056" lon="6.36493">
        <ele>468.2</ele>
        <time>2021-03-27T12:37:02Z</time>
      </trkpt>
      <trkpt lat="46.07056" lon="6.36493">
        <ele>468.2</ele>
        <time>2021-03-27T12:37:01Z</time>
      </trkpt>
      <trkpt lat="46.07056" lon="6.36493">
        <ele>468.4</ele>
        <time>2021-03-27T12:37:00Z</time>
      </trkpt>
      <trkpt lat="46.07056" lon="6.36493">
        <ele>468.2</ele>
        <time>2021-03-27T12:36:59Z</time>
      </trkpt>
      <trkpt lat="46.07056" lon="6.36493">
        <ele>468.2</ele>
        <time>2021-03-27T12:36:58Z</time>
      </trkpt>
      <trkpt lat="46.07056" lon="6.36493">
        <ele>468.2</ele>
        <time>2021-03-27T12:36:57Z</time>
      </trkpt>
      <trkpt lat="46.07056" lon="6.36493">
        <ele>468.2</ele>
        <time>2021-03-27T12:36:56Z</time>
      </trkpt>
      <trkpt lat="46.07056" lon="6.36493">
        <ele>468.2</ele>
        <time>2021-03-27T12:36:55Z</time>
      </trkpt>
      <trkpt lat="46.07056" lon="6.36493">
        <ele>468.4</ele>
        <time>2021-03-27T12:36:54Z</time>
      </trkpt>
      <trkpt lat="46.07056" lon="6.36493">
        <ele>468.2</ele>
        <time>2021-03-27T12:36:53Z</time>
      </trkpt>
      <trkpt lat="46.07056" lon="6.36493">
        <ele>468</ele>
        <time>2021-03-27T12:36:52Z</time>
      </trkpt>
      <trkpt lat="46.07056" lon="6.36493">
        <ele>468</ele>
        <time>2021-03-27T12:36:51Z</time>
      </trkpt>
      <trkpt lat="46.07056" lon="6.36493">
        <ele>468.2</ele>
        <time>2021-03-27T12:36:50Z</time>
      </trkpt>
      <trkpt lat="46.07056" lon="6.36493">
        <ele>468</ele>
        <time>2021-03-27T12:36:49Z</time>
      </trkpt>
      <trkpt lat="46.07056" lon="6.36493">
        <ele>468</ele>
        <time>2021-03-27T12:36:48Z</time>
      </trkpt>
      <trkpt lat="46.07056" lon="6.36493">
        <ele>468</ele>
        <time>2021-03-27T12:36:47Z</time>
      </trkpt>
      <trkpt lat="46.07056" lon="6.36493">
        <ele>468</ele>
        <time>2021-03-27T12:36:46Z</time>
      </trkpt>
      <trkpt lat="46.07056" lon="6.36493">
        <ele>468</ele>
        <time>2021-03-27T12:36:45Z</time>
      </trkpt>
      <trkpt lat="46.07056" lon="6.36493">
        <ele>468</ele>
        <time>2021-03-27T12:36:44Z</time>
      </trkpt>
      <trkpt lat="46.07056" lon="6.36493">
        <ele>468</ele>
        <time>2021-03-27T12:36:43Z</time>
      </trkpt>
      <trkpt lat="46.07056" lon="6.36493">
        <ele>468</ele>
        <time>2021-03-27T12:36:42Z</time>
      </trkpt>
      <trkpt lat="46.07056" lon="6.36493">
        <ele>468</ele>
        <time>2021-03-27T12:36:41Z</time>
      </trkpt>
      <trkpt lat="46.07056" lon="6.36493">
        <ele>468.2</ele>
        <time>2021-03-27T12:36:40Z</time>
      </trkpt>
      <trkpt lat="46.07056" lon="6.36493">
        <ele>468</ele>
        <time>2021-03-27T12:36:39Z</time>
      </trkpt>
      <trkpt lat="46.07056" lon="6.36493">
        <ele>468</ele>
        <time>2021-03-27T12:36:38Z</time>
      </trkpt>
      <trkpt lat="46.07056" lon="6.36493">
        <ele>468</ele>
        <time>2021-03-27T12:36:37Z</time>
      </trkpt>
      <trkpt lat="46.07056" lon="6.36493">
        <ele>468</ele>
        <time>2021-03-27T12:36:36Z</time>
      </trkpt>
      <trkpt lat="46.07056" lon="6.36493">
        <ele>468</ele>
        <time>2021-03-27T12:36:35Z</time>
      </trkpt>
      <trkpt lat="46.07056" lon="6.36493">
        <ele>468.2</ele>
        <time>2021-03-27T12:36:34Z</time>
      </trkpt>
      <trkpt lat="46.07056" lon="6.36493">
        <ele>468.2</ele>
        <time>2021-03-27T12:36:33Z</time>
      </trkpt>
      <trkpt lat="46.07056" lon="6.36493">
        <ele>468.2</ele>
        <time>2021-03-27T12:36:32Z</time>
      </trkpt>
      <trkpt lat="46.07056" lon="6.36493">
        <ele>468.2</ele>
        <time>2021-03-27T12:36:31Z</time>
      </trkpt>
      <trkpt lat="46.07056" lon="6.36493">
        <ele>468.2</ele>
        <time>2021-03-27T12:36:30Z</time>
      </trkpt>
      <trkpt lat="46.07056" lon="6.36493">
        <ele>468.2</ele>
        <time>2021-03-27T12:36:29Z</time>
      </trkpt>
      <trkpt lat="46.07056" lon="6.36493">
        <ele>468.2</ele>
        <time>2021-03-27T12:36:28Z</time>
      </trkpt>
      <trkpt lat="46.07056" lon="6.36493">
        <ele>468.2</ele>
        <time>2021-03-27T12:36:27Z</time>
      </trkpt>
      <trkpt lat="46.07056" lon="6.36493">
        <ele>468.2</ele>
        <time>2021-03-27T12:36:26Z</time>
      </trkpt>
      <trkpt lat="46.07056" lon="6.36493">
        <ele>468.4</ele>
        <time>2021-03-27T12:36:25Z</time>
      </trkpt>
      <trkpt lat="46.07056" lon="6.36493">
        <ele>468.2</ele>
        <time>2021-03-27T12:36:24Z</time>
      </trkpt>
      <trkpt lat="46.07056" lon="6.36493">
        <ele>468.2</ele>
        <time>2021-03-27T12:36:23Z</time>
      </trkpt>
      <trkpt lat="46.07056" lon="6.36493">
        <ele>468.2</ele>
        <time>2021-03-27T12:36:22Z</time>
      </trkpt>
      <trkpt lat="46.07056" lon="6.36493">
        <ele>468.2</ele>
        <time>2021-03-27T12:36:21Z</time>
      </trkpt>
      <trkpt lat="46.07056" lon="6.36493">
        <ele>468.2</ele>
        <time>2021-03-27T12:36:20Z</time>
      </trkpt>
      <trkpt lat="46.07056" lon="6.36493">
        <ele>468.4</ele>
        <time>2021-03-27T12:36:19Z</time>
      </trkpt>
      <trkpt lat="46.07056" lon="6.36493">
        <ele>468.4</ele>
        <time>2021-03-27T12:36:18Z</time>
      </trkpt>
      <trkpt lat="46.07056" lon="6.36493">
        <ele>468.2</ele>
        <time>2021-03-27T12:36:17Z</time>
      </trkpt>
      <trkpt lat="46.07056" lon="6.36493">
        <ele>468.2</ele>
        <time>2021-03-27T12:36:16Z</time>
      </trkpt>
      <trkpt lat="46.07056" lon="6.36493">
        <ele>468.2</ele>
        <time>2021-03-27T12:36:15Z</time>
      </trkpt>
      <trkpt lat="46.07056" lon="6.36493">
        <ele>468.4</ele>
        <time>2021-03-27T12:36:14Z</time>
      </trkpt>
      <trkpt lat="46.07056" lon="6.36493">
        <ele>468.2</ele>
        <time>2021-03-27T12:36:13Z</time>
      </trkpt>
      <trkpt lat="46.07056" lon="6.36493">
        <ele>468.2</ele>
        <time>2021-03-27T12:36:12Z</time>
      </trkpt>
      <trkpt lat="46.07056" lon="6.36493">
        <ele>468.2</ele>
        <time>2021-03-27T12:36:11Z</time>
      </trkpt>
      <trkpt lat="46.07056" lon="6.36493">
        <ele>468.2</ele>
        <time>2021-03-27T12:36:10Z</time>
      </trkpt>
      <trkpt lat="46.07056" lon="6.36493">
        <ele>468.2</ele>
        <time>2021-03-27T12:36:09Z</time>
      </trkpt>
      <trkpt lat="46.07056" lon="6.36493">
        <ele>468.2</ele>
        <time>2021-03-27T12:36:08Z</time>
      </trkpt>
      <trkpt lat="46.07056" lon="6.36493">
        <ele>468.2</ele>
        <time>2021-03-27T12:36:07Z</time>
      </trkpt>
      <trkpt lat="46.07056" lon="6.36493">
        <ele>468.2</ele>
        <time>2021-03-27T12:36:06Z</time>
      </trkpt>
      <trkpt lat="46.07056" lon="6.36493">
        <ele>468.2</ele>
        <time>2021-03-27T12:36:05Z</time>
      </trkpt>
      <trkpt lat="46.07056" lon="6.36493">
        <ele>468.2</ele>
        <time>2021-03-27T12:36:04Z</time>
      </trkpt>
      <trkpt lat="46.07056" lon="6.36493">
        <ele>468</ele>
        <time>2021-03-27T12:36:03Z</time>
      </trkpt>
      <trkpt lat="46.07056" lon="6.36493">
        <ele>468</ele>
        <time>2021-03-27T12:36:02Z</time>
      </trkpt>
      <trkpt lat="46.07056" lon="6.36493">
        <ele>468.2</ele>
        <time>2021-03-27T12:36:01Z</time>
      </trkpt>
      <trkpt lat="46.07056" lon="6.36493">
        <ele>468.2</ele>
        <time>2021-03-27T12:36:00Z</time>
      </trkpt>
      <trkpt lat="46.07056" lon="6.36493">
        <ele>468</ele>
        <time>2021-03-27T12:35:59Z</time>
      </trkpt>
      <trkpt lat="46.07056" lon="6.36493">
        <ele>468</ele>
        <time>2021-03-27T12:35:58Z</time>
      </trkpt>
      <trkpt lat="46.07056" lon="6.36493">
        <ele>468.2</ele>
        <time>2021-03-27T12:35:57Z</time>
      </trkpt>
      <trkpt lat="46.07056" lon="6.36493">
        <ele>468.2</ele>
        <time>2021-03-27T12:35:56Z</time>
      </trkpt>
      <trkpt lat="46.07056" lon="6.36493">
        <ele>468.2</ele>
        <time>2021-03-27T12:35:55Z</time>
      </trkpt>
      <trkpt lat="46.07056" lon="6.36493">
        <ele>468</ele>
        <time>2021-03-27T12:35:54Z</time>
      </trkpt>
      <trkpt lat="46.07056" lon="6.36493">
        <ele>468.2</ele>
        <time>2021-03-27T12:35:53Z</time>
      </trkpt>
      <trkpt lat="46.07056" lon="6.36493">
        <ele>468.2</ele>
        <time>2021-03-27T12:35:52Z</time>
      </trkpt>
      <trkpt lat="46.07056" lon="6.36493">
        <ele>468</ele>
        <time>2021-03-27T12:35:51Z</time>
      </trkpt>
      <trkpt lat="46.07056" lon="6.36493">
        <ele>468.2</ele>
        <time>2021-03-27T12:35:50Z</time>
      </trkpt>
      <trkpt lat="46.07056" lon="6.36493">
        <ele>468</ele>
        <time>2021-03-27T12:35:49Z</time>
      </trkpt>
      <trkpt lat="46.07056" lon="6.36493">
        <ele>468.2</ele>
        <time>2021-03-27T12:35:48Z</time>
      </trkpt>
      <trkpt lat="46.07056" lon="6.36493">
        <ele>468.2</ele>
        <time>2021-03-27T12:35:47Z</time>
      </trkpt>
      <trkpt lat="46.07056" lon="6.36493">
        <ele>468.2</ele>
        <time>2021-03-27T12:35:46Z</time>
      </trkpt>
      <trkpt lat="46.07056" lon="6.36493">
        <ele>468.2</ele>
        <time>2021-03-27T12:35:45Z</time>
      </trkpt>
      <trkpt lat="46.07056" lon="6.36493">
        <ele>468.2</ele>
        <time>2021-03-27T12:35:44Z</time>
      </trkpt>
      <trkpt lat="46.07056" lon="6.36493">
        <ele>468.2</ele>
        <time>2021-03-27T12:35:43Z</time>
      </trkpt>
      <trkpt lat="46.07056" lon="6.36493">
        <ele>468.2</ele>
        <time>2021-03-27T12:35:42Z</time>
      </trkpt>
      <trkpt lat="46.07056" lon="6.36493">
        <ele>468.2</ele>
        <time>2021-03-27T12:35:41Z</time>
      </trkpt>
      <trkpt lat="46.07056" lon="6.36493">
        <ele>468.2</ele>
        <time>2021-03-27T12:35:40Z</time>
      </trkpt>
      <trkpt lat="46.07056" lon="6.36493">
        <ele>468.2</ele>
        <time>2021-03-27T12:35:39Z</time>
      </trkpt>
      <trkpt lat="46.07056" lon="6.36493">
        <ele>468.4</ele>
        <time>2021-03-27T12:35:38Z</time>
      </trkpt>
      <trkpt lat="46.07056" lon="6.36493">
        <ele>468.2</ele>
        <time>2021-03-27T12:35:37Z</time>
      </trkpt>
      <trkpt lat="46.07056" lon="6.36493">
        <ele>468.2</ele>
        <time>2021-03-27T12:35:36Z</time>
      </trkpt>
      <trkpt lat="46.07056" lon="6.36493">
        <ele>468.2</ele>
        <time>2021-03-27T12:35:35Z</time>
      </trkpt>
      <trkpt lat="46.07056" lon="6.36493">
        <ele>468.2</ele>
        <time>2021-03-27T12:35:34Z</time>
      </trkpt>
      <trkpt lat="46.07056" lon="6.36493">
        <ele>468.2</ele>
        <time>2021-03-27T12:35:33Z</time>
      </trkpt>
      <trkpt lat="46.07056" lon="6.36493">
        <ele>468.2</ele>
        <time>2021-03-27T12:35:32Z</time>
      </trkpt>
      <trkpt lat="46.07056" lon="6.36493">
        <ele>468.4</ele>
        <time>2021-03-27T12:35:31Z</time>
      </trkpt>
      <trkpt lat="46.07056" lon="6.36493">
        <ele>468.4</ele>
        <time>2021-03-27T12:35:30Z</time>
      </trkpt>
      <trkpt lat="46.07056" lon="6.36493">
        <ele>468.2</ele>
        <time>2021-03-27T12:35:29Z</time>
      </trkpt>
      <trkpt lat="46.07056" lon="6.36493">
        <ele>468.2</ele>
        <time>2021-03-27T12:35:28Z</time>
      </trkpt>
      <trkpt lat="46.07056" lon="6.36493">
        <ele>468.2</ele>
        <time>2021-03-27T12:35:27Z</time>
      </trkpt>
      <trkpt lat="46.07056" lon="6.36493">
        <ele>468.2</ele>
        <time>2021-03-27T12:35:26Z</time>
      </trkpt>
      <trkpt lat="46.07056" lon="6.36493">
        <ele>468.2</ele>
        <time>2021-03-27T12:35:25Z</time>
      </trkpt>
      <trkpt lat="46.07056" lon="6.36493">
        <ele>468</ele>
        <time>2021-03-27T12:35:24Z</time>
      </trkpt>
      <trkpt lat="46.07056" lon="6.36493">
        <ele>468</ele>
        <time>2021-03-27T12:35:23Z</time>
      </trkpt>
      <trkpt lat="46.07056" lon="6.36493">
        <ele>468</ele>
        <time>2021-03-27T12:35:22Z</time>
      </trkpt>
      <trkpt lat="46.07056" lon="6.36493">
        <ele>468</ele>
        <time>2021-03-27T12:35:21Z</time>
      </trkpt>
      <trkpt lat="46.07056" lon="6.36493">
        <ele>468</ele>
        <time>2021-03-27T12:35:20Z</time>
      </trkpt>
      <trkpt lat="46.07056" lon="6.36493">
        <ele>467.8</ele>
        <time>2021-03-27T12:35:19Z</time>
      </trkpt>
      <trkpt lat="46.07056" lon="6.36493">
        <ele>467.8</ele>
        <time>2021-03-27T12:35:18Z</time>
      </trkpt>
      <trkpt lat="46.07056" lon="6.36493">
        <ele>467.8</ele>
        <time>2021-03-27T12:35:17Z</time>
      </trkpt>
      <trkpt lat="46.07056" lon="6.36493">
        <ele>467.8</ele>
        <time>2021-03-27T12:35:16Z</time>
      </trkpt>
      <trkpt lat="46.07056" lon="6.36493">
        <ele>467.8</ele>
        <time>2021-03-27T12:35:15Z</time>
      </trkpt>
      <trkpt lat="46.07056" lon="6.36493">
        <ele>467.8</ele>
        <time>2021-03-27T12:35:14Z</time>
      </trkpt>
      <trkpt lat="46.07056" lon="6.36493">
        <ele>467.8</ele>
        <time>2021-03-27T12:35:13Z</time>
      </trkpt>
      <trkpt lat="46.07056" lon="6.36493">
        <ele>467.8</ele>
        <time>2021-03-27T12:35:12Z</time>
      </trkpt>
      <trkpt lat="46.07056" lon="6.36493">
        <ele>467.6</ele>
        <time>2021-03-27T12:35:11Z</time>
      </trkpt>
      <trkpt lat="46.07056" lon="6.36493">
        <ele>467.8</ele>
        <time>2021-03-27T12:35:10Z</time>
      </trkpt>
      <trkpt lat="46.07056" lon="6.36493">
        <ele>467.8</ele>
        <time>2021-03-27T12:35:09Z</time>
      </trkpt>
      <trkpt lat="46.07056" lon="6.36493">
        <ele>467.8</ele>
        <time>2021-03-27T12:35:08Z</time>
      </trkpt>
      <trkpt lat="46.07056" lon="6.36493">
        <ele>467.6</ele>
        <time>2021-03-27T12:35:07Z</time>
      </trkpt>
      <trkpt lat="46.07056" lon="6.36493">
        <ele>467.6</ele>
        <time>2021-03-27T12:35:06Z</time>
      </trkpt>
      <trkpt lat="46.07056" lon="6.36493">
        <ele>467.6</ele>
        <time>2021-03-27T12:35:05Z</time>
      </trkpt>
      <trkpt lat="46.07056" lon="6.36493">
        <ele>467.8</ele>
        <time>2021-03-27T12:35:04Z</time>
      </trkpt>
      <trkpt lat="46.07056" lon="6.36493">
        <ele>467.6</ele>
        <time>2021-03-27T12:35:03Z</time>
      </trkpt>
      <trkpt lat="46.07056" lon="6.36493">
        <ele>467.8</ele>
        <time>2021-03-27T12:35:02Z</time>
      </trkpt>
      <trkpt lat="46.07056" lon="6.36493">
        <ele>467.6</ele>
        <time>2021-03-27T12:35:01Z</time>
      </trkpt>
      <trkpt lat="46.07056" lon="6.36493">
        <ele>467.8</ele>
        <time>2021-03-27T12:35:00Z</time>
      </trkpt>
      <trkpt lat="46.07056" lon="6.36493">
        <ele>467.8</ele>
        <time>2021-03-27T12:34:59Z</time>
      </trkpt>
      <trkpt lat="46.07056" lon="6.36493">
        <ele>467.8</ele>
        <time>2021-03-27T12:34:58Z</time>
      </trkpt>
      <trkpt lat="46.07056" lon="6.36493">
        <ele>467.6</ele>
        <time>2021-03-27T12:34:57Z</time>
      </trkpt>
      <trkpt lat="46.07056" lon="6.36493">
        <ele>467.6</ele>
        <time>2021-03-27T12:34:56Z</time>
      </trkpt>
      <trkpt lat="46.07056" lon="6.36493">
        <ele>467.8</ele>
        <time>2021-03-27T12:34:55Z</time>
      </trkpt>
      <trkpt lat="46.07056" lon="6.36493">
        <ele>467.8</ele>
        <time>2021-03-27T12:34:54Z</time>
      </trkpt>
      <trkpt lat="46.07056" lon="6.36493">
        <ele>467.6</ele>
        <time>2021-03-27T12:34:53Z</time>
      </trkpt>
      <trkpt lat="46.07056" lon="6.36493">
        <ele>467.8</ele>
        <time>2021-03-27T12:34:52Z</time>
      </trkpt>
      <trkpt lat="46.07056" lon="6.36493">
        <ele>467.8</ele>
        <time>2021-03-27T12:34:51Z</time>
      </trkpt>
      <trkpt lat="46.07056" lon="6.36493">
        <ele>467.6</ele>
        <time>2021-03-27T12:34:50Z</time>
      </trkpt>
      <trkpt lat="46.07056" lon="6.36493">
        <ele>467.8</ele>
        <time>2021-03-27T12:34:49Z</time>
      </trkpt>
      <trkpt lat="46.07056" lon="6.36493">
        <ele>467.8</ele>
        <time>2021-03-27T12:34:48Z</time>
      </trkpt>
      <trkpt lat="46.07056" lon="6.36493">
        <ele>468</ele>
        <time>2021-03-27T12:34:47Z</time>
      </trkpt>
      <trkpt lat="46.07056" lon="6.36493">
        <ele>468</ele>
        <time>2021-03-27T12:34:46Z</time>
      </trkpt>
      <trkpt lat="46.07056" lon="6.36493">
        <ele>468</ele>
        <time>2021-03-27T12:34:45Z</time>
      </trkpt>
      <trkpt lat="46.07056" lon="6.36493">
        <ele>467.8</ele>
        <time>2021-03-27T12:34:44Z</time>
      </trkpt>
      <trkpt lat="46.07056" lon="6.36493">
        <ele>468</ele>
        <time>2021-03-27T12:34:43Z</time>
      </trkpt>
      <trkpt lat="46.07056" lon="6.36493">
        <ele>468</ele>
        <time>2021-03-27T12:34:42Z</time>
      </trkpt>
      <trkpt lat="46.07056" lon="6.36493">
        <ele>468</ele>
        <time>2021-03-27T12:34:41Z</time>
      </trkpt>
      <trkpt lat="46.07056" lon="6.36493">
        <ele>468</ele>
        <time>2021-03-27T12:34:40Z</time>
      </trkpt>
      <trkpt lat="46.07056" lon="6.36493">
        <ele>468</ele>
        <time>2021-03-27T12:34:39Z</time>
      </trkpt>
      <trkpt lat="46.07056" lon="6.36493">
        <ele>468</ele>
        <time>2021-03-27T12:34:38Z</time>
      </trkpt>
      <trkpt lat="46.07056" lon="6.36493">
        <ele>468.2</ele>
        <time>2021-03-27T12:34:37Z</time>
      </trkpt>
      <trkpt lat="46.07056" lon="6.36493">
        <ele>468.2</ele>
        <time>2021-03-27T12:34:36Z</time>
      </trkpt>
      <trkpt lat="46.07056" lon="6.36493">
        <ele>468.2</ele>
        <time>2021-03-27T12:34:35Z</time>
      </trkpt>
      <trkpt lat="46.07056" lon="6.36493">
        <ele>468</ele>
        <time>2021-03-27T12:34:34Z</time>
      </trkpt>
      <trkpt lat="46.07056" lon="6.36493">
        <ele>468.2</ele>
        <time>2021-03-27T12:34:33Z</time>
      </trkpt>
      <trkpt lat="46.07056" lon="6.36493">
        <ele>468.2</ele>
        <time>2021-03-27T12:34:32Z</time>
      </trkpt>
      <trkpt lat="46.07056" lon="6.36493">
        <ele>468.2</ele>
        <time>2021-03-27T12:34:31Z</time>
      </trkpt>
      <trkpt lat="46.07056" lon="6.36493">
        <ele>468.2</ele>
        <time>2021-03-27T12:34:30Z</time>
      </trkpt>
      <trkpt lat="46.07056" lon="6.36493">
        <ele>468</ele>
        <time>2021-03-27T12:34:29Z</time>
      </trkpt>
      <trkpt lat="46.07056" lon="6.36493">
        <ele>468.2</ele>
        <time>2021-03-27T12:34:28Z</time>
      </trkpt>
      <trkpt lat="46.07056" lon="6.36493">
        <ele>468</ele>
        <time>2021-03-27T12:34:27Z</time>
      </trkpt>
      <trkpt lat="46.07056" lon="6.36493">
        <ele>468.2</ele>
        <time>2021-03-27T12:34:26Z</time>
      </trkpt>
      <trkpt lat="46.07056" lon="6.36493">
        <ele>468</ele>
        <time>2021-03-27T12:34:25Z</time>
      </trkpt>
      <trkpt lat="46.07055" lon="6.36493">
        <ele>468</ele>
        <time>2021-03-27T12:34:24Z</time>
      </trkpt>
      <trkpt lat="46.07055" lon="6.36493">
        <ele>468.2</ele>
        <time>2021-03-27T12:34:23Z</time>
      </trkpt>
      <trkpt lat="46.07055" lon="6.36493">
        <ele>468</ele>
        <time>2021-03-27T12:34:22Z</time>
      </trkpt>
      <trkpt lat="46.07055" lon="6.36493">
        <ele>468</ele>
        <time>2021-03-27T12:34:21Z</time>
      </trkpt>
      <trkpt lat="46.07055" lon="6.36493">
        <ele>467.8</ele>
        <time>2021-03-27T12:34:20Z</time>
      </trkpt>
      <trkpt lat="46.07055" lon="6.36493">
        <ele>467.8</ele>
        <time>2021-03-27T12:34:19Z</time>
      </trkpt>
      <trkpt lat="46.07055" lon="6.36493">
        <ele>467.6</ele>
        <time>2021-03-27T12:34:18Z</time>
      </trkpt>
      <trkpt lat="46.07055" lon="6.36493">
        <ele>467.4</ele>
        <time>2021-03-27T12:34:17Z</time>
      </trkpt>
      <trkpt lat="46.07055" lon="6.36492">
        <ele>467</ele>
        <time>2021-03-27T12:34:16Z</time>
      </trkpt>
      <trkpt lat="46.07055" lon="6.36492">
        <ele>467.2</ele>
        <time>2021-03-27T12:34:15Z</time>
      </trkpt>
      <trkpt lat="46.07055" lon="6.36493">
        <ele>467</ele>
        <time>2021-03-27T12:34:14Z</time>
      </trkpt>
      <trkpt lat="46.07055" lon="6.36493">
        <ele>467</ele>
        <time>2021-03-27T12:34:13Z</time>
      </trkpt>
      <trkpt lat="46.07055" lon="6.36493">
        <ele>466.8</ele>
        <time>2021-03-27T12:34:12Z</time>
      </trkpt>
      <trkpt lat="46.07055" lon="6.36493">
        <ele>466.6</ele>
        <time>2021-03-27T12:34:11Z</time>
      </trkpt>
      <trkpt lat="46.07055" lon="6.36493">
        <ele>466.4</ele>
        <time>2021-03-27T12:34:10Z</time>
      </trkpt>
      <trkpt lat="46.07055" lon="6.36493">
        <ele>466.4</ele>
        <time>2021-03-27T12:34:09Z</time>
      </trkpt>
      <trkpt lat="46.07055" lon="6.36493">
        <ele>466.2</ele>
        <time>2021-03-27T12:34:08Z</time>
      </trkpt>
      <trkpt lat="46.07057" lon="6.36494">
        <ele>466</ele>
        <time>2021-03-27T12:34:07Z</time>
      </trkpt>
      <trkpt lat="46.07061" lon="6.36495">
        <ele>465.8</ele>
        <time>2021-03-27T12:34:06Z</time>
      </trkpt>
      <trkpt lat="46.07066" lon="6.36496">
        <ele>465.8</ele>
        <time>2021-03-27T12:34:05Z</time>
      </trkpt>
      <trkpt lat="46.07072" lon="6.36498">
        <ele>465.8</ele>
        <time>2021-03-27T12:34:04Z</time>
      </trkpt>
      <trkpt lat="46.07078" lon="6.36499">
        <ele>465.8</ele>
        <time>2021-03-27T12:34:03Z</time>
      </trkpt>
      <trkpt lat="46.07084" lon="6.36499">
        <ele>465.8</ele>
        <time>2021-03-27T12:34:02Z</time>
      </trkpt>
      <trkpt lat="46.07091" lon="6.365">
        <ele>465.6</ele>
        <time>2021-03-27T12:34:01Z</time>
      </trkpt>
      <trkpt lat="46.07098" lon="6.365">
        <ele>465.6</ele>
        <time>2021-03-27T12:34:00Z</time>
      </trkpt>
      <trkpt lat="46.07104" lon="6.365">
        <ele>465.4</ele>
        <time>2021-03-27T12:33:59Z</time>
      </trkpt>
      <trkpt lat="46.0711" lon="6.36499">
        <ele>465.4</ele>
        <time>2021-03-27T12:33:58Z</time>
      </trkpt>
      <trkpt lat="46.07115" lon="6.36496">
        <ele>465.2</ele>
        <time>2021-03-27T12:33:57Z</time>
      </trkpt>
      <trkpt lat="46.0712" lon="6.36493">
        <ele>465.2</ele>
        <time>2021-03-27T12:33:56Z</time>
      </trkpt>
      <trkpt lat="46.07126" lon="6.36491">
        <ele>465</ele>
        <time>2021-03-27T12:33:55Z</time>
      </trkpt>
      <trkpt lat="46.07131" lon="6.36492">
        <ele>464.8</ele>
        <time>2021-03-27T12:33:54Z</time>
      </trkpt>
      <trkpt lat="46.07136" lon="6.36495">
        <ele>464.2</ele>
        <time>2021-03-27T12:33:53Z</time>
      </trkpt>
      <trkpt lat="46.07141" lon="6.36499">
        <ele>464.2</ele>
        <time>2021-03-27T12:33:52Z</time>
      </trkpt>
      <trkpt lat="46.07145" lon="6.36505">
        <ele>463.8</ele>
        <time>2021-03-27T12:33:51Z</time>
      </trkpt>
      <trkpt lat="46.07149" lon="6.3651">
        <ele>463.8</ele>
        <time>2021-03-27T12:33:50Z</time>
      </trkpt>
      <trkpt lat="46.07154" lon="6.36515">
        <ele>463.4</ele>
        <time>2021-03-27T12:33:49Z</time>
      </trkpt>
      <trkpt lat="46.07159" lon="6.36518">
        <ele>463.2</ele>
        <time>2021-03-27T12:33:48Z</time>
      </trkpt>
      <trkpt lat="46.07164" lon="6.3652">
        <ele>463.2</ele>
        <time>2021-03-27T12:33:47Z</time>
      </trkpt>
      <trkpt lat="46.0717" lon="6.36522">
        <ele>463.2</ele>
        <time>2021-03-27T12:33:46Z</time>
      </trkpt>
      <trkpt lat="46.07176" lon="6.36523">
        <ele>463.2</ele>
        <time>2021-03-27T12:33:45Z</time>
      </trkpt>
      <trkpt lat="46.07182" lon="6.36524">
        <ele>463</ele>
        <time>2021-03-27T12:33:44Z</time>
      </trkpt>
      <trkpt lat="46.07188" lon="6.36525">
        <ele>463</ele>
        <time>2021-03-27T12:33:43Z</time>
      </trkpt>
      <trkpt lat="46.07194" lon="6.36526">
        <ele>462.8</ele>
        <time>2021-03-27T12:33:42Z</time>
      </trkpt>
      <trkpt lat="46.07199" lon="6.36527">
        <ele>462.8</ele>
        <time>2021-03-27T12:33:41Z</time>
      </trkpt>
      <trkpt lat="46.07205" lon="6.36528">
        <ele>462.2</ele>
        <time>2021-03-27T12:33:40Z</time>
      </trkpt>
      <trkpt lat="46.07211" lon="6.36529">
        <ele>462.2</ele>
        <time>2021-03-27T12:33:39Z</time>
      </trkpt>
      <trkpt lat="46.07217" lon="6.3653">
        <ele>462</ele>
        <time>2021-03-27T12:33:38Z</time>
      </trkpt>
      <trkpt lat="46.07223" lon="6.36532">
        <ele>461.6</ele>
        <time>2021-03-27T12:33:37Z</time>
      </trkpt>
      <trkpt lat="46.07229" lon="6.36533">
        <ele>461.4</ele>
        <time>2021-03-27T12:33:36Z</time>
      </trkpt>
      <trkpt lat="46.07235" lon="6.36534">
        <ele>461.2</ele>
        <time>2021-03-27T12:33:35Z</time>
      </trkpt>
      <trkpt lat="46.07241" lon="6.36535">
        <ele>461.2</ele>
        <time>2021-03-27T12:33:34Z</time>
      </trkpt>
      <trkpt lat="46.07247" lon="6.36536">
        <ele>461.2</ele>
        <time>2021-03-27T12:33:33Z</time>
      </trkpt>
      <trkpt lat="46.07253" lon="6.36537">
        <ele>461</ele>
        <time>2021-03-27T12:33:32Z</time>
      </trkpt>
      <trkpt lat="46.07259" lon="6.36538">
        <ele>461</ele>
        <time>2021-03-27T12:33:31Z</time>
      </trkpt>
      <trkpt lat="46.07265" lon="6.3654">
        <ele>460.8</ele>
        <time>2021-03-27T12:33:30Z</time>
      </trkpt>
      <trkpt lat="46.07271" lon="6.36541">
        <ele>460.6</ele>
        <time>2021-03-27T12:33:29Z</time>
      </trkpt>
      <trkpt lat="46.07277" lon="6.36542">
        <ele>460.4</ele>
        <time>2021-03-27T12:33:28Z</time>
      </trkpt>
      <trkpt lat="46.07284" lon="6.36543">
        <ele>460.4</ele>
        <time>2021-03-27T12:33:27Z</time>
      </trkpt>
      <trkpt lat="46.0729" lon="6.36544">
        <ele>460.2</ele>
        <time>2021-03-27T12:33:26Z</time>
      </trkpt>
      <trkpt lat="46.07296" lon="6.36545">
        <ele>460.2</ele>
        <time>2021-03-27T12:33:25Z</time>
      </trkpt>
      <trkpt lat="46.07302" lon="6.36546">
        <ele>460</ele>
        <time>2021-03-27T12:33:24Z</time>
      </trkpt>
      <trkpt lat="46.07309" lon="6.36547">
        <ele>460</ele>
        <time>2021-03-27T12:33:23Z</time>
      </trkpt>
      <trkpt lat="46.07315" lon="6.36548">
        <ele>460</ele>
        <time>2021-03-27T12:33:22Z</time>
      </trkpt>
      <trkpt lat="46.07321" lon="6.36549">
        <ele>460</ele>
        <time>2021-03-27T12:33:21Z</time>
      </trkpt>
      <trkpt lat="46.07328" lon="6.3655">
        <ele>460</ele>
        <time>2021-03-27T12:33:20Z</time>
      </trkpt>
      <trkpt lat="46.07334" lon="6.36552">
        <ele>460</ele>
        <time>2021-03-27T12:33:19Z</time>
      </trkpt>
      <trkpt lat="46.07341" lon="6.36553">
        <ele>459.8</ele>
        <time>2021-03-27T12:33:18Z</time>
      </trkpt>
      <trkpt lat="46.07347" lon="6.36555">
        <ele>459.6</ele>
        <time>2021-03-27T12:33:17Z</time>
      </trkpt>
      <trkpt lat="46.07354" lon="6.36556">
        <ele>459.8</ele>
        <time>2021-03-27T12:33:16Z</time>
      </trkpt>
      <trkpt lat="46.0736" lon="6.36558">
        <ele>459.8</ele>
        <time>2021-03-27T12:33:15Z</time>
      </trkpt>
      <trkpt lat="46.07367" lon="6.36559">
        <ele>459.6</ele>
        <time>2021-03-27T12:33:14Z</time>
      </trkpt>
      <trkpt lat="46.07374" lon="6.36561">
        <ele>459.4</ele>
        <time>2021-03-27T12:33:13Z</time>
      </trkpt>
      <trkpt lat="46.0738" lon="6.36563">
        <ele>459.2</ele>
        <time>2021-03-27T12:33:12Z</time>
      </trkpt>
      <trkpt lat="46.07387" lon="6.36565">
        <ele>459.2</ele>
        <time>2021-03-27T12:33:11Z</time>
      </trkpt>
      <trkpt lat="46.07394" lon="6.36567">
        <ele>459.2</ele>
        <time>2021-03-27T12:33:10Z</time>
      </trkpt>
      <trkpt lat="46.074" lon="6.36569">
        <ele>459.2</ele>
        <time>2021-03-27T12:33:09Z</time>
      </trkpt>
      <trkpt lat="46.07407" lon="6.36571">
        <ele>459</ele>
        <time>2021-03-27T12:33:08Z</time>
      </trkpt>
      <trkpt lat="46.07413" lon="6.36573">
        <ele>458.8</ele>
        <time>2021-03-27T12:33:07Z</time>
      </trkpt>
      <trkpt lat="46.0742" lon="6.36575">
        <ele>458.6</ele>
        <time>2021-03-27T12:33:06Z</time>
      </trkpt>
      <trkpt lat="46.07427" lon="6.36577">
        <ele>458.8</ele>
        <time>2021-03-27T12:33:05Z</time>
      </trkpt>
      <trkpt lat="46.07434" lon="6.36579">
        <ele>458.6</ele>
        <time>2021-03-27T12:33:04Z</time>
      </trkpt>
      <trkpt lat="46.0744" lon="6.36581">
        <ele>458.4</ele>
        <time>2021-03-27T12:33:03Z</time>
      </trkpt>
      <trkpt lat="46.07447" lon="6.36583">
        <ele>458.4</ele>
        <time>2021-03-27T12:33:02Z</time>
      </trkpt>
      <trkpt lat="46.07454" lon="6.36585">
        <ele>458.4</ele>
        <time>2021-03-27T12:33:01Z</time>
      </trkpt>
      <trkpt lat="46.0746" lon="6.36587">
        <ele>458.4</ele>
        <time>2021-03-27T12:33:00Z</time>
      </trkpt>
      <trkpt lat="46.07467" lon="6.36589">
        <ele>458</ele>
        <time>2021-03-27T12:32:59Z</time>
      </trkpt>
      <trkpt lat="46.07474" lon="6.36591">
        <ele>458</ele>
        <time>2021-03-27T12:32:58Z</time>
      </trkpt>
      <trkpt lat="46.0748" lon="6.36593">
        <ele>457.8</ele>
        <time>2021-03-27T12:32:57Z</time>
      </trkpt>
      <trkpt lat="46.07487" lon="6.36595">
        <ele>457.6</ele>
        <time>2021-03-27T12:32:56Z</time>
      </trkpt>
      <trkpt lat="46.07493" lon="6.36596">
        <ele>457.4</ele>
        <time>2021-03-27T12:32:55Z</time>
      </trkpt>
      <trkpt lat="46.07499" lon="6.36598">
        <ele>457.4</ele>
        <time>2021-03-27T12:32:54Z</time>
      </trkpt>
      <trkpt lat="46.07505" lon="6.366">
        <ele>457.4</ele>
        <time>2021-03-27T12:32:53Z</time>
      </trkpt>
      <trkpt lat="46.07511" lon="6.36602">
        <ele>457.4</ele>
        <time>2021-03-27T12:32:52Z</time>
      </trkpt>
      <trkpt lat="46.07517" lon="6.36604">
        <ele>457.4</ele>
        <time>2021-03-27T12:32:51Z</time>
      </trkpt>
      <trkpt lat="46.07524" lon="6.36605">
        <ele>457.4</ele>
        <time>2021-03-27T12:32:50Z</time>
      </trkpt>
      <trkpt lat="46.07531" lon="6.36607">
        <ele>457.4</ele>
        <time>2021-03-27T12:32:49Z</time>
      </trkpt>
      <trkpt lat="46.07537" lon="6.36609">
        <ele>457.4</ele>
        <time>2021-03-27T12:32:48Z</time>
      </trkpt>
      <trkpt lat="46.07544" lon="6.3661">
        <ele>457.4</ele>
        <time>2021-03-27T12:32:47Z</time>
      </trkpt>
      <trkpt lat="46.07551" lon="6.36612">
        <ele>457.4</ele>
        <time>2021-03-27T12:32:46Z</time>
      </trkpt>
      <trkpt lat="46.07558" lon="6.36614">
        <ele>457.6</ele>
        <time>2021-03-27T12:32:45Z</time>
      </trkpt>
      <trkpt lat="46.07564" lon="6.36616">
        <ele>457.6</ele>
        <time>2021-03-27T12:32:44Z</time>
      </trkpt>
      <trkpt lat="46.07571" lon="6.36618">
        <ele>457.6</ele>
        <time>2021-03-27T12:32:43Z</time>
      </trkpt>
      <trkpt lat="46.07578" lon="6.3662">
        <ele>457.8</ele>
        <time>2021-03-27T12:32:42Z</time>
      </trkpt>
      <trkpt lat="46.07585" lon="6.36622">
        <ele>458</ele>
        <time>2021-03-27T12:32:41Z</time>
      </trkpt>
      <trkpt lat="46.07592" lon="6.36625">
        <ele>458.4</ele>
        <time>2021-03-27T12:32:40Z</time>
      </trkpt>
      <trkpt lat="46.07598" lon="6.36628">
        <ele>458.6</ele>
        <time>2021-03-27T12:32:39Z</time>
      </trkpt>
      <trkpt lat="46.07605" lon="6.3663">
        <ele>458.8</ele>
        <time>2021-03-27T12:32:38Z</time>
      </trkpt>
      <trkpt lat="46.07612" lon="6.36629">
        <ele>459</ele>
        <time>2021-03-27T12:32:37Z</time>
      </trkpt>
      <trkpt lat="46.07618" lon="6.36625">
        <ele>459</ele>
        <time>2021-03-27T12:32:36Z</time>
      </trkpt>
      <trkpt lat="46.07624" lon="6.36618">
        <ele>459.2</ele>
        <time>2021-03-27T12:32:35Z</time>
      </trkpt>
      <trkpt lat="46.07628" lon="6.36608">
        <ele>459.2</ele>
        <time>2021-03-27T12:32:34Z</time>
      </trkpt>
      <trkpt lat="46.07632" lon="6.36598">
        <ele>459.4</ele>
        <time>2021-03-27T12:32:33Z</time>
      </trkpt>
      <trkpt lat="46.07636" lon="6.36587">
        <ele>459.4</ele>
        <time>2021-03-27T12:32:32Z</time>
      </trkpt>
      <trkpt lat="46.07639" lon="6.36576">
        <ele>459.4</ele>
        <time>2021-03-27T12:32:31Z</time>
      </trkpt>
      <trkpt lat="46.07643" lon="6.36566">
        <ele>459.4</ele>
        <time>2021-03-27T12:32:30Z</time>
      </trkpt>
      <trkpt lat="46.07647" lon="6.36555">
        <ele>459.6</ele>
        <time>2021-03-27T12:32:29Z</time>
      </trkpt>
      <trkpt lat="46.0765" lon="6.36545">
        <ele>459.4</ele>
        <time>2021-03-27T12:32:28Z</time>
      </trkpt>
      <trkpt lat="46.07652" lon="6.36534">
        <ele>459.6</ele>
        <time>2021-03-27T12:32:27Z</time>
      </trkpt>
      <trkpt lat="46.07654" lon="6.36522">
        <ele>459.4</ele>
        <time>2021-03-27T12:32:26Z</time>
      </trkpt>
      <trkpt lat="46.07654" lon="6.36511">
        <ele>459.4</ele>
        <time>2021-03-27T12:32:25Z</time>
      </trkpt>
      <trkpt lat="46.07655" lon="6.36499">
        <ele>459.4</ele>
        <time>2021-03-27T12:32:24Z</time>
      </trkpt>
      <trkpt lat="46.07655" lon="6.36488">
        <ele>459.4</ele>
        <time>2021-03-27T12:32:23Z</time>
      </trkpt>
      <trkpt lat="46.07655" lon="6.36476">
        <ele>459.6</ele>
        <time>2021-03-27T12:32:22Z</time>
      </trkpt>
      <trkpt lat="46.07654" lon="6.36465">
        <ele>459.4</ele>
        <time>2021-03-27T12:32:21Z</time>
      </trkpt>
      <trkpt lat="46.07653" lon="6.36454">
        <ele>459.6</ele>
        <time>2021-03-27T12:32:20Z</time>
      </trkpt>
      <trkpt lat="46.07651" lon="6.36443">
        <ele>459.6</ele>
        <time>2021-03-27T12:32:19Z</time>
      </trkpt>
      <trkpt lat="46.07649" lon="6.36432">
        <ele>459.4</ele>
        <time>2021-03-27T12:32:18Z</time>
      </trkpt>
      <trkpt lat="46.07646" lon="6.36422">
        <ele>459.4</ele>
        <time>2021-03-27T12:32:17Z</time>
      </trkpt>
      <trkpt lat="46.07643" lon="6.36412">
        <ele>459.4</ele>
        <time>2021-03-27T12:32:16Z</time>
      </trkpt>
      <trkpt lat="46.0764" lon="6.36402">
        <ele>459.2</ele>
        <time>2021-03-27T12:32:15Z</time>
      </trkpt>
      <trkpt lat="46.07637" lon="6.36392">
        <ele>459.2</ele>
        <time>2021-03-27T12:32:14Z</time>
      </trkpt>
      <trkpt lat="46.07635" lon="6.36382">
        <ele>459.2</ele>
        <time>2021-03-27T12:32:13Z</time>
      </trkpt>
      <trkpt lat="46.07633" lon="6.36372">
        <ele>459</ele>
        <time>2021-03-27T12:32:12Z</time>
      </trkpt>
      <trkpt lat="46.07632" lon="6.36362">
        <ele>459</ele>
        <time>2021-03-27T12:32:11Z</time>
      </trkpt>
      <trkpt lat="46.07632" lon="6.36351">
        <ele>458.8</ele>
        <time>2021-03-27T12:32:10Z</time>
      </trkpt>
      <trkpt lat="46.07631" lon="6.36341">
        <ele>459</ele>
        <time>2021-03-27T12:32:09Z</time>
      </trkpt>
      <trkpt lat="46.07631" lon="6.36331">
        <ele>458.8</ele>
        <time>2021-03-27T12:32:08Z</time>
      </trkpt>
      <trkpt lat="46.07631" lon="6.36321">
        <ele>458.8</ele>
        <time>2021-03-27T12:32:07Z</time>
      </trkpt>
      <trkpt lat="46.07631" lon="6.36311">
        <ele>458.8</ele>
        <time>2021-03-27T12:32:06Z</time>
      </trkpt>
      <trkpt lat="46.07631" lon="6.36301">
        <ele>458.8</ele>
        <time>2021-03-27T12:32:05Z</time>
      </trkpt>
      <trkpt lat="46.07632" lon="6.36291">
        <ele>458.8</ele>
        <time>2021-03-27T12:32:04Z</time>
      </trkpt>
      <trkpt lat="46.07633" lon="6.36281">
        <ele>458.6</ele>
        <time>2021-03-27T12:32:03Z</time>
      </trkpt>
      <trkpt lat="46.07634" lon="6.36271">
        <ele>458.6</ele>
        <time>2021-03-27T12:32:02Z</time>
      </trkpt>
      <trkpt lat="46.07635" lon="6.36261">
        <ele>458.4</ele>
        <time>2021-03-27T12:32:01Z</time>
      </trkpt>
      <trkpt lat="46.07637" lon="6.36251">
        <ele>458.4</ele>
        <time>2021-03-27T12:32:00Z</time>
      </trkpt>
      <trkpt lat="46.07639" lon="6.36241">
        <ele>458.4</ele>
        <time>2021-03-27T12:31:59Z</time>
      </trkpt>
      <trkpt lat="46.0764" lon="6.36232">
        <ele>458.4</ele>
        <time>2021-03-27T12:31:58Z</time>
      </trkpt>
      <trkpt lat="46.07641" lon="6.36222">
        <ele>458.2</ele>
        <time>2021-03-27T12:31:57Z</time>
      </trkpt>
      <trkpt lat="46.07642" lon="6.36212">
        <ele>458.2</ele>
        <time>2021-03-27T12:31:56Z</time>
      </trkpt>
      <trkpt lat="46.07644" lon="6.36202">
        <ele>458.2</ele>
        <time>2021-03-27T12:31:55Z</time>
      </trkpt>
      <trkpt lat="46.07645" lon="6.36192">
        <ele>458</ele>
        <time>2021-03-27T12:31:54Z</time>
      </trkpt>
      <trkpt lat="46.07647" lon="6.36182">
        <ele>458</ele>
        <time>2021-03-27T12:31:53Z</time>
      </trkpt>
      <trkpt lat="46.07648" lon="6.36173">
        <ele>458</ele>
        <time>2021-03-27T12:31:52Z</time>
      </trkpt>
      <trkpt lat="46.0765" lon="6.36163">
        <ele>457.8</ele>
        <time>2021-03-27T12:31:51Z</time>
      </trkpt>
      <trkpt lat="46.07651" lon="6.36154">
        <ele>458</ele>
        <time>2021-03-27T12:31:50Z</time>
      </trkpt>
      <trkpt lat="46.07653" lon="6.36144">
        <ele>457.6</ele>
        <time>2021-03-27T12:31:49Z</time>
      </trkpt>
      <trkpt lat="46.07655" lon="6.36135">
        <ele>457.6</ele>
        <time>2021-03-27T12:31:48Z</time>
      </trkpt>
      <trkpt lat="46.07657" lon="6.36126">
        <ele>457.4</ele>
        <time>2021-03-27T12:31:47Z</time>
      </trkpt>
      <trkpt lat="46.07659" lon="6.36117">
        <ele>457.2</ele>
        <time>2021-03-27T12:31:46Z</time>
      </trkpt>
      <trkpt lat="46.0766" lon="6.36109">
        <ele>457</ele>
        <time>2021-03-27T12:31:45Z</time>
      </trkpt>
      <trkpt lat="46.07663" lon="6.361">
        <ele>456.8</ele>
        <time>2021-03-27T12:31:44Z</time>
      </trkpt>
      <trkpt lat="46.07665" lon="6.36092">
        <ele>456.8</ele>
        <time>2021-03-27T12:31:43Z</time>
      </trkpt>
      <trkpt lat="46.07671" lon="6.36076">
        <ele>456.4</ele>
        <time>2021-03-27T12:31:41Z</time>
      </trkpt>
      <trkpt lat="46.07674" lon="6.36068">
        <ele>456.4</ele>
        <time>2021-03-27T12:31:40Z</time>
      </trkpt>
      <trkpt lat="46.07677" lon="6.36062">
        <ele>456.4</ele>
        <time>2021-03-27T12:31:39Z</time>
      </trkpt>
      <trkpt lat="46.07681" lon="6.36058">
        <ele>456.2</ele>
        <time>2021-03-27T12:31:38Z</time>
      </trkpt>
      <trkpt lat="46.07685" lon="6.36056">
        <ele>456.2</ele>
        <time>2021-03-27T12:31:37Z</time>
      </trkpt>
      <trkpt lat="46.0769" lon="6.36057">
        <ele>456.4</ele>
        <time>2021-03-27T12:31:36Z</time>
      </trkpt>
      <trkpt lat="46.07695" lon="6.36059">
        <ele>456.2</ele>
        <time>2021-03-27T12:31:35Z</time>
      </trkpt>
      <trkpt lat="46.077" lon="6.36062">
        <ele>456.2</ele>
        <time>2021-03-27T12:31:34Z</time>
      </trkpt>
      <trkpt lat="46.07706" lon="6.36064">
        <ele>456</ele>
        <time>2021-03-27T12:31:33Z</time>
      </trkpt>
      <trkpt lat="46.07711" lon="6.36066">
        <ele>456.2</ele>
        <time>2021-03-27T12:31:32Z</time>
      </trkpt>
      <trkpt lat="46.07717" lon="6.36068">
        <ele>456</ele>
        <time>2021-03-27T12:31:31Z</time>
      </trkpt>
      <trkpt lat="46.07723" lon="6.3607">
        <ele>456</ele>
        <time>2021-03-27T12:31:30Z</time>
      </trkpt>
      <trkpt lat="46.07729" lon="6.36072">
        <ele>455.8</ele>
        <time>2021-03-27T12:31:29Z</time>
      </trkpt>
      <trkpt lat="46.07735" lon="6.36075">
        <ele>455.6</ele>
        <time>2021-03-27T12:31:28Z</time>
      </trkpt>
      <trkpt lat="46.07741" lon="6.36077">
        <ele>455.6</ele>
        <time>2021-03-27T12:31:27Z</time>
      </trkpt>
      <trkpt lat="46.07747" lon="6.36079">
        <ele>455.2</ele>
        <time>2021-03-27T12:31:26Z</time>
      </trkpt>
      <trkpt lat="46.07753" lon="6.36081">
        <ele>455.2</ele>
        <time>2021-03-27T12:31:25Z</time>
      </trkpt>
      <trkpt lat="46.07758" lon="6.36083">
        <ele>455.2</ele>
        <time>2021-03-27T12:31:24Z</time>
      </trkpt>
      <trkpt lat="46.07764" lon="6.36086">
        <ele>455.2</ele>
        <time>2021-03-27T12:31:23Z</time>
      </trkpt>
      <trkpt lat="46.0777" lon="6.36088">
        <ele>455</ele>
        <time>2021-03-27T12:31:22Z</time>
      </trkpt>
      <trkpt lat="46.07775" lon="6.3609">
        <ele>455.2</ele>
        <time>2021-03-27T12:31:21Z</time>
      </trkpt>
      <trkpt lat="46.07781" lon="6.36092">
        <ele>455</ele>
        <time>2021-03-27T12:31:20Z</time>
      </trkpt>
      <trkpt lat="46.07787" lon="6.36094">
        <ele>454.8</ele>
        <time>2021-03-27T12:31:19Z</time>
      </trkpt>
      <trkpt lat="46.07792" lon="6.36096">
        <ele>454.8</ele>
        <time>2021-03-27T12:31:18Z</time>
      </trkpt>
      <trkpt lat="46.07798" lon="6.36099">
        <ele>454.8</ele>
        <time>2021-03-27T12:31:17Z</time>
      </trkpt>
      <trkpt lat="46.07803" lon="6.36101">
        <ele>454.8</ele>
        <time>2021-03-27T12:31:16Z</time>
      </trkpt>
      <trkpt lat="46.07808" lon="6.36104">
        <ele>454.8</ele>
        <time>2021-03-27T12:31:15Z</time>
      </trkpt>
      <trkpt lat="46.07814" lon="6.36106">
        <ele>454.8</ele>
        <time>2021-03-27T12:31:14Z</time>
      </trkpt>
      <trkpt lat="46.07819" lon="6.36107">
        <ele>454.6</ele>
        <time>2021-03-27T12:31:13Z</time>
      </trkpt>
      <trkpt lat="46.07825" lon="6.36109">
        <ele>454.4</ele>
        <time>2021-03-27T12:31:12Z</time>
      </trkpt>
      <trkpt lat="46.0783" lon="6.36111">
        <ele>454.4</ele>
        <time>2021-03-27T12:31:11Z</time>
      </trkpt>
      <trkpt lat="46.07836" lon="6.36113">
        <ele>454.4</ele>
        <time>2021-03-27T12:31:10Z</time>
      </trkpt>
      <trkpt lat="46.07841" lon="6.36115">
        <ele>454.4</ele>
        <time>2021-03-27T12:31:09Z</time>
      </trkpt>
      <trkpt lat="46.07846" lon="6.36117">
        <ele>454.2</ele>
        <time>2021-03-27T12:31:08Z</time>
      </trkpt>
      <trkpt lat="46.07851" lon="6.3612">
        <ele>454</ele>
        <time>2021-03-27T12:31:07Z</time>
      </trkpt>
      <trkpt lat="46.07856" lon="6.36122">
        <ele>453.8</ele>
        <time>2021-03-27T12:31:06Z</time>
      </trkpt>
      <trkpt lat="46.07861" lon="6.36125">
        <ele>453.8</ele>
        <time>2021-03-27T12:31:05Z</time>
      </trkpt>
      <trkpt lat="46.07866" lon="6.36128">
        <ele>453.6</ele>
        <time>2021-03-27T12:31:04Z</time>
      </trkpt>
      <trkpt lat="46.07871" lon="6.36131">
        <ele>453</ele>
        <time>2021-03-27T12:31:03Z</time>
      </trkpt>
      <trkpt lat="46.07875" lon="6.36134">
        <ele>452.6</ele>
        <time>2021-03-27T12:31:02Z</time>
      </trkpt>
      <trkpt lat="46.0788" lon="6.36137">
        <ele>452.2</ele>
        <time>2021-03-27T12:31:01Z</time>
      </trkpt>
      <trkpt lat="46.07884" lon="6.36141">
        <ele>452</ele>
        <time>2021-03-27T12:31:00Z</time>
      </trkpt>
      <trkpt lat="46.07888" lon="6.36144">
        <ele>451.8</ele>
        <time>2021-03-27T12:30:59Z</time>
      </trkpt>
      <trkpt lat="46.07893" lon="6.36147">
        <ele>451.8</ele>
        <time>2021-03-27T12:30:58Z</time>
      </trkpt>
      <trkpt lat="46.07897" lon="6.36151">
        <ele>451.6</ele>
        <time>2021-03-27T12:30:57Z</time>
      </trkpt>
      <trkpt lat="46.07901" lon="6.36154">
        <ele>451.2</ele>
        <time>2021-03-27T12:30:56Z</time>
      </trkpt>
      <trkpt lat="46.07905" lon="6.36157">
        <ele>450.8</ele>
        <time>2021-03-27T12:30:55Z</time>
      </trkpt>
      <trkpt lat="46.07909" lon="6.3616">
        <ele>450.6</ele>
        <time>2021-03-27T12:30:54Z</time>
      </trkpt>
      <trkpt lat="46.07913" lon="6.36163">
        <ele>450</ele>
        <time>2021-03-27T12:30:53Z</time>
      </trkpt>
      <trkpt lat="46.07917" lon="6.36166">
        <ele>449.6</ele>
        <time>2021-03-27T12:30:52Z</time>
      </trkpt>
      <trkpt lat="46.07922" lon="6.36169">
        <ele>449.2</ele>
        <time>2021-03-27T12:30:51Z</time>
      </trkpt>
      <trkpt lat="46.07926" lon="6.36172">
        <ele>448.6</ele>
        <time>2021-03-27T12:30:50Z</time>
      </trkpt>
      <trkpt lat="46.0793" lon="6.36175">
        <ele>448</ele>
        <time>2021-03-27T12:30:49Z</time>
      </trkpt>
      <trkpt lat="46.07934" lon="6.36178">
        <ele>447.6</ele>
        <time>2021-03-27T12:30:48Z</time>
      </trkpt>
      <trkpt lat="46.07938" lon="6.36181">
        <ele>447.4</ele>
        <time>2021-03-27T12:30:47Z</time>
      </trkpt>
      <trkpt lat="46.07942" lon="6.36185">
        <ele>447.2</ele>
        <time>2021-03-27T12:30:46Z</time>
      </trkpt>
      <trkpt lat="46.07947" lon="6.36188">
        <ele>447</ele>
        <time>2021-03-27T12:30:45Z</time>
      </trkpt>
      <trkpt lat="46.07951" lon="6.36192">
        <ele>446.6</ele>
        <time>2021-03-27T12:30:44Z</time>
      </trkpt>
      <trkpt lat="46.07955" lon="6.36196">
        <ele>446.8</ele>
        <time>2021-03-27T12:30:43Z</time>
      </trkpt>
      <trkpt lat="46.0796" lon="6.362">
        <ele>446.6</ele>
        <time>2021-03-27T12:30:42Z</time>
      </trkpt>
      <trkpt lat="46.07965" lon="6.36205">
        <ele>446.6</ele>
        <time>2021-03-27T12:30:41Z</time>
      </trkpt>
      <trkpt lat="46.07969" lon="6.3621">
        <ele>446.6</ele>
        <time>2021-03-27T12:30:40Z</time>
      </trkpt>
      <trkpt lat="46.07973" lon="6.36216">
        <ele>446.4</ele>
        <time>2021-03-27T12:30:39Z</time>
      </trkpt>
      <trkpt lat="46.07978" lon="6.36222">
        <ele>446.6</ele>
        <time>2021-03-27T12:30:38Z</time>
      </trkpt>
      <trkpt lat="46.07983" lon="6.36228">
        <ele>446.2</ele>
        <time>2021-03-27T12:30:37Z</time>
      </trkpt>
      <trkpt lat="46.07987" lon="6.36234">
        <ele>446.2</ele>
        <time>2021-03-27T12:30:36Z</time>
      </trkpt>
      <trkpt lat="46.07992" lon="6.36241">
        <ele>446</ele>
        <time>2021-03-27T12:30:35Z</time>
      </trkpt>
      <trkpt lat="46.07996" lon="6.36248">
        <ele>445.8</ele>
        <time>2021-03-27T12:30:34Z</time>
      </trkpt>
      <trkpt lat="46.08001" lon="6.36256">
        <ele>445.8</ele>
        <time>2021-03-27T12:30:33Z</time>
      </trkpt>
      <trkpt lat="46.08005" lon="6.36264">
        <ele>445.8</ele>
        <time>2021-03-27T12:30:32Z</time>
      </trkpt>
      <trkpt lat="46.08009" lon="6.36272">
        <ele>445.6</ele>
        <time>2021-03-27T12:30:31Z</time>
      </trkpt>
      <trkpt lat="46.08013" lon="6.3628">
        <ele>445.6</ele>
        <time>2021-03-27T12:30:30Z</time>
      </trkpt>
      <trkpt lat="46.08017" lon="6.36288">
        <ele>445.6</ele>
        <time>2021-03-27T12:30:29Z</time>
      </trkpt>
      <trkpt lat="46.08021" lon="6.36296">
        <ele>445.6</ele>
        <time>2021-03-27T12:30:28Z</time>
      </trkpt>
      <trkpt lat="46.08025" lon="6.36304">
        <ele>445.6</ele>
        <time>2021-03-27T12:30:27Z</time>
      </trkpt>
      <trkpt lat="46.08029" lon="6.36312">
        <ele>445.6</ele>
        <time>2021-03-27T12:30:26Z</time>
      </trkpt>
      <trkpt lat="46.08034" lon="6.3632">
        <ele>445.8</ele>
        <time>2021-03-27T12:30:25Z</time>
      </trkpt>
      <trkpt lat="46.08038" lon="6.36329">
        <ele>446</ele>
        <time>2021-03-27T12:30:24Z</time>
      </trkpt>
      <trkpt lat="46.08042" lon="6.36337">
        <ele>446</ele>
        <time>2021-03-27T12:30:23Z</time>
      </trkpt>
      <trkpt lat="46.08047" lon="6.36345">
        <ele>446.2</ele>
        <time>2021-03-27T12:30:22Z</time>
      </trkpt>
      <trkpt lat="46.08052" lon="6.36352">
        <ele>446</ele>
        <time>2021-03-27T12:30:21Z</time>
      </trkpt>
      <trkpt lat="46.08057" lon="6.3636">
        <ele>446</ele>
        <time>2021-03-27T12:30:20Z</time>
      </trkpt>
      <trkpt lat="46.08063" lon="6.36367">
        <ele>446</ele>
        <time>2021-03-27T12:30:19Z</time>
      </trkpt>
      <trkpt lat="46.08069" lon="6.36373">
        <ele>446</ele>
        <time>2021-03-27T12:30:18Z</time>
      </trkpt>
      <trkpt lat="46.08076" lon="6.36378">
        <ele>446.2</ele>
        <time>2021-03-27T12:30:17Z</time>
      </trkpt>
      <trkpt lat="46.08082" lon="6.36382">
        <ele>446.2</ele>
        <time>2021-03-27T12:30:16Z</time>
      </trkpt>
      <trkpt lat="46.0809" lon="6.36386">
        <ele>446</ele>
        <time>2021-03-27T12:30:15Z</time>
      </trkpt>
      <trkpt lat="46.08097" lon="6.36387">
        <ele>446</ele>
        <time>2021-03-27T12:30:14Z</time>
      </trkpt>
      <trkpt lat="46.08105" lon="6.36388">
        <ele>446.2</ele>
        <time>2021-03-27T12:30:13Z</time>
      </trkpt>
      <trkpt lat="46.08112" lon="6.36388">
        <ele>446.2</ele>
        <time>2021-03-27T12:30:12Z</time>
      </trkpt>
      <trkpt lat="46.0812" lon="6.36387">
        <ele>446.2</ele>
        <time>2021-03-27T12:30:11Z</time>
      </trkpt>
      <trkpt lat="46.08127" lon="6.36387">
        <ele>446.2</ele>
        <time>2021-03-27T12:30:10Z</time>
      </trkpt>
      <trkpt lat="46.08135" lon="6.36386">
        <ele>446</ele>
        <time>2021-03-27T12:30:09Z</time>
      </trkpt>
      <trkpt lat="46.08142" lon="6.36386">
        <ele>445.8</ele>
        <time>2021-03-27T12:30:08Z</time>
      </trkpt>
      <trkpt lat="46.0815" lon="6.36386">
        <ele>445.6</ele>
        <time>2021-03-27T12:30:07Z</time>
      </trkpt>
      <trkpt lat="46.08158" lon="6.36386">
        <ele>445.6</ele>
        <time>2021-03-27T12:30:06Z</time>
      </trkpt>
      <trkpt lat="46.08165" lon="6.36386">
        <ele>445.6</ele>
        <time>2021-03-27T12:30:05Z</time>
      </trkpt>
      <trkpt lat="46.08172" lon="6.36385">
        <ele>445.6</ele>
        <time>2021-03-27T12:30:04Z</time>
      </trkpt>
      <trkpt lat="46.08179" lon="6.36384">
        <ele>445.4</ele>
        <time>2021-03-27T12:30:03Z</time>
      </trkpt>
      <trkpt lat="46.08186" lon="6.36384">
        <ele>445.4</ele>
        <time>2021-03-27T12:30:02Z</time>
      </trkpt>
      <trkpt lat="46.08193" lon="6.36385">
        <ele>445.4</ele>
        <time>2021-03-27T12:30:01Z</time>
      </trkpt>
      <trkpt lat="46.082" lon="6.36386">
        <ele>445.4</ele>
        <time>2021-03-27T12:30:00Z</time>
      </trkpt>
      <trkpt lat="46.08206" lon="6.36387">
        <ele>445.4</ele>
        <time>2021-03-27T12:29:59Z</time>
      </trkpt>
      <trkpt lat="46.08213" lon="6.3639">
        <ele>445.4</ele>
        <time>2021-03-27T12:29:58Z</time>
      </trkpt>
      <trkpt lat="46.08219" lon="6.36394">
        <ele>445.4</ele>
        <time>2021-03-27T12:29:57Z</time>
      </trkpt>
      <trkpt lat="46.08225" lon="6.36399">
        <ele>445.4</ele>
        <time>2021-03-27T12:29:56Z</time>
      </trkpt>
      <trkpt lat="46.0823" lon="6.36404">
        <ele>445.4</ele>
        <time>2021-03-27T12:29:55Z</time>
      </trkpt>
      <trkpt lat="46.08236" lon="6.36409">
        <ele>445.4</ele>
        <time>2021-03-27T12:29:54Z</time>
      </trkpt>
      <trkpt lat="46.08242" lon="6.36414">
        <ele>445.2</ele>
        <time>2021-03-27T12:29:53Z</time>
      </trkpt>
      <trkpt lat="46.08247" lon="6.36419">
        <ele>445.2</ele>
        <time>2021-03-27T12:29:52Z</time>
      </trkpt>
      <trkpt lat="46.08253" lon="6.36425">
        <ele>445.4</ele>
        <time>2021-03-27T12:29:51Z</time>
      </trkpt>
      <trkpt lat="46.08258" lon="6.3643">
        <ele>445.2</ele>
        <time>2021-03-27T12:29:50Z</time>
      </trkpt>
      <trkpt lat="46.08264" lon="6.36435">
        <ele>445.4</ele>
        <time>2021-03-27T12:29:49Z</time>
      </trkpt>
      <trkpt lat="46.08269" lon="6.3644">
        <ele>445.4</ele>
        <time>2021-03-27T12:29:48Z</time>
      </trkpt>
      <trkpt lat="46.08274" lon="6.36445">
        <ele>445.4</ele>
        <time>2021-03-27T12:29:47Z</time>
      </trkpt>
      <trkpt lat="46.08279" lon="6.3645">
        <ele>445.4</ele>
        <time>2021-03-27T12:29:46Z</time>
      </trkpt>
      <trkpt lat="46.08284" lon="6.36455">
        <ele>445.6</ele>
        <time>2021-03-27T12:29:45Z</time>
      </trkpt>
      <trkpt lat="46.08289" lon="6.36459">
        <ele>445.8</ele>
        <time>2021-03-27T12:29:44Z</time>
      </trkpt>
      <trkpt lat="46.08294" lon="6.36463">
        <ele>445.8</ele>
        <time>2021-03-27T12:29:43Z</time>
      </trkpt>
      <trkpt lat="46.08298" lon="6.36468">
        <ele>446</ele>
        <time>2021-03-27T12:29:42Z</time>
      </trkpt>
      <trkpt lat="46.08302" lon="6.36471">
        <ele>446.2</ele>
        <time>2021-03-27T12:29:41Z</time>
      </trkpt>
      <trkpt lat="46.08306" lon="6.36475">
        <ele>446.2</ele>
        <time>2021-03-27T12:29:40Z</time>
      </trkpt>
      <trkpt lat="46.0831" lon="6.36479">
        <ele>446.2</ele>
        <time>2021-03-27T12:29:39Z</time>
      </trkpt>
      <trkpt lat="46.08313" lon="6.36482">
        <ele>446.4</ele>
        <time>2021-03-27T12:29:38Z</time>
      </trkpt>
      <trkpt lat="46.08315" lon="6.36486">
        <ele>446.2</ele>
        <time>2021-03-27T12:29:37Z</time>
      </trkpt>
      <trkpt lat="46.08317" lon="6.3649">
        <ele>446.4</ele>
        <time>2021-03-27T12:29:36Z</time>
      </trkpt>
      <trkpt lat="46.08317" lon="6.36494">
        <ele>446.4</ele>
        <time>2021-03-27T12:29:35Z</time>
      </trkpt>
      <trkpt lat="46.08316" lon="6.36498">
        <ele>446.4</ele>
        <time>2021-03-27T12:29:34Z</time>
      </trkpt>
      <trkpt lat="46.08314" lon="6.36502">
        <ele>446.4</ele>
        <time>2021-03-27T12:29:33Z</time>
      </trkpt>
      <trkpt lat="46.08313" lon="6.36502">
        <ele>446.4</ele>
        <time>2021-03-27T12:29:32Z</time>
      </trkpt>
      <trkpt lat="46.08311" lon="6.36502">
        <ele>446.4</ele>
        <time>2021-03-27T12:29:31Z</time>
      </trkpt>
      <trkpt lat="46.08311" lon="6.36501">
        <ele>446.4</ele>
        <time>2021-03-27T12:29:30Z</time>
      </trkpt>
      <trkpt lat="46.08311" lon="6.36501">
        <ele>446.6</ele>
        <time>2021-03-27T12:29:29Z</time>
      </trkpt>
      <trkpt lat="46.08311" lon="6.36501">
        <ele>446.6</ele>
        <time>2021-03-27T12:29:28Z</time>
      </trkpt>
      <trkpt lat="46.08311" lon="6.36501">
        <ele>446.4</ele>
        <time>2021-03-27T12:29:27Z</time>
      </trkpt>
      <trkpt lat="46.08311" lon="6.36501">
        <ele>446.4</ele>
        <time>2021-03-27T12:29:26Z</time>
      </trkpt>
      <trkpt lat="46.08311" lon="6.36501">
        <ele>446.4</ele>
        <time>2021-03-27T12:29:25Z</time>
      </trkpt>
      <trkpt lat="46.08311" lon="6.36501">
        <ele>446.4</ele>
        <time>2021-03-27T12:29:24Z</time>
      </trkpt>
      <trkpt lat="46.08311" lon="6.36501">
        <ele>446.6</ele>
        <time>2021-03-27T12:29:23Z</time>
      </trkpt>
      <trkpt lat="46.08311" lon="6.36501">
        <ele>446.4</ele>
        <time>2021-03-27T12:29:22Z</time>
      </trkpt>
      <trkpt lat="46.08311" lon="6.36501">
        <ele>446.4</ele>
        <time>2021-03-27T12:29:21Z</time>
      </trkpt>
      <trkpt lat="46.08311" lon="6.36501">
        <ele>446.4</ele>
        <time>2021-03-27T12:29:20Z</time>
      </trkpt>
      <trkpt lat="46.08311" lon="6.36502">
        <ele>446.4</ele>
        <time>2021-03-27T12:29:19Z</time>
      </trkpt>
      <trkpt lat="46.08311" lon="6.36502">
        <ele>446.4</ele>
        <time>2021-03-27T12:29:18Z</time>
      </trkpt>
      <trkpt lat="46.08311" lon="6.36502">
        <ele>446.4</ele>
        <time>2021-03-27T12:29:17Z</time>
      </trkpt>
      <trkpt lat="46.08311" lon="6.36502">
        <ele>446.4</ele>
        <time>2021-03-27T12:29:16Z</time>
      </trkpt>
      <trkpt lat="46.08311" lon="6.36502">
        <ele>446.4</ele>
        <time>2021-03-27T12:29:15Z</time>
      </trkpt>
      <trkpt lat="46.08311" lon="6.36502">
        <ele>446.4</ele>
        <time>2021-03-27T12:29:14Z</time>
      </trkpt>
      <trkpt lat="46.0831" lon="6.36502">
        <ele>446.4</ele>
        <time>2021-03-27T12:29:13Z</time>
      </trkpt>
      <trkpt lat="46.0831" lon="6.36502">
        <ele>446.2</ele>
        <time>2021-03-27T12:29:12Z</time>
      </trkpt>
      <trkpt lat="46.0831" lon="6.36502">
        <ele>446.4</ele>
        <time>2021-03-27T12:29:11Z</time>
      </trkpt>
      <trkpt lat="46.0831" lon="6.36502">
        <ele>446.2</ele>
        <time>2021-03-27T12:29:10Z</time>
      </trkpt>
      <trkpt lat="46.0831" lon="6.36503">
        <ele>446.2</ele>
        <time>2021-03-27T12:29:09Z</time>
      </trkpt>
      <trkpt lat="46.0831" lon="6.36503">
        <ele>446.2</ele>
        <time>2021-03-27T12:29:08Z</time>
      </trkpt>
      <trkpt lat="46.0831" lon="6.36503">
        <ele>446.2</ele>
        <time>2021-03-27T12:29:07Z</time>
      </trkpt>
      <trkpt lat="46.0831" lon="6.36503">
        <ele>446.2</ele>
        <time>2021-03-27T12:29:06Z</time>
      </trkpt>
      <trkpt lat="46.0831" lon="6.36503">
        <ele>446.2</ele>
        <time>2021-03-27T12:29:05Z</time>
      </trkpt>
      <trkpt lat="46.0831" lon="6.36503">
        <ele>446.2</ele>
        <time>2021-03-27T12:29:04Z</time>
      </trkpt>
      <trkpt lat="46.0831" lon="6.36503">
        <ele>446.4</ele>
        <time>2021-03-27T12:29:03Z</time>
      </trkpt>
      <trkpt lat="46.0831" lon="6.36503">
        <ele>446.2</ele>
        <time>2021-03-27T12:29:02Z</time>
      </trkpt>
      <trkpt lat="46.0831" lon="6.36503">
        <ele>446.2</ele>
        <time>2021-03-27T12:29:01Z</time>
      </trkpt>
      <trkpt lat="46.0831" lon="6.36503">
        <ele>446.2</ele>
        <time>2021-03-27T12:29:00Z</time>
      </trkpt>
      <trkpt lat="46.0831" lon="6.36503">
        <ele>446.2</ele>
        <time>2021-03-27T12:28:59Z</time>
      </trkpt>
      <trkpt lat="46.0831" lon="6.36503">
        <ele>446</ele>
        <time>2021-03-27T12:28:58Z</time>
      </trkpt>
      <trkpt lat="46.0831" lon="6.36504">
        <ele>446</ele>
        <time>2021-03-27T12:28:57Z</time>
      </trkpt>
      <trkpt lat="46.0831" lon="6.36504">
        <ele>445.8</ele>
        <time>2021-03-27T12:28:56Z</time>
      </trkpt>
      <trkpt lat="46.0831" lon="6.36504">
        <ele>445.4</ele>
        <time>2021-03-27T12:28:55Z</time>
      </trkpt>
      <trkpt lat="46.0831" lon="6.36504">
        <ele>445.4</ele>
        <time>2021-03-27T12:28:54Z</time>
      </trkpt>
      <trkpt lat="46.0831" lon="6.36504">
        <ele>445</ele>
        <time>2021-03-27T12:28:53Z</time>
      </trkpt>
      <trkpt lat="46.08309" lon="6.36504">
        <ele>445</ele>
        <time>2021-03-27T12:28:52Z</time>
      </trkpt>
      <trkpt lat="46.08309" lon="6.36503">
        <ele>445</ele>
        <time>2021-03-27T12:28:51Z</time>
      </trkpt>
      <trkpt lat="46.0831" lon="6.365">
        <ele>445</ele>
        <time>2021-03-27T12:28:50Z</time>
      </trkpt>
      <trkpt lat="46.08311" lon="6.36496">
        <ele>445</ele>
        <time>2021-03-27T12:28:49Z</time>
      </trkpt>
      <trkpt lat="46.08313" lon="6.36492">
        <ele>444.8</ele>
        <time>2021-03-27T12:28:48Z</time>
      </trkpt>
      <trkpt lat="46.08316" lon="6.36489">
        <ele>444.8</ele>
        <time>2021-03-27T12:28:47Z</time>
      </trkpt>
      <trkpt lat="46.0832" lon="6.36485">
        <ele>444.6</ele>
        <time>2021-03-27T12:28:46Z</time>
      </trkpt>
      <trkpt lat="46.08324" lon="6.3648">
        <ele>444.6</ele>
        <time>2021-03-27T12:28:45Z</time>
      </trkpt>
      <trkpt lat="46.08328" lon="6.36472">
        <ele>444.6</ele>
        <time>2021-03-27T12:28:44Z</time>
      </trkpt>
      <trkpt lat="46.08332" lon="6.36464">
        <ele>444.6</ele>
        <time>2021-03-27T12:28:43Z</time>
      </trkpt>
      <trkpt lat="46.08336" lon="6.36456">
        <ele>444.4</ele>
        <time>2021-03-27T12:28:42Z</time>
      </trkpt>
      <trkpt lat="46.0834" lon="6.36448">
        <ele>444.4</ele>
        <time>2021-03-27T12:28:41Z</time>
      </trkpt>
      <trkpt lat="46.08344" lon="6.36439">
        <ele>444.4</ele>
        <time>2021-03-27T12:28:40Z</time>
      </trkpt>
      <trkpt lat="46.08349" lon="6.3643">
        <ele>444.4</ele>
        <time>2021-03-27T12:28:39Z</time>
      </trkpt>
      <trkpt lat="46.08353" lon="6.36421">
        <ele>444.4</ele>
        <time>2021-03-27T12:28:38Z</time>
      </trkpt>
      <trkpt lat="46.08358" lon="6.36411">
        <ele>444.4</ele>
        <time>2021-03-27T12:28:37Z</time>
      </trkpt>
      <trkpt lat="46.08363" lon="6.36401">
        <ele>444.4</ele>
        <time>2021-03-27T12:28:36Z</time>
      </trkpt>
      <trkpt lat="46.08367" lon="6.36392">
        <ele>444.4</ele>
        <time>2021-03-27T12:28:35Z</time>
      </trkpt>
      <trkpt lat="46.08372" lon="6.36382">
        <ele>444.6</ele>
        <time>2021-03-27T12:28:34Z</time>
      </trkpt>
      <trkpt lat="46.08377" lon="6.36372">
        <ele>444.4</ele>
        <time>2021-03-27T12:28:33Z</time>
      </trkpt>
      <trkpt lat="46.08381" lon="6.36362">
        <ele>444.4</ele>
        <time>2021-03-27T12:28:32Z</time>
      </trkpt>
      <trkpt lat="46.08386" lon="6.36352">
        <ele>444.4</ele>
        <time>2021-03-27T12:28:31Z</time>
      </trkpt>
      <trkpt lat="46.08391" lon="6.36343">
        <ele>444.2</ele>
        <time>2021-03-27T12:28:30Z</time>
      </trkpt>
      <trkpt lat="46.08396" lon="6.36333">
        <ele>444.2</ele>
        <time>2021-03-27T12:28:29Z</time>
      </trkpt>
      <trkpt lat="46.084" lon="6.36324">
        <ele>444.2</ele>
        <time>2021-03-27T12:28:28Z</time>
      </trkpt>
      <trkpt lat="46.08405" lon="6.36315">
        <ele>444</ele>
        <time>2021-03-27T12:28:27Z</time>
      </trkpt>
      <trkpt lat="46.08409" lon="6.36306">
        <ele>444.2</ele>
        <time>2021-03-27T12:28:26Z</time>
      </trkpt>
      <trkpt lat="46.08414" lon="6.36297">
        <ele>444.2</ele>
        <time>2021-03-27T12:28:25Z</time>
      </trkpt>
      <trkpt lat="46.08418" lon="6.36287">
        <ele>444.2</ele>
        <time>2021-03-27T12:28:24Z</time>
      </trkpt>
      <trkpt lat="46.08423" lon="6.36277">
        <ele>444</ele>
        <time>2021-03-27T12:28:23Z</time>
      </trkpt>
      <trkpt lat="46.08428" lon="6.36267">
        <ele>444</ele>
        <time>2021-03-27T12:28:22Z</time>
      </trkpt>
      <trkpt lat="46.08433" lon="6.36257">
        <ele>444</ele>
        <time>2021-03-27T12:28:21Z</time>
      </trkpt>
      <trkpt lat="46.08438" lon="6.36248">
        <ele>444</ele>
        <time>2021-03-27T12:28:20Z</time>
      </trkpt>
      <trkpt lat="46.08442" lon="6.36238">
        <ele>444</ele>
        <time>2021-03-27T12:28:19Z</time>
      </trkpt>
      <trkpt lat="46.08447" lon="6.36228">
        <ele>444</ele>
        <time>2021-03-27T12:28:18Z</time>
      </trkpt>
      <trkpt lat="46.08452" lon="6.36218">
        <ele>444</ele>
        <time>2021-03-27T12:28:17Z</time>
      </trkpt>
      <trkpt lat="46.08457" lon="6.36208">
        <ele>444</ele>
        <time>2021-03-27T12:28:16Z</time>
      </trkpt>
      <trkpt lat="46.08461" lon="6.36199">
        <ele>443.8</ele>
        <time>2021-03-27T12:28:15Z</time>
      </trkpt>
      <trkpt lat="46.08466" lon="6.36189">
        <ele>444</ele>
        <time>2021-03-27T12:28:14Z</time>
      </trkpt>
      <trkpt lat="46.08471" lon="6.36179">
        <ele>444</ele>
        <time>2021-03-27T12:28:13Z</time>
      </trkpt>
      <trkpt lat="46.08476" lon="6.3617">
        <ele>444.2</ele>
        <time>2021-03-27T12:28:12Z</time>
      </trkpt>
      <trkpt lat="46.0848" lon="6.3616">
        <ele>444.2</ele>
        <time>2021-03-27T12:28:11Z</time>
      </trkpt>
      <trkpt lat="46.08485" lon="6.3615">
        <ele>444.2</ele>
        <time>2021-03-27T12:28:10Z</time>
      </trkpt>
      <trkpt lat="46.0849" lon="6.3614">
        <ele>444.4</ele>
        <time>2021-03-27T12:28:09Z</time>
      </trkpt>
      <trkpt lat="46.08495" lon="6.3613">
        <ele>444.2</ele>
        <time>2021-03-27T12:28:08Z</time>
      </trkpt>
      <trkpt lat="46.085" lon="6.3612">
        <ele>444.4</ele>
        <time>2021-03-27T12:28:07Z</time>
      </trkpt>
      <trkpt lat="46.08505" lon="6.3611">
        <ele>444.6</ele>
        <time>2021-03-27T12:28:06Z</time>
      </trkpt>
      <trkpt lat="46.0851" lon="6.361">
        <ele>444.4</ele>
        <time>2021-03-27T12:28:05Z</time>
      </trkpt>
      <trkpt lat="46.08515" lon="6.3609">
        <ele>444.6</ele>
        <time>2021-03-27T12:28:04Z</time>
      </trkpt>
      <trkpt lat="46.0852" lon="6.3608">
        <ele>444.4</ele>
        <time>2021-03-27T12:28:03Z</time>
      </trkpt>
      <trkpt lat="46.08524" lon="6.36071">
        <ele>444.6</ele>
        <time>2021-03-27T12:28:02Z</time>
      </trkpt>
      <trkpt lat="46.08529" lon="6.36061">
        <ele>444.6</ele>
        <time>2021-03-27T12:28:01Z</time>
      </trkpt>
      <trkpt lat="46.08534" lon="6.36051">
        <ele>444.6</ele>
        <time>2021-03-27T12:28:00Z</time>
      </trkpt>
      <trkpt lat="46.08539" lon="6.36041">
        <ele>444.6</ele>
        <time>2021-03-27T12:27:59Z</time>
      </trkpt>
      <trkpt lat="46.08544" lon="6.36031">
        <ele>444.4</ele>
        <time>2021-03-27T12:27:58Z</time>
      </trkpt>
      <trkpt lat="46.08549" lon="6.36021">
        <ele>444.6</ele>
        <time>2021-03-27T12:27:57Z</time>
      </trkpt>
      <trkpt lat="46.08554" lon="6.36011">
        <ele>444.4</ele>
        <time>2021-03-27T12:27:56Z</time>
      </trkpt>
      <trkpt lat="46.08559" lon="6.36002">
        <ele>444.4</ele>
        <time>2021-03-27T12:27:55Z</time>
      </trkpt>
      <trkpt lat="46.08563" lon="6.35992">
        <ele>444.6</ele>
        <time>2021-03-27T12:27:54Z</time>
      </trkpt>
      <trkpt lat="46.08568" lon="6.35982">
        <ele>444.6</ele>
        <time>2021-03-27T12:27:53Z</time>
      </trkpt>
      <trkpt lat="46.08573" lon="6.35972">
        <ele>444.6</ele>
        <time>2021-03-27T12:27:52Z</time>
      </trkpt>
      <trkpt lat="46.08578" lon="6.35962">
        <ele>444.6</ele>
        <time>2021-03-27T12:27:51Z</time>
      </trkpt>
      <trkpt lat="46.08583" lon="6.35953">
        <ele>444.4</ele>
        <time>2021-03-27T12:27:50Z</time>
      </trkpt>
      <trkpt lat="46.08588" lon="6.35943">
        <ele>444.4</ele>
        <time>2021-03-27T12:27:49Z</time>
      </trkpt>
      <trkpt lat="46.08593" lon="6.35933">
        <ele>444.4</ele>
        <time>2021-03-27T12:27:48Z</time>
      </trkpt>
      <trkpt lat="46.08597" lon="6.35924">
        <ele>444.4</ele>
        <time>2021-03-27T12:27:47Z</time>
      </trkpt>
      <trkpt lat="46.08602" lon="6.35914">
        <ele>444.2</ele>
        <time>2021-03-27T12:27:46Z</time>
      </trkpt>
      <trkpt lat="46.08607" lon="6.35904">
        <ele>444.2</ele>
        <time>2021-03-27T12:27:45Z</time>
      </trkpt>
      <trkpt lat="46.08612" lon="6.35894">
        <ele>444.2</ele>
        <time>2021-03-27T12:27:44Z</time>
      </trkpt>
      <trkpt lat="46.08617" lon="6.35884">
        <ele>444.2</ele>
        <time>2021-03-27T12:27:43Z</time>
      </trkpt>
      <trkpt lat="46.08622" lon="6.35874">
        <ele>444.2</ele>
        <time>2021-03-27T12:27:42Z</time>
      </trkpt>
      <trkpt lat="46.08626" lon="6.35865">
        <ele>444.4</ele>
        <time>2021-03-27T12:27:41Z</time>
      </trkpt>
      <trkpt lat="46.08631" lon="6.35855">
        <ele>444.2</ele>
        <time>2021-03-27T12:27:40Z</time>
      </trkpt>
      <trkpt lat="46.08636" lon="6.35845">
        <ele>444.2</ele>
        <time>2021-03-27T12:27:39Z</time>
      </trkpt>
      <trkpt lat="46.0864" lon="6.35835">
        <ele>444.2</ele>
        <time>2021-03-27T12:27:38Z</time>
      </trkpt>
      <trkpt lat="46.08645" lon="6.35825">
        <ele>444.2</ele>
        <time>2021-03-27T12:27:37Z</time>
      </trkpt>
      <trkpt lat="46.08649" lon="6.35815">
        <ele>444.4</ele>
        <time>2021-03-27T12:27:36Z</time>
      </trkpt>
      <trkpt lat="46.08654" lon="6.35805">
        <ele>444.4</ele>
        <time>2021-03-27T12:27:35Z</time>
      </trkpt>
      <trkpt lat="46.08658" lon="6.35794">
        <ele>444.6</ele>
        <time>2021-03-27T12:27:34Z</time>
      </trkpt>
      <trkpt lat="46.08663" lon="6.35784">
        <ele>444.8</ele>
        <time>2021-03-27T12:27:33Z</time>
      </trkpt>
      <trkpt lat="46.08667" lon="6.35774">
        <ele>444.8</ele>
        <time>2021-03-27T12:27:32Z</time>
      </trkpt>
      <trkpt lat="46.08671" lon="6.35764">
        <ele>444.8</ele>
        <time>2021-03-27T12:27:31Z</time>
      </trkpt>
      <trkpt lat="46.08676" lon="6.35753">
        <ele>444.8</ele>
        <time>2021-03-27T12:27:30Z</time>
      </trkpt>
      <trkpt lat="46.08681" lon="6.35742">
        <ele>445</ele>
        <time>2021-03-27T12:27:29Z</time>
      </trkpt>
      <trkpt lat="46.08685" lon="6.35732">
        <ele>445.2</ele>
        <time>2021-03-27T12:27:28Z</time>
      </trkpt>
      <trkpt lat="46.0869" lon="6.35721">
        <ele>445.2</ele>
        <time>2021-03-27T12:27:27Z</time>
      </trkpt>
      <trkpt lat="46.08695" lon="6.3571">
        <ele>445.4</ele>
        <time>2021-03-27T12:27:26Z</time>
      </trkpt>
      <trkpt lat="46.08699" lon="6.35699">
        <ele>445.4</ele>
        <time>2021-03-27T12:27:25Z</time>
      </trkpt>
      <trkpt lat="46.08704" lon="6.35689">
        <ele>445.4</ele>
        <time>2021-03-27T12:27:24Z</time>
      </trkpt>
      <trkpt lat="46.08709" lon="6.35678">
        <ele>445.4</ele>
        <time>2021-03-27T12:27:23Z</time>
      </trkpt>
      <trkpt lat="46.08713" lon="6.35667">
        <ele>445.6</ele>
        <time>2021-03-27T12:27:22Z</time>
      </trkpt>
      <trkpt lat="46.08718" lon="6.35657">
        <ele>445.4</ele>
        <time>2021-03-27T12:27:21Z</time>
      </trkpt>
      <trkpt lat="46.08723" lon="6.35646">
        <ele>445.6</ele>
        <time>2021-03-27T12:27:20Z</time>
      </trkpt>
      <trkpt lat="46.08727" lon="6.35635">
        <ele>445.6</ele>
        <time>2021-03-27T12:27:19Z</time>
      </trkpt>
      <trkpt lat="46.08731" lon="6.35624">
        <ele>445.4</ele>
        <time>2021-03-27T12:27:18Z</time>
      </trkpt>
      <trkpt lat="46.08735" lon="6.35613">
        <ele>445.4</ele>
        <time>2021-03-27T12:27:17Z</time>
      </trkpt>
      <trkpt lat="46.08738" lon="6.35602">
        <ele>445.4</ele>
        <time>2021-03-27T12:27:16Z</time>
      </trkpt>
      <trkpt lat="46.08742" lon="6.35591">
        <ele>445.4</ele>
        <time>2021-03-27T12:27:15Z</time>
      </trkpt>
      <trkpt lat="46.08746" lon="6.3558">
        <ele>445.2</ele>
        <time>2021-03-27T12:27:14Z</time>
      </trkpt>
      <trkpt lat="46.08749" lon="6.35568">
        <ele>445.2</ele>
        <time>2021-03-27T12:27:13Z</time>
      </trkpt>
      <trkpt lat="46.08753" lon="6.35557">
        <ele>445.2</ele>
        <time>2021-03-27T12:27:12Z</time>
      </trkpt>
      <trkpt lat="46.08757" lon="6.35546">
        <ele>445.2</ele>
        <time>2021-03-27T12:27:11Z</time>
      </trkpt>
      <trkpt lat="46.08761" lon="6.35535">
        <ele>445.2</ele>
        <time>2021-03-27T12:27:10Z</time>
      </trkpt>
      <trkpt lat="46.08765" lon="6.35524">
        <ele>445</ele>
        <time>2021-03-27T12:27:09Z</time>
      </trkpt>
      <trkpt lat="46.08769" lon="6.35512">
        <ele>445.2</ele>
        <time>2021-03-27T12:27:08Z</time>
      </trkpt>
      <trkpt lat="46.08773" lon="6.355">
        <ele>445</ele>
        <time>2021-03-27T12:27:07Z</time>
      </trkpt>
      <trkpt lat="46.08777" lon="6.35489">
        <ele>444.8</ele>
        <time>2021-03-27T12:27:06Z</time>
      </trkpt>
      <trkpt lat="46.0878" lon="6.35477">
        <ele>445</ele>
        <time>2021-03-27T12:27:05Z</time>
      </trkpt>
      <trkpt lat="46.08784" lon="6.35466">
        <ele>445</ele>
        <time>2021-03-27T12:27:04Z</time>
      </trkpt>
      <trkpt lat="46.08789" lon="6.35457">
        <ele>445</ele>
        <time>2021-03-27T12:27:03Z</time>
      </trkpt>
      <trkpt lat="46.08795" lon="6.35448">
        <ele>445</ele>
        <time>2021-03-27T12:27:02Z</time>
      </trkpt>
      <trkpt lat="46.08801" lon="6.35439">
        <ele>445</ele>
        <time>2021-03-27T12:27:01Z</time>
      </trkpt>
      <trkpt lat="46.08807" lon="6.3543">
        <ele>444.8</ele>
        <time>2021-03-27T12:27:00Z</time>
      </trkpt>
      <trkpt lat="46.08812" lon="6.3542">
        <ele>445</ele>
        <time>2021-03-27T12:26:59Z</time>
      </trkpt>
      <trkpt lat="46.08817" lon="6.3541">
        <ele>445</ele>
        <time>2021-03-27T12:26:58Z</time>
      </trkpt>
      <trkpt lat="46.08823" lon="6.35401">
        <ele>444.8</ele>
        <time>2021-03-27T12:26:57Z</time>
      </trkpt>
      <trkpt lat="46.08829" lon="6.35392">
        <ele>444.8</ele>
        <time>2021-03-27T12:26:56Z</time>
      </trkpt>
      <trkpt lat="46.08834" lon="6.35382">
        <ele>445</ele>
        <time>2021-03-27T12:26:55Z</time>
      </trkpt>
      <trkpt lat="46.0884" lon="6.35373">
        <ele>444.8</ele>
        <time>2021-03-27T12:26:54Z</time>
      </trkpt>
      <trkpt lat="46.08845" lon="6.35364">
        <ele>445</ele>
        <time>2021-03-27T12:26:53Z</time>
      </trkpt>
      <trkpt lat="46.08851" lon="6.35355">
        <ele>444.8</ele>
        <time>2021-03-27T12:26:52Z</time>
      </trkpt>
      <trkpt lat="46.08857" lon="6.35345">
        <ele>445</ele>
        <time>2021-03-27T12:26:51Z</time>
      </trkpt>
      <trkpt lat="46.08862" lon="6.35336">
        <ele>445</ele>
        <time>2021-03-27T12:26:50Z</time>
      </trkpt>
      <trkpt lat="46.08868" lon="6.35327">
        <ele>445</ele>
        <time>2021-03-27T12:26:49Z</time>
      </trkpt>
      <trkpt lat="46.08873" lon="6.35318">
        <ele>444.8</ele>
        <time>2021-03-27T12:26:48Z</time>
      </trkpt>
      <trkpt lat="46.08879" lon="6.35309">
        <ele>445</ele>
        <time>2021-03-27T12:26:47Z</time>
      </trkpt>
      <trkpt lat="46.08884" lon="6.353">
        <ele>445.2</ele>
        <time>2021-03-27T12:26:46Z</time>
      </trkpt>
      <trkpt lat="46.08889" lon="6.35291">
        <ele>445.2</ele>
        <time>2021-03-27T12:26:45Z</time>
      </trkpt>
      <trkpt lat="46.08895" lon="6.35282">
        <ele>444.8</ele>
        <time>2021-03-27T12:26:44Z</time>
      </trkpt>
      <trkpt lat="46.089" lon="6.35273">
        <ele>445</ele>
        <time>2021-03-27T12:26:43Z</time>
      </trkpt>
      <trkpt lat="46.08905" lon="6.35264">
        <ele>445</ele>
        <time>2021-03-27T12:26:42Z</time>
      </trkpt>
      <trkpt lat="46.08911" lon="6.35255">
        <ele>444.8</ele>
        <time>2021-03-27T12:26:41Z</time>
      </trkpt>
      <trkpt lat="46.08916" lon="6.35246">
        <ele>444.8</ele>
        <time>2021-03-27T12:26:40Z</time>
      </trkpt>
      <trkpt lat="46.08921" lon="6.35237">
        <ele>445</ele>
        <time>2021-03-27T12:26:39Z</time>
      </trkpt>
      <trkpt lat="46.08927" lon="6.35228">
        <ele>445</ele>
        <time>2021-03-27T12:26:38Z</time>
      </trkpt>
      <trkpt lat="46.08932" lon="6.35219">
        <ele>445</ele>
        <time>2021-03-27T12:26:37Z</time>
      </trkpt>
      <trkpt lat="46.08937" lon="6.3521">
        <ele>444.8</ele>
        <time>2021-03-27T12:26:36Z</time>
      </trkpt>
      <trkpt lat="46.08942" lon="6.35202">
        <ele>444.8</ele>
        <time>2021-03-27T12:26:35Z</time>
      </trkpt>
      <trkpt lat="46.08948" lon="6.35193">
        <ele>444.8</ele>
        <time>2021-03-27T12:26:34Z</time>
      </trkpt>
      <trkpt lat="46.08953" lon="6.35185">
        <ele>444.8</ele>
        <time>2021-03-27T12:26:33Z</time>
      </trkpt>
      <trkpt lat="46.08958" lon="6.35176">
        <ele>444.8</ele>
        <time>2021-03-27T12:26:32Z</time>
      </trkpt>
      <trkpt lat="46.08963" lon="6.35168">
        <ele>444.6</ele>
        <time>2021-03-27T12:26:31Z</time>
      </trkpt>
      <trkpt lat="46.08968" lon="6.35159">
        <ele>444.6</ele>
        <time>2021-03-27T12:26:30Z</time>
      </trkpt>
      <trkpt lat="46.08973" lon="6.35151">
        <ele>444.6</ele>
        <time>2021-03-27T12:26:29Z</time>
      </trkpt>
      <trkpt lat="46.08979" lon="6.35143">
        <ele>444.6</ele>
        <time>2021-03-27T12:26:28Z</time>
      </trkpt>
      <trkpt lat="46.08984" lon="6.35134">
        <ele>444.6</ele>
        <time>2021-03-27T12:26:27Z</time>
      </trkpt>
      <trkpt lat="46.08989" lon="6.35126">
        <ele>444.4</ele>
        <time>2021-03-27T12:26:26Z</time>
      </trkpt>
      <trkpt lat="46.08994" lon="6.35117">
        <ele>444.4</ele>
        <time>2021-03-27T12:26:25Z</time>
      </trkpt>
      <trkpt lat="46.09" lon="6.35108">
        <ele>444.4</ele>
        <time>2021-03-27T12:26:24Z</time>
      </trkpt>
      <trkpt lat="46.09005" lon="6.35099">
        <ele>444.2</ele>
        <time>2021-03-27T12:26:23Z</time>
      </trkpt>
      <trkpt lat="46.0901" lon="6.35091">
        <ele>444</ele>
        <time>2021-03-27T12:26:22Z</time>
      </trkpt>
      <trkpt lat="46.09016" lon="6.35082">
        <ele>443.8</ele>
        <time>2021-03-27T12:26:21Z</time>
      </trkpt>
      <trkpt lat="46.09021" lon="6.35073">
        <ele>443.8</ele>
        <time>2021-03-27T12:26:20Z</time>
      </trkpt>
      <trkpt lat="46.09026" lon="6.35064">
        <ele>443.6</ele>
        <time>2021-03-27T12:26:19Z</time>
      </trkpt>
      <trkpt lat="46.09031" lon="6.35055">
        <ele>443.8</ele>
        <time>2021-03-27T12:26:18Z</time>
      </trkpt>
      <trkpt lat="46.09036" lon="6.35047">
        <ele>443.6</ele>
        <time>2021-03-27T12:26:17Z</time>
      </trkpt>
      <trkpt lat="46.09041" lon="6.35038">
        <ele>443.6</ele>
        <time>2021-03-27T12:26:16Z</time>
      </trkpt>
      <trkpt lat="46.09046" lon="6.35029">
        <ele>443.2</ele>
        <time>2021-03-27T12:26:15Z</time>
      </trkpt>
      <trkpt lat="46.09052" lon="6.35021">
        <ele>443.4</ele>
        <time>2021-03-27T12:26:14Z</time>
      </trkpt>
      <trkpt lat="46.09057" lon="6.35013">
        <ele>443.2</ele>
        <time>2021-03-27T12:26:13Z</time>
      </trkpt>
      <trkpt lat="46.09062" lon="6.35004">
        <ele>443.2</ele>
        <time>2021-03-27T12:26:12Z</time>
      </trkpt>
      <trkpt lat="46.09067" lon="6.34996">
        <ele>443.2</ele>
        <time>2021-03-27T12:26:11Z</time>
      </trkpt>
      <trkpt lat="46.09072" lon="6.34987">
        <ele>443.2</ele>
        <time>2021-03-27T12:26:10Z</time>
      </trkpt>
      <trkpt lat="46.09077" lon="6.34979">
        <ele>443.2</ele>
        <time>2021-03-27T12:26:09Z</time>
      </trkpt>
      <trkpt lat="46.09082" lon="6.3497">
        <ele>443.2</ele>
        <time>2021-03-27T12:26:08Z</time>
      </trkpt>
      <trkpt lat="46.09087" lon="6.34962">
        <ele>443.2</ele>
        <time>2021-03-27T12:26:07Z</time>
      </trkpt>
      <trkpt lat="46.09092" lon="6.34953">
        <ele>443.2</ele>
        <time>2021-03-27T12:26:06Z</time>
      </trkpt>
      <trkpt lat="46.09097" lon="6.34945">
        <ele>443.2</ele>
        <time>2021-03-27T12:26:05Z</time>
      </trkpt>
      <trkpt lat="46.09102" lon="6.34937">
        <ele>443.2</ele>
        <time>2021-03-27T12:26:04Z</time>
      </trkpt>
      <trkpt lat="46.09108" lon="6.34928">
        <ele>443.2</ele>
        <time>2021-03-27T12:26:03Z</time>
      </trkpt>
      <trkpt lat="46.09113" lon="6.34919">
        <ele>443.4</ele>
        <time>2021-03-27T12:26:02Z</time>
      </trkpt>
      <trkpt lat="46.09118" lon="6.34911">
        <ele>443.4</ele>
        <time>2021-03-27T12:26:01Z</time>
      </trkpt>
      <trkpt lat="46.09123" lon="6.34902">
        <ele>443.2</ele>
        <time>2021-03-27T12:26:00Z</time>
      </trkpt>
      <trkpt lat="46.09128" lon="6.34893">
        <ele>443.4</ele>
        <time>2021-03-27T12:25:59Z</time>
      </trkpt>
      <trkpt lat="46.09133" lon="6.34885">
        <ele>443.2</ele>
        <time>2021-03-27T12:25:58Z</time>
      </trkpt>
      <trkpt lat="46.09139" lon="6.34876">
        <ele>443.4</ele>
        <time>2021-03-27T12:25:57Z</time>
      </trkpt>
      <trkpt lat="46.09144" lon="6.34867">
        <ele>443.4</ele>
        <time>2021-03-27T12:25:56Z</time>
      </trkpt>
      <trkpt lat="46.09149" lon="6.34859">
        <ele>443.2</ele>
        <time>2021-03-27T12:25:55Z</time>
      </trkpt>
      <trkpt lat="46.09154" lon="6.3485">
        <ele>443.4</ele>
        <time>2021-03-27T12:25:54Z</time>
      </trkpt>
      <trkpt lat="46.09159" lon="6.34842">
        <ele>443.4</ele>
        <time>2021-03-27T12:25:53Z</time>
      </trkpt>
      <trkpt lat="46.09165" lon="6.34833">
        <ele>443.4</ele>
        <time>2021-03-27T12:25:52Z</time>
      </trkpt>
      <trkpt lat="46.0917" lon="6.34824">
        <ele>443.2</ele>
        <time>2021-03-27T12:25:51Z</time>
      </trkpt>
      <trkpt lat="46.09175" lon="6.34815">
        <ele>443.2</ele>
        <time>2021-03-27T12:25:50Z</time>
      </trkpt>
      <trkpt lat="46.0918" lon="6.34807">
        <ele>443.2</ele>
        <time>2021-03-27T12:25:49Z</time>
      </trkpt>
      <trkpt lat="46.09186" lon="6.34798">
        <ele>443.2</ele>
        <time>2021-03-27T12:25:48Z</time>
      </trkpt>
      <trkpt lat="46.09191" lon="6.34789">
        <ele>443.2</ele>
        <time>2021-03-27T12:25:47Z</time>
      </trkpt>
      <trkpt lat="46.09196" lon="6.34781">
        <ele>443.2</ele>
        <time>2021-03-27T12:25:46Z</time>
      </trkpt>
      <trkpt lat="46.09201" lon="6.34772">
        <ele>443</ele>
        <time>2021-03-27T12:25:45Z</time>
      </trkpt>
      <trkpt lat="46.09206" lon="6.34763">
        <ele>443</ele>
        <time>2021-03-27T12:25:44Z</time>
      </trkpt>
      <trkpt lat="46.09212" lon="6.34755">
        <ele>443.2</ele>
        <time>2021-03-27T12:25:43Z</time>
      </trkpt>
      <trkpt lat="46.09217" lon="6.34746">
        <ele>443</ele>
        <time>2021-03-27T12:25:42Z</time>
      </trkpt>
      <trkpt lat="46.09222" lon="6.34737">
        <ele>443</ele>
        <time>2021-03-27T12:25:41Z</time>
      </trkpt>
      <trkpt lat="46.09227" lon="6.34729">
        <ele>443</ele>
        <time>2021-03-27T12:25:40Z</time>
      </trkpt>
      <trkpt lat="46.09232" lon="6.3472">
        <ele>443</ele>
        <time>2021-03-27T12:25:39Z</time>
      </trkpt>
      <trkpt lat="46.09237" lon="6.34712">
        <ele>443</ele>
        <time>2021-03-27T12:25:38Z</time>
      </trkpt>
      <trkpt lat="46.09243" lon="6.34703">
        <ele>443</ele>
        <time>2021-03-27T12:25:37Z</time>
      </trkpt>
      <trkpt lat="46.09248" lon="6.34695">
        <ele>443</ele>
        <time>2021-03-27T12:25:36Z</time>
      </trkpt>
      <trkpt lat="46.09253" lon="6.34686">
        <ele>442.8</ele>
        <time>2021-03-27T12:25:35Z</time>
      </trkpt>
      <trkpt lat="46.09258" lon="6.34678">
        <ele>443</ele>
        <time>2021-03-27T12:25:34Z</time>
      </trkpt>
      <trkpt lat="46.09263" lon="6.34669">
        <ele>442.8</ele>
        <time>2021-03-27T12:25:33Z</time>
      </trkpt>
      <trkpt lat="46.09268" lon="6.34661">
        <ele>443</ele>
        <time>2021-03-27T12:25:32Z</time>
      </trkpt>
      <trkpt lat="46.09273" lon="6.34652">
        <ele>442.8</ele>
        <time>2021-03-27T12:25:31Z</time>
      </trkpt>
      <trkpt lat="46.09278" lon="6.34644">
        <ele>442.8</ele>
        <time>2021-03-27T12:25:30Z</time>
      </trkpt>
      <trkpt lat="46.09283" lon="6.34635">
        <ele>443</ele>
        <time>2021-03-27T12:25:29Z</time>
      </trkpt>
      <trkpt lat="46.09289" lon="6.34627">
        <ele>443</ele>
        <time>2021-03-27T12:25:28Z</time>
      </trkpt>
      <trkpt lat="46.09294" lon="6.34618">
        <ele>443</ele>
        <time>2021-03-27T12:25:27Z</time>
      </trkpt>
      <trkpt lat="46.09299" lon="6.3461">
        <ele>443</ele>
        <time>2021-03-27T12:25:26Z</time>
      </trkpt>
      <trkpt lat="46.09304" lon="6.34602">
        <ele>443</ele>
        <time>2021-03-27T12:25:25Z</time>
      </trkpt>
      <trkpt lat="46.09309" lon="6.34593">
        <ele>443</ele>
        <time>2021-03-27T12:25:24Z</time>
      </trkpt>
      <trkpt lat="46.09314" lon="6.34584">
        <ele>443</ele>
        <time>2021-03-27T12:25:23Z</time>
      </trkpt>
      <trkpt lat="46.09319" lon="6.34576">
        <ele>443</ele>
        <time>2021-03-27T12:25:22Z</time>
      </trkpt>
      <trkpt lat="46.09324" lon="6.34567">
        <ele>443.2</ele>
        <time>2021-03-27T12:25:21Z</time>
      </trkpt>
      <trkpt lat="46.0933" lon="6.34559">
        <ele>443</ele>
        <time>2021-03-27T12:25:20Z</time>
      </trkpt>
      <trkpt lat="46.09335" lon="6.3455">
        <ele>443</ele>
        <time>2021-03-27T12:25:19Z</time>
      </trkpt>
      <trkpt lat="46.0934" lon="6.34541">
        <ele>443</ele>
        <time>2021-03-27T12:25:18Z</time>
      </trkpt>
      <trkpt lat="46.09345" lon="6.34533">
        <ele>442.8</ele>
        <time>2021-03-27T12:25:17Z</time>
      </trkpt>
      <trkpt lat="46.0935" lon="6.34524">
        <ele>443</ele>
        <time>2021-03-27T12:25:16Z</time>
      </trkpt>
      <trkpt lat="46.09356" lon="6.34515">
        <ele>443</ele>
        <time>2021-03-27T12:25:15Z</time>
      </trkpt>
      <trkpt lat="46.09361" lon="6.34507">
        <ele>442.8</ele>
        <time>2021-03-27T12:25:14Z</time>
      </trkpt>
      <trkpt lat="46.09366" lon="6.34498">
        <ele>443</ele>
        <time>2021-03-27T12:25:13Z</time>
      </trkpt>
      <trkpt lat="46.09371" lon="6.3449">
        <ele>443</ele>
        <time>2021-03-27T12:25:12Z</time>
      </trkpt>
      <trkpt lat="46.09376" lon="6.34481">
        <ele>442.8</ele>
        <time>2021-03-27T12:25:11Z</time>
      </trkpt>
      <trkpt lat="46.09381" lon="6.34473">
        <ele>442.8</ele>
        <time>2021-03-27T12:25:10Z</time>
      </trkpt>
      <trkpt lat="46.09387" lon="6.34464">
        <ele>442.6</ele>
        <time>2021-03-27T12:25:09Z</time>
      </trkpt>
      <trkpt lat="46.09392" lon="6.34455">
        <ele>442.6</ele>
        <time>2021-03-27T12:25:08Z</time>
      </trkpt>
      <trkpt lat="46.09397" lon="6.34447">
        <ele>442.6</ele>
        <time>2021-03-27T12:25:07Z</time>
      </trkpt>
      <trkpt lat="46.09402" lon="6.34438">
        <ele>442.4</ele>
        <time>2021-03-27T12:25:06Z</time>
      </trkpt>
      <trkpt lat="46.09408" lon="6.34429">
        <ele>442.4</ele>
        <time>2021-03-27T12:25:05Z</time>
      </trkpt>
      <trkpt lat="46.09413" lon="6.34421">
        <ele>442.4</ele>
        <time>2021-03-27T12:25:04Z</time>
      </trkpt>
      <trkpt lat="46.09418" lon="6.34412">
        <ele>442.4</ele>
        <time>2021-03-27T12:25:03Z</time>
      </trkpt>
      <trkpt lat="46.09423" lon="6.34404">
        <ele>442.4</ele>
        <time>2021-03-27T12:25:02Z</time>
      </trkpt>
      <trkpt lat="46.09428" lon="6.34395">
        <ele>442.2</ele>
        <time>2021-03-27T12:25:01Z</time>
      </trkpt>
      <trkpt lat="46.09433" lon="6.34387">
        <ele>442</ele>
        <time>2021-03-27T12:25:00Z</time>
      </trkpt>
      <trkpt lat="46.09438" lon="6.34378">
        <ele>442</ele>
        <time>2021-03-27T12:24:59Z</time>
      </trkpt>
      <trkpt lat="46.09443" lon="6.3437">
        <ele>442</ele>
        <time>2021-03-27T12:24:58Z</time>
      </trkpt>
      <trkpt lat="46.09448" lon="6.34361">
        <ele>442</ele>
        <time>2021-03-27T12:24:57Z</time>
      </trkpt>
      <trkpt lat="46.09453" lon="6.34353">
        <ele>441.8</ele>
        <time>2021-03-27T12:24:56Z</time>
      </trkpt>
      <trkpt lat="46.09457" lon="6.34345">
        <ele>441.8</ele>
        <time>2021-03-27T12:24:55Z</time>
      </trkpt>
      <trkpt lat="46.09462" lon="6.34337">
        <ele>441.6</ele>
        <time>2021-03-27T12:24:54Z</time>
      </trkpt>
      <trkpt lat="46.09467" lon="6.34329">
        <ele>441.4</ele>
        <time>2021-03-27T12:24:53Z</time>
      </trkpt>
      <trkpt lat="46.09472" lon="6.34321">
        <ele>441.2</ele>
        <time>2021-03-27T12:24:52Z</time>
      </trkpt>
      <trkpt lat="46.09478" lon="6.34313">
        <ele>441.4</ele>
        <time>2021-03-27T12:24:51Z</time>
      </trkpt>
      <trkpt lat="46.09483" lon="6.34305">
        <ele>441.2</ele>
        <time>2021-03-27T12:24:50Z</time>
      </trkpt>
      <trkpt lat="46.09488" lon="6.34298">
        <ele>441.2</ele>
        <time>2021-03-27T12:24:49Z</time>
      </trkpt>
      <trkpt lat="46.09493" lon="6.3429">
        <ele>440.8</ele>
        <time>2021-03-27T12:24:48Z</time>
      </trkpt>
      <trkpt lat="46.09498" lon="6.34283">
        <ele>441</ele>
        <time>2021-03-27T12:24:47Z</time>
      </trkpt>
      <trkpt lat="46.09504" lon="6.34276">
        <ele>440.8</ele>
        <time>2021-03-27T12:24:46Z</time>
      </trkpt>
      <trkpt lat="46.09509" lon="6.34269">
        <ele>440.6</ele>
        <time>2021-03-27T12:24:45Z</time>
      </trkpt>
      <trkpt lat="46.09515" lon="6.34262">
        <ele>440.4</ele>
        <time>2021-03-27T12:24:44Z</time>
      </trkpt>
      <trkpt lat="46.09521" lon="6.34256">
        <ele>440.6</ele>
        <time>2021-03-27T12:24:43Z</time>
      </trkpt>
      <trkpt lat="46.09526" lon="6.34249">
        <ele>440.4</ele>
        <time>2021-03-27T12:24:42Z</time>
      </trkpt>
      <trkpt lat="46.09532" lon="6.34242">
        <ele>440.2</ele>
        <time>2021-03-27T12:24:41Z</time>
      </trkpt>
      <trkpt lat="46.09538" lon="6.34236">
        <ele>440</ele>
        <time>2021-03-27T12:24:40Z</time>
      </trkpt>
      <trkpt lat="46.09544" lon="6.34229">
        <ele>440</ele>
        <time>2021-03-27T12:24:39Z</time>
      </trkpt>
      <trkpt lat="46.0955" lon="6.34223">
        <ele>440</ele>
        <time>2021-03-27T12:24:38Z</time>
      </trkpt>
      <trkpt lat="46.09556" lon="6.34217">
        <ele>440</ele>
        <time>2021-03-27T12:24:37Z</time>
      </trkpt>
      <trkpt lat="46.09562" lon="6.34211">
        <ele>440</ele>
        <time>2021-03-27T12:24:36Z</time>
      </trkpt>
      <trkpt lat="46.09569" lon="6.34205">
        <ele>440</ele>
        <time>2021-03-27T12:24:35Z</time>
      </trkpt>
      <trkpt lat="46.09575" lon="6.34199">
        <ele>439.8</ele>
        <time>2021-03-27T12:24:34Z</time>
      </trkpt>
      <trkpt lat="46.09582" lon="6.34193">
        <ele>440</ele>
        <time>2021-03-27T12:24:33Z</time>
      </trkpt>
      <trkpt lat="46.09588" lon="6.34188">
        <ele>440</ele>
        <time>2021-03-27T12:24:32Z</time>
      </trkpt>
      <trkpt lat="46.09595" lon="6.34182">
        <ele>440</ele>
        <time>2021-03-27T12:24:31Z</time>
      </trkpt>
      <trkpt lat="46.09602" lon="6.34177">
        <ele>440</ele>
        <time>2021-03-27T12:24:30Z</time>
      </trkpt>
      <trkpt lat="46.09609" lon="6.34171">
        <ele>440.2</ele>
        <time>2021-03-27T12:24:29Z</time>
      </trkpt>
      <trkpt lat="46.09616" lon="6.34166">
        <ele>440.2</ele>
        <time>2021-03-27T12:24:28Z</time>
      </trkpt>
      <trkpt lat="46.09623" lon="6.3416">
        <ele>440.2</ele>
        <time>2021-03-27T12:24:27Z</time>
      </trkpt>
      <trkpt lat="46.0963" lon="6.34155">
        <ele>440.2</ele>
        <time>2021-03-27T12:24:26Z</time>
      </trkpt>
      <trkpt lat="46.09637" lon="6.34149">
        <ele>440.2</ele>
        <time>2021-03-27T12:24:25Z</time>
      </trkpt>
      <trkpt lat="46.09644" lon="6.34144">
        <ele>440.4</ele>
        <time>2021-03-27T12:24:24Z</time>
      </trkpt>
      <trkpt lat="46.09651" lon="6.34139">
        <ele>440.2</ele>
        <time>2021-03-27T12:24:23Z</time>
      </trkpt>
      <trkpt lat="46.09658" lon="6.34133">
        <ele>440.2</ele>
        <time>2021-03-27T12:24:22Z</time>
      </trkpt>
      <trkpt lat="46.09665" lon="6.34127">
        <ele>440.2</ele>
        <time>2021-03-27T12:24:21Z</time>
      </trkpt>
      <trkpt lat="46.09672" lon="6.34122">
        <ele>440.2</ele>
        <time>2021-03-27T12:24:20Z</time>
      </trkpt>
      <trkpt lat="46.09679" lon="6.34116">
        <ele>440.4</ele>
        <time>2021-03-27T12:24:19Z</time>
      </trkpt>
      <trkpt lat="46.09686" lon="6.34111">
        <ele>440.2</ele>
        <time>2021-03-27T12:24:18Z</time>
      </trkpt>
      <trkpt lat="46.09693" lon="6.34106">
        <ele>440</ele>
        <time>2021-03-27T12:24:17Z</time>
      </trkpt>
      <trkpt lat="46.097" lon="6.34101">
        <ele>440</ele>
        <time>2021-03-27T12:24:16Z</time>
      </trkpt>
      <trkpt lat="46.09707" lon="6.34096">
        <ele>440</ele>
        <time>2021-03-27T12:24:15Z</time>
      </trkpt>
      <trkpt lat="46.09714" lon="6.3409">
        <ele>439.8</ele>
        <time>2021-03-27T12:24:14Z</time>
      </trkpt>
      <trkpt lat="46.09721" lon="6.34085">
        <ele>439.8</ele>
        <time>2021-03-27T12:24:13Z</time>
      </trkpt>
      <trkpt lat="46.09728" lon="6.3408">
        <ele>439.6</ele>
        <time>2021-03-27T12:24:12Z</time>
      </trkpt>
      <trkpt lat="46.09735" lon="6.34075">
        <ele>439.6</ele>
        <time>2021-03-27T12:24:11Z</time>
      </trkpt>
      <trkpt lat="46.09742" lon="6.3407">
        <ele>439.6</ele>
        <time>2021-03-27T12:24:10Z</time>
      </trkpt>
      <trkpt lat="46.09749" lon="6.34065">
        <ele>439.4</ele>
        <time>2021-03-27T12:24:09Z</time>
      </trkpt>
      <trkpt lat="46.09755" lon="6.3406">
        <ele>439.6</ele>
        <time>2021-03-27T12:24:08Z</time>
      </trkpt>
      <trkpt lat="46.09762" lon="6.34055">
        <ele>439.4</ele>
        <time>2021-03-27T12:24:07Z</time>
      </trkpt>
      <trkpt lat="46.09769" lon="6.3405">
        <ele>439.4</ele>
        <time>2021-03-27T12:24:06Z</time>
      </trkpt>
      <trkpt lat="46.09775" lon="6.34045">
        <ele>439.4</ele>
        <time>2021-03-27T12:24:05Z</time>
      </trkpt>
      <trkpt lat="46.09782" lon="6.3404">
        <ele>439.4</ele>
        <time>2021-03-27T12:24:04Z</time>
      </trkpt>
      <trkpt lat="46.09789" lon="6.34035">
        <ele>439.4</ele>
        <time>2021-03-27T12:24:03Z</time>
      </trkpt>
      <trkpt lat="46.09796" lon="6.34029">
        <ele>439.4</ele>
        <time>2021-03-27T12:24:02Z</time>
      </trkpt>
      <trkpt lat="46.09802" lon="6.34024">
        <ele>439.6</ele>
        <time>2021-03-27T12:24:01Z</time>
      </trkpt>
      <trkpt lat="46.09809" lon="6.34019">
        <ele>439.8</ele>
        <time>2021-03-27T12:24:00Z</time>
      </trkpt>
      <trkpt lat="46.09816" lon="6.34014">
        <ele>439.8</ele>
        <time>2021-03-27T12:23:59Z</time>
      </trkpt>
      <trkpt lat="46.09823" lon="6.34009">
        <ele>440</ele>
        <time>2021-03-27T12:23:58Z</time>
      </trkpt>
      <trkpt lat="46.0983" lon="6.34003">
        <ele>440</ele>
        <time>2021-03-27T12:23:57Z</time>
      </trkpt>
      <trkpt lat="46.09837" lon="6.33998">
        <ele>440.2</ele>
        <time>2021-03-27T12:23:56Z</time>
      </trkpt>
      <trkpt lat="46.09845" lon="6.33993">
        <ele>440.4</ele>
        <time>2021-03-27T12:23:55Z</time>
      </trkpt>
      <trkpt lat="46.09852" lon="6.33988">
        <ele>440.8</ele>
        <time>2021-03-27T12:23:54Z</time>
      </trkpt>
      <trkpt lat="46.09859" lon="6.33982">
        <ele>440.8</ele>
        <time>2021-03-27T12:23:53Z</time>
      </trkpt>
      <trkpt lat="46.09866" lon="6.33977">
        <ele>441</ele>
        <time>2021-03-27T12:23:52Z</time>
      </trkpt>
      <trkpt lat="46.09873" lon="6.33971">
        <ele>441</ele>
        <time>2021-03-27T12:23:51Z</time>
      </trkpt>
      <trkpt lat="46.0988" lon="6.33966">
        <ele>441</ele>
        <time>2021-03-27T12:23:50Z</time>
      </trkpt>
      <trkpt lat="46.09887" lon="6.33961">
        <ele>441.2</ele>
        <time>2021-03-27T12:23:49Z</time>
      </trkpt>
      <trkpt lat="46.09894" lon="6.33955">
        <ele>441.2</ele>
        <time>2021-03-27T12:23:48Z</time>
      </trkpt>
      <trkpt lat="46.09901" lon="6.3395">
        <ele>441.2</ele>
        <time>2021-03-27T12:23:47Z</time>
      </trkpt>
      <trkpt lat="46.09908" lon="6.33944">
        <ele>441</ele>
        <time>2021-03-27T12:23:46Z</time>
      </trkpt>
      <trkpt lat="46.09915" lon="6.33939">
        <ele>441.2</ele>
        <time>2021-03-27T12:23:45Z</time>
      </trkpt>
      <trkpt lat="46.09922" lon="6.33934">
        <ele>441</ele>
        <time>2021-03-27T12:23:44Z</time>
      </trkpt>
      <trkpt lat="46.09929" lon="6.33929">
        <ele>441.2</ele>
        <time>2021-03-27T12:23:43Z</time>
      </trkpt>
      <trkpt lat="46.09936" lon="6.33924">
        <ele>441</ele>
        <time>2021-03-27T12:23:42Z</time>
      </trkpt>
      <trkpt lat="46.09943" lon="6.33918">
        <ele>441.2</ele>
        <time>2021-03-27T12:23:41Z</time>
      </trkpt>
      <trkpt lat="46.0995" lon="6.33913">
        <ele>441</ele>
        <time>2021-03-27T12:23:40Z</time>
      </trkpt>
      <trkpt lat="46.09956" lon="6.33908">
        <ele>441.2</ele>
        <time>2021-03-27T12:23:39Z</time>
      </trkpt>
      <trkpt lat="46.09963" lon="6.33903">
        <ele>441.2</ele>
        <time>2021-03-27T12:23:38Z</time>
      </trkpt>
      <trkpt lat="46.0997" lon="6.33898">
        <ele>441.2</ele>
        <time>2021-03-27T12:23:37Z</time>
      </trkpt>
      <trkpt lat="46.09977" lon="6.33893">
        <ele>441.2</ele>
        <time>2021-03-27T12:23:36Z</time>
      </trkpt>
      <trkpt lat="46.09983" lon="6.33888">
        <ele>441.4</ele>
        <time>2021-03-27T12:23:35Z</time>
      </trkpt>
      <trkpt lat="46.0999" lon="6.33883">
        <ele>441.4</ele>
        <time>2021-03-27T12:23:34Z</time>
      </trkpt>
      <trkpt lat="46.09997" lon="6.33878">
        <ele>441.2</ele>
        <time>2021-03-27T12:23:33Z</time>
      </trkpt>
      <trkpt lat="46.10003" lon="6.33873">
        <ele>441.4</ele>
        <time>2021-03-27T12:23:32Z</time>
      </trkpt>
      <trkpt lat="46.1001" lon="6.33869">
        <ele>441.4</ele>
        <time>2021-03-27T12:23:31Z</time>
      </trkpt>
      <trkpt lat="46.10016" lon="6.33864">
        <ele>441.6</ele>
        <time>2021-03-27T12:23:30Z</time>
      </trkpt>
      <trkpt lat="46.10023" lon="6.33859">
        <ele>441.4</ele>
        <time>2021-03-27T12:23:29Z</time>
      </trkpt>
      <trkpt lat="46.10029" lon="6.33855">
        <ele>441.4</ele>
        <time>2021-03-27T12:23:28Z</time>
      </trkpt>
      <trkpt lat="46.10036" lon="6.3385">
        <ele>441.4</ele>
        <time>2021-03-27T12:23:27Z</time>
      </trkpt>
      <trkpt lat="46.10043" lon="6.33846">
        <ele>441.4</ele>
        <time>2021-03-27T12:23:26Z</time>
      </trkpt>
      <trkpt lat="46.1005" lon="6.33841">
        <ele>441.2</ele>
        <time>2021-03-27T12:23:25Z</time>
      </trkpt>
      <trkpt lat="46.10057" lon="6.33837">
        <ele>441.2</ele>
        <time>2021-03-27T12:23:24Z</time>
      </trkpt>
      <trkpt lat="46.10064" lon="6.33833">
        <ele>441</ele>
        <time>2021-03-27T12:23:23Z</time>
      </trkpt>
      <trkpt lat="46.10071" lon="6.33829">
        <ele>440.8</ele>
        <time>2021-03-27T12:23:22Z</time>
      </trkpt>
      <trkpt lat="46.10078" lon="6.33824">
        <ele>440.4</ele>
        <time>2021-03-27T12:23:21Z</time>
      </trkpt>
      <trkpt lat="46.10085" lon="6.3382">
        <ele>440.4</ele>
        <time>2021-03-27T12:23:20Z</time>
      </trkpt>
      <trkpt lat="46.10092" lon="6.33816">
        <ele>440.2</ele>
        <time>2021-03-27T12:23:19Z</time>
      </trkpt>
      <trkpt lat="46.101" lon="6.33812">
        <ele>440.2</ele>
        <time>2021-03-27T12:23:18Z</time>
      </trkpt>
      <trkpt lat="46.10107" lon="6.33808">
        <ele>440.2</ele>
        <time>2021-03-27T12:23:17Z</time>
      </trkpt>
      <trkpt lat="46.10114" lon="6.33804">
        <ele>440.2</ele>
        <time>2021-03-27T12:23:16Z</time>
      </trkpt>
      <trkpt lat="46.10122" lon="6.338">
        <ele>440.2</ele>
        <time>2021-03-27T12:23:15Z</time>
      </trkpt>
      <trkpt lat="46.10129" lon="6.33795">
        <ele>440</ele>
        <time>2021-03-27T12:23:14Z</time>
      </trkpt>
      <trkpt lat="46.10136" lon="6.33791">
        <ele>440</ele>
        <time>2021-03-27T12:23:13Z</time>
      </trkpt>
      <trkpt lat="46.10144" lon="6.33787">
        <ele>440.2</ele>
        <time>2021-03-27T12:23:12Z</time>
      </trkpt>
      <trkpt lat="46.10151" lon="6.33783">
        <ele>440.2</ele>
        <time>2021-03-27T12:23:11Z</time>
      </trkpt>
      <trkpt lat="46.10158" lon="6.33779">
        <ele>440.2</ele>
        <time>2021-03-27T12:23:10Z</time>
      </trkpt>
      <trkpt lat="46.10165" lon="6.33775">
        <ele>440</ele>
        <time>2021-03-27T12:23:09Z</time>
      </trkpt>
      <trkpt lat="46.10172" lon="6.33771">
        <ele>440.2</ele>
        <time>2021-03-27T12:23:08Z</time>
      </trkpt>
      <trkpt lat="46.1018" lon="6.33767">
        <ele>440.2</ele>
        <time>2021-03-27T12:23:07Z</time>
      </trkpt>
      <trkpt lat="46.10187" lon="6.33763">
        <ele>440.2</ele>
        <time>2021-03-27T12:23:06Z</time>
      </trkpt>
      <trkpt lat="46.10195" lon="6.33759">
        <ele>440.2</ele>
        <time>2021-03-27T12:23:05Z</time>
      </trkpt>
      <trkpt lat="46.10202" lon="6.33754">
        <ele>440.4</ele>
        <time>2021-03-27T12:23:04Z</time>
      </trkpt>
      <trkpt lat="46.1021" lon="6.3375">
        <ele>440.6</ele>
        <time>2021-03-27T12:23:03Z</time>
      </trkpt>
      <trkpt lat="46.10218" lon="6.33746">
        <ele>441</ele>
        <time>2021-03-27T12:23:02Z</time>
      </trkpt>
      <trkpt lat="46.10225" lon="6.33741">
        <ele>441.2</ele>
        <time>2021-03-27T12:23:01Z</time>
      </trkpt>
      <trkpt lat="46.10233" lon="6.33737">
        <ele>441.2</ele>
        <time>2021-03-27T12:23:00Z</time>
      </trkpt>
      <trkpt lat="46.10241" lon="6.33732">
        <ele>441.4</ele>
        <time>2021-03-27T12:22:59Z</time>
      </trkpt>
      <trkpt lat="46.1025" lon="6.33727">
        <ele>441.4</ele>
        <time>2021-03-27T12:22:58Z</time>
      </trkpt>
      <trkpt lat="46.10258" lon="6.33722">
        <ele>441.2</ele>
        <time>2021-03-27T12:22:57Z</time>
      </trkpt>
      <trkpt lat="46.10266" lon="6.33716">
        <ele>441.2</ele>
        <time>2021-03-27T12:22:56Z</time>
      </trkpt>
      <trkpt lat="46.10273" lon="6.3371">
        <ele>441.4</ele>
        <time>2021-03-27T12:22:55Z</time>
      </trkpt>
      <trkpt lat="46.10281" lon="6.33704">
        <ele>441.2</ele>
        <time>2021-03-27T12:22:54Z</time>
      </trkpt>
      <trkpt lat="46.10289" lon="6.33698">
        <ele>441.4</ele>
        <time>2021-03-27T12:22:53Z</time>
      </trkpt>
      <trkpt lat="46.10296" lon="6.33691">
        <ele>441.4</ele>
        <time>2021-03-27T12:22:52Z</time>
      </trkpt>
      <trkpt lat="46.10304" lon="6.33683">
        <ele>441.4</ele>
        <time>2021-03-27T12:22:51Z</time>
      </trkpt>
      <trkpt lat="46.10311" lon="6.33676">
        <ele>441.4</ele>
        <time>2021-03-27T12:22:50Z</time>
      </trkpt>
      <trkpt lat="46.10317" lon="6.33668">
        <ele>441.2</ele>
        <time>2021-03-27T12:22:49Z</time>
      </trkpt>
      <trkpt lat="46.10324" lon="6.3366">
        <ele>441.4</ele>
        <time>2021-03-27T12:22:48Z</time>
      </trkpt>
      <trkpt lat="46.1033" lon="6.33652">
        <ele>441.2</ele>
        <time>2021-03-27T12:22:47Z</time>
      </trkpt>
      <trkpt lat="46.10336" lon="6.33644">
        <ele>441.4</ele>
        <time>2021-03-27T12:22:46Z</time>
      </trkpt>
      <trkpt lat="46.10343" lon="6.33636">
        <ele>441.2</ele>
        <time>2021-03-27T12:22:45Z</time>
      </trkpt>
      <trkpt lat="46.10349" lon="6.33628">
        <ele>441.4</ele>
        <time>2021-03-27T12:22:44Z</time>
      </trkpt>
      <trkpt lat="46.10355" lon="6.3362">
        <ele>441.4</ele>
        <time>2021-03-27T12:22:43Z</time>
      </trkpt>
      <trkpt lat="46.10362" lon="6.33613">
        <ele>441.4</ele>
        <time>2021-03-27T12:22:42Z</time>
      </trkpt>
      <trkpt lat="46.10368" lon="6.33605">
        <ele>441.4</ele>
        <time>2021-03-27T12:22:41Z</time>
      </trkpt>
      <trkpt lat="46.10374" lon="6.33597">
        <ele>441.4</ele>
        <time>2021-03-27T12:22:40Z</time>
      </trkpt>
      <trkpt lat="46.1038" lon="6.3359">
        <ele>441.6</ele>
        <time>2021-03-27T12:22:39Z</time>
      </trkpt>
      <trkpt lat="46.10386" lon="6.33582">
        <ele>441.6</ele>
        <time>2021-03-27T12:22:38Z</time>
      </trkpt>
      <trkpt lat="46.10392" lon="6.33574">
        <ele>441.8</ele>
        <time>2021-03-27T12:22:37Z</time>
      </trkpt>
      <trkpt lat="46.10398" lon="6.33565">
        <ele>441.8</ele>
        <time>2021-03-27T12:22:36Z</time>
      </trkpt>
      <trkpt lat="46.10404" lon="6.33556">
        <ele>441.8</ele>
        <time>2021-03-27T12:22:35Z</time>
      </trkpt>
      <trkpt lat="46.1041" lon="6.33548">
        <ele>441.8</ele>
        <time>2021-03-27T12:22:34Z</time>
      </trkpt>
      <trkpt lat="46.10416" lon="6.33539">
        <ele>441.8</ele>
        <time>2021-03-27T12:22:33Z</time>
      </trkpt>
      <trkpt lat="46.10423" lon="6.3353">
        <ele>441.8</ele>
        <time>2021-03-27T12:22:32Z</time>
      </trkpt>
      <trkpt lat="46.10429" lon="6.33522">
        <ele>442</ele>
        <time>2021-03-27T12:22:31Z</time>
      </trkpt>
      <trkpt lat="46.10436" lon="6.33514">
        <ele>442.2</ele>
        <time>2021-03-27T12:22:30Z</time>
      </trkpt>
      <trkpt lat="46.10442" lon="6.33506">
        <ele>442.4</ele>
        <time>2021-03-27T12:22:29Z</time>
      </trkpt>
      <trkpt lat="46.10449" lon="6.33498">
        <ele>442.4</ele>
        <time>2021-03-27T12:22:28Z</time>
      </trkpt>
      <trkpt lat="46.10455" lon="6.3349">
        <ele>442.4</ele>
        <time>2021-03-27T12:22:27Z</time>
      </trkpt>
      <trkpt lat="46.10462" lon="6.33482">
        <ele>442.6</ele>
        <time>2021-03-27T12:22:26Z</time>
      </trkpt>
      <trkpt lat="46.10468" lon="6.33474">
        <ele>442.6</ele>
        <time>2021-03-27T12:22:25Z</time>
      </trkpt>
      <trkpt lat="46.10475" lon="6.33465">
        <ele>443</ele>
        <time>2021-03-27T12:22:24Z</time>
      </trkpt>
      <trkpt lat="46.10481" lon="6.33457">
        <ele>443.4</ele>
        <time>2021-03-27T12:22:23Z</time>
      </trkpt>
      <trkpt lat="46.10487" lon="6.33448">
        <ele>443.4</ele>
        <time>2021-03-27T12:22:22Z</time>
      </trkpt>
      <trkpt lat="46.10493" lon="6.33439">
        <ele>443.6</ele>
        <time>2021-03-27T12:22:21Z</time>
      </trkpt>
      <trkpt lat="46.105" lon="6.3343">
        <ele>443.8</ele>
        <time>2021-03-27T12:22:20Z</time>
      </trkpt>
      <trkpt lat="46.10507" lon="6.33422">
        <ele>444.2</ele>
        <time>2021-03-27T12:22:19Z</time>
      </trkpt>
      <trkpt lat="46.10514" lon="6.33415">
        <ele>445</ele>
        <time>2021-03-27T12:22:18Z</time>
      </trkpt>
      <trkpt lat="46.10522" lon="6.33409">
        <ele>445.4</ele>
        <time>2021-03-27T12:22:17Z</time>
      </trkpt>
      <trkpt lat="46.1053" lon="6.33402">
        <ele>445.6</ele>
        <time>2021-03-27T12:22:16Z</time>
      </trkpt>
      <trkpt lat="46.10537" lon="6.33395">
        <ele>445.4</ele>
        <time>2021-03-27T12:22:15Z</time>
      </trkpt>
      <trkpt lat="46.10544" lon="6.33387">
        <ele>445.6</ele>
        <time>2021-03-27T12:22:14Z</time>
      </trkpt>
      <trkpt lat="46.10551" lon="6.33378">
        <ele>445.6</ele>
        <time>2021-03-27T12:22:13Z</time>
      </trkpt>
      <trkpt lat="46.10558" lon="6.3337">
        <ele>445.4</ele>
        <time>2021-03-27T12:22:12Z</time>
      </trkpt>
      <trkpt lat="46.10564" lon="6.33361">
        <ele>445.6</ele>
        <time>2021-03-27T12:22:11Z</time>
      </trkpt>
      <trkpt lat="46.10571" lon="6.33353">
        <ele>445.6</ele>
        <time>2021-03-27T12:22:10Z</time>
      </trkpt>
      <trkpt lat="46.10577" lon="6.33344">
        <ele>445.6</ele>
        <time>2021-03-27T12:22:09Z</time>
      </trkpt>
      <trkpt lat="46.10584" lon="6.33335">
        <ele>445.6</ele>
        <time>2021-03-27T12:22:08Z</time>
      </trkpt>
      <trkpt lat="46.1059" lon="6.33325">
        <ele>445.2</ele>
        <time>2021-03-27T12:22:07Z</time>
      </trkpt>
      <trkpt lat="46.10596" lon="6.33316">
        <ele>445.2</ele>
        <time>2021-03-27T12:22:06Z</time>
      </trkpt>
      <trkpt lat="46.10602" lon="6.33307">
        <ele>444.8</ele>
        <time>2021-03-27T12:22:05Z</time>
      </trkpt>
      <trkpt lat="46.10608" lon="6.33298">
        <ele>444.6</ele>
        <time>2021-03-27T12:22:04Z</time>
      </trkpt>
      <trkpt lat="46.10613" lon="6.3329">
        <ele>444.4</ele>
        <time>2021-03-27T12:22:03Z</time>
      </trkpt>
      <trkpt lat="46.10619" lon="6.33282">
        <ele>444.2</ele>
        <time>2021-03-27T12:22:02Z</time>
      </trkpt>
      <trkpt lat="46.10624" lon="6.33273">
        <ele>444.2</ele>
        <time>2021-03-27T12:22:01Z</time>
      </trkpt>
      <trkpt lat="46.10629" lon="6.33265">
        <ele>443.8</ele>
        <time>2021-03-27T12:22:00Z</time>
      </trkpt>
      <trkpt lat="46.10633" lon="6.33256">
        <ele>443.6</ele>
        <time>2021-03-27T12:21:59Z</time>
      </trkpt>
      <trkpt lat="46.10638" lon="6.33247">
        <ele>443.8</ele>
        <time>2021-03-27T12:21:58Z</time>
      </trkpt>
      <trkpt lat="46.10642" lon="6.33237">
        <ele>443.8</ele>
        <time>2021-03-27T12:21:57Z</time>
      </trkpt>
      <trkpt lat="46.10646" lon="6.33228">
        <ele>443.8</ele>
        <time>2021-03-27T12:21:56Z</time>
      </trkpt>
      <trkpt lat="46.10651" lon="6.33219">
        <ele>443.8</ele>
        <time>2021-03-27T12:21:55Z</time>
      </trkpt>
      <trkpt lat="46.10655" lon="6.3321">
        <ele>443.8</ele>
        <time>2021-03-27T12:21:54Z</time>
      </trkpt>
      <trkpt lat="46.10658" lon="6.332">
        <ele>443.6</ele>
        <time>2021-03-27T12:21:53Z</time>
      </trkpt>
      <trkpt lat="46.10662" lon="6.3319">
        <ele>443.8</ele>
        <time>2021-03-27T12:21:52Z</time>
      </trkpt>
      <trkpt lat="46.10665" lon="6.3318">
        <ele>443.8</ele>
        <time>2021-03-27T12:21:51Z</time>
      </trkpt>
      <trkpt lat="46.10668" lon="6.3317">
        <ele>443.8</ele>
        <time>2021-03-27T12:21:50Z</time>
      </trkpt>
      <trkpt lat="46.10672" lon="6.3316">
        <ele>443.8</ele>
        <time>2021-03-27T12:21:49Z</time>
      </trkpt>
      <trkpt lat="46.10675" lon="6.33149">
        <ele>443.8</ele>
        <time>2021-03-27T12:21:48Z</time>
      </trkpt>
      <trkpt lat="46.10679" lon="6.33139">
        <ele>444</ele>
        <time>2021-03-27T12:21:47Z</time>
      </trkpt>
      <trkpt lat="46.10682" lon="6.33129">
        <ele>444</ele>
        <time>2021-03-27T12:21:46Z</time>
      </trkpt>
      <trkpt lat="46.10687" lon="6.33118">
        <ele>444</ele>
        <time>2021-03-27T12:21:45Z</time>
      </trkpt>
      <trkpt lat="46.10691" lon="6.33108">
        <ele>444</ele>
        <time>2021-03-27T12:21:44Z</time>
      </trkpt>
      <trkpt lat="46.10695" lon="6.33098">
        <ele>444.2</ele>
        <time>2021-03-27T12:21:43Z</time>
      </trkpt>
      <trkpt lat="46.107" lon="6.33088">
        <ele>444.2</ele>
        <time>2021-03-27T12:21:42Z</time>
      </trkpt>
      <trkpt lat="46.10704" lon="6.33078">
        <ele>444.2</ele>
        <time>2021-03-27T12:21:41Z</time>
      </trkpt>
      <trkpt lat="46.10709" lon="6.33068">
        <ele>444.4</ele>
        <time>2021-03-27T12:21:40Z</time>
      </trkpt>
      <trkpt lat="46.10714" lon="6.33058">
        <ele>444.4</ele>
        <time>2021-03-27T12:21:39Z</time>
      </trkpt>
      <trkpt lat="46.10719" lon="6.33048">
        <ele>444.6</ele>
        <time>2021-03-27T12:21:38Z</time>
      </trkpt>
      <trkpt lat="46.10724" lon="6.33039">
        <ele>444.6</ele>
        <time>2021-03-27T12:21:37Z</time>
      </trkpt>
      <trkpt lat="46.10729" lon="6.3303">
        <ele>444.6</ele>
        <time>2021-03-27T12:21:36Z</time>
      </trkpt>
      <trkpt lat="46.10735" lon="6.33021">
        <ele>444.8</ele>
        <time>2021-03-27T12:21:35Z</time>
      </trkpt>
      <trkpt lat="46.10741" lon="6.33013">
        <ele>444.8</ele>
        <time>2021-03-27T12:21:34Z</time>
      </trkpt>
      <trkpt lat="46.10747" lon="6.33005">
        <ele>445</ele>
        <time>2021-03-27T12:21:33Z</time>
      </trkpt>
      <trkpt lat="46.10753" lon="6.32997">
        <ele>444.8</ele>
        <time>2021-03-27T12:21:32Z</time>
      </trkpt>
      <trkpt lat="46.1076" lon="6.32989">
        <ele>445</ele>
        <time>2021-03-27T12:21:31Z</time>
      </trkpt>
      <trkpt lat="46.10766" lon="6.32982">
        <ele>445</ele>
        <time>2021-03-27T12:21:30Z</time>
      </trkpt>
      <trkpt lat="46.10773" lon="6.32975">
        <ele>445</ele>
        <time>2021-03-27T12:21:29Z</time>
      </trkpt>
      <trkpt lat="46.10779" lon="6.32967">
        <ele>444.8</ele>
        <time>2021-03-27T12:21:28Z</time>
      </trkpt>
      <trkpt lat="46.10786" lon="6.3296">
        <ele>445</ele>
        <time>2021-03-27T12:21:27Z</time>
      </trkpt>
      <trkpt lat="46.10792" lon="6.32952">
        <ele>445</ele>
        <time>2021-03-27T12:21:26Z</time>
      </trkpt>
      <trkpt lat="46.10798" lon="6.32945">
        <ele>444.8</ele>
        <time>2021-03-27T12:21:25Z</time>
      </trkpt>
      <trkpt lat="46.10805" lon="6.32938">
        <ele>444.8</ele>
        <time>2021-03-27T12:21:24Z</time>
      </trkpt>
      <trkpt lat="46.10811" lon="6.32931">
        <ele>444.8</ele>
        <time>2021-03-27T12:21:23Z</time>
      </trkpt>
      <trkpt lat="46.10817" lon="6.32924">
        <ele>444.8</ele>
        <time>2021-03-27T12:21:22Z</time>
      </trkpt>
      <trkpt lat="46.10823" lon="6.32917">
        <ele>444.8</ele>
        <time>2021-03-27T12:21:21Z</time>
      </trkpt>
      <trkpt lat="46.10829" lon="6.3291">
        <ele>444.8</ele>
        <time>2021-03-27T12:21:20Z</time>
      </trkpt>
      <trkpt lat="46.10835" lon="6.32903">
        <ele>444.8</ele>
        <time>2021-03-27T12:21:19Z</time>
      </trkpt>
      <trkpt lat="46.10841" lon="6.32896">
        <ele>444.6</ele>
        <time>2021-03-27T12:21:18Z</time>
      </trkpt>
      <trkpt lat="46.10847" lon="6.32889">
        <ele>444.6</ele>
        <time>2021-03-27T12:21:17Z</time>
      </trkpt>
      <trkpt lat="46.10853" lon="6.32882">
        <ele>444.4</ele>
        <time>2021-03-27T12:21:16Z</time>
      </trkpt>
      <trkpt lat="46.10859" lon="6.32875">
        <ele>444.2</ele>
        <time>2021-03-27T12:21:15Z</time>
      </trkpt>
      <trkpt lat="46.10865" lon="6.32868">
        <ele>444.4</ele>
        <time>2021-03-27T12:21:14Z</time>
      </trkpt>
      <trkpt lat="46.10871" lon="6.32862">
        <ele>444</ele>
        <time>2021-03-27T12:21:13Z</time>
      </trkpt>
      <trkpt lat="46.10877" lon="6.32855">
        <ele>444</ele>
        <time>2021-03-27T12:21:12Z</time>
      </trkpt>
      <trkpt lat="46.10883" lon="6.32848">
        <ele>443.8</ele>
        <time>2021-03-27T12:21:11Z</time>
      </trkpt>
      <trkpt lat="46.10889" lon="6.32841">
        <ele>443.8</ele>
        <time>2021-03-27T12:21:10Z</time>
      </trkpt>
      <trkpt lat="46.10895" lon="6.32835">
        <ele>443.4</ele>
        <time>2021-03-27T12:21:09Z</time>
      </trkpt>
      <trkpt lat="46.10901" lon="6.32828">
        <ele>443.4</ele>
        <time>2021-03-27T12:21:08Z</time>
      </trkpt>
      <trkpt lat="46.10907" lon="6.32821">
        <ele>443.2</ele>
        <time>2021-03-27T12:21:07Z</time>
      </trkpt>
      <trkpt lat="46.10913" lon="6.32814">
        <ele>443</ele>
        <time>2021-03-27T12:21:06Z</time>
      </trkpt>
      <trkpt lat="46.10919" lon="6.32807">
        <ele>442.8</ele>
        <time>2021-03-27T12:21:05Z</time>
      </trkpt>
      <trkpt lat="46.10925" lon="6.328">
        <ele>442.6</ele>
        <time>2021-03-27T12:21:04Z</time>
      </trkpt>
      <trkpt lat="46.10931" lon="6.32794">
        <ele>442.4</ele>
        <time>2021-03-27T12:21:03Z</time>
      </trkpt>
      <trkpt lat="46.10937" lon="6.32787">
        <ele>442.2</ele>
        <time>2021-03-27T12:21:02Z</time>
      </trkpt>
      <trkpt lat="46.10943" lon="6.3278">
        <ele>442.4</ele>
        <time>2021-03-27T12:21:01Z</time>
      </trkpt>
      <trkpt lat="46.10949" lon="6.32773">
        <ele>442.4</ele>
        <time>2021-03-27T12:21:00Z</time>
      </trkpt>
      <trkpt lat="46.10955" lon="6.32766">
        <ele>442.2</ele>
        <time>2021-03-27T12:20:59Z</time>
      </trkpt>
      <trkpt lat="46.10961" lon="6.32758">
        <ele>442.4</ele>
        <time>2021-03-27T12:20:58Z</time>
      </trkpt>
      <trkpt lat="46.10967" lon="6.32751">
        <ele>442.2</ele>
        <time>2021-03-27T12:20:57Z</time>
      </trkpt>
      <trkpt lat="46.10973" lon="6.32743">
        <ele>442.4</ele>
        <time>2021-03-27T12:20:56Z</time>
      </trkpt>
      <trkpt lat="46.10979" lon="6.32735">
        <ele>442.4</ele>
        <time>2021-03-27T12:20:55Z</time>
      </trkpt>
      <trkpt lat="46.10985" lon="6.32727">
        <ele>442.4</ele>
        <time>2021-03-27T12:20:54Z</time>
      </trkpt>
      <trkpt lat="46.10992" lon="6.32719">
        <ele>442.4</ele>
        <time>2021-03-27T12:20:53Z</time>
      </trkpt>
      <trkpt lat="46.10997" lon="6.3271">
        <ele>442.6</ele>
        <time>2021-03-27T12:20:52Z</time>
      </trkpt>
      <trkpt lat="46.11003" lon="6.327">
        <ele>443</ele>
        <time>2021-03-27T12:20:51Z</time>
      </trkpt>
      <trkpt lat="46.11009" lon="6.32691">
        <ele>443</ele>
        <time>2021-03-27T12:20:50Z</time>
      </trkpt>
      <trkpt lat="46.11015" lon="6.32681">
        <ele>443.2</ele>
        <time>2021-03-27T12:20:49Z</time>
      </trkpt>
      <trkpt lat="46.11021" lon="6.32672">
        <ele>443.2</ele>
        <time>2021-03-27T12:20:48Z</time>
      </trkpt>
      <trkpt lat="46.11027" lon="6.32662">
        <ele>443.2</ele>
        <time>2021-03-27T12:20:47Z</time>
      </trkpt>
      <trkpt lat="46.11034" lon="6.32653">
        <ele>443</ele>
        <time>2021-03-27T12:20:46Z</time>
      </trkpt>
      <trkpt lat="46.11041" lon="6.32643">
        <ele>443.2</ele>
        <time>2021-03-27T12:20:45Z</time>
      </trkpt>
      <trkpt lat="46.11048" lon="6.32634">
        <ele>443.4</ele>
        <time>2021-03-27T12:20:44Z</time>
      </trkpt>
      <trkpt lat="46.11055" lon="6.32624">
        <ele>443.4</ele>
        <time>2021-03-27T12:20:43Z</time>
      </trkpt>
      <trkpt lat="46.11062" lon="6.32614">
        <ele>443.4</ele>
        <time>2021-03-27T12:20:42Z</time>
      </trkpt>
      <trkpt lat="46.11069" lon="6.32605">
        <ele>443.4</ele>
        <time>2021-03-27T12:20:41Z</time>
      </trkpt>
      <trkpt lat="46.11076" lon="6.32595">
        <ele>443.4</ele>
        <time>2021-03-27T12:20:40Z</time>
      </trkpt>
      <trkpt lat="46.11083" lon="6.32585">
        <ele>443.4</ele>
        <time>2021-03-27T12:20:39Z</time>
      </trkpt>
      <trkpt lat="46.1109" lon="6.32576">
        <ele>443.4</ele>
        <time>2021-03-27T12:20:38Z</time>
      </trkpt>
      <trkpt lat="46.11098" lon="6.32566">
        <ele>443.4</ele>
        <time>2021-03-27T12:20:37Z</time>
      </trkpt>
      <trkpt lat="46.11105" lon="6.32557">
        <ele>443.2</ele>
        <time>2021-03-27T12:20:36Z</time>
      </trkpt>
      <trkpt lat="46.11112" lon="6.32548">
        <ele>443.2</ele>
        <time>2021-03-27T12:20:35Z</time>
      </trkpt>
      <trkpt lat="46.1112" lon="6.32539">
        <ele>443.4</ele>
        <time>2021-03-27T12:20:34Z</time>
      </trkpt>
      <trkpt lat="46.11127" lon="6.3253">
        <ele>443.6</ele>
        <time>2021-03-27T12:20:33Z</time>
      </trkpt>
      <trkpt lat="46.11134" lon="6.32521">
        <ele>443.8</ele>
        <time>2021-03-27T12:20:32Z</time>
      </trkpt>
      <trkpt lat="46.11141" lon="6.32512">
        <ele>443.8</ele>
        <time>2021-03-27T12:20:31Z</time>
      </trkpt>
      <trkpt lat="46.11148" lon="6.32503">
        <ele>444</ele>
        <time>2021-03-27T12:20:30Z</time>
      </trkpt>
      <trkpt lat="46.11155" lon="6.32493">
        <ele>444.2</ele>
        <time>2021-03-27T12:20:29Z</time>
      </trkpt>
      <trkpt lat="46.11162" lon="6.32484">
        <ele>444.2</ele>
        <time>2021-03-27T12:20:28Z</time>
      </trkpt>
      <trkpt lat="46.11169" lon="6.32475">
        <ele>444.2</ele>
        <time>2021-03-27T12:20:27Z</time>
      </trkpt>
      <trkpt lat="46.11176" lon="6.32466">
        <ele>444.2</ele>
        <time>2021-03-27T12:20:26Z</time>
      </trkpt>
      <trkpt lat="46.11183" lon="6.32457">
        <ele>444.4</ele>
        <time>2021-03-27T12:20:25Z</time>
      </trkpt>
      <trkpt lat="46.1119" lon="6.32448">
        <ele>444.6</ele>
        <time>2021-03-27T12:20:24Z</time>
      </trkpt>
      <trkpt lat="46.11197" lon="6.32439">
        <ele>444.8</ele>
        <time>2021-03-27T12:20:23Z</time>
      </trkpt>
      <trkpt lat="46.11204" lon="6.3243">
        <ele>444.6</ele>
        <time>2021-03-27T12:20:22Z</time>
      </trkpt>
      <trkpt lat="46.11211" lon="6.32421">
        <ele>445</ele>
        <time>2021-03-27T12:20:21Z</time>
      </trkpt>
      <trkpt lat="46.11218" lon="6.32411">
        <ele>445.2</ele>
        <time>2021-03-27T12:20:20Z</time>
      </trkpt>
      <trkpt lat="46.11225" lon="6.32402">
        <ele>445.4</ele>
        <time>2021-03-27T12:20:19Z</time>
      </trkpt>
      <trkpt lat="46.11233" lon="6.32393">
        <ele>446.2</ele>
        <time>2021-03-27T12:20:18Z</time>
      </trkpt>
      <trkpt lat="46.1124" lon="6.32383">
        <ele>447.2</ele>
        <time>2021-03-27T12:20:17Z</time>
      </trkpt>
      <trkpt lat="46.11248" lon="6.32373">
        <ele>448.2</ele>
        <time>2021-03-27T12:20:16Z</time>
      </trkpt>
      <trkpt lat="46.11255" lon="6.32364">
        <ele>448.8</ele>
        <time>2021-03-27T12:20:15Z</time>
      </trkpt>
      <trkpt lat="46.11263" lon="6.32354">
        <ele>449.6</ele>
        <time>2021-03-27T12:20:14Z</time>
      </trkpt>
      <trkpt lat="46.1127" lon="6.32344">
        <ele>449.8</ele>
        <time>2021-03-27T12:20:13Z</time>
      </trkpt>
      <trkpt lat="46.11278" lon="6.32334">
        <ele>450</ele>
        <time>2021-03-27T12:20:12Z</time>
      </trkpt>
      <trkpt lat="46.11286" lon="6.32324">
        <ele>450.2</ele>
        <time>2021-03-27T12:20:11Z</time>
      </trkpt>
      <trkpt lat="46.11293" lon="6.32314">
        <ele>450.6</ele>
        <time>2021-03-27T12:20:10Z</time>
      </trkpt>
      <trkpt lat="46.11301" lon="6.32305">
        <ele>450.8</ele>
        <time>2021-03-27T12:20:09Z</time>
      </trkpt>
      <trkpt lat="46.11308" lon="6.32295">
        <ele>450.8</ele>
        <time>2021-03-27T12:20:08Z</time>
      </trkpt>
      <trkpt lat="46.11316" lon="6.32286">
        <ele>450.8</ele>
        <time>2021-03-27T12:20:07Z</time>
      </trkpt>
      <trkpt lat="46.11323" lon="6.32276">
        <ele>451</ele>
        <time>2021-03-27T12:20:06Z</time>
      </trkpt>
      <trkpt lat="46.1133" lon="6.32267">
        <ele>451</ele>
        <time>2021-03-27T12:20:05Z</time>
      </trkpt>
      <trkpt lat="46.11337" lon="6.32258">
        <ele>451</ele>
        <time>2021-03-27T12:20:04Z</time>
      </trkpt>
      <trkpt lat="46.11343" lon="6.3225">
        <ele>451.4</ele>
        <time>2021-03-27T12:20:03Z</time>
      </trkpt>
      <trkpt lat="46.1135" lon="6.32241">
        <ele>451.4</ele>
        <time>2021-03-27T12:20:02Z</time>
      </trkpt>
      <trkpt lat="46.11356" lon="6.32233">
        <ele>451.4</ele>
        <time>2021-03-27T12:20:01Z</time>
      </trkpt>
      <trkpt lat="46.11363" lon="6.32225">
        <ele>451.4</ele>
        <time>2021-03-27T12:20:00Z</time>
      </trkpt>
      <trkpt lat="46.11369" lon="6.32217">
        <ele>451.8</ele>
        <time>2021-03-27T12:19:59Z</time>
      </trkpt>
      <trkpt lat="46.11375" lon="6.32209">
        <ele>451.6</ele>
        <time>2021-03-27T12:19:58Z</time>
      </trkpt>
      <trkpt lat="46.11381" lon="6.32201">
        <ele>451.8</ele>
        <time>2021-03-27T12:19:57Z</time>
      </trkpt>
      <trkpt lat="46.11387" lon="6.32194">
        <ele>451.6</ele>
        <time>2021-03-27T12:19:56Z</time>
      </trkpt>
      <trkpt lat="46.11392" lon="6.32186">
        <ele>451.8</ele>
        <time>2021-03-27T12:19:55Z</time>
      </trkpt>
      <trkpt lat="46.11398" lon="6.32179">
        <ele>451.6</ele>
        <time>2021-03-27T12:19:54Z</time>
      </trkpt>
      <trkpt lat="46.11403" lon="6.32172">
        <ele>451.6</ele>
        <time>2021-03-27T12:19:53Z</time>
      </trkpt>
      <trkpt lat="46.11409" lon="6.32165">
        <ele>451.6</ele>
        <time>2021-03-27T12:19:52Z</time>
      </trkpt>
      <trkpt lat="46.11414" lon="6.32158">
        <ele>451.8</ele>
        <time>2021-03-27T12:19:51Z</time>
      </trkpt>
      <trkpt lat="46.11419" lon="6.3215">
        <ele>451.8</ele>
        <time>2021-03-27T12:19:50Z</time>
      </trkpt>
      <trkpt lat="46.11424" lon="6.32143">
        <ele>451.8</ele>
        <time>2021-03-27T12:19:49Z</time>
      </trkpt>
      <trkpt lat="46.1143" lon="6.32135">
        <ele>451.8</ele>
        <time>2021-03-27T12:19:48Z</time>
      </trkpt>
      <trkpt lat="46.11436" lon="6.32127">
        <ele>452.2</ele>
        <time>2021-03-27T12:19:47Z</time>
      </trkpt>
      <trkpt lat="46.11442" lon="6.32119">
        <ele>452.2</ele>
        <time>2021-03-27T12:19:46Z</time>
      </trkpt>
      <trkpt lat="46.11448" lon="6.32111">
        <ele>452.4</ele>
        <time>2021-03-27T12:19:45Z</time>
      </trkpt>
      <trkpt lat="46.11454" lon="6.32102">
        <ele>452.6</ele>
        <time>2021-03-27T12:19:44Z</time>
      </trkpt>
      <trkpt lat="46.1146" lon="6.32093">
        <ele>452.8</ele>
        <time>2021-03-27T12:19:43Z</time>
      </trkpt>
      <trkpt lat="46.11466" lon="6.32084">
        <ele>452.8</ele>
        <time>2021-03-27T12:19:42Z</time>
      </trkpt>
      <trkpt lat="46.11472" lon="6.32076">
        <ele>452.8</ele>
        <time>2021-03-27T12:19:41Z</time>
      </trkpt>
      <trkpt lat="46.11479" lon="6.32066">
        <ele>452.8</ele>
        <time>2021-03-27T12:19:40Z</time>
      </trkpt>
      <trkpt lat="46.11485" lon="6.32057">
        <ele>453</ele>
        <time>2021-03-27T12:19:39Z</time>
      </trkpt>
      <trkpt lat="46.11492" lon="6.32047">
        <ele>453</ele>
        <time>2021-03-27T12:19:38Z</time>
      </trkpt>
      <trkpt lat="46.11499" lon="6.32037">
        <ele>452.8</ele>
        <time>2021-03-27T12:19:37Z</time>
      </trkpt>
      <trkpt lat="46.11506" lon="6.32028">
        <ele>452.8</ele>
        <time>2021-03-27T12:19:36Z</time>
      </trkpt>
      <trkpt lat="46.11512" lon="6.32018">
        <ele>452.8</ele>
        <time>2021-03-27T12:19:35Z</time>
      </trkpt>
      <trkpt lat="46.11519" lon="6.32009">
        <ele>452.8</ele>
        <time>2021-03-27T12:19:34Z</time>
      </trkpt>
      <trkpt lat="46.11525" lon="6.32">
        <ele>452.8</ele>
        <time>2021-03-27T12:19:33Z</time>
      </trkpt>
      <trkpt lat="46.11531" lon="6.31991">
        <ele>452.6</ele>
        <time>2021-03-27T12:19:32Z</time>
      </trkpt>
      <trkpt lat="46.11537" lon="6.31982">
        <ele>452.4</ele>
        <time>2021-03-27T12:19:31Z</time>
      </trkpt>
      <trkpt lat="46.11543" lon="6.31974">
        <ele>452.2</ele>
        <time>2021-03-27T12:19:30Z</time>
      </trkpt>
      <trkpt lat="46.11549" lon="6.31966">
        <ele>452</ele>
        <time>2021-03-27T12:19:29Z</time>
      </trkpt>
      <trkpt lat="46.11555" lon="6.31958">
        <ele>452.2</ele>
        <time>2021-03-27T12:19:28Z</time>
      </trkpt>
      <trkpt lat="46.1156" lon="6.3195">
        <ele>452</ele>
        <time>2021-03-27T12:19:27Z</time>
      </trkpt>
      <trkpt lat="46.11565" lon="6.31942">
        <ele>452.2</ele>
        <time>2021-03-27T12:19:26Z</time>
      </trkpt>
      <trkpt lat="46.11571" lon="6.31935">
        <ele>452</ele>
        <time>2021-03-27T12:19:25Z</time>
      </trkpt>
      <trkpt lat="46.11576" lon="6.31928">
        <ele>452</ele>
        <time>2021-03-27T12:19:24Z</time>
      </trkpt>
      <trkpt lat="46.11581" lon="6.3192">
        <ele>452</ele>
        <time>2021-03-27T12:19:23Z</time>
      </trkpt>
      <trkpt lat="46.11587" lon="6.31914">
        <ele>452</ele>
        <time>2021-03-27T12:19:22Z</time>
      </trkpt>
      <trkpt lat="46.11592" lon="6.31907">
        <ele>451.8</ele>
        <time>2021-03-27T12:19:21Z</time>
      </trkpt>
      <trkpt lat="46.11598" lon="6.319">
        <ele>451.8</ele>
        <time>2021-03-27T12:19:20Z</time>
      </trkpt>
      <trkpt lat="46.11604" lon="6.31894">
        <ele>452</ele>
        <time>2021-03-27T12:19:19Z</time>
      </trkpt>
      <trkpt lat="46.1161" lon="6.31887">
        <ele>451.8</ele>
        <time>2021-03-27T12:19:18Z</time>
      </trkpt>
      <trkpt lat="46.11616" lon="6.31881">
        <ele>452</ele>
        <time>2021-03-27T12:19:17Z</time>
      </trkpt>
      <trkpt lat="46.11622" lon="6.31874">
        <ele>451.8</ele>
        <time>2021-03-27T12:19:16Z</time>
      </trkpt>
      <trkpt lat="46.11628" lon="6.31868">
        <ele>452</ele>
        <time>2021-03-27T12:19:15Z</time>
      </trkpt>
      <trkpt lat="46.11635" lon="6.31861">
        <ele>452.2</ele>
        <time>2021-03-27T12:19:14Z</time>
      </trkpt>
      <trkpt lat="46.11642" lon="6.31855">
        <ele>452.2</ele>
        <time>2021-03-27T12:19:13Z</time>
      </trkpt>
      <trkpt lat="46.11648" lon="6.31849">
        <ele>452.2</ele>
        <time>2021-03-27T12:19:12Z</time>
      </trkpt>
      <trkpt lat="46.11656" lon="6.31843">
        <ele>452.4</ele>
        <time>2021-03-27T12:19:11Z</time>
      </trkpt>
      <trkpt lat="46.11663" lon="6.31837">
        <ele>452.4</ele>
        <time>2021-03-27T12:19:10Z</time>
      </trkpt>
      <trkpt lat="46.1167" lon="6.31831">
        <ele>452.6</ele>
        <time>2021-03-27T12:19:09Z</time>
      </trkpt>
      <trkpt lat="46.11678" lon="6.31825">
        <ele>452.6</ele>
        <time>2021-03-27T12:19:08Z</time>
      </trkpt>
      <trkpt lat="46.11686" lon="6.31819">
        <ele>453</ele>
        <time>2021-03-27T12:19:07Z</time>
      </trkpt>
      <trkpt lat="46.11694" lon="6.31813">
        <ele>453.2</ele>
        <time>2021-03-27T12:19:06Z</time>
      </trkpt>
      <trkpt lat="46.11702" lon="6.31807">
        <ele>453.4</ele>
        <time>2021-03-27T12:19:05Z</time>
      </trkpt>
      <trkpt lat="46.11711" lon="6.31801">
        <ele>453.4</ele>
        <time>2021-03-27T12:19:04Z</time>
      </trkpt>
      <trkpt lat="46.1172" lon="6.31794">
        <ele>453.6</ele>
        <time>2021-03-27T12:19:03Z</time>
      </trkpt>
      <trkpt lat="46.11729" lon="6.31788">
        <ele>453.6</ele>
        <time>2021-03-27T12:19:02Z</time>
      </trkpt>
      <trkpt lat="46.11737" lon="6.31781">
        <ele>454</ele>
        <time>2021-03-27T12:19:01Z</time>
      </trkpt>
      <trkpt lat="46.11746" lon="6.31774">
        <ele>454.2</ele>
        <time>2021-03-27T12:19:00Z</time>
      </trkpt>
      <trkpt lat="46.11755" lon="6.31768">
        <ele>454.2</ele>
        <time>2021-03-27T12:18:59Z</time>
      </trkpt>
      <trkpt lat="46.11763" lon="6.31761">
        <ele>454.8</ele>
        <time>2021-03-27T12:18:58Z</time>
      </trkpt>
      <trkpt lat="46.11771" lon="6.31754">
        <ele>455.4</ele>
        <time>2021-03-27T12:18:57Z</time>
      </trkpt>
      <trkpt lat="46.1178" lon="6.31746">
        <ele>456</ele>
        <time>2021-03-27T12:18:56Z</time>
      </trkpt>
      <trkpt lat="46.11788" lon="6.31739">
        <ele>456.8</ele>
        <time>2021-03-27T12:18:55Z</time>
      </trkpt>
      <trkpt lat="46.11796" lon="6.31732">
        <ele>457</ele>
        <time>2021-03-27T12:18:54Z</time>
      </trkpt>
      <trkpt lat="46.11804" lon="6.31724">
        <ele>457.8</ele>
        <time>2021-03-27T12:18:53Z</time>
      </trkpt>
      <trkpt lat="46.11811" lon="6.31717">
        <ele>458.8</ele>
        <time>2021-03-27T12:18:52Z</time>
      </trkpt>
      <trkpt lat="46.11819" lon="6.3171">
        <ele>459.4</ele>
        <time>2021-03-27T12:18:51Z</time>
      </trkpt>
      <trkpt lat="46.11827" lon="6.31703">
        <ele>459.8</ele>
        <time>2021-03-27T12:18:50Z</time>
      </trkpt>
      <trkpt lat="46.11834" lon="6.31696">
        <ele>460.2</ele>
        <time>2021-03-27T12:18:49Z</time>
      </trkpt>
      <trkpt lat="46.1185" lon="6.31682">
        <ele>460.4</ele>
        <time>2021-03-27T12:18:47Z</time>
      </trkpt>
      <trkpt lat="46.11857" lon="6.31675">
        <ele>460.6</ele>
        <time>2021-03-27T12:18:46Z</time>
      </trkpt>
      <trkpt lat="46.11865" lon="6.31668">
        <ele>461</ele>
        <time>2021-03-27T12:18:45Z</time>
      </trkpt>
      <trkpt lat="46.11872" lon="6.31661">
        <ele>461</ele>
        <time>2021-03-27T12:18:44Z</time>
      </trkpt>
      <trkpt lat="46.11879" lon="6.31654">
        <ele>461</ele>
        <time>2021-03-27T12:18:43Z</time>
      </trkpt>
      <trkpt lat="46.11886" lon="6.31647">
        <ele>461.2</ele>
        <time>2021-03-27T12:18:42Z</time>
      </trkpt>
      <trkpt lat="46.11892" lon="6.3164">
        <ele>461.2</ele>
        <time>2021-03-27T12:18:41Z</time>
      </trkpt>
      <trkpt lat="46.11899" lon="6.31633">
        <ele>461.4</ele>
        <time>2021-03-27T12:18:40Z</time>
      </trkpt>
      <trkpt lat="46.11905" lon="6.31626">
        <ele>461.4</ele>
        <time>2021-03-27T12:18:39Z</time>
      </trkpt>
      <trkpt lat="46.11911" lon="6.31619">
        <ele>461.6</ele>
        <time>2021-03-27T12:18:38Z</time>
      </trkpt>
      <trkpt lat="46.11917" lon="6.31612">
        <ele>461.8</ele>
        <time>2021-03-27T12:18:37Z</time>
      </trkpt>
      <trkpt lat="46.11924" lon="6.31605">
        <ele>461.8</ele>
        <time>2021-03-27T12:18:36Z</time>
      </trkpt>
      <trkpt lat="46.1193" lon="6.31598">
        <ele>461.6</ele>
        <time>2021-03-27T12:18:35Z</time>
      </trkpt>
      <trkpt lat="46.11936" lon="6.31591">
        <ele>461.8</ele>
        <time>2021-03-27T12:18:34Z</time>
      </trkpt>
      <trkpt lat="46.11941" lon="6.31584">
        <ele>461.8</ele>
        <time>2021-03-27T12:18:33Z</time>
      </trkpt>
      <trkpt lat="46.11947" lon="6.31577">
        <ele>462</ele>
        <time>2021-03-27T12:18:32Z</time>
      </trkpt>
      <trkpt lat="46.11953" lon="6.3157">
        <ele>462</ele>
        <time>2021-03-27T12:18:31Z</time>
      </trkpt>
      <trkpt lat="46.11959" lon="6.31564">
        <ele>462.4</ele>
        <time>2021-03-27T12:18:30Z</time>
      </trkpt>
      <trkpt lat="46.11964" lon="6.31557">
        <ele>462.8</ele>
        <time>2021-03-27T12:18:29Z</time>
      </trkpt>
      <trkpt lat="46.1197" lon="6.3155">
        <ele>462.8</ele>
        <time>2021-03-27T12:18:28Z</time>
      </trkpt>
      <trkpt lat="46.11976" lon="6.31544">
        <ele>462.8</ele>
        <time>2021-03-27T12:18:27Z</time>
      </trkpt>
      <trkpt lat="46.11982" lon="6.31537">
        <ele>463</ele>
        <time>2021-03-27T12:18:26Z</time>
      </trkpt>
      <trkpt lat="46.11988" lon="6.31531">
        <ele>463</ele>
        <time>2021-03-27T12:18:25Z</time>
      </trkpt>
      <trkpt lat="46.11993" lon="6.31524">
        <ele>463</ele>
        <time>2021-03-27T12:18:24Z</time>
      </trkpt>
      <trkpt lat="46.11999" lon="6.31517">
        <ele>463.2</ele>
        <time>2021-03-27T12:18:23Z</time>
      </trkpt>
      <trkpt lat="46.12005" lon="6.3151">
        <ele>463.2</ele>
        <time>2021-03-27T12:18:22Z</time>
      </trkpt>
      <trkpt lat="46.12011" lon="6.31504">
        <ele>463.2</ele>
        <time>2021-03-27T12:18:21Z</time>
      </trkpt>
      <trkpt lat="46.12017" lon="6.31498">
        <ele>463.4</ele>
        <time>2021-03-27T12:18:20Z</time>
      </trkpt>
      <trkpt lat="46.12022" lon="6.31491">
        <ele>463.4</ele>
        <time>2021-03-27T12:18:19Z</time>
      </trkpt>
      <trkpt lat="46.12028" lon="6.31485">
        <ele>463.4</ele>
        <time>2021-03-27T12:18:18Z</time>
      </trkpt>
      <trkpt lat="46.12033" lon="6.31479">
        <ele>463.4</ele>
        <time>2021-03-27T12:18:17Z</time>
      </trkpt>
      <trkpt lat="46.12038" lon="6.31473">
        <ele>463.4</ele>
        <time>2021-03-27T12:18:16Z</time>
      </trkpt>
      <trkpt lat="46.12043" lon="6.31467">
        <ele>463.4</ele>
        <time>2021-03-27T12:18:15Z</time>
      </trkpt>
      <trkpt lat="46.12048" lon="6.31461">
        <ele>463.4</ele>
        <time>2021-03-27T12:18:14Z</time>
      </trkpt>
      <trkpt lat="46.12052" lon="6.31456">
        <ele>463.6</ele>
        <time>2021-03-27T12:18:13Z</time>
      </trkpt>
      <trkpt lat="46.12056" lon="6.31451">
        <ele>463.6</ele>
        <time>2021-03-27T12:18:12Z</time>
      </trkpt>
      <trkpt lat="46.12061" lon="6.31447">
        <ele>463.8</ele>
        <time>2021-03-27T12:18:11Z</time>
      </trkpt>
      <trkpt lat="46.12065" lon="6.31444">
        <ele>463.8</ele>
        <time>2021-03-27T12:18:10Z</time>
      </trkpt>
      <trkpt lat="46.12071" lon="6.3144">
        <ele>463.8</ele>
        <time>2021-03-27T12:18:09Z</time>
      </trkpt>
      <trkpt lat="46.12076" lon="6.31437">
        <ele>463.8</ele>
        <time>2021-03-27T12:18:08Z</time>
      </trkpt>
      <trkpt lat="46.12082" lon="6.31434">
        <ele>463.8</ele>
        <time>2021-03-27T12:18:07Z</time>
      </trkpt>
      <trkpt lat="46.12088" lon="6.31431">
        <ele>463.8</ele>
        <time>2021-03-27T12:18:06Z</time>
      </trkpt>
      <trkpt lat="46.12095" lon="6.31429">
        <ele>463.8</ele>
        <time>2021-03-27T12:18:05Z</time>
      </trkpt>
      <trkpt lat="46.12101" lon="6.31427">
        <ele>463.8</ele>
        <time>2021-03-27T12:18:04Z</time>
      </trkpt>
      <trkpt lat="46.12108" lon="6.31424">
        <ele>463.8</ele>
        <time>2021-03-27T12:18:03Z</time>
      </trkpt>
      <trkpt lat="46.12114" lon="6.31422">
        <ele>463.8</ele>
        <time>2021-03-27T12:18:02Z</time>
      </trkpt>
      <trkpt lat="46.1212" lon="6.3142">
        <ele>463.6</ele>
        <time>2021-03-27T12:18:01Z</time>
      </trkpt>
      <trkpt lat="46.12126" lon="6.31416">
        <ele>463.6</ele>
        <time>2021-03-27T12:18:00Z</time>
      </trkpt>
      <trkpt lat="46.1213" lon="6.3141">
        <ele>463.4</ele>
        <time>2021-03-27T12:17:59Z</time>
      </trkpt>
      <trkpt lat="46.12133" lon="6.31402">
        <ele>463.2</ele>
        <time>2021-03-27T12:17:58Z</time>
      </trkpt>
      <trkpt lat="46.12133" lon="6.31392">
        <ele>463.2</ele>
        <time>2021-03-27T12:17:57Z</time>
      </trkpt>
      <trkpt lat="46.12133" lon="6.31383">
        <ele>463.4</ele>
        <time>2021-03-27T12:17:56Z</time>
      </trkpt>
      <trkpt lat="46.12134" lon="6.31374">
        <ele>463.4</ele>
        <time>2021-03-27T12:17:55Z</time>
      </trkpt>
      <trkpt lat="46.12136" lon="6.31367">
        <ele>463.2</ele>
        <time>2021-03-27T12:17:54Z</time>
      </trkpt>
      <trkpt lat="46.1214" lon="6.31361">
        <ele>463.4</ele>
        <time>2021-03-27T12:17:53Z</time>
      </trkpt>
      <trkpt lat="46.12146" lon="6.3136">
        <ele>463.2</ele>
        <time>2021-03-27T12:17:52Z</time>
      </trkpt>
      <trkpt lat="46.12152" lon="6.31361">
        <ele>463.4</ele>
        <time>2021-03-27T12:17:51Z</time>
      </trkpt>
      <trkpt lat="46.12157" lon="6.31365">
        <ele>463.4</ele>
        <time>2021-03-27T12:17:50Z</time>
      </trkpt>
      <trkpt lat="46.12163" lon="6.31368">
        <ele>463.4</ele>
        <time>2021-03-27T12:17:49Z</time>
      </trkpt>
      <trkpt lat="46.12169" lon="6.3137">
        <ele>463.2</ele>
        <time>2021-03-27T12:17:48Z</time>
      </trkpt>
      <trkpt lat="46.12176" lon="6.31371">
        <ele>463.2</ele>
        <time>2021-03-27T12:17:47Z</time>
      </trkpt>
      <trkpt lat="46.12182" lon="6.31372">
        <ele>463.2</ele>
        <time>2021-03-27T12:17:46Z</time>
      </trkpt>
      <trkpt lat="46.12195" lon="6.31372">
        <ele>463.2</ele>
        <time>2021-03-27T12:17:44Z</time>
      </trkpt>
      <trkpt lat="46.12201" lon="6.31371">
        <ele>463.2</ele>
        <time>2021-03-27T12:17:43Z</time>
      </trkpt>
      <trkpt lat="46.12207" lon="6.31371">
        <ele>463.2</ele>
        <time>2021-03-27T12:17:42Z</time>
      </trkpt>
      <trkpt lat="46.12214" lon="6.3137">
        <ele>463.2</ele>
        <time>2021-03-27T12:17:41Z</time>
      </trkpt>
      <trkpt lat="46.1222" lon="6.3137">
        <ele>463.2</ele>
        <time>2021-03-27T12:17:40Z</time>
      </trkpt>
      <trkpt lat="46.12226" lon="6.3137">
        <ele>463</ele>
        <time>2021-03-27T12:17:39Z</time>
      </trkpt>
      <trkpt lat="46.12232" lon="6.3137">
        <ele>463</ele>
        <time>2021-03-27T12:17:38Z</time>
      </trkpt>
      <trkpt lat="46.12239" lon="6.3137">
        <ele>463</ele>
        <time>2021-03-27T12:17:37Z</time>
      </trkpt>
      <trkpt lat="46.12251" lon="6.31371">
        <ele>463</ele>
        <time>2021-03-27T12:17:35Z</time>
      </trkpt>
      <trkpt lat="46.12257" lon="6.31371">
        <ele>462.8</ele>
        <time>2021-03-27T12:17:34Z</time>
      </trkpt>
      <trkpt lat="46.12263" lon="6.31371">
        <ele>462.6</ele>
        <time>2021-03-27T12:17:33Z</time>
      </trkpt>
      <trkpt lat="46.12274" lon="6.31371">
        <ele>462.6</ele>
        <time>2021-03-27T12:17:31Z</time>
      </trkpt>
      <trkpt lat="46.1228" lon="6.31371">
        <ele>462.6</ele>
        <time>2021-03-27T12:17:30Z</time>
      </trkpt>
      <trkpt lat="46.12286" lon="6.31371">
        <ele>462.4</ele>
        <time>2021-03-27T12:17:29Z</time>
      </trkpt>
      <trkpt lat="46.12292" lon="6.31371">
        <ele>462.2</ele>
        <time>2021-03-27T12:17:28Z</time>
      </trkpt>
      <trkpt lat="46.12298" lon="6.31371">
        <ele>462.2</ele>
        <time>2021-03-27T12:17:27Z</time>
      </trkpt>
      <trkpt lat="46.12304" lon="6.31371">
        <ele>462.2</ele>
        <time>2021-03-27T12:17:26Z</time>
      </trkpt>
      <trkpt lat="46.1231" lon="6.31372">
        <ele>462</ele>
        <time>2021-03-27T12:17:25Z</time>
      </trkpt>
      <trkpt lat="46.12316" lon="6.31372">
        <ele>462</ele>
        <time>2021-03-27T12:17:24Z</time>
      </trkpt>
      <trkpt lat="46.12327" lon="6.31372">
        <ele>462</ele>
        <time>2021-03-27T12:17:22Z</time>
      </trkpt>
      <trkpt lat="46.12339" lon="6.31372">
        <ele>462</ele>
        <time>2021-03-27T12:17:20Z</time>
      </trkpt>
      <trkpt lat="46.12345" lon="6.31372">
        <ele>461.8</ele>
        <time>2021-03-27T12:17:19Z</time>
      </trkpt>
      <trkpt lat="46.12351" lon="6.31372">
        <ele>461.8</ele>
        <time>2021-03-27T12:17:18Z</time>
      </trkpt>
      <trkpt lat="46.12357" lon="6.31372">
        <ele>461.8</ele>
        <time>2021-03-27T12:17:17Z</time>
      </trkpt>
      <trkpt lat="46.12363" lon="6.31372">
        <ele>461.8</ele>
        <time>2021-03-27T12:17:16Z</time>
      </trkpt>
      <trkpt lat="46.12369" lon="6.31372">
        <ele>461.4</ele>
        <time>2021-03-27T12:17:15Z</time>
      </trkpt>
      <trkpt lat="46.12374" lon="6.31372">
        <ele>461.2</ele>
        <time>2021-03-27T12:17:14Z</time>
      </trkpt>
      <trkpt lat="46.1238" lon="6.31373">
        <ele>461</ele>
        <time>2021-03-27T12:17:13Z</time>
      </trkpt>
      <trkpt lat="46.12386" lon="6.31373">
        <ele>460.8</ele>
        <time>2021-03-27T12:17:12Z</time>
      </trkpt>
      <trkpt lat="46.12392" lon="6.31373">
        <ele>460.6</ele>
        <time>2021-03-27T12:17:11Z</time>
      </trkpt>
      <trkpt lat="46.12398" lon="6.31373">
        <ele>460.4</ele>
        <time>2021-03-27T12:17:10Z</time>
      </trkpt>
      <trkpt lat="46.12403" lon="6.31373">
        <ele>460</ele>
        <time>2021-03-27T12:17:09Z</time>
      </trkpt>
      <trkpt lat="46.12409" lon="6.31373">
        <ele>459.8</ele>
        <time>2021-03-27T12:17:08Z</time>
      </trkpt>
      <trkpt lat="46.12415" lon="6.31373">
        <ele>459.8</ele>
        <time>2021-03-27T12:17:07Z</time>
      </trkpt>
      <trkpt lat="46.1242" lon="6.31373">
        <ele>459.8</ele>
        <time>2021-03-27T12:17:06Z</time>
      </trkpt>
      <trkpt lat="46.12426" lon="6.31373">
        <ele>459.4</ele>
        <time>2021-03-27T12:17:05Z</time>
      </trkpt>
      <trkpt lat="46.12431" lon="6.31373">
        <ele>459.4</ele>
        <time>2021-03-27T12:17:04Z</time>
      </trkpt>
      <trkpt lat="46.12437" lon="6.31373">
        <ele>459.2</ele>
        <time>2021-03-27T12:17:03Z</time>
      </trkpt>
      <trkpt lat="46.12442" lon="6.31373">
        <ele>459.2</ele>
        <time>2021-03-27T12:17:02Z</time>
      </trkpt>
      <trkpt lat="46.12448" lon="6.31373">
        <ele>459</ele>
        <time>2021-03-27T12:17:01Z</time>
      </trkpt>
      <trkpt lat="46.12453" lon="6.31373">
        <ele>458.8</ele>
        <time>2021-03-27T12:17:00Z</time>
      </trkpt>
      <trkpt lat="46.12459" lon="6.31373">
        <ele>458.6</ele>
        <time>2021-03-27T12:16:59Z</time>
      </trkpt>
      <trkpt lat="46.12464" lon="6.31373">
        <ele>458.4</ele>
        <time>2021-03-27T12:16:58Z</time>
      </trkpt>
      <trkpt lat="46.1247" lon="6.31372">
        <ele>458.4</ele>
        <time>2021-03-27T12:16:57Z</time>
      </trkpt>
      <trkpt lat="46.12475" lon="6.31372">
        <ele>458.2</ele>
        <time>2021-03-27T12:16:56Z</time>
      </trkpt>
      <trkpt lat="46.12481" lon="6.31372">
        <ele>457.8</ele>
        <time>2021-03-27T12:16:55Z</time>
      </trkpt>
      <trkpt lat="46.12486" lon="6.31371">
        <ele>457.8</ele>
        <time>2021-03-27T12:16:54Z</time>
      </trkpt>
      <trkpt lat="46.12492" lon="6.31371">
        <ele>457.4</ele>
        <time>2021-03-27T12:16:53Z</time>
      </trkpt>
      <trkpt lat="46.12497" lon="6.3137">
        <ele>457.4</ele>
        <time>2021-03-27T12:16:52Z</time>
      </trkpt>
      <trkpt lat="46.12503" lon="6.31369">
        <ele>457.2</ele>
        <time>2021-03-27T12:16:51Z</time>
      </trkpt>
      <trkpt lat="46.12508" lon="6.31369">
        <ele>457</ele>
        <time>2021-03-27T12:16:50Z</time>
      </trkpt>
      <trkpt lat="46.12513" lon="6.31368">
        <ele>456.8</ele>
        <time>2021-03-27T12:16:49Z</time>
      </trkpt>
      <trkpt lat="46.12518" lon="6.31367">
        <ele>456.6</ele>
        <time>2021-03-27T12:16:48Z</time>
      </trkpt>
      <trkpt lat="46.12523" lon="6.31366">
        <ele>456.4</ele>
        <time>2021-03-27T12:16:47Z</time>
      </trkpt>
      <trkpt lat="46.12528" lon="6.31366">
        <ele>456.2</ele>
        <time>2021-03-27T12:16:46Z</time>
      </trkpt>
      <trkpt lat="46.12534" lon="6.31365">
        <ele>456</ele>
        <time>2021-03-27T12:16:45Z</time>
      </trkpt>
      <trkpt lat="46.12539" lon="6.31364">
        <ele>455.6</ele>
        <time>2021-03-27T12:16:44Z</time>
      </trkpt>
      <trkpt lat="46.12544" lon="6.31363">
        <ele>455.4</ele>
        <time>2021-03-27T12:16:43Z</time>
      </trkpt>
      <trkpt lat="46.1255" lon="6.31362">
        <ele>455</ele>
        <time>2021-03-27T12:16:42Z</time>
      </trkpt>
      <trkpt lat="46.12555" lon="6.31361">
        <ele>454.6</ele>
        <time>2021-03-27T12:16:41Z</time>
      </trkpt>
      <trkpt lat="46.1256" lon="6.31361">
        <ele>454.2</ele>
        <time>2021-03-27T12:16:40Z</time>
      </trkpt>
      <trkpt lat="46.12565" lon="6.3136">
        <ele>454.2</ele>
        <time>2021-03-27T12:16:39Z</time>
      </trkpt>
      <trkpt lat="46.12571" lon="6.31359">
        <ele>454</ele>
        <time>2021-03-27T12:16:38Z</time>
      </trkpt>
      <trkpt lat="46.12576" lon="6.31358">
        <ele>453.8</ele>
        <time>2021-03-27T12:16:37Z</time>
      </trkpt>
      <trkpt lat="46.12581" lon="6.31357">
        <ele>453.6</ele>
        <time>2021-03-27T12:16:36Z</time>
      </trkpt>
      <trkpt lat="46.12587" lon="6.31356">
        <ele>453.4</ele>
        <time>2021-03-27T12:16:35Z</time>
      </trkpt>
      <trkpt lat="46.12592" lon="6.31355">
        <ele>453.2</ele>
        <time>2021-03-27T12:16:34Z</time>
      </trkpt>
      <trkpt lat="46.12597" lon="6.31354">
        <ele>452.8</ele>
        <time>2021-03-27T12:16:33Z</time>
      </trkpt>
      <trkpt lat="46.12603" lon="6.31354">
        <ele>452.4</ele>
        <time>2021-03-27T12:16:32Z</time>
      </trkpt>
      <trkpt lat="46.12608" lon="6.31353">
        <ele>452.2</ele>
        <time>2021-03-27T12:16:31Z</time>
      </trkpt>
      <trkpt lat="46.12614" lon="6.31352">
        <ele>451.8</ele>
        <time>2021-03-27T12:16:30Z</time>
      </trkpt>
      <trkpt lat="46.12619" lon="6.31351">
        <ele>451.6</ele>
        <time>2021-03-27T12:16:29Z</time>
      </trkpt>
      <trkpt lat="46.12625" lon="6.3135">
        <ele>451.4</ele>
        <time>2021-03-27T12:16:28Z</time>
      </trkpt>
      <trkpt lat="46.1263" lon="6.31349">
        <ele>451</ele>
        <time>2021-03-27T12:16:27Z</time>
      </trkpt>
      <trkpt lat="46.12636" lon="6.31349">
        <ele>450.4</ele>
        <time>2021-03-27T12:16:26Z</time>
      </trkpt>
      <trkpt lat="46.12641" lon="6.31348">
        <ele>450.4</ele>
        <time>2021-03-27T12:16:25Z</time>
      </trkpt>
      <trkpt lat="46.12647" lon="6.31347">
        <ele>450.2</ele>
        <time>2021-03-27T12:16:24Z</time>
      </trkpt>
      <trkpt lat="46.12652" lon="6.31346">
        <ele>450.2</ele>
        <time>2021-03-27T12:16:23Z</time>
      </trkpt>
      <trkpt lat="46.12658" lon="6.31345">
        <ele>450.2</ele>
        <time>2021-03-27T12:16:22Z</time>
      </trkpt>
      <trkpt lat="46.12663" lon="6.31344">
        <ele>450</ele>
        <time>2021-03-27T12:16:21Z</time>
      </trkpt>
      <trkpt lat="46.12669" lon="6.31343">
        <ele>450</ele>
        <time>2021-03-27T12:16:20Z</time>
      </trkpt>
      <trkpt lat="46.12675" lon="6.31342">
        <ele>449.8</ele>
        <time>2021-03-27T12:16:19Z</time>
      </trkpt>
      <trkpt lat="46.1268" lon="6.31341">
        <ele>449.6</ele>
        <time>2021-03-27T12:16:18Z</time>
      </trkpt>
      <trkpt lat="46.12686" lon="6.3134">
        <ele>449.4</ele>
        <time>2021-03-27T12:16:17Z</time>
      </trkpt>
      <trkpt lat="46.12692" lon="6.31339">
        <ele>449.4</ele>
        <time>2021-03-27T12:16:16Z</time>
      </trkpt>
      <trkpt lat="46.12698" lon="6.31338">
        <ele>449.4</ele>
        <time>2021-03-27T12:16:15Z</time>
      </trkpt>
      <trkpt lat="46.12704" lon="6.31337">
        <ele>449.2</ele>
        <time>2021-03-27T12:16:14Z</time>
      </trkpt>
      <trkpt lat="46.1271" lon="6.31336">
        <ele>449.2</ele>
        <time>2021-03-27T12:16:13Z</time>
      </trkpt>
      <trkpt lat="46.12716" lon="6.31336">
        <ele>449</ele>
        <time>2021-03-27T12:16:12Z</time>
      </trkpt>
      <trkpt lat="46.12723" lon="6.31335">
        <ele>449</ele>
        <time>2021-03-27T12:16:11Z</time>
      </trkpt>
      <trkpt lat="46.12729" lon="6.31334">
        <ele>449</ele>
        <time>2021-03-27T12:16:10Z</time>
      </trkpt>
      <trkpt lat="46.12735" lon="6.31333">
        <ele>449</ele>
        <time>2021-03-27T12:16:09Z</time>
      </trkpt>
      <trkpt lat="46.12741" lon="6.31332">
        <ele>448.8</ele>
        <time>2021-03-27T12:16:08Z</time>
      </trkpt>
      <trkpt lat="46.12747" lon="6.31331">
        <ele>448.8</ele>
        <time>2021-03-27T12:16:07Z</time>
      </trkpt>
      <trkpt lat="46.12753" lon="6.3133">
        <ele>448.8</ele>
        <time>2021-03-27T12:16:06Z</time>
      </trkpt>
      <trkpt lat="46.1276" lon="6.31329">
        <ele>448.6</ele>
        <time>2021-03-27T12:16:05Z</time>
      </trkpt>
      <trkpt lat="46.12766" lon="6.31328">
        <ele>448.6</ele>
        <time>2021-03-27T12:16:04Z</time>
      </trkpt>
      <trkpt lat="46.12773" lon="6.31327">
        <ele>448.6</ele>
        <time>2021-03-27T12:16:03Z</time>
      </trkpt>
      <trkpt lat="46.12779" lon="6.31326">
        <ele>448.6</ele>
        <time>2021-03-27T12:16:02Z</time>
      </trkpt>
      <trkpt lat="46.12786" lon="6.31325">
        <ele>448.4</ele>
        <time>2021-03-27T12:16:01Z</time>
      </trkpt>
      <trkpt lat="46.12793" lon="6.31324">
        <ele>448.4</ele>
        <time>2021-03-27T12:16:00Z</time>
      </trkpt>
      <trkpt lat="46.128" lon="6.31323">
        <ele>448.4</ele>
        <time>2021-03-27T12:15:59Z</time>
      </trkpt>
      <trkpt lat="46.12806" lon="6.31322">
        <ele>448.4</ele>
        <time>2021-03-27T12:15:58Z</time>
      </trkpt>
      <trkpt lat="46.12813" lon="6.31321">
        <ele>448.4</ele>
        <time>2021-03-27T12:15:57Z</time>
      </trkpt>
      <trkpt lat="46.1282" lon="6.3132">
        <ele>448.2</ele>
        <time>2021-03-27T12:15:56Z</time>
      </trkpt>
      <trkpt lat="46.12826" lon="6.31319">
        <ele>448.2</ele>
        <time>2021-03-27T12:15:55Z</time>
      </trkpt>
      <trkpt lat="46.12833" lon="6.31318">
        <ele>448.2</ele>
        <time>2021-03-27T12:15:54Z</time>
      </trkpt>
      <trkpt lat="46.12839" lon="6.31317">
        <ele>448.2</ele>
        <time>2021-03-27T12:15:53Z</time>
      </trkpt>
      <trkpt lat="46.12853" lon="6.31315">
        <ele>448</ele>
        <time>2021-03-27T12:15:51Z</time>
      </trkpt>
      <trkpt lat="46.12859" lon="6.31314">
        <ele>448</ele>
        <time>2021-03-27T12:15:50Z</time>
      </trkpt>
      <trkpt lat="46.12866" lon="6.31313">
        <ele>447.8</ele>
        <time>2021-03-27T12:15:49Z</time>
      </trkpt>
      <trkpt lat="46.12872" lon="6.31312">
        <ele>447.8</ele>
        <time>2021-03-27T12:15:48Z</time>
      </trkpt>
      <trkpt lat="46.12879" lon="6.31311">
        <ele>447.6</ele>
        <time>2021-03-27T12:15:47Z</time>
      </trkpt>
      <trkpt lat="46.12885" lon="6.3131">
        <ele>447.6</ele>
        <time>2021-03-27T12:15:46Z</time>
      </trkpt>
      <trkpt lat="46.12892" lon="6.31309">
        <ele>447.6</ele>
        <time>2021-03-27T12:15:45Z</time>
      </trkpt>
      <trkpt lat="46.12899" lon="6.31308">
        <ele>447.6</ele>
        <time>2021-03-27T12:15:44Z</time>
      </trkpt>
      <trkpt lat="46.12905" lon="6.31306">
        <ele>447.4</ele>
        <time>2021-03-27T12:15:43Z</time>
      </trkpt>
      <trkpt lat="46.12912" lon="6.31305">
        <ele>447.6</ele>
        <time>2021-03-27T12:15:42Z</time>
      </trkpt>
      <trkpt lat="46.12918" lon="6.31305">
        <ele>447.6</ele>
        <time>2021-03-27T12:15:41Z</time>
      </trkpt>
      <trkpt lat="46.12924" lon="6.31304">
        <ele>447.4</ele>
        <time>2021-03-27T12:15:40Z</time>
      </trkpt>
      <trkpt lat="46.12931" lon="6.31303">
        <ele>447.4</ele>
        <time>2021-03-27T12:15:39Z</time>
      </trkpt>
      <trkpt lat="46.12937" lon="6.31302">
        <ele>447.4</ele>
        <time>2021-03-27T12:15:38Z</time>
      </trkpt>
      <trkpt lat="46.12944" lon="6.31301">
        <ele>447.4</ele>
        <time>2021-03-27T12:15:37Z</time>
      </trkpt>
      <trkpt lat="46.1295" lon="6.313">
        <ele>447.2</ele>
        <time>2021-03-27T12:15:36Z</time>
      </trkpt>
      <trkpt lat="46.12956" lon="6.31299">
        <ele>447.2</ele>
        <time>2021-03-27T12:15:35Z</time>
      </trkpt>
      <trkpt lat="46.12963" lon="6.31298">
        <ele>447.2</ele>
        <time>2021-03-27T12:15:34Z</time>
      </trkpt>
      <trkpt lat="46.12969" lon="6.31297">
        <ele>447</ele>
        <time>2021-03-27T12:15:33Z</time>
      </trkpt>
      <trkpt lat="46.12976" lon="6.31296">
        <ele>447.2</ele>
        <time>2021-03-27T12:15:32Z</time>
      </trkpt>
      <trkpt lat="46.12982" lon="6.31294">
        <ele>447</ele>
        <time>2021-03-27T12:15:31Z</time>
      </trkpt>
      <trkpt lat="46.12989" lon="6.31293">
        <ele>447.2</ele>
        <time>2021-03-27T12:15:30Z</time>
      </trkpt>
      <trkpt lat="46.12996" lon="6.31292">
        <ele>447</ele>
        <time>2021-03-27T12:15:29Z</time>
      </trkpt>
      <trkpt lat="46.13003" lon="6.31291">
        <ele>447</ele>
        <time>2021-03-27T12:15:28Z</time>
      </trkpt>
      <trkpt lat="46.13009" lon="6.3129">
        <ele>447</ele>
        <time>2021-03-27T12:15:27Z</time>
      </trkpt>
      <trkpt lat="46.13016" lon="6.31289">
        <ele>447</ele>
        <time>2021-03-27T12:15:26Z</time>
      </trkpt>
      <trkpt lat="46.13023" lon="6.31288">
        <ele>447</ele>
        <time>2021-03-27T12:15:25Z</time>
      </trkpt>
      <trkpt lat="46.1303" lon="6.31287">
        <ele>447</ele>
        <time>2021-03-27T12:15:24Z</time>
      </trkpt>
      <trkpt lat="46.13036" lon="6.31286">
        <ele>447</ele>
        <time>2021-03-27T12:15:23Z</time>
      </trkpt>
      <trkpt lat="46.13043" lon="6.31285">
        <ele>447</ele>
        <time>2021-03-27T12:15:22Z</time>
      </trkpt>
      <trkpt lat="46.1305" lon="6.31284">
        <ele>447</ele>
        <time>2021-03-27T12:15:21Z</time>
      </trkpt>
      <trkpt lat="46.13056" lon="6.31283">
        <ele>447</ele>
        <time>2021-03-27T12:15:20Z</time>
      </trkpt>
      <trkpt lat="46.13062" lon="6.31282">
        <ele>447</ele>
        <time>2021-03-27T12:15:19Z</time>
      </trkpt>
      <trkpt lat="46.13069" lon="6.31281">
        <ele>447</ele>
        <time>2021-03-27T12:15:18Z</time>
      </trkpt>
      <trkpt lat="46.13075" lon="6.3128">
        <ele>447</ele>
        <time>2021-03-27T12:15:17Z</time>
      </trkpt>
      <trkpt lat="46.13081" lon="6.31279">
        <ele>447.2</ele>
        <time>2021-03-27T12:15:16Z</time>
      </trkpt>
      <trkpt lat="46.13088" lon="6.31278">
        <ele>447.2</ele>
        <time>2021-03-27T12:15:15Z</time>
      </trkpt>
      <trkpt lat="46.13094" lon="6.31277">
        <ele>447.2</ele>
        <time>2021-03-27T12:15:14Z</time>
      </trkpt>
      <trkpt lat="46.131" lon="6.31276">
        <ele>447.2</ele>
        <time>2021-03-27T12:15:13Z</time>
      </trkpt>
      <trkpt lat="46.13106" lon="6.31275">
        <ele>447.6</ele>
        <time>2021-03-27T12:15:12Z</time>
      </trkpt>
      <trkpt lat="46.13112" lon="6.31274">
        <ele>447.4</ele>
        <time>2021-03-27T12:15:11Z</time>
      </trkpt>
      <trkpt lat="46.13118" lon="6.31273">
        <ele>447.4</ele>
        <time>2021-03-27T12:15:10Z</time>
      </trkpt>
      <trkpt lat="46.13124" lon="6.31272">
        <ele>447.6</ele>
        <time>2021-03-27T12:15:09Z</time>
      </trkpt>
      <trkpt lat="46.1313" lon="6.31271">
        <ele>447.6</ele>
        <time>2021-03-27T12:15:08Z</time>
      </trkpt>
      <trkpt lat="46.13136" lon="6.3127">
        <ele>447.4</ele>
        <time>2021-03-27T12:15:07Z</time>
      </trkpt>
      <trkpt lat="46.13142" lon="6.31269">
        <ele>447.6</ele>
        <time>2021-03-27T12:15:06Z</time>
      </trkpt>
      <trkpt lat="46.13149" lon="6.31268">
        <ele>447.6</ele>
        <time>2021-03-27T12:15:05Z</time>
      </trkpt>
      <trkpt lat="46.13155" lon="6.31267">
        <ele>447.6</ele>
        <time>2021-03-27T12:15:04Z</time>
      </trkpt>
      <trkpt lat="46.13161" lon="6.31267">
        <ele>447.6</ele>
        <time>2021-03-27T12:15:03Z</time>
      </trkpt>
      <trkpt lat="46.13167" lon="6.31266">
        <ele>447.2</ele>
        <time>2021-03-27T12:15:02Z</time>
      </trkpt>
      <trkpt lat="46.13173" lon="6.31265">
        <ele>447.4</ele>
        <time>2021-03-27T12:15:01Z</time>
      </trkpt>
      <trkpt lat="46.13179" lon="6.31264">
        <ele>447</ele>
        <time>2021-03-27T12:15:00Z</time>
      </trkpt>
      <trkpt lat="46.13184" lon="6.31263">
        <ele>446.6</ele>
        <time>2021-03-27T12:14:59Z</time>
      </trkpt>
      <trkpt lat="46.1319" lon="6.31262">
        <ele>446.2</ele>
        <time>2021-03-27T12:14:58Z</time>
      </trkpt>
      <trkpt lat="46.13196" lon="6.31261">
        <ele>446</ele>
        <time>2021-03-27T12:14:57Z</time>
      </trkpt>
      <trkpt lat="46.13201" lon="6.3126">
        <ele>445.6</ele>
        <time>2021-03-27T12:14:56Z</time>
      </trkpt>
      <trkpt lat="46.13207" lon="6.3126">
        <ele>445.4</ele>
        <time>2021-03-27T12:14:55Z</time>
      </trkpt>
      <trkpt lat="46.13212" lon="6.31259">
        <ele>445.4</ele>
        <time>2021-03-27T12:14:54Z</time>
      </trkpt>
      <trkpt lat="46.13217" lon="6.31258">
        <ele>445</ele>
        <time>2021-03-27T12:14:53Z</time>
      </trkpt>
      <trkpt lat="46.13222" lon="6.31258">
        <ele>444.8</ele>
        <time>2021-03-27T12:14:52Z</time>
      </trkpt>
      <trkpt lat="46.13227" lon="6.31258">
        <ele>444.8</ele>
        <time>2021-03-27T12:14:51Z</time>
      </trkpt>
      <trkpt lat="46.13231" lon="6.31258">
        <ele>444.6</ele>
        <time>2021-03-27T12:14:50Z</time>
      </trkpt>
      <trkpt lat="46.13236" lon="6.31258">
        <ele>444.4</ele>
        <time>2021-03-27T12:14:49Z</time>
      </trkpt>
      <trkpt lat="46.1324" lon="6.31258">
        <ele>444.4</ele>
        <time>2021-03-27T12:14:48Z</time>
      </trkpt>
      <trkpt lat="46.13245" lon="6.31259">
        <ele>444.2</ele>
        <time>2021-03-27T12:14:47Z</time>
      </trkpt>
      <trkpt lat="46.13249" lon="6.3126">
        <ele>444</ele>
        <time>2021-03-27T12:14:46Z</time>
      </trkpt>
      <trkpt lat="46.13253" lon="6.3126">
        <ele>443.6</ele>
        <time>2021-03-27T12:14:45Z</time>
      </trkpt>
      <trkpt lat="46.13257" lon="6.31262">
        <ele>443.4</ele>
        <time>2021-03-27T12:14:44Z</time>
      </trkpt>
      <trkpt lat="46.13261" lon="6.31263">
        <ele>442.8</ele>
        <time>2021-03-27T12:14:43Z</time>
      </trkpt>
      <trkpt lat="46.13265" lon="6.31264">
        <ele>442.6</ele>
        <time>2021-03-27T12:14:42Z</time>
      </trkpt>
      <trkpt lat="46.13269" lon="6.31265">
        <ele>442.4</ele>
        <time>2021-03-27T12:14:41Z</time>
      </trkpt>
      <trkpt lat="46.13274" lon="6.31267">
        <ele>442</ele>
        <time>2021-03-27T12:14:40Z</time>
      </trkpt>
      <trkpt lat="46.13278" lon="6.31268">
        <ele>442</ele>
        <time>2021-03-27T12:14:39Z</time>
      </trkpt>
      <trkpt lat="46.13282" lon="6.31269">
        <ele>441.8</ele>
        <time>2021-03-27T12:14:38Z</time>
      </trkpt>
      <trkpt lat="46.13286" lon="6.3127">
        <ele>441.6</ele>
        <time>2021-03-27T12:14:37Z</time>
      </trkpt>
      <trkpt lat="46.1329" lon="6.31271">
        <ele>441.2</ele>
        <time>2021-03-27T12:14:36Z</time>
      </trkpt>
      <trkpt lat="46.13294" lon="6.31272">
        <ele>441</ele>
        <time>2021-03-27T12:14:35Z</time>
      </trkpt>
      <trkpt lat="46.13298" lon="6.31273">
        <ele>440.8</ele>
        <time>2021-03-27T12:14:34Z</time>
      </trkpt>
      <trkpt lat="46.13302" lon="6.31273">
        <ele>440.8</ele>
        <time>2021-03-27T12:14:33Z</time>
      </trkpt>
      <trkpt lat="46.13306" lon="6.31273">
        <ele>440.6</ele>
        <time>2021-03-27T12:14:32Z</time>
      </trkpt>
      <trkpt lat="46.13311" lon="6.31273">
        <ele>440.6</ele>
        <time>2021-03-27T12:14:31Z</time>
      </trkpt>
      <trkpt lat="46.13315" lon="6.31272">
        <ele>440.6</ele>
        <time>2021-03-27T12:14:30Z</time>
      </trkpt>
      <trkpt lat="46.13319" lon="6.31271">
        <ele>440.4</ele>
        <time>2021-03-27T12:14:29Z</time>
      </trkpt>
      <trkpt lat="46.13322" lon="6.31269">
        <ele>440.4</ele>
        <time>2021-03-27T12:14:28Z</time>
      </trkpt>
      <trkpt lat="46.13325" lon="6.31266">
        <ele>440.4</ele>
        <time>2021-03-27T12:14:27Z</time>
      </trkpt>
      <trkpt lat="46.13325" lon="6.31263">
        <ele>440.2</ele>
        <time>2021-03-27T12:14:26Z</time>
      </trkpt>
      <trkpt lat="46.13325" lon="6.31259">
        <ele>440.2</ele>
        <time>2021-03-27T12:14:25Z</time>
      </trkpt>
      <trkpt lat="46.13324" lon="6.31255">
        <ele>440</ele>
        <time>2021-03-27T12:14:24Z</time>
      </trkpt>
      <trkpt lat="46.13322" lon="6.31252">
        <ele>440</ele>
        <time>2021-03-27T12:14:23Z</time>
      </trkpt>
      <trkpt lat="46.1332" lon="6.31248">
        <ele>439.8</ele>
        <time>2021-03-27T12:14:22Z</time>
      </trkpt>
      <trkpt lat="46.13317" lon="6.31245">
        <ele>439.8</ele>
        <time>2021-03-27T12:14:21Z</time>
      </trkpt>
      <trkpt lat="46.13316" lon="6.31242">
        <ele>439.6</ele>
        <time>2021-03-27T12:14:20Z</time>
      </trkpt>
      <trkpt lat="46.13316" lon="6.3124">
        <ele>439.4</ele>
        <time>2021-03-27T12:14:19Z</time>
      </trkpt>
      <trkpt lat="46.13318" lon="6.31239">
        <ele>439.2</ele>
        <time>2021-03-27T12:14:18Z</time>
      </trkpt>
      <trkpt lat="46.1332" lon="6.31242">
        <ele>438.6</ele>
        <time>2021-03-27T12:14:17Z</time>
      </trkpt>
      <trkpt lat="46.13325" lon="6.31251">
        <ele>438</ele>
        <time>2021-03-27T12:14:15Z</time>
      </trkpt>
      <trkpt lat="46.13328" lon="6.31255">
        <ele>438</ele>
        <time>2021-03-27T12:14:14Z</time>
      </trkpt>
      <trkpt lat="46.13331" lon="6.31258">
        <ele>437.8</ele>
        <time>2021-03-27T12:14:13Z</time>
      </trkpt>
      <trkpt lat="46.13336" lon="6.3126">
        <ele>438</ele>
        <time>2021-03-27T12:14:12Z</time>
      </trkpt>
      <trkpt lat="46.13341" lon="6.31261">
        <ele>438</ele>
        <time>2021-03-27T12:14:11Z</time>
      </trkpt>
      <trkpt lat="46.13347" lon="6.3126">
        <ele>437.8</ele>
        <time>2021-03-27T12:14:10Z</time>
      </trkpt>
      <trkpt lat="46.13353" lon="6.31259">
        <ele>437.8</ele>
        <time>2021-03-27T12:14:09Z</time>
      </trkpt>
      <trkpt lat="46.13359" lon="6.31256">
        <ele>438</ele>
        <time>2021-03-27T12:14:08Z</time>
      </trkpt>
      <trkpt lat="46.13366" lon="6.31254">
        <ele>438</ele>
        <time>2021-03-27T12:14:07Z</time>
      </trkpt>
      <trkpt lat="46.13372" lon="6.31251">
        <ele>437.8</ele>
        <time>2021-03-27T12:14:06Z</time>
      </trkpt>
      <trkpt lat="46.13386" lon="6.31244">
        <ele>438</ele>
        <time>2021-03-27T12:14:04Z</time>
      </trkpt>
      <trkpt lat="46.13394" lon="6.31241">
        <ele>438.2</ele>
        <time>2021-03-27T12:14:03Z</time>
      </trkpt>
      <trkpt lat="46.13402" lon="6.31237">
        <ele>438.4</ele>
        <time>2021-03-27T12:14:02Z</time>
      </trkpt>
      <trkpt lat="46.13411" lon="6.31233">
        <ele>438.6</ele>
        <time>2021-03-27T12:14:01Z</time>
      </trkpt>
      <trkpt lat="46.13421" lon="6.31229">
        <ele>439</ele>
        <time>2021-03-27T12:14:00Z</time>
      </trkpt>
      <trkpt lat="46.1343" lon="6.31224">
        <ele>439.4</ele>
        <time>2021-03-27T12:13:59Z</time>
      </trkpt>
      <trkpt lat="46.1344" lon="6.3122">
        <ele>439.8</ele>
        <time>2021-03-27T12:13:58Z</time>
      </trkpt>
      <trkpt lat="46.1345" lon="6.31215">
        <ele>440.6</ele>
        <time>2021-03-27T12:13:57Z</time>
      </trkpt>
      <trkpt lat="46.1346" lon="6.3121">
        <ele>441</ele>
        <time>2021-03-27T12:13:56Z</time>
      </trkpt>
      <trkpt lat="46.13469" lon="6.31206">
        <ele>441</ele>
        <time>2021-03-27T12:13:55Z</time>
      </trkpt>
      <trkpt lat="46.13479" lon="6.31201">
        <ele>441.2</ele>
        <time>2021-03-27T12:13:54Z</time>
      </trkpt>
      <trkpt lat="46.13489" lon="6.31197">
        <ele>441.6</ele>
        <time>2021-03-27T12:13:53Z</time>
      </trkpt>
      <trkpt lat="46.13498" lon="6.31193">
        <ele>441.8</ele>
        <time>2021-03-27T12:13:52Z</time>
      </trkpt>
      <trkpt lat="46.13507" lon="6.31189">
        <ele>442.8</ele>
        <time>2021-03-27T12:13:51Z</time>
      </trkpt>
      <trkpt lat="46.13517" lon="6.31187">
        <ele>443.2</ele>
        <time>2021-03-27T12:13:50Z</time>
      </trkpt>
      <trkpt lat="46.13526" lon="6.31186">
        <ele>443.4</ele>
        <time>2021-03-27T12:13:49Z</time>
      </trkpt>
      <trkpt lat="46.13536" lon="6.31187">
        <ele>443.6</ele>
        <time>2021-03-27T12:13:48Z</time>
      </trkpt>
      <trkpt lat="46.13545" lon="6.3119">
        <ele>443.8</ele>
        <time>2021-03-27T12:13:47Z</time>
      </trkpt>
      <trkpt lat="46.13554" lon="6.31194">
        <ele>444.4</ele>
        <time>2021-03-27T12:13:46Z</time>
      </trkpt>
      <trkpt lat="46.13562" lon="6.312">
        <ele>444.6</ele>
        <time>2021-03-27T12:13:45Z</time>
      </trkpt>
      <trkpt lat="46.13569" lon="6.31206">
        <ele>444.8</ele>
        <time>2021-03-27T12:13:44Z</time>
      </trkpt>
      <trkpt lat="46.13576" lon="6.31214">
        <ele>445</ele>
        <time>2021-03-27T12:13:43Z</time>
      </trkpt>
      <trkpt lat="46.13583" lon="6.31221">
        <ele>445.4</ele>
        <time>2021-03-27T12:13:42Z</time>
      </trkpt>
      <trkpt lat="46.1359" lon="6.31229">
        <ele>446</ele>
        <time>2021-03-27T12:13:41Z</time>
      </trkpt>
      <trkpt lat="46.13597" lon="6.31237">
        <ele>446.4</ele>
        <time>2021-03-27T12:13:40Z</time>
      </trkpt>
      <trkpt lat="46.13604" lon="6.31245">
        <ele>446.6</ele>
        <time>2021-03-27T12:13:39Z</time>
      </trkpt>
      <trkpt lat="46.1361" lon="6.31253">
        <ele>446.6</ele>
        <time>2021-03-27T12:13:38Z</time>
      </trkpt>
      <trkpt lat="46.13617" lon="6.31261">
        <ele>446.8</ele>
        <time>2021-03-27T12:13:37Z</time>
      </trkpt>
      <trkpt lat="46.13623" lon="6.31268">
        <ele>447</ele>
        <time>2021-03-27T12:13:36Z</time>
      </trkpt>
      <trkpt lat="46.1363" lon="6.31276">
        <ele>446.8</ele>
        <time>2021-03-27T12:13:35Z</time>
      </trkpt>
      <trkpt lat="46.13636" lon="6.31284">
        <ele>447</ele>
        <time>2021-03-27T12:13:34Z</time>
      </trkpt>
      <trkpt lat="46.13642" lon="6.31292">
        <ele>447</ele>
        <time>2021-03-27T12:13:33Z</time>
      </trkpt>
      <trkpt lat="46.13648" lon="6.31299">
        <ele>447.2</ele>
        <time>2021-03-27T12:13:32Z</time>
      </trkpt>
      <trkpt lat="46.13654" lon="6.31307">
        <ele>447.4</ele>
        <time>2021-03-27T12:13:31Z</time>
      </trkpt>
      <trkpt lat="46.1366" lon="6.31314">
        <ele>447.6</ele>
        <time>2021-03-27T12:13:30Z</time>
      </trkpt>
      <trkpt lat="46.13665" lon="6.31321">
        <ele>448</ele>
        <time>2021-03-27T12:13:29Z</time>
      </trkpt>
      <trkpt lat="46.1367" lon="6.31327">
        <ele>448.2</ele>
        <time>2021-03-27T12:13:28Z</time>
      </trkpt>
      <trkpt lat="46.13675" lon="6.3133">
        <ele>448.6</ele>
        <time>2021-03-27T12:13:27Z</time>
      </trkpt>
      <trkpt lat="46.1368" lon="6.3133">
        <ele>449</ele>
        <time>2021-03-27T12:13:26Z</time>
      </trkpt>
      <trkpt lat="46.13685" lon="6.31326">
        <ele>450</ele>
        <time>2021-03-27T12:13:25Z</time>
      </trkpt>
      <trkpt lat="46.1369" lon="6.3132">
        <ele>451.6</ele>
        <time>2021-03-27T12:13:24Z</time>
      </trkpt>
      <trkpt lat="46.13696" lon="6.31312">
        <ele>453.4</ele>
        <time>2021-03-27T12:13:23Z</time>
      </trkpt>
      <trkpt lat="46.13702" lon="6.31303">
        <ele>455.6</ele>
        <time>2021-03-27T12:13:22Z</time>
      </trkpt>
      <trkpt lat="46.13708" lon="6.31294">
        <ele>457.4</ele>
        <time>2021-03-27T12:13:21Z</time>
      </trkpt>
      <trkpt lat="46.13715" lon="6.31284">
        <ele>458.6</ele>
        <time>2021-03-27T12:13:20Z</time>
      </trkpt>
      <trkpt lat="46.13722" lon="6.31273">
        <ele>458.8</ele>
        <time>2021-03-27T12:13:19Z</time>
      </trkpt>
      <trkpt lat="46.1373" lon="6.31261">
        <ele>459.2</ele>
        <time>2021-03-27T12:13:18Z</time>
      </trkpt>
      <trkpt lat="46.13738" lon="6.31249">
        <ele>459.6</ele>
        <time>2021-03-27T12:13:17Z</time>
      </trkpt>
      <trkpt lat="46.13746" lon="6.31236">
        <ele>460.2</ele>
        <time>2021-03-27T12:13:16Z</time>
      </trkpt>
      <trkpt lat="46.13753" lon="6.31223">
        <ele>461.4</ele>
        <time>2021-03-27T12:13:15Z</time>
      </trkpt>
      <trkpt lat="46.13759" lon="6.3121">
        <ele>462</ele>
        <time>2021-03-27T12:13:14Z</time>
      </trkpt>
      <trkpt lat="46.13765" lon="6.31198">
        <ele>462.8</ele>
        <time>2021-03-27T12:13:13Z</time>
      </trkpt>
      <trkpt lat="46.1377" lon="6.31187">
        <ele>463.4</ele>
        <time>2021-03-27T12:13:12Z</time>
      </trkpt>
      <trkpt lat="46.13775" lon="6.31175">
        <ele>464.4</ele>
        <time>2021-03-27T12:13:11Z</time>
      </trkpt>
      <trkpt lat="46.13779" lon="6.31164">
        <ele>464.8</ele>
        <time>2021-03-27T12:13:10Z</time>
      </trkpt>
      <trkpt lat="46.13784" lon="6.31152">
        <ele>466</ele>
        <time>2021-03-27T12:13:09Z</time>
      </trkpt>
      <trkpt lat="46.13788" lon="6.3114">
        <ele>466.2</ele>
        <time>2021-03-27T12:13:08Z</time>
      </trkpt>
      <trkpt lat="46.13792" lon="6.31128">
        <ele>466.6</ele>
        <time>2021-03-27T12:13:07Z</time>
      </trkpt>
      <trkpt lat="46.13796" lon="6.31115">
        <ele>466.8</ele>
        <time>2021-03-27T12:13:06Z</time>
      </trkpt>
      <trkpt lat="46.138" lon="6.31103">
        <ele>467.2</ele>
        <time>2021-03-27T12:13:05Z</time>
      </trkpt>
      <trkpt lat="46.13804" lon="6.31091">
        <ele>467.2</ele>
        <time>2021-03-27T12:13:04Z</time>
      </trkpt>
      <trkpt lat="46.13808" lon="6.31079">
        <ele>467.4</ele>
        <time>2021-03-27T12:13:03Z</time>
      </trkpt>
      <trkpt lat="46.13812" lon="6.31069">
        <ele>467.4</ele>
        <time>2021-03-27T12:13:02Z</time>
      </trkpt>
      <trkpt lat="46.13816" lon="6.31059">
        <ele>467.4</ele>
        <time>2021-03-27T12:13:01Z</time>
      </trkpt>
      <trkpt lat="46.1382" lon="6.31049">
        <ele>467.4</ele>
        <time>2021-03-27T12:13:00Z</time>
      </trkpt>
      <trkpt lat="46.13824" lon="6.3104">
        <ele>467.6</ele>
        <time>2021-03-27T12:12:59Z</time>
      </trkpt>
      <trkpt lat="46.13828" lon="6.31031">
        <ele>467.6</ele>
        <time>2021-03-27T12:12:58Z</time>
      </trkpt>
      <trkpt lat="46.13832" lon="6.31022">
        <ele>467.4</ele>
        <time>2021-03-27T12:12:57Z</time>
      </trkpt>
      <trkpt lat="46.13837" lon="6.31015">
        <ele>467.4</ele>
        <time>2021-03-27T12:12:56Z</time>
      </trkpt>
      <trkpt lat="46.13841" lon="6.31009">
        <ele>467.4</ele>
        <time>2021-03-27T12:12:55Z</time>
      </trkpt>
      <trkpt lat="46.13846" lon="6.31002">
        <ele>467.4</ele>
        <time>2021-03-27T12:12:54Z</time>
      </trkpt>
      <trkpt lat="46.13851" lon="6.30995">
        <ele>467.6</ele>
        <time>2021-03-27T12:12:53Z</time>
      </trkpt>
      <trkpt lat="46.13856" lon="6.30989">
        <ele>467.6</ele>
        <time>2021-03-27T12:12:52Z</time>
      </trkpt>
      <trkpt lat="46.13861" lon="6.30982">
        <ele>467.6</ele>
        <time>2021-03-27T12:12:51Z</time>
      </trkpt>
      <trkpt lat="46.13866" lon="6.30976">
        <ele>467.6</ele>
        <time>2021-03-27T12:12:50Z</time>
      </trkpt>
      <trkpt lat="46.13871" lon="6.30969">
        <ele>467.6</ele>
        <time>2021-03-27T12:12:49Z</time>
      </trkpt>
      <trkpt lat="46.13876" lon="6.30963">
        <ele>467.6</ele>
        <time>2021-03-27T12:12:48Z</time>
      </trkpt>
      <trkpt lat="46.13881" lon="6.30956">
        <ele>467.6</ele>
        <time>2021-03-27T12:12:47Z</time>
      </trkpt>
      <trkpt lat="46.13886" lon="6.30949">
        <ele>467.6</ele>
        <time>2021-03-27T12:12:46Z</time>
      </trkpt>
      <trkpt lat="46.13891" lon="6.30942">
        <ele>467.6</ele>
        <time>2021-03-27T12:12:45Z</time>
      </trkpt>
      <trkpt lat="46.13896" lon="6.30935">
        <ele>467.4</ele>
        <time>2021-03-27T12:12:44Z</time>
      </trkpt>
      <trkpt lat="46.13901" lon="6.30928">
        <ele>467.4</ele>
        <time>2021-03-27T12:12:43Z</time>
      </trkpt>
      <trkpt lat="46.13905" lon="6.30921">
        <ele>467.4</ele>
        <time>2021-03-27T12:12:42Z</time>
      </trkpt>
      <trkpt lat="46.1391" lon="6.30913">
        <ele>467.2</ele>
        <time>2021-03-27T12:12:41Z</time>
      </trkpt>
      <trkpt lat="46.13915" lon="6.30906">
        <ele>467</ele>
        <time>2021-03-27T12:12:40Z</time>
      </trkpt>
      <trkpt lat="46.13919" lon="6.30898">
        <ele>466.8</ele>
        <time>2021-03-27T12:12:39Z</time>
      </trkpt>
      <trkpt lat="46.13924" lon="6.30891">
        <ele>467</ele>
        <time>2021-03-27T12:12:38Z</time>
      </trkpt>
      <trkpt lat="46.13928" lon="6.30884">
        <ele>467</ele>
        <time>2021-03-27T12:12:37Z</time>
      </trkpt>
      <trkpt lat="46.13933" lon="6.30877">
        <ele>467</ele>
        <time>2021-03-27T12:12:36Z</time>
      </trkpt>
      <trkpt lat="46.13939" lon="6.30872">
        <ele>466.8</ele>
        <time>2021-03-27T12:12:35Z</time>
      </trkpt>
      <trkpt lat="46.13944" lon="6.30867">
        <ele>466.8</ele>
        <time>2021-03-27T12:12:34Z</time>
      </trkpt>
      <trkpt lat="46.1395" lon="6.30864">
        <ele>466.8</ele>
        <time>2021-03-27T12:12:33Z</time>
      </trkpt>
      <trkpt lat="46.13956" lon="6.30861">
        <ele>466.8</ele>
        <time>2021-03-27T12:12:32Z</time>
      </trkpt>
      <trkpt lat="46.13962" lon="6.3086">
        <ele>466.8</ele>
        <time>2021-03-27T12:12:31Z</time>
      </trkpt>
      <trkpt lat="46.13968" lon="6.30857">
        <ele>466.8</ele>
        <time>2021-03-27T12:12:30Z</time>
      </trkpt>
      <trkpt lat="46.13974" lon="6.30854">
        <ele>466.6</ele>
        <time>2021-03-27T12:12:29Z</time>
      </trkpt>
      <trkpt lat="46.13979" lon="6.30849">
        <ele>466.6</ele>
        <time>2021-03-27T12:12:28Z</time>
      </trkpt>
      <trkpt lat="46.13983" lon="6.30843">
        <ele>466.6</ele>
        <time>2021-03-27T12:12:27Z</time>
      </trkpt>
      <trkpt lat="46.13987" lon="6.30835">
        <ele>466.8</ele>
        <time>2021-03-27T12:12:26Z</time>
      </trkpt>
      <trkpt lat="46.13991" lon="6.30826">
        <ele>466.6</ele>
        <time>2021-03-27T12:12:25Z</time>
      </trkpt>
      <trkpt lat="46.13995" lon="6.30818">
        <ele>466.6</ele>
        <time>2021-03-27T12:12:24Z</time>
      </trkpt>
      <trkpt lat="46.13998" lon="6.30809">
        <ele>466.6</ele>
        <time>2021-03-27T12:12:23Z</time>
      </trkpt>
      <trkpt lat="46.14001" lon="6.30801">
        <ele>466.6</ele>
        <time>2021-03-27T12:12:22Z</time>
      </trkpt>
      <trkpt lat="46.14004" lon="6.30793">
        <ele>466.4</ele>
        <time>2021-03-27T12:12:21Z</time>
      </trkpt>
      <trkpt lat="46.14008" lon="6.30785">
        <ele>466.2</ele>
        <time>2021-03-27T12:12:20Z</time>
      </trkpt>
      <trkpt lat="46.14012" lon="6.3078">
        <ele>466.4</ele>
        <time>2021-03-27T12:12:19Z</time>
      </trkpt>
      <trkpt lat="46.14017" lon="6.30778">
        <ele>466.2</ele>
        <time>2021-03-27T12:12:18Z</time>
      </trkpt>
      <trkpt lat="46.14022" lon="6.30779">
        <ele>466.2</ele>
        <time>2021-03-27T12:12:17Z</time>
      </trkpt>
      <trkpt lat="46.14027" lon="6.30784">
        <ele>466.2</ele>
        <time>2021-03-27T12:12:16Z</time>
      </trkpt>
      <trkpt lat="46.14032" lon="6.30788">
        <ele>466</ele>
        <time>2021-03-27T12:12:15Z</time>
      </trkpt>
      <trkpt lat="46.14037" lon="6.30793">
        <ele>466.2</ele>
        <time>2021-03-27T12:12:14Z</time>
      </trkpt>
      <trkpt lat="46.14042" lon="6.30798">
        <ele>466.2</ele>
        <time>2021-03-27T12:12:13Z</time>
      </trkpt>
      <trkpt lat="46.14047" lon="6.30802">
        <ele>466.2</ele>
        <time>2021-03-27T12:12:12Z</time>
      </trkpt>
      <trkpt lat="46.14053" lon="6.30806">
        <ele>466.2</ele>
        <time>2021-03-27T12:12:11Z</time>
      </trkpt>
      <trkpt lat="46.14058" lon="6.3081">
        <ele>466.2</ele>
        <time>2021-03-27T12:12:10Z</time>
      </trkpt>
      <trkpt lat="46.14063" lon="6.30813">
        <ele>466.2</ele>
        <time>2021-03-27T12:12:09Z</time>
      </trkpt>
      <trkpt lat="46.14069" lon="6.30815">
        <ele>466.2</ele>
        <time>2021-03-27T12:12:08Z</time>
      </trkpt>
      <trkpt lat="46.14076" lon="6.30817">
        <ele>466.2</ele>
        <time>2021-03-27T12:12:07Z</time>
      </trkpt>
      <trkpt lat="46.14081" lon="6.30819">
        <ele>466</ele>
        <time>2021-03-27T12:12:06Z</time>
      </trkpt>
      <trkpt lat="46.14087" lon="6.30819">
        <ele>466.2</ele>
        <time>2021-03-27T12:12:05Z</time>
      </trkpt>
      <trkpt lat="46.14092" lon="6.30817">
        <ele>466</ele>
        <time>2021-03-27T12:12:04Z</time>
      </trkpt>
      <trkpt lat="46.14095" lon="6.30811">
        <ele>466.2</ele>
        <time>2021-03-27T12:12:03Z</time>
      </trkpt>
      <trkpt lat="46.14098" lon="6.30804">
        <ele>466.2</ele>
        <time>2021-03-27T12:12:02Z</time>
      </trkpt>
      <trkpt lat="46.141" lon="6.30797">
        <ele>466</ele>
        <time>2021-03-27T12:12:01Z</time>
      </trkpt>
      <trkpt lat="46.14103" lon="6.3079">
        <ele>465.8</ele>
        <time>2021-03-27T12:12:00Z</time>
      </trkpt>
      <trkpt lat="46.14106" lon="6.30784">
        <ele>465.6</ele>
        <time>2021-03-27T12:11:59Z</time>
      </trkpt>
      <trkpt lat="46.1411" lon="6.30777">
        <ele>465.6</ele>
        <time>2021-03-27T12:11:58Z</time>
      </trkpt>
      <trkpt lat="46.14114" lon="6.30771">
        <ele>465.4</ele>
        <time>2021-03-27T12:11:57Z</time>
      </trkpt>
      <trkpt lat="46.14118" lon="6.30766">
        <ele>465.4</ele>
        <time>2021-03-27T12:11:56Z</time>
      </trkpt>
      <trkpt lat="46.14122" lon="6.30761">
        <ele>465.2</ele>
        <time>2021-03-27T12:11:55Z</time>
      </trkpt>
      <trkpt lat="46.14127" lon="6.30755">
        <ele>465.2</ele>
        <time>2021-03-27T12:11:54Z</time>
      </trkpt>
      <trkpt lat="46.14132" lon="6.30751">
        <ele>465</ele>
        <time>2021-03-27T12:11:53Z</time>
      </trkpt>
      <trkpt lat="46.14138" lon="6.30746">
        <ele>464.8</ele>
        <time>2021-03-27T12:11:52Z</time>
      </trkpt>
      <trkpt lat="46.14142" lon="6.30743">
        <ele>464.2</ele>
        <time>2021-03-27T12:11:51Z</time>
      </trkpt>
      <trkpt lat="46.14147" lon="6.30739">
        <ele>464.2</ele>
        <time>2021-03-27T12:11:50Z</time>
      </trkpt>
      <trkpt lat="46.14152" lon="6.30736">
        <ele>463.6</ele>
        <time>2021-03-27T12:11:49Z</time>
      </trkpt>
      <trkpt lat="46.14157" lon="6.30734">
        <ele>463.2</ele>
        <time>2021-03-27T12:11:48Z</time>
      </trkpt>
      <trkpt lat="46.14162" lon="6.30732">
        <ele>462.8</ele>
        <time>2021-03-27T12:11:47Z</time>
      </trkpt>
      <trkpt lat="46.14167" lon="6.30731">
        <ele>462.4</ele>
        <time>2021-03-27T12:11:46Z</time>
      </trkpt>
      <trkpt lat="46.14172" lon="6.30729">
        <ele>461.8</ele>
        <time>2021-03-27T12:11:45Z</time>
      </trkpt>
      <trkpt lat="46.14177" lon="6.30727">
        <ele>461.8</ele>
        <time>2021-03-27T12:11:44Z</time>
      </trkpt>
      <trkpt lat="46.14182" lon="6.30725">
        <ele>461.6</ele>
        <time>2021-03-27T12:11:43Z</time>
      </trkpt>
      <trkpt lat="46.14187" lon="6.30723">
        <ele>461.4</ele>
        <time>2021-03-27T12:11:42Z</time>
      </trkpt>
      <trkpt lat="46.14192" lon="6.30721">
        <ele>461.4</ele>
        <time>2021-03-27T12:11:41Z</time>
      </trkpt>
      <trkpt lat="46.14197" lon="6.30719">
        <ele>461.4</ele>
        <time>2021-03-27T12:11:40Z</time>
      </trkpt>
      <trkpt lat="46.14202" lon="6.30717">
        <ele>461.2</ele>
        <time>2021-03-27T12:11:39Z</time>
      </trkpt>
      <trkpt lat="46.14208" lon="6.30715">
        <ele>461</ele>
        <time>2021-03-27T12:11:38Z</time>
      </trkpt>
      <trkpt lat="46.14213" lon="6.30712">
        <ele>461</ele>
        <time>2021-03-27T12:11:37Z</time>
      </trkpt>
      <trkpt lat="46.14218" lon="6.30709">
        <ele>460.8</ele>
        <time>2021-03-27T12:11:36Z</time>
      </trkpt>
      <trkpt lat="46.14223" lon="6.30707">
        <ele>460.6</ele>
        <time>2021-03-27T12:11:35Z</time>
      </trkpt>
      <trkpt lat="46.14229" lon="6.30703">
        <ele>460.4</ele>
        <time>2021-03-27T12:11:34Z</time>
      </trkpt>
      <trkpt lat="46.14233" lon="6.307">
        <ele>460</ele>
        <time>2021-03-27T12:11:33Z</time>
      </trkpt>
      <trkpt lat="46.14238" lon="6.30695">
        <ele>460</ele>
        <time>2021-03-27T12:11:32Z</time>
      </trkpt>
      <trkpt lat="46.14243" lon="6.30691">
        <ele>459.8</ele>
        <time>2021-03-27T12:11:31Z</time>
      </trkpt>
      <trkpt lat="46.14247" lon="6.30686">
        <ele>459.8</ele>
        <time>2021-03-27T12:11:30Z</time>
      </trkpt>
      <trkpt lat="46.14252" lon="6.30681">
        <ele>459.8</ele>
        <time>2021-03-27T12:11:29Z</time>
      </trkpt>
      <trkpt lat="46.14256" lon="6.30676">
        <ele>459.6</ele>
        <time>2021-03-27T12:11:28Z</time>
      </trkpt>
      <trkpt lat="46.1426" lon="6.30672">
        <ele>459.2</ele>
        <time>2021-03-27T12:11:27Z</time>
      </trkpt>
      <trkpt lat="46.14264" lon="6.30667">
        <ele>459.2</ele>
        <time>2021-03-27T12:11:26Z</time>
      </trkpt>
      <trkpt lat="46.14268" lon="6.30662">
        <ele>459</ele>
        <time>2021-03-27T12:11:25Z</time>
      </trkpt>
      <trkpt lat="46.14272" lon="6.30657">
        <ele>459</ele>
        <time>2021-03-27T12:11:24Z</time>
      </trkpt>
      <trkpt lat="46.14276" lon="6.30652">
        <ele>459</ele>
        <time>2021-03-27T12:11:23Z</time>
      </trkpt>
      <trkpt lat="46.1428" lon="6.30647">
        <ele>459</ele>
        <time>2021-03-27T12:11:22Z</time>
      </trkpt>
      <trkpt lat="46.14284" lon="6.30642">
        <ele>459</ele>
        <time>2021-03-27T12:11:21Z</time>
      </trkpt>
      <trkpt lat="46.14288" lon="6.30636">
        <ele>458.8</ele>
        <time>2021-03-27T12:11:20Z</time>
      </trkpt>
      <trkpt lat="46.14292" lon="6.30631">
        <ele>459</ele>
        <time>2021-03-27T12:11:19Z</time>
      </trkpt>
      <trkpt lat="46.14297" lon="6.30626">
        <ele>458.8</ele>
        <time>2021-03-27T12:11:18Z</time>
      </trkpt>
      <trkpt lat="46.14301" lon="6.30622">
        <ele>458.8</ele>
        <time>2021-03-27T12:11:17Z</time>
      </trkpt>
      <trkpt lat="46.14305" lon="6.30617">
        <ele>458.6</ele>
        <time>2021-03-27T12:11:16Z</time>
      </trkpt>
      <trkpt lat="46.1431" lon="6.30612">
        <ele>458.6</ele>
        <time>2021-03-27T12:11:15Z</time>
      </trkpt>
      <trkpt lat="46.14314" lon="6.30607">
        <ele>458.6</ele>
        <time>2021-03-27T12:11:14Z</time>
      </trkpt>
      <trkpt lat="46.14319" lon="6.30603">
        <ele>458.6</ele>
        <time>2021-03-27T12:11:13Z</time>
      </trkpt>
      <trkpt lat="46.14323" lon="6.30598">
        <ele>458.4</ele>
        <time>2021-03-27T12:11:12Z</time>
      </trkpt>
      <trkpt lat="46.14328" lon="6.30594">
        <ele>458.2</ele>
        <time>2021-03-27T12:11:11Z</time>
      </trkpt>
      <trkpt lat="46.14334" lon="6.3059">
        <ele>458.2</ele>
        <time>2021-03-27T12:11:10Z</time>
      </trkpt>
      <trkpt lat="46.14339" lon="6.30586">
        <ele>458</ele>
        <time>2021-03-27T12:11:09Z</time>
      </trkpt>
      <trkpt lat="46.14344" lon="6.30582">
        <ele>458</ele>
        <time>2021-03-27T12:11:08Z</time>
      </trkpt>
      <trkpt lat="46.14349" lon="6.30577">
        <ele>457.6</ele>
        <time>2021-03-27T12:11:07Z</time>
      </trkpt>
      <trkpt lat="46.14354" lon="6.30573">
        <ele>457.4</ele>
        <time>2021-03-27T12:11:06Z</time>
      </trkpt>
      <trkpt lat="46.14359" lon="6.30568">
        <ele>456.8</ele>
        <time>2021-03-27T12:11:05Z</time>
      </trkpt>
      <trkpt lat="46.14364" lon="6.30564">
        <ele>456.8</ele>
        <time>2021-03-27T12:11:04Z</time>
      </trkpt>
      <trkpt lat="46.14369" lon="6.3056">
        <ele>456.4</ele>
        <time>2021-03-27T12:11:03Z</time>
      </trkpt>
      <trkpt lat="46.14374" lon="6.30555">
        <ele>456.2</ele>
        <time>2021-03-27T12:11:02Z</time>
      </trkpt>
      <trkpt lat="46.14379" lon="6.3055">
        <ele>456</ele>
        <time>2021-03-27T12:11:01Z</time>
      </trkpt>
      <trkpt lat="46.14383" lon="6.30546">
        <ele>456</ele>
        <time>2021-03-27T12:11:00Z</time>
      </trkpt>
      <trkpt lat="46.14388" lon="6.30542">
        <ele>455.6</ele>
        <time>2021-03-27T12:10:59Z</time>
      </trkpt>
      <trkpt lat="46.14393" lon="6.30539">
        <ele>455.2</ele>
        <time>2021-03-27T12:10:58Z</time>
      </trkpt>
      <trkpt lat="46.14397" lon="6.30536">
        <ele>454.8</ele>
        <time>2021-03-27T12:10:57Z</time>
      </trkpt>
      <trkpt lat="46.14402" lon="6.30535">
        <ele>454.6</ele>
        <time>2021-03-27T12:10:56Z</time>
      </trkpt>
      <trkpt lat="46.14406" lon="6.30535">
        <ele>454</ele>
        <time>2021-03-27T12:10:55Z</time>
      </trkpt>
      <trkpt lat="46.14411" lon="6.30536">
        <ele>453.8</ele>
        <time>2021-03-27T12:10:54Z</time>
      </trkpt>
      <trkpt lat="46.14416" lon="6.30537">
        <ele>453.4</ele>
        <time>2021-03-27T12:10:53Z</time>
      </trkpt>
      <trkpt lat="46.1442" lon="6.3054">
        <ele>452.4</ele>
        <time>2021-03-27T12:10:52Z</time>
      </trkpt>
      <trkpt lat="46.14425" lon="6.30543">
        <ele>451.6</ele>
        <time>2021-03-27T12:10:51Z</time>
      </trkpt>
      <trkpt lat="46.14429" lon="6.30546">
        <ele>450.8</ele>
        <time>2021-03-27T12:10:50Z</time>
      </trkpt>
      <trkpt lat="46.14433" lon="6.30549">
        <ele>450.2</ele>
        <time>2021-03-27T12:10:49Z</time>
      </trkpt>
      <trkpt lat="46.14438" lon="6.30553">
        <ele>450</ele>
        <time>2021-03-27T12:10:48Z</time>
      </trkpt>
      <trkpt lat="46.14442" lon="6.30557">
        <ele>449.6</ele>
        <time>2021-03-27T12:10:47Z</time>
      </trkpt>
      <trkpt lat="46.14446" lon="6.30561">
        <ele>449.6</ele>
        <time>2021-03-27T12:10:46Z</time>
      </trkpt>
      <trkpt lat="46.1445" lon="6.30566">
        <ele>449.4</ele>
        <time>2021-03-27T12:10:45Z</time>
      </trkpt>
      <trkpt lat="46.14455" lon="6.3057">
        <ele>449.6</ele>
        <time>2021-03-27T12:10:44Z</time>
      </trkpt>
      <trkpt lat="46.1446" lon="6.30575">
        <ele>449.6</ele>
        <time>2021-03-27T12:10:43Z</time>
      </trkpt>
      <trkpt lat="46.14465" lon="6.30581">
        <ele>449.6</ele>
        <time>2021-03-27T12:10:42Z</time>
      </trkpt>
      <trkpt lat="46.14471" lon="6.30587">
        <ele>449.6</ele>
        <time>2021-03-27T12:10:41Z</time>
      </trkpt>
      <trkpt lat="46.14478" lon="6.30592">
        <ele>449.6</ele>
        <time>2021-03-27T12:10:40Z</time>
      </trkpt>
      <trkpt lat="46.14486" lon="6.30597">
        <ele>449.6</ele>
        <time>2021-03-27T12:10:39Z</time>
      </trkpt>
      <trkpt lat="46.14494" lon="6.306">
        <ele>449.6</ele>
        <time>2021-03-27T12:10:38Z</time>
      </trkpt>
      <trkpt lat="46.14503" lon="6.30601">
        <ele>450</ele>
        <time>2021-03-27T12:10:37Z</time>
      </trkpt>
      <trkpt lat="46.14512" lon="6.30599">
        <ele>450</ele>
        <time>2021-03-27T12:10:36Z</time>
      </trkpt>
      <trkpt lat="46.14522" lon="6.30595">
        <ele>450.4</ele>
        <time>2021-03-27T12:10:35Z</time>
      </trkpt>
      <trkpt lat="46.1453" lon="6.30589">
        <ele>451</ele>
        <time>2021-03-27T12:10:34Z</time>
      </trkpt>
      <trkpt lat="46.14539" lon="6.30581">
        <ele>451.8</ele>
        <time>2021-03-27T12:10:33Z</time>
      </trkpt>
      <trkpt lat="46.14547" lon="6.30572">
        <ele>452.6</ele>
        <time>2021-03-27T12:10:32Z</time>
      </trkpt>
      <trkpt lat="46.14555" lon="6.30563">
        <ele>453.4</ele>
        <time>2021-03-27T12:10:31Z</time>
      </trkpt>
      <trkpt lat="46.14562" lon="6.30553">
        <ele>453.8</ele>
        <time>2021-03-27T12:10:30Z</time>
      </trkpt>
      <trkpt lat="46.14569" lon="6.30542">
        <ele>454.2</ele>
        <time>2021-03-27T12:10:29Z</time>
      </trkpt>
      <trkpt lat="46.14576" lon="6.30531">
        <ele>454.8</ele>
        <time>2021-03-27T12:10:28Z</time>
      </trkpt>
      <trkpt lat="46.14583" lon="6.30521">
        <ele>455.8</ele>
        <time>2021-03-27T12:10:27Z</time>
      </trkpt>
      <trkpt lat="46.14591" lon="6.30511">
        <ele>456.8</ele>
        <time>2021-03-27T12:10:26Z</time>
      </trkpt>
      <trkpt lat="46.14599" lon="6.30504">
        <ele>457.2</ele>
        <time>2021-03-27T12:10:25Z</time>
      </trkpt>
      <trkpt lat="46.14608" lon="6.305">
        <ele>457.4</ele>
        <time>2021-03-27T12:10:24Z</time>
      </trkpt>
      <trkpt lat="46.14618" lon="6.30499">
        <ele>458</ele>
        <time>2021-03-27T12:10:23Z</time>
      </trkpt>
      <trkpt lat="46.14627" lon="6.30501">
        <ele>458.2</ele>
        <time>2021-03-27T12:10:22Z</time>
      </trkpt>
      <trkpt lat="46.14636" lon="6.30504">
        <ele>458.2</ele>
        <time>2021-03-27T12:10:21Z</time>
      </trkpt>
      <trkpt lat="46.14646" lon="6.30507">
        <ele>458.6</ele>
        <time>2021-03-27T12:10:20Z</time>
      </trkpt>
      <trkpt lat="46.14655" lon="6.3051">
        <ele>459.2</ele>
        <time>2021-03-27T12:10:19Z</time>
      </trkpt>
      <trkpt lat="46.14664" lon="6.30513">
        <ele>459</ele>
        <time>2021-03-27T12:10:18Z</time>
      </trkpt>
      <trkpt lat="46.14673" lon="6.30516">
        <ele>459</ele>
        <time>2021-03-27T12:10:17Z</time>
      </trkpt>
      <trkpt lat="46.14682" lon="6.30519">
        <ele>459.2</ele>
        <time>2021-03-27T12:10:16Z</time>
      </trkpt>
      <trkpt lat="46.14691" lon="6.30522">
        <ele>459.2</ele>
        <time>2021-03-27T12:10:15Z</time>
      </trkpt>
      <trkpt lat="46.147" lon="6.30525">
        <ele>459.2</ele>
        <time>2021-03-27T12:10:14Z</time>
      </trkpt>
      <trkpt lat="46.14708" lon="6.30527">
        <ele>459</ele>
        <time>2021-03-27T12:10:13Z</time>
      </trkpt>
      <trkpt lat="46.14716" lon="6.3053">
        <ele>459</ele>
        <time>2021-03-27T12:10:12Z</time>
      </trkpt>
      <trkpt lat="46.14724" lon="6.30532">
        <ele>459</ele>
        <time>2021-03-27T12:10:11Z</time>
      </trkpt>
      <trkpt lat="46.14732" lon="6.30534">
        <ele>459</ele>
        <time>2021-03-27T12:10:10Z</time>
      </trkpt>
      <trkpt lat="46.1474" lon="6.30536">
        <ele>458.8</ele>
        <time>2021-03-27T12:10:09Z</time>
      </trkpt>
      <trkpt lat="46.14747" lon="6.30538">
        <ele>458.6</ele>
        <time>2021-03-27T12:10:08Z</time>
      </trkpt>
      <trkpt lat="46.14754" lon="6.3054">
        <ele>458.8</ele>
        <time>2021-03-27T12:10:07Z</time>
      </trkpt>
      <trkpt lat="46.14762" lon="6.30542">
        <ele>458.6</ele>
        <time>2021-03-27T12:10:06Z</time>
      </trkpt>
      <trkpt lat="46.14768" lon="6.30544">
        <ele>458.4</ele>
        <time>2021-03-27T12:10:05Z</time>
      </trkpt>
      <trkpt lat="46.14775" lon="6.30546">
        <ele>458.2</ele>
        <time>2021-03-27T12:10:04Z</time>
      </trkpt>
      <trkpt lat="46.14782" lon="6.30548">
        <ele>458.2</ele>
        <time>2021-03-27T12:10:03Z</time>
      </trkpt>
      <trkpt lat="46.14789" lon="6.30551">
        <ele>458.2</ele>
        <time>2021-03-27T12:10:02Z</time>
      </trkpt>
      <trkpt lat="46.14795" lon="6.30554">
        <ele>458</ele>
        <time>2021-03-27T12:10:01Z</time>
      </trkpt>
      <trkpt lat="46.14801" lon="6.30557">
        <ele>457.8</ele>
        <time>2021-03-27T12:10:00Z</time>
      </trkpt>
      <trkpt lat="46.14808" lon="6.30561">
        <ele>457.8</ele>
        <time>2021-03-27T12:09:59Z</time>
      </trkpt>
      <trkpt lat="46.14815" lon="6.30564">
        <ele>457.6</ele>
        <time>2021-03-27T12:09:58Z</time>
      </trkpt>
      <trkpt lat="46.14821" lon="6.30568">
        <ele>457.6</ele>
        <time>2021-03-27T12:09:57Z</time>
      </trkpt>
      <trkpt lat="46.14828" lon="6.30572">
        <ele>457.4</ele>
        <time>2021-03-27T12:09:56Z</time>
      </trkpt>
      <trkpt lat="46.14835" lon="6.30575">
        <ele>457.4</ele>
        <time>2021-03-27T12:09:55Z</time>
      </trkpt>
      <trkpt lat="46.14842" lon="6.30579">
        <ele>457.4</ele>
        <time>2021-03-27T12:09:54Z</time>
      </trkpt>
      <trkpt lat="46.14849" lon="6.30583">
        <ele>457.4</ele>
        <time>2021-03-27T12:09:53Z</time>
      </trkpt>
      <trkpt lat="46.14856" lon="6.30586">
        <ele>457.4</ele>
        <time>2021-03-27T12:09:52Z</time>
      </trkpt>
      <trkpt lat="46.14863" lon="6.3059">
        <ele>457.4</ele>
        <time>2021-03-27T12:09:51Z</time>
      </trkpt>
      <trkpt lat="46.14869" lon="6.30595">
        <ele>457.4</ele>
        <time>2021-03-27T12:09:50Z</time>
      </trkpt>
      <trkpt lat="46.14876" lon="6.30599">
        <ele>457.6</ele>
        <time>2021-03-27T12:09:49Z</time>
      </trkpt>
      <trkpt lat="46.14883" lon="6.30604">
        <ele>457.6</ele>
        <time>2021-03-27T12:09:48Z</time>
      </trkpt>
      <trkpt lat="46.14889" lon="6.30608">
        <ele>457.4</ele>
        <time>2021-03-27T12:09:47Z</time>
      </trkpt>
      <trkpt lat="46.14896" lon="6.30613">
        <ele>457.6</ele>
        <time>2021-03-27T12:09:46Z</time>
      </trkpt>
      <trkpt lat="46.14902" lon="6.30618">
        <ele>457.6</ele>
        <time>2021-03-27T12:09:45Z</time>
      </trkpt>
      <trkpt lat="46.14908" lon="6.30624">
        <ele>457.6</ele>
        <time>2021-03-27T12:09:44Z</time>
      </trkpt>
      <trkpt lat="46.14914" lon="6.3063">
        <ele>457.6</ele>
        <time>2021-03-27T12:09:43Z</time>
      </trkpt>
      <trkpt lat="46.1492" lon="6.30636">
        <ele>457.8</ele>
        <time>2021-03-27T12:09:42Z</time>
      </trkpt>
      <trkpt lat="46.14927" lon="6.30642">
        <ele>457.8</ele>
        <time>2021-03-27T12:09:41Z</time>
      </trkpt>
      <trkpt lat="46.14934" lon="6.30649">
        <ele>458.2</ele>
        <time>2021-03-27T12:09:40Z</time>
      </trkpt>
      <trkpt lat="46.1494" lon="6.30656">
        <ele>458.4</ele>
        <time>2021-03-27T12:09:39Z</time>
      </trkpt>
      <trkpt lat="46.14949" lon="6.30661">
        <ele>458.6</ele>
        <time>2021-03-27T12:09:38Z</time>
      </trkpt>
      <trkpt lat="46.14956" lon="6.30665">
        <ele>459.2</ele>
        <time>2021-03-27T12:09:37Z</time>
      </trkpt>
      <trkpt lat="46.14963" lon="6.30671">
        <ele>459.8</ele>
        <time>2021-03-27T12:09:36Z</time>
      </trkpt>
      <trkpt lat="46.1497" lon="6.30677">
        <ele>460.6</ele>
        <time>2021-03-27T12:09:35Z</time>
      </trkpt>
      <trkpt lat="46.14978" lon="6.30682">
        <ele>461.2</ele>
        <time>2021-03-27T12:09:34Z</time>
      </trkpt>
      <trkpt lat="46.14986" lon="6.30688">
        <ele>462</ele>
        <time>2021-03-27T12:09:33Z</time>
      </trkpt>
      <trkpt lat="46.14994" lon="6.30693">
        <ele>462.2</ele>
        <time>2021-03-27T12:09:32Z</time>
      </trkpt>
      <trkpt lat="46.15003" lon="6.30696">
        <ele>462.6</ele>
        <time>2021-03-27T12:09:31Z</time>
      </trkpt>
      <trkpt lat="46.15012" lon="6.30699">
        <ele>463.4</ele>
        <time>2021-03-27T12:09:30Z</time>
      </trkpt>
      <trkpt lat="46.15021" lon="6.307">
        <ele>463.4</ele>
        <time>2021-03-27T12:09:29Z</time>
      </trkpt>
      <trkpt lat="46.1503" lon="6.307">
        <ele>464</ele>
        <time>2021-03-27T12:09:28Z</time>
      </trkpt>
      <trkpt lat="46.15039" lon="6.30698">
        <ele>465.2</ele>
        <time>2021-03-27T12:09:27Z</time>
      </trkpt>
      <trkpt lat="46.15048" lon="6.30696">
        <ele>466.8</ele>
        <time>2021-03-27T12:09:26Z</time>
      </trkpt>
      <trkpt lat="46.15057" lon="6.30693">
        <ele>468</ele>
        <time>2021-03-27T12:09:25Z</time>
      </trkpt>
      <trkpt lat="46.15066" lon="6.30689">
        <ele>468.8</ele>
        <time>2021-03-27T12:09:24Z</time>
      </trkpt>
      <trkpt lat="46.15075" lon="6.30686">
        <ele>469.6</ele>
        <time>2021-03-27T12:09:23Z</time>
      </trkpt>
      <trkpt lat="46.15085" lon="6.30682">
        <ele>470</ele>
        <time>2021-03-27T12:09:22Z</time>
      </trkpt>
      <trkpt lat="46.15095" lon="6.30679">
        <ele>470.2</ele>
        <time>2021-03-27T12:09:21Z</time>
      </trkpt>
      <trkpt lat="46.15104" lon="6.30676">
        <ele>470.2</ele>
        <time>2021-03-27T12:09:20Z</time>
      </trkpt>
      <trkpt lat="46.15114" lon="6.30676">
        <ele>470.4</ele>
        <time>2021-03-27T12:09:19Z</time>
      </trkpt>
      <trkpt lat="46.15124" lon="6.30678">
        <ele>470.6</ele>
        <time>2021-03-27T12:09:18Z</time>
      </trkpt>
      <trkpt lat="46.15133" lon="6.30682">
        <ele>471.2</ele>
        <time>2021-03-27T12:09:17Z</time>
      </trkpt>
      <trkpt lat="46.15141" lon="6.30688">
        <ele>471.2</ele>
        <time>2021-03-27T12:09:16Z</time>
      </trkpt>
      <trkpt lat="46.15149" lon="6.30696">
        <ele>471.6</ele>
        <time>2021-03-27T12:09:15Z</time>
      </trkpt>
      <trkpt lat="46.15156" lon="6.30704">
        <ele>471.8</ele>
        <time>2021-03-27T12:09:14Z</time>
      </trkpt>
      <trkpt lat="46.15163" lon="6.30712">
        <ele>472.4</ele>
        <time>2021-03-27T12:09:13Z</time>
      </trkpt>
      <trkpt lat="46.1517" lon="6.3072">
        <ele>473</ele>
        <time>2021-03-27T12:09:12Z</time>
      </trkpt>
      <trkpt lat="46.15177" lon="6.30727">
        <ele>473.4</ele>
        <time>2021-03-27T12:09:11Z</time>
      </trkpt>
      <trkpt lat="46.15185" lon="6.30732">
        <ele>473.6</ele>
        <time>2021-03-27T12:09:10Z</time>
      </trkpt>
      <trkpt lat="46.15193" lon="6.30736">
        <ele>473.8</ele>
        <time>2021-03-27T12:09:09Z</time>
      </trkpt>
      <trkpt lat="46.15201" lon="6.30737">
        <ele>473.8</ele>
        <time>2021-03-27T12:09:08Z</time>
      </trkpt>
      <trkpt lat="46.1521" lon="6.30736">
        <ele>474</ele>
        <time>2021-03-27T12:09:07Z</time>
      </trkpt>
      <trkpt lat="46.15218" lon="6.30734">
        <ele>474</ele>
        <time>2021-03-27T12:09:06Z</time>
      </trkpt>
      <trkpt lat="46.15226" lon="6.30731">
        <ele>474.4</ele>
        <time>2021-03-27T12:09:05Z</time>
      </trkpt>
      <trkpt lat="46.15234" lon="6.30729">
        <ele>474.8</ele>
        <time>2021-03-27T12:09:04Z</time>
      </trkpt>
      <trkpt lat="46.15242" lon="6.30727">
        <ele>475.2</ele>
        <time>2021-03-27T12:09:03Z</time>
      </trkpt>
      <trkpt lat="46.1525" lon="6.30724">
        <ele>475.8</ele>
        <time>2021-03-27T12:09:02Z</time>
      </trkpt>
      <trkpt lat="46.15258" lon="6.30722">
        <ele>476</ele>
        <time>2021-03-27T12:09:01Z</time>
      </trkpt>
      <trkpt lat="46.15266" lon="6.30719">
        <ele>476.2</ele>
        <time>2021-03-27T12:09:00Z</time>
      </trkpt>
      <trkpt lat="46.15273" lon="6.30717">
        <ele>476.4</ele>
        <time>2021-03-27T12:08:59Z</time>
      </trkpt>
      <trkpt lat="46.15281" lon="6.30715">
        <ele>476.4</ele>
        <time>2021-03-27T12:08:58Z</time>
      </trkpt>
      <trkpt lat="46.15288" lon="6.30712">
        <ele>476.8</ele>
        <time>2021-03-27T12:08:57Z</time>
      </trkpt>
      <trkpt lat="46.15296" lon="6.3071">
        <ele>477</ele>
        <time>2021-03-27T12:08:56Z</time>
      </trkpt>
      <trkpt lat="46.15303" lon="6.30709">
        <ele>477.4</ele>
        <time>2021-03-27T12:08:55Z</time>
      </trkpt>
      <trkpt lat="46.15311" lon="6.3071">
        <ele>477.6</ele>
        <time>2021-03-27T12:08:54Z</time>
      </trkpt>
      <trkpt lat="46.15318" lon="6.30712">
        <ele>478.2</ele>
        <time>2021-03-27T12:08:53Z</time>
      </trkpt>
      <trkpt lat="46.15326" lon="6.30715">
        <ele>478.2</ele>
        <time>2021-03-27T12:08:52Z</time>
      </trkpt>
      <trkpt lat="46.15333" lon="6.30718">
        <ele>478.4</ele>
        <time>2021-03-27T12:08:51Z</time>
      </trkpt>
      <trkpt lat="46.1534" lon="6.30719">
        <ele>478.4</ele>
        <time>2021-03-27T12:08:50Z</time>
      </trkpt>
      <trkpt lat="46.15347" lon="6.30718">
        <ele>478.6</ele>
        <time>2021-03-27T12:08:49Z</time>
      </trkpt>
      <trkpt lat="46.15352" lon="6.30714">
        <ele>478.4</ele>
        <time>2021-03-27T12:08:48Z</time>
      </trkpt>
      <trkpt lat="46.15358" lon="6.30708">
        <ele>478.6</ele>
        <time>2021-03-27T12:08:47Z</time>
      </trkpt>
      <trkpt lat="46.15364" lon="6.30701">
        <ele>478.6</ele>
        <time>2021-03-27T12:08:46Z</time>
      </trkpt>
      <trkpt lat="46.1537" lon="6.30693">
        <ele>478.6</ele>
        <time>2021-03-27T12:08:45Z</time>
      </trkpt>
      <trkpt lat="46.15376" lon="6.30686">
        <ele>478.6</ele>
        <time>2021-03-27T12:08:44Z</time>
      </trkpt>
      <trkpt lat="46.15381" lon="6.30678">
        <ele>478.6</ele>
        <time>2021-03-27T12:08:43Z</time>
      </trkpt>
      <trkpt lat="46.15386" lon="6.30669">
        <ele>478.6</ele>
        <time>2021-03-27T12:08:42Z</time>
      </trkpt>
      <trkpt lat="46.1539" lon="6.3066">
        <ele>478.6</ele>
        <time>2021-03-27T12:08:41Z</time>
      </trkpt>
      <trkpt lat="46.15394" lon="6.30651">
        <ele>478.4</ele>
        <time>2021-03-27T12:08:40Z</time>
      </trkpt>
      <trkpt lat="46.15397" lon="6.30641">
        <ele>478.4</ele>
        <time>2021-03-27T12:08:39Z</time>
      </trkpt>
      <trkpt lat="46.154" lon="6.3063">
        <ele>478.2</ele>
        <time>2021-03-27T12:08:38Z</time>
      </trkpt>
      <trkpt lat="46.15402" lon="6.3062">
        <ele>478.2</ele>
        <time>2021-03-27T12:08:37Z</time>
      </trkpt>
      <trkpt lat="46.15405" lon="6.3061">
        <ele>478</ele>
        <time>2021-03-27T12:08:36Z</time>
      </trkpt>
      <trkpt lat="46.15407" lon="6.30599">
        <ele>478</ele>
        <time>2021-03-27T12:08:35Z</time>
      </trkpt>
      <trkpt lat="46.1541" lon="6.30589">
        <ele>478</ele>
        <time>2021-03-27T12:08:34Z</time>
      </trkpt>
      <trkpt lat="46.15413" lon="6.30578">
        <ele>477.8</ele>
        <time>2021-03-27T12:08:33Z</time>
      </trkpt>
      <trkpt lat="46.15416" lon="6.30568">
        <ele>477.8</ele>
        <time>2021-03-27T12:08:32Z</time>
      </trkpt>
      <trkpt lat="46.15419" lon="6.30558">
        <ele>477.6</ele>
        <time>2021-03-27T12:08:31Z</time>
      </trkpt>
      <trkpt lat="46.15421" lon="6.30547">
        <ele>477.6</ele>
        <time>2021-03-27T12:08:30Z</time>
      </trkpt>
      <trkpt lat="46.15424" lon="6.30536">
        <ele>477.6</ele>
        <time>2021-03-27T12:08:29Z</time>
      </trkpt>
      <trkpt lat="46.15426" lon="6.30525">
        <ele>477.4</ele>
        <time>2021-03-27T12:08:28Z</time>
      </trkpt>
      <trkpt lat="46.15427" lon="6.30514">
        <ele>477.2</ele>
        <time>2021-03-27T12:08:27Z</time>
      </trkpt>
      <trkpt lat="46.15428" lon="6.30503">
        <ele>477</ele>
        <time>2021-03-27T12:08:26Z</time>
      </trkpt>
      <trkpt lat="46.15429" lon="6.30491">
        <ele>477</ele>
        <time>2021-03-27T12:08:25Z</time>
      </trkpt>
      <trkpt lat="46.1543" lon="6.30479">
        <ele>477.2</ele>
        <time>2021-03-27T12:08:24Z</time>
      </trkpt>
      <trkpt lat="46.15432" lon="6.30467">
        <ele>477.2</ele>
        <time>2021-03-27T12:08:23Z</time>
      </trkpt>
      <trkpt lat="46.15434" lon="6.30456">
        <ele>477.2</ele>
        <time>2021-03-27T12:08:22Z</time>
      </trkpt>
      <trkpt lat="46.15436" lon="6.30444">
        <ele>477.2</ele>
        <time>2021-03-27T12:08:21Z</time>
      </trkpt>
      <trkpt lat="46.15439" lon="6.30433">
        <ele>477</ele>
        <time>2021-03-27T12:08:20Z</time>
      </trkpt>
      <trkpt lat="46.15442" lon="6.30422">
        <ele>477.2</ele>
        <time>2021-03-27T12:08:19Z</time>
      </trkpt>
      <trkpt lat="46.15445" lon="6.30411">
        <ele>477</ele>
        <time>2021-03-27T12:08:18Z</time>
      </trkpt>
      <trkpt lat="46.15448" lon="6.304">
        <ele>477</ele>
        <time>2021-03-27T12:08:17Z</time>
      </trkpt>
      <trkpt lat="46.1545" lon="6.30388">
        <ele>477</ele>
        <time>2021-03-27T12:08:16Z</time>
      </trkpt>
      <trkpt lat="46.15454" lon="6.30377">
        <ele>477</ele>
        <time>2021-03-27T12:08:15Z</time>
      </trkpt>
      <trkpt lat="46.15457" lon="6.30366">
        <ele>477</ele>
        <time>2021-03-27T12:08:14Z</time>
      </trkpt>
      <trkpt lat="46.15459" lon="6.30354">
        <ele>477</ele>
        <time>2021-03-27T12:08:13Z</time>
      </trkpt>
      <trkpt lat="46.15463" lon="6.30342">
        <ele>477</ele>
        <time>2021-03-27T12:08:12Z</time>
      </trkpt>
      <trkpt lat="46.15466" lon="6.3033">
        <ele>476.8</ele>
        <time>2021-03-27T12:08:11Z</time>
      </trkpt>
      <trkpt lat="46.15469" lon="6.30318">
        <ele>476.8</ele>
        <time>2021-03-27T12:08:10Z</time>
      </trkpt>
      <trkpt lat="46.15472" lon="6.30306">
        <ele>476.6</ele>
        <time>2021-03-27T12:08:09Z</time>
      </trkpt>
      <trkpt lat="46.15475" lon="6.30294">
        <ele>476.8</ele>
        <time>2021-03-27T12:08:08Z</time>
      </trkpt>
      <trkpt lat="46.15477" lon="6.30282">
        <ele>476.6</ele>
        <time>2021-03-27T12:08:07Z</time>
      </trkpt>
      <trkpt lat="46.15479" lon="6.3027">
        <ele>476.6</ele>
        <time>2021-03-27T12:08:06Z</time>
      </trkpt>
      <trkpt lat="46.15482" lon="6.30259">
        <ele>476.6</ele>
        <time>2021-03-27T12:08:05Z</time>
      </trkpt>
      <trkpt lat="46.15484" lon="6.30248">
        <ele>476.4</ele>
        <time>2021-03-27T12:08:04Z</time>
      </trkpt>
      <trkpt lat="46.15486" lon="6.30237">
        <ele>476.6</ele>
        <time>2021-03-27T12:08:03Z</time>
      </trkpt>
      <trkpt lat="46.15489" lon="6.30226">
        <ele>476.4</ele>
        <time>2021-03-27T12:08:02Z</time>
      </trkpt>
      <trkpt lat="46.15491" lon="6.30215">
        <ele>476.4</ele>
        <time>2021-03-27T12:08:01Z</time>
      </trkpt>
      <trkpt lat="46.15494" lon="6.30205">
        <ele>476.2</ele>
        <time>2021-03-27T12:08:00Z</time>
      </trkpt>
      <trkpt lat="46.15496" lon="6.30194">
        <ele>476.2</ele>
        <time>2021-03-27T12:07:59Z</time>
      </trkpt>
      <trkpt lat="46.15498" lon="6.30183">
        <ele>476.2</ele>
        <time>2021-03-27T12:07:58Z</time>
      </trkpt>
      <trkpt lat="46.155" lon="6.30173">
        <ele>476</ele>
        <time>2021-03-27T12:07:57Z</time>
      </trkpt>
      <trkpt lat="46.15502" lon="6.30163">
        <ele>476</ele>
        <time>2021-03-27T12:07:56Z</time>
      </trkpt>
      <trkpt lat="46.15504" lon="6.30152">
        <ele>476</ele>
        <time>2021-03-27T12:07:55Z</time>
      </trkpt>
      <trkpt lat="46.15506" lon="6.30141">
        <ele>476</ele>
        <time>2021-03-27T12:07:54Z</time>
      </trkpt>
      <trkpt lat="46.15509" lon="6.30131">
        <ele>475.8</ele>
        <time>2021-03-27T12:07:53Z</time>
      </trkpt>
      <trkpt lat="46.15511" lon="6.30121">
        <ele>475.6</ele>
        <time>2021-03-27T12:07:52Z</time>
      </trkpt>
      <trkpt lat="46.15514" lon="6.3011">
        <ele>475.6</ele>
        <time>2021-03-27T12:07:51Z</time>
      </trkpt>
      <trkpt lat="46.15516" lon="6.301">
        <ele>475.6</ele>
        <time>2021-03-27T12:07:50Z</time>
      </trkpt>
      <trkpt lat="46.15518" lon="6.30089">
        <ele>475.6</ele>
        <time>2021-03-27T12:07:49Z</time>
      </trkpt>
      <trkpt lat="46.15521" lon="6.30078">
        <ele>475.4</ele>
        <time>2021-03-27T12:07:48Z</time>
      </trkpt>
      <trkpt lat="46.15523" lon="6.30067">
        <ele>475.4</ele>
        <time>2021-03-27T12:07:47Z</time>
      </trkpt>
      <trkpt lat="46.15525" lon="6.30057">
        <ele>475.4</ele>
        <time>2021-03-27T12:07:46Z</time>
      </trkpt>
      <trkpt lat="46.15528" lon="6.30046">
        <ele>475.4</ele>
        <time>2021-03-27T12:07:45Z</time>
      </trkpt>
      <trkpt lat="46.1553" lon="6.30035">
        <ele>475.4</ele>
        <time>2021-03-27T12:07:44Z</time>
      </trkpt>
      <trkpt lat="46.15533" lon="6.30024">
        <ele>475.4</ele>
        <time>2021-03-27T12:07:43Z</time>
      </trkpt>
      <trkpt lat="46.15535" lon="6.30012">
        <ele>475.4</ele>
        <time>2021-03-27T12:07:42Z</time>
      </trkpt>
      <trkpt lat="46.15537" lon="6.30001">
        <ele>475.2</ele>
        <time>2021-03-27T12:07:41Z</time>
      </trkpt>
      <trkpt lat="46.1554" lon="6.2999">
        <ele>475.4</ele>
        <time>2021-03-27T12:07:40Z</time>
      </trkpt>
      <trkpt lat="46.15542" lon="6.29978">
        <ele>475.4</ele>
        <time>2021-03-27T12:07:39Z</time>
      </trkpt>
      <trkpt lat="46.15544" lon="6.29967">
        <ele>475.6</ele>
        <time>2021-03-27T12:07:38Z</time>
      </trkpt>
      <trkpt lat="46.15547" lon="6.29955">
        <ele>475.6</ele>
        <time>2021-03-27T12:07:37Z</time>
      </trkpt>
      <trkpt lat="46.1555" lon="6.29943">
        <ele>475.4</ele>
        <time>2021-03-27T12:07:36Z</time>
      </trkpt>
      <trkpt lat="46.15553" lon="6.29931">
        <ele>475.6</ele>
        <time>2021-03-27T12:07:35Z</time>
      </trkpt>
      <trkpt lat="46.15555" lon="6.29919">
        <ele>475.6</ele>
        <time>2021-03-27T12:07:34Z</time>
      </trkpt>
      <trkpt lat="46.15558" lon="6.29907">
        <ele>475.8</ele>
        <time>2021-03-27T12:07:33Z</time>
      </trkpt>
      <trkpt lat="46.15561" lon="6.29895">
        <ele>475.6</ele>
        <time>2021-03-27T12:07:32Z</time>
      </trkpt>
      <trkpt lat="46.15563" lon="6.29883">
        <ele>475.8</ele>
        <time>2021-03-27T12:07:31Z</time>
      </trkpt>
      <trkpt lat="46.15565" lon="6.29871">
        <ele>475.6</ele>
        <time>2021-03-27T12:07:30Z</time>
      </trkpt>
      <trkpt lat="46.15567" lon="6.29859">
        <ele>475.6</ele>
        <time>2021-03-27T12:07:29Z</time>
      </trkpt>
      <trkpt lat="46.15569" lon="6.29847">
        <ele>475.6</ele>
        <time>2021-03-27T12:07:28Z</time>
      </trkpt>
      <trkpt lat="46.15571" lon="6.29835">
        <ele>475.6</ele>
        <time>2021-03-27T12:07:27Z</time>
      </trkpt>
      <trkpt lat="46.15574" lon="6.29824">
        <ele>475.8</ele>
        <time>2021-03-27T12:07:26Z</time>
      </trkpt>
      <trkpt lat="46.15577" lon="6.29813">
        <ele>475.6</ele>
        <time>2021-03-27T12:07:25Z</time>
      </trkpt>
      <trkpt lat="46.1558" lon="6.29802">
        <ele>475.6</ele>
        <time>2021-03-27T12:07:24Z</time>
      </trkpt>
      <trkpt lat="46.15583" lon="6.29791">
        <ele>475.8</ele>
        <time>2021-03-27T12:07:23Z</time>
      </trkpt>
      <trkpt lat="46.15585" lon="6.2978">
        <ele>475.8</ele>
        <time>2021-03-27T12:07:22Z</time>
      </trkpt>
      <trkpt lat="46.15587" lon="6.29769">
        <ele>475.8</ele>
        <time>2021-03-27T12:07:21Z</time>
      </trkpt>
      <trkpt lat="46.1559" lon="6.29759">
        <ele>475.8</ele>
        <time>2021-03-27T12:07:20Z</time>
      </trkpt>
      <trkpt lat="46.15592" lon="6.29748">
        <ele>475.8</ele>
        <time>2021-03-27T12:07:19Z</time>
      </trkpt>
      <trkpt lat="46.15594" lon="6.29737">
        <ele>476.2</ele>
        <time>2021-03-27T12:07:18Z</time>
      </trkpt>
      <trkpt lat="46.15597" lon="6.29726">
        <ele>476.2</ele>
        <time>2021-03-27T12:07:17Z</time>
      </trkpt>
      <trkpt lat="46.15599" lon="6.29715">
        <ele>476.4</ele>
        <time>2021-03-27T12:07:16Z</time>
      </trkpt>
      <trkpt lat="46.15601" lon="6.29704">
        <ele>476.6</ele>
        <time>2021-03-27T12:07:15Z</time>
      </trkpt>
      <trkpt lat="46.15604" lon="6.29693">
        <ele>476.6</ele>
        <time>2021-03-27T12:07:14Z</time>
      </trkpt>
      <trkpt lat="46.15606" lon="6.29682">
        <ele>476.8</ele>
        <time>2021-03-27T12:07:13Z</time>
      </trkpt>
      <trkpt lat="46.15609" lon="6.29671">
        <ele>477</ele>
        <time>2021-03-27T12:07:12Z</time>
      </trkpt>
      <trkpt lat="46.15611" lon="6.29659">
        <ele>477</ele>
        <time>2021-03-27T12:07:11Z</time>
      </trkpt>
      <trkpt lat="46.15613" lon="6.29648">
        <ele>477</ele>
        <time>2021-03-27T12:07:10Z</time>
      </trkpt>
      <trkpt lat="46.15616" lon="6.29637">
        <ele>477.2</ele>
        <time>2021-03-27T12:07:09Z</time>
      </trkpt>
      <trkpt lat="46.15618" lon="6.29625">
        <ele>477</ele>
        <time>2021-03-27T12:07:08Z</time>
      </trkpt>
      <trkpt lat="46.15621" lon="6.29614">
        <ele>477.2</ele>
        <time>2021-03-27T12:07:07Z</time>
      </trkpt>
      <trkpt lat="46.15623" lon="6.29603">
        <ele>477.2</ele>
        <time>2021-03-27T12:07:06Z</time>
      </trkpt>
      <trkpt lat="46.15625" lon="6.29592">
        <ele>477.4</ele>
        <time>2021-03-27T12:07:05Z</time>
      </trkpt>
      <trkpt lat="46.15628" lon="6.2958">
        <ele>477.4</ele>
        <time>2021-03-27T12:07:04Z</time>
      </trkpt>
      <trkpt lat="46.1563" lon="6.29569">
        <ele>477.4</ele>
        <time>2021-03-27T12:07:03Z</time>
      </trkpt>
      <trkpt lat="46.15633" lon="6.29557">
        <ele>477.2</ele>
        <time>2021-03-27T12:07:02Z</time>
      </trkpt>
      <trkpt lat="46.15635" lon="6.29545">
        <ele>477.4</ele>
        <time>2021-03-27T12:07:01Z</time>
      </trkpt>
      <trkpt lat="46.15638" lon="6.29534">
        <ele>477.4</ele>
        <time>2021-03-27T12:07:00Z</time>
      </trkpt>
      <trkpt lat="46.1564" lon="6.29522">
        <ele>477.2</ele>
        <time>2021-03-27T12:06:59Z</time>
      </trkpt>
      <trkpt lat="46.15643" lon="6.29511">
        <ele>477.4</ele>
        <time>2021-03-27T12:06:58Z</time>
      </trkpt>
      <trkpt lat="46.15645" lon="6.295">
        <ele>477.2</ele>
        <time>2021-03-27T12:06:57Z</time>
      </trkpt>
      <trkpt lat="46.15648" lon="6.29488">
        <ele>477.2</ele>
        <time>2021-03-27T12:06:56Z</time>
      </trkpt>
      <trkpt lat="46.1565" lon="6.29477">
        <ele>477.2</ele>
        <time>2021-03-27T12:06:55Z</time>
      </trkpt>
      <trkpt lat="46.15652" lon="6.29466">
        <ele>477.2</ele>
        <time>2021-03-27T12:06:54Z</time>
      </trkpt>
      <trkpt lat="46.15654" lon="6.29454">
        <ele>477.2</ele>
        <time>2021-03-27T12:06:53Z</time>
      </trkpt>
      <trkpt lat="46.15656" lon="6.29443">
        <ele>477.2</ele>
        <time>2021-03-27T12:06:52Z</time>
      </trkpt>
      <trkpt lat="46.15659" lon="6.29432">
        <ele>477</ele>
        <time>2021-03-27T12:06:51Z</time>
      </trkpt>
      <trkpt lat="46.15661" lon="6.29421">
        <ele>476.8</ele>
        <time>2021-03-27T12:06:50Z</time>
      </trkpt>
      <trkpt lat="46.15664" lon="6.2941">
        <ele>476.8</ele>
        <time>2021-03-27T12:06:49Z</time>
      </trkpt>
      <trkpt lat="46.15666" lon="6.29399">
        <ele>476.6</ele>
        <time>2021-03-27T12:06:48Z</time>
      </trkpt>
      <trkpt lat="46.15669" lon="6.29388">
        <ele>476.6</ele>
        <time>2021-03-27T12:06:47Z</time>
      </trkpt>
      <trkpt lat="46.15671" lon="6.29377">
        <ele>476.2</ele>
        <time>2021-03-27T12:06:46Z</time>
      </trkpt>
      <trkpt lat="46.15673" lon="6.29366">
        <ele>476.2</ele>
        <time>2021-03-27T12:06:45Z</time>
      </trkpt>
      <trkpt lat="46.15676" lon="6.29356">
        <ele>475.8</ele>
        <time>2021-03-27T12:06:44Z</time>
      </trkpt>
      <trkpt lat="46.15678" lon="6.29345">
        <ele>475.8</ele>
        <time>2021-03-27T12:06:43Z</time>
      </trkpt>
      <trkpt lat="46.1568" lon="6.29334">
        <ele>475.8</ele>
        <time>2021-03-27T12:06:42Z</time>
      </trkpt>
      <trkpt lat="46.15683" lon="6.29324">
        <ele>475.6</ele>
        <time>2021-03-27T12:06:41Z</time>
      </trkpt>
      <trkpt lat="46.15685" lon="6.29314">
        <ele>475.6</ele>
        <time>2021-03-27T12:06:40Z</time>
      </trkpt>
      <trkpt lat="46.15688" lon="6.29304">
        <ele>475.4</ele>
        <time>2021-03-27T12:06:39Z</time>
      </trkpt>
      <trkpt lat="46.1569" lon="6.29293">
        <ele>475.6</ele>
        <time>2021-03-27T12:06:38Z</time>
      </trkpt>
      <trkpt lat="46.15692" lon="6.29282">
        <ele>475.6</ele>
        <time>2021-03-27T12:06:37Z</time>
      </trkpt>
      <trkpt lat="46.15694" lon="6.29271">
        <ele>475.4</ele>
        <time>2021-03-27T12:06:36Z</time>
      </trkpt>
      <trkpt lat="46.15696" lon="6.29261">
        <ele>475.2</ele>
        <time>2021-03-27T12:06:35Z</time>
      </trkpt>
      <trkpt lat="46.15699" lon="6.2925">
        <ele>475</ele>
        <time>2021-03-27T12:06:34Z</time>
      </trkpt>
      <trkpt lat="46.15701" lon="6.29239">
        <ele>475.2</ele>
        <time>2021-03-27T12:06:33Z</time>
      </trkpt>
      <trkpt lat="46.15703" lon="6.29228">
        <ele>475</ele>
        <time>2021-03-27T12:06:32Z</time>
      </trkpt>
      <trkpt lat="46.15706" lon="6.29217">
        <ele>475</ele>
        <time>2021-03-27T12:06:31Z</time>
      </trkpt>
      <trkpt lat="46.15708" lon="6.29206">
        <ele>475.2</ele>
        <time>2021-03-27T12:06:30Z</time>
      </trkpt>
      <trkpt lat="46.1571" lon="6.29195">
        <ele>475.2</ele>
        <time>2021-03-27T12:06:29Z</time>
      </trkpt>
      <trkpt lat="46.15712" lon="6.29185">
        <ele>475</ele>
        <time>2021-03-27T12:06:28Z</time>
      </trkpt>
      <trkpt lat="46.15714" lon="6.29174">
        <ele>475.2</ele>
        <time>2021-03-27T12:06:27Z</time>
      </trkpt>
      <trkpt lat="46.15717" lon="6.29163">
        <ele>475</ele>
        <time>2021-03-27T12:06:26Z</time>
      </trkpt>
      <trkpt lat="46.15719" lon="6.29152">
        <ele>475.2</ele>
        <time>2021-03-27T12:06:25Z</time>
      </trkpt>
      <trkpt lat="46.15721" lon="6.29141">
        <ele>475</ele>
        <time>2021-03-27T12:06:24Z</time>
      </trkpt>
      <trkpt lat="46.15724" lon="6.2913">
        <ele>475</ele>
        <time>2021-03-27T12:06:23Z</time>
      </trkpt>
      <trkpt lat="46.15726" lon="6.29119">
        <ele>474.8</ele>
        <time>2021-03-27T12:06:22Z</time>
      </trkpt>
      <trkpt lat="46.15728" lon="6.29109">
        <ele>474.8</ele>
        <time>2021-03-27T12:06:21Z</time>
      </trkpt>
      <trkpt lat="46.1573" lon="6.29098">
        <ele>474.8</ele>
        <time>2021-03-27T12:06:20Z</time>
      </trkpt>
      <trkpt lat="46.15732" lon="6.29087">
        <ele>474.6</ele>
        <time>2021-03-27T12:06:19Z</time>
      </trkpt>
      <trkpt lat="46.15735" lon="6.29076">
        <ele>474.6</ele>
        <time>2021-03-27T12:06:18Z</time>
      </trkpt>
      <trkpt lat="46.15737" lon="6.29066">
        <ele>474.6</ele>
        <time>2021-03-27T12:06:17Z</time>
      </trkpt>
      <trkpt lat="46.15739" lon="6.29056">
        <ele>474.8</ele>
        <time>2021-03-27T12:06:16Z</time>
      </trkpt>
      <trkpt lat="46.15741" lon="6.29046">
        <ele>474.8</ele>
        <time>2021-03-27T12:06:15Z</time>
      </trkpt>
      <trkpt lat="46.15744" lon="6.29036">
        <ele>474.8</ele>
        <time>2021-03-27T12:06:14Z</time>
      </trkpt>
      <trkpt lat="46.15746" lon="6.29025">
        <ele>474.8</ele>
        <time>2021-03-27T12:06:13Z</time>
      </trkpt>
      <trkpt lat="46.15748" lon="6.29016">
        <ele>474.8</ele>
        <time>2021-03-27T12:06:12Z</time>
      </trkpt>
      <trkpt lat="46.15751" lon="6.29006">
        <ele>474.6</ele>
        <time>2021-03-27T12:06:11Z</time>
      </trkpt>
      <trkpt lat="46.15753" lon="6.28996">
        <ele>474.4</ele>
        <time>2021-03-27T12:06:10Z</time>
      </trkpt>
      <trkpt lat="46.15755" lon="6.28987">
        <ele>474.6</ele>
        <time>2021-03-27T12:06:09Z</time>
      </trkpt>
      <trkpt lat="46.15757" lon="6.28978">
        <ele>474.4</ele>
        <time>2021-03-27T12:06:08Z</time>
      </trkpt>
      <trkpt lat="46.1576" lon="6.28968">
        <ele>474.2</ele>
        <time>2021-03-27T12:06:07Z</time>
      </trkpt>
      <trkpt lat="46.15762" lon="6.28959">
        <ele>474.2</ele>
        <time>2021-03-27T12:06:06Z</time>
      </trkpt>
      <trkpt lat="46.15764" lon="6.28949">
        <ele>473.8</ele>
        <time>2021-03-27T12:06:05Z</time>
      </trkpt>
      <trkpt lat="46.15766" lon="6.2894">
        <ele>473.4</ele>
        <time>2021-03-27T12:06:04Z</time>
      </trkpt>
      <trkpt lat="46.15768" lon="6.28931">
        <ele>472.6</ele>
        <time>2021-03-27T12:06:03Z</time>
      </trkpt>
      <trkpt lat="46.1577" lon="6.28922">
        <ele>472.6</ele>
        <time>2021-03-27T12:06:02Z</time>
      </trkpt>
      <trkpt lat="46.15772" lon="6.28914">
        <ele>472.4</ele>
        <time>2021-03-27T12:06:01Z</time>
      </trkpt>
      <trkpt lat="46.15773" lon="6.28906">
        <ele>472.6</ele>
        <time>2021-03-27T12:06:00Z</time>
      </trkpt>
      <trkpt lat="46.15775" lon="6.28897">
        <ele>472.6</ele>
        <time>2021-03-27T12:05:59Z</time>
      </trkpt>
      <trkpt lat="46.15777" lon="6.28888">
        <ele>472.2</ele>
        <time>2021-03-27T12:05:58Z</time>
      </trkpt>
      <trkpt lat="46.15778" lon="6.28878">
        <ele>472.4</ele>
        <time>2021-03-27T12:05:57Z</time>
      </trkpt>
      <trkpt lat="46.1578" lon="6.28868">
        <ele>472.4</ele>
        <time>2021-03-27T12:05:56Z</time>
      </trkpt>
      <trkpt lat="46.15783" lon="6.28858">
        <ele>472.4</ele>
        <time>2021-03-27T12:05:55Z</time>
      </trkpt>
      <trkpt lat="46.15786" lon="6.28848">
        <ele>472.6</ele>
        <time>2021-03-27T12:05:54Z</time>
      </trkpt>
      <trkpt lat="46.15788" lon="6.28837">
        <ele>472.6</ele>
        <time>2021-03-27T12:05:53Z</time>
      </trkpt>
      <trkpt lat="46.15791" lon="6.28826">
        <ele>472.6</ele>
        <time>2021-03-27T12:05:52Z</time>
      </trkpt>
      <trkpt lat="46.15793" lon="6.28815">
        <ele>473</ele>
        <time>2021-03-27T12:05:51Z</time>
      </trkpt>
      <trkpt lat="46.15796" lon="6.28803">
        <ele>473.2</ele>
        <time>2021-03-27T12:05:50Z</time>
      </trkpt>
      <trkpt lat="46.15799" lon="6.28791">
        <ele>473.4</ele>
        <time>2021-03-27T12:05:49Z</time>
      </trkpt>
      <trkpt lat="46.15802" lon="6.28779">
        <ele>473.6</ele>
        <time>2021-03-27T12:05:48Z</time>
      </trkpt>
      <trkpt lat="46.15805" lon="6.28767">
        <ele>474</ele>
        <time>2021-03-27T12:05:47Z</time>
      </trkpt>
      <trkpt lat="46.15808" lon="6.28755">
        <ele>474.2</ele>
        <time>2021-03-27T12:05:46Z</time>
      </trkpt>
      <trkpt lat="46.1581" lon="6.28743">
        <ele>474.4</ele>
        <time>2021-03-27T12:05:45Z</time>
      </trkpt>
      <trkpt lat="46.15813" lon="6.28731">
        <ele>474.8</ele>
        <time>2021-03-27T12:05:44Z</time>
      </trkpt>
      <trkpt lat="46.15816" lon="6.28718">
        <ele>475</ele>
        <time>2021-03-27T12:05:43Z</time>
      </trkpt>
      <trkpt lat="46.15819" lon="6.28705">
        <ele>475.2</ele>
        <time>2021-03-27T12:05:42Z</time>
      </trkpt>
      <trkpt lat="46.15822" lon="6.28692">
        <ele>475.4</ele>
        <time>2021-03-27T12:05:41Z</time>
      </trkpt>
      <trkpt lat="46.15825" lon="6.28679">
        <ele>475.6</ele>
        <time>2021-03-27T12:05:40Z</time>
      </trkpt>
      <trkpt lat="46.15828" lon="6.28665">
        <ele>476.2</ele>
        <time>2021-03-27T12:05:39Z</time>
      </trkpt>
      <trkpt lat="46.15831" lon="6.28652">
        <ele>477</ele>
        <time>2021-03-27T12:05:38Z</time>
      </trkpt>
      <trkpt lat="46.15834" lon="6.28639">
        <ele>477.4</ele>
        <time>2021-03-27T12:05:37Z</time>
      </trkpt>
      <trkpt lat="46.15837" lon="6.28626">
        <ele>477.4</ele>
        <time>2021-03-27T12:05:36Z</time>
      </trkpt>
      <trkpt lat="46.1584" lon="6.28612">
        <ele>477.4</ele>
        <time>2021-03-27T12:05:35Z</time>
      </trkpt>
      <trkpt lat="46.15843" lon="6.286">
        <ele>477.6</ele>
        <time>2021-03-27T12:05:34Z</time>
      </trkpt>
      <trkpt lat="46.15845" lon="6.28587">
        <ele>477.6</ele>
        <time>2021-03-27T12:05:33Z</time>
      </trkpt>
      <trkpt lat="46.15848" lon="6.28574">
        <ele>477.8</ele>
        <time>2021-03-27T12:05:32Z</time>
      </trkpt>
      <trkpt lat="46.1585" lon="6.28562">
        <ele>477.8</ele>
        <time>2021-03-27T12:05:31Z</time>
      </trkpt>
      <trkpt lat="46.15853" lon="6.28549">
        <ele>477.8</ele>
        <time>2021-03-27T12:05:30Z</time>
      </trkpt>
      <trkpt lat="46.15856" lon="6.28537">
        <ele>478</ele>
        <time>2021-03-27T12:05:29Z</time>
      </trkpt>
      <trkpt lat="46.15858" lon="6.28524">
        <ele>477.8</ele>
        <time>2021-03-27T12:05:28Z</time>
      </trkpt>
      <trkpt lat="46.15861" lon="6.28512">
        <ele>478</ele>
        <time>2021-03-27T12:05:27Z</time>
      </trkpt>
      <trkpt lat="46.15863" lon="6.285">
        <ele>478.2</ele>
        <time>2021-03-27T12:05:26Z</time>
      </trkpt>
      <trkpt lat="46.15866" lon="6.28488">
        <ele>478.6</ele>
        <time>2021-03-27T12:05:25Z</time>
      </trkpt>
      <trkpt lat="46.15869" lon="6.28476">
        <ele>478.6</ele>
        <time>2021-03-27T12:05:24Z</time>
      </trkpt>
      <trkpt lat="46.15872" lon="6.28464">
        <ele>479</ele>
        <time>2021-03-27T12:05:23Z</time>
      </trkpt>
      <trkpt lat="46.15875" lon="6.28452">
        <ele>479.2</ele>
        <time>2021-03-27T12:05:22Z</time>
      </trkpt>
      <trkpt lat="46.15878" lon="6.28441">
        <ele>479.4</ele>
        <time>2021-03-27T12:05:21Z</time>
      </trkpt>
      <trkpt lat="46.15882" lon="6.2843">
        <ele>479.6</ele>
        <time>2021-03-27T12:05:20Z</time>
      </trkpt>
      <trkpt lat="46.15885" lon="6.28419">
        <ele>479.6</ele>
        <time>2021-03-27T12:05:19Z</time>
      </trkpt>
      <trkpt lat="46.15889" lon="6.28409">
        <ele>479.8</ele>
        <time>2021-03-27T12:05:18Z</time>
      </trkpt>
      <trkpt lat="46.15893" lon="6.28399">
        <ele>480</ele>
        <time>2021-03-27T12:05:17Z</time>
      </trkpt>
      <trkpt lat="46.15898" lon="6.2839">
        <ele>480.2</ele>
        <time>2021-03-27T12:05:16Z</time>
      </trkpt>
      <trkpt lat="46.15902" lon="6.28381">
        <ele>480.4</ele>
        <time>2021-03-27T12:05:15Z</time>
      </trkpt>
      <trkpt lat="46.15907" lon="6.28372">
        <ele>480.6</ele>
        <time>2021-03-27T12:05:14Z</time>
      </trkpt>
      <trkpt lat="46.15911" lon="6.28363">
        <ele>480.8</ele>
        <time>2021-03-27T12:05:13Z</time>
      </trkpt>
      <trkpt lat="46.15916" lon="6.28354">
        <ele>480.8</ele>
        <time>2021-03-27T12:05:12Z</time>
      </trkpt>
      <trkpt lat="46.15921" lon="6.28345">
        <ele>481</ele>
        <time>2021-03-27T12:05:11Z</time>
      </trkpt>
      <trkpt lat="46.15926" lon="6.28336">
        <ele>481.2</ele>
        <time>2021-03-27T12:05:10Z</time>
      </trkpt>
      <trkpt lat="46.15931" lon="6.28327">
        <ele>481.2</ele>
        <time>2021-03-27T12:05:09Z</time>
      </trkpt>
      <trkpt lat="46.15936" lon="6.28317">
        <ele>481.2</ele>
        <time>2021-03-27T12:05:08Z</time>
      </trkpt>
      <trkpt lat="46.15941" lon="6.28309">
        <ele>481.4</ele>
        <time>2021-03-27T12:05:07Z</time>
      </trkpt>
      <trkpt lat="46.15946" lon="6.283">
        <ele>481.2</ele>
        <time>2021-03-27T12:05:06Z</time>
      </trkpt>
      <trkpt lat="46.1595" lon="6.28291">
        <ele>481.2</ele>
        <time>2021-03-27T12:05:05Z</time>
      </trkpt>
      <trkpt lat="46.15955" lon="6.28282">
        <ele>481.2</ele>
        <time>2021-03-27T12:05:04Z</time>
      </trkpt>
      <trkpt lat="46.15959" lon="6.28273">
        <ele>481.4</ele>
        <time>2021-03-27T12:05:03Z</time>
      </trkpt>
      <trkpt lat="46.15964" lon="6.28265">
        <ele>481.2</ele>
        <time>2021-03-27T12:05:02Z</time>
      </trkpt>
      <trkpt lat="46.15969" lon="6.28256">
        <ele>481.2</ele>
        <time>2021-03-27T12:05:01Z</time>
      </trkpt>
      <trkpt lat="46.15975" lon="6.28247">
        <ele>481</ele>
        <time>2021-03-27T12:05:00Z</time>
      </trkpt>
      <trkpt lat="46.1598" lon="6.28237">
        <ele>481.2</ele>
        <time>2021-03-27T12:04:59Z</time>
      </trkpt>
      <trkpt lat="46.15985" lon="6.28228">
        <ele>481</ele>
        <time>2021-03-27T12:04:58Z</time>
      </trkpt>
      <trkpt lat="46.15989" lon="6.28218">
        <ele>481</ele>
        <time>2021-03-27T12:04:57Z</time>
      </trkpt>
      <trkpt lat="46.15993" lon="6.28208">
        <ele>481</ele>
        <time>2021-03-27T12:04:56Z</time>
      </trkpt>
      <trkpt lat="46.15998" lon="6.28199">
        <ele>481</ele>
        <time>2021-03-27T12:04:55Z</time>
      </trkpt>
      <trkpt lat="46.16002" lon="6.28189">
        <ele>480.8</ele>
        <time>2021-03-27T12:04:54Z</time>
      </trkpt>
      <trkpt lat="46.16006" lon="6.28179">
        <ele>480.8</ele>
        <time>2021-03-27T12:04:53Z</time>
      </trkpt>
      <trkpt lat="46.16009" lon="6.2817">
        <ele>480.6</ele>
        <time>2021-03-27T12:04:52Z</time>
      </trkpt>
      <trkpt lat="46.16013" lon="6.2816">
        <ele>480.6</ele>
        <time>2021-03-27T12:04:51Z</time>
      </trkpt>
      <trkpt lat="46.16016" lon="6.2815">
        <ele>480.4</ele>
        <time>2021-03-27T12:04:50Z</time>
      </trkpt>
      <trkpt lat="46.1602" lon="6.28141">
        <ele>480.4</ele>
        <time>2021-03-27T12:04:49Z</time>
      </trkpt>
      <trkpt lat="46.16024" lon="6.28131">
        <ele>480.4</ele>
        <time>2021-03-27T12:04:48Z</time>
      </trkpt>
      <trkpt lat="46.16027" lon="6.28122">
        <ele>480.4</ele>
        <time>2021-03-27T12:04:47Z</time>
      </trkpt>
      <trkpt lat="46.16031" lon="6.28112">
        <ele>480.2</ele>
        <time>2021-03-27T12:04:46Z</time>
      </trkpt>
      <trkpt lat="46.16034" lon="6.28103">
        <ele>480.4</ele>
        <time>2021-03-27T12:04:45Z</time>
      </trkpt>
      <trkpt lat="46.16038" lon="6.28094">
        <ele>480.2</ele>
        <time>2021-03-27T12:04:44Z</time>
      </trkpt>
      <trkpt lat="46.16041" lon="6.28085">
        <ele>480.4</ele>
        <time>2021-03-27T12:04:43Z</time>
      </trkpt>
      <trkpt lat="46.16045" lon="6.28075">
        <ele>480.2</ele>
        <time>2021-03-27T12:04:42Z</time>
      </trkpt>
      <trkpt lat="46.16048" lon="6.28066">
        <ele>480.2</ele>
        <time>2021-03-27T12:04:41Z</time>
      </trkpt>
      <trkpt lat="46.16052" lon="6.28057">
        <ele>480.2</ele>
        <time>2021-03-27T12:04:40Z</time>
      </trkpt>
      <trkpt lat="46.16056" lon="6.28047">
        <ele>480.2</ele>
        <time>2021-03-27T12:04:39Z</time>
      </trkpt>
      <trkpt lat="46.16059" lon="6.28038">
        <ele>480.2</ele>
        <time>2021-03-27T12:04:38Z</time>
      </trkpt>
      <trkpt lat="46.16063" lon="6.28029">
        <ele>480</ele>
        <time>2021-03-27T12:04:37Z</time>
      </trkpt>
      <trkpt lat="46.16066" lon="6.2802">
        <ele>480.2</ele>
        <time>2021-03-27T12:04:36Z</time>
      </trkpt>
      <trkpt lat="46.1607" lon="6.28011">
        <ele>480.2</ele>
        <time>2021-03-27T12:04:35Z</time>
      </trkpt>
      <trkpt lat="46.16074" lon="6.28002">
        <ele>480.2</ele>
        <time>2021-03-27T12:04:34Z</time>
      </trkpt>
      <trkpt lat="46.16077" lon="6.27993">
        <ele>480.2</ele>
        <time>2021-03-27T12:04:33Z</time>
      </trkpt>
      <trkpt lat="46.16081" lon="6.27984">
        <ele>480.2</ele>
        <time>2021-03-27T12:04:32Z</time>
      </trkpt>
      <trkpt lat="46.16084" lon="6.27975">
        <ele>480.4</ele>
        <time>2021-03-27T12:04:31Z</time>
      </trkpt>
      <trkpt lat="46.16088" lon="6.27965">
        <ele>480.6</ele>
        <time>2021-03-27T12:04:30Z</time>
      </trkpt>
      <trkpt lat="46.16091" lon="6.27956">
        <ele>480.6</ele>
        <time>2021-03-27T12:04:29Z</time>
      </trkpt>
      <trkpt lat="46.16095" lon="6.27947">
        <ele>480.6</ele>
        <time>2021-03-27T12:04:28Z</time>
      </trkpt>
      <trkpt lat="46.16098" lon="6.27937">
        <ele>480.6</ele>
        <time>2021-03-27T12:04:27Z</time>
      </trkpt>
      <trkpt lat="46.16102" lon="6.27928">
        <ele>481</ele>
        <time>2021-03-27T12:04:26Z</time>
      </trkpt>
      <trkpt lat="46.16105" lon="6.27919">
        <ele>481</ele>
        <time>2021-03-27T12:04:25Z</time>
      </trkpt>
      <trkpt lat="46.16109" lon="6.2791">
        <ele>481.2</ele>
        <time>2021-03-27T12:04:24Z</time>
      </trkpt>
      <trkpt lat="46.16112" lon="6.279">
        <ele>481.2</ele>
        <time>2021-03-27T12:04:23Z</time>
      </trkpt>
      <trkpt lat="46.16116" lon="6.27891">
        <ele>481.2</ele>
        <time>2021-03-27T12:04:22Z</time>
      </trkpt>
      <trkpt lat="46.16119" lon="6.27882">
        <ele>481.4</ele>
        <time>2021-03-27T12:04:21Z</time>
      </trkpt>
      <trkpt lat="46.16123" lon="6.27873">
        <ele>481.6</ele>
        <time>2021-03-27T12:04:20Z</time>
      </trkpt>
      <trkpt lat="46.16126" lon="6.27864">
        <ele>481.6</ele>
        <time>2021-03-27T12:04:19Z</time>
      </trkpt>
      <trkpt lat="46.1613" lon="6.27854">
        <ele>481.8</ele>
        <time>2021-03-27T12:04:18Z</time>
      </trkpt>
      <trkpt lat="46.16133" lon="6.27845">
        <ele>481.8</ele>
        <time>2021-03-27T12:04:17Z</time>
      </trkpt>
      <trkpt lat="46.16136" lon="6.27836">
        <ele>482</ele>
        <time>2021-03-27T12:04:16Z</time>
      </trkpt>
      <trkpt lat="46.1614" lon="6.27827">
        <ele>482</ele>
        <time>2021-03-27T12:04:15Z</time>
      </trkpt>
      <trkpt lat="46.16143" lon="6.27817">
        <ele>482</ele>
        <time>2021-03-27T12:04:14Z</time>
      </trkpt>
      <trkpt lat="46.16146" lon="6.27808">
        <ele>482.2</ele>
        <time>2021-03-27T12:04:13Z</time>
      </trkpt>
      <trkpt lat="46.1615" lon="6.27799">
        <ele>482.2</ele>
        <time>2021-03-27T12:04:12Z</time>
      </trkpt>
      <trkpt lat="46.16153" lon="6.2779">
        <ele>482.2</ele>
        <time>2021-03-27T12:04:11Z</time>
      </trkpt>
      <trkpt lat="46.16156" lon="6.27781">
        <ele>482.4</ele>
        <time>2021-03-27T12:04:10Z</time>
      </trkpt>
      <trkpt lat="46.1616" lon="6.27772">
        <ele>482.6</ele>
        <time>2021-03-27T12:04:09Z</time>
      </trkpt>
      <trkpt lat="46.16163" lon="6.27763">
        <ele>482.4</ele>
        <time>2021-03-27T12:04:08Z</time>
      </trkpt>
      <trkpt lat="46.16166" lon="6.27754">
        <ele>482.6</ele>
        <time>2021-03-27T12:04:07Z</time>
      </trkpt>
      <trkpt lat="46.1617" lon="6.27745">
        <ele>482.8</ele>
        <time>2021-03-27T12:04:06Z</time>
      </trkpt>
      <trkpt lat="46.16173" lon="6.27737">
        <ele>482.6</ele>
        <time>2021-03-27T12:04:05Z</time>
      </trkpt>
      <trkpt lat="46.16177" lon="6.27728">
        <ele>482.8</ele>
        <time>2021-03-27T12:04:04Z</time>
      </trkpt>
      <trkpt lat="46.1618" lon="6.27719">
        <ele>482.8</ele>
        <time>2021-03-27T12:04:03Z</time>
      </trkpt>
      <trkpt lat="46.16183" lon="6.2771">
        <ele>483.2</ele>
        <time>2021-03-27T12:04:02Z</time>
      </trkpt>
      <trkpt lat="46.16186" lon="6.27701">
        <ele>483.2</ele>
        <time>2021-03-27T12:04:01Z</time>
      </trkpt>
      <trkpt lat="46.1619" lon="6.27692">
        <ele>483.4</ele>
        <time>2021-03-27T12:04:00Z</time>
      </trkpt>
      <trkpt lat="46.16193" lon="6.27683">
        <ele>483.4</ele>
        <time>2021-03-27T12:03:59Z</time>
      </trkpt>
      <trkpt lat="46.16196" lon="6.27674">
        <ele>483.6</ele>
        <time>2021-03-27T12:03:58Z</time>
      </trkpt>
      <trkpt lat="46.16198" lon="6.27666">
        <ele>483.8</ele>
        <time>2021-03-27T12:03:57Z</time>
      </trkpt>
      <trkpt lat="46.16201" lon="6.27657">
        <ele>484</ele>
        <time>2021-03-27T12:03:56Z</time>
      </trkpt>
      <trkpt lat="46.16203" lon="6.27648">
        <ele>484.4</ele>
        <time>2021-03-27T12:03:55Z</time>
      </trkpt>
      <trkpt lat="46.16204" lon="6.27639">
        <ele>484.6</ele>
        <time>2021-03-27T12:03:54Z</time>
      </trkpt>
      <trkpt lat="46.16204" lon="6.27631">
        <ele>484.8</ele>
        <time>2021-03-27T12:03:53Z</time>
      </trkpt>
      <trkpt lat="46.16205" lon="6.27622">
        <ele>484.6</ele>
        <time>2021-03-27T12:03:52Z</time>
      </trkpt>
      <trkpt lat="46.16206" lon="6.27614">
        <ele>484.8</ele>
        <time>2021-03-27T12:03:51Z</time>
      </trkpt>
      <trkpt lat="46.1621" lon="6.27607">
        <ele>484.6</ele>
        <time>2021-03-27T12:03:50Z</time>
      </trkpt>
      <trkpt lat="46.16214" lon="6.27602">
        <ele>484.8</ele>
        <time>2021-03-27T12:03:49Z</time>
      </trkpt>
      <trkpt lat="46.16218" lon="6.27597">
        <ele>484.8</ele>
        <time>2021-03-27T12:03:48Z</time>
      </trkpt>
      <trkpt lat="46.16223" lon="6.27593">
        <ele>484.8</ele>
        <time>2021-03-27T12:03:47Z</time>
      </trkpt>
      <trkpt lat="46.16227" lon="6.27588">
        <ele>485</ele>
        <time>2021-03-27T12:03:46Z</time>
      </trkpt>
      <trkpt lat="46.16231" lon="6.27582">
        <ele>484.8</ele>
        <time>2021-03-27T12:03:45Z</time>
      </trkpt>
      <trkpt lat="46.16235" lon="6.27574">
        <ele>485</ele>
        <time>2021-03-27T12:03:44Z</time>
      </trkpt>
      <trkpt lat="46.16239" lon="6.27566">
        <ele>484.8</ele>
        <time>2021-03-27T12:03:43Z</time>
      </trkpt>
      <trkpt lat="46.16242" lon="6.27558">
        <ele>484.8</ele>
        <time>2021-03-27T12:03:42Z</time>
      </trkpt>
      <trkpt lat="46.16245" lon="6.2755">
        <ele>484.8</ele>
        <time>2021-03-27T12:03:41Z</time>
      </trkpt>
      <trkpt lat="46.16248" lon="6.27541">
        <ele>484.8</ele>
        <time>2021-03-27T12:03:40Z</time>
      </trkpt>
      <trkpt lat="46.16251" lon="6.27533">
        <ele>484.8</ele>
        <time>2021-03-27T12:03:39Z</time>
      </trkpt>
      <trkpt lat="46.16255" lon="6.27524">
        <ele>484.8</ele>
        <time>2021-03-27T12:03:38Z</time>
      </trkpt>
      <trkpt lat="46.16258" lon="6.27516">
        <ele>484.8</ele>
        <time>2021-03-27T12:03:37Z</time>
      </trkpt>
      <trkpt lat="46.16261" lon="6.27508">
        <ele>484.8</ele>
        <time>2021-03-27T12:03:36Z</time>
      </trkpt>
      <trkpt lat="46.16264" lon="6.27499">
        <ele>484.8</ele>
        <time>2021-03-27T12:03:35Z</time>
      </trkpt>
      <trkpt lat="46.16267" lon="6.27491">
        <ele>485</ele>
        <time>2021-03-27T12:03:34Z</time>
      </trkpt>
      <trkpt lat="46.1627" lon="6.27483">
        <ele>485</ele>
        <time>2021-03-27T12:03:33Z</time>
      </trkpt>
      <trkpt lat="46.16274" lon="6.27475">
        <ele>485</ele>
        <time>2021-03-27T12:03:32Z</time>
      </trkpt>
      <trkpt lat="46.16277" lon="6.27467">
        <ele>485</ele>
        <time>2021-03-27T12:03:31Z</time>
      </trkpt>
      <trkpt lat="46.1628" lon="6.27459">
        <ele>485</ele>
        <time>2021-03-27T12:03:30Z</time>
      </trkpt>
      <trkpt lat="46.16283" lon="6.27451">
        <ele>485</ele>
        <time>2021-03-27T12:03:29Z</time>
      </trkpt>
      <trkpt lat="46.16286" lon="6.27443">
        <ele>485</ele>
        <time>2021-03-27T12:03:28Z</time>
      </trkpt>
      <trkpt lat="46.16289" lon="6.27434">
        <ele>485.2</ele>
        <time>2021-03-27T12:03:27Z</time>
      </trkpt>
      <trkpt lat="46.16292" lon="6.27426">
        <ele>485.2</ele>
        <time>2021-03-27T12:03:26Z</time>
      </trkpt>
      <trkpt lat="46.16296" lon="6.27418">
        <ele>485.2</ele>
        <time>2021-03-27T12:03:25Z</time>
      </trkpt>
      <trkpt lat="46.16299" lon="6.2741">
        <ele>485.2</ele>
        <time>2021-03-27T12:03:24Z</time>
      </trkpt>
      <trkpt lat="46.16302" lon="6.27402">
        <ele>485.2</ele>
        <time>2021-03-27T12:03:23Z</time>
      </trkpt>
      <trkpt lat="46.16305" lon="6.27394">
        <ele>485.2</ele>
        <time>2021-03-27T12:03:22Z</time>
      </trkpt>
      <trkpt lat="46.16308" lon="6.27386">
        <ele>485.2</ele>
        <time>2021-03-27T12:03:21Z</time>
      </trkpt>
      <trkpt lat="46.16311" lon="6.27377">
        <ele>485</ele>
        <time>2021-03-27T12:03:20Z</time>
      </trkpt>
      <trkpt lat="46.16314" lon="6.27369">
        <ele>485</ele>
        <time>2021-03-27T12:03:19Z</time>
      </trkpt>
      <trkpt lat="46.16317" lon="6.27361">
        <ele>484.8</ele>
        <time>2021-03-27T12:03:18Z</time>
      </trkpt>
      <trkpt lat="46.1632" lon="6.27354">
        <ele>484.8</ele>
        <time>2021-03-27T12:03:17Z</time>
      </trkpt>
      <trkpt lat="46.16323" lon="6.27346">
        <ele>485</ele>
        <time>2021-03-27T12:03:16Z</time>
      </trkpt>
      <trkpt lat="46.16326" lon="6.27339">
        <ele>484.6</ele>
        <time>2021-03-27T12:03:15Z</time>
      </trkpt>
      <trkpt lat="46.16328" lon="6.27332">
        <ele>484.6</ele>
        <time>2021-03-27T12:03:14Z</time>
      </trkpt>
      <trkpt lat="46.1633" lon="6.27325">
        <ele>484.2</ele>
        <time>2021-03-27T12:03:13Z</time>
      </trkpt>
      <trkpt lat="46.16332" lon="6.27317">
        <ele>484</ele>
        <time>2021-03-27T12:03:12Z</time>
      </trkpt>
      <trkpt lat="46.16335" lon="6.2731">
        <ele>483.8</ele>
        <time>2021-03-27T12:03:11Z</time>
      </trkpt>
      <trkpt lat="46.16338" lon="6.27303">
        <ele>483.8</ele>
        <time>2021-03-27T12:03:10Z</time>
      </trkpt>
      <trkpt lat="46.1634" lon="6.27296">
        <ele>483.8</ele>
        <time>2021-03-27T12:03:09Z</time>
      </trkpt>
      <trkpt lat="46.16343" lon="6.2729">
        <ele>483.6</ele>
        <time>2021-03-27T12:03:08Z</time>
      </trkpt>
      <trkpt lat="46.16346" lon="6.27283">
        <ele>483.4</ele>
        <time>2021-03-27T12:03:07Z</time>
      </trkpt>
      <trkpt lat="46.16349" lon="6.27277">
        <ele>483.4</ele>
        <time>2021-03-27T12:03:06Z</time>
      </trkpt>
      <trkpt lat="46.16352" lon="6.27271">
        <ele>483</ele>
        <time>2021-03-27T12:03:05Z</time>
      </trkpt>
      <trkpt lat="46.16355" lon="6.27266">
        <ele>482.6</ele>
        <time>2021-03-27T12:03:04Z</time>
      </trkpt>
      <trkpt lat="46.16359" lon="6.27261">
        <ele>482.2</ele>
        <time>2021-03-27T12:03:03Z</time>
      </trkpt>
      <trkpt lat="46.16362" lon="6.27256">
        <ele>482.2</ele>
        <time>2021-03-27T12:03:02Z</time>
      </trkpt>
      <trkpt lat="46.16366" lon="6.27251">
        <ele>482</ele>
        <time>2021-03-27T12:03:01Z</time>
      </trkpt>
      <trkpt lat="46.1637" lon="6.27247">
        <ele>481.8</ele>
        <time>2021-03-27T12:03:00Z</time>
      </trkpt>
      <trkpt lat="46.16374" lon="6.27244">
        <ele>481.6</ele>
        <time>2021-03-27T12:02:59Z</time>
      </trkpt>
      <trkpt lat="46.16378" lon="6.27241">
        <ele>481.6</ele>
        <time>2021-03-27T12:02:58Z</time>
      </trkpt>
      <trkpt lat="46.16382" lon="6.27237">
        <ele>481.4</ele>
        <time>2021-03-27T12:02:57Z</time>
      </trkpt>
      <trkpt lat="46.16387" lon="6.27234">
        <ele>481.4</ele>
        <time>2021-03-27T12:02:56Z</time>
      </trkpt>
      <trkpt lat="46.16391" lon="6.27232">
        <ele>481.2</ele>
        <time>2021-03-27T12:02:55Z</time>
      </trkpt>
      <trkpt lat="46.16396" lon="6.27229">
        <ele>481.2</ele>
        <time>2021-03-27T12:02:54Z</time>
      </trkpt>
      <trkpt lat="46.164" lon="6.27227">
        <ele>481</ele>
        <time>2021-03-27T12:02:53Z</time>
      </trkpt>
      <trkpt lat="46.16405" lon="6.27226">
        <ele>481</ele>
        <time>2021-03-27T12:02:52Z</time>
      </trkpt>
      <trkpt lat="46.1641" lon="6.27225">
        <ele>480.8</ele>
        <time>2021-03-27T12:02:51Z</time>
      </trkpt>
      <trkpt lat="46.16415" lon="6.27224">
        <ele>480.6</ele>
        <time>2021-03-27T12:02:50Z</time>
      </trkpt>
      <trkpt lat="46.1642" lon="6.27224">
        <ele>480</ele>
        <time>2021-03-27T12:02:49Z</time>
      </trkpt>
      <trkpt lat="46.16425" lon="6.27224">
        <ele>479.6</ele>
        <time>2021-03-27T12:02:48Z</time>
      </trkpt>
      <trkpt lat="46.1643" lon="6.27225">
        <ele>479.4</ele>
        <time>2021-03-27T12:02:47Z</time>
      </trkpt>
      <trkpt lat="46.16435" lon="6.27226">
        <ele>479.2</ele>
        <time>2021-03-27T12:02:46Z</time>
      </trkpt>
      <trkpt lat="46.1644" lon="6.27227">
        <ele>479.2</ele>
        <time>2021-03-27T12:02:45Z</time>
      </trkpt>
      <trkpt lat="46.16444" lon="6.27228">
        <ele>478.8</ele>
        <time>2021-03-27T12:02:44Z</time>
      </trkpt>
      <trkpt lat="46.16449" lon="6.2723">
        <ele>478.4</ele>
        <time>2021-03-27T12:02:43Z</time>
      </trkpt>
      <trkpt lat="46.16453" lon="6.27232">
        <ele>478.4</ele>
        <time>2021-03-27T12:02:42Z</time>
      </trkpt>
      <trkpt lat="46.16458" lon="6.27233">
        <ele>478.2</ele>
        <time>2021-03-27T12:02:41Z</time>
      </trkpt>
      <trkpt lat="46.16463" lon="6.27235">
        <ele>478.2</ele>
        <time>2021-03-27T12:02:40Z</time>
      </trkpt>
      <trkpt lat="46.16468" lon="6.27237">
        <ele>478</ele>
        <time>2021-03-27T12:02:39Z</time>
      </trkpt>
      <trkpt lat="46.16473" lon="6.27239">
        <ele>477.8</ele>
        <time>2021-03-27T12:02:38Z</time>
      </trkpt>
      <trkpt lat="46.16478" lon="6.2724">
        <ele>477.4</ele>
        <time>2021-03-27T12:02:37Z</time>
      </trkpt>
      <trkpt lat="46.16483" lon="6.27242">
        <ele>477.4</ele>
        <time>2021-03-27T12:02:36Z</time>
      </trkpt>
      <trkpt lat="46.16488" lon="6.27244">
        <ele>477.2</ele>
        <time>2021-03-27T12:02:35Z</time>
      </trkpt>
      <trkpt lat="46.16494" lon="6.27246">
        <ele>477</ele>
        <time>2021-03-27T12:02:34Z</time>
      </trkpt>
      <trkpt lat="46.16499" lon="6.27248">
        <ele>477</ele>
        <time>2021-03-27T12:02:33Z</time>
      </trkpt>
      <trkpt lat="46.16504" lon="6.2725">
        <ele>476.8</ele>
        <time>2021-03-27T12:02:32Z</time>
      </trkpt>
      <trkpt lat="46.1651" lon="6.27252">
        <ele>476.6</ele>
        <time>2021-03-27T12:02:31Z</time>
      </trkpt>
      <trkpt lat="46.16515" lon="6.27254">
        <ele>476.2</ele>
        <time>2021-03-27T12:02:30Z</time>
      </trkpt>
      <trkpt lat="46.16521" lon="6.27256">
        <ele>476</ele>
        <time>2021-03-27T12:02:29Z</time>
      </trkpt>
      <trkpt lat="46.16526" lon="6.27258">
        <ele>475.4</ele>
        <time>2021-03-27T12:02:28Z</time>
      </trkpt>
      <trkpt lat="46.16531" lon="6.2726">
        <ele>475</ele>
        <time>2021-03-27T12:02:27Z</time>
      </trkpt>
      <trkpt lat="46.16536" lon="6.27262">
        <ele>474.8</ele>
        <time>2021-03-27T12:02:26Z</time>
      </trkpt>
      <trkpt lat="46.16541" lon="6.27264">
        <ele>474.6</ele>
        <time>2021-03-27T12:02:25Z</time>
      </trkpt>
      <trkpt lat="46.16546" lon="6.27266">
        <ele>474</ele>
        <time>2021-03-27T12:02:24Z</time>
      </trkpt>
      <trkpt lat="46.16551" lon="6.27268">
        <ele>474.2</ele>
        <time>2021-03-27T12:02:23Z</time>
      </trkpt>
      <trkpt lat="46.16556" lon="6.2727">
        <ele>473.8</ele>
        <time>2021-03-27T12:02:22Z</time>
      </trkpt>
      <trkpt lat="46.16562" lon="6.27272">
        <ele>473.6</ele>
        <time>2021-03-27T12:02:21Z</time>
      </trkpt>
      <trkpt lat="46.16567" lon="6.27275">
        <ele>473.4</ele>
        <time>2021-03-27T12:02:20Z</time>
      </trkpt>
      <trkpt lat="46.16572" lon="6.27279">
        <ele>473</ele>
        <time>2021-03-27T12:02:19Z</time>
      </trkpt>
      <trkpt lat="46.16577" lon="6.27282">
        <ele>472.8</ele>
        <time>2021-03-27T12:02:18Z</time>
      </trkpt>
      <trkpt lat="46.16582" lon="6.27286">
        <ele>472.4</ele>
        <time>2021-03-27T12:02:17Z</time>
      </trkpt>
      <trkpt lat="46.16587" lon="6.2729">
        <ele>472.4</ele>
        <time>2021-03-27T12:02:16Z</time>
      </trkpt>
      <trkpt lat="46.16591" lon="6.27295">
        <ele>472.4</ele>
        <time>2021-03-27T12:02:15Z</time>
      </trkpt>
      <trkpt lat="46.16596" lon="6.273">
        <ele>471.8</ele>
        <time>2021-03-27T12:02:14Z</time>
      </trkpt>
      <trkpt lat="46.16599" lon="6.27305">
        <ele>471.8</ele>
        <time>2021-03-27T12:02:13Z</time>
      </trkpt>
      <trkpt lat="46.16603" lon="6.2731">
        <ele>471.4</ele>
        <time>2021-03-27T12:02:12Z</time>
      </trkpt>
      <trkpt lat="46.16607" lon="6.27314">
        <ele>471.2</ele>
        <time>2021-03-27T12:02:11Z</time>
      </trkpt>
      <trkpt lat="46.16611" lon="6.27318">
        <ele>471</ele>
        <time>2021-03-27T12:02:10Z</time>
      </trkpt>
      <trkpt lat="46.16615" lon="6.27322">
        <ele>470.4</ele>
        <time>2021-03-27T12:02:09Z</time>
      </trkpt>
      <trkpt lat="46.16619" lon="6.27325">
        <ele>470.4</ele>
        <time>2021-03-27T12:02:08Z</time>
      </trkpt>
      <trkpt lat="46.16623" lon="6.27329">
        <ele>470.4</ele>
        <time>2021-03-27T12:02:07Z</time>
      </trkpt>
      <trkpt lat="46.16628" lon="6.27332">
        <ele>470</ele>
        <time>2021-03-27T12:02:06Z</time>
      </trkpt>
      <trkpt lat="46.16633" lon="6.27335">
        <ele>469.8</ele>
        <time>2021-03-27T12:02:05Z</time>
      </trkpt>
      <trkpt lat="46.16637" lon="6.27338">
        <ele>469.6</ele>
        <time>2021-03-27T12:02:04Z</time>
      </trkpt>
      <trkpt lat="46.16642" lon="6.27341">
        <ele>469.6</ele>
        <time>2021-03-27T12:02:03Z</time>
      </trkpt>
      <trkpt lat="46.16646" lon="6.27343">
        <ele>469.2</ele>
        <time>2021-03-27T12:02:02Z</time>
      </trkpt>
      <trkpt lat="46.16651" lon="6.27344">
        <ele>469.2</ele>
        <time>2021-03-27T12:02:01Z</time>
      </trkpt>
      <trkpt lat="46.16656" lon="6.27346">
        <ele>469</ele>
        <time>2021-03-27T12:02:00Z</time>
      </trkpt>
      <trkpt lat="46.16661" lon="6.27348">
        <ele>468.6</ele>
        <time>2021-03-27T12:01:59Z</time>
      </trkpt>
      <trkpt lat="46.16666" lon="6.27349">
        <ele>468</ele>
        <time>2021-03-27T12:01:58Z</time>
      </trkpt>
      <trkpt lat="46.16671" lon="6.2735">
        <ele>467.6</ele>
        <time>2021-03-27T12:01:57Z</time>
      </trkpt>
      <trkpt lat="46.16676" lon="6.27352">
        <ele>467</ele>
        <time>2021-03-27T12:01:56Z</time>
      </trkpt>
      <trkpt lat="46.16682" lon="6.27353">
        <ele>466.6</ele>
        <time>2021-03-27T12:01:55Z</time>
      </trkpt>
      <trkpt lat="46.16687" lon="6.27354">
        <ele>466.4</ele>
        <time>2021-03-27T12:01:54Z</time>
      </trkpt>
      <trkpt lat="46.16693" lon="6.27356">
        <ele>466.4</ele>
        <time>2021-03-27T12:01:53Z</time>
      </trkpt>
      <trkpt lat="46.16698" lon="6.27357">
        <ele>466.2</ele>
        <time>2021-03-27T12:01:52Z</time>
      </trkpt>
      <trkpt lat="46.16704" lon="6.27358">
        <ele>466.2</ele>
        <time>2021-03-27T12:01:51Z</time>
      </trkpt>
      <trkpt lat="46.16709" lon="6.27359">
        <ele>466</ele>
        <time>2021-03-27T12:01:50Z</time>
      </trkpt>
      <trkpt lat="46.16714" lon="6.27361">
        <ele>465.8</ele>
        <time>2021-03-27T12:01:49Z</time>
      </trkpt>
      <trkpt lat="46.1672" lon="6.27362">
        <ele>465.4</ele>
        <time>2021-03-27T12:01:48Z</time>
      </trkpt>
      <trkpt lat="46.16726" lon="6.27363">
        <ele>465.2</ele>
        <time>2021-03-27T12:01:47Z</time>
      </trkpt>
      <trkpt lat="46.16731" lon="6.27364">
        <ele>464.8</ele>
        <time>2021-03-27T12:01:46Z</time>
      </trkpt>
      <trkpt lat="46.16737" lon="6.27366">
        <ele>464.6</ele>
        <time>2021-03-27T12:01:45Z</time>
      </trkpt>
      <trkpt lat="46.16743" lon="6.27367">
        <ele>464</ele>
        <time>2021-03-27T12:01:44Z</time>
      </trkpt>
      <trkpt lat="46.16748" lon="6.27368">
        <ele>463.8</ele>
        <time>2021-03-27T12:01:43Z</time>
      </trkpt>
      <trkpt lat="46.16754" lon="6.27369">
        <ele>463.4</ele>
        <time>2021-03-27T12:01:42Z</time>
      </trkpt>
      <trkpt lat="46.1676" lon="6.27371">
        <ele>462.6</ele>
        <time>2021-03-27T12:01:41Z</time>
      </trkpt>
      <trkpt lat="46.16766" lon="6.27372">
        <ele>462.4</ele>
        <time>2021-03-27T12:01:40Z</time>
      </trkpt>
      <trkpt lat="46.16772" lon="6.27373">
        <ele>462</ele>
        <time>2021-03-27T12:01:39Z</time>
      </trkpt>
      <trkpt lat="46.16778" lon="6.27373">
        <ele>462</ele>
        <time>2021-03-27T12:01:38Z</time>
      </trkpt>
      <trkpt lat="46.16784" lon="6.27373">
        <ele>461.8</ele>
        <time>2021-03-27T12:01:37Z</time>
      </trkpt>
      <trkpt lat="46.16789" lon="6.27372">
        <ele>461.8</ele>
        <time>2021-03-27T12:01:36Z</time>
      </trkpt>
      <trkpt lat="46.16795" lon="6.2737">
        <ele>461.8</ele>
        <time>2021-03-27T12:01:35Z</time>
      </trkpt>
      <trkpt lat="46.16801" lon="6.27368">
        <ele>461.6</ele>
        <time>2021-03-27T12:01:34Z</time>
      </trkpt>
      <trkpt lat="46.16807" lon="6.27364">
        <ele>461.6</ele>
        <time>2021-03-27T12:01:33Z</time>
      </trkpt>
      <trkpt lat="46.16812" lon="6.2736">
        <ele>461.6</ele>
        <time>2021-03-27T12:01:32Z</time>
      </trkpt>
      <trkpt lat="46.16817" lon="6.27354">
        <ele>461.6</ele>
        <time>2021-03-27T12:01:31Z</time>
      </trkpt>
      <trkpt lat="46.16822" lon="6.27348">
        <ele>461.6</ele>
        <time>2021-03-27T12:01:30Z</time>
      </trkpt>
      <trkpt lat="46.16826" lon="6.27341">
        <ele>461.6</ele>
        <time>2021-03-27T12:01:29Z</time>
      </trkpt>
      <trkpt lat="46.1683" lon="6.27332">
        <ele>461.6</ele>
        <time>2021-03-27T12:01:28Z</time>
      </trkpt>
      <trkpt lat="46.16833" lon="6.27323">
        <ele>461.8</ele>
        <time>2021-03-27T12:01:27Z</time>
      </trkpt>
      <trkpt lat="46.16836" lon="6.27312">
        <ele>461.8</ele>
        <time>2021-03-27T12:01:26Z</time>
      </trkpt>
      <trkpt lat="46.16838" lon="6.27302">
        <ele>461.8</ele>
        <time>2021-03-27T12:01:25Z</time>
      </trkpt>
      <trkpt lat="46.1684" lon="6.27292">
        <ele>462</ele>
        <time>2021-03-27T12:01:24Z</time>
      </trkpt>
      <trkpt lat="46.16841" lon="6.27282">
        <ele>461.8</ele>
        <time>2021-03-27T12:01:23Z</time>
      </trkpt>
      <trkpt lat="46.16842" lon="6.27271">
        <ele>462</ele>
        <time>2021-03-27T12:01:22Z</time>
      </trkpt>
      <trkpt lat="46.16844" lon="6.27261">
        <ele>462</ele>
        <time>2021-03-27T12:01:21Z</time>
      </trkpt>
      <trkpt lat="46.16845" lon="6.2725">
        <ele>462</ele>
        <time>2021-03-27T12:01:20Z</time>
      </trkpt>
      <trkpt lat="46.16846" lon="6.2724">
        <ele>462</ele>
        <time>2021-03-27T12:01:19Z</time>
      </trkpt>
      <trkpt lat="46.16848" lon="6.2723">
        <ele>462</ele>
        <time>2021-03-27T12:01:18Z</time>
      </trkpt>
      <trkpt lat="46.16849" lon="6.2722">
        <ele>462</ele>
        <time>2021-03-27T12:01:17Z</time>
      </trkpt>
      <trkpt lat="46.16851" lon="6.2721">
        <ele>462</ele>
        <time>2021-03-27T12:01:16Z</time>
      </trkpt>
      <trkpt lat="46.16852" lon="6.272">
        <ele>462</ele>
        <time>2021-03-27T12:01:15Z</time>
      </trkpt>
      <trkpt lat="46.16853" lon="6.27191">
        <ele>462</ele>
        <time>2021-03-27T12:01:14Z</time>
      </trkpt>
      <trkpt lat="46.16853" lon="6.27182">
        <ele>462.2</ele>
        <time>2021-03-27T12:01:13Z</time>
      </trkpt>
      <trkpt lat="46.16852" lon="6.27173">
        <ele>462</ele>
        <time>2021-03-27T12:01:12Z</time>
      </trkpt>
      <trkpt lat="46.1685" lon="6.27166">
        <ele>462.2</ele>
        <time>2021-03-27T12:01:11Z</time>
      </trkpt>
      <trkpt lat="46.16846" lon="6.2716">
        <ele>462</ele>
        <time>2021-03-27T12:01:10Z</time>
      </trkpt>
      <trkpt lat="46.16841" lon="6.27155">
        <ele>462</ele>
        <time>2021-03-27T12:01:09Z</time>
      </trkpt>
      <trkpt lat="46.16836" lon="6.27152">
        <ele>462</ele>
        <time>2021-03-27T12:01:08Z</time>
      </trkpt>
      <trkpt lat="46.16831" lon="6.2715">
        <ele>462.2</ele>
        <time>2021-03-27T12:01:07Z</time>
      </trkpt>
      <trkpt lat="46.16827" lon="6.27149">
        <ele>462</ele>
        <time>2021-03-27T12:01:06Z</time>
      </trkpt>
      <trkpt lat="46.16822" lon="6.27148">
        <ele>462.2</ele>
        <time>2021-03-27T12:01:05Z</time>
      </trkpt>
      <trkpt lat="46.16819" lon="6.27147">
        <ele>462.2</ele>
        <time>2021-03-27T12:01:04Z</time>
      </trkpt>
      <trkpt lat="46.16817" lon="6.27145">
        <ele>462.2</ele>
        <time>2021-03-27T12:01:03Z</time>
      </trkpt>
      <trkpt lat="46.16816" lon="6.27143">
        <ele>462.2</ele>
        <time>2021-03-27T12:01:02Z</time>
      </trkpt>
      <trkpt lat="46.16815" lon="6.27141">
        <ele>462.4</ele>
        <time>2021-03-27T12:01:01Z</time>
      </trkpt>
      <trkpt lat="46.16814" lon="6.27139">
        <ele>462.4</ele>
        <time>2021-03-27T12:01:00Z</time>
      </trkpt>
      <trkpt lat="46.16814" lon="6.27139">
        <ele>462.8</ele>
        <time>2021-03-27T12:00:59Z</time>
      </trkpt>
      <trkpt lat="46.16813" lon="6.2714">
        <ele>463.6</ele>
        <time>2021-03-27T12:00:58Z</time>
      </trkpt>
      <trkpt lat="46.16811" lon="6.27141">
        <ele>464.8</ele>
        <time>2021-03-27T12:00:57Z</time>
      </trkpt>
      <trkpt lat="46.16809" lon="6.2714">
        <ele>466.2</ele>
        <time>2021-03-27T12:00:56Z</time>
      </trkpt>
      <trkpt lat="46.16803" lon="6.27139">
        <ele>467.6</ele>
        <time>2021-03-27T12:00:55Z</time>
      </trkpt>
      <trkpt lat="46.16797" lon="6.27137">
        <ele>468.8</ele>
        <time>2021-03-27T12:00:54Z</time>
      </trkpt>
      <trkpt lat="46.16788" lon="6.27135">
        <ele>469.8</ele>
        <time>2021-03-27T12:00:53Z</time>
      </trkpt>
      <trkpt lat="46.16777" lon="6.27132">
        <ele>470.8</ele>
        <time>2021-03-27T12:00:52Z</time>
      </trkpt>
      <trkpt lat="46.16766" lon="6.27125">
        <ele>471.6</ele>
        <time>2021-03-27T12:00:51Z</time>
      </trkpt>
      <trkpt lat="46.16757" lon="6.27115">
        <ele>471.8</ele>
        <time>2021-03-27T12:00:50Z</time>
      </trkpt>
      <trkpt lat="46.16747" lon="6.27103">
        <ele>472.4</ele>
        <time>2021-03-27T12:00:49Z</time>
      </trkpt>
      <trkpt lat="46.16739" lon="6.27091">
        <ele>473</ele>
        <time>2021-03-27T12:00:48Z</time>
      </trkpt>
      <trkpt lat="46.16731" lon="6.27078">
        <ele>473.4</ele>
        <time>2021-03-27T12:00:47Z</time>
      </trkpt>
      <trkpt lat="46.16725" lon="6.27065">
        <ele>474.4</ele>
        <time>2021-03-27T12:00:46Z</time>
      </trkpt>
      <trkpt lat="46.16723" lon="6.2705">
        <ele>475.4</ele>
        <time>2021-03-27T12:00:45Z</time>
      </trkpt>
      <trkpt lat="46.1672" lon="6.27034">
        <ele>476.8</ele>
        <time>2021-03-27T12:00:44Z</time>
      </trkpt>
      <trkpt lat="46.16722" lon="6.27018">
        <ele>477.8</ele>
        <time>2021-03-27T12:00:43Z</time>
      </trkpt>
      <trkpt lat="46.16726" lon="6.27004">
        <ele>478.6</ele>
        <time>2021-03-27T12:00:42Z</time>
      </trkpt>
      <trkpt lat="46.16732" lon="6.26991">
        <ele>479.2</ele>
        <time>2021-03-27T12:00:41Z</time>
      </trkpt>
      <trkpt lat="46.1674" lon="6.2698">
        <ele>480.2</ele>
        <time>2021-03-27T12:00:40Z</time>
      </trkpt>
      <trkpt lat="46.16748" lon="6.26969">
        <ele>481.4</ele>
        <time>2021-03-27T12:00:39Z</time>
      </trkpt>
      <trkpt lat="46.16756" lon="6.2696">
        <ele>482.2</ele>
        <time>2021-03-27T12:00:38Z</time>
      </trkpt>
      <trkpt lat="46.16765" lon="6.2695">
        <ele>483.2</ele>
        <time>2021-03-27T12:00:37Z</time>
      </trkpt>
      <trkpt lat="46.16774" lon="6.26942">
        <ele>483.6</ele>
        <time>2021-03-27T12:00:36Z</time>
      </trkpt>
      <trkpt lat="46.16784" lon="6.26934">
        <ele>484</ele>
        <time>2021-03-27T12:00:35Z</time>
      </trkpt>
      <trkpt lat="46.16794" lon="6.26927">
        <ele>484.4</ele>
        <time>2021-03-27T12:00:34Z</time>
      </trkpt>
      <trkpt lat="46.16803" lon="6.26921">
        <ele>485</ele>
        <time>2021-03-27T12:00:33Z</time>
      </trkpt>
      <trkpt lat="46.16813" lon="6.26915">
        <ele>485.2</ele>
        <time>2021-03-27T12:00:32Z</time>
      </trkpt>
      <trkpt lat="46.16822" lon="6.2691">
        <ele>485.2</ele>
        <time>2021-03-27T12:00:31Z</time>
      </trkpt>
      <trkpt lat="46.16832" lon="6.26904">
        <ele>485.2</ele>
        <time>2021-03-27T12:00:30Z</time>
      </trkpt>
      <trkpt lat="46.16841" lon="6.26897">
        <ele>485.6</ele>
        <time>2021-03-27T12:00:29Z</time>
      </trkpt>
      <trkpt lat="46.1685" lon="6.2689">
        <ele>486</ele>
        <time>2021-03-27T12:00:28Z</time>
      </trkpt>
      <trkpt lat="46.16858" lon="6.26882">
        <ele>486.2</ele>
        <time>2021-03-27T12:00:27Z</time>
      </trkpt>
      <trkpt lat="46.16865" lon="6.26874">
        <ele>486.6</ele>
        <time>2021-03-27T12:00:26Z</time>
      </trkpt>
      <trkpt lat="46.16871" lon="6.26864">
        <ele>487</ele>
        <time>2021-03-27T12:00:25Z</time>
      </trkpt>
      <trkpt lat="46.16877" lon="6.26855">
        <ele>487.2</ele>
        <time>2021-03-27T12:00:24Z</time>
      </trkpt>
      <trkpt lat="46.16882" lon="6.26845">
        <ele>487</ele>
        <time>2021-03-27T12:00:23Z</time>
      </trkpt>
      <trkpt lat="46.16887" lon="6.26835">
        <ele>487.4</ele>
        <time>2021-03-27T12:00:22Z</time>
      </trkpt>
      <trkpt lat="46.16891" lon="6.26825">
        <ele>487.4</ele>
        <time>2021-03-27T12:00:21Z</time>
      </trkpt>
      <trkpt lat="46.16894" lon="6.26814">
        <ele>487.6</ele>
        <time>2021-03-27T12:00:20Z</time>
      </trkpt>
      <trkpt lat="46.16897" lon="6.26803">
        <ele>487.6</ele>
        <time>2021-03-27T12:00:19Z</time>
      </trkpt>
      <trkpt lat="46.16899" lon="6.26792">
        <ele>487.6</ele>
        <time>2021-03-27T12:00:18Z</time>
      </trkpt>
      <trkpt lat="46.16901" lon="6.2678">
        <ele>487.6</ele>
        <time>2021-03-27T12:00:17Z</time>
      </trkpt>
      <trkpt lat="46.16901" lon="6.26769">
        <ele>487.8</ele>
        <time>2021-03-27T12:00:16Z</time>
      </trkpt>
      <trkpt lat="46.16901" lon="6.26757">
        <ele>487.8</ele>
        <time>2021-03-27T12:00:15Z</time>
      </trkpt>
      <trkpt lat="46.16902" lon="6.26745">
        <ele>487.8</ele>
        <time>2021-03-27T12:00:14Z</time>
      </trkpt>
      <trkpt lat="46.16903" lon="6.26733">
        <ele>487.8</ele>
        <time>2021-03-27T12:00:13Z</time>
      </trkpt>
      <trkpt lat="46.16905" lon="6.26721">
        <ele>487.8</ele>
        <time>2021-03-27T12:00:12Z</time>
      </trkpt>
      <trkpt lat="46.16908" lon="6.26709">
        <ele>487.8</ele>
        <time>2021-03-27T12:00:11Z</time>
      </trkpt>
      <trkpt lat="46.16911" lon="6.26698">
        <ele>488</ele>
        <time>2021-03-27T12:00:10Z</time>
      </trkpt>
      <trkpt lat="46.16916" lon="6.26688">
        <ele>487.8</ele>
        <time>2021-03-27T12:00:09Z</time>
      </trkpt>
      <trkpt lat="46.16921" lon="6.26678">
        <ele>488</ele>
        <time>2021-03-27T12:00:08Z</time>
      </trkpt>
      <trkpt lat="46.16926" lon="6.26669">
        <ele>488.4</ele>
        <time>2021-03-27T12:00:07Z</time>
      </trkpt>
      <trkpt lat="46.16932" lon="6.26659">
        <ele>488.8</ele>
        <time>2021-03-27T12:00:06Z</time>
      </trkpt>
      <trkpt lat="46.16938" lon="6.2665">
        <ele>489.8</ele>
        <time>2021-03-27T12:00:05Z</time>
      </trkpt>
      <trkpt lat="46.16944" lon="6.2664">
        <ele>491</ele>
        <time>2021-03-27T12:00:04Z</time>
      </trkpt>
      <trkpt lat="46.16949" lon="6.2663">
        <ele>492.6</ele>
        <time>2021-03-27T12:00:03Z</time>
      </trkpt>
      <trkpt lat="46.16956" lon="6.26619">
        <ele>493.6</ele>
        <time>2021-03-27T12:00:02Z</time>
      </trkpt>
      <trkpt lat="46.16962" lon="6.26609">
        <ele>494.8</ele>
        <time>2021-03-27T12:00:01Z</time>
      </trkpt>
      <trkpt lat="46.16968" lon="6.26598">
        <ele>495.6</ele>
        <time>2021-03-27T12:00:00Z</time>
      </trkpt>
      <trkpt lat="46.16975" lon="6.26586">
        <ele>496.6</ele>
        <time>2021-03-27T11:59:59Z</time>
      </trkpt>
      <trkpt lat="46.16982" lon="6.26575">
        <ele>497.2</ele>
        <time>2021-03-27T11:59:58Z</time>
      </trkpt>
      <trkpt lat="46.1699" lon="6.26563">
        <ele>498</ele>
        <time>2021-03-27T11:59:57Z</time>
      </trkpt>
      <trkpt lat="46.16997" lon="6.26551">
        <ele>498.6</ele>
        <time>2021-03-27T11:59:56Z</time>
      </trkpt>
      <trkpt lat="46.17004" lon="6.2654">
        <ele>498.8</ele>
        <time>2021-03-27T11:59:55Z</time>
      </trkpt>
      <trkpt lat="46.17011" lon="6.26528">
        <ele>498.8</ele>
        <time>2021-03-27T11:59:54Z</time>
      </trkpt>
      <trkpt lat="46.17017" lon="6.26517">
        <ele>499.6</ele>
        <time>2021-03-27T11:59:53Z</time>
      </trkpt>
      <trkpt lat="46.17024" lon="6.26506">
        <ele>499.6</ele>
        <time>2021-03-27T11:59:52Z</time>
      </trkpt>
      <trkpt lat="46.1703" lon="6.26496">
        <ele>500</ele>
        <time>2021-03-27T11:59:51Z</time>
      </trkpt>
      <trkpt lat="46.17036" lon="6.26486">
        <ele>500.4</ele>
        <time>2021-03-27T11:59:50Z</time>
      </trkpt>
      <trkpt lat="46.17042" lon="6.26476">
        <ele>500.6</ele>
        <time>2021-03-27T11:59:49Z</time>
      </trkpt>
      <trkpt lat="46.17047" lon="6.26467">
        <ele>500.6</ele>
        <time>2021-03-27T11:59:48Z</time>
      </trkpt>
      <trkpt lat="46.17052" lon="6.26458">
        <ele>500.6</ele>
        <time>2021-03-27T11:59:47Z</time>
      </trkpt>
      <trkpt lat="46.17057" lon="6.2645">
        <ele>500.6</ele>
        <time>2021-03-27T11:59:46Z</time>
      </trkpt>
      <trkpt lat="46.17062" lon="6.26443">
        <ele>500.6</ele>
        <time>2021-03-27T11:59:45Z</time>
      </trkpt>
      <trkpt lat="46.17066" lon="6.26436">
        <ele>500.6</ele>
        <time>2021-03-27T11:59:44Z</time>
      </trkpt>
      <trkpt lat="46.17071" lon="6.2643">
        <ele>500.8</ele>
        <time>2021-03-27T11:59:43Z</time>
      </trkpt>
      <trkpt lat="46.17074" lon="6.26423">
        <ele>500.8</ele>
        <time>2021-03-27T11:59:42Z</time>
      </trkpt>
      <trkpt lat="46.17078" lon="6.26417">
        <ele>500.8</ele>
        <time>2021-03-27T11:59:41Z</time>
      </trkpt>
      <trkpt lat="46.1708" lon="6.26412">
        <ele>500.8</ele>
        <time>2021-03-27T11:59:40Z</time>
      </trkpt>
      <trkpt lat="46.17082" lon="6.26408">
        <ele>500.8</ele>
        <time>2021-03-27T11:59:39Z</time>
      </trkpt>
      <trkpt lat="46.17084" lon="6.26405">
        <ele>500.8</ele>
        <time>2021-03-27T11:59:38Z</time>
      </trkpt>
      <trkpt lat="46.17087" lon="6.26401">
        <ele>501</ele>
        <time>2021-03-27T11:59:37Z</time>
      </trkpt>
      <trkpt lat="46.1709" lon="6.26397">
        <ele>500.8</ele>
        <time>2021-03-27T11:59:36Z</time>
      </trkpt>
      <trkpt lat="46.17093" lon="6.26391">
        <ele>501</ele>
        <time>2021-03-27T11:59:35Z</time>
      </trkpt>
      <trkpt lat="46.17096" lon="6.26385">
        <ele>501</ele>
        <time>2021-03-27T11:59:34Z</time>
      </trkpt>
      <trkpt lat="46.17101" lon="6.26378">
        <ele>501</ele>
        <time>2021-03-27T11:59:33Z</time>
      </trkpt>
      <trkpt lat="46.17106" lon="6.2637">
        <ele>501.2</ele>
        <time>2021-03-27T11:59:32Z</time>
      </trkpt>
      <trkpt lat="46.17111" lon="6.26362">
        <ele>501.2</ele>
        <time>2021-03-27T11:59:31Z</time>
      </trkpt>
      <trkpt lat="46.17116" lon="6.26354">
        <ele>501.4</ele>
        <time>2021-03-27T11:59:30Z</time>
      </trkpt>
      <trkpt lat="46.17121" lon="6.26346">
        <ele>501.2</ele>
        <time>2021-03-27T11:59:29Z</time>
      </trkpt>
      <trkpt lat="46.17126" lon="6.26338">
        <ele>501.4</ele>
        <time>2021-03-27T11:59:28Z</time>
      </trkpt>
      <trkpt lat="46.17131" lon="6.2633">
        <ele>501.4</ele>
        <time>2021-03-27T11:59:27Z</time>
      </trkpt>
      <trkpt lat="46.17136" lon="6.26322">
        <ele>501.4</ele>
        <time>2021-03-27T11:59:26Z</time>
      </trkpt>
      <trkpt lat="46.1714" lon="6.26314">
        <ele>501.6</ele>
        <time>2021-03-27T11:59:25Z</time>
      </trkpt>
      <trkpt lat="46.17145" lon="6.26306">
        <ele>502</ele>
        <time>2021-03-27T11:59:24Z</time>
      </trkpt>
      <trkpt lat="46.17149" lon="6.26299">
        <ele>502</ele>
        <time>2021-03-27T11:59:23Z</time>
      </trkpt>
      <trkpt lat="46.17154" lon="6.26292">
        <ele>502.2</ele>
        <time>2021-03-27T11:59:22Z</time>
      </trkpt>
      <trkpt lat="46.17159" lon="6.26284">
        <ele>502.2</ele>
        <time>2021-03-27T11:59:21Z</time>
      </trkpt>
      <trkpt lat="46.17163" lon="6.26277">
        <ele>502.2</ele>
        <time>2021-03-27T11:59:20Z</time>
      </trkpt>
      <trkpt lat="46.17168" lon="6.2627">
        <ele>502.4</ele>
        <time>2021-03-27T11:59:19Z</time>
      </trkpt>
      <trkpt lat="46.17173" lon="6.26263">
        <ele>502.4</ele>
        <time>2021-03-27T11:59:18Z</time>
      </trkpt>
      <trkpt lat="46.17177" lon="6.26256">
        <ele>502.4</ele>
        <time>2021-03-27T11:59:17Z</time>
      </trkpt>
      <trkpt lat="46.17181" lon="6.2625">
        <ele>502.4</ele>
        <time>2021-03-27T11:59:16Z</time>
      </trkpt>
      <trkpt lat="46.17185" lon="6.26244">
        <ele>502.4</ele>
        <time>2021-03-27T11:59:15Z</time>
      </trkpt>
      <trkpt lat="46.17189" lon="6.26237">
        <ele>502.6</ele>
        <time>2021-03-27T11:59:14Z</time>
      </trkpt>
      <trkpt lat="46.17194" lon="6.26231">
        <ele>502.4</ele>
        <time>2021-03-27T11:59:13Z</time>
      </trkpt>
      <trkpt lat="46.17198" lon="6.26224">
        <ele>502.2</ele>
        <time>2021-03-27T11:59:12Z</time>
      </trkpt>
      <trkpt lat="46.17201" lon="6.26218">
        <ele>502.2</ele>
        <time>2021-03-27T11:59:11Z</time>
      </trkpt>
      <trkpt lat="46.17205" lon="6.26212">
        <ele>502</ele>
        <time>2021-03-27T11:59:10Z</time>
      </trkpt>
      <trkpt lat="46.17209" lon="6.26206">
        <ele>502</ele>
        <time>2021-03-27T11:59:09Z</time>
      </trkpt>
      <trkpt lat="46.17213" lon="6.262">
        <ele>501.8</ele>
        <time>2021-03-27T11:59:08Z</time>
      </trkpt>
      <trkpt lat="46.17216" lon="6.26194">
        <ele>501.6</ele>
        <time>2021-03-27T11:59:07Z</time>
      </trkpt>
      <trkpt lat="46.1722" lon="6.26187">
        <ele>501.2</ele>
        <time>2021-03-27T11:59:06Z</time>
      </trkpt>
      <trkpt lat="46.17223" lon="6.26181">
        <ele>500.8</ele>
        <time>2021-03-27T11:59:05Z</time>
      </trkpt>
      <trkpt lat="46.17227" lon="6.26175">
        <ele>500.6</ele>
        <time>2021-03-27T11:59:04Z</time>
      </trkpt>
      <trkpt lat="46.1723" lon="6.26168">
        <ele>500</ele>
        <time>2021-03-27T11:59:03Z</time>
      </trkpt>
      <trkpt lat="46.17234" lon="6.26162">
        <ele>499.4</ele>
        <time>2021-03-27T11:59:02Z</time>
      </trkpt>
      <trkpt lat="46.17237" lon="6.26157">
        <ele>499.2</ele>
        <time>2021-03-27T11:59:01Z</time>
      </trkpt>
      <trkpt lat="46.1724" lon="6.26151">
        <ele>499</ele>
        <time>2021-03-27T11:59:00Z</time>
      </trkpt>
      <trkpt lat="46.17243" lon="6.26146">
        <ele>498.4</ele>
        <time>2021-03-27T11:58:59Z</time>
      </trkpt>
      <trkpt lat="46.17246" lon="6.2614">
        <ele>497.8</ele>
        <time>2021-03-27T11:58:58Z</time>
      </trkpt>
      <trkpt lat="46.17249" lon="6.26135">
        <ele>497.2</ele>
        <time>2021-03-27T11:58:57Z</time>
      </trkpt>
      <trkpt lat="46.17252" lon="6.2613">
        <ele>496.8</ele>
        <time>2021-03-27T11:58:56Z</time>
      </trkpt>
      <trkpt lat="46.17254" lon="6.26125">
        <ele>496.2</ele>
        <time>2021-03-27T11:58:55Z</time>
      </trkpt>
      <trkpt lat="46.17256" lon="6.26119">
        <ele>496</ele>
        <time>2021-03-27T11:58:54Z</time>
      </trkpt>
      <trkpt lat="46.17259" lon="6.26114">
        <ele>495.6</ele>
        <time>2021-03-27T11:58:53Z</time>
      </trkpt>
      <trkpt lat="46.17261" lon="6.26108">
        <ele>495.2</ele>
        <time>2021-03-27T11:58:52Z</time>
      </trkpt>
      <trkpt lat="46.17263" lon="6.26103">
        <ele>495.2</ele>
        <time>2021-03-27T11:58:51Z</time>
      </trkpt>
      <trkpt lat="46.17266" lon="6.26098">
        <ele>495.2</ele>
        <time>2021-03-27T11:58:50Z</time>
      </trkpt>
      <trkpt lat="46.1727" lon="6.26093">
        <ele>495</ele>
        <time>2021-03-27T11:58:49Z</time>
      </trkpt>
      <trkpt lat="46.17274" lon="6.26088">
        <ele>495.2</ele>
        <time>2021-03-27T11:58:48Z</time>
      </trkpt>
      <trkpt lat="46.17277" lon="6.26081">
        <ele>495</ele>
        <time>2021-03-27T11:58:47Z</time>
      </trkpt>
      <trkpt lat="46.1728" lon="6.26074">
        <ele>495</ele>
        <time>2021-03-27T11:58:46Z</time>
      </trkpt>
      <trkpt lat="46.17283" lon="6.26068">
        <ele>495</ele>
        <time>2021-03-27T11:58:45Z</time>
      </trkpt>
      <trkpt lat="46.17288" lon="6.26061">
        <ele>495</ele>
        <time>2021-03-27T11:58:44Z</time>
      </trkpt>
      <trkpt lat="46.17293" lon="6.26054">
        <ele>495</ele>
        <time>2021-03-27T11:58:43Z</time>
      </trkpt>
      <trkpt lat="46.17297" lon="6.26046">
        <ele>495</ele>
        <time>2021-03-27T11:58:42Z</time>
      </trkpt>
      <trkpt lat="46.17301" lon="6.26037">
        <ele>495.2</ele>
        <time>2021-03-27T11:58:41Z</time>
      </trkpt>
      <trkpt lat="46.17305" lon="6.26028">
        <ele>495.4</ele>
        <time>2021-03-27T11:58:40Z</time>
      </trkpt>
      <trkpt lat="46.17309" lon="6.26019">
        <ele>495.6</ele>
        <time>2021-03-27T11:58:39Z</time>
      </trkpt>
      <trkpt lat="46.17313" lon="6.2601">
        <ele>496</ele>
        <time>2021-03-27T11:58:38Z</time>
      </trkpt>
      <trkpt lat="46.17317" lon="6.26001">
        <ele>496.2</ele>
        <time>2021-03-27T11:58:37Z</time>
      </trkpt>
      <trkpt lat="46.17322" lon="6.25991">
        <ele>496.8</ele>
        <time>2021-03-27T11:58:36Z</time>
      </trkpt>
      <trkpt lat="46.17326" lon="6.25982">
        <ele>497.4</ele>
        <time>2021-03-27T11:58:35Z</time>
      </trkpt>
      <trkpt lat="46.17331" lon="6.25972">
        <ele>497.8</ele>
        <time>2021-03-27T11:58:34Z</time>
      </trkpt>
      <trkpt lat="46.17336" lon="6.25962">
        <ele>497.8</ele>
        <time>2021-03-27T11:58:33Z</time>
      </trkpt>
      <trkpt lat="46.17344" lon="6.25941">
        <ele>498.8</ele>
        <time>2021-03-27T11:58:31Z</time>
      </trkpt>
      <trkpt lat="46.17348" lon="6.2593">
        <ele>499</ele>
        <time>2021-03-27T11:58:30Z</time>
      </trkpt>
      <trkpt lat="46.17353" lon="6.25919">
        <ele>499.2</ele>
        <time>2021-03-27T11:58:29Z</time>
      </trkpt>
      <trkpt lat="46.17357" lon="6.25909">
        <ele>499.4</ele>
        <time>2021-03-27T11:58:28Z</time>
      </trkpt>
      <trkpt lat="46.17362" lon="6.25898">
        <ele>499.6</ele>
        <time>2021-03-27T11:58:27Z</time>
      </trkpt>
      <trkpt lat="46.17367" lon="6.25889">
        <ele>499.6</ele>
        <time>2021-03-27T11:58:26Z</time>
      </trkpt>
      <trkpt lat="46.17372" lon="6.2588">
        <ele>499.6</ele>
        <time>2021-03-27T11:58:25Z</time>
      </trkpt>
      <trkpt lat="46.17378" lon="6.25873">
        <ele>499.6</ele>
        <time>2021-03-27T11:58:24Z</time>
      </trkpt>
      <trkpt lat="46.17383" lon="6.25866">
        <ele>499.6</ele>
        <time>2021-03-27T11:58:23Z</time>
      </trkpt>
      <trkpt lat="46.17394" lon="6.25853">
        <ele>499.6</ele>
        <time>2021-03-27T11:58:21Z</time>
      </trkpt>
      <trkpt lat="46.17399" lon="6.25848">
        <ele>499.6</ele>
        <time>2021-03-27T11:58:20Z</time>
      </trkpt>
      <trkpt lat="46.17403" lon="6.25843">
        <ele>499.6</ele>
        <time>2021-03-27T11:58:19Z</time>
      </trkpt>
      <trkpt lat="46.17411" lon="6.25832">
        <ele>499.6</ele>
        <time>2021-03-27T11:58:17Z</time>
      </trkpt>
      <trkpt lat="46.17414" lon="6.25826">
        <ele>499.4</ele>
        <time>2021-03-27T11:58:16Z</time>
      </trkpt>
      <trkpt lat="46.17416" lon="6.2582">
        <ele>499.6</ele>
        <time>2021-03-27T11:58:15Z</time>
      </trkpt>
      <trkpt lat="46.17417" lon="6.25814">
        <ele>499.6</ele>
        <time>2021-03-27T11:58:14Z</time>
      </trkpt>
      <trkpt lat="46.17418" lon="6.25808">
        <ele>499.6</ele>
        <time>2021-03-27T11:58:13Z</time>
      </trkpt>
      <trkpt lat="46.17419" lon="6.25802">
        <ele>499.6</ele>
        <time>2021-03-27T11:58:12Z</time>
      </trkpt>
      <trkpt lat="46.17419" lon="6.25796">
        <ele>499.6</ele>
        <time>2021-03-27T11:58:11Z</time>
      </trkpt>
      <trkpt lat="46.17419" lon="6.2579">
        <ele>499.6</ele>
        <time>2021-03-27T11:58:10Z</time>
      </trkpt>
      <trkpt lat="46.17418" lon="6.2578">
        <ele>499.6</ele>
        <time>2021-03-27T11:58:08Z</time>
      </trkpt>
      <trkpt lat="46.17416" lon="6.25776">
        <ele>499.6</ele>
        <time>2021-03-27T11:58:07Z</time>
      </trkpt>
      <trkpt lat="46.17415" lon="6.25772">
        <ele>499.6</ele>
        <time>2021-03-27T11:58:06Z</time>
      </trkpt>
      <trkpt lat="46.17414" lon="6.25768">
        <ele>499.6</ele>
        <time>2021-03-27T11:58:05Z</time>
      </trkpt>
      <trkpt lat="46.17412" lon="6.25766">
        <ele>499.8</ele>
        <time>2021-03-27T11:58:04Z</time>
      </trkpt>
      <trkpt lat="46.17409" lon="6.25765">
        <ele>499.6</ele>
        <time>2021-03-27T11:58:03Z</time>
      </trkpt>
      <trkpt lat="46.17407" lon="6.25768">
        <ele>499.6</ele>
        <time>2021-03-27T11:58:02Z</time>
      </trkpt>
      <trkpt lat="46.17405" lon="6.25772">
        <ele>499.6</ele>
        <time>2021-03-27T11:58:01Z</time>
      </trkpt>
      <trkpt lat="46.17405" lon="6.25775">
        <ele>499.6</ele>
        <time>2021-03-27T11:58:00Z</time>
      </trkpt>
      <trkpt lat="46.17405" lon="6.25777">
        <ele>499.6</ele>
        <time>2021-03-27T11:57:59Z</time>
      </trkpt>
      <trkpt lat="46.17405" lon="6.25779">
        <ele>499.6</ele>
        <time>2021-03-27T11:57:58Z</time>
      </trkpt>
      <trkpt lat="46.17405" lon="6.2578">
        <ele>499.8</ele>
        <time>2021-03-27T11:57:57Z</time>
      </trkpt>
      <trkpt lat="46.17405" lon="6.2578">
        <ele>499.6</ele>
        <time>2021-03-27T11:57:56Z</time>
      </trkpt>
      <trkpt lat="46.17405" lon="6.25781">
        <ele>499.6</ele>
        <time>2021-03-27T11:57:55Z</time>
      </trkpt>
      <trkpt lat="46.17405" lon="6.25781">
        <ele>499.6</ele>
        <time>2021-03-27T11:57:53Z</time>
      </trkpt>
      <trkpt lat="46.17405" lon="6.25781">
        <ele>499.6</ele>
        <time>2021-03-27T11:57:52Z</time>
      </trkpt>
      <trkpt lat="46.17405" lon="6.25781">
        <ele>499.8</ele>
        <time>2021-03-27T11:57:51Z</time>
      </trkpt>
      <trkpt lat="46.17405" lon="6.2578">
        <ele>499.8</ele>
        <time>2021-03-27T11:57:49Z</time>
      </trkpt>
      <trkpt lat="46.17405" lon="6.2578">
        <ele>499.8</ele>
        <time>2021-03-27T11:57:48Z</time>
      </trkpt>
      <trkpt lat="46.17405" lon="6.2578">
        <ele>499.8</ele>
        <time>2021-03-27T11:57:47Z</time>
      </trkpt>
      <trkpt lat="46.17405" lon="6.2578">
        <ele>499.6</ele>
        <time>2021-03-27T11:57:46Z</time>
      </trkpt>
      <trkpt lat="46.17405" lon="6.2578">
        <ele>499.6</ele>
        <time>2021-03-27T11:57:45Z</time>
      </trkpt>
      <trkpt lat="46.17405" lon="6.2578">
        <ele>499.8</ele>
        <time>2021-03-27T11:57:44Z</time>
      </trkpt>
      <trkpt lat="46.17404" lon="6.2578">
        <ele>499.6</ele>
        <time>2021-03-27T11:57:43Z</time>
      </trkpt>
      <trkpt lat="46.17405" lon="6.2578">
        <ele>499.8</ele>
        <time>2021-03-27T11:57:42Z</time>
      </trkpt>
      <trkpt lat="46.17404" lon="6.2578">
        <ele>499.6</ele>
        <time>2021-03-27T11:57:40Z</time>
      </trkpt>
      <trkpt lat="46.17404" lon="6.2578">
        <ele>499.6</ele>
        <time>2021-03-27T11:57:39Z</time>
      </trkpt>
      <trkpt lat="46.17404" lon="6.25781">
        <ele>499.8</ele>
        <time>2021-03-27T11:57:38Z</time>
      </trkpt>
      <trkpt lat="46.17404" lon="6.25781">
        <ele>499.8</ele>
        <time>2021-03-27T11:57:36Z</time>
      </trkpt>
      <trkpt lat="46.17404" lon="6.25781">
        <ele>499.6</ele>
        <time>2021-03-27T11:57:35Z</time>
      </trkpt>
      <trkpt lat="46.17404" lon="6.25781">
        <ele>499.6</ele>
        <time>2021-03-27T11:57:33Z</time>
      </trkpt>
      <trkpt lat="46.17404" lon="6.25781">
        <ele>499.6</ele>
        <time>2021-03-27T11:57:32Z</time>
      </trkpt>
      <trkpt lat="46.17404" lon="6.25781">
        <ele>499.6</ele>
        <time>2021-03-27T11:57:31Z</time>
      </trkpt>
      <trkpt lat="46.17404" lon="6.25781">
        <ele>499.6</ele>
        <time>2021-03-27T11:57:30Z</time>
      </trkpt>
      <trkpt lat="46.17404" lon="6.25781">
        <ele>499.6</ele>
        <time>2021-03-27T11:57:29Z</time>
      </trkpt>
      <trkpt lat="46.17404" lon="6.25781">
        <ele>499.4</ele>
        <time>2021-03-27T11:57:28Z</time>
      </trkpt>
      <trkpt lat="46.17404" lon="6.25781">
        <ele>499.4</ele>
        <time>2021-03-27T11:57:27Z</time>
      </trkpt>
      <trkpt lat="46.17404" lon="6.25781">
        <ele>499.4</ele>
        <time>2021-03-27T11:57:26Z</time>
      </trkpt>
      <trkpt lat="46.17404" lon="6.25782">
        <ele>499.4</ele>
        <time>2021-03-27T11:57:25Z</time>
      </trkpt>
      <trkpt lat="46.17404" lon="6.25782">
        <ele>499.4</ele>
        <time>2021-03-27T11:57:24Z</time>
      </trkpt>
      <trkpt lat="46.17404" lon="6.25782">
        <ele>499.4</ele>
        <time>2021-03-27T11:57:23Z</time>
      </trkpt>
      <trkpt lat="46.17404" lon="6.25782">
        <ele>499.4</ele>
        <time>2021-03-27T11:57:22Z</time>
      </trkpt>
      <trkpt lat="46.17404" lon="6.25782">
        <ele>499.4</ele>
        <time>2021-03-27T11:57:21Z</time>
      </trkpt>
      <trkpt lat="46.17404" lon="6.25782">
        <ele>499.4</ele>
        <time>2021-03-27T11:57:20Z</time>
      </trkpt>
      <trkpt lat="46.17404" lon="6.25782">
        <ele>499.4</ele>
        <time>2021-03-27T11:57:19Z</time>
      </trkpt>
      <trkpt lat="46.17404" lon="6.25782">
        <ele>499.4</ele>
        <time>2021-03-27T11:57:18Z</time>
      </trkpt>
      <trkpt lat="46.17404" lon="6.25782">
        <ele>499.4</ele>
        <time>2021-03-27T11:57:17Z</time>
      </trkpt>
      <trkpt lat="46.17404" lon="6.25782">
        <ele>499.4</ele>
        <time>2021-03-27T11:57:16Z</time>
      </trkpt>
      <trkpt lat="46.17404" lon="6.25782">
        <ele>499.4</ele>
        <time>2021-03-27T11:57:15Z</time>
      </trkpt>
      <trkpt lat="46.17404" lon="6.25782">
        <ele>499.4</ele>
        <time>2021-03-27T11:57:14Z</time>
      </trkpt>
      <trkpt lat="46.17404" lon="6.25783">
        <ele>499.4</ele>
        <time>2021-03-27T11:57:13Z</time>
      </trkpt>
      <trkpt lat="46.17404" lon="6.25783">
        <ele>499.4</ele>
        <time>2021-03-27T11:57:12Z</time>
      </trkpt>
      <trkpt lat="46.17404" lon="6.25783">
        <ele>499.4</ele>
        <time>2021-03-27T11:57:11Z</time>
      </trkpt>
      <trkpt lat="46.17405" lon="6.25783">
        <ele>499.4</ele>
        <time>2021-03-27T11:57:10Z</time>
      </trkpt>
      <trkpt lat="46.17405" lon="6.25783">
        <ele>499.4</ele>
        <time>2021-03-27T11:57:09Z</time>
      </trkpt>
      <trkpt lat="46.17405" lon="6.25784">
        <ele>499.4</ele>
        <time>2021-03-27T11:57:08Z</time>
      </trkpt>
      <trkpt lat="46.17405" lon="6.25784">
        <ele>499.4</ele>
        <time>2021-03-27T11:57:07Z</time>
      </trkpt>
      <trkpt lat="46.17405" lon="6.25784">
        <ele>499.4</ele>
        <time>2021-03-27T11:57:06Z</time>
      </trkpt>
      <trkpt lat="46.17405" lon="6.25784">
        <ele>499.4</ele>
        <time>2021-03-27T11:57:05Z</time>
      </trkpt>
      <trkpt lat="46.17405" lon="6.25784">
        <ele>499.4</ele>
        <time>2021-03-27T11:57:04Z</time>
      </trkpt>
      <trkpt lat="46.17405" lon="6.25784">
        <ele>499.4</ele>
        <time>2021-03-27T11:57:03Z</time>
      </trkpt>
      <trkpt lat="46.17405" lon="6.25784">
        <ele>499.4</ele>
        <time>2021-03-27T11:57:02Z</time>
      </trkpt>
      <trkpt lat="46.17405" lon="6.25785">
        <ele>499.4</ele>
        <time>2021-03-27T11:57:01Z</time>
      </trkpt>
      <trkpt lat="46.17405" lon="6.25785">
        <ele>499.4</ele>
        <time>2021-03-27T11:57:00Z</time>
      </trkpt>
      <trkpt lat="46.17405" lon="6.25785">
        <ele>499.4</ele>
        <time>2021-03-27T11:56:59Z</time>
      </trkpt>
      <trkpt lat="46.17405" lon="6.25785">
        <ele>499.2</ele>
        <time>2021-03-27T11:56:58Z</time>
      </trkpt>
      <trkpt lat="46.17405" lon="6.25785">
        <ele>499.2</ele>
        <time>2021-03-27T11:56:57Z</time>
      </trkpt>
      <trkpt lat="46.17405" lon="6.25785">
        <ele>499.4</ele>
        <time>2021-03-27T11:56:56Z</time>
      </trkpt>
      <trkpt lat="46.17405" lon="6.25785">
        <ele>499.4</ele>
        <time>2021-03-27T11:56:55Z</time>
      </trkpt>
      <trkpt lat="46.17405" lon="6.25785">
        <ele>499.4</ele>
        <time>2021-03-27T11:56:54Z</time>
      </trkpt>
      <trkpt lat="46.17405" lon="6.25786">
        <ele>499.4</ele>
        <time>2021-03-27T11:56:53Z</time>
      </trkpt>
      <trkpt lat="46.17405" lon="6.25786">
        <ele>499.4</ele>
        <time>2021-03-27T11:56:52Z</time>
      </trkpt>
      <trkpt lat="46.17405" lon="6.25786">
        <ele>499.4</ele>
        <time>2021-03-27T11:56:51Z</time>
      </trkpt>
      <trkpt lat="46.17405" lon="6.25786">
        <ele>499.4</ele>
        <time>2021-03-27T11:56:50Z</time>
      </trkpt>
      <trkpt lat="46.17405" lon="6.25786">
        <ele>499.4</ele>
        <time>2021-03-27T11:56:49Z</time>
      </trkpt>
      <trkpt lat="46.17405" lon="6.25786">
        <ele>499.4</ele>
        <time>2021-03-27T11:56:48Z</time>
      </trkpt>
      <trkpt lat="46.17404" lon="6.25786">
        <ele>499.4</ele>
        <time>2021-03-27T11:56:47Z</time>
      </trkpt>
      <trkpt lat="46.17404" lon="6.25786">
        <ele>499.4</ele>
        <time>2021-03-27T11:56:46Z</time>
      </trkpt>
      <trkpt lat="46.17403" lon="6.25785">
        <ele>499.4</ele>
        <time>2021-03-27T11:56:45Z</time>
      </trkpt>
      <trkpt lat="46.17403" lon="6.25785">
        <ele>499.4</ele>
        <time>2021-03-27T11:56:44Z</time>
      </trkpt>
      <trkpt lat="46.17403" lon="6.25785">
        <ele>499.4</ele>
        <time>2021-03-27T11:56:43Z</time>
      </trkpt>
      <trkpt lat="46.17403" lon="6.25785">
        <ele>499.4</ele>
        <time>2021-03-27T11:56:42Z</time>
      </trkpt>
      <trkpt lat="46.17403" lon="6.25785">
        <ele>499.2</ele>
        <time>2021-03-27T11:56:41Z</time>
      </trkpt>
      <trkpt lat="46.17403" lon="6.25785">
        <ele>499.2</ele>
        <time>2021-03-27T11:56:40Z</time>
      </trkpt>
      <trkpt lat="46.17403" lon="6.25785">
        <ele>499.4</ele>
        <time>2021-03-27T11:56:39Z</time>
      </trkpt>
      <trkpt lat="46.17403" lon="6.25785">
        <ele>499.2</ele>
        <time>2021-03-27T11:56:38Z</time>
      </trkpt>
      <trkpt lat="46.17403" lon="6.25785">
        <ele>499.2</ele>
        <time>2021-03-27T11:56:37Z</time>
      </trkpt>
      <trkpt lat="46.17403" lon="6.25785">
        <ele>499.4</ele>
        <time>2021-03-27T11:56:36Z</time>
      </trkpt>
      <trkpt lat="46.17403" lon="6.25785">
        <ele>499.2</ele>
        <time>2021-03-27T11:56:35Z</time>
      </trkpt>
      <trkpt lat="46.17403" lon="6.25785">
        <ele>499.4</ele>
        <time>2021-03-27T11:56:34Z</time>
      </trkpt>
      <trkpt lat="46.17403" lon="6.25785">
        <ele>499.2</ele>
        <time>2021-03-27T11:56:33Z</time>
      </trkpt>
      <trkpt lat="46.17403" lon="6.25785">
        <ele>499.2</ele>
        <time>2021-03-27T11:56:32Z</time>
      </trkpt>
      <trkpt lat="46.17403" lon="6.25785">
        <ele>499.2</ele>
        <time>2021-03-27T11:56:31Z</time>
      </trkpt>
      <trkpt lat="46.17403" lon="6.25785">
        <ele>499.2</ele>
        <time>2021-03-27T11:56:30Z</time>
      </trkpt>
      <trkpt lat="46.17403" lon="6.25785">
        <ele>499.2</ele>
        <time>2021-03-27T11:56:29Z</time>
      </trkpt>
      <trkpt lat="46.17403" lon="6.25785">
        <ele>499.2</ele>
        <time>2021-03-27T11:56:28Z</time>
      </trkpt>
      <trkpt lat="46.17403" lon="6.25785">
        <ele>499.2</ele>
        <time>2021-03-27T11:56:27Z</time>
      </trkpt>
      <trkpt lat="46.17403" lon="6.25785">
        <ele>499.2</ele>
        <time>2021-03-27T11:56:26Z</time>
      </trkpt>
      <trkpt lat="46.17403" lon="6.25785">
        <ele>499.4</ele>
        <time>2021-03-27T11:56:25Z</time>
      </trkpt>
      <trkpt lat="46.17403" lon="6.25785">
        <ele>499.4</ele>
        <time>2021-03-27T11:56:24Z</time>
      </trkpt>
      <trkpt lat="46.17403" lon="6.25785">
        <ele>499.4</ele>
        <time>2021-03-27T11:56:23Z</time>
      </trkpt>
      <trkpt lat="46.17403" lon="6.25785">
        <ele>499.4</ele>
        <time>2021-03-27T11:56:22Z</time>
      </trkpt>
      <trkpt lat="46.17403" lon="6.25785">
        <ele>499.4</ele>
        <time>2021-03-27T11:56:21Z</time>
      </trkpt>
      <trkpt lat="46.17403" lon="6.25785">
        <ele>499.4</ele>
        <time>2021-03-27T11:56:20Z</time>
      </trkpt>
      <trkpt lat="46.17403" lon="6.25785">
        <ele>499.4</ele>
        <time>2021-03-27T11:56:19Z</time>
      </trkpt>
      <trkpt lat="46.17403" lon="6.25785">
        <ele>499.4</ele>
        <time>2021-03-27T11:56:18Z</time>
      </trkpt>
      <trkpt lat="46.17403" lon="6.25785">
        <ele>499.4</ele>
        <time>2021-03-27T11:56:17Z</time>
      </trkpt>
      <trkpt lat="46.17403" lon="6.25785">
        <ele>499.4</ele>
        <time>2021-03-27T11:56:16Z</time>
      </trkpt>
      <trkpt lat="46.17403" lon="6.25785">
        <ele>499.4</ele>
        <time>2021-03-27T11:56:15Z</time>
      </trkpt>
      <trkpt lat="46.17403" lon="6.25785">
        <ele>499.4</ele>
        <time>2021-03-27T11:56:14Z</time>
      </trkpt>
      <trkpt lat="46.17403" lon="6.25785">
        <ele>499.4</ele>
        <time>2021-03-27T11:56:13Z</time>
      </trkpt>
      <trkpt lat="46.17403" lon="6.25785">
        <ele>499.4</ele>
        <time>2021-03-27T11:56:12Z</time>
      </trkpt>
      <trkpt lat="46.17403" lon="6.25785">
        <ele>499.4</ele>
        <time>2021-03-27T11:56:11Z</time>
      </trkpt>
      <trkpt lat="46.17403" lon="6.25785">
        <ele>499.4</ele>
        <time>2021-03-27T11:56:10Z</time>
      </trkpt>
      <trkpt lat="46.17403" lon="6.25785">
        <ele>499.6</ele>
        <time>2021-03-27T11:56:09Z</time>
      </trkpt>
      <trkpt lat="46.17403" lon="6.25785">
        <ele>499.6</ele>
        <time>2021-03-27T11:56:08Z</time>
      </trkpt>
      <trkpt lat="46.17403" lon="6.25785">
        <ele>499.6</ele>
        <time>2021-03-27T11:56:07Z</time>
      </trkpt>
      <trkpt lat="46.17403" lon="6.25785">
        <ele>499.6</ele>
        <time>2021-03-27T11:56:06Z</time>
      </trkpt>
      <trkpt lat="46.17403" lon="6.25785">
        <ele>499.6</ele>
        <time>2021-03-27T11:56:05Z</time>
      </trkpt>
      <trkpt lat="46.17403" lon="6.25785">
        <ele>499.6</ele>
        <time>2021-03-27T11:56:04Z</time>
      </trkpt>
      <trkpt lat="46.17403" lon="6.25785">
        <ele>499.6</ele>
        <time>2021-03-27T11:56:03Z</time>
      </trkpt>
      <trkpt lat="46.17403" lon="6.25785">
        <ele>499.6</ele>
        <time>2021-03-27T11:56:02Z</time>
      </trkpt>
      <trkpt lat="46.17403" lon="6.25785">
        <ele>499.6</ele>
        <time>2021-03-27T11:56:01Z</time>
      </trkpt>
      <trkpt lat="46.17403" lon="6.25785">
        <ele>499.6</ele>
        <time>2021-03-27T11:56:00Z</time>
      </trkpt>
      <trkpt lat="46.17403" lon="6.25785">
        <ele>499.6</ele>
        <time>2021-03-27T11:55:59Z</time>
      </trkpt>
      <trkpt lat="46.17403" lon="6.25785">
        <ele>499.6</ele>
        <time>2021-03-27T11:55:58Z</time>
      </trkpt>
      <trkpt lat="46.17403" lon="6.25785">
        <ele>499.6</ele>
        <time>2021-03-27T11:55:57Z</time>
      </trkpt>
      <trkpt lat="46.17403" lon="6.25785">
        <ele>499.4</ele>
        <time>2021-03-27T11:55:56Z</time>
      </trkpt>
      <trkpt lat="46.17403" lon="6.25785">
        <ele>499.6</ele>
        <time>2021-03-27T11:55:55Z</time>
      </trkpt>
      <trkpt lat="46.17403" lon="6.25785">
        <ele>499.6</ele>
        <time>2021-03-27T11:55:54Z</time>
      </trkpt>
      <trkpt lat="46.17403" lon="6.25785">
        <ele>499.6</ele>
        <time>2021-03-27T11:55:53Z</time>
      </trkpt>
      <trkpt lat="46.17403" lon="6.25785">
        <ele>499.4</ele>
        <time>2021-03-27T11:55:52Z</time>
      </trkpt>
      <trkpt lat="46.17403" lon="6.25785">
        <ele>499.6</ele>
        <time>2021-03-27T11:55:51Z</time>
      </trkpt>
      <trkpt lat="46.17403" lon="6.25785">
        <ele>499.4</ele>
        <time>2021-03-27T11:55:50Z</time>
      </trkpt>
      <trkpt lat="46.17403" lon="6.25785">
        <ele>499.4</ele>
        <time>2021-03-27T11:55:49Z</time>
      </trkpt>
      <trkpt lat="46.17403" lon="6.25785">
        <ele>499.4</ele>
        <time>2021-03-27T11:55:48Z</time>
      </trkpt>
      <trkpt lat="46.17403" lon="6.25785">
        <ele>499.4</ele>
        <time>2021-03-27T11:55:47Z</time>
      </trkpt>
      <trkpt lat="46.17403" lon="6.25785">
        <ele>499.2</ele>
        <time>2021-03-27T11:55:46Z</time>
      </trkpt>
      <trkpt lat="46.17403" lon="6.25785">
        <ele>499.4</ele>
        <time>2021-03-27T11:55:45Z</time>
      </trkpt>
      <trkpt lat="46.17403" lon="6.25785">
        <ele>499.4</ele>
        <time>2021-03-27T11:55:44Z</time>
      </trkpt>
      <trkpt lat="46.17403" lon="6.25785">
        <ele>499.2</ele>
        <time>2021-03-27T11:55:43Z</time>
      </trkpt>
      <trkpt lat="46.17403" lon="6.25785">
        <ele>499.4</ele>
        <time>2021-03-27T11:55:42Z</time>
      </trkpt>
      <trkpt lat="46.17403" lon="6.25785">
        <ele>499.4</ele>
        <time>2021-03-27T11:55:41Z</time>
      </trkpt>
      <trkpt lat="46.17403" lon="6.25785">
        <ele>499.4</ele>
        <time>2021-03-27T11:55:40Z</time>
      </trkpt>
      <trkpt lat="46.17403" lon="6.25785">
        <ele>499.2</ele>
        <time>2021-03-27T11:55:39Z</time>
      </trkpt>
      <trkpt lat="46.17403" lon="6.25785">
        <ele>499.4</ele>
        <time>2021-03-27T11:55:38Z</time>
      </trkpt>
      <trkpt lat="46.17403" lon="6.25785">
        <ele>499.2</ele>
        <time>2021-03-27T11:55:37Z</time>
      </trkpt>
      <trkpt lat="46.17403" lon="6.25785">
        <ele>499.4</ele>
        <time>2021-03-27T11:55:36Z</time>
      </trkpt>
      <trkpt lat="46.17403" lon="6.25785">
        <ele>499.4</ele>
        <time>2021-03-27T11:55:35Z</time>
      </trkpt>
      <trkpt lat="46.17403" lon="6.25785">
        <ele>499.4</ele>
        <time>2021-03-27T11:55:34Z</time>
      </trkpt>
      <trkpt lat="46.17403" lon="6.25785">
        <ele>499.4</ele>
        <time>2021-03-27T11:55:33Z</time>
      </trkpt>
      <trkpt lat="46.17403" lon="6.25785">
        <ele>499.4</ele>
        <time>2021-03-27T11:55:32Z</time>
      </trkpt>
      <trkpt lat="46.17403" lon="6.25785">
        <ele>499.4</ele>
        <time>2021-03-27T11:55:31Z</time>
      </trkpt>
      <trkpt lat="46.17403" lon="6.25785">
        <ele>499.2</ele>
        <time>2021-03-27T11:55:30Z</time>
      </trkpt>
      <trkpt lat="46.17403" lon="6.25785">
        <ele>499.2</ele>
        <time>2021-03-27T11:55:29Z</time>
      </trkpt>
      <trkpt lat="46.17403" lon="6.25785">
        <ele>499.4</ele>
        <time>2021-03-27T11:55:28Z</time>
      </trkpt>
      <trkpt lat="46.17403" lon="6.25785">
        <ele>499.4</ele>
        <time>2021-03-27T11:55:27Z</time>
      </trkpt>
      <trkpt lat="46.17403" lon="6.25785">
        <ele>499.4</ele>
        <time>2021-03-27T11:55:26Z</time>
      </trkpt>
      <trkpt lat="46.17403" lon="6.25785">
        <ele>499.4</ele>
        <time>2021-03-27T11:55:25Z</time>
      </trkpt>
      <trkpt lat="46.17403" lon="6.25785">
        <ele>499.4</ele>
        <time>2021-03-27T11:55:24Z</time>
      </trkpt>
      <trkpt lat="46.17403" lon="6.25785">
        <ele>499.4</ele>
        <time>2021-03-27T11:55:23Z</time>
      </trkpt>
      <trkpt lat="46.17403" lon="6.25785">
        <ele>499.6</ele>
        <time>2021-03-27T11:55:22Z</time>
      </trkpt>
      <trkpt lat="46.17403" lon="6.25785">
        <ele>499.6</ele>
        <time>2021-03-27T11:55:21Z</time>
      </trkpt>
      <trkpt lat="46.17403" lon="6.25785">
        <ele>499.4</ele>
        <time>2021-03-27T11:55:20Z</time>
      </trkpt>
      <trkpt lat="46.17403" lon="6.25785">
        <ele>499.6</ele>
        <time>2021-03-27T11:55:19Z</time>
      </trkpt>
      <trkpt lat="46.17403" lon="6.25785">
        <ele>499.4</ele>
        <time>2021-03-27T11:55:18Z</time>
      </trkpt>
      <trkpt lat="46.17403" lon="6.25785">
        <ele>499.6</ele>
        <time>2021-03-27T11:55:17Z</time>
      </trkpt>
      <trkpt lat="46.17403" lon="6.25785">
        <ele>499.6</ele>
        <time>2021-03-27T11:55:16Z</time>
      </trkpt>
      <trkpt lat="46.17403" lon="6.25785">
        <ele>499.4</ele>
        <time>2021-03-27T11:55:15Z</time>
      </trkpt>
      <trkpt lat="46.17403" lon="6.25785">
        <ele>499.6</ele>
        <time>2021-03-27T11:55:14Z</time>
      </trkpt>
      <trkpt lat="46.17403" lon="6.25785">
        <ele>499.4</ele>
        <time>2021-03-27T11:55:13Z</time>
      </trkpt>
      <trkpt lat="46.17403" lon="6.25785">
        <ele>499.6</ele>
        <time>2021-03-27T11:55:12Z</time>
      </trkpt>
      <trkpt lat="46.17403" lon="6.25785">
        <ele>499.4</ele>
        <time>2021-03-27T11:55:11Z</time>
      </trkpt>
      <trkpt lat="46.17403" lon="6.25785">
        <ele>499.6</ele>
        <time>2021-03-27T11:55:10Z</time>
      </trkpt>
      <trkpt lat="46.17403" lon="6.25785">
        <ele>499.6</ele>
        <time>2021-03-27T11:55:09Z</time>
      </trkpt>
      <trkpt lat="46.17403" lon="6.25785">
        <ele>499.4</ele>
        <time>2021-03-27T11:55:08Z</time>
      </trkpt>
      <trkpt lat="46.17403" lon="6.25785">
        <ele>499.6</ele>
        <time>2021-03-27T11:55:07Z</time>
      </trkpt>
      <trkpt lat="46.17403" lon="6.25785">
        <ele>499.6</ele>
        <time>2021-03-27T11:55:06Z</time>
      </trkpt>
      <trkpt lat="46.17403" lon="6.25785">
        <ele>499.6</ele>
        <time>2021-03-27T11:55:04Z</time>
      </trkpt>
      <trkpt lat="46.17403" lon="6.25785">
        <ele>499.4</ele>
        <time>2021-03-27T11:55:03Z</time>
      </trkpt>
      <trkpt lat="46.17403" lon="6.25785">
        <ele>499.6</ele>
        <time>2021-03-27T11:55:02Z</time>
      </trkpt>
      <trkpt lat="46.17403" lon="6.25785">
        <ele>499.4</ele>
        <time>2021-03-27T11:55:01Z</time>
      </trkpt>
      <trkpt lat="46.17403" lon="6.25785">
        <ele>499.6</ele>
        <time>2021-03-27T11:55:00Z</time>
      </trkpt>
      <trkpt lat="46.17403" lon="6.25785">
        <ele>499.6</ele>
        <time>2021-03-27T11:54:59Z</time>
      </trkpt>
      <trkpt lat="46.17403" lon="6.25785">
        <ele>499.4</ele>
        <time>2021-03-27T11:54:58Z</time>
      </trkpt>
      <trkpt lat="46.17403" lon="6.25785">
        <ele>499.6</ele>
        <time>2021-03-27T11:54:57Z</time>
      </trkpt>
      <trkpt lat="46.17403" lon="6.25785">
        <ele>499.6</ele>
        <time>2021-03-27T11:54:56Z</time>
      </trkpt>
      <trkpt lat="46.17403" lon="6.25785">
        <ele>499.6</ele>
        <time>2021-03-27T11:54:55Z</time>
      </trkpt>
      <trkpt lat="46.17403" lon="6.25785">
        <ele>499.6</ele>
        <time>2021-03-27T11:54:54Z</time>
      </trkpt>
      <trkpt lat="46.17403" lon="6.25785">
        <ele>499.6</ele>
        <time>2021-03-27T11:54:53Z</time>
      </trkpt>
      <trkpt lat="46.17403" lon="6.25785">
        <ele>499.4</ele>
        <time>2021-03-27T11:54:52Z</time>
      </trkpt>
      <trkpt lat="46.17403" lon="6.25785">
        <ele>499.6</ele>
        <time>2021-03-27T11:54:51Z</time>
      </trkpt>
      <trkpt lat="46.17403" lon="6.25785">
        <ele>499.6</ele>
        <time>2021-03-27T11:54:50Z</time>
      </trkpt>
      <trkpt lat="46.17403" lon="6.25785">
        <ele>499.4</ele>
        <time>2021-03-27T11:54:49Z</time>
      </trkpt>
      <trkpt lat="46.17403" lon="6.25785">
        <ele>499.6</ele>
        <time>2021-03-27T11:54:48Z</time>
      </trkpt>
      <trkpt lat="46.17403" lon="6.25785">
        <ele>499.6</ele>
        <time>2021-03-27T11:54:47Z</time>
      </trkpt>
      <trkpt lat="46.17403" lon="6.25785">
        <ele>499.4</ele>
        <time>2021-03-27T11:54:46Z</time>
      </trkpt>
      <trkpt lat="46.17403" lon="6.25785">
        <ele>499.6</ele>
        <time>2021-03-27T11:54:45Z</time>
      </trkpt>
      <trkpt lat="46.17403" lon="6.25785">
        <ele>499.4</ele>
        <time>2021-03-27T11:54:44Z</time>
      </trkpt>
      <trkpt lat="46.17403" lon="6.25785">
        <ele>499.6</ele>
        <time>2021-03-27T11:54:43Z</time>
      </trkpt>
      <trkpt lat="46.17403" lon="6.25785">
        <ele>499.4</ele>
        <time>2021-03-27T11:54:42Z</time>
      </trkpt>
      <trkpt lat="46.17403" lon="6.25785">
        <ele>499.4</ele>
        <time>2021-03-27T11:54:41Z</time>
      </trkpt>
      <trkpt lat="46.17403" lon="6.25785">
        <ele>499.4</ele>
        <time>2021-03-27T11:54:40Z</time>
      </trkpt>
      <trkpt lat="46.17403" lon="6.25785">
        <ele>499.6</ele>
        <time>2021-03-27T11:54:39Z</time>
      </trkpt>
      <trkpt lat="46.17403" lon="6.25785">
        <ele>499.4</ele>
        <time>2021-03-27T11:54:38Z</time>
      </trkpt>
      <trkpt lat="46.17403" lon="6.25785">
        <ele>499.4</ele>
        <time>2021-03-27T11:54:37Z</time>
      </trkpt>
      <trkpt lat="46.17403" lon="6.25785">
        <ele>499.4</ele>
        <time>2021-03-27T11:54:36Z</time>
      </trkpt>
      <trkpt lat="46.17403" lon="6.25785">
        <ele>499.4</ele>
        <time>2021-03-27T11:54:35Z</time>
      </trkpt>
      <trkpt lat="46.17403" lon="6.25785">
        <ele>499.4</ele>
        <time>2021-03-27T11:54:34Z</time>
      </trkpt>
      <trkpt lat="46.17403" lon="6.25785">
        <ele>499.4</ele>
        <time>2021-03-27T11:54:33Z</time>
      </trkpt>
      <trkpt lat="46.17403" lon="6.25785">
        <ele>499.4</ele>
        <time>2021-03-27T11:54:32Z</time>
      </trkpt>
      <trkpt lat="46.17403" lon="6.25785">
        <ele>499.6</ele>
        <time>2021-03-27T11:54:31Z</time>
      </trkpt>
      <trkpt lat="46.17403" lon="6.25785">
        <ele>499.4</ele>
        <time>2021-03-27T11:54:30Z</time>
      </trkpt>
      <trkpt lat="46.17403" lon="6.25785">
        <ele>499.4</ele>
        <time>2021-03-27T11:54:29Z</time>
      </trkpt>
      <trkpt lat="46.17403" lon="6.25785">
        <ele>499.6</ele>
        <time>2021-03-27T11:54:28Z</time>
      </trkpt>
      <trkpt lat="46.17403" lon="6.25785">
        <ele>499.6</ele>
        <time>2021-03-27T11:54:27Z</time>
      </trkpt>
      <trkpt lat="46.17403" lon="6.25785">
        <ele>499.6</ele>
        <time>2021-03-27T11:54:26Z</time>
      </trkpt>
      <trkpt lat="46.17403" lon="6.25785">
        <ele>499.4</ele>
        <time>2021-03-27T11:54:25Z</time>
      </trkpt>
      <trkpt lat="46.17403" lon="6.25785">
        <ele>499.6</ele>
        <time>2021-03-27T11:54:24Z</time>
      </trkpt>
      <trkpt lat="46.17403" lon="6.25785">
        <ele>499.6</ele>
        <time>2021-03-27T11:54:23Z</time>
      </trkpt>
      <trkpt lat="46.17403" lon="6.25785">
        <ele>499.6</ele>
        <time>2021-03-27T11:54:22Z</time>
      </trkpt>
      <trkpt lat="46.17403" lon="6.25785">
        <ele>499.6</ele>
        <time>2021-03-27T11:54:21Z</time>
      </trkpt>
      <trkpt lat="46.17403" lon="6.25785">
        <ele>499.6</ele>
        <time>2021-03-27T11:54:20Z</time>
      </trkpt>
      <trkpt lat="46.17403" lon="6.25785">
        <ele>499.6</ele>
        <time>2021-03-27T11:54:19Z</time>
      </trkpt>
      <trkpt lat="46.17403" lon="6.25785">
        <ele>499.6</ele>
        <time>2021-03-27T11:54:18Z</time>
      </trkpt>
      <trkpt lat="46.17403" lon="6.25785">
        <ele>499.8</ele>
        <time>2021-03-27T11:54:17Z</time>
      </trkpt>
      <trkpt lat="46.17403" lon="6.25785">
        <ele>499.8</ele>
        <time>2021-03-27T11:54:16Z</time>
      </trkpt>
      <trkpt lat="46.17403" lon="6.25785">
        <ele>499.6</ele>
        <time>2021-03-27T11:54:15Z</time>
      </trkpt>
      <trkpt lat="46.17403" lon="6.25785">
        <ele>499.8</ele>
        <time>2021-03-27T11:54:14Z</time>
      </trkpt>
      <trkpt lat="46.17403" lon="6.25785">
        <ele>500</ele>
        <time>2021-03-27T11:54:13Z</time>
      </trkpt>
      <trkpt lat="46.17403" lon="6.25785">
        <ele>499.8</ele>
        <time>2021-03-27T11:54:12Z</time>
      </trkpt>
      <trkpt lat="46.17403" lon="6.25785">
        <ele>499.8</ele>
        <time>2021-03-27T11:54:11Z</time>
      </trkpt>
      <trkpt lat="46.17403" lon="6.25785">
        <ele>500</ele>
        <time>2021-03-27T11:54:10Z</time>
      </trkpt>
      <trkpt lat="46.17403" lon="6.25785">
        <ele>500</ele>
        <time>2021-03-27T11:54:09Z</time>
      </trkpt>
      <trkpt lat="46.17403" lon="6.25785">
        <ele>500</ele>
        <time>2021-03-27T11:54:08Z</time>
      </trkpt>
      <trkpt lat="46.17403" lon="6.25785">
        <ele>500</ele>
        <time>2021-03-27T11:54:07Z</time>
      </trkpt>
      <trkpt lat="46.17403" lon="6.25785">
        <ele>500</ele>
        <time>2021-03-27T11:54:06Z</time>
      </trkpt>
      <trkpt lat="46.17403" lon="6.25785">
        <ele>500</ele>
        <time>2021-03-27T11:54:05Z</time>
      </trkpt>
      <trkpt lat="46.17403" lon="6.25785">
        <ele>499.8</ele>
        <time>2021-03-27T11:54:04Z</time>
      </trkpt>
      <trkpt lat="46.17403" lon="6.25785">
        <ele>499.8</ele>
        <time>2021-03-27T11:54:03Z</time>
      </trkpt>
      <trkpt lat="46.17403" lon="6.25785">
        <ele>500</ele>
        <time>2021-03-27T11:54:02Z</time>
      </trkpt>
      <trkpt lat="46.17403" lon="6.25785">
        <ele>499.8</ele>
        <time>2021-03-27T11:54:01Z</time>
      </trkpt>
      <trkpt lat="46.17403" lon="6.25785">
        <ele>499.8</ele>
        <time>2021-03-27T11:54:00Z</time>
      </trkpt>
      <trkpt lat="46.17403" lon="6.25785">
        <ele>499.8</ele>
        <time>2021-03-27T11:53:59Z</time>
      </trkpt>
      <trkpt lat="46.17403" lon="6.25785">
        <ele>500</ele>
        <time>2021-03-27T11:53:58Z</time>
      </trkpt>
      <trkpt lat="46.17403" lon="6.25785">
        <ele>500</ele>
        <time>2021-03-27T11:53:57Z</time>
      </trkpt>
      <trkpt lat="46.17403" lon="6.25785">
        <ele>499.8</ele>
        <time>2021-03-27T11:53:56Z</time>
      </trkpt>
      <trkpt lat="46.17403" lon="6.25785">
        <ele>499.8</ele>
        <time>2021-03-27T11:53:55Z</time>
      </trkpt>
      <trkpt lat="46.17403" lon="6.25785">
        <ele>499.8</ele>
        <time>2021-03-27T11:53:54Z</time>
      </trkpt>
      <trkpt lat="46.17403" lon="6.25785">
        <ele>499.8</ele>
        <time>2021-03-27T11:53:53Z</time>
      </trkpt>
      <trkpt lat="46.17403" lon="6.25785">
        <ele>499.8</ele>
        <time>2021-03-27T11:53:52Z</time>
      </trkpt>
      <trkpt lat="46.17403" lon="6.25785">
        <ele>499.8</ele>
        <time>2021-03-27T11:53:51Z</time>
      </trkpt>
      <trkpt lat="46.17403" lon="6.25785">
        <ele>499.8</ele>
        <time>2021-03-27T11:53:50Z</time>
      </trkpt>
      <trkpt lat="46.17403" lon="6.25785">
        <ele>499.8</ele>
        <time>2021-03-27T11:53:49Z</time>
      </trkpt>
      <trkpt lat="46.17403" lon="6.25785">
        <ele>499.8</ele>
        <time>2021-03-27T11:53:48Z</time>
      </trkpt>
      <trkpt lat="46.17403" lon="6.25785">
        <ele>499.8</ele>
        <time>2021-03-27T11:53:47Z</time>
      </trkpt>
      <trkpt lat="46.17403" lon="6.25785">
        <ele>499.8</ele>
        <time>2021-03-27T11:53:46Z</time>
      </trkpt>
      <trkpt lat="46.17403" lon="6.25785">
        <ele>499.8</ele>
        <time>2021-03-27T11:53:45Z</time>
      </trkpt>
      <trkpt lat="46.17403" lon="6.25785">
        <ele>499.8</ele>
        <time>2021-03-27T11:53:44Z</time>
      </trkpt>
      <trkpt lat="46.17403" lon="6.25785">
        <ele>499.8</ele>
        <time>2021-03-27T11:53:43Z</time>
      </trkpt>
      <trkpt lat="46.17403" lon="6.25785">
        <ele>499.8</ele>
        <time>2021-03-27T11:53:42Z</time>
      </trkpt>
      <trkpt lat="46.17403" lon="6.25785">
        <ele>499.8</ele>
        <time>2021-03-27T11:53:41Z</time>
      </trkpt>
      <trkpt lat="46.17403" lon="6.25785">
        <ele>500</ele>
        <time>2021-03-27T11:53:40Z</time>
      </trkpt>
      <trkpt lat="46.17403" lon="6.25785">
        <ele>499.8</ele>
        <time>2021-03-27T11:53:39Z</time>
      </trkpt>
      <trkpt lat="46.17403" lon="6.25785">
        <ele>499.8</ele>
        <time>2021-03-27T11:53:38Z</time>
      </trkpt>
      <trkpt lat="46.17403" lon="6.25785">
        <ele>500</ele>
        <time>2021-03-27T11:53:37Z</time>
      </trkpt>
      <trkpt lat="46.17403" lon="6.25785">
        <ele>499.8</ele>
        <time>2021-03-27T11:53:36Z</time>
      </trkpt>
      <trkpt lat="46.17403" lon="6.25785">
        <ele>499.8</ele>
        <time>2021-03-27T11:53:35Z</time>
      </trkpt>
      <trkpt lat="46.17403" lon="6.25785">
        <ele>500</ele>
        <time>2021-03-27T11:53:34Z</time>
      </trkpt>
      <trkpt lat="46.17403" lon="6.25785">
        <ele>500</ele>
        <time>2021-03-27T11:53:33Z</time>
      </trkpt>
      <trkpt lat="46.17403" lon="6.25786">
        <ele>500</ele>
        <time>2021-03-27T11:53:32Z</time>
      </trkpt>
      <trkpt lat="46.17403" lon="6.25786">
        <ele>500</ele>
        <time>2021-03-27T11:53:31Z</time>
      </trkpt>
      <trkpt lat="46.17403" lon="6.25785">
        <ele>500</ele>
        <time>2021-03-27T11:53:30Z</time>
      </trkpt>
      <trkpt lat="46.17403" lon="6.25786">
        <ele>500.2</ele>
        <time>2021-03-27T11:53:29Z</time>
      </trkpt>
      <trkpt lat="46.17403" lon="6.25786">
        <ele>500.2</ele>
        <time>2021-03-27T11:53:28Z</time>
      </trkpt>
      <trkpt lat="46.17403" lon="6.25787">
        <ele>500.2</ele>
        <time>2021-03-27T11:53:27Z</time>
      </trkpt>
      <trkpt lat="46.17403" lon="6.25788">
        <ele>500.2</ele>
        <time>2021-03-27T11:53:26Z</time>
      </trkpt>
      <trkpt lat="46.17403" lon="6.25788">
        <ele>500.4</ele>
        <time>2021-03-27T11:53:25Z</time>
      </trkpt>
      <trkpt lat="46.17403" lon="6.25789">
        <ele>500.6</ele>
        <time>2021-03-27T11:53:24Z</time>
      </trkpt>
      <trkpt lat="46.17402" lon="6.25791">
        <ele>500.4</ele>
        <time>2021-03-27T11:53:23Z</time>
      </trkpt>
      <trkpt lat="46.17402" lon="6.25792">
        <ele>500.4</ele>
        <time>2021-03-27T11:53:22Z</time>
      </trkpt>
      <trkpt lat="46.17402" lon="6.25793">
        <ele>500.6</ele>
        <time>2021-03-27T11:53:21Z</time>
      </trkpt>
      <trkpt lat="46.17402" lon="6.25794">
        <ele>500.6</ele>
        <time>2021-03-27T11:53:20Z</time>
      </trkpt>
      <trkpt lat="46.17402" lon="6.25795">
        <ele>500.6</ele>
        <time>2021-03-27T11:53:19Z</time>
      </trkpt>
      <trkpt lat="46.17401" lon="6.25797">
        <ele>500.6</ele>
        <time>2021-03-27T11:53:18Z</time>
      </trkpt>
      <trkpt lat="46.17401" lon="6.25798">
        <ele>500.6</ele>
        <time>2021-03-27T11:53:17Z</time>
      </trkpt>
      <trkpt lat="46.17402" lon="6.25799">
        <ele>500.8</ele>
        <time>2021-03-27T11:53:16Z</time>
      </trkpt>
      <trkpt lat="46.17402" lon="6.25801">
        <ele>500.8</ele>
        <time>2021-03-27T11:53:15Z</time>
      </trkpt>
      <trkpt lat="46.17402" lon="6.25801">
        <ele>500.8</ele>
        <time>2021-03-27T11:53:14Z</time>
      </trkpt>
      <trkpt lat="46.17403" lon="6.25802">
        <ele>500.8</ele>
        <time>2021-03-27T11:53:13Z</time>
      </trkpt>
      <trkpt lat="46.17403" lon="6.25803">
        <ele>501</ele>
        <time>2021-03-27T11:53:12Z</time>
      </trkpt>
      <trkpt lat="46.17404" lon="6.25804">
        <ele>500.8</ele>
        <time>2021-03-27T11:53:11Z</time>
      </trkpt>
      <trkpt lat="46.17405" lon="6.25804">
        <ele>501</ele>
        <time>2021-03-27T11:53:10Z</time>
      </trkpt>
      <trkpt lat="46.17406" lon="6.25804">
        <ele>501</ele>
        <time>2021-03-27T11:53:09Z</time>
      </trkpt>
      <trkpt lat="46.17407" lon="6.25804">
        <ele>501</ele>
        <time>2021-03-27T11:53:08Z</time>
      </trkpt>
      <trkpt lat="46.17408" lon="6.25805">
        <ele>501</ele>
        <time>2021-03-27T11:53:07Z</time>
      </trkpt>
      <trkpt lat="46.1741" lon="6.25805">
        <ele>501</ele>
        <time>2021-03-27T11:53:06Z</time>
      </trkpt>
      <trkpt lat="46.17411" lon="6.25806">
        <ele>501</ele>
        <time>2021-03-27T11:53:05Z</time>
      </trkpt>
      <trkpt lat="46.17412" lon="6.25806">
        <ele>501</ele>
        <time>2021-03-27T11:53:04Z</time>
      </trkpt>
      <trkpt lat="46.17414" lon="6.25806">
        <ele>501</ele>
        <time>2021-03-27T11:53:03Z</time>
      </trkpt>
      <trkpt lat="46.17415" lon="6.25807">
        <ele>501</ele>
        <time>2021-03-27T11:53:02Z</time>
      </trkpt>
      <trkpt lat="46.17416" lon="6.25807">
        <ele>501</ele>
        <time>2021-03-27T11:53:01Z</time>
      </trkpt>
      <trkpt lat="46.17418" lon="6.25807">
        <ele>501</ele>
        <time>2021-03-27T11:53:00Z</time>
      </trkpt>
      <trkpt lat="46.17419" lon="6.25808">
        <ele>501</ele>
        <time>2021-03-27T11:52:59Z</time>
      </trkpt>
      <trkpt lat="46.1742" lon="6.25808">
        <ele>501</ele>
        <time>2021-03-27T11:52:58Z</time>
      </trkpt>
      <trkpt lat="46.17421" lon="6.25808">
        <ele>501</ele>
        <time>2021-03-27T11:52:57Z</time>
      </trkpt>
      <trkpt lat="46.17422" lon="6.25808">
        <ele>501</ele>
        <time>2021-03-27T11:52:56Z</time>
      </trkpt>
      <trkpt lat="46.17422" lon="6.25808">
        <ele>501</ele>
        <time>2021-03-27T11:52:55Z</time>
      </trkpt>
      <trkpt lat="46.17423" lon="6.25808">
        <ele>501</ele>
        <time>2021-03-27T11:52:54Z</time>
      </trkpt>
      <trkpt lat="46.17423" lon="6.25808">
        <ele>501</ele>
        <time>2021-03-27T11:52:53Z</time>
      </trkpt>
      <trkpt lat="46.17423" lon="6.25808">
        <ele>501</ele>
        <time>2021-03-27T11:52:52Z</time>
      </trkpt>
      <trkpt lat="46.17422" lon="6.25808">
        <ele>501.2</ele>
        <time>2021-03-27T11:52:51Z</time>
      </trkpt>
      <trkpt lat="46.17422" lon="6.25808">
        <ele>501.2</ele>
        <time>2021-03-27T11:52:50Z</time>
      </trkpt>
      <trkpt lat="46.17422" lon="6.25808">
        <ele>501</ele>
        <time>2021-03-27T11:52:49Z</time>
      </trkpt>
      <trkpt lat="46.17422" lon="6.25808">
        <ele>501.2</ele>
        <time>2021-03-27T11:52:48Z</time>
      </trkpt>
      <trkpt lat="46.17422" lon="6.25808">
        <ele>501.2</ele>
        <time>2021-03-27T11:52:47Z</time>
      </trkpt>
      <trkpt lat="46.17422" lon="6.25808">
        <ele>501.2</ele>
        <time>2021-03-27T11:52:46Z</time>
      </trkpt>
      <trkpt lat="46.17422" lon="6.25808">
        <ele>501.2</ele>
        <time>2021-03-27T11:52:45Z</time>
      </trkpt>
      <trkpt lat="46.17422" lon="6.25808">
        <ele>501.2</ele>
        <time>2021-03-27T11:52:44Z</time>
      </trkpt>
      <trkpt lat="46.17422" lon="6.25808">
        <ele>501.2</ele>
        <time>2021-03-27T11:52:43Z</time>
      </trkpt>
      <trkpt lat="46.17422" lon="6.25808">
        <ele>501.2</ele>
        <time>2021-03-27T11:52:42Z</time>
      </trkpt>
      <trkpt lat="46.17422" lon="6.25808">
        <ele>501.4</ele>
        <time>2021-03-27T11:52:41Z</time>
      </trkpt>
      <trkpt lat="46.17422" lon="6.25808">
        <ele>501.2</ele>
        <time>2021-03-27T11:52:40Z</time>
      </trkpt>
      <trkpt lat="46.17422" lon="6.25808">
        <ele>501.4</ele>
        <time>2021-03-27T11:52:39Z</time>
      </trkpt>
      <trkpt lat="46.17422" lon="6.25808">
        <ele>501.2</ele>
        <time>2021-03-27T11:52:38Z</time>
      </trkpt>
      <trkpt lat="46.17422" lon="6.25808">
        <ele>501.2</ele>
        <time>2021-03-27T11:52:37Z</time>
      </trkpt>
      <trkpt lat="46.17423" lon="6.25808">
        <ele>501.2</ele>
        <time>2021-03-27T11:52:36Z</time>
      </trkpt>
      <trkpt lat="46.17423" lon="6.25808">
        <ele>501.2</ele>
        <time>2021-03-27T11:52:35Z</time>
      </trkpt>
      <trkpt lat="46.17423" lon="6.25808">
        <ele>501.4</ele>
        <time>2021-03-27T11:52:34Z</time>
      </trkpt>
      <trkpt lat="46.17423" lon="6.25808">
        <ele>501.4</ele>
        <time>2021-03-27T11:52:33Z</time>
      </trkpt>
      <trkpt lat="46.17423" lon="6.25808">
        <ele>501.4</ele>
        <time>2021-03-27T11:52:32Z</time>
      </trkpt>
      <trkpt lat="46.17423" lon="6.25808">
        <ele>501.4</ele>
        <time>2021-03-27T11:52:31Z</time>
      </trkpt>
      <trkpt lat="46.17423" lon="6.25808">
        <ele>501.4</ele>
        <time>2021-03-27T11:52:30Z</time>
      </trkpt>
      <trkpt lat="46.17422" lon="6.25808">
        <ele>501.4</ele>
        <time>2021-03-27T11:52:29Z</time>
      </trkpt>
      <trkpt lat="46.17422" lon="6.25808">
        <ele>501.4</ele>
        <time>2021-03-27T11:52:28Z</time>
      </trkpt>
      <trkpt lat="46.17422" lon="6.25808">
        <ele>501.2</ele>
        <time>2021-03-27T11:52:27Z</time>
      </trkpt>
      <trkpt lat="46.17422" lon="6.25808">
        <ele>501.4</ele>
        <time>2021-03-27T11:52:26Z</time>
      </trkpt>
      <trkpt lat="46.17422" lon="6.25808">
        <ele>501.2</ele>
        <time>2021-03-27T11:52:25Z</time>
      </trkpt>
      <trkpt lat="46.17422" lon="6.25808">
        <ele>501.4</ele>
        <time>2021-03-27T11:52:24Z</time>
      </trkpt>
      <trkpt lat="46.17422" lon="6.25809">
        <ele>501.6</ele>
        <time>2021-03-27T11:52:23Z</time>
      </trkpt>
      <trkpt lat="46.17422" lon="6.25809">
        <ele>501.4</ele>
        <time>2021-03-27T11:52:22Z</time>
      </trkpt>
      <trkpt lat="46.17423" lon="6.25809">
        <ele>501.6</ele>
        <time>2021-03-27T11:52:21Z</time>
      </trkpt>
      <trkpt lat="46.17423" lon="6.25808">
        <ele>501.6</ele>
        <time>2021-03-27T11:52:20Z</time>
      </trkpt>
      <trkpt lat="46.17423" lon="6.25808">
        <ele>501.6</ele>
        <time>2021-03-27T11:52:19Z</time>
      </trkpt>
      <trkpt lat="46.17424" lon="6.25808">
        <ele>501.6</ele>
        <time>2021-03-27T11:52:18Z</time>
      </trkpt>
      <trkpt lat="46.17425" lon="6.25808">
        <ele>501.6</ele>
        <time>2021-03-27T11:52:17Z</time>
      </trkpt>
      <trkpt lat="46.17425" lon="6.25809">
        <ele>501.8</ele>
        <time>2021-03-27T11:52:16Z</time>
      </trkpt>
      <trkpt lat="46.17426" lon="6.25809">
        <ele>501.8</ele>
        <time>2021-03-27T11:52:15Z</time>
      </trkpt>
      <trkpt lat="46.17426" lon="6.25809">
        <ele>502</ele>
        <time>2021-03-27T11:52:14Z</time>
      </trkpt>
      <trkpt lat="46.17426" lon="6.25809">
        <ele>502.2</ele>
        <time>2021-03-27T11:52:13Z</time>
      </trkpt>
      <trkpt lat="46.17426" lon="6.25809">
        <ele>502.4</ele>
        <time>2021-03-27T11:52:12Z</time>
      </trkpt>
      <trkpt lat="46.17427" lon="6.25808">
        <ele>502.4</ele>
        <time>2021-03-27T11:52:11Z</time>
      </trkpt>
      <trkpt lat="46.17427" lon="6.25808">
        <ele>502.4</ele>
        <time>2021-03-27T11:52:10Z</time>
      </trkpt>
      <trkpt lat="46.17427" lon="6.25808">
        <ele>502.4</ele>
        <time>2021-03-27T11:52:09Z</time>
      </trkpt>
      <trkpt lat="46.17427" lon="6.25809">
        <ele>502.6</ele>
        <time>2021-03-27T11:52:08Z</time>
      </trkpt>
      <trkpt lat="46.17427" lon="6.25809">
        <ele>502.6</ele>
        <time>2021-03-27T11:52:07Z</time>
      </trkpt>
      <trkpt lat="46.17428" lon="6.25809">
        <ele>502.6</ele>
        <time>2021-03-27T11:52:06Z</time>
      </trkpt>
      <trkpt lat="46.17428" lon="6.25809">
        <ele>502.6</ele>
        <time>2021-03-27T11:52:05Z</time>
      </trkpt>
      <trkpt lat="46.17429" lon="6.25809">
        <ele>502.6</ele>
        <time>2021-03-27T11:52:04Z</time>
      </trkpt>
      <trkpt lat="46.17428" lon="6.2581">
        <ele>502.6</ele>
        <time>2021-03-27T11:52:03Z</time>
      </trkpt>
      <trkpt lat="46.17428" lon="6.2581">
        <ele>502.8</ele>
        <time>2021-03-27T11:52:02Z</time>
      </trkpt>
      <trkpt lat="46.17429" lon="6.2581">
        <ele>502.8</ele>
        <time>2021-03-27T11:52:01Z</time>
      </trkpt>
      <trkpt lat="46.17429" lon="6.2581">
        <ele>502.8</ele>
        <time>2021-03-27T11:52:00Z</time>
      </trkpt>
      <trkpt lat="46.17429" lon="6.2581">
        <ele>502.6</ele>
        <time>2021-03-27T11:51:59Z</time>
      </trkpt>
      <trkpt lat="46.17429" lon="6.2581">
        <ele>502.6</ele>
        <time>2021-03-27T11:51:58Z</time>
      </trkpt>
      <trkpt lat="46.17429" lon="6.2581">
        <ele>502.6</ele>
        <time>2021-03-27T11:51:57Z</time>
      </trkpt>
      <trkpt lat="46.17429" lon="6.2581">
        <ele>502.8</ele>
        <time>2021-03-27T11:51:56Z</time>
      </trkpt>
      <trkpt lat="46.17429" lon="6.2581">
        <ele>502.8</ele>
        <time>2021-03-27T11:51:55Z</time>
      </trkpt>
      <trkpt lat="46.17429" lon="6.2581">
        <ele>502.8</ele>
        <time>2021-03-27T11:51:54Z</time>
      </trkpt>
      <trkpt lat="46.17429" lon="6.2581">
        <ele>502.6</ele>
        <time>2021-03-27T11:51:53Z</time>
      </trkpt>
      <trkpt lat="46.1743" lon="6.25811">
        <ele>502.6</ele>
        <time>2021-03-27T11:51:52Z</time>
      </trkpt>
      <trkpt lat="46.1743" lon="6.25812">
        <ele>502.6</ele>
        <time>2021-03-27T11:51:51Z</time>
      </trkpt>
      <trkpt lat="46.1743" lon="6.25813">
        <ele>502.6</ele>
        <time>2021-03-27T11:51:50Z</time>
      </trkpt>
      <trkpt lat="46.1743" lon="6.25815">
        <ele>502.8</ele>
        <time>2021-03-27T11:51:49Z</time>
      </trkpt>
      <trkpt lat="46.1743" lon="6.25816">
        <ele>502.8</ele>
        <time>2021-03-27T11:51:48Z</time>
      </trkpt>
      <trkpt lat="46.17431" lon="6.25817">
        <ele>502.6</ele>
        <time>2021-03-27T11:51:47Z</time>
      </trkpt>
      <trkpt lat="46.17431" lon="6.25818">
        <ele>502.6</ele>
        <time>2021-03-27T11:51:46Z</time>
      </trkpt>
      <trkpt lat="46.17431" lon="6.2582">
        <ele>502.8</ele>
        <time>2021-03-27T11:51:45Z</time>
      </trkpt>
      <trkpt lat="46.17432" lon="6.25821">
        <ele>502.6</ele>
        <time>2021-03-27T11:51:44Z</time>
      </trkpt>
      <trkpt lat="46.17432" lon="6.25822">
        <ele>502.6</ele>
        <time>2021-03-27T11:51:43Z</time>
      </trkpt>
      <trkpt lat="46.17432" lon="6.25824">
        <ele>502.8</ele>
        <time>2021-03-27T11:51:42Z</time>
      </trkpt>
      <trkpt lat="46.17433" lon="6.25825">
        <ele>502.8</ele>
        <time>2021-03-27T11:51:41Z</time>
      </trkpt>
      <trkpt lat="46.17433" lon="6.25827">
        <ele>502.6</ele>
        <time>2021-03-27T11:51:40Z</time>
      </trkpt>
      <trkpt lat="46.17433" lon="6.25829">
        <ele>502.8</ele>
        <time>2021-03-27T11:51:39Z</time>
      </trkpt>
      <trkpt lat="46.17433" lon="6.2583">
        <ele>502.6</ele>
        <time>2021-03-27T11:51:38Z</time>
      </trkpt>
      <trkpt lat="46.17433" lon="6.25831">
        <ele>502.6</ele>
        <time>2021-03-27T11:51:37Z</time>
      </trkpt>
      <trkpt lat="46.17433" lon="6.25833">
        <ele>502.6</ele>
        <time>2021-03-27T11:51:36Z</time>
      </trkpt>
      <trkpt lat="46.17434" lon="6.25833">
        <ele>502.8</ele>
        <time>2021-03-27T11:51:35Z</time>
      </trkpt>
      <trkpt lat="46.17434" lon="6.25833">
        <ele>502.6</ele>
        <time>2021-03-27T11:51:34Z</time>
      </trkpt>
      <trkpt lat="46.17434" lon="6.25834">
        <ele>502.8</ele>
        <time>2021-03-27T11:51:33Z</time>
      </trkpt>
      <trkpt lat="46.17434" lon="6.25834">
        <ele>502.6</ele>
        <time>2021-03-27T11:51:32Z</time>
      </trkpt>
      <trkpt lat="46.17434" lon="6.25834">
        <ele>502.6</ele>
        <time>2021-03-27T11:51:31Z</time>
      </trkpt>
      <trkpt lat="46.17434" lon="6.25834">
        <ele>502.8</ele>
        <time>2021-03-27T11:51:30Z</time>
      </trkpt>
      <trkpt lat="46.17434" lon="6.25834">
        <ele>502.6</ele>
        <time>2021-03-27T11:51:29Z</time>
      </trkpt>
      <trkpt lat="46.17434" lon="6.25834">
        <ele>502.6</ele>
        <time>2021-03-27T11:51:28Z</time>
      </trkpt>
      <trkpt lat="46.17434" lon="6.25834">
        <ele>502.6</ele>
        <time>2021-03-27T11:51:27Z</time>
      </trkpt>
      <trkpt lat="46.17434" lon="6.25834">
        <ele>502.6</ele>
        <time>2021-03-27T11:51:26Z</time>
      </trkpt>
      <trkpt lat="46.17434" lon="6.25834">
        <ele>502.6</ele>
        <time>2021-03-27T11:51:25Z</time>
      </trkpt>
      <trkpt lat="46.17434" lon="6.25834">
        <ele>502.6</ele>
        <time>2021-03-27T11:51:24Z</time>
      </trkpt>
      <trkpt lat="46.17434" lon="6.25834">
        <ele>502.6</ele>
        <time>2021-03-27T11:51:23Z</time>
      </trkpt>
      <trkpt lat="46.17434" lon="6.25834">
        <ele>502.6</ele>
        <time>2021-03-27T11:51:22Z</time>
      </trkpt>
      <trkpt lat="46.17434" lon="6.25834">
        <ele>502.4</ele>
        <time>2021-03-27T11:51:21Z</time>
      </trkpt>
      <trkpt lat="46.17434" lon="6.25834">
        <ele>502.4</ele>
        <time>2021-03-27T11:51:20Z</time>
      </trkpt>
      <trkpt lat="46.17434" lon="6.25834">
        <ele>502.6</ele>
        <time>2021-03-27T11:51:19Z</time>
      </trkpt>
      <trkpt lat="46.17434" lon="6.25834">
        <ele>502.4</ele>
        <time>2021-03-27T11:51:18Z</time>
      </trkpt>
      <trkpt lat="46.17434" lon="6.25834">
        <ele>502.4</ele>
        <time>2021-03-27T11:51:17Z</time>
      </trkpt>
      <trkpt lat="46.17434" lon="6.25834">
        <ele>502.2</ele>
        <time>2021-03-27T11:51:16Z</time>
      </trkpt>
      <trkpt lat="46.17434" lon="6.25834">
        <ele>502.4</ele>
        <time>2021-03-27T11:51:15Z</time>
      </trkpt>
      <trkpt lat="46.17434" lon="6.25834">
        <ele>502.4</ele>
        <time>2021-03-27T11:51:14Z</time>
      </trkpt>
      <trkpt lat="46.17434" lon="6.25834">
        <ele>502.4</ele>
        <time>2021-03-27T11:51:13Z</time>
      </trkpt>
      <trkpt lat="46.17434" lon="6.25834">
        <ele>502.6</ele>
        <time>2021-03-27T11:51:12Z</time>
      </trkpt>
      <trkpt lat="46.17434" lon="6.25834">
        <ele>502.4</ele>
        <time>2021-03-27T11:51:11Z</time>
      </trkpt>
      <trkpt lat="46.17435" lon="6.25834">
        <ele>502.4</ele>
        <time>2021-03-27T11:51:10Z</time>
      </trkpt>
      <trkpt lat="46.17435" lon="6.25835">
        <ele>502.4</ele>
        <time>2021-03-27T11:51:09Z</time>
      </trkpt>
      <trkpt lat="46.17435" lon="6.25835">
        <ele>502.4</ele>
        <time>2021-03-27T11:51:08Z</time>
      </trkpt>
      <trkpt lat="46.17435" lon="6.25835">
        <ele>502.4</ele>
        <time>2021-03-27T11:51:07Z</time>
      </trkpt>
      <trkpt lat="46.17435" lon="6.25835">
        <ele>502.4</ele>
        <time>2021-03-27T11:51:06Z</time>
      </trkpt>
      <trkpt lat="46.17435" lon="6.25835">
        <ele>502.4</ele>
        <time>2021-03-27T11:51:05Z</time>
      </trkpt>
      <trkpt lat="46.17435" lon="6.25834">
        <ele>502.6</ele>
        <time>2021-03-27T11:51:04Z</time>
      </trkpt>
      <trkpt lat="46.17435" lon="6.25834">
        <ele>502.4</ele>
        <time>2021-03-27T11:51:03Z</time>
      </trkpt>
      <trkpt lat="46.17435" lon="6.25834">
        <ele>502.4</ele>
        <time>2021-03-27T11:51:02Z</time>
      </trkpt>
      <trkpt lat="46.17435" lon="6.25834">
        <ele>502.4</ele>
        <time>2021-03-27T11:51:01Z</time>
      </trkpt>
      <trkpt lat="46.17435" lon="6.25834">
        <ele>502.6</ele>
        <time>2021-03-27T11:51:00Z</time>
      </trkpt>
      <trkpt lat="46.17435" lon="6.25834">
        <ele>502.4</ele>
        <time>2021-03-27T11:50:59Z</time>
      </trkpt>
      <trkpt lat="46.17435" lon="6.25834">
        <ele>502.4</ele>
        <time>2021-03-27T11:50:58Z</time>
      </trkpt>
      <trkpt lat="46.17435" lon="6.25834">
        <ele>502.4</ele>
        <time>2021-03-27T11:50:57Z</time>
      </trkpt>
      <trkpt lat="46.17435" lon="6.25834">
        <ele>502.4</ele>
        <time>2021-03-27T11:50:56Z</time>
      </trkpt>
      <trkpt lat="46.17435" lon="6.25834">
        <ele>502.4</ele>
        <time>2021-03-27T11:50:55Z</time>
      </trkpt>
      <trkpt lat="46.17435" lon="6.25834">
        <ele>502.4</ele>
        <time>2021-03-27T11:50:54Z</time>
      </trkpt>
      <trkpt lat="46.17435" lon="6.25834">
        <ele>502.2</ele>
        <time>2021-03-27T11:50:53Z</time>
      </trkpt>
      <trkpt lat="46.17435" lon="6.25834">
        <ele>502.4</ele>
        <time>2021-03-27T11:50:52Z</time>
      </trkpt>
      <trkpt lat="46.17435" lon="6.25834">
        <ele>502.4</ele>
        <time>2021-03-27T11:50:51Z</time>
      </trkpt>
      <trkpt lat="46.17435" lon="6.25834">
        <ele>502.4</ele>
        <time>2021-03-27T11:50:50Z</time>
      </trkpt>
      <trkpt lat="46.17435" lon="6.25834">
        <ele>502.2</ele>
        <time>2021-03-27T11:50:49Z</time>
      </trkpt>
      <trkpt lat="46.17435" lon="6.25833">
        <ele>502.2</ele>
        <time>2021-03-27T11:50:48Z</time>
      </trkpt>
      <trkpt lat="46.17434" lon="6.25833">
        <ele>502.2</ele>
        <time>2021-03-27T11:50:47Z</time>
      </trkpt>
      <trkpt lat="46.17434" lon="6.25832">
        <ele>502.2</ele>
        <time>2021-03-27T11:50:46Z</time>
      </trkpt>
      <trkpt lat="46.17434" lon="6.25831">
        <ele>502.2</ele>
        <time>2021-03-27T11:50:45Z</time>
      </trkpt>
      <trkpt lat="46.17434" lon="6.25831">
        <ele>502.2</ele>
        <time>2021-03-27T11:50:44Z</time>
      </trkpt>
      <trkpt lat="46.17433" lon="6.2583">
        <ele>502.2</ele>
        <time>2021-03-27T11:50:43Z</time>
      </trkpt>
      <trkpt lat="46.17433" lon="6.25831">
        <ele>502.2</ele>
        <time>2021-03-27T11:50:42Z</time>
      </trkpt>
      <trkpt lat="46.17433" lon="6.25831">
        <ele>502.2</ele>
        <time>2021-03-27T11:50:41Z</time>
      </trkpt>
      <trkpt lat="46.17433" lon="6.25831">
        <ele>502.2</ele>
        <time>2021-03-27T11:50:39Z</time>
      </trkpt>
      <trkpt lat="46.17433" lon="6.25831">
        <ele>502.2</ele>
        <time>2021-03-27T11:50:38Z</time>
      </trkpt>
      <trkpt lat="46.17433" lon="6.25831">
        <ele>502.2</ele>
        <time>2021-03-27T11:50:37Z</time>
      </trkpt>
      <trkpt lat="46.17433" lon="6.25832">
        <ele>502.2</ele>
        <time>2021-03-27T11:50:36Z</time>
      </trkpt>
      <trkpt lat="46.17433" lon="6.25832">
        <ele>502.2</ele>
        <time>2021-03-27T11:50:35Z</time>
      </trkpt>
      <trkpt lat="46.17433" lon="6.25833">
        <ele>502.2</ele>
        <time>2021-03-27T11:50:34Z</time>
      </trkpt>
      <trkpt lat="46.17433" lon="6.25833">
        <ele>502.2</ele>
        <time>2021-03-27T11:50:33Z</time>
      </trkpt>
      <trkpt lat="46.17434" lon="6.25833">
        <ele>502.2</ele>
        <time>2021-03-27T11:50:32Z</time>
      </trkpt>
      <trkpt lat="46.17434" lon="6.25833">
        <ele>502.2</ele>
        <time>2021-03-27T11:50:31Z</time>
      </trkpt>
      <trkpt lat="46.17434" lon="6.25834">
        <ele>502.2</ele>
        <time>2021-03-27T11:50:30Z</time>
      </trkpt>
      <trkpt lat="46.17434" lon="6.25834">
        <ele>502.2</ele>
        <time>2021-03-27T11:50:29Z</time>
      </trkpt>
      <trkpt lat="46.17434" lon="6.25834">
        <ele>502</ele>
        <time>2021-03-27T11:50:28Z</time>
      </trkpt>
      <trkpt lat="46.17434" lon="6.25834">
        <ele>502.2</ele>
        <time>2021-03-27T11:50:27Z</time>
      </trkpt>
      <trkpt lat="46.17434" lon="6.25834">
        <ele>502.2</ele>
        <time>2021-03-27T11:50:26Z</time>
      </trkpt>
      <trkpt lat="46.17434" lon="6.25834">
        <ele>502.2</ele>
        <time>2021-03-27T11:50:25Z</time>
      </trkpt>
      <trkpt lat="46.17434" lon="6.25834">
        <ele>502</ele>
        <time>2021-03-27T11:50:24Z</time>
      </trkpt>
      <trkpt lat="46.17433" lon="6.25834">
        <ele>502.2</ele>
        <time>2021-03-27T11:50:23Z</time>
      </trkpt>
      <trkpt lat="46.17433" lon="6.25834">
        <ele>502.2</ele>
        <time>2021-03-27T11:50:22Z</time>
      </trkpt>
      <trkpt lat="46.17433" lon="6.25834">
        <ele>502.2</ele>
        <time>2021-03-27T11:50:21Z</time>
      </trkpt>
      <trkpt lat="46.17433" lon="6.25834">
        <ele>502.2</ele>
        <time>2021-03-27T11:50:20Z</time>
      </trkpt>
      <trkpt lat="46.17433" lon="6.25835">
        <ele>502.2</ele>
        <time>2021-03-27T11:50:19Z</time>
      </trkpt>
      <trkpt lat="46.17433" lon="6.25835">
        <ele>502.4</ele>
        <time>2021-03-27T11:50:18Z</time>
      </trkpt>
      <trkpt lat="46.17433" lon="6.25835">
        <ele>502.2</ele>
        <time>2021-03-27T11:50:17Z</time>
      </trkpt>
      <trkpt lat="46.17433" lon="6.25835">
        <ele>502.4</ele>
        <time>2021-03-27T11:50:16Z</time>
      </trkpt>
      <trkpt lat="46.17433" lon="6.25835">
        <ele>502.2</ele>
        <time>2021-03-27T11:50:15Z</time>
      </trkpt>
      <trkpt lat="46.17433" lon="6.25835">
        <ele>502.2</ele>
        <time>2021-03-27T11:50:14Z</time>
      </trkpt>
      <trkpt lat="46.17433" lon="6.25835">
        <ele>502.4</ele>
        <time>2021-03-27T11:50:13Z</time>
      </trkpt>
      <trkpt lat="46.17433" lon="6.25835">
        <ele>502.2</ele>
        <time>2021-03-27T11:50:12Z</time>
      </trkpt>
      <trkpt lat="46.17433" lon="6.25835">
        <ele>502.2</ele>
        <time>2021-03-27T11:50:11Z</time>
      </trkpt>
      <trkpt lat="46.17433" lon="6.25835">
        <ele>502.2</ele>
        <time>2021-03-27T11:50:10Z</time>
      </trkpt>
      <trkpt lat="46.17433" lon="6.25835">
        <ele>502.4</ele>
        <time>2021-03-27T11:50:09Z</time>
      </trkpt>
      <trkpt lat="46.17433" lon="6.25835">
        <ele>502.4</ele>
        <time>2021-03-27T11:50:08Z</time>
      </trkpt>
      <trkpt lat="46.17433" lon="6.25835">
        <ele>502.4</ele>
        <time>2021-03-27T11:50:07Z</time>
      </trkpt>
      <trkpt lat="46.17433" lon="6.25835">
        <ele>502.2</ele>
        <time>2021-03-27T11:50:06Z</time>
      </trkpt>
      <trkpt lat="46.17433" lon="6.25835">
        <ele>502.2</ele>
        <time>2021-03-27T11:50:05Z</time>
      </trkpt>
      <trkpt lat="46.17433" lon="6.25835">
        <ele>502.2</ele>
        <time>2021-03-27T11:50:04Z</time>
      </trkpt>
      <trkpt lat="46.17433" lon="6.25835">
        <ele>502.2</ele>
        <time>2021-03-27T11:50:03Z</time>
      </trkpt>
      <trkpt lat="46.17433" lon="6.25835">
        <ele>502.2</ele>
        <time>2021-03-27T11:50:02Z</time>
      </trkpt>
      <trkpt lat="46.17433" lon="6.25835">
        <ele>502.2</ele>
        <time>2021-03-27T11:50:01Z</time>
      </trkpt>
      <trkpt lat="46.17433" lon="6.25835">
        <ele>502.2</ele>
        <time>2021-03-27T11:50:00Z</time>
      </trkpt>
      <trkpt lat="46.17433" lon="6.25835">
        <ele>502.2</ele>
        <time>2021-03-27T11:49:59Z</time>
      </trkpt>
      <trkpt lat="46.17433" lon="6.25835">
        <ele>502.2</ele>
        <time>2021-03-27T11:49:58Z</time>
      </trkpt>
      <trkpt lat="46.17433" lon="6.25835">
        <ele>502.4</ele>
        <time>2021-03-27T11:49:57Z</time>
      </trkpt>
      <trkpt lat="46.17433" lon="6.25835">
        <ele>502.4</ele>
        <time>2021-03-27T11:49:56Z</time>
      </trkpt>
      <trkpt lat="46.17433" lon="6.25835">
        <ele>502.4</ele>
        <time>2021-03-27T11:49:55Z</time>
      </trkpt>
      <trkpt lat="46.17433" lon="6.25835">
        <ele>502.4</ele>
        <time>2021-03-27T11:49:54Z</time>
      </trkpt>
      <trkpt lat="46.17433" lon="6.25835">
        <ele>502.4</ele>
        <time>2021-03-27T11:49:53Z</time>
      </trkpt>
      <trkpt lat="46.17433" lon="6.25835">
        <ele>502.4</ele>
        <time>2021-03-27T11:49:52Z</time>
      </trkpt>
      <trkpt lat="46.17433" lon="6.25835">
        <ele>502.4</ele>
        <time>2021-03-27T11:49:51Z</time>
      </trkpt>
      <trkpt lat="46.17433" lon="6.25835">
        <ele>502.2</ele>
        <time>2021-03-27T11:49:50Z</time>
      </trkpt>
      <trkpt lat="46.17433" lon="6.25835">
        <ele>502.2</ele>
        <time>2021-03-27T11:49:49Z</time>
      </trkpt>
      <trkpt lat="46.17433" lon="6.25835">
        <ele>502.2</ele>
        <time>2021-03-27T11:49:48Z</time>
      </trkpt>
      <trkpt lat="46.17433" lon="6.25835">
        <ele>502.2</ele>
        <time>2021-03-27T11:49:47Z</time>
      </trkpt>
      <trkpt lat="46.17433" lon="6.25835">
        <ele>502.2</ele>
        <time>2021-03-27T11:49:46Z</time>
      </trkpt>
      <trkpt lat="46.17433" lon="6.25835">
        <ele>502.4</ele>
        <time>2021-03-27T11:49:45Z</time>
      </trkpt>
      <trkpt lat="46.17433" lon="6.25835">
        <ele>502.4</ele>
        <time>2021-03-27T11:49:44Z</time>
      </trkpt>
      <trkpt lat="46.17433" lon="6.25835">
        <ele>502.2</ele>
        <time>2021-03-27T11:49:43Z</time>
      </trkpt>
      <trkpt lat="46.17433" lon="6.25835">
        <ele>502.2</ele>
        <time>2021-03-27T11:49:42Z</time>
      </trkpt>
      <trkpt lat="46.17433" lon="6.25835">
        <ele>502.2</ele>
        <time>2021-03-27T11:49:41Z</time>
      </trkpt>
      <trkpt lat="46.17433" lon="6.25835">
        <ele>502.2</ele>
        <time>2021-03-27T11:49:40Z</time>
      </trkpt>
      <trkpt lat="46.17433" lon="6.25835">
        <ele>502.2</ele>
        <time>2021-03-27T11:49:39Z</time>
      </trkpt>
      <trkpt lat="46.17433" lon="6.25835">
        <ele>502.2</ele>
        <time>2021-03-27T11:49:38Z</time>
      </trkpt>
      <trkpt lat="46.17433" lon="6.25835">
        <ele>502.2</ele>
        <time>2021-03-27T11:49:37Z</time>
      </trkpt>
      <trkpt lat="46.17433" lon="6.25835">
        <ele>502.2</ele>
        <time>2021-03-27T11:49:36Z</time>
      </trkpt>
      <trkpt lat="46.17433" lon="6.25835">
        <ele>502.2</ele>
        <time>2021-03-27T11:49:35Z</time>
      </trkpt>
      <trkpt lat="46.17433" lon="6.25835">
        <ele>502.2</ele>
        <time>2021-03-27T11:49:34Z</time>
      </trkpt>
      <trkpt lat="46.17433" lon="6.25835">
        <ele>502.2</ele>
        <time>2021-03-27T11:49:33Z</time>
      </trkpt>
      <trkpt lat="46.17433" lon="6.25835">
        <ele>502.2</ele>
        <time>2021-03-27T11:49:32Z</time>
      </trkpt>
      <trkpt lat="46.17433" lon="6.25835">
        <ele>502.2</ele>
        <time>2021-03-27T11:49:31Z</time>
      </trkpt>
      <trkpt lat="46.17433" lon="6.25835">
        <ele>502.2</ele>
        <time>2021-03-27T11:49:30Z</time>
      </trkpt>
      <trkpt lat="46.17433" lon="6.25835">
        <ele>502.2</ele>
        <time>2021-03-27T11:49:29Z</time>
      </trkpt>
      <trkpt lat="46.17433" lon="6.25835">
        <ele>502.2</ele>
        <time>2021-03-27T11:49:28Z</time>
      </trkpt>
      <trkpt lat="46.17433" lon="6.25835">
        <ele>502.2</ele>
        <time>2021-03-27T11:49:27Z</time>
      </trkpt>
      <trkpt lat="46.17433" lon="6.25835">
        <ele>502.2</ele>
        <time>2021-03-27T11:49:26Z</time>
      </trkpt>
      <trkpt lat="46.17433" lon="6.25835">
        <ele>502.2</ele>
        <time>2021-03-27T11:49:25Z</time>
      </trkpt>
      <trkpt lat="46.17433" lon="6.25835">
        <ele>502.2</ele>
        <time>2021-03-27T11:49:24Z</time>
      </trkpt>
      <trkpt lat="46.17433" lon="6.25835">
        <ele>502.2</ele>
        <time>2021-03-27T11:49:23Z</time>
      </trkpt>
      <trkpt lat="46.17433" lon="6.25835">
        <ele>502.2</ele>
        <time>2021-03-27T11:49:22Z</time>
      </trkpt>
      <trkpt lat="46.17433" lon="6.25835">
        <ele>502</ele>
        <time>2021-03-27T11:49:21Z</time>
      </trkpt>
      <trkpt lat="46.17433" lon="6.25835">
        <ele>502.2</ele>
        <time>2021-03-27T11:49:20Z</time>
      </trkpt>
      <trkpt lat="46.17433" lon="6.25835">
        <ele>502.2</ele>
        <time>2021-03-27T11:49:19Z</time>
      </trkpt>
      <trkpt lat="46.17433" lon="6.25835">
        <ele>502</ele>
        <time>2021-03-27T11:49:18Z</time>
      </trkpt>
      <trkpt lat="46.17433" lon="6.25835">
        <ele>502</ele>
        <time>2021-03-27T11:49:17Z</time>
      </trkpt>
      <trkpt lat="46.17433" lon="6.25835">
        <ele>502.2</ele>
        <time>2021-03-27T11:49:16Z</time>
      </trkpt>
      <trkpt lat="46.17433" lon="6.25835">
        <ele>502.2</ele>
        <time>2021-03-27T11:49:15Z</time>
      </trkpt>
      <trkpt lat="46.17433" lon="6.25835">
        <ele>502</ele>
        <time>2021-03-27T11:49:14Z</time>
      </trkpt>
      <trkpt lat="46.17433" lon="6.25835">
        <ele>502.2</ele>
        <time>2021-03-27T11:49:13Z</time>
      </trkpt>
      <trkpt lat="46.17433" lon="6.25835">
        <ele>502</ele>
        <time>2021-03-27T11:49:12Z</time>
      </trkpt>
      <trkpt lat="46.17433" lon="6.25835">
        <ele>502</ele>
        <time>2021-03-27T11:49:11Z</time>
      </trkpt>
      <trkpt lat="46.17433" lon="6.25835">
        <ele>502</ele>
        <time>2021-03-27T11:49:10Z</time>
      </trkpt>
      <trkpt lat="46.17433" lon="6.25835">
        <ele>502.2</ele>
        <time>2021-03-27T11:49:09Z</time>
      </trkpt>
      <trkpt lat="46.17433" lon="6.25835">
        <ele>502</ele>
        <time>2021-03-27T11:49:08Z</time>
      </trkpt>
      <trkpt lat="46.17433" lon="6.25835">
        <ele>502.2</ele>
        <time>2021-03-27T11:49:07Z</time>
      </trkpt>
      <trkpt lat="46.17433" lon="6.25835">
        <ele>502</ele>
        <time>2021-03-27T11:49:06Z</time>
      </trkpt>
      <trkpt lat="46.17433" lon="6.25835">
        <ele>502.2</ele>
        <time>2021-03-27T11:49:05Z</time>
      </trkpt>
      <trkpt lat="46.17433" lon="6.25835">
        <ele>502</ele>
        <time>2021-03-27T11:49:04Z</time>
      </trkpt>
      <trkpt lat="46.17433" lon="6.25835">
        <ele>502.2</ele>
        <time>2021-03-27T11:49:03Z</time>
      </trkpt>
      <trkpt lat="46.17433" lon="6.25835">
        <ele>502</ele>
        <time>2021-03-27T11:49:02Z</time>
      </trkpt>
      <trkpt lat="46.17433" lon="6.25835">
        <ele>502</ele>
        <time>2021-03-27T11:49:01Z</time>
      </trkpt>
      <trkpt lat="46.17433" lon="6.25835">
        <ele>502</ele>
        <time>2021-03-27T11:49:00Z</time>
      </trkpt>
      <trkpt lat="46.17433" lon="6.25835">
        <ele>502.2</ele>
        <time>2021-03-27T11:48:59Z</time>
      </trkpt>
      <trkpt lat="46.17433" lon="6.25835">
        <ele>502.2</ele>
        <time>2021-03-27T11:48:58Z</time>
      </trkpt>
      <trkpt lat="46.17433" lon="6.25835">
        <ele>502.2</ele>
        <time>2021-03-27T11:48:57Z</time>
      </trkpt>
      <trkpt lat="46.17433" lon="6.25835">
        <ele>502.2</ele>
        <time>2021-03-27T11:48:56Z</time>
      </trkpt>
      <trkpt lat="46.17433" lon="6.25835">
        <ele>502.2</ele>
        <time>2021-03-27T11:48:55Z</time>
      </trkpt>
      <trkpt lat="46.17433" lon="6.25835">
        <ele>502.2</ele>
        <time>2021-03-27T11:48:54Z</time>
      </trkpt>
      <trkpt lat="46.17433" lon="6.25835">
        <ele>502.2</ele>
        <time>2021-03-27T11:48:53Z</time>
      </trkpt>
      <trkpt lat="46.17433" lon="6.25835">
        <ele>502.2</ele>
        <time>2021-03-27T11:48:52Z</time>
      </trkpt>
      <trkpt lat="46.17433" lon="6.25835">
        <ele>502.2</ele>
        <time>2021-03-27T11:48:51Z</time>
      </trkpt>
      <trkpt lat="46.17433" lon="6.25835">
        <ele>502.2</ele>
        <time>2021-03-27T11:48:50Z</time>
      </trkpt>
      <trkpt lat="46.17433" lon="6.25835">
        <ele>502.2</ele>
        <time>2021-03-27T11:48:49Z</time>
      </trkpt>
      <trkpt lat="46.17433" lon="6.25835">
        <ele>502.4</ele>
        <time>2021-03-27T11:48:48Z</time>
      </trkpt>
      <trkpt lat="46.17433" lon="6.25835">
        <ele>502.4</ele>
        <time>2021-03-27T11:48:47Z</time>
      </trkpt>
      <trkpt lat="46.17433" lon="6.25835">
        <ele>502.2</ele>
        <time>2021-03-27T11:48:46Z</time>
      </trkpt>
      <trkpt lat="46.17433" lon="6.25835">
        <ele>502.2</ele>
        <time>2021-03-27T11:48:45Z</time>
      </trkpt>
      <trkpt lat="46.17433" lon="6.25835">
        <ele>502.2</ele>
        <time>2021-03-27T11:48:44Z</time>
      </trkpt>
      <trkpt lat="46.17433" lon="6.25835">
        <ele>502.4</ele>
        <time>2021-03-27T11:48:43Z</time>
      </trkpt>
      <trkpt lat="46.17433" lon="6.25835">
        <ele>502.4</ele>
        <time>2021-03-27T11:48:42Z</time>
      </trkpt>
      <trkpt lat="46.17433" lon="6.25835">
        <ele>502.4</ele>
        <time>2021-03-27T11:48:41Z</time>
      </trkpt>
      <trkpt lat="46.17433" lon="6.25835">
        <ele>502.4</ele>
        <time>2021-03-27T11:48:40Z</time>
      </trkpt>
      <trkpt lat="46.17433" lon="6.25835">
        <ele>502.4</ele>
        <time>2021-03-27T11:48:39Z</time>
      </trkpt>
      <trkpt lat="46.17433" lon="6.25835">
        <ele>502.2</ele>
        <time>2021-03-27T11:48:38Z</time>
      </trkpt>
      <trkpt lat="46.17433" lon="6.25835">
        <ele>502.4</ele>
        <time>2021-03-27T11:48:37Z</time>
      </trkpt>
      <trkpt lat="46.17433" lon="6.25835">
        <ele>502.4</ele>
        <time>2021-03-27T11:48:36Z</time>
      </trkpt>
      <trkpt lat="46.17433" lon="6.25835">
        <ele>502.4</ele>
        <time>2021-03-27T11:48:35Z</time>
      </trkpt>
      <trkpt lat="46.17433" lon="6.25835">
        <ele>502.4</ele>
        <time>2021-03-27T11:48:34Z</time>
      </trkpt>
      <trkpt lat="46.17433" lon="6.25835">
        <ele>502.4</ele>
        <time>2021-03-27T11:48:33Z</time>
      </trkpt>
      <trkpt lat="46.17433" lon="6.25835">
        <ele>502.2</ele>
        <time>2021-03-27T11:48:32Z</time>
      </trkpt>
      <trkpt lat="46.17433" lon="6.25835">
        <ele>502.2</ele>
        <time>2021-03-27T11:48:31Z</time>
      </trkpt>
      <trkpt lat="46.17433" lon="6.25835">
        <ele>502.2</ele>
        <time>2021-03-27T11:48:30Z</time>
      </trkpt>
      <trkpt lat="46.17433" lon="6.25835">
        <ele>502.4</ele>
        <time>2021-03-27T11:48:29Z</time>
      </trkpt>
      <trkpt lat="46.17433" lon="6.25835">
        <ele>502.4</ele>
        <time>2021-03-27T11:48:28Z</time>
      </trkpt>
      <trkpt lat="46.17433" lon="6.25835">
        <ele>502.4</ele>
        <time>2021-03-27T11:48:27Z</time>
      </trkpt>
      <trkpt lat="46.17433" lon="6.25835">
        <ele>502.4</ele>
        <time>2021-03-27T11:48:26Z</time>
      </trkpt>
      <trkpt lat="46.17433" lon="6.25835">
        <ele>502.2</ele>
        <time>2021-03-27T11:48:25Z</time>
      </trkpt>
      <trkpt lat="46.17433" lon="6.25835">
        <ele>502.4</ele>
        <time>2021-03-27T11:48:24Z</time>
      </trkpt>
      <trkpt lat="46.17433" lon="6.25835">
        <ele>502.4</ele>
        <time>2021-03-27T11:48:23Z</time>
      </trkpt>
      <trkpt lat="46.17433" lon="6.25836">
        <ele>502.4</ele>
        <time>2021-03-27T11:48:22Z</time>
      </trkpt>
      <trkpt lat="46.17433" lon="6.25836">
        <ele>502.4</ele>
        <time>2021-03-27T11:48:21Z</time>
      </trkpt>
      <trkpt lat="46.17433" lon="6.25836">
        <ele>502.4</ele>
        <time>2021-03-27T11:48:20Z</time>
      </trkpt>
      <trkpt lat="46.17433" lon="6.25836">
        <ele>502.4</ele>
        <time>2021-03-27T11:48:19Z</time>
      </trkpt>
      <trkpt lat="46.17433" lon="6.25836">
        <ele>502.6</ele>
        <time>2021-03-27T11:48:18Z</time>
      </trkpt>
      <trkpt lat="46.17433" lon="6.25836">
        <ele>502.4</ele>
        <time>2021-03-27T11:48:17Z</time>
      </trkpt>
      <trkpt lat="46.17433" lon="6.25836">
        <ele>502.4</ele>
        <time>2021-03-27T11:48:16Z</time>
      </trkpt>
      <trkpt lat="46.17433" lon="6.25836">
        <ele>502.6</ele>
        <time>2021-03-27T11:48:15Z</time>
      </trkpt>
      <trkpt lat="46.17433" lon="6.25836">
        <ele>502.4</ele>
        <time>2021-03-27T11:48:14Z</time>
      </trkpt>
      <trkpt lat="46.17433" lon="6.25836">
        <ele>502.6</ele>
        <time>2021-03-27T11:48:13Z</time>
      </trkpt>
      <trkpt lat="46.17433" lon="6.25836">
        <ele>502.6</ele>
        <time>2021-03-27T11:48:12Z</time>
      </trkpt>
      <trkpt lat="46.17433" lon="6.25836">
        <ele>502.4</ele>
        <time>2021-03-27T11:48:11Z</time>
      </trkpt>
      <trkpt lat="46.17433" lon="6.25836">
        <ele>502.6</ele>
        <time>2021-03-27T11:48:10Z</time>
      </trkpt>
      <trkpt lat="46.17433" lon="6.25836">
        <ele>502.4</ele>
        <time>2021-03-27T11:48:09Z</time>
      </trkpt>
      <trkpt lat="46.17433" lon="6.25836">
        <ele>502.4</ele>
        <time>2021-03-27T11:48:08Z</time>
      </trkpt>
      <trkpt lat="46.17433" lon="6.25836">
        <ele>502.4</ele>
        <time>2021-03-27T11:48:07Z</time>
      </trkpt>
      <trkpt lat="46.17433" lon="6.25836">
        <ele>502.4</ele>
        <time>2021-03-27T11:48:06Z</time>
      </trkpt>
      <trkpt lat="46.17433" lon="6.25836">
        <ele>502.6</ele>
        <time>2021-03-27T11:48:05Z</time>
      </trkpt>
      <trkpt lat="46.17433" lon="6.25836">
        <ele>502.4</ele>
        <time>2021-03-27T11:48:04Z</time>
      </trkpt>
      <trkpt lat="46.17433" lon="6.25836">
        <ele>502.6</ele>
        <time>2021-03-27T11:48:03Z</time>
      </trkpt>
      <trkpt lat="46.17433" lon="6.25836">
        <ele>502.6</ele>
        <time>2021-03-27T11:48:02Z</time>
      </trkpt>
      <trkpt lat="46.17433" lon="6.25836">
        <ele>502.6</ele>
        <time>2021-03-27T11:48:01Z</time>
      </trkpt>
      <trkpt lat="46.17433" lon="6.25836">
        <ele>502.6</ele>
        <time>2021-03-27T11:48:00Z</time>
      </trkpt>
      <trkpt lat="46.17433" lon="6.25836">
        <ele>502.4</ele>
        <time>2021-03-27T11:47:59Z</time>
      </trkpt>
      <trkpt lat="46.17433" lon="6.25836">
        <ele>502.4</ele>
        <time>2021-03-27T11:47:58Z</time>
      </trkpt>
      <trkpt lat="46.17433" lon="6.25836">
        <ele>502.4</ele>
        <time>2021-03-27T11:47:57Z</time>
      </trkpt>
      <trkpt lat="46.17433" lon="6.25836">
        <ele>502.4</ele>
        <time>2021-03-27T11:47:56Z</time>
      </trkpt>
      <trkpt lat="46.17433" lon="6.25836">
        <ele>502.4</ele>
        <time>2021-03-27T11:47:55Z</time>
      </trkpt>
      <trkpt lat="46.17433" lon="6.25836">
        <ele>502.4</ele>
        <time>2021-03-27T11:47:54Z</time>
      </trkpt>
      <trkpt lat="46.17433" lon="6.25836">
        <ele>502.6</ele>
        <time>2021-03-27T11:47:53Z</time>
      </trkpt>
      <trkpt lat="46.17433" lon="6.25836">
        <ele>502.4</ele>
        <time>2021-03-27T11:47:52Z</time>
      </trkpt>
      <trkpt lat="46.17433" lon="6.25836">
        <ele>502.6</ele>
        <time>2021-03-27T11:47:51Z</time>
      </trkpt>
      <trkpt lat="46.17433" lon="6.25836">
        <ele>502.6</ele>
        <time>2021-03-27T11:47:50Z</time>
      </trkpt>
      <trkpt lat="46.17433" lon="6.25836">
        <ele>502.6</ele>
        <time>2021-03-27T11:47:49Z</time>
      </trkpt>
      <trkpt lat="46.17433" lon="6.25836">
        <ele>502.6</ele>
        <time>2021-03-27T11:47:48Z</time>
      </trkpt>
      <trkpt lat="46.17433" lon="6.25836">
        <ele>502.4</ele>
        <time>2021-03-27T11:47:47Z</time>
      </trkpt>
      <trkpt lat="46.17433" lon="6.25836">
        <ele>502.6</ele>
        <time>2021-03-27T11:47:46Z</time>
      </trkpt>
      <trkpt lat="46.17433" lon="6.25836">
        <ele>502.4</ele>
        <time>2021-03-27T11:47:45Z</time>
      </trkpt>
      <trkpt lat="46.17433" lon="6.25836">
        <ele>502.6</ele>
        <time>2021-03-27T11:47:44Z</time>
      </trkpt>
      <trkpt lat="46.17433" lon="6.25836">
        <ele>502.6</ele>
        <time>2021-03-27T11:47:43Z</time>
      </trkpt>
      <trkpt lat="46.17433" lon="6.25836">
        <ele>502.4</ele>
        <time>2021-03-27T11:47:42Z</time>
      </trkpt>
      <trkpt lat="46.17433" lon="6.25835">
        <ele>502.6</ele>
        <time>2021-03-27T11:47:41Z</time>
      </trkpt>
      <trkpt lat="46.17433" lon="6.25835">
        <ele>502.6</ele>
        <time>2021-03-27T11:47:40Z</time>
      </trkpt>
      <trkpt lat="46.17433" lon="6.25835">
        <ele>502.6</ele>
        <time>2021-03-27T11:47:39Z</time>
      </trkpt>
      <trkpt lat="46.17433" lon="6.25835">
        <ele>502.6</ele>
        <time>2021-03-27T11:47:38Z</time>
      </trkpt>
      <trkpt lat="46.17433" lon="6.25835">
        <ele>502.6</ele>
        <time>2021-03-27T11:47:37Z</time>
      </trkpt>
      <trkpt lat="46.17433" lon="6.25835">
        <ele>502.6</ele>
        <time>2021-03-27T11:47:36Z</time>
      </trkpt>
      <trkpt lat="46.17433" lon="6.25835">
        <ele>502.6</ele>
        <time>2021-03-27T11:47:35Z</time>
      </trkpt>
      <trkpt lat="46.17433" lon="6.25835">
        <ele>502.4</ele>
        <time>2021-03-27T11:47:34Z</time>
      </trkpt>
      <trkpt lat="46.17433" lon="6.25835">
        <ele>502.4</ele>
        <time>2021-03-27T11:47:33Z</time>
      </trkpt>
      <trkpt lat="46.17433" lon="6.25835">
        <ele>502.4</ele>
        <time>2021-03-27T11:47:32Z</time>
      </trkpt>
      <trkpt lat="46.17433" lon="6.25835">
        <ele>502.4</ele>
        <time>2021-03-27T11:47:31Z</time>
      </trkpt>
      <trkpt lat="46.17433" lon="6.25835">
        <ele>502.2</ele>
        <time>2021-03-27T11:47:30Z</time>
      </trkpt>
      <trkpt lat="46.17433" lon="6.25835">
        <ele>502.2</ele>
        <time>2021-03-27T11:47:29Z</time>
      </trkpt>
      <trkpt lat="46.17433" lon="6.25835">
        <ele>502.4</ele>
        <time>2021-03-27T11:47:28Z</time>
      </trkpt>
      <trkpt lat="46.17433" lon="6.25835">
        <ele>502.4</ele>
        <time>2021-03-27T11:47:27Z</time>
      </trkpt>
      <trkpt lat="46.17433" lon="6.25835">
        <ele>502.4</ele>
        <time>2021-03-27T11:47:26Z</time>
      </trkpt>
      <trkpt lat="46.17433" lon="6.25835">
        <ele>502.2</ele>
        <time>2021-03-27T11:47:25Z</time>
      </trkpt>
      <trkpt lat="46.17433" lon="6.25835">
        <ele>502.4</ele>
        <time>2021-03-27T11:47:24Z</time>
      </trkpt>
      <trkpt lat="46.17433" lon="6.25835">
        <ele>502.2</ele>
        <time>2021-03-27T11:47:23Z</time>
      </trkpt>
      <trkpt lat="46.17433" lon="6.25835">
        <ele>502.4</ele>
        <time>2021-03-27T11:47:22Z</time>
      </trkpt>
      <trkpt lat="46.17433" lon="6.25835">
        <ele>502.2</ele>
        <time>2021-03-27T11:47:21Z</time>
      </trkpt>
      <trkpt lat="46.17433" lon="6.25835">
        <ele>502.2</ele>
        <time>2021-03-27T11:47:20Z</time>
      </trkpt>
      <trkpt lat="46.17433" lon="6.25835">
        <ele>502.2</ele>
        <time>2021-03-27T11:47:19Z</time>
      </trkpt>
      <trkpt lat="46.17433" lon="6.25835">
        <ele>502.4</ele>
        <time>2021-03-27T11:47:18Z</time>
      </trkpt>
      <trkpt lat="46.17433" lon="6.25835">
        <ele>502.4</ele>
        <time>2021-03-27T11:47:17Z</time>
      </trkpt>
      <trkpt lat="46.17433" lon="6.25835">
        <ele>502.2</ele>
        <time>2021-03-27T11:47:16Z</time>
      </trkpt>
      <trkpt lat="46.17433" lon="6.25835">
        <ele>502.2</ele>
        <time>2021-03-27T11:47:15Z</time>
      </trkpt>
      <trkpt lat="46.17433" lon="6.25835">
        <ele>502.2</ele>
        <time>2021-03-27T11:47:14Z</time>
      </trkpt>
      <trkpt lat="46.17433" lon="6.25835">
        <ele>502.4</ele>
        <time>2021-03-27T11:47:13Z</time>
      </trkpt>
      <trkpt lat="46.17433" lon="6.25835">
        <ele>502.4</ele>
        <time>2021-03-27T11:47:12Z</time>
      </trkpt>
      <trkpt lat="46.17433" lon="6.25835">
        <ele>502.4</ele>
        <time>2021-03-27T11:47:11Z</time>
      </trkpt>
      <trkpt lat="46.17433" lon="6.25835">
        <ele>502.4</ele>
        <time>2021-03-27T11:47:10Z</time>
      </trkpt>
      <trkpt lat="46.17433" lon="6.25835">
        <ele>502.4</ele>
        <time>2021-03-27T11:47:09Z</time>
      </trkpt>
      <trkpt lat="46.17433" lon="6.25836">
        <ele>502.4</ele>
        <time>2021-03-27T11:47:08Z</time>
      </trkpt>
      <trkpt lat="46.17433" lon="6.25836">
        <ele>502.4</ele>
        <time>2021-03-27T11:47:07Z</time>
      </trkpt>
      <trkpt lat="46.17433" lon="6.25836">
        <ele>502.6</ele>
        <time>2021-03-27T11:47:06Z</time>
      </trkpt>
      <trkpt lat="46.17433" lon="6.25836">
        <ele>502.6</ele>
        <time>2021-03-27T11:47:05Z</time>
      </trkpt>
      <trkpt lat="46.17433" lon="6.25836">
        <ele>502.6</ele>
        <time>2021-03-27T11:47:04Z</time>
      </trkpt>
      <trkpt lat="46.17433" lon="6.25836">
        <ele>502.4</ele>
        <time>2021-03-27T11:47:03Z</time>
      </trkpt>
      <trkpt lat="46.17433" lon="6.25836">
        <ele>502.6</ele>
        <time>2021-03-27T11:47:02Z</time>
      </trkpt>
      <trkpt lat="46.17433" lon="6.25836">
        <ele>502.4</ele>
        <time>2021-03-27T11:47:01Z</time>
      </trkpt>
      <trkpt lat="46.17433" lon="6.25836">
        <ele>502.6</ele>
        <time>2021-03-27T11:47:00Z</time>
      </trkpt>
      <trkpt lat="46.17433" lon="6.25836">
        <ele>502.4</ele>
        <time>2021-03-27T11:46:59Z</time>
      </trkpt>
      <trkpt lat="46.17433" lon="6.25836">
        <ele>502.4</ele>
        <time>2021-03-27T11:46:58Z</time>
      </trkpt>
      <trkpt lat="46.17433" lon="6.25836">
        <ele>502.4</ele>
        <time>2021-03-27T11:46:57Z</time>
      </trkpt>
      <trkpt lat="46.17433" lon="6.25836">
        <ele>502.6</ele>
        <time>2021-03-27T11:46:56Z</time>
      </trkpt>
      <trkpt lat="46.17433" lon="6.25836">
        <ele>502.4</ele>
        <time>2021-03-27T11:46:55Z</time>
      </trkpt>
      <trkpt lat="46.17433" lon="6.25836">
        <ele>502.4</ele>
        <time>2021-03-27T11:46:54Z</time>
      </trkpt>
      <trkpt lat="46.17433" lon="6.25836">
        <ele>502.4</ele>
        <time>2021-03-27T11:46:53Z</time>
      </trkpt>
      <trkpt lat="46.17433" lon="6.25836">
        <ele>502.4</ele>
        <time>2021-03-27T11:46:52Z</time>
      </trkpt>
      <trkpt lat="46.17433" lon="6.25835">
        <ele>502.4</ele>
        <time>2021-03-27T11:46:51Z</time>
      </trkpt>
      <trkpt lat="46.17433" lon="6.25835">
        <ele>502.2</ele>
        <time>2021-03-27T11:46:50Z</time>
      </trkpt>
      <trkpt lat="46.17433" lon="6.25835">
        <ele>502.4</ele>
        <time>2021-03-27T11:46:49Z</time>
      </trkpt>
      <trkpt lat="46.17433" lon="6.25835">
        <ele>502.4</ele>
        <time>2021-03-27T11:46:48Z</time>
      </trkpt>
      <trkpt lat="46.17433" lon="6.25835">
        <ele>502.4</ele>
        <time>2021-03-27T11:46:47Z</time>
      </trkpt>
      <trkpt lat="46.17433" lon="6.25835">
        <ele>502.4</ele>
        <time>2021-03-27T11:46:46Z</time>
      </trkpt>
      <trkpt lat="46.17433" lon="6.25835">
        <ele>502.4</ele>
        <time>2021-03-27T11:46:45Z</time>
      </trkpt>
      <trkpt lat="46.17433" lon="6.25835">
        <ele>502.4</ele>
        <time>2021-03-27T11:46:44Z</time>
      </trkpt>
      <trkpt lat="46.17433" lon="6.25835">
        <ele>502.6</ele>
        <time>2021-03-27T11:46:43Z</time>
      </trkpt>
      <trkpt lat="46.17433" lon="6.25835">
        <ele>502.6</ele>
        <time>2021-03-27T11:46:42Z</time>
      </trkpt>
      <trkpt lat="46.17433" lon="6.25835">
        <ele>502.6</ele>
        <time>2021-03-27T11:46:41Z</time>
      </trkpt>
      <trkpt lat="46.17433" lon="6.25835">
        <ele>502.6</ele>
        <time>2021-03-27T11:46:40Z</time>
      </trkpt>
      <trkpt lat="46.17433" lon="6.25835">
        <ele>502.8</ele>
        <time>2021-03-27T11:46:39Z</time>
      </trkpt>
      <trkpt lat="46.17433" lon="6.25835">
        <ele>502.6</ele>
        <time>2021-03-27T11:46:38Z</time>
      </trkpt>
      <trkpt lat="46.17433" lon="6.25835">
        <ele>502.8</ele>
        <time>2021-03-27T11:46:37Z</time>
      </trkpt>
      <trkpt lat="46.17433" lon="6.25835">
        <ele>502.8</ele>
        <time>2021-03-27T11:46:36Z</time>
      </trkpt>
      <trkpt lat="46.17433" lon="6.25835">
        <ele>502.8</ele>
        <time>2021-03-27T11:46:35Z</time>
      </trkpt>
      <trkpt lat="46.17433" lon="6.25835">
        <ele>502.6</ele>
        <time>2021-03-27T11:46:34Z</time>
      </trkpt>
      <trkpt lat="46.17433" lon="6.25835">
        <ele>502.6</ele>
        <time>2021-03-27T11:46:33Z</time>
      </trkpt>
      <trkpt lat="46.17433" lon="6.25835">
        <ele>502.6</ele>
        <time>2021-03-27T11:46:32Z</time>
      </trkpt>
      <trkpt lat="46.17433" lon="6.25835">
        <ele>502.4</ele>
        <time>2021-03-27T11:46:31Z</time>
      </trkpt>
      <trkpt lat="46.17433" lon="6.25835">
        <ele>502.6</ele>
        <time>2021-03-27T11:46:30Z</time>
      </trkpt>
      <trkpt lat="46.17433" lon="6.25835">
        <ele>502.4</ele>
        <time>2021-03-27T11:46:29Z</time>
      </trkpt>
      <trkpt lat="46.17433" lon="6.25835">
        <ele>502.6</ele>
        <time>2021-03-27T11:46:28Z</time>
      </trkpt>
      <trkpt lat="46.17433" lon="6.25835">
        <ele>502.4</ele>
        <time>2021-03-27T11:46:27Z</time>
      </trkpt>
      <trkpt lat="46.17433" lon="6.25835">
        <ele>502.4</ele>
        <time>2021-03-27T11:46:26Z</time>
      </trkpt>
      <trkpt lat="46.17433" lon="6.25835">
        <ele>502.4</ele>
        <time>2021-03-27T11:46:25Z</time>
      </trkpt>
      <trkpt lat="46.17433" lon="6.25835">
        <ele>502.4</ele>
        <time>2021-03-27T11:46:24Z</time>
      </trkpt>
      <trkpt lat="46.17433" lon="6.25835">
        <ele>502.4</ele>
        <time>2021-03-27T11:46:23Z</time>
      </trkpt>
      <trkpt lat="46.17433" lon="6.25835">
        <ele>502.2</ele>
        <time>2021-03-27T11:46:22Z</time>
      </trkpt>
      <trkpt lat="46.17433" lon="6.25835">
        <ele>502.2</ele>
        <time>2021-03-27T11:46:21Z</time>
      </trkpt>
      <trkpt lat="46.17433" lon="6.25835">
        <ele>502.2</ele>
        <time>2021-03-27T11:46:20Z</time>
      </trkpt>
      <trkpt lat="46.17433" lon="6.25835">
        <ele>502.2</ele>
        <time>2021-03-27T11:46:19Z</time>
      </trkpt>
      <trkpt lat="46.17433" lon="6.25835">
        <ele>502.2</ele>
        <time>2021-03-27T11:46:18Z</time>
      </trkpt>
      <trkpt lat="46.17433" lon="6.25835">
        <ele>502.2</ele>
        <time>2021-03-27T11:46:17Z</time>
      </trkpt>
      <trkpt lat="46.17433" lon="6.25835">
        <ele>502.2</ele>
        <time>2021-03-27T11:46:16Z</time>
      </trkpt>
      <trkpt lat="46.17433" lon="6.25835">
        <ele>502.2</ele>
        <time>2021-03-27T11:46:15Z</time>
      </trkpt>
      <trkpt lat="46.17433" lon="6.25835">
        <ele>502.2</ele>
        <time>2021-03-27T11:46:14Z</time>
      </trkpt>
      <trkpt lat="46.17433" lon="6.25835">
        <ele>502.2</ele>
        <time>2021-03-27T11:46:13Z</time>
      </trkpt>
      <trkpt lat="46.17433" lon="6.25835">
        <ele>502.2</ele>
        <time>2021-03-27T11:46:12Z</time>
      </trkpt>
      <trkpt lat="46.17433" lon="6.25835">
        <ele>502.2</ele>
        <time>2021-03-27T11:46:11Z</time>
      </trkpt>
      <trkpt lat="46.17433" lon="6.25835">
        <ele>502.2</ele>
        <time>2021-03-27T11:46:10Z</time>
      </trkpt>
      <trkpt lat="46.17433" lon="6.25835">
        <ele>502.2</ele>
        <time>2021-03-27T11:46:09Z</time>
      </trkpt>
      <trkpt lat="46.17433" lon="6.25835">
        <ele>502.2</ele>
        <time>2021-03-27T11:46:08Z</time>
      </trkpt>
      <trkpt lat="46.17433" lon="6.25835">
        <ele>502.2</ele>
        <time>2021-03-27T11:46:07Z</time>
      </trkpt>
      <trkpt lat="46.17433" lon="6.25835">
        <ele>502.4</ele>
        <time>2021-03-27T11:46:06Z</time>
      </trkpt>
      <trkpt lat="46.17433" lon="6.25835">
        <ele>502.4</ele>
        <time>2021-03-27T11:46:05Z</time>
      </trkpt>
      <trkpt lat="46.17433" lon="6.25835">
        <ele>502.2</ele>
        <time>2021-03-27T11:46:04Z</time>
      </trkpt>
      <trkpt lat="46.17433" lon="6.25835">
        <ele>502.4</ele>
        <time>2021-03-27T11:46:03Z</time>
      </trkpt>
      <trkpt lat="46.17434" lon="6.25835">
        <ele>502.4</ele>
        <time>2021-03-27T11:46:02Z</time>
      </trkpt>
      <trkpt lat="46.17434" lon="6.25835">
        <ele>502.4</ele>
        <time>2021-03-27T11:46:01Z</time>
      </trkpt>
      <trkpt lat="46.17434" lon="6.25835">
        <ele>502.2</ele>
        <time>2021-03-27T11:46:00Z</time>
      </trkpt>
      <trkpt lat="46.17435" lon="6.25834">
        <ele>502.4</ele>
        <time>2021-03-27T11:45:59Z</time>
      </trkpt>
      <trkpt lat="46.17435" lon="6.25834">
        <ele>502.4</ele>
        <time>2021-03-27T11:45:58Z</time>
      </trkpt>
      <trkpt lat="46.17435" lon="6.25834">
        <ele>502.2</ele>
        <time>2021-03-27T11:45:57Z</time>
      </trkpt>
      <trkpt lat="46.17435" lon="6.25834">
        <ele>502.2</ele>
        <time>2021-03-27T11:45:56Z</time>
      </trkpt>
      <trkpt lat="46.17435" lon="6.25834">
        <ele>502.2</ele>
        <time>2021-03-27T11:45:55Z</time>
      </trkpt>
      <trkpt lat="46.17435" lon="6.25834">
        <ele>502.2</ele>
        <time>2021-03-27T11:45:54Z</time>
      </trkpt>
      <trkpt lat="46.17435" lon="6.25834">
        <ele>502.2</ele>
        <time>2021-03-27T11:45:53Z</time>
      </trkpt>
      <trkpt lat="46.17435" lon="6.25833">
        <ele>502.4</ele>
        <time>2021-03-27T11:45:52Z</time>
      </trkpt>
      <trkpt lat="46.17435" lon="6.25833">
        <ele>502.2</ele>
        <time>2021-03-27T11:45:51Z</time>
      </trkpt>
      <trkpt lat="46.17435" lon="6.25833">
        <ele>502.2</ele>
        <time>2021-03-27T11:45:50Z</time>
      </trkpt>
      <trkpt lat="46.17435" lon="6.25833">
        <ele>502.2</ele>
        <time>2021-03-27T11:45:49Z</time>
      </trkpt>
      <trkpt lat="46.17435" lon="6.25833">
        <ele>502.4</ele>
        <time>2021-03-27T11:45:48Z</time>
      </trkpt>
      <trkpt lat="46.17436" lon="6.25833">
        <ele>502.2</ele>
        <time>2021-03-27T11:45:47Z</time>
      </trkpt>
      <trkpt lat="46.17436" lon="6.25832">
        <ele>502.4</ele>
        <time>2021-03-27T11:45:46Z</time>
      </trkpt>
      <trkpt lat="46.17436" lon="6.25832">
        <ele>502.2</ele>
        <time>2021-03-27T11:45:45Z</time>
      </trkpt>
      <trkpt lat="46.17436" lon="6.25832">
        <ele>502.2</ele>
        <time>2021-03-27T11:45:44Z</time>
      </trkpt>
      <trkpt lat="46.17436" lon="6.25832">
        <ele>502.4</ele>
        <time>2021-03-27T11:45:43Z</time>
      </trkpt>
      <trkpt lat="46.17436" lon="6.25832">
        <ele>502.4</ele>
        <time>2021-03-27T11:45:42Z</time>
      </trkpt>
      <trkpt lat="46.17436" lon="6.25832">
        <ele>502.2</ele>
        <time>2021-03-27T11:45:41Z</time>
      </trkpt>
      <trkpt lat="46.17436" lon="6.25831">
        <ele>502.4</ele>
        <time>2021-03-27T11:45:40Z</time>
      </trkpt>
      <trkpt lat="46.17436" lon="6.25831">
        <ele>502.2</ele>
        <time>2021-03-27T11:45:39Z</time>
      </trkpt>
      <trkpt lat="46.17436" lon="6.25831">
        <ele>502.4</ele>
        <time>2021-03-27T11:45:38Z</time>
      </trkpt>
      <trkpt lat="46.17436" lon="6.25831">
        <ele>502.2</ele>
        <time>2021-03-27T11:45:37Z</time>
      </trkpt>
      <trkpt lat="46.17436" lon="6.25831">
        <ele>502.2</ele>
        <time>2021-03-27T11:45:36Z</time>
      </trkpt>
      <trkpt lat="46.17436" lon="6.25831">
        <ele>502.2</ele>
        <time>2021-03-27T11:45:35Z</time>
      </trkpt>
      <trkpt lat="46.17436" lon="6.25831">
        <ele>502.2</ele>
        <time>2021-03-27T11:45:34Z</time>
      </trkpt>
      <trkpt lat="46.17436" lon="6.25832">
        <ele>502.2</ele>
        <time>2021-03-27T11:45:33Z</time>
      </trkpt>
      <trkpt lat="46.17436" lon="6.25832">
        <ele>502.2</ele>
        <time>2021-03-27T11:45:32Z</time>
      </trkpt>
      <trkpt lat="46.17436" lon="6.25831">
        <ele>502.2</ele>
        <time>2021-03-27T11:45:31Z</time>
      </trkpt>
      <trkpt lat="46.17435" lon="6.25831">
        <ele>502.2</ele>
        <time>2021-03-27T11:45:30Z</time>
      </trkpt>
      <trkpt lat="46.17435" lon="6.25831">
        <ele>502.2</ele>
        <time>2021-03-27T11:45:29Z</time>
      </trkpt>
      <trkpt lat="46.17435" lon="6.25831">
        <ele>502.2</ele>
        <time>2021-03-27T11:45:28Z</time>
      </trkpt>
      <trkpt lat="46.17435" lon="6.25831">
        <ele>502.2</ele>
        <time>2021-03-27T11:45:27Z</time>
      </trkpt>
      <trkpt lat="46.17435" lon="6.25831">
        <ele>502.2</ele>
        <time>2021-03-27T11:45:26Z</time>
      </trkpt>
      <trkpt lat="46.17435" lon="6.25831">
        <ele>502.2</ele>
        <time>2021-03-27T11:45:25Z</time>
      </trkpt>
      <trkpt lat="46.17435" lon="6.25831">
        <ele>502.2</ele>
        <time>2021-03-27T11:45:24Z</time>
      </trkpt>
      <trkpt lat="46.17435" lon="6.25831">
        <ele>502.2</ele>
        <time>2021-03-27T11:45:23Z</time>
      </trkpt>
      <trkpt lat="46.17435" lon="6.25831">
        <ele>502.2</ele>
        <time>2021-03-27T11:45:22Z</time>
      </trkpt>
      <trkpt lat="46.17435" lon="6.25831">
        <ele>502.2</ele>
        <time>2021-03-27T11:45:21Z</time>
      </trkpt>
      <trkpt lat="46.17435" lon="6.25831">
        <ele>502.2</ele>
        <time>2021-03-27T11:45:20Z</time>
      </trkpt>
      <trkpt lat="46.17435" lon="6.25831">
        <ele>502.4</ele>
        <time>2021-03-27T11:45:19Z</time>
      </trkpt>
      <trkpt lat="46.17435" lon="6.25831">
        <ele>502.2</ele>
        <time>2021-03-27T11:45:18Z</time>
      </trkpt>
      <trkpt lat="46.17435" lon="6.25831">
        <ele>502.2</ele>
        <time>2021-03-27T11:45:17Z</time>
      </trkpt>
      <trkpt lat="46.17436" lon="6.25831">
        <ele>502.4</ele>
        <time>2021-03-27T11:45:16Z</time>
      </trkpt>
      <trkpt lat="46.17435" lon="6.25831">
        <ele>502.4</ele>
        <time>2021-03-27T11:45:15Z</time>
      </trkpt>
      <trkpt lat="46.17435" lon="6.25831">
        <ele>502.4</ele>
        <time>2021-03-27T11:45:14Z</time>
      </trkpt>
      <trkpt lat="46.17435" lon="6.25831">
        <ele>502.4</ele>
        <time>2021-03-27T11:45:13Z</time>
      </trkpt>
      <trkpt lat="46.17435" lon="6.25831">
        <ele>502.4</ele>
        <time>2021-03-27T11:45:12Z</time>
      </trkpt>
      <trkpt lat="46.17435" lon="6.25831">
        <ele>502.6</ele>
        <time>2021-03-27T11:45:11Z</time>
      </trkpt>
      <trkpt lat="46.17436" lon="6.25831">
        <ele>502.6</ele>
        <time>2021-03-27T11:45:10Z</time>
      </trkpt>
      <trkpt lat="46.17436" lon="6.25831">
        <ele>502.6</ele>
        <time>2021-03-27T11:45:09Z</time>
      </trkpt>
      <trkpt lat="46.17436" lon="6.25831">
        <ele>502.6</ele>
        <time>2021-03-27T11:45:08Z</time>
      </trkpt>
      <trkpt lat="46.17436" lon="6.25831">
        <ele>502.6</ele>
        <time>2021-03-27T11:45:07Z</time>
      </trkpt>
      <trkpt lat="46.17435" lon="6.25831">
        <ele>502.6</ele>
        <time>2021-03-27T11:45:06Z</time>
      </trkpt>
      <trkpt lat="46.17435" lon="6.25831">
        <ele>502.8</ele>
        <time>2021-03-27T11:45:05Z</time>
      </trkpt>
      <trkpt lat="46.17435" lon="6.25831">
        <ele>502.6</ele>
        <time>2021-03-27T11:45:04Z</time>
      </trkpt>
      <trkpt lat="46.17435" lon="6.25831">
        <ele>502.6</ele>
        <time>2021-03-27T11:45:03Z</time>
      </trkpt>
      <trkpt lat="46.17435" lon="6.25831">
        <ele>502.6</ele>
        <time>2021-03-27T11:45:02Z</time>
      </trkpt>
      <trkpt lat="46.17435" lon="6.25831">
        <ele>502.8</ele>
        <time>2021-03-27T11:45:01Z</time>
      </trkpt>
      <trkpt lat="46.17435" lon="6.25831">
        <ele>502.6</ele>
        <time>2021-03-27T11:45:00Z</time>
      </trkpt>
      <trkpt lat="46.17435" lon="6.25831">
        <ele>502.8</ele>
        <time>2021-03-27T11:44:59Z</time>
      </trkpt>
      <trkpt lat="46.17435" lon="6.25831">
        <ele>502.6</ele>
        <time>2021-03-27T11:44:58Z</time>
      </trkpt>
      <trkpt lat="46.17435" lon="6.25831">
        <ele>502.8</ele>
        <time>2021-03-27T11:44:57Z</time>
      </trkpt>
      <trkpt lat="46.17435" lon="6.25831">
        <ele>502.6</ele>
        <time>2021-03-27T11:44:56Z</time>
      </trkpt>
      <trkpt lat="46.17435" lon="6.25831">
        <ele>502.6</ele>
        <time>2021-03-27T11:44:55Z</time>
      </trkpt>
      <trkpt lat="46.17435" lon="6.25831">
        <ele>502.4</ele>
        <time>2021-03-27T11:44:54Z</time>
      </trkpt>
      <trkpt lat="46.17435" lon="6.25831">
        <ele>502.2</ele>
        <time>2021-03-27T11:44:53Z</time>
      </trkpt>
      <trkpt lat="46.17435" lon="6.25831">
        <ele>502.2</ele>
        <time>2021-03-27T11:44:52Z</time>
      </trkpt>
      <trkpt lat="46.17435" lon="6.25831">
        <ele>502.2</ele>
        <time>2021-03-27T11:44:51Z</time>
      </trkpt>
      <trkpt lat="46.17435" lon="6.25831">
        <ele>502.2</ele>
        <time>2021-03-27T11:44:50Z</time>
      </trkpt>
      <trkpt lat="46.17435" lon="6.25831">
        <ele>502.2</ele>
        <time>2021-03-27T11:44:49Z</time>
      </trkpt>
      <trkpt lat="46.17435" lon="6.25831">
        <ele>502.2</ele>
        <time>2021-03-27T11:44:48Z</time>
      </trkpt>
      <trkpt lat="46.17435" lon="6.25831">
        <ele>502.2</ele>
        <time>2021-03-27T11:44:47Z</time>
      </trkpt>
      <trkpt lat="46.17435" lon="6.25831">
        <ele>502.4</ele>
        <time>2021-03-27T11:44:46Z</time>
      </trkpt>
      <trkpt lat="46.17435" lon="6.25831">
        <ele>502.2</ele>
        <time>2021-03-27T11:44:45Z</time>
      </trkpt>
      <trkpt lat="46.17435" lon="6.25831">
        <ele>502.2</ele>
        <time>2021-03-27T11:44:44Z</time>
      </trkpt>
      <trkpt lat="46.17436" lon="6.25831">
        <ele>502.2</ele>
        <time>2021-03-27T11:44:43Z</time>
      </trkpt>
      <trkpt lat="46.17436" lon="6.25831">
        <ele>502.4</ele>
        <time>2021-03-27T11:44:42Z</time>
      </trkpt>
      <trkpt lat="46.17436" lon="6.25831">
        <ele>502.4</ele>
        <time>2021-03-27T11:44:41Z</time>
      </trkpt>
      <trkpt lat="46.17436" lon="6.25831">
        <ele>502.4</ele>
        <time>2021-03-27T11:44:40Z</time>
      </trkpt>
      <trkpt lat="46.17436" lon="6.25831">
        <ele>502.4</ele>
        <time>2021-03-27T11:44:39Z</time>
      </trkpt>
      <trkpt lat="46.17436" lon="6.25832">
        <ele>502.4</ele>
        <time>2021-03-27T11:44:38Z</time>
      </trkpt>
      <trkpt lat="46.17436" lon="6.25832">
        <ele>502.6</ele>
        <time>2021-03-27T11:44:37Z</time>
      </trkpt>
      <trkpt lat="46.17436" lon="6.25831">
        <ele>502.6</ele>
        <time>2021-03-27T11:44:36Z</time>
      </trkpt>
      <trkpt lat="46.17435" lon="6.25831">
        <ele>502.6</ele>
        <time>2021-03-27T11:44:35Z</time>
      </trkpt>
      <trkpt lat="46.17435" lon="6.25831">
        <ele>502.8</ele>
        <time>2021-03-27T11:44:34Z</time>
      </trkpt>
      <trkpt lat="46.17435" lon="6.25831">
        <ele>502.8</ele>
        <time>2021-03-27T11:44:33Z</time>
      </trkpt>
      <trkpt lat="46.17435" lon="6.25831">
        <ele>502.6</ele>
        <time>2021-03-27T11:44:32Z</time>
      </trkpt>
      <trkpt lat="46.17435" lon="6.25831">
        <ele>502.6</ele>
        <time>2021-03-27T11:44:31Z</time>
      </trkpt>
      <trkpt lat="46.17435" lon="6.25831">
        <ele>502.6</ele>
        <time>2021-03-27T11:44:30Z</time>
      </trkpt>
      <trkpt lat="46.17435" lon="6.25831">
        <ele>502.6</ele>
        <time>2021-03-27T11:44:29Z</time>
      </trkpt>
      <trkpt lat="46.17435" lon="6.25831">
        <ele>502.6</ele>
        <time>2021-03-27T11:44:28Z</time>
      </trkpt>
      <trkpt lat="46.17435" lon="6.25831">
        <ele>502.6</ele>
        <time>2021-03-27T11:44:26Z</time>
      </trkpt>
      <trkpt lat="46.17435" lon="6.25831">
        <ele>502.4</ele>
        <time>2021-03-27T11:44:24Z</time>
      </trkpt>
      <trkpt lat="46.17435" lon="6.25831">
        <ele>502.4</ele>
        <time>2021-03-27T11:44:23Z</time>
      </trkpt>
      <trkpt lat="46.17435" lon="6.25831">
        <ele>502.4</ele>
        <time>2021-03-27T11:44:22Z</time>
      </trkpt>
      <trkpt lat="46.17435" lon="6.25831">
        <ele>502.4</ele>
        <time>2021-03-27T11:44:21Z</time>
      </trkpt>
      <trkpt lat="46.17435" lon="6.25831">
        <ele>502.4</ele>
        <time>2021-03-27T11:44:20Z</time>
      </trkpt>
      <trkpt lat="46.17435" lon="6.25831">
        <ele>502.2</ele>
        <time>2021-03-27T11:44:19Z</time>
      </trkpt>
      <trkpt lat="46.17435" lon="6.25831">
        <ele>502.4</ele>
        <time>2021-03-27T11:44:18Z</time>
      </trkpt>
      <trkpt lat="46.17435" lon="6.25832">
        <ele>502.4</ele>
        <time>2021-03-27T11:44:17Z</time>
      </trkpt>
      <trkpt lat="46.17435" lon="6.25832">
        <ele>502.4</ele>
        <time>2021-03-27T11:44:16Z</time>
      </trkpt>
      <trkpt lat="46.17435" lon="6.25832">
        <ele>502.2</ele>
        <time>2021-03-27T11:44:15Z</time>
      </trkpt>
      <trkpt lat="46.17435" lon="6.25832">
        <ele>502.2</ele>
        <time>2021-03-27T11:44:14Z</time>
      </trkpt>
      <trkpt lat="46.17435" lon="6.25832">
        <ele>502.4</ele>
        <time>2021-03-27T11:44:13Z</time>
      </trkpt>
      <trkpt lat="46.17435" lon="6.25832">
        <ele>502.4</ele>
        <time>2021-03-27T11:44:12Z</time>
      </trkpt>
      <trkpt lat="46.17435" lon="6.25832">
        <ele>502.4</ele>
        <time>2021-03-27T11:44:11Z</time>
      </trkpt>
      <trkpt lat="46.17435" lon="6.25832">
        <ele>502.4</ele>
        <time>2021-03-27T11:44:10Z</time>
      </trkpt>
      <trkpt lat="46.17435" lon="6.25832">
        <ele>502.2</ele>
        <time>2021-03-27T11:44:09Z</time>
      </trkpt>
      <trkpt lat="46.17435" lon="6.25832">
        <ele>502.2</ele>
        <time>2021-03-27T11:44:08Z</time>
      </trkpt>
      <trkpt lat="46.17435" lon="6.25832">
        <ele>502.4</ele>
        <time>2021-03-27T11:44:07Z</time>
      </trkpt>
      <trkpt lat="46.17435" lon="6.25832">
        <ele>502.4</ele>
        <time>2021-03-27T11:44:06Z</time>
      </trkpt>
      <trkpt lat="46.17435" lon="6.25832">
        <ele>502.4</ele>
        <time>2021-03-27T11:44:05Z</time>
      </trkpt>
      <trkpt lat="46.17435" lon="6.25832">
        <ele>502.6</ele>
        <time>2021-03-27T11:44:04Z</time>
      </trkpt>
      <trkpt lat="46.17435" lon="6.25832">
        <ele>502.6</ele>
        <time>2021-03-27T11:44:03Z</time>
      </trkpt>
      <trkpt lat="46.17435" lon="6.25832">
        <ele>502.4</ele>
        <time>2021-03-27T11:44:02Z</time>
      </trkpt>
      <trkpt lat="46.17435" lon="6.25832">
        <ele>502.6</ele>
        <time>2021-03-27T11:44:01Z</time>
      </trkpt>
      <trkpt lat="46.17435" lon="6.25832">
        <ele>502.4</ele>
        <time>2021-03-27T11:44:00Z</time>
      </trkpt>
      <trkpt lat="46.17435" lon="6.25832">
        <ele>502.6</ele>
        <time>2021-03-27T11:43:59Z</time>
      </trkpt>
      <trkpt lat="46.17435" lon="6.25831">
        <ele>502.6</ele>
        <time>2021-03-27T11:43:58Z</time>
      </trkpt>
      <trkpt lat="46.17435" lon="6.25831">
        <ele>502.4</ele>
        <time>2021-03-27T11:43:57Z</time>
      </trkpt>
      <trkpt lat="46.17435" lon="6.25831">
        <ele>502.4</ele>
        <time>2021-03-27T11:43:56Z</time>
      </trkpt>
      <trkpt lat="46.17435" lon="6.25831">
        <ele>502.4</ele>
        <time>2021-03-27T11:43:55Z</time>
      </trkpt>
      <trkpt lat="46.17435" lon="6.25832">
        <ele>502.4</ele>
        <time>2021-03-27T11:43:53Z</time>
      </trkpt>
      <trkpt lat="46.17435" lon="6.25832">
        <ele>502.4</ele>
        <time>2021-03-27T11:43:52Z</time>
      </trkpt>
      <trkpt lat="46.17435" lon="6.25832">
        <ele>502.6</ele>
        <time>2021-03-27T11:43:51Z</time>
      </trkpt>
      <trkpt lat="46.17435" lon="6.25831">
        <ele>502.6</ele>
        <time>2021-03-27T11:43:49Z</time>
      </trkpt>
      <trkpt lat="46.17435" lon="6.25832">
        <ele>502.6</ele>
        <time>2021-03-27T11:43:48Z</time>
      </trkpt>
      <trkpt lat="46.17435" lon="6.25832">
        <ele>502.6</ele>
        <time>2021-03-27T11:43:47Z</time>
      </trkpt>
      <trkpt lat="46.17435" lon="6.25832">
        <ele>502.6</ele>
        <time>2021-03-27T11:43:46Z</time>
      </trkpt>
      <trkpt lat="46.17435" lon="6.25831">
        <ele>502.6</ele>
        <time>2021-03-27T11:43:45Z</time>
      </trkpt>
      <trkpt lat="46.17435" lon="6.25831">
        <ele>502.6</ele>
        <time>2021-03-27T11:43:44Z</time>
      </trkpt>
      <trkpt lat="46.17435" lon="6.25831">
        <ele>502.6</ele>
        <time>2021-03-27T11:43:43Z</time>
      </trkpt>
      <trkpt lat="46.17435" lon="6.25831">
        <ele>502.6</ele>
        <time>2021-03-27T11:43:42Z</time>
      </trkpt>
      <trkpt lat="46.17435" lon="6.25831">
        <ele>502.8</ele>
        <time>2021-03-27T11:43:41Z</time>
      </trkpt>
      <trkpt lat="46.17435" lon="6.25832">
        <ele>502.8</ele>
        <time>2021-03-27T11:43:40Z</time>
      </trkpt>
      <trkpt lat="46.17435" lon="6.25832">
        <ele>502.8</ele>
        <time>2021-03-27T11:43:39Z</time>
      </trkpt>
      <trkpt lat="46.17435" lon="6.25832">
        <ele>503.2</ele>
        <time>2021-03-27T11:43:38Z</time>
      </trkpt>
      <trkpt lat="46.17435" lon="6.25832">
        <ele>503.2</ele>
        <time>2021-03-27T11:43:37Z</time>
      </trkpt>
      <trkpt lat="46.17435" lon="6.25832">
        <ele>503.2</ele>
        <time>2021-03-27T11:43:36Z</time>
      </trkpt>
      <trkpt lat="46.17435" lon="6.25832">
        <ele>503.4</ele>
        <time>2021-03-27T11:43:35Z</time>
      </trkpt>
      <trkpt lat="46.17435" lon="6.25832">
        <ele>503.4</ele>
        <time>2021-03-27T11:43:34Z</time>
      </trkpt>
      <trkpt lat="46.17435" lon="6.25832">
        <ele>503.6</ele>
        <time>2021-03-27T11:43:33Z</time>
      </trkpt>
      <trkpt lat="46.17435" lon="6.25832">
        <ele>503.6</ele>
        <time>2021-03-27T11:43:32Z</time>
      </trkpt>
      <trkpt lat="46.17435" lon="6.25832">
        <ele>503.4</ele>
        <time>2021-03-27T11:43:31Z</time>
      </trkpt>
      <trkpt lat="46.17435" lon="6.25832">
        <ele>503.6</ele>
        <time>2021-03-27T11:43:30Z</time>
      </trkpt>
      <trkpt lat="46.17435" lon="6.25832">
        <ele>503.6</ele>
        <time>2021-03-27T11:43:29Z</time>
      </trkpt>
      <trkpt lat="46.17435" lon="6.25832">
        <ele>503.4</ele>
        <time>2021-03-27T11:43:28Z</time>
      </trkpt>
      <trkpt lat="46.17435" lon="6.25832">
        <ele>503.4</ele>
        <time>2021-03-27T11:43:27Z</time>
      </trkpt>
      <trkpt lat="46.17435" lon="6.25832">
        <ele>503.4</ele>
        <time>2021-03-27T11:43:26Z</time>
      </trkpt>
      <trkpt lat="46.17435" lon="6.25832">
        <ele>503.6</ele>
        <time>2021-03-27T11:43:25Z</time>
      </trkpt>
      <trkpt lat="46.17435" lon="6.25832">
        <ele>503.4</ele>
        <time>2021-03-27T11:43:24Z</time>
      </trkpt>
      <trkpt lat="46.17435" lon="6.25832">
        <ele>503.6</ele>
        <time>2021-03-27T11:43:23Z</time>
      </trkpt>
      <trkpt lat="46.17435" lon="6.25832">
        <ele>503.6</ele>
        <time>2021-03-27T11:43:22Z</time>
      </trkpt>
      <trkpt lat="46.17435" lon="6.25832">
        <ele>503.4</ele>
        <time>2021-03-27T11:43:21Z</time>
      </trkpt>
      <trkpt lat="46.17435" lon="6.25832">
        <ele>503.4</ele>
        <time>2021-03-27T11:43:20Z</time>
      </trkpt>
      <trkpt lat="46.17435" lon="6.25832">
        <ele>503.4</ele>
        <time>2021-03-27T11:43:19Z</time>
      </trkpt>
      <trkpt lat="46.17435" lon="6.25832">
        <ele>503.4</ele>
        <time>2021-03-27T11:43:18Z</time>
      </trkpt>
      <trkpt lat="46.17435" lon="6.25832">
        <ele>503.4</ele>
        <time>2021-03-27T11:43:17Z</time>
      </trkpt>
      <trkpt lat="46.17435" lon="6.25832">
        <ele>503.2</ele>
        <time>2021-03-27T11:43:16Z</time>
      </trkpt>
      <trkpt lat="46.17435" lon="6.25832">
        <ele>503.4</ele>
        <time>2021-03-27T11:43:15Z</time>
      </trkpt>
      <trkpt lat="46.17435" lon="6.25832">
        <ele>503.2</ele>
        <time>2021-03-27T11:43:14Z</time>
      </trkpt>
      <trkpt lat="46.17435" lon="6.25832">
        <ele>503.2</ele>
        <time>2021-03-27T11:43:13Z</time>
      </trkpt>
      <trkpt lat="46.17435" lon="6.25832">
        <ele>503.2</ele>
        <time>2021-03-27T11:43:12Z</time>
      </trkpt>
      <trkpt lat="46.17435" lon="6.25832">
        <ele>503</ele>
        <time>2021-03-27T11:43:11Z</time>
      </trkpt>
      <trkpt lat="46.17435" lon="6.25832">
        <ele>503</ele>
        <time>2021-03-27T11:43:10Z</time>
      </trkpt>
      <trkpt lat="46.17435" lon="6.25832">
        <ele>503</ele>
        <time>2021-03-27T11:43:09Z</time>
      </trkpt>
      <trkpt lat="46.17435" lon="6.25832">
        <ele>503.2</ele>
        <time>2021-03-27T11:43:08Z</time>
      </trkpt>
      <trkpt lat="46.17435" lon="6.25832">
        <ele>503</ele>
        <time>2021-03-27T11:43:07Z</time>
      </trkpt>
      <trkpt lat="46.17435" lon="6.25832">
        <ele>503</ele>
        <time>2021-03-27T11:43:06Z</time>
      </trkpt>
      <trkpt lat="46.17435" lon="6.25832">
        <ele>503</ele>
        <time>2021-03-27T11:43:05Z</time>
      </trkpt>
      <trkpt lat="46.17435" lon="6.25832">
        <ele>503.2</ele>
        <time>2021-03-27T11:43:04Z</time>
      </trkpt>
      <trkpt lat="46.17435" lon="6.25832">
        <ele>503.2</ele>
        <time>2021-03-27T11:43:03Z</time>
      </trkpt>
      <trkpt lat="46.17435" lon="6.25832">
        <ele>503.2</ele>
        <time>2021-03-27T11:43:02Z</time>
      </trkpt>
      <trkpt lat="46.17435" lon="6.25832">
        <ele>503.2</ele>
        <time>2021-03-27T11:43:01Z</time>
      </trkpt>
      <trkpt lat="46.17435" lon="6.25832">
        <ele>503.2</ele>
        <time>2021-03-27T11:43:00Z</time>
      </trkpt>
      <trkpt lat="46.17435" lon="6.25832">
        <ele>503.2</ele>
        <time>2021-03-27T11:42:59Z</time>
      </trkpt>
      <trkpt lat="46.17435" lon="6.25832">
        <ele>503</ele>
        <time>2021-03-27T11:42:58Z</time>
      </trkpt>
      <trkpt lat="46.17435" lon="6.25832">
        <ele>503</ele>
        <time>2021-03-27T11:42:57Z</time>
      </trkpt>
      <trkpt lat="46.17435" lon="6.25832">
        <ele>503.2</ele>
        <time>2021-03-27T11:42:56Z</time>
      </trkpt>
      <trkpt lat="46.17435" lon="6.25832">
        <ele>503.2</ele>
        <time>2021-03-27T11:42:55Z</time>
      </trkpt>
      <trkpt lat="46.17435" lon="6.25832">
        <ele>503.2</ele>
        <time>2021-03-27T11:42:54Z</time>
      </trkpt>
      <trkpt lat="46.17435" lon="6.25832">
        <ele>503.2</ele>
        <time>2021-03-27T11:42:53Z</time>
      </trkpt>
      <trkpt lat="46.17435" lon="6.25832">
        <ele>503</ele>
        <time>2021-03-27T11:42:52Z</time>
      </trkpt>
      <trkpt lat="46.17435" lon="6.25832">
        <ele>503.2</ele>
        <time>2021-03-27T11:42:51Z</time>
      </trkpt>
      <trkpt lat="46.17435" lon="6.25832">
        <ele>503</ele>
        <time>2021-03-27T11:42:50Z</time>
      </trkpt>
      <trkpt lat="46.17435" lon="6.25832">
        <ele>503.2</ele>
        <time>2021-03-27T11:42:49Z</time>
      </trkpt>
      <trkpt lat="46.17435" lon="6.25832">
        <ele>503.4</ele>
        <time>2021-03-27T11:42:48Z</time>
      </trkpt>
      <trkpt lat="46.17435" lon="6.25832">
        <ele>503.2</ele>
        <time>2021-03-27T11:42:47Z</time>
      </trkpt>
      <trkpt lat="46.17435" lon="6.25832">
        <ele>503.2</ele>
        <time>2021-03-27T11:42:46Z</time>
      </trkpt>
      <trkpt lat="46.17435" lon="6.25832">
        <ele>503.2</ele>
        <time>2021-03-27T11:42:45Z</time>
      </trkpt>
      <trkpt lat="46.17435" lon="6.25832">
        <ele>503.2</ele>
        <time>2021-03-27T11:42:44Z</time>
      </trkpt>
      <trkpt lat="46.17435" lon="6.25832">
        <ele>503.2</ele>
        <time>2021-03-27T11:42:43Z</time>
      </trkpt>
      <trkpt lat="46.17435" lon="6.25832">
        <ele>503.2</ele>
        <time>2021-03-27T11:42:42Z</time>
      </trkpt>
      <trkpt lat="46.17435" lon="6.25832">
        <ele>503.2</ele>
        <time>2021-03-27T11:42:41Z</time>
      </trkpt>
      <trkpt lat="46.17435" lon="6.25832">
        <ele>503.2</ele>
        <time>2021-03-27T11:42:40Z</time>
      </trkpt>
      <trkpt lat="46.17435" lon="6.25832">
        <ele>503.2</ele>
        <time>2021-03-27T11:42:39Z</time>
      </trkpt>
      <trkpt lat="46.17435" lon="6.25832">
        <ele>503.2</ele>
        <time>2021-03-27T11:42:38Z</time>
      </trkpt>
      <trkpt lat="46.17435" lon="6.25832">
        <ele>503.2</ele>
        <time>2021-03-27T11:42:37Z</time>
      </trkpt>
      <trkpt lat="46.17435" lon="6.25832">
        <ele>503.2</ele>
        <time>2021-03-27T11:42:36Z</time>
      </trkpt>
      <trkpt lat="46.17435" lon="6.25832">
        <ele>503.2</ele>
        <time>2021-03-27T11:42:35Z</time>
      </trkpt>
      <trkpt lat="46.17435" lon="6.25832">
        <ele>503.4</ele>
        <time>2021-03-27T11:42:34Z</time>
      </trkpt>
      <trkpt lat="46.17435" lon="6.25832">
        <ele>503.2</ele>
        <time>2021-03-27T11:42:33Z</time>
      </trkpt>
      <trkpt lat="46.17435" lon="6.25832">
        <ele>503.2</ele>
        <time>2021-03-27T11:42:32Z</time>
      </trkpt>
      <trkpt lat="46.17435" lon="6.25832">
        <ele>503.4</ele>
        <time>2021-03-27T11:42:31Z</time>
      </trkpt>
      <trkpt lat="46.17435" lon="6.25832">
        <ele>503.4</ele>
        <time>2021-03-27T11:42:30Z</time>
      </trkpt>
      <trkpt lat="46.17435" lon="6.25832">
        <ele>503.4</ele>
        <time>2021-03-27T11:42:29Z</time>
      </trkpt>
      <trkpt lat="46.17435" lon="6.25832">
        <ele>503.4</ele>
        <time>2021-03-27T11:42:28Z</time>
      </trkpt>
      <trkpt lat="46.17435" lon="6.25832">
        <ele>503.2</ele>
        <time>2021-03-27T11:42:27Z</time>
      </trkpt>
      <trkpt lat="46.17435" lon="6.25832">
        <ele>503.2</ele>
        <time>2021-03-27T11:42:26Z</time>
      </trkpt>
      <trkpt lat="46.17435" lon="6.25832">
        <ele>503.4</ele>
        <time>2021-03-27T11:42:25Z</time>
      </trkpt>
      <trkpt lat="46.17435" lon="6.25832">
        <ele>503.4</ele>
        <time>2021-03-27T11:42:24Z</time>
      </trkpt>
      <trkpt lat="46.17435" lon="6.25832">
        <ele>503.4</ele>
        <time>2021-03-27T11:42:23Z</time>
      </trkpt>
      <trkpt lat="46.17435" lon="6.25832">
        <ele>503.4</ele>
        <time>2021-03-27T11:42:22Z</time>
      </trkpt>
      <trkpt lat="46.17435" lon="6.25832">
        <ele>503.2</ele>
        <time>2021-03-27T11:42:21Z</time>
      </trkpt>
      <trkpt lat="46.17435" lon="6.25832">
        <ele>503.4</ele>
        <time>2021-03-27T11:42:20Z</time>
      </trkpt>
      <trkpt lat="46.17435" lon="6.25832">
        <ele>503.4</ele>
        <time>2021-03-27T11:42:19Z</time>
      </trkpt>
      <trkpt lat="46.17435" lon="6.25832">
        <ele>503.4</ele>
        <time>2021-03-27T11:42:18Z</time>
      </trkpt>
      <trkpt lat="46.17435" lon="6.25832">
        <ele>503.4</ele>
        <time>2021-03-27T11:42:17Z</time>
      </trkpt>
      <trkpt lat="46.17435" lon="6.25832">
        <ele>503.4</ele>
        <time>2021-03-27T11:42:16Z</time>
      </trkpt>
      <trkpt lat="46.17435" lon="6.25832">
        <ele>503.4</ele>
        <time>2021-03-27T11:42:15Z</time>
      </trkpt>
      <trkpt lat="46.17435" lon="6.25832">
        <ele>503.4</ele>
        <time>2021-03-27T11:42:14Z</time>
      </trkpt>
      <trkpt lat="46.17435" lon="6.25832">
        <ele>503.4</ele>
        <time>2021-03-27T11:42:13Z</time>
      </trkpt>
      <trkpt lat="46.17435" lon="6.25832">
        <ele>503.4</ele>
        <time>2021-03-27T11:42:12Z</time>
      </trkpt>
      <trkpt lat="46.17435" lon="6.25832">
        <ele>503.2</ele>
        <time>2021-03-27T11:42:11Z</time>
      </trkpt>
      <trkpt lat="46.17435" lon="6.25832">
        <ele>503.2</ele>
        <time>2021-03-27T11:42:10Z</time>
      </trkpt>
      <trkpt lat="46.17435" lon="6.25832">
        <ele>503</ele>
        <time>2021-03-27T11:42:09Z</time>
      </trkpt>
      <trkpt lat="46.17435" lon="6.25832">
        <ele>503.2</ele>
        <time>2021-03-27T11:42:08Z</time>
      </trkpt>
      <trkpt lat="46.17435" lon="6.25832">
        <ele>503</ele>
        <time>2021-03-27T11:42:07Z</time>
      </trkpt>
      <trkpt lat="46.17435" lon="6.25832">
        <ele>503</ele>
        <time>2021-03-27T11:42:06Z</time>
      </trkpt>
      <trkpt lat="46.17435" lon="6.25832">
        <ele>503</ele>
        <time>2021-03-27T11:42:05Z</time>
      </trkpt>
      <trkpt lat="46.17435" lon="6.25832">
        <ele>503.2</ele>
        <time>2021-03-27T11:42:04Z</time>
      </trkpt>
      <trkpt lat="46.17435" lon="6.25832">
        <ele>503</ele>
        <time>2021-03-27T11:42:03Z</time>
      </trkpt>
      <trkpt lat="46.17435" lon="6.25832">
        <ele>502.8</ele>
        <time>2021-03-27T11:42:02Z</time>
      </trkpt>
      <trkpt lat="46.17435" lon="6.25832">
        <ele>502.8</ele>
        <time>2021-03-27T11:42:01Z</time>
      </trkpt>
      <trkpt lat="46.17435" lon="6.25832">
        <ele>502.8</ele>
        <time>2021-03-27T11:42:00Z</time>
      </trkpt>
      <trkpt lat="46.17435" lon="6.25831">
        <ele>502.8</ele>
        <time>2021-03-27T11:41:59Z</time>
      </trkpt>
      <trkpt lat="46.17435" lon="6.25831">
        <ele>502.8</ele>
        <time>2021-03-27T11:41:58Z</time>
      </trkpt>
      <trkpt lat="46.17434" lon="6.25832">
        <ele>502.6</ele>
        <time>2021-03-27T11:41:57Z</time>
      </trkpt>
      <trkpt lat="46.17434" lon="6.25832">
        <ele>502.6</ele>
        <time>2021-03-27T11:41:56Z</time>
      </trkpt>
      <trkpt lat="46.17434" lon="6.25832">
        <ele>502.4</ele>
        <time>2021-03-27T11:41:55Z</time>
      </trkpt>
      <trkpt lat="46.17434" lon="6.25832">
        <ele>502.4</ele>
        <time>2021-03-27T11:41:54Z</time>
      </trkpt>
      <trkpt lat="46.17434" lon="6.25833">
        <ele>502.4</ele>
        <time>2021-03-27T11:41:53Z</time>
      </trkpt>
      <trkpt lat="46.17433" lon="6.25835">
        <ele>502.2</ele>
        <time>2021-03-27T11:41:52Z</time>
      </trkpt>
      <trkpt lat="46.17434" lon="6.25839">
        <ele>502</ele>
        <time>2021-03-27T11:41:51Z</time>
      </trkpt>
      <trkpt lat="46.17435" lon="6.25843">
        <ele>501.8</ele>
        <time>2021-03-27T11:41:50Z</time>
      </trkpt>
      <trkpt lat="46.17436" lon="6.25847">
        <ele>501.6</ele>
        <time>2021-03-27T11:41:49Z</time>
      </trkpt>
      <trkpt lat="46.17436" lon="6.2585">
        <ele>501.6</ele>
        <time>2021-03-27T11:41:48Z</time>
      </trkpt>
      <trkpt lat="46.17437" lon="6.25853">
        <ele>501.4</ele>
        <time>2021-03-27T11:41:47Z</time>
      </trkpt>
      <trkpt lat="46.17437" lon="6.25856">
        <ele>501.4</ele>
        <time>2021-03-27T11:41:46Z</time>
      </trkpt>
      <trkpt lat="46.17435" lon="6.25858">
        <ele>501.4</ele>
        <time>2021-03-27T11:41:45Z</time>
      </trkpt>
      <trkpt lat="46.17433" lon="6.25859">
        <ele>501.4</ele>
        <time>2021-03-27T11:41:44Z</time>
      </trkpt>
      <trkpt lat="46.1743" lon="6.2586">
        <ele>501.2</ele>
        <time>2021-03-27T11:41:43Z</time>
      </trkpt>
      <trkpt lat="46.17427" lon="6.25859">
        <ele>501.2</ele>
        <time>2021-03-27T11:41:42Z</time>
      </trkpt>
      <trkpt lat="46.17423" lon="6.25857">
        <ele>501.2</ele>
        <time>2021-03-27T11:41:41Z</time>
      </trkpt>
      <trkpt lat="46.1742" lon="6.25854">
        <ele>501</ele>
        <time>2021-03-27T11:41:40Z</time>
      </trkpt>
      <trkpt lat="46.17416" lon="6.25851">
        <ele>500.8</ele>
        <time>2021-03-27T11:41:39Z</time>
      </trkpt>
      <trkpt lat="46.17413" lon="6.25847">
        <ele>500.8</ele>
        <time>2021-03-27T11:41:38Z</time>
      </trkpt>
      <trkpt lat="46.17411" lon="6.25841">
        <ele>500.8</ele>
        <time>2021-03-27T11:41:37Z</time>
      </trkpt>
      <trkpt lat="46.1741" lon="6.25835">
        <ele>500.8</ele>
        <time>2021-03-27T11:41:36Z</time>
      </trkpt>
      <trkpt lat="46.17411" lon="6.2583">
        <ele>500.8</ele>
        <time>2021-03-27T11:41:35Z</time>
      </trkpt>
      <trkpt lat="46.17412" lon="6.25824">
        <ele>500.6</ele>
        <time>2021-03-27T11:41:34Z</time>
      </trkpt>
      <trkpt lat="46.17412" lon="6.25819">
        <ele>500.6</ele>
        <time>2021-03-27T11:41:33Z</time>
      </trkpt>
      <trkpt lat="46.17412" lon="6.25814">
        <ele>500.6</ele>
        <time>2021-03-27T11:41:32Z</time>
      </trkpt>
      <trkpt lat="46.17411" lon="6.2581">
        <ele>500.6</ele>
        <time>2021-03-27T11:41:31Z</time>
      </trkpt>
      <trkpt lat="46.17409" lon="6.25808">
        <ele>500.6</ele>
        <time>2021-03-27T11:41:30Z</time>
      </trkpt>
      <trkpt lat="46.17407" lon="6.25806">
        <ele>500.4</ele>
        <time>2021-03-27T11:41:29Z</time>
      </trkpt>
      <trkpt lat="46.17405" lon="6.25807">
        <ele>500.6</ele>
        <time>2021-03-27T11:41:28Z</time>
      </trkpt>
      <trkpt lat="46.17402" lon="6.25808">
        <ele>500.4</ele>
        <time>2021-03-27T11:41:27Z</time>
      </trkpt>
      <trkpt lat="46.174" lon="6.25808">
        <ele>500.6</ele>
        <time>2021-03-27T11:41:26Z</time>
      </trkpt>
      <trkpt lat="46.17398" lon="6.25808">
        <ele>500.4</ele>
        <time>2021-03-27T11:41:25Z</time>
      </trkpt>
      <trkpt lat="46.17397" lon="6.25806">
        <ele>500.4</ele>
        <time>2021-03-27T11:41:24Z</time>
      </trkpt>
      <trkpt lat="46.17397" lon="6.25803">
        <ele>500.6</ele>
        <time>2021-03-27T11:41:23Z</time>
      </trkpt>
      <trkpt lat="46.17397" lon="6.25799">
        <ele>500.6</ele>
        <time>2021-03-27T11:41:22Z</time>
      </trkpt>
      <trkpt lat="46.17398" lon="6.25795">
        <ele>500.6</ele>
        <time>2021-03-27T11:41:21Z</time>
      </trkpt>
      <trkpt lat="46.17398" lon="6.25791">
        <ele>500.6</ele>
        <time>2021-03-27T11:41:20Z</time>
      </trkpt>
      <trkpt lat="46.17398" lon="6.25786">
        <ele>500.6</ele>
        <time>2021-03-27T11:41:19Z</time>
      </trkpt>
      <trkpt lat="46.17399" lon="6.25782">
        <ele>500.6</ele>
        <time>2021-03-27T11:41:18Z</time>
      </trkpt>
      <trkpt lat="46.17399" lon="6.25778">
        <ele>500.6</ele>
        <time>2021-03-27T11:41:17Z</time>
      </trkpt>
      <trkpt lat="46.174" lon="6.25773">
        <ele>500.8</ele>
        <time>2021-03-27T11:41:16Z</time>
      </trkpt>
      <trkpt lat="46.174" lon="6.25769">
        <ele>501</ele>
        <time>2021-03-27T11:41:15Z</time>
      </trkpt>
      <trkpt lat="46.17401" lon="6.25765">
        <ele>500.8</ele>
        <time>2021-03-27T11:41:14Z</time>
      </trkpt>
      <trkpt lat="46.17403" lon="6.25762">
        <ele>500.8</ele>
        <time>2021-03-27T11:41:13Z</time>
      </trkpt>
      <trkpt lat="46.17406" lon="6.2576">
        <ele>501</ele>
        <time>2021-03-27T11:41:12Z</time>
      </trkpt>
      <trkpt lat="46.17408" lon="6.25761">
        <ele>501</ele>
        <time>2021-03-27T11:41:11Z</time>
      </trkpt>
      <trkpt lat="46.1741" lon="6.25764">
        <ele>500.8</ele>
        <time>2021-03-27T11:41:10Z</time>
      </trkpt>
      <trkpt lat="46.17411" lon="6.25767">
        <ele>500.8</ele>
        <time>2021-03-27T11:41:09Z</time>
      </trkpt>
      <trkpt lat="46.17412" lon="6.25771">
        <ele>501</ele>
        <time>2021-03-27T11:41:08Z</time>
      </trkpt>
      <trkpt lat="46.17414" lon="6.25775">
        <ele>500.8</ele>
        <time>2021-03-27T11:41:07Z</time>
      </trkpt>
      <trkpt lat="46.17415" lon="6.25779">
        <ele>500.8</ele>
        <time>2021-03-27T11:41:06Z</time>
      </trkpt>
      <trkpt lat="46.17418" lon="6.25783">
        <ele>500.6</ele>
        <time>2021-03-27T11:41:05Z</time>
      </trkpt>
      <trkpt lat="46.17421" lon="6.25784">
        <ele>500.4</ele>
        <time>2021-03-27T11:41:04Z</time>
      </trkpt>
      <trkpt lat="46.17423" lon="6.25784">
        <ele>500.2</ele>
        <time>2021-03-27T11:41:03Z</time>
      </trkpt>
      <trkpt lat="46.17426" lon="6.25783">
        <ele>500</ele>
        <time>2021-03-27T11:41:02Z</time>
      </trkpt>
      <trkpt lat="46.17429" lon="6.2578">
        <ele>499.6</ele>
        <time>2021-03-27T11:41:01Z</time>
      </trkpt>
      <trkpt lat="46.17431" lon="6.25777">
        <ele>499.4</ele>
        <time>2021-03-27T11:41:00Z</time>
      </trkpt>
      <trkpt lat="46.17434" lon="6.25773">
        <ele>499.2</ele>
        <time>2021-03-27T11:40:59Z</time>
      </trkpt>
      <trkpt lat="46.17436" lon="6.25769">
        <ele>499</ele>
        <time>2021-03-27T11:40:58Z</time>
      </trkpt>
      <trkpt lat="46.17439" lon="6.25765">
        <ele>498.8</ele>
        <time>2021-03-27T11:40:57Z</time>
      </trkpt>
      <trkpt lat="46.17442" lon="6.25761">
        <ele>498.8</ele>
        <time>2021-03-27T11:40:56Z</time>
      </trkpt>
      <trkpt lat="46.17445" lon="6.25758">
        <ele>498.4</ele>
        <time>2021-03-27T11:40:55Z</time>
      </trkpt>
      <trkpt lat="46.17448" lon="6.25755">
        <ele>498.2</ele>
        <time>2021-03-27T11:40:54Z</time>
      </trkpt>
      <trkpt lat="46.17452" lon="6.25752">
        <ele>498</ele>
        <time>2021-03-27T11:40:53Z</time>
      </trkpt>
      <trkpt lat="46.17455" lon="6.2575">
        <ele>497.6</ele>
        <time>2021-03-27T11:40:52Z</time>
      </trkpt>
      <trkpt lat="46.17459" lon="6.25747">
        <ele>497.4</ele>
        <time>2021-03-27T11:40:51Z</time>
      </trkpt>
      <trkpt lat="46.17462" lon="6.25744">
        <ele>497</ele>
        <time>2021-03-27T11:40:50Z</time>
      </trkpt>
      <trkpt lat="46.17465" lon="6.25741">
        <ele>496.6</ele>
        <time>2021-03-27T11:40:49Z</time>
      </trkpt>
      <trkpt lat="46.17469" lon="6.25738">
        <ele>496.2</ele>
        <time>2021-03-27T11:40:48Z</time>
      </trkpt>
      <trkpt lat="46.17472" lon="6.25736">
        <ele>495.8</ele>
        <time>2021-03-27T11:40:47Z</time>
      </trkpt>
      <trkpt lat="46.17476" lon="6.25733">
        <ele>495.4</ele>
        <time>2021-03-27T11:40:46Z</time>
      </trkpt>
      <trkpt lat="46.17479" lon="6.2573">
        <ele>495</ele>
        <time>2021-03-27T11:40:45Z</time>
      </trkpt>
      <trkpt lat="46.17482" lon="6.25727">
        <ele>494.8</ele>
        <time>2021-03-27T11:40:44Z</time>
      </trkpt>
      <trkpt lat="46.17485" lon="6.25725">
        <ele>494.4</ele>
        <time>2021-03-27T11:40:43Z</time>
      </trkpt>
      <trkpt lat="46.17489" lon="6.25722">
        <ele>494</ele>
        <time>2021-03-27T11:40:42Z</time>
      </trkpt>
      <trkpt lat="46.17492" lon="6.25719">
        <ele>493.6</ele>
        <time>2021-03-27T11:40:41Z</time>
      </trkpt>
      <trkpt lat="46.17495" lon="6.25716">
        <ele>493.4</ele>
        <time>2021-03-27T11:40:40Z</time>
      </trkpt>
      <trkpt lat="46.17498" lon="6.25713">
        <ele>493.4</ele>
        <time>2021-03-27T11:40:39Z</time>
      </trkpt>
      <trkpt lat="46.17502" lon="6.2571">
        <ele>492.8</ele>
        <time>2021-03-27T11:40:38Z</time>
      </trkpt>
      <trkpt lat="46.17505" lon="6.25707">
        <ele>492.6</ele>
        <time>2021-03-27T11:40:37Z</time>
      </trkpt>
      <trkpt lat="46.17508" lon="6.25703">
        <ele>492.2</ele>
        <time>2021-03-27T11:40:36Z</time>
      </trkpt>
      <trkpt lat="46.17512" lon="6.257">
        <ele>491.8</ele>
        <time>2021-03-27T11:40:35Z</time>
      </trkpt>
      <trkpt lat="46.17515" lon="6.25697">
        <ele>491.8</ele>
        <time>2021-03-27T11:40:34Z</time>
      </trkpt>
      <trkpt lat="46.17519" lon="6.25694">
        <ele>491.6</ele>
        <time>2021-03-27T11:40:33Z</time>
      </trkpt>
      <trkpt lat="46.17522" lon="6.25691">
        <ele>491.4</ele>
        <time>2021-03-27T11:40:32Z</time>
      </trkpt>
      <trkpt lat="46.17526" lon="6.25688">
        <ele>491.2</ele>
        <time>2021-03-27T11:40:31Z</time>
      </trkpt>
      <trkpt lat="46.1753" lon="6.25684">
        <ele>491.2</ele>
        <time>2021-03-27T11:40:30Z</time>
      </trkpt>
      <trkpt lat="46.17534" lon="6.25681">
        <ele>491</ele>
        <time>2021-03-27T11:40:29Z</time>
      </trkpt>
      <trkpt lat="46.17539" lon="6.25677">
        <ele>491</ele>
        <time>2021-03-27T11:40:28Z</time>
      </trkpt>
      <trkpt lat="46.17543" lon="6.25673">
        <ele>490.8</ele>
        <time>2021-03-27T11:40:27Z</time>
      </trkpt>
      <trkpt lat="46.17547" lon="6.25669">
        <ele>490.6</ele>
        <time>2021-03-27T11:40:26Z</time>
      </trkpt>
      <trkpt lat="46.17552" lon="6.25666">
        <ele>490.4</ele>
        <time>2021-03-27T11:40:25Z</time>
      </trkpt>
      <trkpt lat="46.17556" lon="6.25662">
        <ele>490.2</ele>
        <time>2021-03-27T11:40:24Z</time>
      </trkpt>
      <trkpt lat="46.17561" lon="6.25659">
        <ele>490.2</ele>
        <time>2021-03-27T11:40:23Z</time>
      </trkpt>
      <trkpt lat="46.17566" lon="6.25657">
        <ele>490</ele>
        <time>2021-03-27T11:40:22Z</time>
      </trkpt>
      <trkpt lat="46.17571" lon="6.25654">
        <ele>490</ele>
        <time>2021-03-27T11:40:21Z</time>
      </trkpt>
      <trkpt lat="46.17576" lon="6.25651">
        <ele>489.8</ele>
        <time>2021-03-27T11:40:20Z</time>
      </trkpt>
      <trkpt lat="46.17581" lon="6.25648">
        <ele>489.4</ele>
        <time>2021-03-27T11:40:19Z</time>
      </trkpt>
      <trkpt lat="46.17587" lon="6.25645">
        <ele>489.4</ele>
        <time>2021-03-27T11:40:18Z</time>
      </trkpt>
      <trkpt lat="46.17592" lon="6.25642">
        <ele>489.4</ele>
        <time>2021-03-27T11:40:17Z</time>
      </trkpt>
      <trkpt lat="46.17597" lon="6.25639">
        <ele>489</ele>
        <time>2021-03-27T11:40:16Z</time>
      </trkpt>
      <trkpt lat="46.17602" lon="6.25637">
        <ele>488.8</ele>
        <time>2021-03-27T11:40:15Z</time>
      </trkpt>
      <trkpt lat="46.17608" lon="6.25634">
        <ele>488.8</ele>
        <time>2021-03-27T11:40:14Z</time>
      </trkpt>
      <trkpt lat="46.17613" lon="6.25631">
        <ele>488.6</ele>
        <time>2021-03-27T11:40:13Z</time>
      </trkpt>
      <trkpt lat="46.17618" lon="6.25628">
        <ele>488.6</ele>
        <time>2021-03-27T11:40:12Z</time>
      </trkpt>
      <trkpt lat="46.17624" lon="6.25625">
        <ele>488.2</ele>
        <time>2021-03-27T11:40:11Z</time>
      </trkpt>
      <trkpt lat="46.17629" lon="6.25622">
        <ele>488.2</ele>
        <time>2021-03-27T11:40:10Z</time>
      </trkpt>
      <trkpt lat="46.17635" lon="6.25618">
        <ele>488</ele>
        <time>2021-03-27T11:40:09Z</time>
      </trkpt>
      <trkpt lat="46.17641" lon="6.25615">
        <ele>488</ele>
        <time>2021-03-27T11:40:08Z</time>
      </trkpt>
      <trkpt lat="46.17646" lon="6.25612">
        <ele>488</ele>
        <time>2021-03-27T11:40:07Z</time>
      </trkpt>
      <trkpt lat="46.17652" lon="6.25609">
        <ele>488</ele>
        <time>2021-03-27T11:40:06Z</time>
      </trkpt>
      <trkpt lat="46.17658" lon="6.25606">
        <ele>488</ele>
        <time>2021-03-27T11:40:05Z</time>
      </trkpt>
      <trkpt lat="46.17664" lon="6.25603">
        <ele>488</ele>
        <time>2021-03-27T11:40:04Z</time>
      </trkpt>
      <trkpt lat="46.1767" lon="6.256">
        <ele>488</ele>
        <time>2021-03-27T11:40:03Z</time>
      </trkpt>
      <trkpt lat="46.17676" lon="6.25596">
        <ele>487.8</ele>
        <time>2021-03-27T11:40:02Z</time>
      </trkpt>
      <trkpt lat="46.17682" lon="6.25593">
        <ele>487.8</ele>
        <time>2021-03-27T11:40:01Z</time>
      </trkpt>
      <trkpt lat="46.17688" lon="6.25589">
        <ele>488</ele>
        <time>2021-03-27T11:40:00Z</time>
      </trkpt>
      <trkpt lat="46.17694" lon="6.25586">
        <ele>488</ele>
        <time>2021-03-27T11:39:59Z</time>
      </trkpt>
      <trkpt lat="46.17701" lon="6.25582">
        <ele>488</ele>
        <time>2021-03-27T11:39:58Z</time>
      </trkpt>
      <trkpt lat="46.17708" lon="6.25578">
        <ele>488</ele>
        <time>2021-03-27T11:39:57Z</time>
      </trkpt>
      <trkpt lat="46.17715" lon="6.25575">
        <ele>488</ele>
        <time>2021-03-27T11:39:56Z</time>
      </trkpt>
      <trkpt lat="46.17722" lon="6.25571">
        <ele>488</ele>
        <time>2021-03-27T11:39:55Z</time>
      </trkpt>
      <trkpt lat="46.1773" lon="6.25567">
        <ele>488.2</ele>
        <time>2021-03-27T11:39:54Z</time>
      </trkpt>
      <trkpt lat="46.17738" lon="6.25563">
        <ele>488.2</ele>
        <time>2021-03-27T11:39:53Z</time>
      </trkpt>
      <trkpt lat="46.17745" lon="6.2556">
        <ele>488.4</ele>
        <time>2021-03-27T11:39:52Z</time>
      </trkpt>
      <trkpt lat="46.17754" lon="6.25557">
        <ele>488.4</ele>
        <time>2021-03-27T11:39:51Z</time>
      </trkpt>
      <trkpt lat="46.17762" lon="6.25554">
        <ele>488.6</ele>
        <time>2021-03-27T11:39:50Z</time>
      </trkpt>
      <trkpt lat="46.17771" lon="6.25552">
        <ele>488.6</ele>
        <time>2021-03-27T11:39:49Z</time>
      </trkpt>
      <trkpt lat="46.17781" lon="6.25551">
        <ele>489.2</ele>
        <time>2021-03-27T11:39:48Z</time>
      </trkpt>
      <trkpt lat="46.1779" lon="6.2555">
        <ele>489.4</ele>
        <time>2021-03-27T11:39:47Z</time>
      </trkpt>
      <trkpt lat="46.178" lon="6.25549">
        <ele>490.4</ele>
        <time>2021-03-27T11:39:46Z</time>
      </trkpt>
      <trkpt lat="46.17809" lon="6.25548">
        <ele>490.8</ele>
        <time>2021-03-27T11:39:45Z</time>
      </trkpt>
      <trkpt lat="46.17818" lon="6.25548">
        <ele>491.2</ele>
        <time>2021-03-27T11:39:44Z</time>
      </trkpt>
      <trkpt lat="46.17827" lon="6.25548">
        <ele>491.6</ele>
        <time>2021-03-27T11:39:43Z</time>
      </trkpt>
      <trkpt lat="46.17837" lon="6.25549">
        <ele>492.6</ele>
        <time>2021-03-27T11:39:42Z</time>
      </trkpt>
      <trkpt lat="46.17847" lon="6.25551">
        <ele>493</ele>
        <time>2021-03-27T11:39:41Z</time>
      </trkpt>
      <trkpt lat="46.17856" lon="6.25553">
        <ele>493.8</ele>
        <time>2021-03-27T11:39:40Z</time>
      </trkpt>
      <trkpt lat="46.17865" lon="6.25554">
        <ele>494</ele>
        <time>2021-03-27T11:39:39Z</time>
      </trkpt>
      <trkpt lat="46.17875" lon="6.25555">
        <ele>494.2</ele>
        <time>2021-03-27T11:39:38Z</time>
      </trkpt>
      <trkpt lat="46.17884" lon="6.25555">
        <ele>494.2</ele>
        <time>2021-03-27T11:39:37Z</time>
      </trkpt>
      <trkpt lat="46.17892" lon="6.25555">
        <ele>494</ele>
        <time>2021-03-27T11:39:36Z</time>
      </trkpt>
      <trkpt lat="46.17901" lon="6.25554">
        <ele>494.2</ele>
        <time>2021-03-27T11:39:35Z</time>
      </trkpt>
      <trkpt lat="46.17909" lon="6.25553">
        <ele>494.2</ele>
        <time>2021-03-27T11:39:34Z</time>
      </trkpt>
      <trkpt lat="46.17917" lon="6.25551">
        <ele>494.2</ele>
        <time>2021-03-27T11:39:33Z</time>
      </trkpt>
      <trkpt lat="46.17925" lon="6.25549">
        <ele>494.2</ele>
        <time>2021-03-27T11:39:32Z</time>
      </trkpt>
      <trkpt lat="46.17933" lon="6.25548">
        <ele>494.2</ele>
        <time>2021-03-27T11:39:31Z</time>
      </trkpt>
      <trkpt lat="46.17939" lon="6.25546">
        <ele>494</ele>
        <time>2021-03-27T11:39:30Z</time>
      </trkpt>
      <trkpt lat="46.17946" lon="6.25544">
        <ele>494</ele>
        <time>2021-03-27T11:39:29Z</time>
      </trkpt>
      <trkpt lat="46.17953" lon="6.25542">
        <ele>493.8</ele>
        <time>2021-03-27T11:39:28Z</time>
      </trkpt>
      <trkpt lat="46.1796" lon="6.2554">
        <ele>493.6</ele>
        <time>2021-03-27T11:39:27Z</time>
      </trkpt>
      <trkpt lat="46.17966" lon="6.25537">
        <ele>493.4</ele>
        <time>2021-03-27T11:39:26Z</time>
      </trkpt>
      <trkpt lat="46.17972" lon="6.25535">
        <ele>493.2</ele>
        <time>2021-03-27T11:39:25Z</time>
      </trkpt>
      <trkpt lat="46.17978" lon="6.25532">
        <ele>492.8</ele>
        <time>2021-03-27T11:39:24Z</time>
      </trkpt>
      <trkpt lat="46.17983" lon="6.25529">
        <ele>492.8</ele>
        <time>2021-03-27T11:39:23Z</time>
      </trkpt>
      <trkpt lat="46.17989" lon="6.25526">
        <ele>492.6</ele>
        <time>2021-03-27T11:39:22Z</time>
      </trkpt>
      <trkpt lat="46.17994" lon="6.25523">
        <ele>492.4</ele>
        <time>2021-03-27T11:39:21Z</time>
      </trkpt>
      <trkpt lat="46.17999" lon="6.2552">
        <ele>492.2</ele>
        <time>2021-03-27T11:39:20Z</time>
      </trkpt>
      <trkpt lat="46.18004" lon="6.25516">
        <ele>492</ele>
        <time>2021-03-27T11:39:19Z</time>
      </trkpt>
      <trkpt lat="46.18008" lon="6.25513">
        <ele>491.8</ele>
        <time>2021-03-27T11:39:18Z</time>
      </trkpt>
      <trkpt lat="46.18012" lon="6.25509">
        <ele>491.8</ele>
        <time>2021-03-27T11:39:17Z</time>
      </trkpt>
      <trkpt lat="46.18016" lon="6.25505">
        <ele>491.4</ele>
        <time>2021-03-27T11:39:16Z</time>
      </trkpt>
      <trkpt lat="46.1802" lon="6.25501">
        <ele>491.2</ele>
        <time>2021-03-27T11:39:15Z</time>
      </trkpt>
      <trkpt lat="46.18024" lon="6.25497">
        <ele>490.8</ele>
        <time>2021-03-27T11:39:14Z</time>
      </trkpt>
      <trkpt lat="46.18027" lon="6.25492">
        <ele>490.4</ele>
        <time>2021-03-27T11:39:13Z</time>
      </trkpt>
      <trkpt lat="46.18031" lon="6.25488">
        <ele>490</ele>
        <time>2021-03-27T11:39:12Z</time>
      </trkpt>
      <trkpt lat="46.18034" lon="6.25484">
        <ele>489.6</ele>
        <time>2021-03-27T11:39:11Z</time>
      </trkpt>
      <trkpt lat="46.18038" lon="6.25479">
        <ele>489.2</ele>
        <time>2021-03-27T11:39:10Z</time>
      </trkpt>
      <trkpt lat="46.18041" lon="6.25474">
        <ele>488.8</ele>
        <time>2021-03-27T11:39:09Z</time>
      </trkpt>
      <trkpt lat="46.18044" lon="6.25469">
        <ele>488.4</ele>
        <time>2021-03-27T11:39:08Z</time>
      </trkpt>
      <trkpt lat="46.18047" lon="6.25464">
        <ele>488</ele>
        <time>2021-03-27T11:39:07Z</time>
      </trkpt>
      <trkpt lat="46.18051" lon="6.25459">
        <ele>487.4</ele>
        <time>2021-03-27T11:39:06Z</time>
      </trkpt>
      <trkpt lat="46.18055" lon="6.25454">
        <ele>487.4</ele>
        <time>2021-03-27T11:39:05Z</time>
      </trkpt>
      <trkpt lat="46.18058" lon="6.25449">
        <ele>487.4</ele>
        <time>2021-03-27T11:39:04Z</time>
      </trkpt>
      <trkpt lat="46.18061" lon="6.25444">
        <ele>487.2</ele>
        <time>2021-03-27T11:39:03Z</time>
      </trkpt>
      <trkpt lat="46.18064" lon="6.2544">
        <ele>487.2</ele>
        <time>2021-03-27T11:39:02Z</time>
      </trkpt>
      <trkpt lat="46.18068" lon="6.25435">
        <ele>487</ele>
        <time>2021-03-27T11:39:01Z</time>
      </trkpt>
      <trkpt lat="46.18072" lon="6.2543">
        <ele>487</ele>
        <time>2021-03-27T11:39:00Z</time>
      </trkpt>
      <trkpt lat="46.18076" lon="6.25426">
        <ele>486.6</ele>
        <time>2021-03-27T11:38:59Z</time>
      </trkpt>
      <trkpt lat="46.1808" lon="6.25421">
        <ele>486.4</ele>
        <time>2021-03-27T11:38:58Z</time>
      </trkpt>
      <trkpt lat="46.18085" lon="6.25417">
        <ele>486.2</ele>
        <time>2021-03-27T11:38:57Z</time>
      </trkpt>
      <trkpt lat="46.1809" lon="6.25413">
        <ele>486</ele>
        <time>2021-03-27T11:38:56Z</time>
      </trkpt>
      <trkpt lat="46.18094" lon="6.25409">
        <ele>485.8</ele>
        <time>2021-03-27T11:38:55Z</time>
      </trkpt>
      <trkpt lat="46.18099" lon="6.25405">
        <ele>486</ele>
        <time>2021-03-27T11:38:54Z</time>
      </trkpt>
      <trkpt lat="46.18104" lon="6.25401">
        <ele>485.8</ele>
        <time>2021-03-27T11:38:53Z</time>
      </trkpt>
      <trkpt lat="46.18109" lon="6.25397">
        <ele>485.6</ele>
        <time>2021-03-27T11:38:52Z</time>
      </trkpt>
      <trkpt lat="46.18114" lon="6.25394">
        <ele>485.6</ele>
        <time>2021-03-27T11:38:51Z</time>
      </trkpt>
      <trkpt lat="46.1812" lon="6.25391">
        <ele>485.4</ele>
        <time>2021-03-27T11:38:50Z</time>
      </trkpt>
      <trkpt lat="46.18125" lon="6.25387">
        <ele>485.2</ele>
        <time>2021-03-27T11:38:49Z</time>
      </trkpt>
      <trkpt lat="46.1813" lon="6.25384">
        <ele>485.2</ele>
        <time>2021-03-27T11:38:48Z</time>
      </trkpt>
      <trkpt lat="46.18135" lon="6.25381">
        <ele>485.2</ele>
        <time>2021-03-27T11:38:47Z</time>
      </trkpt>
      <trkpt lat="46.1814" lon="6.25379">
        <ele>485</ele>
        <time>2021-03-27T11:38:46Z</time>
      </trkpt>
      <trkpt lat="46.18145" lon="6.25376">
        <ele>485</ele>
        <time>2021-03-27T11:38:45Z</time>
      </trkpt>
      <trkpt lat="46.1815" lon="6.25373">
        <ele>484.6</ele>
        <time>2021-03-27T11:38:44Z</time>
      </trkpt>
      <trkpt lat="46.18155" lon="6.2537">
        <ele>484.6</ele>
        <time>2021-03-27T11:38:43Z</time>
      </trkpt>
      <trkpt lat="46.1816" lon="6.25367">
        <ele>484.4</ele>
        <time>2021-03-27T11:38:42Z</time>
      </trkpt>
      <trkpt lat="46.18165" lon="6.25364">
        <ele>484.6</ele>
        <time>2021-03-27T11:38:41Z</time>
      </trkpt>
      <trkpt lat="46.1817" lon="6.25361">
        <ele>484.4</ele>
        <time>2021-03-27T11:38:40Z</time>
      </trkpt>
      <trkpt lat="46.18175" lon="6.25358">
        <ele>484.2</ele>
        <time>2021-03-27T11:38:39Z</time>
      </trkpt>
      <trkpt lat="46.1818" lon="6.25355">
        <ele>484.4</ele>
        <time>2021-03-27T11:38:38Z</time>
      </trkpt>
      <trkpt lat="46.18184" lon="6.25352">
        <ele>484.2</ele>
        <time>2021-03-27T11:38:37Z</time>
      </trkpt>
      <trkpt lat="46.18189" lon="6.25349">
        <ele>484.2</ele>
        <time>2021-03-27T11:38:36Z</time>
      </trkpt>
      <trkpt lat="46.18194" lon="6.25346">
        <ele>484.2</ele>
        <time>2021-03-27T11:38:35Z</time>
      </trkpt>
      <trkpt lat="46.18199" lon="6.25343">
        <ele>484</ele>
        <time>2021-03-27T11:38:34Z</time>
      </trkpt>
      <trkpt lat="46.18204" lon="6.2534">
        <ele>484</ele>
        <time>2021-03-27T11:38:33Z</time>
      </trkpt>
      <trkpt lat="46.18209" lon="6.25337">
        <ele>483.8</ele>
        <time>2021-03-27T11:38:32Z</time>
      </trkpt>
      <trkpt lat="46.18213" lon="6.25334">
        <ele>483.8</ele>
        <time>2021-03-27T11:38:31Z</time>
      </trkpt>
      <trkpt lat="46.18218" lon="6.2533">
        <ele>483.6</ele>
        <time>2021-03-27T11:38:30Z</time>
      </trkpt>
      <trkpt lat="46.18223" lon="6.25327">
        <ele>483.6</ele>
        <time>2021-03-27T11:38:29Z</time>
      </trkpt>
      <trkpt lat="46.18228" lon="6.25324">
        <ele>483.6</ele>
        <time>2021-03-27T11:38:28Z</time>
      </trkpt>
      <trkpt lat="46.18233" lon="6.25322">
        <ele>483.4</ele>
        <time>2021-03-27T11:38:27Z</time>
      </trkpt>
      <trkpt lat="46.18238" lon="6.25319">
        <ele>483</ele>
        <time>2021-03-27T11:38:26Z</time>
      </trkpt>
      <trkpt lat="46.18243" lon="6.25316">
        <ele>483</ele>
        <time>2021-03-27T11:38:25Z</time>
      </trkpt>
      <trkpt lat="46.18248" lon="6.25314">
        <ele>482.6</ele>
        <time>2021-03-27T11:38:24Z</time>
      </trkpt>
      <trkpt lat="46.18252" lon="6.25311">
        <ele>482.4</ele>
        <time>2021-03-27T11:38:23Z</time>
      </trkpt>
      <trkpt lat="46.18256" lon="6.25308">
        <ele>482</ele>
        <time>2021-03-27T11:38:22Z</time>
      </trkpt>
      <trkpt lat="46.18261" lon="6.25305">
        <ele>481.8</ele>
        <time>2021-03-27T11:38:21Z</time>
      </trkpt>
      <trkpt lat="46.18265" lon="6.25301">
        <ele>481.6</ele>
        <time>2021-03-27T11:38:20Z</time>
      </trkpt>
      <trkpt lat="46.18268" lon="6.25298">
        <ele>481.4</ele>
        <time>2021-03-27T11:38:19Z</time>
      </trkpt>
      <trkpt lat="46.18273" lon="6.25295">
        <ele>481.2</ele>
        <time>2021-03-27T11:38:18Z</time>
      </trkpt>
      <trkpt lat="46.18277" lon="6.25292">
        <ele>481</ele>
        <time>2021-03-27T11:38:17Z</time>
      </trkpt>
      <trkpt lat="46.18281" lon="6.2529">
        <ele>480.6</ele>
        <time>2021-03-27T11:38:16Z</time>
      </trkpt>
      <trkpt lat="46.18285" lon="6.25287">
        <ele>480</ele>
        <time>2021-03-27T11:38:15Z</time>
      </trkpt>
      <trkpt lat="46.1829" lon="6.25284">
        <ele>480</ele>
        <time>2021-03-27T11:38:14Z</time>
      </trkpt>
      <trkpt lat="46.18294" lon="6.25281">
        <ele>480</ele>
        <time>2021-03-27T11:38:13Z</time>
      </trkpt>
      <trkpt lat="46.18299" lon="6.25278">
        <ele>479.8</ele>
        <time>2021-03-27T11:38:12Z</time>
      </trkpt>
      <trkpt lat="46.18303" lon="6.25275">
        <ele>479.6</ele>
        <time>2021-03-27T11:38:11Z</time>
      </trkpt>
      <trkpt lat="46.18308" lon="6.25273">
        <ele>479.2</ele>
        <time>2021-03-27T11:38:10Z</time>
      </trkpt>
      <trkpt lat="46.18312" lon="6.2527">
        <ele>479.2</ele>
        <time>2021-03-27T11:38:09Z</time>
      </trkpt>
      <trkpt lat="46.18316" lon="6.25267">
        <ele>479</ele>
        <time>2021-03-27T11:38:08Z</time>
      </trkpt>
      <trkpt lat="46.18319" lon="6.25265">
        <ele>479</ele>
        <time>2021-03-27T11:38:07Z</time>
      </trkpt>
      <trkpt lat="46.18323" lon="6.25262">
        <ele>478.6</ele>
        <time>2021-03-27T11:38:06Z</time>
      </trkpt>
      <trkpt lat="46.18327" lon="6.25259">
        <ele>478.4</ele>
        <time>2021-03-27T11:38:05Z</time>
      </trkpt>
      <trkpt lat="46.18331" lon="6.25257">
        <ele>478</ele>
        <time>2021-03-27T11:38:04Z</time>
      </trkpt>
      <trkpt lat="46.18335" lon="6.25254">
        <ele>477.8</ele>
        <time>2021-03-27T11:38:03Z</time>
      </trkpt>
      <trkpt lat="46.18339" lon="6.25251">
        <ele>477.6</ele>
        <time>2021-03-27T11:38:02Z</time>
      </trkpt>
      <trkpt lat="46.18344" lon="6.25248">
        <ele>477.4</ele>
        <time>2021-03-27T11:38:01Z</time>
      </trkpt>
      <trkpt lat="46.18348" lon="6.25245">
        <ele>477</ele>
        <time>2021-03-27T11:38:00Z</time>
      </trkpt>
      <trkpt lat="46.18352" lon="6.25242">
        <ele>476.8</ele>
        <time>2021-03-27T11:37:59Z</time>
      </trkpt>
      <trkpt lat="46.18357" lon="6.25239">
        <ele>476.8</ele>
        <time>2021-03-27T11:37:58Z</time>
      </trkpt>
      <trkpt lat="46.18361" lon="6.25236">
        <ele>476.4</ele>
        <time>2021-03-27T11:37:57Z</time>
      </trkpt>
      <trkpt lat="46.18365" lon="6.25233">
        <ele>476.4</ele>
        <time>2021-03-27T11:37:56Z</time>
      </trkpt>
      <trkpt lat="46.1837" lon="6.25229">
        <ele>476.2</ele>
        <time>2021-03-27T11:37:55Z</time>
      </trkpt>
      <trkpt lat="46.18375" lon="6.25225">
        <ele>476.2</ele>
        <time>2021-03-27T11:37:54Z</time>
      </trkpt>
      <trkpt lat="46.1838" lon="6.25222">
        <ele>476</ele>
        <time>2021-03-27T11:37:53Z</time>
      </trkpt>
      <trkpt lat="46.18384" lon="6.25219">
        <ele>476</ele>
        <time>2021-03-27T11:37:52Z</time>
      </trkpt>
      <trkpt lat="46.18389" lon="6.25216">
        <ele>475.8</ele>
        <time>2021-03-27T11:37:51Z</time>
      </trkpt>
      <trkpt lat="46.18395" lon="6.25212">
        <ele>475.6</ele>
        <time>2021-03-27T11:37:50Z</time>
      </trkpt>
      <trkpt lat="46.184" lon="6.25209">
        <ele>475.4</ele>
        <time>2021-03-27T11:37:49Z</time>
      </trkpt>
      <trkpt lat="46.18405" lon="6.25206">
        <ele>475.6</ele>
        <time>2021-03-27T11:37:48Z</time>
      </trkpt>
      <trkpt lat="46.1841" lon="6.25203">
        <ele>475.2</ele>
        <time>2021-03-27T11:37:47Z</time>
      </trkpt>
      <trkpt lat="46.18415" lon="6.252">
        <ele>475</ele>
        <time>2021-03-27T11:37:46Z</time>
      </trkpt>
      <trkpt lat="46.18421" lon="6.25198">
        <ele>475</ele>
        <time>2021-03-27T11:37:45Z</time>
      </trkpt>
      <trkpt lat="46.18426" lon="6.25196">
        <ele>475</ele>
        <time>2021-03-27T11:37:44Z</time>
      </trkpt>
      <trkpt lat="46.18431" lon="6.25194">
        <ele>474.8</ele>
        <time>2021-03-27T11:37:43Z</time>
      </trkpt>
      <trkpt lat="46.18437" lon="6.25192">
        <ele>474.6</ele>
        <time>2021-03-27T11:37:42Z</time>
      </trkpt>
      <trkpt lat="46.18442" lon="6.2519">
        <ele>474.4</ele>
        <time>2021-03-27T11:37:41Z</time>
      </trkpt>
      <trkpt lat="46.18447" lon="6.25188">
        <ele>474</ele>
        <time>2021-03-27T11:37:40Z</time>
      </trkpt>
      <trkpt lat="46.18452" lon="6.25186">
        <ele>473.8</ele>
        <time>2021-03-27T11:37:39Z</time>
      </trkpt>
      <trkpt lat="46.18457" lon="6.25184">
        <ele>473.8</ele>
        <time>2021-03-27T11:37:38Z</time>
      </trkpt>
      <trkpt lat="46.18462" lon="6.25182">
        <ele>473.8</ele>
        <time>2021-03-27T11:37:37Z</time>
      </trkpt>
      <trkpt lat="46.18467" lon="6.25181">
        <ele>473.8</ele>
        <time>2021-03-27T11:37:36Z</time>
      </trkpt>
      <trkpt lat="46.18472" lon="6.25179">
        <ele>473.8</ele>
        <time>2021-03-27T11:37:35Z</time>
      </trkpt>
      <trkpt lat="46.18477" lon="6.25178">
        <ele>473.8</ele>
        <time>2021-03-27T11:37:34Z</time>
      </trkpt>
      <trkpt lat="46.18482" lon="6.25177">
        <ele>473.8</ele>
        <time>2021-03-27T11:37:33Z</time>
      </trkpt>
      <trkpt lat="46.18487" lon="6.25176">
        <ele>473.6</ele>
        <time>2021-03-27T11:37:32Z</time>
      </trkpt>
      <trkpt lat="46.18492" lon="6.25174">
        <ele>473.6</ele>
        <time>2021-03-27T11:37:31Z</time>
      </trkpt>
      <trkpt lat="46.18497" lon="6.25173">
        <ele>473.4</ele>
        <time>2021-03-27T11:37:30Z</time>
      </trkpt>
      <trkpt lat="46.18502" lon="6.25172">
        <ele>473.6</ele>
        <time>2021-03-27T11:37:29Z</time>
      </trkpt>
      <trkpt lat="46.18507" lon="6.2517">
        <ele>473.4</ele>
        <time>2021-03-27T11:37:28Z</time>
      </trkpt>
      <trkpt lat="46.18513" lon="6.25169">
        <ele>473.4</ele>
        <time>2021-03-27T11:37:27Z</time>
      </trkpt>
      <trkpt lat="46.18518" lon="6.25168">
        <ele>473.4</ele>
        <time>2021-03-27T11:37:26Z</time>
      </trkpt>
      <trkpt lat="46.18523" lon="6.25166">
        <ele>473.4</ele>
        <time>2021-03-27T11:37:25Z</time>
      </trkpt>
      <trkpt lat="46.18528" lon="6.25165">
        <ele>473.4</ele>
        <time>2021-03-27T11:37:24Z</time>
      </trkpt>
      <trkpt lat="46.18534" lon="6.25164">
        <ele>473.2</ele>
        <time>2021-03-27T11:37:23Z</time>
      </trkpt>
      <trkpt lat="46.18539" lon="6.25162">
        <ele>473.2</ele>
        <time>2021-03-27T11:37:22Z</time>
      </trkpt>
      <trkpt lat="46.18544" lon="6.25161">
        <ele>473</ele>
        <time>2021-03-27T11:37:21Z</time>
      </trkpt>
      <trkpt lat="46.18549" lon="6.2516">
        <ele>473</ele>
        <time>2021-03-27T11:37:20Z</time>
      </trkpt>
      <trkpt lat="46.18554" lon="6.25158">
        <ele>472.8</ele>
        <time>2021-03-27T11:37:19Z</time>
      </trkpt>
      <trkpt lat="46.18559" lon="6.25156">
        <ele>472.4</ele>
        <time>2021-03-27T11:37:18Z</time>
      </trkpt>
      <trkpt lat="46.18564" lon="6.25154">
        <ele>472.2</ele>
        <time>2021-03-27T11:37:17Z</time>
      </trkpt>
      <trkpt lat="46.18568" lon="6.25152">
        <ele>472</ele>
        <time>2021-03-27T11:37:16Z</time>
      </trkpt>
      <trkpt lat="46.18571" lon="6.2515">
        <ele>471.6</ele>
        <time>2021-03-27T11:37:15Z</time>
      </trkpt>
      <trkpt lat="46.18574" lon="6.25148">
        <ele>471.6</ele>
        <time>2021-03-27T11:37:14Z</time>
      </trkpt>
      <trkpt lat="46.18577" lon="6.25148">
        <ele>471.4</ele>
        <time>2021-03-27T11:37:13Z</time>
      </trkpt>
      <trkpt lat="46.18579" lon="6.25148">
        <ele>471.4</ele>
        <time>2021-03-27T11:37:12Z</time>
      </trkpt>
      <trkpt lat="46.1858" lon="6.25148">
        <ele>471.2</ele>
        <time>2021-03-27T11:37:11Z</time>
      </trkpt>
      <trkpt lat="46.18583" lon="6.25149">
        <ele>471</ele>
        <time>2021-03-27T11:37:10Z</time>
      </trkpt>
      <trkpt lat="46.18587" lon="6.25148">
        <ele>470.6</ele>
        <time>2021-03-27T11:37:09Z</time>
      </trkpt>
      <trkpt lat="46.18593" lon="6.25148">
        <ele>470.6</ele>
        <time>2021-03-27T11:37:08Z</time>
      </trkpt>
      <trkpt lat="46.18598" lon="6.25146">
        <ele>470.4</ele>
        <time>2021-03-27T11:37:07Z</time>
      </trkpt>
      <trkpt lat="46.18604" lon="6.25144">
        <ele>470.4</ele>
        <time>2021-03-27T11:37:06Z</time>
      </trkpt>
      <trkpt lat="46.1861" lon="6.25143">
        <ele>470.2</ele>
        <time>2021-03-27T11:37:05Z</time>
      </trkpt>
      <trkpt lat="46.18615" lon="6.25142">
        <ele>470.4</ele>
        <time>2021-03-27T11:37:04Z</time>
      </trkpt>
      <trkpt lat="46.18621" lon="6.2514">
        <ele>470.2</ele>
        <time>2021-03-27T11:37:03Z</time>
      </trkpt>
      <trkpt lat="46.18627" lon="6.25138">
        <ele>470</ele>
        <time>2021-03-27T11:37:02Z</time>
      </trkpt>
      <trkpt lat="46.18632" lon="6.25136">
        <ele>469.8</ele>
        <time>2021-03-27T11:37:01Z</time>
      </trkpt>
      <trkpt lat="46.18638" lon="6.25134">
        <ele>469.4</ele>
        <time>2021-03-27T11:37:00Z</time>
      </trkpt>
      <trkpt lat="46.18643" lon="6.25132">
        <ele>469.2</ele>
        <time>2021-03-27T11:36:59Z</time>
      </trkpt>
      <trkpt lat="46.18649" lon="6.2513">
        <ele>469.4</ele>
        <time>2021-03-27T11:36:58Z</time>
      </trkpt>
      <trkpt lat="46.18654" lon="6.25128">
        <ele>469.4</ele>
        <time>2021-03-27T11:36:57Z</time>
      </trkpt>
      <trkpt lat="46.18658" lon="6.25126">
        <ele>469.2</ele>
        <time>2021-03-27T11:36:56Z</time>
      </trkpt>
      <trkpt lat="46.18663" lon="6.25124">
        <ele>469</ele>
        <time>2021-03-27T11:36:55Z</time>
      </trkpt>
      <trkpt lat="46.18668" lon="6.25122">
        <ele>468.8</ele>
        <time>2021-03-27T11:36:54Z</time>
      </trkpt>
      <trkpt lat="46.18673" lon="6.2512">
        <ele>468.6</ele>
        <time>2021-03-27T11:36:53Z</time>
      </trkpt>
      <trkpt lat="46.18677" lon="6.25118">
        <ele>468.6</ele>
        <time>2021-03-27T11:36:52Z</time>
      </trkpt>
      <trkpt lat="46.18682" lon="6.25116">
        <ele>468.4</ele>
        <time>2021-03-27T11:36:51Z</time>
      </trkpt>
      <trkpt lat="46.18687" lon="6.25115">
        <ele>468.2</ele>
        <time>2021-03-27T11:36:50Z</time>
      </trkpt>
      <trkpt lat="46.18691" lon="6.25113">
        <ele>468</ele>
        <time>2021-03-27T11:36:49Z</time>
      </trkpt>
      <trkpt lat="46.18695" lon="6.25111">
        <ele>468.2</ele>
        <time>2021-03-27T11:36:48Z</time>
      </trkpt>
      <trkpt lat="46.187" lon="6.25109">
        <ele>468</ele>
        <time>2021-03-27T11:36:47Z</time>
      </trkpt>
      <trkpt lat="46.18705" lon="6.25107">
        <ele>468</ele>
        <time>2021-03-27T11:36:46Z</time>
      </trkpt>
      <trkpt lat="46.1871" lon="6.25105">
        <ele>467.8</ele>
        <time>2021-03-27T11:36:45Z</time>
      </trkpt>
      <trkpt lat="46.18715" lon="6.25103">
        <ele>467.8</ele>
        <time>2021-03-27T11:36:44Z</time>
      </trkpt>
      <trkpt lat="46.18719" lon="6.25101">
        <ele>467.6</ele>
        <time>2021-03-27T11:36:43Z</time>
      </trkpt>
      <trkpt lat="46.18724" lon="6.25099">
        <ele>467.6</ele>
        <time>2021-03-27T11:36:42Z</time>
      </trkpt>
      <trkpt lat="46.18729" lon="6.25097">
        <ele>467.6</ele>
        <time>2021-03-27T11:36:41Z</time>
      </trkpt>
      <trkpt lat="46.18734" lon="6.25095">
        <ele>467.4</ele>
        <time>2021-03-27T11:36:40Z</time>
      </trkpt>
      <trkpt lat="46.1874" lon="6.25093">
        <ele>467.2</ele>
        <time>2021-03-27T11:36:39Z</time>
      </trkpt>
      <trkpt lat="46.18745" lon="6.25091">
        <ele>467</ele>
        <time>2021-03-27T11:36:38Z</time>
      </trkpt>
      <trkpt lat="46.18751" lon="6.25089">
        <ele>467.2</ele>
        <time>2021-03-27T11:36:37Z</time>
      </trkpt>
      <trkpt lat="46.18756" lon="6.25088">
        <ele>466.8</ele>
        <time>2021-03-27T11:36:36Z</time>
      </trkpt>
      <trkpt lat="46.18762" lon="6.25086">
        <ele>466.6</ele>
        <time>2021-03-27T11:36:35Z</time>
      </trkpt>
      <trkpt lat="46.18767" lon="6.25084">
        <ele>466</ele>
        <time>2021-03-27T11:36:34Z</time>
      </trkpt>
      <trkpt lat="46.18772" lon="6.25083">
        <ele>466</ele>
        <time>2021-03-27T11:36:33Z</time>
      </trkpt>
      <trkpt lat="46.18778" lon="6.25082">
        <ele>466</ele>
        <time>2021-03-27T11:36:32Z</time>
      </trkpt>
      <trkpt lat="46.18783" lon="6.25081">
        <ele>465.8</ele>
        <time>2021-03-27T11:36:31Z</time>
      </trkpt>
      <trkpt lat="46.18789" lon="6.2508">
        <ele>465.8</ele>
        <time>2021-03-27T11:36:30Z</time>
      </trkpt>
      <trkpt lat="46.18794" lon="6.2508">
        <ele>465.6</ele>
        <time>2021-03-27T11:36:29Z</time>
      </trkpt>
      <trkpt lat="46.18799" lon="6.25079">
        <ele>465.6</ele>
        <time>2021-03-27T11:36:28Z</time>
      </trkpt>
      <trkpt lat="46.18805" lon="6.25079">
        <ele>465.4</ele>
        <time>2021-03-27T11:36:27Z</time>
      </trkpt>
      <trkpt lat="46.1881" lon="6.25079">
        <ele>465.6</ele>
        <time>2021-03-27T11:36:26Z</time>
      </trkpt>
      <trkpt lat="46.18815" lon="6.25078">
        <ele>465.6</ele>
        <time>2021-03-27T11:36:25Z</time>
      </trkpt>
      <trkpt lat="46.1882" lon="6.25078">
        <ele>465.4</ele>
        <time>2021-03-27T11:36:24Z</time>
      </trkpt>
      <trkpt lat="46.18826" lon="6.25077">
        <ele>465.2</ele>
        <time>2021-03-27T11:36:23Z</time>
      </trkpt>
      <trkpt lat="46.18831" lon="6.25077">
        <ele>465.4</ele>
        <time>2021-03-27T11:36:22Z</time>
      </trkpt>
      <trkpt lat="46.18836" lon="6.25077">
        <ele>465.4</ele>
        <time>2021-03-27T11:36:21Z</time>
      </trkpt>
      <trkpt lat="46.18842" lon="6.25077">
        <ele>465.4</ele>
        <time>2021-03-27T11:36:20Z</time>
      </trkpt>
      <trkpt lat="46.18847" lon="6.25077">
        <ele>465.2</ele>
        <time>2021-03-27T11:36:19Z</time>
      </trkpt>
      <trkpt lat="46.18853" lon="6.25077">
        <ele>465.2</ele>
        <time>2021-03-27T11:36:18Z</time>
      </trkpt>
      <trkpt lat="46.18858" lon="6.25077">
        <ele>465.2</ele>
        <time>2021-03-27T11:36:17Z</time>
      </trkpt>
      <trkpt lat="46.18863" lon="6.25078">
        <ele>465</ele>
        <time>2021-03-27T11:36:16Z</time>
      </trkpt>
      <trkpt lat="46.18869" lon="6.25078">
        <ele>465</ele>
        <time>2021-03-27T11:36:15Z</time>
      </trkpt>
      <trkpt lat="46.18874" lon="6.25078">
        <ele>464.8</ele>
        <time>2021-03-27T11:36:14Z</time>
      </trkpt>
      <trkpt lat="46.18879" lon="6.25078">
        <ele>464.8</ele>
        <time>2021-03-27T11:36:13Z</time>
      </trkpt>
      <trkpt lat="46.18885" lon="6.25077">
        <ele>464.8</ele>
        <time>2021-03-27T11:36:12Z</time>
      </trkpt>
      <trkpt lat="46.1889" lon="6.25076">
        <ele>464.6</ele>
        <time>2021-03-27T11:36:11Z</time>
      </trkpt>
      <trkpt lat="46.18895" lon="6.25076">
        <ele>464.4</ele>
        <time>2021-03-27T11:36:10Z</time>
      </trkpt>
      <trkpt lat="46.18901" lon="6.25075">
        <ele>464.4</ele>
        <time>2021-03-27T11:36:09Z</time>
      </trkpt>
      <trkpt lat="46.18906" lon="6.25074">
        <ele>464</ele>
        <time>2021-03-27T11:36:08Z</time>
      </trkpt>
      <trkpt lat="46.18911" lon="6.25073">
        <ele>463.6</ele>
        <time>2021-03-27T11:36:07Z</time>
      </trkpt>
      <trkpt lat="46.18917" lon="6.25072">
        <ele>463.6</ele>
        <time>2021-03-27T11:36:06Z</time>
      </trkpt>
      <trkpt lat="46.18922" lon="6.25072">
        <ele>463.4</ele>
        <time>2021-03-27T11:36:05Z</time>
      </trkpt>
      <trkpt lat="46.18927" lon="6.2507">
        <ele>463.2</ele>
        <time>2021-03-27T11:36:04Z</time>
      </trkpt>
      <trkpt lat="46.18933" lon="6.2507">
        <ele>463</ele>
        <time>2021-03-27T11:36:03Z</time>
      </trkpt>
      <trkpt lat="46.18938" lon="6.25069">
        <ele>462.4</ele>
        <time>2021-03-27T11:36:02Z</time>
      </trkpt>
      <trkpt lat="46.18943" lon="6.25068">
        <ele>461.8</ele>
        <time>2021-03-27T11:36:01Z</time>
      </trkpt>
      <trkpt lat="46.18948" lon="6.25067">
        <ele>461.2</ele>
        <time>2021-03-27T11:36:00Z</time>
      </trkpt>
      <trkpt lat="46.18953" lon="6.25067">
        <ele>460.8</ele>
        <time>2021-03-27T11:35:59Z</time>
      </trkpt>
      <trkpt lat="46.18959" lon="6.25068">
        <ele>460.4</ele>
        <time>2021-03-27T11:35:58Z</time>
      </trkpt>
      <trkpt lat="46.18964" lon="6.25068">
        <ele>460.2</ele>
        <time>2021-03-27T11:35:57Z</time>
      </trkpt>
      <trkpt lat="46.18969" lon="6.25069">
        <ele>459.6</ele>
        <time>2021-03-27T11:35:56Z</time>
      </trkpt>
      <trkpt lat="46.18974" lon="6.2507">
        <ele>459.6</ele>
        <time>2021-03-27T11:35:55Z</time>
      </trkpt>
      <trkpt lat="46.18979" lon="6.25071">
        <ele>459.6</ele>
        <time>2021-03-27T11:35:54Z</time>
      </trkpt>
      <trkpt lat="46.18984" lon="6.25072">
        <ele>459.8</ele>
        <time>2021-03-27T11:35:53Z</time>
      </trkpt>
      <trkpt lat="46.18989" lon="6.25073">
        <ele>459.8</ele>
        <time>2021-03-27T11:35:52Z</time>
      </trkpt>
      <trkpt lat="46.18994" lon="6.25076">
        <ele>459.6</ele>
        <time>2021-03-27T11:35:51Z</time>
      </trkpt>
      <trkpt lat="46.18999" lon="6.25078">
        <ele>459.6</ele>
        <time>2021-03-27T11:35:50Z</time>
      </trkpt>
      <trkpt lat="46.19005" lon="6.2508">
        <ele>459.4</ele>
        <time>2021-03-27T11:35:49Z</time>
      </trkpt>
      <trkpt lat="46.1901" lon="6.25083">
        <ele>459.4</ele>
        <time>2021-03-27T11:35:48Z</time>
      </trkpt>
      <trkpt lat="46.19016" lon="6.25085">
        <ele>459.6</ele>
        <time>2021-03-27T11:35:47Z</time>
      </trkpt>
      <trkpt lat="46.19022" lon="6.25087">
        <ele>459.4</ele>
        <time>2021-03-27T11:35:46Z</time>
      </trkpt>
      <trkpt lat="46.19027" lon="6.2509">
        <ele>459.2</ele>
        <time>2021-03-27T11:35:45Z</time>
      </trkpt>
      <trkpt lat="46.19032" lon="6.25094">
        <ele>458</ele>
        <time>2021-03-27T11:35:44Z</time>
      </trkpt>
      <trkpt lat="46.19036" lon="6.25101">
        <ele>457.8</ele>
        <time>2021-03-27T11:35:43Z</time>
      </trkpt>
      <trkpt lat="46.19042" lon="6.25106">
        <ele>457.2</ele>
        <time>2021-03-27T11:35:42Z</time>
      </trkpt>
      <trkpt lat="46.19048" lon="6.25111">
        <ele>457.2</ele>
        <time>2021-03-27T11:35:41Z</time>
      </trkpt>
      <trkpt lat="46.19055" lon="6.25115">
        <ele>457.8</ele>
        <time>2021-03-27T11:35:40Z</time>
      </trkpt>
      <trkpt lat="46.19063" lon="6.25118">
        <ele>458.2</ele>
        <time>2021-03-27T11:35:39Z</time>
      </trkpt>
      <trkpt lat="46.19071" lon="6.2512">
        <ele>459</ele>
        <time>2021-03-27T11:35:38Z</time>
      </trkpt>
      <trkpt lat="46.1908" lon="6.2512">
        <ele>460</ele>
        <time>2021-03-27T11:35:37Z</time>
      </trkpt>
      <trkpt lat="46.19089" lon="6.25118">
        <ele>461.2</ele>
        <time>2021-03-27T11:35:36Z</time>
      </trkpt>
      <trkpt lat="46.19097" lon="6.25114">
        <ele>462</ele>
        <time>2021-03-27T11:35:35Z</time>
      </trkpt>
      <trkpt lat="46.19103" lon="6.2511">
        <ele>462.6</ele>
        <time>2021-03-27T11:35:34Z</time>
      </trkpt>
      <trkpt lat="46.19108" lon="6.25104">
        <ele>462.8</ele>
        <time>2021-03-27T11:35:33Z</time>
      </trkpt>
      <trkpt lat="46.19112" lon="6.25097">
        <ele>462.8</ele>
        <time>2021-03-27T11:35:32Z</time>
      </trkpt>
      <trkpt lat="46.19114" lon="6.25088">
        <ele>462.6</ele>
        <time>2021-03-27T11:35:31Z</time>
      </trkpt>
      <trkpt lat="46.19117" lon="6.2508">
        <ele>462.4</ele>
        <time>2021-03-27T11:35:30Z</time>
      </trkpt>
      <trkpt lat="46.1912" lon="6.25072">
        <ele>462</ele>
        <time>2021-03-27T11:35:29Z</time>
      </trkpt>
      <trkpt lat="46.19128" lon="6.25065">
        <ele>461.8</ele>
        <time>2021-03-27T11:35:28Z</time>
      </trkpt>
      <trkpt lat="46.19132" lon="6.25061">
        <ele>461.4</ele>
        <time>2021-03-27T11:35:27Z</time>
      </trkpt>
      <trkpt lat="46.19136" lon="6.25057">
        <ele>461.4</ele>
        <time>2021-03-27T11:35:26Z</time>
      </trkpt>
      <trkpt lat="46.19136" lon="6.25057">
        <ele>461.4</ele>
        <time>2021-03-27T11:35:25Z</time>
      </trkpt>
      <trkpt lat="46.19136" lon="6.25057">
        <ele>461.4</ele>
        <time>2021-03-27T11:35:24Z</time>
      </trkpt>
      <trkpt lat="46.19136" lon="6.25057">
        <ele>461.4</ele>
        <time>2021-03-27T11:35:23Z</time>
      </trkpt>
      <trkpt lat="46.19136" lon="6.25057">
        <ele>461.4</ele>
        <time>2021-03-27T11:35:22Z</time>
      </trkpt>
      <trkpt lat="46.19136" lon="6.25057">
        <ele>461.4</ele>
        <time>2021-03-27T11:35:21Z</time>
      </trkpt>
      <trkpt lat="46.19136" lon="6.25057">
        <ele>461.2</ele>
        <time>2021-03-27T11:35:20Z</time>
      </trkpt>
      <trkpt lat="46.19136" lon="6.25057">
        <ele>461</ele>
        <time>2021-03-27T11:35:19Z</time>
      </trkpt>
      <trkpt lat="46.19136" lon="6.25057">
        <ele>460.8</ele>
        <time>2021-03-27T11:35:18Z</time>
      </trkpt>
      <trkpt lat="46.19136" lon="6.25057">
        <ele>461</ele>
        <time>2021-03-27T11:35:17Z</time>
      </trkpt>
      <trkpt lat="46.19136" lon="6.25057">
        <ele>460.6</ele>
        <time>2021-03-27T11:35:16Z</time>
      </trkpt>
      <trkpt lat="46.19136" lon="6.25057">
        <ele>460.4</ele>
        <time>2021-03-27T11:35:15Z</time>
      </trkpt>
      <trkpt lat="46.19136" lon="6.25057">
        <ele>460.4</ele>
        <time>2021-03-27T11:35:14Z</time>
      </trkpt>
      <trkpt lat="46.19136" lon="6.25057">
        <ele>460.2</ele>
        <time>2021-03-27T11:35:13Z</time>
      </trkpt>
      <trkpt lat="46.19136" lon="6.25057">
        <ele>460.2</ele>
        <time>2021-03-27T11:35:12Z</time>
      </trkpt>
      <trkpt lat="46.19136" lon="6.25057">
        <ele>460.2</ele>
        <time>2021-03-27T11:35:11Z</time>
      </trkpt>
      <trkpt lat="46.19136" lon="6.25057">
        <ele>460</ele>
        <time>2021-03-27T11:35:10Z</time>
      </trkpt>
      <trkpt lat="46.19136" lon="6.25057">
        <ele>460</ele>
        <time>2021-03-27T11:35:09Z</time>
      </trkpt>
      <trkpt lat="46.19136" lon="6.25057">
        <ele>460</ele>
        <time>2021-03-27T11:35:08Z</time>
      </trkpt>
      <trkpt lat="46.19136" lon="6.25057">
        <ele>459.8</ele>
        <time>2021-03-27T11:35:07Z</time>
      </trkpt>
      <trkpt lat="46.19136" lon="6.25057">
        <ele>459.8</ele>
        <time>2021-03-27T11:35:06Z</time>
      </trkpt>
      <trkpt lat="46.19136" lon="6.25057">
        <ele>459.6</ele>
        <time>2021-03-27T11:35:05Z</time>
      </trkpt>
      <trkpt lat="46.19136" lon="6.25057">
        <ele>459.6</ele>
        <time>2021-03-27T11:35:04Z</time>
      </trkpt>
      <trkpt lat="46.19137" lon="6.25057">
        <ele>459.8</ele>
        <time>2021-03-27T11:35:03Z</time>
      </trkpt>
      <trkpt lat="46.19137" lon="6.25057">
        <ele>459.8</ele>
        <time>2021-03-27T11:35:02Z</time>
      </trkpt>
      <trkpt lat="46.19137" lon="6.25057">
        <ele>459.6</ele>
        <time>2021-03-27T11:35:01Z</time>
      </trkpt>
      <trkpt lat="46.19137" lon="6.25057">
        <ele>459.8</ele>
        <time>2021-03-27T11:35:00Z</time>
      </trkpt>
      <trkpt lat="46.19137" lon="6.25057">
        <ele>459.8</ele>
        <time>2021-03-27T11:34:59Z</time>
      </trkpt>
      <trkpt lat="46.19137" lon="6.25057">
        <ele>459.8</ele>
        <time>2021-03-27T11:34:58Z</time>
      </trkpt>
      <trkpt lat="46.19137" lon="6.25057">
        <ele>459.6</ele>
        <time>2021-03-27T11:34:57Z</time>
      </trkpt>
      <trkpt lat="46.19137" lon="6.25057">
        <ele>459.8</ele>
        <time>2021-03-27T11:34:56Z</time>
      </trkpt>
      <trkpt lat="46.19137" lon="6.25057">
        <ele>459.8</ele>
        <time>2021-03-27T11:34:55Z</time>
      </trkpt>
      <trkpt lat="46.19137" lon="6.25057">
        <ele>459.8</ele>
        <time>2021-03-27T11:34:54Z</time>
      </trkpt>
      <trkpt lat="46.19137" lon="6.25057">
        <ele>459.8</ele>
        <time>2021-03-27T11:34:53Z</time>
      </trkpt>
      <trkpt lat="46.19137" lon="6.25057">
        <ele>459.8</ele>
        <time>2021-03-27T11:34:52Z</time>
      </trkpt>
      <trkpt lat="46.19137" lon="6.25057">
        <ele>459.8</ele>
        <time>2021-03-27T11:34:51Z</time>
      </trkpt>
      <trkpt lat="46.19137" lon="6.25057">
        <ele>460</ele>
        <time>2021-03-27T11:34:50Z</time>
      </trkpt>
      <trkpt lat="46.19137" lon="6.25057">
        <ele>459.8</ele>
        <time>2021-03-27T11:34:49Z</time>
      </trkpt>
      <trkpt lat="46.19137" lon="6.25057">
        <ele>459.8</ele>
        <time>2021-03-27T11:34:48Z</time>
      </trkpt>
      <trkpt lat="46.19137" lon="6.25057">
        <ele>460</ele>
        <time>2021-03-27T11:34:47Z</time>
      </trkpt>
      <trkpt lat="46.19137" lon="6.25057">
        <ele>460</ele>
        <time>2021-03-27T11:34:46Z</time>
      </trkpt>
      <trkpt lat="46.19137" lon="6.25057">
        <ele>460</ele>
        <time>2021-03-27T11:34:45Z</time>
      </trkpt>
      <trkpt lat="46.19137" lon="6.25057">
        <ele>459.8</ele>
        <time>2021-03-27T11:34:44Z</time>
      </trkpt>
      <trkpt lat="46.19137" lon="6.25057">
        <ele>460</ele>
        <time>2021-03-27T11:34:43Z</time>
      </trkpt>
      <trkpt lat="46.19137" lon="6.25057">
        <ele>460</ele>
        <time>2021-03-27T11:34:42Z</time>
      </trkpt>
      <trkpt lat="46.19137" lon="6.25057">
        <ele>460</ele>
        <time>2021-03-27T11:34:41Z</time>
      </trkpt>
      <trkpt lat="46.19137" lon="6.25057">
        <ele>460</ele>
        <time>2021-03-27T11:34:40Z</time>
      </trkpt>
      <trkpt lat="46.19137" lon="6.25057">
        <ele>460</ele>
        <time>2021-03-27T11:34:39Z</time>
      </trkpt>
      <trkpt lat="46.19137" lon="6.25057">
        <ele>460</ele>
        <time>2021-03-27T11:34:38Z</time>
      </trkpt>
      <trkpt lat="46.19137" lon="6.25057">
        <ele>460</ele>
        <time>2021-03-27T11:34:37Z</time>
      </trkpt>
      <trkpt lat="46.19137" lon="6.25057">
        <ele>460</ele>
        <time>2021-03-27T11:34:36Z</time>
      </trkpt>
      <trkpt lat="46.19137" lon="6.25057">
        <ele>460</ele>
        <time>2021-03-27T11:34:35Z</time>
      </trkpt>
      <trkpt lat="46.19137" lon="6.25057">
        <ele>460</ele>
        <time>2021-03-27T11:34:34Z</time>
      </trkpt>
      <trkpt lat="46.19138" lon="6.25057">
        <ele>460.2</ele>
        <time>2021-03-27T11:34:33Z</time>
      </trkpt>
      <trkpt lat="46.19138" lon="6.25057">
        <ele>460</ele>
        <time>2021-03-27T11:34:32Z</time>
      </trkpt>
      <trkpt lat="46.19138" lon="6.25057">
        <ele>460</ele>
        <time>2021-03-27T11:34:31Z</time>
      </trkpt>
      <trkpt lat="46.19138" lon="6.25057">
        <ele>460</ele>
        <time>2021-03-27T11:34:30Z</time>
      </trkpt>
      <trkpt lat="46.19138" lon="6.25057">
        <ele>460</ele>
        <time>2021-03-27T11:34:29Z</time>
      </trkpt>
      <trkpt lat="46.19138" lon="6.25057">
        <ele>460</ele>
        <time>2021-03-27T11:34:28Z</time>
      </trkpt>
      <trkpt lat="46.19138" lon="6.25057">
        <ele>460</ele>
        <time>2021-03-27T11:34:27Z</time>
      </trkpt>
      <trkpt lat="46.19138" lon="6.25057">
        <ele>460</ele>
        <time>2021-03-27T11:34:26Z</time>
      </trkpt>
      <trkpt lat="46.19138" lon="6.25057">
        <ele>460</ele>
        <time>2021-03-27T11:34:25Z</time>
      </trkpt>
      <trkpt lat="46.19138" lon="6.25057">
        <ele>459.8</ele>
        <time>2021-03-27T11:34:24Z</time>
      </trkpt>
      <trkpt lat="46.19138" lon="6.25057">
        <ele>459.8</ele>
        <time>2021-03-27T11:34:23Z</time>
      </trkpt>
      <trkpt lat="46.19138" lon="6.25057">
        <ele>459.8</ele>
        <time>2021-03-27T11:34:22Z</time>
      </trkpt>
      <trkpt lat="46.19138" lon="6.25057">
        <ele>459.8</ele>
        <time>2021-03-27T11:34:21Z</time>
      </trkpt>
      <trkpt lat="46.19138" lon="6.25057">
        <ele>459.6</ele>
        <time>2021-03-27T11:34:20Z</time>
      </trkpt>
      <trkpt lat="46.19138" lon="6.25057">
        <ele>459.6</ele>
        <time>2021-03-27T11:34:19Z</time>
      </trkpt>
      <trkpt lat="46.19138" lon="6.25057">
        <ele>459.6</ele>
        <time>2021-03-27T11:34:18Z</time>
      </trkpt>
      <trkpt lat="46.19138" lon="6.25057">
        <ele>459.6</ele>
        <time>2021-03-27T11:34:17Z</time>
      </trkpt>
      <trkpt lat="46.19138" lon="6.25057">
        <ele>459.4</ele>
        <time>2021-03-27T11:34:16Z</time>
      </trkpt>
      <trkpt lat="46.19138" lon="6.25057">
        <ele>459.2</ele>
        <time>2021-03-27T11:34:15Z</time>
      </trkpt>
      <trkpt lat="46.19138" lon="6.25057">
        <ele>459</ele>
        <time>2021-03-27T11:34:14Z</time>
      </trkpt>
      <trkpt lat="46.19138" lon="6.25057">
        <ele>459</ele>
        <time>2021-03-27T11:34:13Z</time>
      </trkpt>
      <trkpt lat="46.19138" lon="6.25057">
        <ele>459</ele>
        <time>2021-03-27T11:34:12Z</time>
      </trkpt>
      <trkpt lat="46.19138" lon="6.25057">
        <ele>458.8</ele>
        <time>2021-03-27T11:34:11Z</time>
      </trkpt>
      <trkpt lat="46.19138" lon="6.25057">
        <ele>458.6</ele>
        <time>2021-03-27T11:34:10Z</time>
      </trkpt>
      <trkpt lat="46.19138" lon="6.25057">
        <ele>458.6</ele>
        <time>2021-03-27T11:34:09Z</time>
      </trkpt>
      <trkpt lat="46.19138" lon="6.25057">
        <ele>458.4</ele>
        <time>2021-03-27T11:34:08Z</time>
      </trkpt>
      <trkpt lat="46.19138" lon="6.25057">
        <ele>458.4</ele>
        <time>2021-03-27T11:34:07Z</time>
      </trkpt>
      <trkpt lat="46.19138" lon="6.25057">
        <ele>458.4</ele>
        <time>2021-03-27T11:34:06Z</time>
      </trkpt>
      <trkpt lat="46.19138" lon="6.25057">
        <ele>458.2</ele>
        <time>2021-03-27T11:34:05Z</time>
      </trkpt>
      <trkpt lat="46.19138" lon="6.25057">
        <ele>458</ele>
        <time>2021-03-27T11:34:04Z</time>
      </trkpt>
      <trkpt lat="46.19139" lon="6.25057">
        <ele>458</ele>
        <time>2021-03-27T11:34:03Z</time>
      </trkpt>
      <trkpt lat="46.19139" lon="6.25057">
        <ele>458</ele>
        <time>2021-03-27T11:34:02Z</time>
      </trkpt>
      <trkpt lat="46.19139" lon="6.25057">
        <ele>457.8</ele>
        <time>2021-03-27T11:34:01Z</time>
      </trkpt>
      <trkpt lat="46.19139" lon="6.25057">
        <ele>457.8</ele>
        <time>2021-03-27T11:34:00Z</time>
      </trkpt>
      <trkpt lat="46.19139" lon="6.25057">
        <ele>457.6</ele>
        <time>2021-03-27T11:33:59Z</time>
      </trkpt>
      <trkpt lat="46.19139" lon="6.25057">
        <ele>457.8</ele>
        <time>2021-03-27T11:33:58Z</time>
      </trkpt>
      <trkpt lat="46.19139" lon="6.25057">
        <ele>457.8</ele>
        <time>2021-03-27T11:33:57Z</time>
      </trkpt>
      <trkpt lat="46.19139" lon="6.25057">
        <ele>457.8</ele>
        <time>2021-03-27T11:33:56Z</time>
      </trkpt>
      <trkpt lat="46.19139" lon="6.25057">
        <ele>457.6</ele>
        <time>2021-03-27T11:33:55Z</time>
      </trkpt>
      <trkpt lat="46.19139" lon="6.25057">
        <ele>457.6</ele>
        <time>2021-03-27T11:33:54Z</time>
      </trkpt>
      <trkpt lat="46.19139" lon="6.25057">
        <ele>457.6</ele>
        <time>2021-03-27T11:33:53Z</time>
      </trkpt>
      <trkpt lat="46.19139" lon="6.25057">
        <ele>457.6</ele>
        <time>2021-03-27T11:33:52Z</time>
      </trkpt>
      <trkpt lat="46.19139" lon="6.25057">
        <ele>457.6</ele>
        <time>2021-03-27T11:33:51Z</time>
      </trkpt>
      <trkpt lat="46.19139" lon="6.25057">
        <ele>457.4</ele>
        <time>2021-03-27T11:33:50Z</time>
      </trkpt>
      <trkpt lat="46.19139" lon="6.25057">
        <ele>457.4</ele>
        <time>2021-03-27T11:33:49Z</time>
      </trkpt>
      <trkpt lat="46.19139" lon="6.25057">
        <ele>457.4</ele>
        <time>2021-03-27T11:33:48Z</time>
      </trkpt>
      <trkpt lat="46.19139" lon="6.25057">
        <ele>457.4</ele>
        <time>2021-03-27T11:33:47Z</time>
      </trkpt>
      <trkpt lat="46.19139" lon="6.25057">
        <ele>457.4</ele>
        <time>2021-03-27T11:33:46Z</time>
      </trkpt>
      <trkpt lat="46.19139" lon="6.25057">
        <ele>457.4</ele>
        <time>2021-03-27T11:33:45Z</time>
      </trkpt>
      <trkpt lat="46.19139" lon="6.25057">
        <ele>457.6</ele>
        <time>2021-03-27T11:33:44Z</time>
      </trkpt>
      <trkpt lat="46.19139" lon="6.25057">
        <ele>457.4</ele>
        <time>2021-03-27T11:33:43Z</time>
      </trkpt>
      <trkpt lat="46.19139" lon="6.25057">
        <ele>457.4</ele>
        <time>2021-03-27T11:33:42Z</time>
      </trkpt>
      <trkpt lat="46.19139" lon="6.25057">
        <ele>457.6</ele>
        <time>2021-03-27T11:33:41Z</time>
      </trkpt>
      <trkpt lat="46.19139" lon="6.25057">
        <ele>457.6</ele>
        <time>2021-03-27T11:33:40Z</time>
      </trkpt>
      <trkpt lat="46.19139" lon="6.25057">
        <ele>457.4</ele>
        <time>2021-03-27T11:33:39Z</time>
      </trkpt>
      <trkpt lat="46.19139" lon="6.25057">
        <ele>457.6</ele>
        <time>2021-03-27T11:33:38Z</time>
      </trkpt>
      <trkpt lat="46.19139" lon="6.25057">
        <ele>457.4</ele>
        <time>2021-03-27T11:33:37Z</time>
      </trkpt>
      <trkpt lat="46.19139" lon="6.25057">
        <ele>457.6</ele>
        <time>2021-03-27T11:33:36Z</time>
      </trkpt>
      <trkpt lat="46.19139" lon="6.25057">
        <ele>457.4</ele>
        <time>2021-03-27T11:33:35Z</time>
      </trkpt>
      <trkpt lat="46.19139" lon="6.25057">
        <ele>457.4</ele>
        <time>2021-03-27T11:33:34Z</time>
      </trkpt>
      <trkpt lat="46.19139" lon="6.25057">
        <ele>457.4</ele>
        <time>2021-03-27T11:33:33Z</time>
      </trkpt>
      <trkpt lat="46.1914" lon="6.25057">
        <ele>457.6</ele>
        <time>2021-03-27T11:33:32Z</time>
      </trkpt>
      <trkpt lat="46.1914" lon="6.25057">
        <ele>457.6</ele>
        <time>2021-03-27T11:33:31Z</time>
      </trkpt>
      <trkpt lat="46.1914" lon="6.25057">
        <ele>457.4</ele>
        <time>2021-03-27T11:33:30Z</time>
      </trkpt>
      <trkpt lat="46.1914" lon="6.25057">
        <ele>457.4</ele>
        <time>2021-03-27T11:33:29Z</time>
      </trkpt>
      <trkpt lat="46.1914" lon="6.25057">
        <ele>457.4</ele>
        <time>2021-03-27T11:33:28Z</time>
      </trkpt>
      <trkpt lat="46.1914" lon="6.25057">
        <ele>457.4</ele>
        <time>2021-03-27T11:33:27Z</time>
      </trkpt>
      <trkpt lat="46.1914" lon="6.25057">
        <ele>457.2</ele>
        <time>2021-03-27T11:33:26Z</time>
      </trkpt>
      <trkpt lat="46.1914" lon="6.25057">
        <ele>457.2</ele>
        <time>2021-03-27T11:33:25Z</time>
      </trkpt>
      <trkpt lat="46.1914" lon="6.25057">
        <ele>457.2</ele>
        <time>2021-03-27T11:33:24Z</time>
      </trkpt>
      <trkpt lat="46.1914" lon="6.25057">
        <ele>457.4</ele>
        <time>2021-03-27T11:33:23Z</time>
      </trkpt>
      <trkpt lat="46.1914" lon="6.25057">
        <ele>457.2</ele>
        <time>2021-03-27T11:33:22Z</time>
      </trkpt>
      <trkpt lat="46.1914" lon="6.25057">
        <ele>457.2</ele>
        <time>2021-03-27T11:33:21Z</time>
      </trkpt>
      <trkpt lat="46.1914" lon="6.25057">
        <ele>457.2</ele>
        <time>2021-03-27T11:33:20Z</time>
      </trkpt>
      <trkpt lat="46.1914" lon="6.25057">
        <ele>457.2</ele>
        <time>2021-03-27T11:33:19Z</time>
      </trkpt>
      <trkpt lat="46.1914" lon="6.25057">
        <ele>457.2</ele>
        <time>2021-03-27T11:33:18Z</time>
      </trkpt>
      <trkpt lat="46.1914" lon="6.25057">
        <ele>457.2</ele>
        <time>2021-03-27T11:33:17Z</time>
      </trkpt>
      <trkpt lat="46.1914" lon="6.25057">
        <ele>457.2</ele>
        <time>2021-03-27T11:33:16Z</time>
      </trkpt>
      <trkpt lat="46.1914" lon="6.25057">
        <ele>457.2</ele>
        <time>2021-03-27T11:33:15Z</time>
      </trkpt>
      <trkpt lat="46.1914" lon="6.25057">
        <ele>457.2</ele>
        <time>2021-03-27T11:33:14Z</time>
      </trkpt>
      <trkpt lat="46.1914" lon="6.25057">
        <ele>457.2</ele>
        <time>2021-03-27T11:33:13Z</time>
      </trkpt>
      <trkpt lat="46.1914" lon="6.25057">
        <ele>457.2</ele>
        <time>2021-03-27T11:33:12Z</time>
      </trkpt>
      <trkpt lat="46.1914" lon="6.25057">
        <ele>457</ele>
        <time>2021-03-27T11:33:11Z</time>
      </trkpt>
      <trkpt lat="46.1914" lon="6.25057">
        <ele>457</ele>
        <time>2021-03-27T11:33:10Z</time>
      </trkpt>
      <trkpt lat="46.1914" lon="6.25057">
        <ele>457</ele>
        <time>2021-03-27T11:33:09Z</time>
      </trkpt>
      <trkpt lat="46.1914" lon="6.25057">
        <ele>457</ele>
        <time>2021-03-27T11:33:08Z</time>
      </trkpt>
      <trkpt lat="46.1914" lon="6.25057">
        <ele>457</ele>
        <time>2021-03-27T11:33:07Z</time>
      </trkpt>
      <trkpt lat="46.1914" lon="6.25057">
        <ele>457.2</ele>
        <time>2021-03-27T11:33:06Z</time>
      </trkpt>
      <trkpt lat="46.1914" lon="6.25057">
        <ele>457</ele>
        <time>2021-03-27T11:33:05Z</time>
      </trkpt>
      <trkpt lat="46.1914" lon="6.25057">
        <ele>457</ele>
        <time>2021-03-27T11:33:04Z</time>
      </trkpt>
      <trkpt lat="46.1914" lon="6.25057">
        <ele>457</ele>
        <time>2021-03-27T11:33:03Z</time>
      </trkpt>
      <trkpt lat="46.19141" lon="6.25057">
        <ele>457.2</ele>
        <time>2021-03-27T11:33:02Z</time>
      </trkpt>
      <trkpt lat="46.19141" lon="6.25057">
        <ele>457</ele>
        <time>2021-03-27T11:33:01Z</time>
      </trkpt>
      <trkpt lat="46.19141" lon="6.25057">
        <ele>457.2</ele>
        <time>2021-03-27T11:33:00Z</time>
      </trkpt>
      <trkpt lat="46.19141" lon="6.25057">
        <ele>457.2</ele>
        <time>2021-03-27T11:32:59Z</time>
      </trkpt>
      <trkpt lat="46.19141" lon="6.25057">
        <ele>457</ele>
        <time>2021-03-27T11:32:58Z</time>
      </trkpt>
      <trkpt lat="46.19141" lon="6.25057">
        <ele>457</ele>
        <time>2021-03-27T11:32:57Z</time>
      </trkpt>
      <trkpt lat="46.19141" lon="6.25057">
        <ele>457.2</ele>
        <time>2021-03-27T11:32:56Z</time>
      </trkpt>
      <trkpt lat="46.19141" lon="6.25057">
        <ele>457.2</ele>
        <time>2021-03-27T11:32:55Z</time>
      </trkpt>
      <trkpt lat="46.19141" lon="6.25057">
        <ele>457.2</ele>
        <time>2021-03-27T11:32:54Z</time>
      </trkpt>
      <trkpt lat="46.19141" lon="6.25057">
        <ele>457.2</ele>
        <time>2021-03-27T11:32:53Z</time>
      </trkpt>
      <trkpt lat="46.19141" lon="6.25057">
        <ele>457.2</ele>
        <time>2021-03-27T11:32:52Z</time>
      </trkpt>
      <trkpt lat="46.19141" lon="6.25057">
        <ele>457.2</ele>
        <time>2021-03-27T11:32:51Z</time>
      </trkpt>
      <trkpt lat="46.19141" lon="6.25057">
        <ele>457.4</ele>
        <time>2021-03-27T11:32:50Z</time>
      </trkpt>
      <trkpt lat="46.19141" lon="6.25057">
        <ele>457.4</ele>
        <time>2021-03-27T11:32:49Z</time>
      </trkpt>
      <trkpt lat="46.19141" lon="6.25057">
        <ele>457.2</ele>
        <time>2021-03-27T11:32:48Z</time>
      </trkpt>
      <trkpt lat="46.19141" lon="6.25057">
        <ele>457.2</ele>
        <time>2021-03-27T11:32:47Z</time>
      </trkpt>
      <trkpt lat="46.19141" lon="6.25057">
        <ele>457.4</ele>
        <time>2021-03-27T11:32:46Z</time>
      </trkpt>
      <trkpt lat="46.19141" lon="6.25057">
        <ele>457.2</ele>
        <time>2021-03-27T11:32:45Z</time>
      </trkpt>
      <trkpt lat="46.19141" lon="6.25057">
        <ele>457.4</ele>
        <time>2021-03-27T11:32:44Z</time>
      </trkpt>
      <trkpt lat="46.19141" lon="6.25057">
        <ele>457.2</ele>
        <time>2021-03-27T11:32:43Z</time>
      </trkpt>
      <trkpt lat="46.19141" lon="6.25057">
        <ele>457.2</ele>
        <time>2021-03-27T11:32:42Z</time>
      </trkpt>
      <trkpt lat="46.19141" lon="6.25057">
        <ele>457.4</ele>
        <time>2021-03-27T11:32:41Z</time>
      </trkpt>
      <trkpt lat="46.19141" lon="6.25057">
        <ele>457.2</ele>
        <time>2021-03-27T11:32:40Z</time>
      </trkpt>
      <trkpt lat="46.19141" lon="6.25057">
        <ele>457.2</ele>
        <time>2021-03-27T11:32:39Z</time>
      </trkpt>
      <trkpt lat="46.19141" lon="6.25057">
        <ele>457.4</ele>
        <time>2021-03-27T11:32:38Z</time>
      </trkpt>
      <trkpt lat="46.19141" lon="6.25057">
        <ele>457.2</ele>
        <time>2021-03-27T11:32:37Z</time>
      </trkpt>
      <trkpt lat="46.19141" lon="6.25056">
        <ele>457.2</ele>
        <time>2021-03-27T11:32:36Z</time>
      </trkpt>
      <trkpt lat="46.19141" lon="6.25056">
        <ele>457.2</ele>
        <time>2021-03-27T11:32:35Z</time>
      </trkpt>
      <trkpt lat="46.19141" lon="6.25056">
        <ele>457.2</ele>
        <time>2021-03-27T11:32:34Z</time>
      </trkpt>
      <trkpt lat="46.19141" lon="6.25056">
        <ele>457</ele>
        <time>2021-03-27T11:32:33Z</time>
      </trkpt>
      <trkpt lat="46.19142" lon="6.25056">
        <ele>457</ele>
        <time>2021-03-27T11:32:31Z</time>
      </trkpt>
      <trkpt lat="46.19142" lon="6.25056">
        <ele>456.8</ele>
        <time>2021-03-27T11:32:30Z</time>
      </trkpt>
      <trkpt lat="46.19142" lon="6.25056">
        <ele>456.8</ele>
        <time>2021-03-27T11:32:29Z</time>
      </trkpt>
      <trkpt lat="46.19142" lon="6.25056">
        <ele>456.8</ele>
        <time>2021-03-27T11:32:27Z</time>
      </trkpt>
      <trkpt lat="46.19142" lon="6.25056">
        <ele>456.8</ele>
        <time>2021-03-27T11:32:26Z</time>
      </trkpt>
      <trkpt lat="46.19142" lon="6.25056">
        <ele>456.8</ele>
        <time>2021-03-27T11:32:25Z</time>
      </trkpt>
      <trkpt lat="46.19142" lon="6.25056">
        <ele>456.8</ele>
        <time>2021-03-27T11:32:24Z</time>
      </trkpt>
      <trkpt lat="46.19142" lon="6.25056">
        <ele>456.8</ele>
        <time>2021-03-27T11:32:23Z</time>
      </trkpt>
      <trkpt lat="46.19142" lon="6.25056">
        <ele>456.8</ele>
        <time>2021-03-27T11:32:23Z</time>
      </trkpt>
      <trkpt lat="46.19142" lon="6.25056">
        <ele>456.8</ele>
        <time>2021-03-27T11:32:23Z</time>
      </trkpt>
      <trkpt lat="46.19142" lon="6.25056">
        <ele>456.8</ele>
        <time>2021-03-27T11:32:23Z</time>
      </trkpt>
    </trkseg>
  </trk>
  <trk>
    <name><![CDATA[Les Ollières avec Joffrey.]]></name>
    <extensions>
      <line xmlns="http://www.topografix.com/GPX/gpx_style/0/2">
        <color>FFFF00</color>
        <width>4</width>
      </line>
    </extensions>
    <trkseg>
      <trkpt lat="46.19293" lon="6.25003">
        <ele>452.2</ele>
        <time>2021-03-02T11:50:55Z</time>
        <extensions>
          <gpxtpx:TrackPointExtension xmlns:gpxtpx="http://www.garmin.com/xmlschemas/TrackPointExtension/v1">
            <gpxtpx:hr>77</gpxtpx:hr>
          </gpxtpx:TrackPointExtension>
        </extensions>
      </trkpt>
      <trkpt lat="46.19293" lon="6.25003">
        <ele>452.2</ele>
        <time>2021-03-02T11:50:55Z</time>
        <extensions>
          <gpxtpx:TrackPointExtension xmlns:gpxtpx="http://www.garmin.com/xmlschemas/TrackPointExtension/v1">
            <gpxtpx:hr>77</gpxtpx:hr>
          </gpxtpx:TrackPointExtension>
        </extensions>
      </trkpt>
      <trkpt lat="46.19293" lon="6.25003">
        <ele>452.2</ele>
        <time>2021-03-02T11:50:55Z</time>
        <extensions>
          <gpxtpx:TrackPointExtension xmlns:gpxtpx="http://www.garmin.com/xmlschemas/TrackPointExtension/v1">
            <gpxtpx:hr>77</gpxtpx:hr>
          </gpxtpx:TrackPointExtension>
        </extensions>
      </trkpt>
      <trkpt lat="46.19293" lon="6.25003">
        <ele>452.2</ele>
        <time>2021-03-02T11:50:56Z</time>
        <extensions>
          <gpxtpx:TrackPointExtension xmlns:gpxtpx="http://www.garmin.com/xmlschemas/TrackPointExtension/v1">
            <gpxtpx:hr>77</gpxtpx:hr>
          </gpxtpx:TrackPointExtension>
        </extensions>
      </trkpt>
      <trkpt lat="46.19293" lon="6.25003">
        <ele>452.2</ele>
        <time>2021-03-02T11:50:57Z</time>
        <extensions>
          <gpxtpx:TrackPointExtension xmlns:gpxtpx="http://www.garmin.com/xmlschemas/TrackPointExtension/v1">
            <gpxtpx:hr>77</gpxtpx:hr>
          </gpxtpx:TrackPointExtension>
        </extensions>
      </trkpt>
      <trkpt lat="46.19293" lon="6.25003">
        <ele>452.2</ele>
        <time>2021-03-02T11:50:58Z</time>
        <extensions>
          <gpxtpx:TrackPointExtension xmlns:gpxtpx="http://www.garmin.com/xmlschemas/TrackPointExtension/v1">
            <gpxtpx:hr>77</gpxtpx:hr>
          </gpxtpx:TrackPointExtension>
        </extensions>
      </trkpt>
      <trkpt lat="46.19293" lon="6.25003">
        <ele>452.2</ele>
        <time>2021-03-02T11:50:59Z</time>
        <extensions>
          <gpxtpx:TrackPointExtension xmlns:gpxtpx="http://www.garmin.com/xmlschemas/TrackPointExtension/v1">
            <gpxtpx:hr>77</gpxtpx:hr>
          </gpxtpx:TrackPointExtension>
        </extensions>
      </trkpt>
      <trkpt lat="46.19293" lon="6.25003">
        <ele>452.2</ele>
        <time>2021-03-02T11:51:00Z</time>
        <extensions>
          <gpxtpx:TrackPointExtension xmlns:gpxtpx="http://www.garmin.com/xmlschemas/TrackPointExtension/v1">
            <gpxtpx:hr>77</gpxtpx:hr>
          </gpxtpx:TrackPointExtension>
        </extensions>
      </trkpt>
      <trkpt lat="46.19293" lon="6.25003">
        <ele>452.2</ele>
        <time>2021-03-02T11:51:01Z</time>
        <extensions>
          <gpxtpx:TrackPointExtension xmlns:gpxtpx="http://www.garmin.com/xmlschemas/TrackPointExtension/v1">
            <gpxtpx:hr>77</gpxtpx:hr>
          </gpxtpx:TrackPointExtension>
        </extensions>
      </trkpt>
      <trkpt lat="46.19293" lon="6.25003">
        <ele>452.2</ele>
        <time>2021-03-02T11:51:02Z</time>
        <extensions>
          <gpxtpx:TrackPointExtension xmlns:gpxtpx="http://www.garmin.com/xmlschemas/TrackPointExtension/v1">
            <gpxtpx:hr>77</gpxtpx:hr>
          </gpxtpx:TrackPointExtension>
        </extensions>
      </trkpt>
      <trkpt lat="46.19293" lon="6.25003">
        <ele>452.2</ele>
        <time>2021-03-02T11:51:03Z</time>
        <extensions>
          <gpxtpx:TrackPointExtension xmlns:gpxtpx="http://www.garmin.com/xmlschemas/TrackPointExtension/v1">
            <gpxtpx:hr>77</gpxtpx:hr>
          </gpxtpx:TrackPointExtension>
        </extensions>
      </trkpt>
      <trkpt lat="46.19293" lon="6.25003">
        <ele>452.2</ele>
        <time>2021-03-02T11:51:04Z</time>
        <extensions>
          <gpxtpx:TrackPointExtension xmlns:gpxtpx="http://www.garmin.com/xmlschemas/TrackPointExtension/v1">
            <gpxtpx:hr>77</gpxtpx:hr>
          </gpxtpx:TrackPointExtension>
        </extensions>
      </trkpt>
      <trkpt lat="46.19293" lon="6.25003">
        <ele>452.2</ele>
        <time>2021-03-02T11:51:05Z</time>
        <extensions>
          <gpxtpx:TrackPointExtension xmlns:gpxtpx="http://www.garmin.com/xmlschemas/TrackPointExtension/v1">
            <gpxtpx:hr>78</gpxtpx:hr>
          </gpxtpx:TrackPointExtension>
        </extensions>
      </trkpt>
      <trkpt lat="46.19293" lon="6.25003">
        <ele>452.2</ele>
        <time>2021-03-02T11:51:06Z</time>
        <extensions>
          <gpxtpx:TrackPointExtension xmlns:gpxtpx="http://www.garmin.com/xmlschemas/TrackPointExtension/v1">
            <gpxtpx:hr>78</gpxtpx:hr>
          </gpxtpx:TrackPointExtension>
        </extensions>
      </trkpt>
      <trkpt lat="46.19293" lon="6.25003">
        <ele>452.2</ele>
        <time>2021-03-02T11:51:07Z</time>
        <extensions>
          <gpxtpx:TrackPointExtension xmlns:gpxtpx="http://www.garmin.com/xmlschemas/TrackPointExtension/v1">
            <gpxtpx:hr>78</gpxtpx:hr>
          </gpxtpx:TrackPointExtension>
        </extensions>
      </trkpt>
      <trkpt lat="46.19293" lon="6.25003">
        <ele>452.2</ele>
        <time>2021-03-02T11:51:08Z</time>
        <extensions>
          <gpxtpx:TrackPointExtension xmlns:gpxtpx="http://www.garmin.com/xmlschemas/TrackPointExtension/v1">
            <gpxtpx:hr>79</gpxtpx:hr>
          </gpxtpx:TrackPointExtension>
        </extensions>
      </trkpt>
      <trkpt lat="46.19293" lon="6.25003">
        <ele>452.2</ele>
        <time>2021-03-02T11:51:09Z</time>
        <extensions>
          <gpxtpx:TrackPointExtension xmlns:gpxtpx="http://www.garmin.com/xmlschemas/TrackPointExtension/v1">
            <gpxtpx:hr>81</gpxtpx:hr>
          </gpxtpx:TrackPointExtension>
        </extensions>
      </trkpt>
      <trkpt lat="46.19282" lon="6.25009">
        <ele>452.4</ele>
        <time>2021-03-02T11:51:12Z</time>
        <extensions>
          <gpxtpx:TrackPointExtension xmlns:gpxtpx="http://www.garmin.com/xmlschemas/TrackPointExtension/v1">
            <gpxtpx:hr>83</gpxtpx:hr>
          </gpxtpx:TrackPointExtension>
        </extensions>
      </trkpt>
      <trkpt lat="46.19282" lon="6.25009">
        <ele>452.4</ele>
        <time>2021-03-02T11:51:13Z</time>
        <extensions>
          <gpxtpx:TrackPointExtension xmlns:gpxtpx="http://www.garmin.com/xmlschemas/TrackPointExtension/v1">
            <gpxtpx:hr>85</gpxtpx:hr>
          </gpxtpx:TrackPointExtension>
        </extensions>
      </trkpt>
      <trkpt lat="46.19281" lon="6.25009">
        <ele>452.4</ele>
        <time>2021-03-02T11:51:14Z</time>
        <extensions>
          <gpxtpx:TrackPointExtension xmlns:gpxtpx="http://www.garmin.com/xmlschemas/TrackPointExtension/v1">
            <gpxtpx:hr>85</gpxtpx:hr>
          </gpxtpx:TrackPointExtension>
        </extensions>
      </trkpt>
      <trkpt lat="46.19281" lon="6.25009">
        <ele>452.4</ele>
        <time>2021-03-02T11:51:15Z</time>
        <extensions>
          <gpxtpx:TrackPointExtension xmlns:gpxtpx="http://www.garmin.com/xmlschemas/TrackPointExtension/v1">
            <gpxtpx:hr>85</gpxtpx:hr>
          </gpxtpx:TrackPointExtension>
        </extensions>
      </trkpt>
      <trkpt lat="46.19282" lon="6.25009">
        <ele>452.4</ele>
        <time>2021-03-02T11:51:49Z</time>
        <extensions>
          <gpxtpx:TrackPointExtension xmlns:gpxtpx="http://www.garmin.com/xmlschemas/TrackPointExtension/v1">
            <gpxtpx:hr>85</gpxtpx:hr>
          </gpxtpx:TrackPointExtension>
        </extensions>
      </trkpt>
      <trkpt lat="46.19283" lon="6.25009">
        <ele>452.4</ele>
        <time>2021-03-02T11:51:50Z</time>
        <extensions>
          <gpxtpx:TrackPointExtension xmlns:gpxtpx="http://www.garmin.com/xmlschemas/TrackPointExtension/v1">
            <gpxtpx:hr>86</gpxtpx:hr>
          </gpxtpx:TrackPointExtension>
        </extensions>
      </trkpt>
      <trkpt lat="46.19283" lon="6.25009">
        <ele>452.4</ele>
        <time>2021-03-02T11:51:51Z</time>
        <extensions>
          <gpxtpx:TrackPointExtension xmlns:gpxtpx="http://www.garmin.com/xmlschemas/TrackPointExtension/v1">
            <gpxtpx:hr>87</gpxtpx:hr>
          </gpxtpx:TrackPointExtension>
        </extensions>
      </trkpt>
      <trkpt lat="46.19283" lon="6.2501">
        <ele>452.4</ele>
        <time>2021-03-02T11:51:52Z</time>
        <extensions>
          <gpxtpx:TrackPointExtension xmlns:gpxtpx="http://www.garmin.com/xmlschemas/TrackPointExtension/v1">
            <gpxtpx:hr>87</gpxtpx:hr>
          </gpxtpx:TrackPointExtension>
        </extensions>
      </trkpt>
      <trkpt lat="46.19284" lon="6.2501">
        <ele>452.5</ele>
        <time>2021-03-02T11:51:53Z</time>
        <extensions>
          <gpxtpx:TrackPointExtension xmlns:gpxtpx="http://www.garmin.com/xmlschemas/TrackPointExtension/v1">
            <gpxtpx:hr>86</gpxtpx:hr>
          </gpxtpx:TrackPointExtension>
        </extensions>
      </trkpt>
      <trkpt lat="46.19284" lon="6.25011">
        <ele>452.5</ele>
        <time>2021-03-02T11:51:54Z</time>
        <extensions>
          <gpxtpx:TrackPointExtension xmlns:gpxtpx="http://www.garmin.com/xmlschemas/TrackPointExtension/v1">
            <gpxtpx:hr>86</gpxtpx:hr>
          </gpxtpx:TrackPointExtension>
        </extensions>
      </trkpt>
      <trkpt lat="46.19285" lon="6.25011">
        <ele>452.5</ele>
        <time>2021-03-02T11:51:55Z</time>
        <extensions>
          <gpxtpx:TrackPointExtension xmlns:gpxtpx="http://www.garmin.com/xmlschemas/TrackPointExtension/v1">
            <gpxtpx:hr>86</gpxtpx:hr>
          </gpxtpx:TrackPointExtension>
        </extensions>
      </trkpt>
      <trkpt lat="46.19285" lon="6.25011">
        <ele>452.5</ele>
        <time>2021-03-02T11:51:56Z</time>
        <extensions>
          <gpxtpx:TrackPointExtension xmlns:gpxtpx="http://www.garmin.com/xmlschemas/TrackPointExtension/v1">
            <gpxtpx:hr>86</gpxtpx:hr>
          </gpxtpx:TrackPointExtension>
        </extensions>
      </trkpt>
      <trkpt lat="46.19284" lon="6.25011">
        <ele>452.5</ele>
        <time>2021-03-02T11:51:57Z</time>
        <extensions>
          <gpxtpx:TrackPointExtension xmlns:gpxtpx="http://www.garmin.com/xmlschemas/TrackPointExtension/v1">
            <gpxtpx:hr>94</gpxtpx:hr>
          </gpxtpx:TrackPointExtension>
        </extensions>
      </trkpt>
      <trkpt lat="46.19281" lon="6.25011">
        <ele>452.5</ele>
        <time>2021-03-02T11:52:08Z</time>
        <extensions>
          <gpxtpx:TrackPointExtension xmlns:gpxtpx="http://www.garmin.com/xmlschemas/TrackPointExtension/v1">
            <gpxtpx:hr>95</gpxtpx:hr>
          </gpxtpx:TrackPointExtension>
        </extensions>
      </trkpt>
      <trkpt lat="46.19281" lon="6.25011">
        <ele>452.5</ele>
        <time>2021-03-02T11:52:09Z</time>
        <extensions>
          <gpxtpx:TrackPointExtension xmlns:gpxtpx="http://www.garmin.com/xmlschemas/TrackPointExtension/v1">
            <gpxtpx:hr>95</gpxtpx:hr>
          </gpxtpx:TrackPointExtension>
        </extensions>
      </trkpt>
      <trkpt lat="46.19281" lon="6.25011">
        <ele>452.5</ele>
        <time>2021-03-02T11:52:10Z</time>
        <extensions>
          <gpxtpx:TrackPointExtension xmlns:gpxtpx="http://www.garmin.com/xmlschemas/TrackPointExtension/v1">
            <gpxtpx:hr>96</gpxtpx:hr>
          </gpxtpx:TrackPointExtension>
        </extensions>
      </trkpt>
      <trkpt lat="46.19281" lon="6.25011">
        <ele>452.5</ele>
        <time>2021-03-02T11:52:11Z</time>
        <extensions>
          <gpxtpx:TrackPointExtension xmlns:gpxtpx="http://www.garmin.com/xmlschemas/TrackPointExtension/v1">
            <gpxtpx:hr>97</gpxtpx:hr>
          </gpxtpx:TrackPointExtension>
        </extensions>
      </trkpt>
      <trkpt lat="46.1928" lon="6.25011">
        <ele>452.5</ele>
        <time>2021-03-02T11:52:12Z</time>
        <extensions>
          <gpxtpx:TrackPointExtension xmlns:gpxtpx="http://www.garmin.com/xmlschemas/TrackPointExtension/v1">
            <gpxtpx:hr>89</gpxtpx:hr>
          </gpxtpx:TrackPointExtension>
        </extensions>
      </trkpt>
      <trkpt lat="46.19282" lon="6.25015">
        <ele>452.6</ele>
        <time>2021-03-02T11:54:12Z</time>
        <extensions>
          <gpxtpx:TrackPointExtension xmlns:gpxtpx="http://www.garmin.com/xmlschemas/TrackPointExtension/v1">
            <gpxtpx:hr>89</gpxtpx:hr>
          </gpxtpx:TrackPointExtension>
        </extensions>
      </trkpt>
      <trkpt lat="46.19282" lon="6.25016">
        <ele>452.6</ele>
        <time>2021-03-02T11:54:13Z</time>
        <extensions>
          <gpxtpx:TrackPointExtension xmlns:gpxtpx="http://www.garmin.com/xmlschemas/TrackPointExtension/v1">
            <gpxtpx:hr>89</gpxtpx:hr>
          </gpxtpx:TrackPointExtension>
        </extensions>
      </trkpt>
      <trkpt lat="46.19282" lon="6.25017">
        <ele>452.6</ele>
        <time>2021-03-02T11:54:14Z</time>
        <extensions>
          <gpxtpx:TrackPointExtension xmlns:gpxtpx="http://www.garmin.com/xmlschemas/TrackPointExtension/v1">
            <gpxtpx:hr>90</gpxtpx:hr>
          </gpxtpx:TrackPointExtension>
        </extensions>
      </trkpt>
      <trkpt lat="46.19282" lon="6.25017">
        <ele>452.6</ele>
        <time>2021-03-02T11:54:15Z</time>
        <extensions>
          <gpxtpx:TrackPointExtension xmlns:gpxtpx="http://www.garmin.com/xmlschemas/TrackPointExtension/v1">
            <gpxtpx:hr>90</gpxtpx:hr>
          </gpxtpx:TrackPointExtension>
        </extensions>
      </trkpt>
      <trkpt lat="46.19282" lon="6.25017">
        <ele>452.6</ele>
        <time>2021-03-02T11:54:16Z</time>
        <extensions>
          <gpxtpx:TrackPointExtension xmlns:gpxtpx="http://www.garmin.com/xmlschemas/TrackPointExtension/v1">
            <gpxtpx:hr>90</gpxtpx:hr>
          </gpxtpx:TrackPointExtension>
        </extensions>
      </trkpt>
      <trkpt lat="46.19282" lon="6.25017">
        <ele>452.6</ele>
        <time>2021-03-02T11:54:17Z</time>
        <extensions>
          <gpxtpx:TrackPointExtension xmlns:gpxtpx="http://www.garmin.com/xmlschemas/TrackPointExtension/v1">
            <gpxtpx:hr>90</gpxtpx:hr>
          </gpxtpx:TrackPointExtension>
        </extensions>
      </trkpt>
      <trkpt lat="46.19283" lon="6.25018">
        <ele>452.6</ele>
        <time>2021-03-02T11:54:20Z</time>
        <extensions>
          <gpxtpx:TrackPointExtension xmlns:gpxtpx="http://www.garmin.com/xmlschemas/TrackPointExtension/v1">
            <gpxtpx:hr>89</gpxtpx:hr>
          </gpxtpx:TrackPointExtension>
        </extensions>
      </trkpt>
      <trkpt lat="46.19283" lon="6.2502">
        <ele>452.7</ele>
        <time>2021-03-02T11:54:21Z</time>
        <extensions>
          <gpxtpx:TrackPointExtension xmlns:gpxtpx="http://www.garmin.com/xmlschemas/TrackPointExtension/v1">
            <gpxtpx:hr>88</gpxtpx:hr>
          </gpxtpx:TrackPointExtension>
        </extensions>
      </trkpt>
      <trkpt lat="46.19283" lon="6.25022">
        <ele>452.7</ele>
        <time>2021-03-02T11:54:22Z</time>
        <extensions>
          <gpxtpx:TrackPointExtension xmlns:gpxtpx="http://www.garmin.com/xmlschemas/TrackPointExtension/v1">
            <gpxtpx:hr>88</gpxtpx:hr>
          </gpxtpx:TrackPointExtension>
        </extensions>
      </trkpt>
      <trkpt lat="46.19283" lon="6.25024">
        <ele>452.7</ele>
        <time>2021-03-02T11:54:23Z</time>
        <extensions>
          <gpxtpx:TrackPointExtension xmlns:gpxtpx="http://www.garmin.com/xmlschemas/TrackPointExtension/v1">
            <gpxtpx:hr>87</gpxtpx:hr>
          </gpxtpx:TrackPointExtension>
        </extensions>
      </trkpt>
      <trkpt lat="46.19283" lon="6.25027">
        <ele>452.7</ele>
        <time>2021-03-02T11:54:24Z</time>
        <extensions>
          <gpxtpx:TrackPointExtension xmlns:gpxtpx="http://www.garmin.com/xmlschemas/TrackPointExtension/v1">
            <gpxtpx:hr>87</gpxtpx:hr>
          </gpxtpx:TrackPointExtension>
        </extensions>
      </trkpt>
      <trkpt lat="46.19283" lon="6.2503">
        <ele>452.8</ele>
        <time>2021-03-02T11:54:25Z</time>
        <extensions>
          <gpxtpx:TrackPointExtension xmlns:gpxtpx="http://www.garmin.com/xmlschemas/TrackPointExtension/v1">
            <gpxtpx:hr>87</gpxtpx:hr>
          </gpxtpx:TrackPointExtension>
        </extensions>
      </trkpt>
      <trkpt lat="46.19283" lon="6.25033">
        <ele>452.8</ele>
        <time>2021-03-02T11:54:26Z</time>
        <extensions>
          <gpxtpx:TrackPointExtension xmlns:gpxtpx="http://www.garmin.com/xmlschemas/TrackPointExtension/v1">
            <gpxtpx:hr>87</gpxtpx:hr>
          </gpxtpx:TrackPointExtension>
        </extensions>
      </trkpt>
      <trkpt lat="46.19283" lon="6.25036">
        <ele>452.8</ele>
        <time>2021-03-02T11:54:27Z</time>
        <extensions>
          <gpxtpx:TrackPointExtension xmlns:gpxtpx="http://www.garmin.com/xmlschemas/TrackPointExtension/v1">
            <gpxtpx:hr>87</gpxtpx:hr>
          </gpxtpx:TrackPointExtension>
        </extensions>
      </trkpt>
      <trkpt lat="46.19283" lon="6.25039">
        <ele>452.9</ele>
        <time>2021-03-02T11:54:28Z</time>
        <extensions>
          <gpxtpx:TrackPointExtension xmlns:gpxtpx="http://www.garmin.com/xmlschemas/TrackPointExtension/v1">
            <gpxtpx:hr>87</gpxtpx:hr>
          </gpxtpx:TrackPointExtension>
        </extensions>
      </trkpt>
      <trkpt lat="46.19283" lon="6.25042">
        <ele>452.9</ele>
        <time>2021-03-02T11:54:29Z</time>
        <extensions>
          <gpxtpx:TrackPointExtension xmlns:gpxtpx="http://www.garmin.com/xmlschemas/TrackPointExtension/v1">
            <gpxtpx:hr>87</gpxtpx:hr>
          </gpxtpx:TrackPointExtension>
        </extensions>
      </trkpt>
      <trkpt lat="46.19283" lon="6.25045">
        <ele>452.9</ele>
        <time>2021-03-02T11:54:30Z</time>
        <extensions>
          <gpxtpx:TrackPointExtension xmlns:gpxtpx="http://www.garmin.com/xmlschemas/TrackPointExtension/v1">
            <gpxtpx:hr>87</gpxtpx:hr>
          </gpxtpx:TrackPointExtension>
        </extensions>
      </trkpt>
      <trkpt lat="46.19282" lon="6.25049">
        <ele>453</ele>
        <time>2021-03-02T11:54:31Z</time>
        <extensions>
          <gpxtpx:TrackPointExtension xmlns:gpxtpx="http://www.garmin.com/xmlschemas/TrackPointExtension/v1">
            <gpxtpx:hr>88</gpxtpx:hr>
          </gpxtpx:TrackPointExtension>
        </extensions>
      </trkpt>
      <trkpt lat="46.19282" lon="6.25053">
        <ele>453</ele>
        <time>2021-03-02T11:54:32Z</time>
        <extensions>
          <gpxtpx:TrackPointExtension xmlns:gpxtpx="http://www.garmin.com/xmlschemas/TrackPointExtension/v1">
            <gpxtpx:hr>88</gpxtpx:hr>
          </gpxtpx:TrackPointExtension>
        </extensions>
      </trkpt>
      <trkpt lat="46.19281" lon="6.25056">
        <ele>453.1</ele>
        <time>2021-03-02T11:54:33Z</time>
        <extensions>
          <gpxtpx:TrackPointExtension xmlns:gpxtpx="http://www.garmin.com/xmlschemas/TrackPointExtension/v1">
            <gpxtpx:hr>87</gpxtpx:hr>
          </gpxtpx:TrackPointExtension>
        </extensions>
      </trkpt>
      <trkpt lat="46.19281" lon="6.2506">
        <ele>453.1</ele>
        <time>2021-03-02T11:54:34Z</time>
        <extensions>
          <gpxtpx:TrackPointExtension xmlns:gpxtpx="http://www.garmin.com/xmlschemas/TrackPointExtension/v1">
            <gpxtpx:hr>87</gpxtpx:hr>
          </gpxtpx:TrackPointExtension>
        </extensions>
      </trkpt>
      <trkpt lat="46.1928" lon="6.25064">
        <ele>453.3</ele>
        <time>2021-03-02T11:54:35Z</time>
        <extensions>
          <gpxtpx:TrackPointExtension xmlns:gpxtpx="http://www.garmin.com/xmlschemas/TrackPointExtension/v1">
            <gpxtpx:hr>87</gpxtpx:hr>
          </gpxtpx:TrackPointExtension>
        </extensions>
      </trkpt>
      <trkpt lat="46.1928" lon="6.25068">
        <ele>453.5</ele>
        <time>2021-03-02T11:54:36Z</time>
        <extensions>
          <gpxtpx:TrackPointExtension xmlns:gpxtpx="http://www.garmin.com/xmlschemas/TrackPointExtension/v1">
            <gpxtpx:hr>87</gpxtpx:hr>
          </gpxtpx:TrackPointExtension>
        </extensions>
      </trkpt>
      <trkpt lat="46.19279" lon="6.25072">
        <ele>453.6</ele>
        <time>2021-03-02T11:54:37Z</time>
        <extensions>
          <gpxtpx:TrackPointExtension xmlns:gpxtpx="http://www.garmin.com/xmlschemas/TrackPointExtension/v1">
            <gpxtpx:hr>86</gpxtpx:hr>
          </gpxtpx:TrackPointExtension>
        </extensions>
      </trkpt>
      <trkpt lat="46.19278" lon="6.25076">
        <ele>453.8</ele>
        <time>2021-03-02T11:54:38Z</time>
        <extensions>
          <gpxtpx:TrackPointExtension xmlns:gpxtpx="http://www.garmin.com/xmlschemas/TrackPointExtension/v1">
            <gpxtpx:hr>86</gpxtpx:hr>
          </gpxtpx:TrackPointExtension>
        </extensions>
      </trkpt>
      <trkpt lat="46.19278" lon="6.25079">
        <ele>454</ele>
        <time>2021-03-02T11:54:39Z</time>
        <extensions>
          <gpxtpx:TrackPointExtension xmlns:gpxtpx="http://www.garmin.com/xmlschemas/TrackPointExtension/v1">
            <gpxtpx:hr>86</gpxtpx:hr>
          </gpxtpx:TrackPointExtension>
        </extensions>
      </trkpt>
      <trkpt lat="46.19277" lon="6.25083">
        <ele>454.1</ele>
        <time>2021-03-02T11:54:40Z</time>
        <extensions>
          <gpxtpx:TrackPointExtension xmlns:gpxtpx="http://www.garmin.com/xmlschemas/TrackPointExtension/v1">
            <gpxtpx:hr>86</gpxtpx:hr>
          </gpxtpx:TrackPointExtension>
        </extensions>
      </trkpt>
      <trkpt lat="46.19277" lon="6.25085">
        <ele>454.2</ele>
        <time>2021-03-02T11:54:41Z</time>
        <extensions>
          <gpxtpx:TrackPointExtension xmlns:gpxtpx="http://www.garmin.com/xmlschemas/TrackPointExtension/v1">
            <gpxtpx:hr>86</gpxtpx:hr>
          </gpxtpx:TrackPointExtension>
        </extensions>
      </trkpt>
      <trkpt lat="46.19276" lon="6.25086">
        <ele>454.2</ele>
        <time>2021-03-02T11:54:42Z</time>
        <extensions>
          <gpxtpx:TrackPointExtension xmlns:gpxtpx="http://www.garmin.com/xmlschemas/TrackPointExtension/v1">
            <gpxtpx:hr>86</gpxtpx:hr>
          </gpxtpx:TrackPointExtension>
        </extensions>
      </trkpt>
      <trkpt lat="46.19277" lon="6.25086">
        <ele>454.2</ele>
        <time>2021-03-02T11:54:43Z</time>
        <extensions>
          <gpxtpx:TrackPointExtension xmlns:gpxtpx="http://www.garmin.com/xmlschemas/TrackPointExtension/v1">
            <gpxtpx:hr>86</gpxtpx:hr>
          </gpxtpx:TrackPointExtension>
        </extensions>
      </trkpt>
      <trkpt lat="46.19277" lon="6.25086">
        <ele>454.3</ele>
        <time>2021-03-02T11:54:44Z</time>
        <extensions>
          <gpxtpx:TrackPointExtension xmlns:gpxtpx="http://www.garmin.com/xmlschemas/TrackPointExtension/v1">
            <gpxtpx:hr>86</gpxtpx:hr>
          </gpxtpx:TrackPointExtension>
        </extensions>
      </trkpt>
      <trkpt lat="46.19277" lon="6.25086">
        <ele>454.3</ele>
        <time>2021-03-02T11:54:45Z</time>
        <extensions>
          <gpxtpx:TrackPointExtension xmlns:gpxtpx="http://www.garmin.com/xmlschemas/TrackPointExtension/v1">
            <gpxtpx:hr>86</gpxtpx:hr>
          </gpxtpx:TrackPointExtension>
        </extensions>
      </trkpt>
      <trkpt lat="46.19277" lon="6.25087">
        <ele>454.3</ele>
        <time>2021-03-02T11:54:46Z</time>
        <extensions>
          <gpxtpx:TrackPointExtension xmlns:gpxtpx="http://www.garmin.com/xmlschemas/TrackPointExtension/v1">
            <gpxtpx:hr>87</gpxtpx:hr>
          </gpxtpx:TrackPointExtension>
        </extensions>
      </trkpt>
      <trkpt lat="46.19277" lon="6.25089">
        <ele>454.4</ele>
        <time>2021-03-02T11:54:47Z</time>
        <extensions>
          <gpxtpx:TrackPointExtension xmlns:gpxtpx="http://www.garmin.com/xmlschemas/TrackPointExtension/v1">
            <gpxtpx:hr>88</gpxtpx:hr>
          </gpxtpx:TrackPointExtension>
        </extensions>
      </trkpt>
      <trkpt lat="46.19277" lon="6.2509">
        <ele>454.4</ele>
        <time>2021-03-02T11:54:48Z</time>
        <extensions>
          <gpxtpx:TrackPointExtension xmlns:gpxtpx="http://www.garmin.com/xmlschemas/TrackPointExtension/v1">
            <gpxtpx:hr>88</gpxtpx:hr>
          </gpxtpx:TrackPointExtension>
        </extensions>
      </trkpt>
      <trkpt lat="46.19278" lon="6.25091">
        <ele>454.5</ele>
        <time>2021-03-02T11:54:49Z</time>
        <extensions>
          <gpxtpx:TrackPointExtension xmlns:gpxtpx="http://www.garmin.com/xmlschemas/TrackPointExtension/v1">
            <gpxtpx:hr>89</gpxtpx:hr>
          </gpxtpx:TrackPointExtension>
        </extensions>
      </trkpt>
      <trkpt lat="46.19278" lon="6.25091">
        <ele>454.5</ele>
        <time>2021-03-02T11:54:50Z</time>
        <extensions>
          <gpxtpx:TrackPointExtension xmlns:gpxtpx="http://www.garmin.com/xmlschemas/TrackPointExtension/v1">
            <gpxtpx:hr>89</gpxtpx:hr>
          </gpxtpx:TrackPointExtension>
        </extensions>
      </trkpt>
      <trkpt lat="46.19278" lon="6.25091">
        <ele>454.5</ele>
        <time>2021-03-02T11:54:51Z</time>
        <extensions>
          <gpxtpx:TrackPointExtension xmlns:gpxtpx="http://www.garmin.com/xmlschemas/TrackPointExtension/v1">
            <gpxtpx:hr>90</gpxtpx:hr>
          </gpxtpx:TrackPointExtension>
        </extensions>
      </trkpt>
      <trkpt lat="46.19279" lon="6.25091">
        <ele>454.5</ele>
        <time>2021-03-02T11:54:52Z</time>
        <extensions>
          <gpxtpx:TrackPointExtension xmlns:gpxtpx="http://www.garmin.com/xmlschemas/TrackPointExtension/v1">
            <gpxtpx:hr>90</gpxtpx:hr>
          </gpxtpx:TrackPointExtension>
        </extensions>
      </trkpt>
      <trkpt lat="46.19279" lon="6.25091">
        <ele>454.6</ele>
        <time>2021-03-02T11:54:53Z</time>
        <extensions>
          <gpxtpx:TrackPointExtension xmlns:gpxtpx="http://www.garmin.com/xmlschemas/TrackPointExtension/v1">
            <gpxtpx:hr>90</gpxtpx:hr>
          </gpxtpx:TrackPointExtension>
        </extensions>
      </trkpt>
      <trkpt lat="46.19279" lon="6.25092">
        <ele>454.6</ele>
        <time>2021-03-02T11:54:54Z</time>
        <extensions>
          <gpxtpx:TrackPointExtension xmlns:gpxtpx="http://www.garmin.com/xmlschemas/TrackPointExtension/v1">
            <gpxtpx:hr>90</gpxtpx:hr>
          </gpxtpx:TrackPointExtension>
        </extensions>
      </trkpt>
      <trkpt lat="46.19279" lon="6.25094">
        <ele>454.7</ele>
        <time>2021-03-02T11:54:55Z</time>
        <extensions>
          <gpxtpx:TrackPointExtension xmlns:gpxtpx="http://www.garmin.com/xmlschemas/TrackPointExtension/v1">
            <gpxtpx:hr>90</gpxtpx:hr>
          </gpxtpx:TrackPointExtension>
        </extensions>
      </trkpt>
      <trkpt lat="46.1928" lon="6.25097">
        <ele>454.8</ele>
        <time>2021-03-02T11:54:56Z</time>
        <extensions>
          <gpxtpx:TrackPointExtension xmlns:gpxtpx="http://www.garmin.com/xmlschemas/TrackPointExtension/v1">
            <gpxtpx:hr>90</gpxtpx:hr>
          </gpxtpx:TrackPointExtension>
        </extensions>
      </trkpt>
      <trkpt lat="46.1928" lon="6.25099">
        <ele>454.9</ele>
        <time>2021-03-02T11:54:57Z</time>
        <extensions>
          <gpxtpx:TrackPointExtension xmlns:gpxtpx="http://www.garmin.com/xmlschemas/TrackPointExtension/v1">
            <gpxtpx:hr>90</gpxtpx:hr>
          </gpxtpx:TrackPointExtension>
        </extensions>
      </trkpt>
      <trkpt lat="46.19279" lon="6.25102">
        <ele>455</ele>
        <time>2021-03-02T11:54:58Z</time>
        <extensions>
          <gpxtpx:TrackPointExtension xmlns:gpxtpx="http://www.garmin.com/xmlschemas/TrackPointExtension/v1">
            <gpxtpx:hr>90</gpxtpx:hr>
          </gpxtpx:TrackPointExtension>
        </extensions>
      </trkpt>
      <trkpt lat="46.19278" lon="6.25104">
        <ele>455.1</ele>
        <time>2021-03-02T11:54:59Z</time>
        <extensions>
          <gpxtpx:TrackPointExtension xmlns:gpxtpx="http://www.garmin.com/xmlschemas/TrackPointExtension/v1">
            <gpxtpx:hr>90</gpxtpx:hr>
          </gpxtpx:TrackPointExtension>
        </extensions>
      </trkpt>
      <trkpt lat="46.19276" lon="6.25105">
        <ele>455.4</ele>
        <time>2021-03-02T11:55:00Z</time>
        <extensions>
          <gpxtpx:TrackPointExtension xmlns:gpxtpx="http://www.garmin.com/xmlschemas/TrackPointExtension/v1">
            <gpxtpx:hr>90</gpxtpx:hr>
          </gpxtpx:TrackPointExtension>
        </extensions>
      </trkpt>
      <trkpt lat="46.19274" lon="6.25106">
        <ele>455.5</ele>
        <time>2021-03-02T11:55:01Z</time>
        <extensions>
          <gpxtpx:TrackPointExtension xmlns:gpxtpx="http://www.garmin.com/xmlschemas/TrackPointExtension/v1">
            <gpxtpx:hr>90</gpxtpx:hr>
          </gpxtpx:TrackPointExtension>
        </extensions>
      </trkpt>
      <trkpt lat="46.19272" lon="6.25107">
        <ele>455.5</ele>
        <time>2021-03-02T11:55:02Z</time>
        <extensions>
          <gpxtpx:TrackPointExtension xmlns:gpxtpx="http://www.garmin.com/xmlschemas/TrackPointExtension/v1">
            <gpxtpx:hr>91</gpxtpx:hr>
          </gpxtpx:TrackPointExtension>
        </extensions>
      </trkpt>
      <trkpt lat="46.19269" lon="6.25107">
        <ele>455.5</ele>
        <time>2021-03-02T11:55:03Z</time>
        <extensions>
          <gpxtpx:TrackPointExtension xmlns:gpxtpx="http://www.garmin.com/xmlschemas/TrackPointExtension/v1">
            <gpxtpx:hr>91</gpxtpx:hr>
          </gpxtpx:TrackPointExtension>
        </extensions>
      </trkpt>
      <trkpt lat="46.19266" lon="6.25108">
        <ele>455.6</ele>
        <time>2021-03-02T11:55:04Z</time>
        <extensions>
          <gpxtpx:TrackPointExtension xmlns:gpxtpx="http://www.garmin.com/xmlschemas/TrackPointExtension/v1">
            <gpxtpx:hr>91</gpxtpx:hr>
          </gpxtpx:TrackPointExtension>
        </extensions>
      </trkpt>
      <trkpt lat="46.19262" lon="6.25108">
        <ele>455.6</ele>
        <time>2021-03-02T11:55:05Z</time>
        <extensions>
          <gpxtpx:TrackPointExtension xmlns:gpxtpx="http://www.garmin.com/xmlschemas/TrackPointExtension/v1">
            <gpxtpx:hr>90</gpxtpx:hr>
          </gpxtpx:TrackPointExtension>
        </extensions>
      </trkpt>
      <trkpt lat="46.19259" lon="6.25109">
        <ele>455.7</ele>
        <time>2021-03-02T11:55:06Z</time>
        <extensions>
          <gpxtpx:TrackPointExtension xmlns:gpxtpx="http://www.garmin.com/xmlschemas/TrackPointExtension/v1">
            <gpxtpx:hr>91</gpxtpx:hr>
          </gpxtpx:TrackPointExtension>
        </extensions>
      </trkpt>
      <trkpt lat="46.19255" lon="6.2511">
        <ele>455.8</ele>
        <time>2021-03-02T11:55:07Z</time>
        <extensions>
          <gpxtpx:TrackPointExtension xmlns:gpxtpx="http://www.garmin.com/xmlschemas/TrackPointExtension/v1">
            <gpxtpx:hr>91</gpxtpx:hr>
          </gpxtpx:TrackPointExtension>
        </extensions>
      </trkpt>
      <trkpt lat="46.1925" lon="6.2511">
        <ele>456</ele>
        <time>2021-03-02T11:55:08Z</time>
        <extensions>
          <gpxtpx:TrackPointExtension xmlns:gpxtpx="http://www.garmin.com/xmlschemas/TrackPointExtension/v1">
            <gpxtpx:hr>91</gpxtpx:hr>
          </gpxtpx:TrackPointExtension>
        </extensions>
      </trkpt>
      <trkpt lat="46.19246" lon="6.25111">
        <ele>456.1</ele>
        <time>2021-03-02T11:55:09Z</time>
        <extensions>
          <gpxtpx:TrackPointExtension xmlns:gpxtpx="http://www.garmin.com/xmlschemas/TrackPointExtension/v1">
            <gpxtpx:hr>91</gpxtpx:hr>
          </gpxtpx:TrackPointExtension>
        </extensions>
      </trkpt>
      <trkpt lat="46.19242" lon="6.25111">
        <ele>456.3</ele>
        <time>2021-03-02T11:55:10Z</time>
        <extensions>
          <gpxtpx:TrackPointExtension xmlns:gpxtpx="http://www.garmin.com/xmlschemas/TrackPointExtension/v1">
            <gpxtpx:hr>91</gpxtpx:hr>
          </gpxtpx:TrackPointExtension>
        </extensions>
      </trkpt>
      <trkpt lat="46.19237" lon="6.25112">
        <ele>456.4</ele>
        <time>2021-03-02T11:55:11Z</time>
        <extensions>
          <gpxtpx:TrackPointExtension xmlns:gpxtpx="http://www.garmin.com/xmlschemas/TrackPointExtension/v1">
            <gpxtpx:hr>91</gpxtpx:hr>
          </gpxtpx:TrackPointExtension>
        </extensions>
      </trkpt>
      <trkpt lat="46.19233" lon="6.25112">
        <ele>456.5</ele>
        <time>2021-03-02T11:55:12Z</time>
        <extensions>
          <gpxtpx:TrackPointExtension xmlns:gpxtpx="http://www.garmin.com/xmlschemas/TrackPointExtension/v1">
            <gpxtpx:hr>91</gpxtpx:hr>
          </gpxtpx:TrackPointExtension>
        </extensions>
      </trkpt>
      <trkpt lat="46.19228" lon="6.25112">
        <ele>456.6</ele>
        <time>2021-03-02T11:55:13Z</time>
        <extensions>
          <gpxtpx:TrackPointExtension xmlns:gpxtpx="http://www.garmin.com/xmlschemas/TrackPointExtension/v1">
            <gpxtpx:hr>92</gpxtpx:hr>
          </gpxtpx:TrackPointExtension>
        </extensions>
      </trkpt>
      <trkpt lat="46.19224" lon="6.25113">
        <ele>456.6</ele>
        <time>2021-03-02T11:55:14Z</time>
        <extensions>
          <gpxtpx:TrackPointExtension xmlns:gpxtpx="http://www.garmin.com/xmlschemas/TrackPointExtension/v1">
            <gpxtpx:hr>92</gpxtpx:hr>
          </gpxtpx:TrackPointExtension>
        </extensions>
      </trkpt>
      <trkpt lat="46.19219" lon="6.25113">
        <ele>456.8</ele>
        <time>2021-03-02T11:55:15Z</time>
        <extensions>
          <gpxtpx:TrackPointExtension xmlns:gpxtpx="http://www.garmin.com/xmlschemas/TrackPointExtension/v1">
            <gpxtpx:hr>92</gpxtpx:hr>
          </gpxtpx:TrackPointExtension>
        </extensions>
      </trkpt>
      <trkpt lat="46.19214" lon="6.25111">
        <ele>457</ele>
        <time>2021-03-02T11:55:16Z</time>
        <extensions>
          <gpxtpx:TrackPointExtension xmlns:gpxtpx="http://www.garmin.com/xmlschemas/TrackPointExtension/v1">
            <gpxtpx:hr>92</gpxtpx:hr>
          </gpxtpx:TrackPointExtension>
        </extensions>
      </trkpt>
      <trkpt lat="46.1921" lon="6.25108">
        <ele>457.1</ele>
        <time>2021-03-02T11:55:17Z</time>
        <extensions>
          <gpxtpx:TrackPointExtension xmlns:gpxtpx="http://www.garmin.com/xmlschemas/TrackPointExtension/v1">
            <gpxtpx:hr>92</gpxtpx:hr>
          </gpxtpx:TrackPointExtension>
        </extensions>
      </trkpt>
      <trkpt lat="46.19206" lon="6.25104">
        <ele>457.3</ele>
        <time>2021-03-02T11:55:18Z</time>
        <extensions>
          <gpxtpx:TrackPointExtension xmlns:gpxtpx="http://www.garmin.com/xmlschemas/TrackPointExtension/v1">
            <gpxtpx:hr>92</gpxtpx:hr>
          </gpxtpx:TrackPointExtension>
        </extensions>
      </trkpt>
      <trkpt lat="46.19202" lon="6.251">
        <ele>457.4</ele>
        <time>2021-03-02T11:55:19Z</time>
        <extensions>
          <gpxtpx:TrackPointExtension xmlns:gpxtpx="http://www.garmin.com/xmlschemas/TrackPointExtension/v1">
            <gpxtpx:hr>92</gpxtpx:hr>
          </gpxtpx:TrackPointExtension>
        </extensions>
      </trkpt>
      <trkpt lat="46.19198" lon="6.25094">
        <ele>457.6</ele>
        <time>2021-03-02T11:55:20Z</time>
        <extensions>
          <gpxtpx:TrackPointExtension xmlns:gpxtpx="http://www.garmin.com/xmlschemas/TrackPointExtension/v1">
            <gpxtpx:hr>92</gpxtpx:hr>
          </gpxtpx:TrackPointExtension>
        </extensions>
      </trkpt>
      <trkpt lat="46.19195" lon="6.25089">
        <ele>457.8</ele>
        <time>2021-03-02T11:55:21Z</time>
        <extensions>
          <gpxtpx:TrackPointExtension xmlns:gpxtpx="http://www.garmin.com/xmlschemas/TrackPointExtension/v1">
            <gpxtpx:hr>92</gpxtpx:hr>
          </gpxtpx:TrackPointExtension>
        </extensions>
      </trkpt>
      <trkpt lat="46.19192" lon="6.25083">
        <ele>457.8</ele>
        <time>2021-03-02T11:55:22Z</time>
        <extensions>
          <gpxtpx:TrackPointExtension xmlns:gpxtpx="http://www.garmin.com/xmlschemas/TrackPointExtension/v1">
            <gpxtpx:hr>92</gpxtpx:hr>
          </gpxtpx:TrackPointExtension>
        </extensions>
      </trkpt>
      <trkpt lat="46.19188" lon="6.25078">
        <ele>457.9</ele>
        <time>2021-03-02T11:55:23Z</time>
        <extensions>
          <gpxtpx:TrackPointExtension xmlns:gpxtpx="http://www.garmin.com/xmlschemas/TrackPointExtension/v1">
            <gpxtpx:hr>93</gpxtpx:hr>
          </gpxtpx:TrackPointExtension>
        </extensions>
      </trkpt>
      <trkpt lat="46.19185" lon="6.25075">
        <ele>457.9</ele>
        <time>2021-03-02T11:55:24Z</time>
        <extensions>
          <gpxtpx:TrackPointExtension xmlns:gpxtpx="http://www.garmin.com/xmlschemas/TrackPointExtension/v1">
            <gpxtpx:hr>93</gpxtpx:hr>
          </gpxtpx:TrackPointExtension>
        </extensions>
      </trkpt>
      <trkpt lat="46.19181" lon="6.25073">
        <ele>458</ele>
        <time>2021-03-02T11:55:25Z</time>
        <extensions>
          <gpxtpx:TrackPointExtension xmlns:gpxtpx="http://www.garmin.com/xmlschemas/TrackPointExtension/v1">
            <gpxtpx:hr>93</gpxtpx:hr>
          </gpxtpx:TrackPointExtension>
        </extensions>
      </trkpt>
      <trkpt lat="46.19179" lon="6.25071">
        <ele>458</ele>
        <time>2021-03-02T11:55:26Z</time>
        <extensions>
          <gpxtpx:TrackPointExtension xmlns:gpxtpx="http://www.garmin.com/xmlschemas/TrackPointExtension/v1">
            <gpxtpx:hr>93</gpxtpx:hr>
          </gpxtpx:TrackPointExtension>
        </extensions>
      </trkpt>
      <trkpt lat="46.19177" lon="6.25071">
        <ele>458</ele>
        <time>2021-03-02T11:55:27Z</time>
        <extensions>
          <gpxtpx:TrackPointExtension xmlns:gpxtpx="http://www.garmin.com/xmlschemas/TrackPointExtension/v1">
            <gpxtpx:hr>94</gpxtpx:hr>
          </gpxtpx:TrackPointExtension>
        </extensions>
      </trkpt>
      <trkpt lat="46.19176" lon="6.25071">
        <ele>458</ele>
        <time>2021-03-02T11:55:28Z</time>
        <extensions>
          <gpxtpx:TrackPointExtension xmlns:gpxtpx="http://www.garmin.com/xmlschemas/TrackPointExtension/v1">
            <gpxtpx:hr>95</gpxtpx:hr>
          </gpxtpx:TrackPointExtension>
        </extensions>
      </trkpt>
      <trkpt lat="46.19173" lon="6.25071">
        <ele>458.1</ele>
        <time>2021-03-02T11:55:29Z</time>
        <extensions>
          <gpxtpx:TrackPointExtension xmlns:gpxtpx="http://www.garmin.com/xmlschemas/TrackPointExtension/v1">
            <gpxtpx:hr>96</gpxtpx:hr>
          </gpxtpx:TrackPointExtension>
        </extensions>
      </trkpt>
      <trkpt lat="46.1917" lon="6.25069">
        <ele>458.3</ele>
        <time>2021-03-02T11:55:30Z</time>
        <extensions>
          <gpxtpx:TrackPointExtension xmlns:gpxtpx="http://www.garmin.com/xmlschemas/TrackPointExtension/v1">
            <gpxtpx:hr>96</gpxtpx:hr>
          </gpxtpx:TrackPointExtension>
        </extensions>
      </trkpt>
      <trkpt lat="46.19166" lon="6.25067">
        <ele>458.5</ele>
        <time>2021-03-02T11:55:31Z</time>
        <extensions>
          <gpxtpx:TrackPointExtension xmlns:gpxtpx="http://www.garmin.com/xmlschemas/TrackPointExtension/v1">
            <gpxtpx:hr>96</gpxtpx:hr>
          </gpxtpx:TrackPointExtension>
        </extensions>
      </trkpt>
      <trkpt lat="46.19162" lon="6.25063">
        <ele>458.7</ele>
        <time>2021-03-02T11:55:32Z</time>
        <extensions>
          <gpxtpx:TrackPointExtension xmlns:gpxtpx="http://www.garmin.com/xmlschemas/TrackPointExtension/v1">
            <gpxtpx:hr>96</gpxtpx:hr>
          </gpxtpx:TrackPointExtension>
        </extensions>
      </trkpt>
      <trkpt lat="46.19158" lon="6.25059">
        <ele>458.6</ele>
        <time>2021-03-02T11:55:33Z</time>
        <extensions>
          <gpxtpx:TrackPointExtension xmlns:gpxtpx="http://www.garmin.com/xmlschemas/TrackPointExtension/v1">
            <gpxtpx:hr>96</gpxtpx:hr>
          </gpxtpx:TrackPointExtension>
        </extensions>
      </trkpt>
      <trkpt lat="46.19152" lon="6.25055">
        <ele>458.2</ele>
        <time>2021-03-02T11:55:34Z</time>
        <extensions>
          <gpxtpx:TrackPointExtension xmlns:gpxtpx="http://www.garmin.com/xmlschemas/TrackPointExtension/v1">
            <gpxtpx:hr>96</gpxtpx:hr>
          </gpxtpx:TrackPointExtension>
        </extensions>
      </trkpt>
      <trkpt lat="46.19147" lon="6.25053">
        <ele>457.9</ele>
        <time>2021-03-02T11:55:35Z</time>
        <extensions>
          <gpxtpx:TrackPointExtension xmlns:gpxtpx="http://www.garmin.com/xmlschemas/TrackPointExtension/v1">
            <gpxtpx:hr>96</gpxtpx:hr>
          </gpxtpx:TrackPointExtension>
        </extensions>
      </trkpt>
      <trkpt lat="46.19141" lon="6.25053">
        <ele>457.7</ele>
        <time>2021-03-02T11:55:36Z</time>
        <extensions>
          <gpxtpx:TrackPointExtension xmlns:gpxtpx="http://www.garmin.com/xmlschemas/TrackPointExtension/v1">
            <gpxtpx:hr>96</gpxtpx:hr>
          </gpxtpx:TrackPointExtension>
        </extensions>
      </trkpt>
      <trkpt lat="46.19135" lon="6.25056">
        <ele>457.8</ele>
        <time>2021-03-02T11:55:37Z</time>
        <extensions>
          <gpxtpx:TrackPointExtension xmlns:gpxtpx="http://www.garmin.com/xmlschemas/TrackPointExtension/v1">
            <gpxtpx:hr>96</gpxtpx:hr>
          </gpxtpx:TrackPointExtension>
        </extensions>
      </trkpt>
      <trkpt lat="46.1913" lon="6.2506">
        <ele>457.8</ele>
        <time>2021-03-02T11:55:38Z</time>
        <extensions>
          <gpxtpx:TrackPointExtension xmlns:gpxtpx="http://www.garmin.com/xmlschemas/TrackPointExtension/v1">
            <gpxtpx:hr>96</gpxtpx:hr>
          </gpxtpx:TrackPointExtension>
        </extensions>
      </trkpt>
      <trkpt lat="46.19125" lon="6.25064">
        <ele>457.9</ele>
        <time>2021-03-02T11:55:39Z</time>
        <extensions>
          <gpxtpx:TrackPointExtension xmlns:gpxtpx="http://www.garmin.com/xmlschemas/TrackPointExtension/v1">
            <gpxtpx:hr>96</gpxtpx:hr>
          </gpxtpx:TrackPointExtension>
        </extensions>
      </trkpt>
      <trkpt lat="46.19122" lon="6.25071">
        <ele>457.9</ele>
        <time>2021-03-02T11:55:40Z</time>
        <extensions>
          <gpxtpx:TrackPointExtension xmlns:gpxtpx="http://www.garmin.com/xmlschemas/TrackPointExtension/v1">
            <gpxtpx:hr>96</gpxtpx:hr>
          </gpxtpx:TrackPointExtension>
        </extensions>
      </trkpt>
      <trkpt lat="46.1912" lon="6.25078">
        <ele>458</ele>
        <time>2021-03-02T11:55:41Z</time>
        <extensions>
          <gpxtpx:TrackPointExtension xmlns:gpxtpx="http://www.garmin.com/xmlschemas/TrackPointExtension/v1">
            <gpxtpx:hr>95</gpxtpx:hr>
          </gpxtpx:TrackPointExtension>
        </extensions>
      </trkpt>
      <trkpt lat="46.19118" lon="6.25085">
        <ele>458.1</ele>
        <time>2021-03-02T11:55:42Z</time>
        <extensions>
          <gpxtpx:TrackPointExtension xmlns:gpxtpx="http://www.garmin.com/xmlschemas/TrackPointExtension/v1">
            <gpxtpx:hr>95</gpxtpx:hr>
          </gpxtpx:TrackPointExtension>
        </extensions>
      </trkpt>
      <trkpt lat="46.19115" lon="6.25092">
        <ele>458.1</ele>
        <time>2021-03-02T11:55:43Z</time>
        <extensions>
          <gpxtpx:TrackPointExtension xmlns:gpxtpx="http://www.garmin.com/xmlschemas/TrackPointExtension/v1">
            <gpxtpx:hr>94</gpxtpx:hr>
          </gpxtpx:TrackPointExtension>
        </extensions>
      </trkpt>
      <trkpt lat="46.19111" lon="6.25098">
        <ele>458.1</ele>
        <time>2021-03-02T11:55:44Z</time>
        <extensions>
          <gpxtpx:TrackPointExtension xmlns:gpxtpx="http://www.garmin.com/xmlschemas/TrackPointExtension/v1">
            <gpxtpx:hr>93</gpxtpx:hr>
          </gpxtpx:TrackPointExtension>
        </extensions>
      </trkpt>
      <trkpt lat="46.19107" lon="6.25103">
        <ele>457.8</ele>
        <time>2021-03-02T11:55:45Z</time>
        <extensions>
          <gpxtpx:TrackPointExtension xmlns:gpxtpx="http://www.garmin.com/xmlschemas/TrackPointExtension/v1">
            <gpxtpx:hr>92</gpxtpx:hr>
          </gpxtpx:TrackPointExtension>
        </extensions>
      </trkpt>
      <trkpt lat="46.19101" lon="6.25108">
        <ele>457.6</ele>
        <time>2021-03-02T11:55:46Z</time>
        <extensions>
          <gpxtpx:TrackPointExtension xmlns:gpxtpx="http://www.garmin.com/xmlschemas/TrackPointExtension/v1">
            <gpxtpx:hr>90</gpxtpx:hr>
          </gpxtpx:TrackPointExtension>
        </extensions>
      </trkpt>
      <trkpt lat="46.19095" lon="6.25111">
        <ele>457.4</ele>
        <time>2021-03-02T11:55:47Z</time>
        <extensions>
          <gpxtpx:TrackPointExtension xmlns:gpxtpx="http://www.garmin.com/xmlschemas/TrackPointExtension/v1">
            <gpxtpx:hr>88</gpxtpx:hr>
          </gpxtpx:TrackPointExtension>
        </extensions>
      </trkpt>
      <trkpt lat="46.19088" lon="6.25114">
        <ele>457.2</ele>
        <time>2021-03-02T11:55:48Z</time>
        <extensions>
          <gpxtpx:TrackPointExtension xmlns:gpxtpx="http://www.garmin.com/xmlschemas/TrackPointExtension/v1">
            <gpxtpx:hr>87</gpxtpx:hr>
          </gpxtpx:TrackPointExtension>
        </extensions>
      </trkpt>
      <trkpt lat="46.1908" lon="6.25115">
        <ele>457.1</ele>
        <time>2021-03-02T11:55:49Z</time>
        <extensions>
          <gpxtpx:TrackPointExtension xmlns:gpxtpx="http://www.garmin.com/xmlschemas/TrackPointExtension/v1">
            <gpxtpx:hr>86</gpxtpx:hr>
          </gpxtpx:TrackPointExtension>
        </extensions>
      </trkpt>
      <trkpt lat="46.19072" lon="6.25114">
        <ele>457.1</ele>
        <time>2021-03-02T11:55:50Z</time>
        <extensions>
          <gpxtpx:TrackPointExtension xmlns:gpxtpx="http://www.garmin.com/xmlschemas/TrackPointExtension/v1">
            <gpxtpx:hr>85</gpxtpx:hr>
          </gpxtpx:TrackPointExtension>
        </extensions>
      </trkpt>
      <trkpt lat="46.19064" lon="6.25113">
        <ele>457</ele>
        <time>2021-03-02T11:55:51Z</time>
        <extensions>
          <gpxtpx:TrackPointExtension xmlns:gpxtpx="http://www.garmin.com/xmlschemas/TrackPointExtension/v1">
            <gpxtpx:hr>85</gpxtpx:hr>
          </gpxtpx:TrackPointExtension>
        </extensions>
      </trkpt>
      <trkpt lat="46.19057" lon="6.2511">
        <ele>457.1</ele>
        <time>2021-03-02T11:55:52Z</time>
        <extensions>
          <gpxtpx:TrackPointExtension xmlns:gpxtpx="http://www.garmin.com/xmlschemas/TrackPointExtension/v1">
            <gpxtpx:hr>84</gpxtpx:hr>
          </gpxtpx:TrackPointExtension>
        </extensions>
      </trkpt>
      <trkpt lat="46.1905" lon="6.25106">
        <ele>457.1</ele>
        <time>2021-03-02T11:55:53Z</time>
        <extensions>
          <gpxtpx:TrackPointExtension xmlns:gpxtpx="http://www.garmin.com/xmlschemas/TrackPointExtension/v1">
            <gpxtpx:hr>84</gpxtpx:hr>
          </gpxtpx:TrackPointExtension>
        </extensions>
      </trkpt>
      <trkpt lat="46.19044" lon="6.25102">
        <ele>457.2</ele>
        <time>2021-03-02T11:55:54Z</time>
        <extensions>
          <gpxtpx:TrackPointExtension xmlns:gpxtpx="http://www.garmin.com/xmlschemas/TrackPointExtension/v1">
            <gpxtpx:hr>84</gpxtpx:hr>
          </gpxtpx:TrackPointExtension>
        </extensions>
      </trkpt>
      <trkpt lat="46.19039" lon="6.25096">
        <ele>457.3</ele>
        <time>2021-03-02T11:55:55Z</time>
        <extensions>
          <gpxtpx:TrackPointExtension xmlns:gpxtpx="http://www.garmin.com/xmlschemas/TrackPointExtension/v1">
            <gpxtpx:hr>84</gpxtpx:hr>
          </gpxtpx:TrackPointExtension>
        </extensions>
      </trkpt>
      <trkpt lat="46.19035" lon="6.25089">
        <ele>457.2</ele>
        <time>2021-03-02T11:55:56Z</time>
        <extensions>
          <gpxtpx:TrackPointExtension xmlns:gpxtpx="http://www.garmin.com/xmlschemas/TrackPointExtension/v1">
            <gpxtpx:hr>84</gpxtpx:hr>
          </gpxtpx:TrackPointExtension>
        </extensions>
      </trkpt>
      <trkpt lat="46.1903" lon="6.25084">
        <ele>457</ele>
        <time>2021-03-02T11:55:57Z</time>
        <extensions>
          <gpxtpx:TrackPointExtension xmlns:gpxtpx="http://www.garmin.com/xmlschemas/TrackPointExtension/v1">
            <gpxtpx:hr>84</gpxtpx:hr>
          </gpxtpx:TrackPointExtension>
        </extensions>
      </trkpt>
      <trkpt lat="46.19024" lon="6.25082">
        <ele>457.2</ele>
        <time>2021-03-02T11:55:58Z</time>
        <extensions>
          <gpxtpx:TrackPointExtension xmlns:gpxtpx="http://www.garmin.com/xmlschemas/TrackPointExtension/v1">
            <gpxtpx:hr>85</gpxtpx:hr>
          </gpxtpx:TrackPointExtension>
        </extensions>
      </trkpt>
      <trkpt lat="46.19018" lon="6.25082">
        <ele>457.6</ele>
        <time>2021-03-02T11:55:59Z</time>
        <extensions>
          <gpxtpx:TrackPointExtension xmlns:gpxtpx="http://www.garmin.com/xmlschemas/TrackPointExtension/v1">
            <gpxtpx:hr>85</gpxtpx:hr>
          </gpxtpx:TrackPointExtension>
        </extensions>
      </trkpt>
      <trkpt lat="46.19012" lon="6.2508">
        <ele>457.7</ele>
        <time>2021-03-02T11:56:00Z</time>
        <extensions>
          <gpxtpx:TrackPointExtension xmlns:gpxtpx="http://www.garmin.com/xmlschemas/TrackPointExtension/v1">
            <gpxtpx:hr>86</gpxtpx:hr>
          </gpxtpx:TrackPointExtension>
        </extensions>
      </trkpt>
      <trkpt lat="46.19007" lon="6.25078">
        <ele>457.9</ele>
        <time>2021-03-02T11:56:01Z</time>
        <extensions>
          <gpxtpx:TrackPointExtension xmlns:gpxtpx="http://www.garmin.com/xmlschemas/TrackPointExtension/v1">
            <gpxtpx:hr>86</gpxtpx:hr>
          </gpxtpx:TrackPointExtension>
        </extensions>
      </trkpt>
      <trkpt lat="46.19001" lon="6.25075">
        <ele>458.1</ele>
        <time>2021-03-02T11:56:02Z</time>
        <extensions>
          <gpxtpx:TrackPointExtension xmlns:gpxtpx="http://www.garmin.com/xmlschemas/TrackPointExtension/v1">
            <gpxtpx:hr>87</gpxtpx:hr>
          </gpxtpx:TrackPointExtension>
        </extensions>
      </trkpt>
      <trkpt lat="46.18996" lon="6.25073">
        <ele>458.3</ele>
        <time>2021-03-02T11:56:03Z</time>
        <extensions>
          <gpxtpx:TrackPointExtension xmlns:gpxtpx="http://www.garmin.com/xmlschemas/TrackPointExtension/v1">
            <gpxtpx:hr>88</gpxtpx:hr>
          </gpxtpx:TrackPointExtension>
        </extensions>
      </trkpt>
      <trkpt lat="46.1899" lon="6.25071">
        <ele>458.5</ele>
        <time>2021-03-02T11:56:04Z</time>
        <extensions>
          <gpxtpx:TrackPointExtension xmlns:gpxtpx="http://www.garmin.com/xmlschemas/TrackPointExtension/v1">
            <gpxtpx:hr>88</gpxtpx:hr>
          </gpxtpx:TrackPointExtension>
        </extensions>
      </trkpt>
      <trkpt lat="46.18984" lon="6.2507">
        <ele>458.7</ele>
        <time>2021-03-02T11:56:05Z</time>
        <extensions>
          <gpxtpx:TrackPointExtension xmlns:gpxtpx="http://www.garmin.com/xmlschemas/TrackPointExtension/v1">
            <gpxtpx:hr>89</gpxtpx:hr>
          </gpxtpx:TrackPointExtension>
        </extensions>
      </trkpt>
      <trkpt lat="46.18979" lon="6.25069">
        <ele>458.9</ele>
        <time>2021-03-02T11:56:06Z</time>
        <extensions>
          <gpxtpx:TrackPointExtension xmlns:gpxtpx="http://www.garmin.com/xmlschemas/TrackPointExtension/v1">
            <gpxtpx:hr>88</gpxtpx:hr>
          </gpxtpx:TrackPointExtension>
        </extensions>
      </trkpt>
      <trkpt lat="46.18973" lon="6.25068">
        <ele>459.1</ele>
        <time>2021-03-02T11:56:07Z</time>
        <extensions>
          <gpxtpx:TrackPointExtension xmlns:gpxtpx="http://www.garmin.com/xmlschemas/TrackPointExtension/v1">
            <gpxtpx:hr>88</gpxtpx:hr>
          </gpxtpx:TrackPointExtension>
        </extensions>
      </trkpt>
      <trkpt lat="46.18968" lon="6.25068">
        <ele>459.3</ele>
        <time>2021-03-02T11:56:08Z</time>
        <extensions>
          <gpxtpx:TrackPointExtension xmlns:gpxtpx="http://www.garmin.com/xmlschemas/TrackPointExtension/v1">
            <gpxtpx:hr>88</gpxtpx:hr>
          </gpxtpx:TrackPointExtension>
        </extensions>
      </trkpt>
      <trkpt lat="46.18962" lon="6.25068">
        <ele>459.5</ele>
        <time>2021-03-02T11:56:09Z</time>
        <extensions>
          <gpxtpx:TrackPointExtension xmlns:gpxtpx="http://www.garmin.com/xmlschemas/TrackPointExtension/v1">
            <gpxtpx:hr>88</gpxtpx:hr>
          </gpxtpx:TrackPointExtension>
        </extensions>
      </trkpt>
      <trkpt lat="46.18956" lon="6.25068">
        <ele>459.7</ele>
        <time>2021-03-02T11:56:10Z</time>
        <extensions>
          <gpxtpx:TrackPointExtension xmlns:gpxtpx="http://www.garmin.com/xmlschemas/TrackPointExtension/v1">
            <gpxtpx:hr>88</gpxtpx:hr>
          </gpxtpx:TrackPointExtension>
        </extensions>
      </trkpt>
      <trkpt lat="46.18951" lon="6.25068">
        <ele>459.8</ele>
        <time>2021-03-02T11:56:11Z</time>
        <extensions>
          <gpxtpx:TrackPointExtension xmlns:gpxtpx="http://www.garmin.com/xmlschemas/TrackPointExtension/v1">
            <gpxtpx:hr>88</gpxtpx:hr>
          </gpxtpx:TrackPointExtension>
        </extensions>
      </trkpt>
      <trkpt lat="46.18945" lon="6.25068">
        <ele>460</ele>
        <time>2021-03-02T11:56:12Z</time>
        <extensions>
          <gpxtpx:TrackPointExtension xmlns:gpxtpx="http://www.garmin.com/xmlschemas/TrackPointExtension/v1">
            <gpxtpx:hr>88</gpxtpx:hr>
          </gpxtpx:TrackPointExtension>
        </extensions>
      </trkpt>
      <trkpt lat="46.1894" lon="6.2507">
        <ele>460.2</ele>
        <time>2021-03-02T11:56:13Z</time>
        <extensions>
          <gpxtpx:TrackPointExtension xmlns:gpxtpx="http://www.garmin.com/xmlschemas/TrackPointExtension/v1">
            <gpxtpx:hr>88</gpxtpx:hr>
          </gpxtpx:TrackPointExtension>
        </extensions>
      </trkpt>
      <trkpt lat="46.18934" lon="6.25071">
        <ele>460.3</ele>
        <time>2021-03-02T11:56:14Z</time>
        <extensions>
          <gpxtpx:TrackPointExtension xmlns:gpxtpx="http://www.garmin.com/xmlschemas/TrackPointExtension/v1">
            <gpxtpx:hr>89</gpxtpx:hr>
          </gpxtpx:TrackPointExtension>
        </extensions>
      </trkpt>
      <trkpt lat="46.18928" lon="6.25072">
        <ele>460.5</ele>
        <time>2021-03-02T11:56:15Z</time>
        <extensions>
          <gpxtpx:TrackPointExtension xmlns:gpxtpx="http://www.garmin.com/xmlschemas/TrackPointExtension/v1">
            <gpxtpx:hr>89</gpxtpx:hr>
          </gpxtpx:TrackPointExtension>
        </extensions>
      </trkpt>
      <trkpt lat="46.18923" lon="6.25073">
        <ele>460.6</ele>
        <time>2021-03-02T11:56:16Z</time>
        <extensions>
          <gpxtpx:TrackPointExtension xmlns:gpxtpx="http://www.garmin.com/xmlschemas/TrackPointExtension/v1">
            <gpxtpx:hr>89</gpxtpx:hr>
          </gpxtpx:TrackPointExtension>
        </extensions>
      </trkpt>
      <trkpt lat="46.18917" lon="6.25073">
        <ele>460.8</ele>
        <time>2021-03-02T11:56:17Z</time>
        <extensions>
          <gpxtpx:TrackPointExtension xmlns:gpxtpx="http://www.garmin.com/xmlschemas/TrackPointExtension/v1">
            <gpxtpx:hr>89</gpxtpx:hr>
          </gpxtpx:TrackPointExtension>
        </extensions>
      </trkpt>
      <trkpt lat="46.18912" lon="6.25074">
        <ele>460.9</ele>
        <time>2021-03-02T11:56:18Z</time>
        <extensions>
          <gpxtpx:TrackPointExtension xmlns:gpxtpx="http://www.garmin.com/xmlschemas/TrackPointExtension/v1">
            <gpxtpx:hr>90</gpxtpx:hr>
          </gpxtpx:TrackPointExtension>
        </extensions>
      </trkpt>
      <trkpt lat="46.18908" lon="6.25075">
        <ele>461</ele>
        <time>2021-03-02T11:56:19Z</time>
        <extensions>
          <gpxtpx:TrackPointExtension xmlns:gpxtpx="http://www.garmin.com/xmlschemas/TrackPointExtension/v1">
            <gpxtpx:hr>90</gpxtpx:hr>
          </gpxtpx:TrackPointExtension>
        </extensions>
      </trkpt>
      <trkpt lat="46.18903" lon="6.25076">
        <ele>461.1</ele>
        <time>2021-03-02T11:56:20Z</time>
        <extensions>
          <gpxtpx:TrackPointExtension xmlns:gpxtpx="http://www.garmin.com/xmlschemas/TrackPointExtension/v1">
            <gpxtpx:hr>90</gpxtpx:hr>
          </gpxtpx:TrackPointExtension>
        </extensions>
      </trkpt>
      <trkpt lat="46.18899" lon="6.25077">
        <ele>461.2</ele>
        <time>2021-03-02T11:56:21Z</time>
        <extensions>
          <gpxtpx:TrackPointExtension xmlns:gpxtpx="http://www.garmin.com/xmlschemas/TrackPointExtension/v1">
            <gpxtpx:hr>90</gpxtpx:hr>
          </gpxtpx:TrackPointExtension>
        </extensions>
      </trkpt>
      <trkpt lat="46.18896" lon="6.25077">
        <ele>461.3</ele>
        <time>2021-03-02T11:56:22Z</time>
        <extensions>
          <gpxtpx:TrackPointExtension xmlns:gpxtpx="http://www.garmin.com/xmlschemas/TrackPointExtension/v1">
            <gpxtpx:hr>90</gpxtpx:hr>
          </gpxtpx:TrackPointExtension>
        </extensions>
      </trkpt>
      <trkpt lat="46.18892" lon="6.25078">
        <ele>461.3</ele>
        <time>2021-03-02T11:56:23Z</time>
        <extensions>
          <gpxtpx:TrackPointExtension xmlns:gpxtpx="http://www.garmin.com/xmlschemas/TrackPointExtension/v1">
            <gpxtpx:hr>90</gpxtpx:hr>
          </gpxtpx:TrackPointExtension>
        </extensions>
      </trkpt>
      <trkpt lat="46.18889" lon="6.25078">
        <ele>461.4</ele>
        <time>2021-03-02T11:56:24Z</time>
        <extensions>
          <gpxtpx:TrackPointExtension xmlns:gpxtpx="http://www.garmin.com/xmlschemas/TrackPointExtension/v1">
            <gpxtpx:hr>90</gpxtpx:hr>
          </gpxtpx:TrackPointExtension>
        </extensions>
      </trkpt>
      <trkpt lat="46.18886" lon="6.25077">
        <ele>461.5</ele>
        <time>2021-03-02T11:56:25Z</time>
        <extensions>
          <gpxtpx:TrackPointExtension xmlns:gpxtpx="http://www.garmin.com/xmlschemas/TrackPointExtension/v1">
            <gpxtpx:hr>90</gpxtpx:hr>
          </gpxtpx:TrackPointExtension>
        </extensions>
      </trkpt>
      <trkpt lat="46.18884" lon="6.25077">
        <ele>461.5</ele>
        <time>2021-03-02T11:56:26Z</time>
        <extensions>
          <gpxtpx:TrackPointExtension xmlns:gpxtpx="http://www.garmin.com/xmlschemas/TrackPointExtension/v1">
            <gpxtpx:hr>90</gpxtpx:hr>
          </gpxtpx:TrackPointExtension>
        </extensions>
      </trkpt>
      <trkpt lat="46.18882" lon="6.25077">
        <ele>461.6</ele>
        <time>2021-03-02T11:56:27Z</time>
        <extensions>
          <gpxtpx:TrackPointExtension xmlns:gpxtpx="http://www.garmin.com/xmlschemas/TrackPointExtension/v1">
            <gpxtpx:hr>90</gpxtpx:hr>
          </gpxtpx:TrackPointExtension>
        </extensions>
      </trkpt>
      <trkpt lat="46.18882" lon="6.25077">
        <ele>461.6</ele>
        <time>2021-03-02T11:56:28Z</time>
        <extensions>
          <gpxtpx:TrackPointExtension xmlns:gpxtpx="http://www.garmin.com/xmlschemas/TrackPointExtension/v1">
            <gpxtpx:hr>90</gpxtpx:hr>
          </gpxtpx:TrackPointExtension>
        </extensions>
      </trkpt>
      <trkpt lat="46.18882" lon="6.25077">
        <ele>461.6</ele>
        <time>2021-03-02T11:56:29Z</time>
        <extensions>
          <gpxtpx:TrackPointExtension xmlns:gpxtpx="http://www.garmin.com/xmlschemas/TrackPointExtension/v1">
            <gpxtpx:hr>90</gpxtpx:hr>
          </gpxtpx:TrackPointExtension>
        </extensions>
      </trkpt>
      <trkpt lat="46.18882" lon="6.25077">
        <ele>461.6</ele>
        <time>2021-03-02T11:56:30Z</time>
        <extensions>
          <gpxtpx:TrackPointExtension xmlns:gpxtpx="http://www.garmin.com/xmlschemas/TrackPointExtension/v1">
            <gpxtpx:hr>90</gpxtpx:hr>
          </gpxtpx:TrackPointExtension>
        </extensions>
      </trkpt>
      <trkpt lat="46.18882" lon="6.25077">
        <ele>461.6</ele>
        <time>2021-03-02T11:56:31Z</time>
        <extensions>
          <gpxtpx:TrackPointExtension xmlns:gpxtpx="http://www.garmin.com/xmlschemas/TrackPointExtension/v1">
            <gpxtpx:hr>90</gpxtpx:hr>
          </gpxtpx:TrackPointExtension>
        </extensions>
      </trkpt>
      <trkpt lat="46.1888" lon="6.25077">
        <ele>461.6</ele>
        <time>2021-03-02T11:56:35Z</time>
        <extensions>
          <gpxtpx:TrackPointExtension xmlns:gpxtpx="http://www.garmin.com/xmlschemas/TrackPointExtension/v1">
            <gpxtpx:hr>90</gpxtpx:hr>
          </gpxtpx:TrackPointExtension>
        </extensions>
      </trkpt>
      <trkpt lat="46.18879" lon="6.25078">
        <ele>461.6</ele>
        <time>2021-03-02T11:56:36Z</time>
        <extensions>
          <gpxtpx:TrackPointExtension xmlns:gpxtpx="http://www.garmin.com/xmlschemas/TrackPointExtension/v1">
            <gpxtpx:hr>90</gpxtpx:hr>
          </gpxtpx:TrackPointExtension>
        </extensions>
      </trkpt>
      <trkpt lat="46.18877" lon="6.25078">
        <ele>461.7</ele>
        <time>2021-03-02T11:56:37Z</time>
        <extensions>
          <gpxtpx:TrackPointExtension xmlns:gpxtpx="http://www.garmin.com/xmlschemas/TrackPointExtension/v1">
            <gpxtpx:hr>91</gpxtpx:hr>
          </gpxtpx:TrackPointExtension>
        </extensions>
      </trkpt>
      <trkpt lat="46.18874" lon="6.25079">
        <ele>461.7</ele>
        <time>2021-03-02T11:56:38Z</time>
        <extensions>
          <gpxtpx:TrackPointExtension xmlns:gpxtpx="http://www.garmin.com/xmlschemas/TrackPointExtension/v1">
            <gpxtpx:hr>91</gpxtpx:hr>
          </gpxtpx:TrackPointExtension>
        </extensions>
      </trkpt>
      <trkpt lat="46.18872" lon="6.2508">
        <ele>461.8</ele>
        <time>2021-03-02T11:56:39Z</time>
        <extensions>
          <gpxtpx:TrackPointExtension xmlns:gpxtpx="http://www.garmin.com/xmlschemas/TrackPointExtension/v1">
            <gpxtpx:hr>92</gpxtpx:hr>
          </gpxtpx:TrackPointExtension>
        </extensions>
      </trkpt>
      <trkpt lat="46.18869" lon="6.25081">
        <ele>461.8</ele>
        <time>2021-03-02T11:56:40Z</time>
        <extensions>
          <gpxtpx:TrackPointExtension xmlns:gpxtpx="http://www.garmin.com/xmlschemas/TrackPointExtension/v1">
            <gpxtpx:hr>94</gpxtpx:hr>
          </gpxtpx:TrackPointExtension>
        </extensions>
      </trkpt>
      <trkpt lat="46.18866" lon="6.25081">
        <ele>461.9</ele>
        <time>2021-03-02T11:56:41Z</time>
        <extensions>
          <gpxtpx:TrackPointExtension xmlns:gpxtpx="http://www.garmin.com/xmlschemas/TrackPointExtension/v1">
            <gpxtpx:hr>94</gpxtpx:hr>
          </gpxtpx:TrackPointExtension>
        </extensions>
      </trkpt>
      <trkpt lat="46.18863" lon="6.25081">
        <ele>462</ele>
        <time>2021-03-02T11:56:42Z</time>
        <extensions>
          <gpxtpx:TrackPointExtension xmlns:gpxtpx="http://www.garmin.com/xmlschemas/TrackPointExtension/v1">
            <gpxtpx:hr>94</gpxtpx:hr>
          </gpxtpx:TrackPointExtension>
        </extensions>
      </trkpt>
      <trkpt lat="46.18859" lon="6.25081">
        <ele>462.1</ele>
        <time>2021-03-02T11:56:43Z</time>
        <extensions>
          <gpxtpx:TrackPointExtension xmlns:gpxtpx="http://www.garmin.com/xmlschemas/TrackPointExtension/v1">
            <gpxtpx:hr>94</gpxtpx:hr>
          </gpxtpx:TrackPointExtension>
        </extensions>
      </trkpt>
      <trkpt lat="46.18854" lon="6.25081">
        <ele>462.2</ele>
        <time>2021-03-02T11:56:44Z</time>
        <extensions>
          <gpxtpx:TrackPointExtension xmlns:gpxtpx="http://www.garmin.com/xmlschemas/TrackPointExtension/v1">
            <gpxtpx:hr>94</gpxtpx:hr>
          </gpxtpx:TrackPointExtension>
        </extensions>
      </trkpt>
      <trkpt lat="46.1885" lon="6.25081">
        <ele>462.3</ele>
        <time>2021-03-02T11:56:45Z</time>
        <extensions>
          <gpxtpx:TrackPointExtension xmlns:gpxtpx="http://www.garmin.com/xmlschemas/TrackPointExtension/v1">
            <gpxtpx:hr>94</gpxtpx:hr>
          </gpxtpx:TrackPointExtension>
        </extensions>
      </trkpt>
      <trkpt lat="46.18845" lon="6.25081">
        <ele>462.4</ele>
        <time>2021-03-02T11:56:46Z</time>
        <extensions>
          <gpxtpx:TrackPointExtension xmlns:gpxtpx="http://www.garmin.com/xmlschemas/TrackPointExtension/v1">
            <gpxtpx:hr>94</gpxtpx:hr>
          </gpxtpx:TrackPointExtension>
        </extensions>
      </trkpt>
      <trkpt lat="46.1884" lon="6.25081">
        <ele>462.5</ele>
        <time>2021-03-02T11:56:47Z</time>
        <extensions>
          <gpxtpx:TrackPointExtension xmlns:gpxtpx="http://www.garmin.com/xmlschemas/TrackPointExtension/v1">
            <gpxtpx:hr>94</gpxtpx:hr>
          </gpxtpx:TrackPointExtension>
        </extensions>
      </trkpt>
      <trkpt lat="46.18835" lon="6.25081">
        <ele>462.7</ele>
        <time>2021-03-02T11:56:48Z</time>
        <extensions>
          <gpxtpx:TrackPointExtension xmlns:gpxtpx="http://www.garmin.com/xmlschemas/TrackPointExtension/v1">
            <gpxtpx:hr>93</gpxtpx:hr>
          </gpxtpx:TrackPointExtension>
        </extensions>
      </trkpt>
      <trkpt lat="46.18829" lon="6.25081">
        <ele>462.8</ele>
        <time>2021-03-02T11:56:49Z</time>
        <extensions>
          <gpxtpx:TrackPointExtension xmlns:gpxtpx="http://www.garmin.com/xmlschemas/TrackPointExtension/v1">
            <gpxtpx:hr>93</gpxtpx:hr>
          </gpxtpx:TrackPointExtension>
        </extensions>
      </trkpt>
      <trkpt lat="46.18824" lon="6.25081">
        <ele>462.9</ele>
        <time>2021-03-02T11:56:50Z</time>
        <extensions>
          <gpxtpx:TrackPointExtension xmlns:gpxtpx="http://www.garmin.com/xmlschemas/TrackPointExtension/v1">
            <gpxtpx:hr>93</gpxtpx:hr>
          </gpxtpx:TrackPointExtension>
        </extensions>
      </trkpt>
      <trkpt lat="46.18818" lon="6.25081">
        <ele>463</ele>
        <time>2021-03-02T11:56:51Z</time>
        <extensions>
          <gpxtpx:TrackPointExtension xmlns:gpxtpx="http://www.garmin.com/xmlschemas/TrackPointExtension/v1">
            <gpxtpx:hr>93</gpxtpx:hr>
          </gpxtpx:TrackPointExtension>
        </extensions>
      </trkpt>
      <trkpt lat="46.18813" lon="6.25081">
        <ele>463.1</ele>
        <time>2021-03-02T11:56:52Z</time>
        <extensions>
          <gpxtpx:TrackPointExtension xmlns:gpxtpx="http://www.garmin.com/xmlschemas/TrackPointExtension/v1">
            <gpxtpx:hr>93</gpxtpx:hr>
          </gpxtpx:TrackPointExtension>
        </extensions>
      </trkpt>
      <trkpt lat="46.18807" lon="6.25082">
        <ele>463.2</ele>
        <time>2021-03-02T11:56:53Z</time>
        <extensions>
          <gpxtpx:TrackPointExtension xmlns:gpxtpx="http://www.garmin.com/xmlschemas/TrackPointExtension/v1">
            <gpxtpx:hr>93</gpxtpx:hr>
          </gpxtpx:TrackPointExtension>
        </extensions>
      </trkpt>
      <trkpt lat="46.18801" lon="6.25082">
        <ele>463.3</ele>
        <time>2021-03-02T11:56:54Z</time>
        <extensions>
          <gpxtpx:TrackPointExtension xmlns:gpxtpx="http://www.garmin.com/xmlschemas/TrackPointExtension/v1">
            <gpxtpx:hr>93</gpxtpx:hr>
          </gpxtpx:TrackPointExtension>
        </extensions>
      </trkpt>
      <trkpt lat="46.18796" lon="6.25083">
        <ele>463.4</ele>
        <time>2021-03-02T11:56:55Z</time>
        <extensions>
          <gpxtpx:TrackPointExtension xmlns:gpxtpx="http://www.garmin.com/xmlschemas/TrackPointExtension/v1">
            <gpxtpx:hr>93</gpxtpx:hr>
          </gpxtpx:TrackPointExtension>
        </extensions>
      </trkpt>
      <trkpt lat="46.1879" lon="6.25084">
        <ele>463.6</ele>
        <time>2021-03-02T11:56:56Z</time>
        <extensions>
          <gpxtpx:TrackPointExtension xmlns:gpxtpx="http://www.garmin.com/xmlschemas/TrackPointExtension/v1">
            <gpxtpx:hr>93</gpxtpx:hr>
          </gpxtpx:TrackPointExtension>
        </extensions>
      </trkpt>
      <trkpt lat="46.18784" lon="6.25084">
        <ele>463.7</ele>
        <time>2021-03-02T11:56:57Z</time>
        <extensions>
          <gpxtpx:TrackPointExtension xmlns:gpxtpx="http://www.garmin.com/xmlschemas/TrackPointExtension/v1">
            <gpxtpx:hr>93</gpxtpx:hr>
          </gpxtpx:TrackPointExtension>
        </extensions>
      </trkpt>
      <trkpt lat="46.18778" lon="6.25085">
        <ele>463.8</ele>
        <time>2021-03-02T11:56:58Z</time>
        <extensions>
          <gpxtpx:TrackPointExtension xmlns:gpxtpx="http://www.garmin.com/xmlschemas/TrackPointExtension/v1">
            <gpxtpx:hr>93</gpxtpx:hr>
          </gpxtpx:TrackPointExtension>
        </extensions>
      </trkpt>
      <trkpt lat="46.18772" lon="6.25086">
        <ele>463.9</ele>
        <time>2021-03-02T11:56:59Z</time>
        <extensions>
          <gpxtpx:TrackPointExtension xmlns:gpxtpx="http://www.garmin.com/xmlschemas/TrackPointExtension/v1">
            <gpxtpx:hr>93</gpxtpx:hr>
          </gpxtpx:TrackPointExtension>
        </extensions>
      </trkpt>
      <trkpt lat="46.18766" lon="6.25088">
        <ele>464</ele>
        <time>2021-03-02T11:57:00Z</time>
        <extensions>
          <gpxtpx:TrackPointExtension xmlns:gpxtpx="http://www.garmin.com/xmlschemas/TrackPointExtension/v1">
            <gpxtpx:hr>93</gpxtpx:hr>
          </gpxtpx:TrackPointExtension>
        </extensions>
      </trkpt>
      <trkpt lat="46.1876" lon="6.2509">
        <ele>464.1</ele>
        <time>2021-03-02T11:57:01Z</time>
        <extensions>
          <gpxtpx:TrackPointExtension xmlns:gpxtpx="http://www.garmin.com/xmlschemas/TrackPointExtension/v1">
            <gpxtpx:hr>93</gpxtpx:hr>
          </gpxtpx:TrackPointExtension>
        </extensions>
      </trkpt>
      <trkpt lat="46.18754" lon="6.25092">
        <ele>464.3</ele>
        <time>2021-03-02T11:57:02Z</time>
        <extensions>
          <gpxtpx:TrackPointExtension xmlns:gpxtpx="http://www.garmin.com/xmlschemas/TrackPointExtension/v1">
            <gpxtpx:hr>93</gpxtpx:hr>
          </gpxtpx:TrackPointExtension>
        </extensions>
      </trkpt>
      <trkpt lat="46.18748" lon="6.25094">
        <ele>464.4</ele>
        <time>2021-03-02T11:57:03Z</time>
        <extensions>
          <gpxtpx:TrackPointExtension xmlns:gpxtpx="http://www.garmin.com/xmlschemas/TrackPointExtension/v1">
            <gpxtpx:hr>94</gpxtpx:hr>
          </gpxtpx:TrackPointExtension>
        </extensions>
      </trkpt>
      <trkpt lat="46.18742" lon="6.25096">
        <ele>464.6</ele>
        <time>2021-03-02T11:57:04Z</time>
        <extensions>
          <gpxtpx:TrackPointExtension xmlns:gpxtpx="http://www.garmin.com/xmlschemas/TrackPointExtension/v1">
            <gpxtpx:hr>94</gpxtpx:hr>
          </gpxtpx:TrackPointExtension>
        </extensions>
      </trkpt>
      <trkpt lat="46.18737" lon="6.25098">
        <ele>464.7</ele>
        <time>2021-03-02T11:57:05Z</time>
        <extensions>
          <gpxtpx:TrackPointExtension xmlns:gpxtpx="http://www.garmin.com/xmlschemas/TrackPointExtension/v1">
            <gpxtpx:hr>95</gpxtpx:hr>
          </gpxtpx:TrackPointExtension>
        </extensions>
      </trkpt>
      <trkpt lat="46.18731" lon="6.25101">
        <ele>464.9</ele>
        <time>2021-03-02T11:57:06Z</time>
        <extensions>
          <gpxtpx:TrackPointExtension xmlns:gpxtpx="http://www.garmin.com/xmlschemas/TrackPointExtension/v1">
            <gpxtpx:hr>95</gpxtpx:hr>
          </gpxtpx:TrackPointExtension>
        </extensions>
      </trkpt>
      <trkpt lat="46.18725" lon="6.25104">
        <ele>465</ele>
        <time>2021-03-02T11:57:07Z</time>
        <extensions>
          <gpxtpx:TrackPointExtension xmlns:gpxtpx="http://www.garmin.com/xmlschemas/TrackPointExtension/v1">
            <gpxtpx:hr>96</gpxtpx:hr>
          </gpxtpx:TrackPointExtension>
        </extensions>
      </trkpt>
      <trkpt lat="46.18719" lon="6.25106">
        <ele>465.2</ele>
        <time>2021-03-02T11:57:08Z</time>
        <extensions>
          <gpxtpx:TrackPointExtension xmlns:gpxtpx="http://www.garmin.com/xmlschemas/TrackPointExtension/v1">
            <gpxtpx:hr>97</gpxtpx:hr>
          </gpxtpx:TrackPointExtension>
        </extensions>
      </trkpt>
      <trkpt lat="46.18713" lon="6.25109">
        <ele>465.3</ele>
        <time>2021-03-02T11:57:09Z</time>
        <extensions>
          <gpxtpx:TrackPointExtension xmlns:gpxtpx="http://www.garmin.com/xmlschemas/TrackPointExtension/v1">
            <gpxtpx:hr>97</gpxtpx:hr>
          </gpxtpx:TrackPointExtension>
        </extensions>
      </trkpt>
      <trkpt lat="46.18707" lon="6.25111">
        <ele>465.5</ele>
        <time>2021-03-02T11:57:10Z</time>
        <extensions>
          <gpxtpx:TrackPointExtension xmlns:gpxtpx="http://www.garmin.com/xmlschemas/TrackPointExtension/v1">
            <gpxtpx:hr>98</gpxtpx:hr>
          </gpxtpx:TrackPointExtension>
        </extensions>
      </trkpt>
      <trkpt lat="46.18701" lon="6.25114">
        <ele>465.7</ele>
        <time>2021-03-02T11:57:11Z</time>
        <extensions>
          <gpxtpx:TrackPointExtension xmlns:gpxtpx="http://www.garmin.com/xmlschemas/TrackPointExtension/v1">
            <gpxtpx:hr>98</gpxtpx:hr>
          </gpxtpx:TrackPointExtension>
        </extensions>
      </trkpt>
      <trkpt lat="46.18696" lon="6.25116">
        <ele>465.8</ele>
        <time>2021-03-02T11:57:12Z</time>
        <extensions>
          <gpxtpx:TrackPointExtension xmlns:gpxtpx="http://www.garmin.com/xmlschemas/TrackPointExtension/v1">
            <gpxtpx:hr>99</gpxtpx:hr>
          </gpxtpx:TrackPointExtension>
        </extensions>
      </trkpt>
      <trkpt lat="46.1869" lon="6.25119">
        <ele>466</ele>
        <time>2021-03-02T11:57:13Z</time>
        <extensions>
          <gpxtpx:TrackPointExtension xmlns:gpxtpx="http://www.garmin.com/xmlschemas/TrackPointExtension/v1">
            <gpxtpx:hr>99</gpxtpx:hr>
          </gpxtpx:TrackPointExtension>
        </extensions>
      </trkpt>
      <trkpt lat="46.18684" lon="6.25122">
        <ele>466.1</ele>
        <time>2021-03-02T11:57:14Z</time>
        <extensions>
          <gpxtpx:TrackPointExtension xmlns:gpxtpx="http://www.garmin.com/xmlschemas/TrackPointExtension/v1">
            <gpxtpx:hr>99</gpxtpx:hr>
          </gpxtpx:TrackPointExtension>
        </extensions>
      </trkpt>
      <trkpt lat="46.18678" lon="6.25124">
        <ele>466.3</ele>
        <time>2021-03-02T11:57:15Z</time>
        <extensions>
          <gpxtpx:TrackPointExtension xmlns:gpxtpx="http://www.garmin.com/xmlschemas/TrackPointExtension/v1">
            <gpxtpx:hr>99</gpxtpx:hr>
          </gpxtpx:TrackPointExtension>
        </extensions>
      </trkpt>
      <trkpt lat="46.18672" lon="6.25127">
        <ele>466.4</ele>
        <time>2021-03-02T11:57:16Z</time>
        <extensions>
          <gpxtpx:TrackPointExtension xmlns:gpxtpx="http://www.garmin.com/xmlschemas/TrackPointExtension/v1">
            <gpxtpx:hr>99</gpxtpx:hr>
          </gpxtpx:TrackPointExtension>
        </extensions>
      </trkpt>
      <trkpt lat="46.18666" lon="6.2513">
        <ele>466.6</ele>
        <time>2021-03-02T11:57:17Z</time>
        <extensions>
          <gpxtpx:TrackPointExtension xmlns:gpxtpx="http://www.garmin.com/xmlschemas/TrackPointExtension/v1">
            <gpxtpx:hr>99</gpxtpx:hr>
          </gpxtpx:TrackPointExtension>
        </extensions>
      </trkpt>
      <trkpt lat="46.18661" lon="6.25132">
        <ele>466.7</ele>
        <time>2021-03-02T11:57:18Z</time>
        <extensions>
          <gpxtpx:TrackPointExtension xmlns:gpxtpx="http://www.garmin.com/xmlschemas/TrackPointExtension/v1">
            <gpxtpx:hr>100</gpxtpx:hr>
          </gpxtpx:TrackPointExtension>
        </extensions>
      </trkpt>
      <trkpt lat="46.18655" lon="6.25135">
        <ele>466.9</ele>
        <time>2021-03-02T11:57:19Z</time>
        <extensions>
          <gpxtpx:TrackPointExtension xmlns:gpxtpx="http://www.garmin.com/xmlschemas/TrackPointExtension/v1">
            <gpxtpx:hr>100</gpxtpx:hr>
          </gpxtpx:TrackPointExtension>
        </extensions>
      </trkpt>
      <trkpt lat="46.18649" lon="6.25138">
        <ele>467.1</ele>
        <time>2021-03-02T11:57:20Z</time>
        <extensions>
          <gpxtpx:TrackPointExtension xmlns:gpxtpx="http://www.garmin.com/xmlschemas/TrackPointExtension/v1">
            <gpxtpx:hr>100</gpxtpx:hr>
          </gpxtpx:TrackPointExtension>
        </extensions>
      </trkpt>
      <trkpt lat="46.18643" lon="6.2514">
        <ele>467.2</ele>
        <time>2021-03-02T11:57:21Z</time>
        <extensions>
          <gpxtpx:TrackPointExtension xmlns:gpxtpx="http://www.garmin.com/xmlschemas/TrackPointExtension/v1">
            <gpxtpx:hr>100</gpxtpx:hr>
          </gpxtpx:TrackPointExtension>
        </extensions>
      </trkpt>
      <trkpt lat="46.18637" lon="6.25143">
        <ele>467.4</ele>
        <time>2021-03-02T11:57:22Z</time>
        <extensions>
          <gpxtpx:TrackPointExtension xmlns:gpxtpx="http://www.garmin.com/xmlschemas/TrackPointExtension/v1">
            <gpxtpx:hr>100</gpxtpx:hr>
          </gpxtpx:TrackPointExtension>
        </extensions>
      </trkpt>
      <trkpt lat="46.18631" lon="6.25145">
        <ele>467.6</ele>
        <time>2021-03-02T11:57:23Z</time>
        <extensions>
          <gpxtpx:TrackPointExtension xmlns:gpxtpx="http://www.garmin.com/xmlschemas/TrackPointExtension/v1">
            <gpxtpx:hr>100</gpxtpx:hr>
          </gpxtpx:TrackPointExtension>
        </extensions>
      </trkpt>
      <trkpt lat="46.18625" lon="6.25148">
        <ele>467.8</ele>
        <time>2021-03-02T11:57:24Z</time>
        <extensions>
          <gpxtpx:TrackPointExtension xmlns:gpxtpx="http://www.garmin.com/xmlschemas/TrackPointExtension/v1">
            <gpxtpx:hr>100</gpxtpx:hr>
          </gpxtpx:TrackPointExtension>
        </extensions>
      </trkpt>
      <trkpt lat="46.18619" lon="6.25151">
        <ele>467.9</ele>
        <time>2021-03-02T11:57:25Z</time>
        <extensions>
          <gpxtpx:TrackPointExtension xmlns:gpxtpx="http://www.garmin.com/xmlschemas/TrackPointExtension/v1">
            <gpxtpx:hr>99</gpxtpx:hr>
          </gpxtpx:TrackPointExtension>
        </extensions>
      </trkpt>
      <trkpt lat="46.18613" lon="6.25153">
        <ele>468</ele>
        <time>2021-03-02T11:57:26Z</time>
        <extensions>
          <gpxtpx:TrackPointExtension xmlns:gpxtpx="http://www.garmin.com/xmlschemas/TrackPointExtension/v1">
            <gpxtpx:hr>99</gpxtpx:hr>
          </gpxtpx:TrackPointExtension>
        </extensions>
      </trkpt>
      <trkpt lat="46.18607" lon="6.25155">
        <ele>468.1</ele>
        <time>2021-03-02T11:57:27Z</time>
        <extensions>
          <gpxtpx:TrackPointExtension xmlns:gpxtpx="http://www.garmin.com/xmlschemas/TrackPointExtension/v1">
            <gpxtpx:hr>99</gpxtpx:hr>
          </gpxtpx:TrackPointExtension>
        </extensions>
      </trkpt>
      <trkpt lat="46.186" lon="6.25157">
        <ele>468.2</ele>
        <time>2021-03-02T11:57:28Z</time>
        <extensions>
          <gpxtpx:TrackPointExtension xmlns:gpxtpx="http://www.garmin.com/xmlschemas/TrackPointExtension/v1">
            <gpxtpx:hr>98</gpxtpx:hr>
          </gpxtpx:TrackPointExtension>
        </extensions>
      </trkpt>
      <trkpt lat="46.18595" lon="6.25159">
        <ele>468.2</ele>
        <time>2021-03-02T11:57:29Z</time>
        <extensions>
          <gpxtpx:TrackPointExtension xmlns:gpxtpx="http://www.garmin.com/xmlschemas/TrackPointExtension/v1">
            <gpxtpx:hr>98</gpxtpx:hr>
          </gpxtpx:TrackPointExtension>
        </extensions>
      </trkpt>
      <trkpt lat="46.18589" lon="6.25161">
        <ele>468.3</ele>
        <time>2021-03-02T11:57:30Z</time>
        <extensions>
          <gpxtpx:TrackPointExtension xmlns:gpxtpx="http://www.garmin.com/xmlschemas/TrackPointExtension/v1">
            <gpxtpx:hr>98</gpxtpx:hr>
          </gpxtpx:TrackPointExtension>
        </extensions>
      </trkpt>
      <trkpt lat="46.18583" lon="6.25162">
        <ele>468.4</ele>
        <time>2021-03-02T11:57:31Z</time>
        <extensions>
          <gpxtpx:TrackPointExtension xmlns:gpxtpx="http://www.garmin.com/xmlschemas/TrackPointExtension/v1">
            <gpxtpx:hr>98</gpxtpx:hr>
          </gpxtpx:TrackPointExtension>
        </extensions>
      </trkpt>
      <trkpt lat="46.18578" lon="6.25163">
        <ele>468.5</ele>
        <time>2021-03-02T11:57:32Z</time>
        <extensions>
          <gpxtpx:TrackPointExtension xmlns:gpxtpx="http://www.garmin.com/xmlschemas/TrackPointExtension/v1">
            <gpxtpx:hr>98</gpxtpx:hr>
          </gpxtpx:TrackPointExtension>
        </extensions>
      </trkpt>
      <trkpt lat="46.18572" lon="6.25164">
        <ele>468.7</ele>
        <time>2021-03-02T11:57:33Z</time>
        <extensions>
          <gpxtpx:TrackPointExtension xmlns:gpxtpx="http://www.garmin.com/xmlschemas/TrackPointExtension/v1">
            <gpxtpx:hr>98</gpxtpx:hr>
          </gpxtpx:TrackPointExtension>
        </extensions>
      </trkpt>
      <trkpt lat="46.18566" lon="6.25166">
        <ele>468.9</ele>
        <time>2021-03-02T11:57:34Z</time>
        <extensions>
          <gpxtpx:TrackPointExtension xmlns:gpxtpx="http://www.garmin.com/xmlschemas/TrackPointExtension/v1">
            <gpxtpx:hr>97</gpxtpx:hr>
          </gpxtpx:TrackPointExtension>
        </extensions>
      </trkpt>
      <trkpt lat="46.18561" lon="6.25167">
        <ele>469</ele>
        <time>2021-03-02T11:57:35Z</time>
        <extensions>
          <gpxtpx:TrackPointExtension xmlns:gpxtpx="http://www.garmin.com/xmlschemas/TrackPointExtension/v1">
            <gpxtpx:hr>97</gpxtpx:hr>
          </gpxtpx:TrackPointExtension>
        </extensions>
      </trkpt>
      <trkpt lat="46.18555" lon="6.25169">
        <ele>469.2</ele>
        <time>2021-03-02T11:57:36Z</time>
        <extensions>
          <gpxtpx:TrackPointExtension xmlns:gpxtpx="http://www.garmin.com/xmlschemas/TrackPointExtension/v1">
            <gpxtpx:hr>97</gpxtpx:hr>
          </gpxtpx:TrackPointExtension>
        </extensions>
      </trkpt>
      <trkpt lat="46.18549" lon="6.2517">
        <ele>469.4</ele>
        <time>2021-03-02T11:57:37Z</time>
        <extensions>
          <gpxtpx:TrackPointExtension xmlns:gpxtpx="http://www.garmin.com/xmlschemas/TrackPointExtension/v1">
            <gpxtpx:hr>96</gpxtpx:hr>
          </gpxtpx:TrackPointExtension>
        </extensions>
      </trkpt>
      <trkpt lat="46.18543" lon="6.25171">
        <ele>469.6</ele>
        <time>2021-03-02T11:57:38Z</time>
        <extensions>
          <gpxtpx:TrackPointExtension xmlns:gpxtpx="http://www.garmin.com/xmlschemas/TrackPointExtension/v1">
            <gpxtpx:hr>96</gpxtpx:hr>
          </gpxtpx:TrackPointExtension>
        </extensions>
      </trkpt>
      <trkpt lat="46.18537" lon="6.25172">
        <ele>469.8</ele>
        <time>2021-03-02T11:57:39Z</time>
        <extensions>
          <gpxtpx:TrackPointExtension xmlns:gpxtpx="http://www.garmin.com/xmlschemas/TrackPointExtension/v1">
            <gpxtpx:hr>96</gpxtpx:hr>
          </gpxtpx:TrackPointExtension>
        </extensions>
      </trkpt>
      <trkpt lat="46.18532" lon="6.25173">
        <ele>470</ele>
        <time>2021-03-02T11:57:40Z</time>
        <extensions>
          <gpxtpx:TrackPointExtension xmlns:gpxtpx="http://www.garmin.com/xmlschemas/TrackPointExtension/v1">
            <gpxtpx:hr>96</gpxtpx:hr>
          </gpxtpx:TrackPointExtension>
        </extensions>
      </trkpt>
      <trkpt lat="46.18526" lon="6.25174">
        <ele>470.1</ele>
        <time>2021-03-02T11:57:41Z</time>
        <extensions>
          <gpxtpx:TrackPointExtension xmlns:gpxtpx="http://www.garmin.com/xmlschemas/TrackPointExtension/v1">
            <gpxtpx:hr>95</gpxtpx:hr>
          </gpxtpx:TrackPointExtension>
        </extensions>
      </trkpt>
      <trkpt lat="46.1852" lon="6.25175">
        <ele>470.2</ele>
        <time>2021-03-02T11:57:42Z</time>
        <extensions>
          <gpxtpx:TrackPointExtension xmlns:gpxtpx="http://www.garmin.com/xmlschemas/TrackPointExtension/v1">
            <gpxtpx:hr>95</gpxtpx:hr>
          </gpxtpx:TrackPointExtension>
        </extensions>
      </trkpt>
      <trkpt lat="46.18515" lon="6.25176">
        <ele>470.3</ele>
        <time>2021-03-02T11:57:43Z</time>
        <extensions>
          <gpxtpx:TrackPointExtension xmlns:gpxtpx="http://www.garmin.com/xmlschemas/TrackPointExtension/v1">
            <gpxtpx:hr>95</gpxtpx:hr>
          </gpxtpx:TrackPointExtension>
        </extensions>
      </trkpt>
      <trkpt lat="46.18509" lon="6.25177">
        <ele>470.4</ele>
        <time>2021-03-02T11:57:44Z</time>
        <extensions>
          <gpxtpx:TrackPointExtension xmlns:gpxtpx="http://www.garmin.com/xmlschemas/TrackPointExtension/v1">
            <gpxtpx:hr>95</gpxtpx:hr>
          </gpxtpx:TrackPointExtension>
        </extensions>
      </trkpt>
      <trkpt lat="46.18503" lon="6.25179">
        <ele>470.5</ele>
        <time>2021-03-02T11:57:45Z</time>
        <extensions>
          <gpxtpx:TrackPointExtension xmlns:gpxtpx="http://www.garmin.com/xmlschemas/TrackPointExtension/v1">
            <gpxtpx:hr>95</gpxtpx:hr>
          </gpxtpx:TrackPointExtension>
        </extensions>
      </trkpt>
      <trkpt lat="46.18497" lon="6.2518">
        <ele>470.6</ele>
        <time>2021-03-02T11:57:46Z</time>
        <extensions>
          <gpxtpx:TrackPointExtension xmlns:gpxtpx="http://www.garmin.com/xmlschemas/TrackPointExtension/v1">
            <gpxtpx:hr>95</gpxtpx:hr>
          </gpxtpx:TrackPointExtension>
        </extensions>
      </trkpt>
      <trkpt lat="46.18491" lon="6.25181">
        <ele>470.7</ele>
        <time>2021-03-02T11:57:47Z</time>
        <extensions>
          <gpxtpx:TrackPointExtension xmlns:gpxtpx="http://www.garmin.com/xmlschemas/TrackPointExtension/v1">
            <gpxtpx:hr>95</gpxtpx:hr>
          </gpxtpx:TrackPointExtension>
        </extensions>
      </trkpt>
      <trkpt lat="46.18486" lon="6.25182">
        <ele>470.9</ele>
        <time>2021-03-02T11:57:48Z</time>
        <extensions>
          <gpxtpx:TrackPointExtension xmlns:gpxtpx="http://www.garmin.com/xmlschemas/TrackPointExtension/v1">
            <gpxtpx:hr>95</gpxtpx:hr>
          </gpxtpx:TrackPointExtension>
        </extensions>
      </trkpt>
      <trkpt lat="46.1848" lon="6.25184">
        <ele>471</ele>
        <time>2021-03-02T11:57:49Z</time>
        <extensions>
          <gpxtpx:TrackPointExtension xmlns:gpxtpx="http://www.garmin.com/xmlschemas/TrackPointExtension/v1">
            <gpxtpx:hr>96</gpxtpx:hr>
          </gpxtpx:TrackPointExtension>
        </extensions>
      </trkpt>
      <trkpt lat="46.18474" lon="6.25185">
        <ele>471.2</ele>
        <time>2021-03-02T11:57:50Z</time>
        <extensions>
          <gpxtpx:TrackPointExtension xmlns:gpxtpx="http://www.garmin.com/xmlschemas/TrackPointExtension/v1">
            <gpxtpx:hr>96</gpxtpx:hr>
          </gpxtpx:TrackPointExtension>
        </extensions>
      </trkpt>
      <trkpt lat="46.18468" lon="6.25186">
        <ele>471.3</ele>
        <time>2021-03-02T11:57:51Z</time>
        <extensions>
          <gpxtpx:TrackPointExtension xmlns:gpxtpx="http://www.garmin.com/xmlschemas/TrackPointExtension/v1">
            <gpxtpx:hr>96</gpxtpx:hr>
          </gpxtpx:TrackPointExtension>
        </extensions>
      </trkpt>
      <trkpt lat="46.18462" lon="6.25188">
        <ele>471.5</ele>
        <time>2021-03-02T11:57:52Z</time>
        <extensions>
          <gpxtpx:TrackPointExtension xmlns:gpxtpx="http://www.garmin.com/xmlschemas/TrackPointExtension/v1">
            <gpxtpx:hr>96</gpxtpx:hr>
          </gpxtpx:TrackPointExtension>
        </extensions>
      </trkpt>
      <trkpt lat="46.18456" lon="6.25189">
        <ele>471.7</ele>
        <time>2021-03-02T11:57:53Z</time>
        <extensions>
          <gpxtpx:TrackPointExtension xmlns:gpxtpx="http://www.garmin.com/xmlschemas/TrackPointExtension/v1">
            <gpxtpx:hr>97</gpxtpx:hr>
          </gpxtpx:TrackPointExtension>
        </extensions>
      </trkpt>
      <trkpt lat="46.18451" lon="6.25191">
        <ele>471.8</ele>
        <time>2021-03-02T11:57:54Z</time>
        <extensions>
          <gpxtpx:TrackPointExtension xmlns:gpxtpx="http://www.garmin.com/xmlschemas/TrackPointExtension/v1">
            <gpxtpx:hr>97</gpxtpx:hr>
          </gpxtpx:TrackPointExtension>
        </extensions>
      </trkpt>
      <trkpt lat="46.18445" lon="6.25193">
        <ele>472</ele>
        <time>2021-03-02T11:57:55Z</time>
        <extensions>
          <gpxtpx:TrackPointExtension xmlns:gpxtpx="http://www.garmin.com/xmlschemas/TrackPointExtension/v1">
            <gpxtpx:hr>100</gpxtpx:hr>
          </gpxtpx:TrackPointExtension>
        </extensions>
      </trkpt>
      <trkpt lat="46.18439" lon="6.25195">
        <ele>472.2</ele>
        <time>2021-03-02T11:57:56Z</time>
        <extensions>
          <gpxtpx:TrackPointExtension xmlns:gpxtpx="http://www.garmin.com/xmlschemas/TrackPointExtension/v1">
            <gpxtpx:hr>102</gpxtpx:hr>
          </gpxtpx:TrackPointExtension>
        </extensions>
      </trkpt>
      <trkpt lat="46.18433" lon="6.25197">
        <ele>472.3</ele>
        <time>2021-03-02T11:57:57Z</time>
        <extensions>
          <gpxtpx:TrackPointExtension xmlns:gpxtpx="http://www.garmin.com/xmlschemas/TrackPointExtension/v1">
            <gpxtpx:hr>104</gpxtpx:hr>
          </gpxtpx:TrackPointExtension>
        </extensions>
      </trkpt>
      <trkpt lat="46.18427" lon="6.252">
        <ele>472.5</ele>
        <time>2021-03-02T11:57:58Z</time>
        <extensions>
          <gpxtpx:TrackPointExtension xmlns:gpxtpx="http://www.garmin.com/xmlschemas/TrackPointExtension/v1">
            <gpxtpx:hr>106</gpxtpx:hr>
          </gpxtpx:TrackPointExtension>
        </extensions>
      </trkpt>
      <trkpt lat="46.18421" lon="6.25202">
        <ele>472.6</ele>
        <time>2021-03-02T11:57:59Z</time>
        <extensions>
          <gpxtpx:TrackPointExtension xmlns:gpxtpx="http://www.garmin.com/xmlschemas/TrackPointExtension/v1">
            <gpxtpx:hr>105</gpxtpx:hr>
          </gpxtpx:TrackPointExtension>
        </extensions>
      </trkpt>
      <trkpt lat="46.18416" lon="6.25205">
        <ele>472.8</ele>
        <time>2021-03-02T11:58:00Z</time>
        <extensions>
          <gpxtpx:TrackPointExtension xmlns:gpxtpx="http://www.garmin.com/xmlschemas/TrackPointExtension/v1">
            <gpxtpx:hr>105</gpxtpx:hr>
          </gpxtpx:TrackPointExtension>
        </extensions>
      </trkpt>
      <trkpt lat="46.1841" lon="6.25208">
        <ele>472.9</ele>
        <time>2021-03-02T11:58:01Z</time>
        <extensions>
          <gpxtpx:TrackPointExtension xmlns:gpxtpx="http://www.garmin.com/xmlschemas/TrackPointExtension/v1">
            <gpxtpx:hr>104</gpxtpx:hr>
          </gpxtpx:TrackPointExtension>
        </extensions>
      </trkpt>
      <trkpt lat="46.18404" lon="6.25211">
        <ele>473</ele>
        <time>2021-03-02T11:58:02Z</time>
        <extensions>
          <gpxtpx:TrackPointExtension xmlns:gpxtpx="http://www.garmin.com/xmlschemas/TrackPointExtension/v1">
            <gpxtpx:hr>104</gpxtpx:hr>
          </gpxtpx:TrackPointExtension>
        </extensions>
      </trkpt>
      <trkpt lat="46.18398" lon="6.25214">
        <ele>473.2</ele>
        <time>2021-03-02T11:58:03Z</time>
        <extensions>
          <gpxtpx:TrackPointExtension xmlns:gpxtpx="http://www.garmin.com/xmlschemas/TrackPointExtension/v1">
            <gpxtpx:hr>104</gpxtpx:hr>
          </gpxtpx:TrackPointExtension>
        </extensions>
      </trkpt>
      <trkpt lat="46.18393" lon="6.25217">
        <ele>473.4</ele>
        <time>2021-03-02T11:58:04Z</time>
        <extensions>
          <gpxtpx:TrackPointExtension xmlns:gpxtpx="http://www.garmin.com/xmlschemas/TrackPointExtension/v1">
            <gpxtpx:hr>104</gpxtpx:hr>
          </gpxtpx:TrackPointExtension>
        </extensions>
      </trkpt>
      <trkpt lat="46.18387" lon="6.25221">
        <ele>473.5</ele>
        <time>2021-03-02T11:58:05Z</time>
        <extensions>
          <gpxtpx:TrackPointExtension xmlns:gpxtpx="http://www.garmin.com/xmlschemas/TrackPointExtension/v1">
            <gpxtpx:hr>104</gpxtpx:hr>
          </gpxtpx:TrackPointExtension>
        </extensions>
      </trkpt>
      <trkpt lat="46.18382" lon="6.25224">
        <ele>473.7</ele>
        <time>2021-03-02T11:58:06Z</time>
        <extensions>
          <gpxtpx:TrackPointExtension xmlns:gpxtpx="http://www.garmin.com/xmlschemas/TrackPointExtension/v1">
            <gpxtpx:hr>104</gpxtpx:hr>
          </gpxtpx:TrackPointExtension>
        </extensions>
      </trkpt>
      <trkpt lat="46.18376" lon="6.25228">
        <ele>473.9</ele>
        <time>2021-03-02T11:58:07Z</time>
        <extensions>
          <gpxtpx:TrackPointExtension xmlns:gpxtpx="http://www.garmin.com/xmlschemas/TrackPointExtension/v1">
            <gpxtpx:hr>104</gpxtpx:hr>
          </gpxtpx:TrackPointExtension>
        </extensions>
      </trkpt>
      <trkpt lat="46.18371" lon="6.25231">
        <ele>474.1</ele>
        <time>2021-03-02T11:58:08Z</time>
        <extensions>
          <gpxtpx:TrackPointExtension xmlns:gpxtpx="http://www.garmin.com/xmlschemas/TrackPointExtension/v1">
            <gpxtpx:hr>104</gpxtpx:hr>
          </gpxtpx:TrackPointExtension>
        </extensions>
      </trkpt>
      <trkpt lat="46.18366" lon="6.25235">
        <ele>474.3</ele>
        <time>2021-03-02T11:58:09Z</time>
        <extensions>
          <gpxtpx:TrackPointExtension xmlns:gpxtpx="http://www.garmin.com/xmlschemas/TrackPointExtension/v1">
            <gpxtpx:hr>104</gpxtpx:hr>
          </gpxtpx:TrackPointExtension>
        </extensions>
      </trkpt>
      <trkpt lat="46.1836" lon="6.25238">
        <ele>474.6</ele>
        <time>2021-03-02T11:58:10Z</time>
        <extensions>
          <gpxtpx:TrackPointExtension xmlns:gpxtpx="http://www.garmin.com/xmlschemas/TrackPointExtension/v1">
            <gpxtpx:hr>103</gpxtpx:hr>
          </gpxtpx:TrackPointExtension>
        </extensions>
      </trkpt>
      <trkpt lat="46.18355" lon="6.25242">
        <ele>474.9</ele>
        <time>2021-03-02T11:58:11Z</time>
        <extensions>
          <gpxtpx:TrackPointExtension xmlns:gpxtpx="http://www.garmin.com/xmlschemas/TrackPointExtension/v1">
            <gpxtpx:hr>103</gpxtpx:hr>
          </gpxtpx:TrackPointExtension>
        </extensions>
      </trkpt>
      <trkpt lat="46.1835" lon="6.25245">
        <ele>475.2</ele>
        <time>2021-03-02T11:58:12Z</time>
        <extensions>
          <gpxtpx:TrackPointExtension xmlns:gpxtpx="http://www.garmin.com/xmlschemas/TrackPointExtension/v1">
            <gpxtpx:hr>102</gpxtpx:hr>
          </gpxtpx:TrackPointExtension>
        </extensions>
      </trkpt>
      <trkpt lat="46.18345" lon="6.25248">
        <ele>475.4</ele>
        <time>2021-03-02T11:58:13Z</time>
        <extensions>
          <gpxtpx:TrackPointExtension xmlns:gpxtpx="http://www.garmin.com/xmlschemas/TrackPointExtension/v1">
            <gpxtpx:hr>102</gpxtpx:hr>
          </gpxtpx:TrackPointExtension>
        </extensions>
      </trkpt>
      <trkpt lat="46.1834" lon="6.25251">
        <ele>475.7</ele>
        <time>2021-03-02T11:58:14Z</time>
        <extensions>
          <gpxtpx:TrackPointExtension xmlns:gpxtpx="http://www.garmin.com/xmlschemas/TrackPointExtension/v1">
            <gpxtpx:hr>102</gpxtpx:hr>
          </gpxtpx:TrackPointExtension>
        </extensions>
      </trkpt>
      <trkpt lat="46.18335" lon="6.25255">
        <ele>475.8</ele>
        <time>2021-03-02T11:58:15Z</time>
        <extensions>
          <gpxtpx:TrackPointExtension xmlns:gpxtpx="http://www.garmin.com/xmlschemas/TrackPointExtension/v1">
            <gpxtpx:hr>102</gpxtpx:hr>
          </gpxtpx:TrackPointExtension>
        </extensions>
      </trkpt>
      <trkpt lat="46.1833" lon="6.25258">
        <ele>476</ele>
        <time>2021-03-02T11:58:16Z</time>
        <extensions>
          <gpxtpx:TrackPointExtension xmlns:gpxtpx="http://www.garmin.com/xmlschemas/TrackPointExtension/v1">
            <gpxtpx:hr>102</gpxtpx:hr>
          </gpxtpx:TrackPointExtension>
        </extensions>
      </trkpt>
      <trkpt lat="46.18325" lon="6.25261">
        <ele>476.3</ele>
        <time>2021-03-02T11:58:17Z</time>
        <extensions>
          <gpxtpx:TrackPointExtension xmlns:gpxtpx="http://www.garmin.com/xmlschemas/TrackPointExtension/v1">
            <gpxtpx:hr>102</gpxtpx:hr>
          </gpxtpx:TrackPointExtension>
        </extensions>
      </trkpt>
      <trkpt lat="46.1832" lon="6.25264">
        <ele>476.6</ele>
        <time>2021-03-02T11:58:18Z</time>
        <extensions>
          <gpxtpx:TrackPointExtension xmlns:gpxtpx="http://www.garmin.com/xmlschemas/TrackPointExtension/v1">
            <gpxtpx:hr>103</gpxtpx:hr>
          </gpxtpx:TrackPointExtension>
        </extensions>
      </trkpt>
      <trkpt lat="46.18315" lon="6.25268">
        <ele>476.8</ele>
        <time>2021-03-02T11:58:19Z</time>
        <extensions>
          <gpxtpx:TrackPointExtension xmlns:gpxtpx="http://www.garmin.com/xmlschemas/TrackPointExtension/v1">
            <gpxtpx:hr>103</gpxtpx:hr>
          </gpxtpx:TrackPointExtension>
        </extensions>
      </trkpt>
      <trkpt lat="46.18311" lon="6.25271">
        <ele>477.1</ele>
        <time>2021-03-02T11:58:20Z</time>
        <extensions>
          <gpxtpx:TrackPointExtension xmlns:gpxtpx="http://www.garmin.com/xmlschemas/TrackPointExtension/v1">
            <gpxtpx:hr>103</gpxtpx:hr>
          </gpxtpx:TrackPointExtension>
        </extensions>
      </trkpt>
      <trkpt lat="46.18306" lon="6.25274">
        <ele>477.3</ele>
        <time>2021-03-02T11:58:21Z</time>
        <extensions>
          <gpxtpx:TrackPointExtension xmlns:gpxtpx="http://www.garmin.com/xmlschemas/TrackPointExtension/v1">
            <gpxtpx:hr>103</gpxtpx:hr>
          </gpxtpx:TrackPointExtension>
        </extensions>
      </trkpt>
      <trkpt lat="46.18301" lon="6.25278">
        <ele>477.6</ele>
        <time>2021-03-02T11:58:22Z</time>
        <extensions>
          <gpxtpx:TrackPointExtension xmlns:gpxtpx="http://www.garmin.com/xmlschemas/TrackPointExtension/v1">
            <gpxtpx:hr>102</gpxtpx:hr>
          </gpxtpx:TrackPointExtension>
        </extensions>
      </trkpt>
      <trkpt lat="46.18296" lon="6.25281">
        <ele>477.8</ele>
        <time>2021-03-02T11:58:23Z</time>
        <extensions>
          <gpxtpx:TrackPointExtension xmlns:gpxtpx="http://www.garmin.com/xmlschemas/TrackPointExtension/v1">
            <gpxtpx:hr>102</gpxtpx:hr>
          </gpxtpx:TrackPointExtension>
        </extensions>
      </trkpt>
      <trkpt lat="46.18291" lon="6.25284">
        <ele>478</ele>
        <time>2021-03-02T11:58:24Z</time>
        <extensions>
          <gpxtpx:TrackPointExtension xmlns:gpxtpx="http://www.garmin.com/xmlschemas/TrackPointExtension/v1">
            <gpxtpx:hr>102</gpxtpx:hr>
          </gpxtpx:TrackPointExtension>
        </extensions>
      </trkpt>
      <trkpt lat="46.18287" lon="6.25288">
        <ele>478.2</ele>
        <time>2021-03-02T11:58:25Z</time>
        <extensions>
          <gpxtpx:TrackPointExtension xmlns:gpxtpx="http://www.garmin.com/xmlschemas/TrackPointExtension/v1">
            <gpxtpx:hr>102</gpxtpx:hr>
          </gpxtpx:TrackPointExtension>
        </extensions>
      </trkpt>
      <trkpt lat="46.18282" lon="6.25291">
        <ele>478.4</ele>
        <time>2021-03-02T11:58:26Z</time>
        <extensions>
          <gpxtpx:TrackPointExtension xmlns:gpxtpx="http://www.garmin.com/xmlschemas/TrackPointExtension/v1">
            <gpxtpx:hr>102</gpxtpx:hr>
          </gpxtpx:TrackPointExtension>
        </extensions>
      </trkpt>
      <trkpt lat="46.18277" lon="6.25294">
        <ele>478.5</ele>
        <time>2021-03-02T11:58:27Z</time>
        <extensions>
          <gpxtpx:TrackPointExtension xmlns:gpxtpx="http://www.garmin.com/xmlschemas/TrackPointExtension/v1">
            <gpxtpx:hr>102</gpxtpx:hr>
          </gpxtpx:TrackPointExtension>
        </extensions>
      </trkpt>
      <trkpt lat="46.18272" lon="6.25297">
        <ele>478.7</ele>
        <time>2021-03-02T11:58:28Z</time>
        <extensions>
          <gpxtpx:TrackPointExtension xmlns:gpxtpx="http://www.garmin.com/xmlschemas/TrackPointExtension/v1">
            <gpxtpx:hr>102</gpxtpx:hr>
          </gpxtpx:TrackPointExtension>
        </extensions>
      </trkpt>
      <trkpt lat="46.18267" lon="6.253">
        <ele>478.9</ele>
        <time>2021-03-02T11:58:29Z</time>
        <extensions>
          <gpxtpx:TrackPointExtension xmlns:gpxtpx="http://www.garmin.com/xmlschemas/TrackPointExtension/v1">
            <gpxtpx:hr>102</gpxtpx:hr>
          </gpxtpx:TrackPointExtension>
        </extensions>
      </trkpt>
      <trkpt lat="46.18263" lon="6.25304">
        <ele>479.1</ele>
        <time>2021-03-02T11:58:30Z</time>
        <extensions>
          <gpxtpx:TrackPointExtension xmlns:gpxtpx="http://www.garmin.com/xmlschemas/TrackPointExtension/v1">
            <gpxtpx:hr>102</gpxtpx:hr>
          </gpxtpx:TrackPointExtension>
        </extensions>
      </trkpt>
      <trkpt lat="46.18258" lon="6.25307">
        <ele>479.2</ele>
        <time>2021-03-02T11:58:31Z</time>
        <extensions>
          <gpxtpx:TrackPointExtension xmlns:gpxtpx="http://www.garmin.com/xmlschemas/TrackPointExtension/v1">
            <gpxtpx:hr>102</gpxtpx:hr>
          </gpxtpx:TrackPointExtension>
        </extensions>
      </trkpt>
      <trkpt lat="46.18253" lon="6.2531">
        <ele>479.4</ele>
        <time>2021-03-02T11:58:32Z</time>
        <extensions>
          <gpxtpx:TrackPointExtension xmlns:gpxtpx="http://www.garmin.com/xmlschemas/TrackPointExtension/v1">
            <gpxtpx:hr>102</gpxtpx:hr>
          </gpxtpx:TrackPointExtension>
        </extensions>
      </trkpt>
      <trkpt lat="46.18248" lon="6.25313">
        <ele>479.5</ele>
        <time>2021-03-02T11:58:33Z</time>
        <extensions>
          <gpxtpx:TrackPointExtension xmlns:gpxtpx="http://www.garmin.com/xmlschemas/TrackPointExtension/v1">
            <gpxtpx:hr>102</gpxtpx:hr>
          </gpxtpx:TrackPointExtension>
        </extensions>
      </trkpt>
      <trkpt lat="46.18243" lon="6.25316">
        <ele>479.6</ele>
        <time>2021-03-02T11:58:34Z</time>
        <extensions>
          <gpxtpx:TrackPointExtension xmlns:gpxtpx="http://www.garmin.com/xmlschemas/TrackPointExtension/v1">
            <gpxtpx:hr>102</gpxtpx:hr>
          </gpxtpx:TrackPointExtension>
        </extensions>
      </trkpt>
      <trkpt lat="46.18238" lon="6.25319">
        <ele>479.7</ele>
        <time>2021-03-02T11:58:35Z</time>
        <extensions>
          <gpxtpx:TrackPointExtension xmlns:gpxtpx="http://www.garmin.com/xmlschemas/TrackPointExtension/v1">
            <gpxtpx:hr>102</gpxtpx:hr>
          </gpxtpx:TrackPointExtension>
        </extensions>
      </trkpt>
      <trkpt lat="46.18233" lon="6.25322">
        <ele>479.8</ele>
        <time>2021-03-02T11:58:36Z</time>
        <extensions>
          <gpxtpx:TrackPointExtension xmlns:gpxtpx="http://www.garmin.com/xmlschemas/TrackPointExtension/v1">
            <gpxtpx:hr>102</gpxtpx:hr>
          </gpxtpx:TrackPointExtension>
        </extensions>
      </trkpt>
      <trkpt lat="46.18227" lon="6.25326">
        <ele>479.9</ele>
        <time>2021-03-02T11:58:37Z</time>
        <extensions>
          <gpxtpx:TrackPointExtension xmlns:gpxtpx="http://www.garmin.com/xmlschemas/TrackPointExtension/v1">
            <gpxtpx:hr>102</gpxtpx:hr>
          </gpxtpx:TrackPointExtension>
        </extensions>
      </trkpt>
      <trkpt lat="46.18222" lon="6.25329">
        <ele>480</ele>
        <time>2021-03-02T11:58:38Z</time>
        <extensions>
          <gpxtpx:TrackPointExtension xmlns:gpxtpx="http://www.garmin.com/xmlschemas/TrackPointExtension/v1">
            <gpxtpx:hr>102</gpxtpx:hr>
          </gpxtpx:TrackPointExtension>
        </extensions>
      </trkpt>
      <trkpt lat="46.18217" lon="6.25333">
        <ele>480.1</ele>
        <time>2021-03-02T11:58:39Z</time>
        <extensions>
          <gpxtpx:TrackPointExtension xmlns:gpxtpx="http://www.garmin.com/xmlschemas/TrackPointExtension/v1">
            <gpxtpx:hr>102</gpxtpx:hr>
          </gpxtpx:TrackPointExtension>
        </extensions>
      </trkpt>
      <trkpt lat="46.18212" lon="6.25336">
        <ele>480.2</ele>
        <time>2021-03-02T11:58:40Z</time>
        <extensions>
          <gpxtpx:TrackPointExtension xmlns:gpxtpx="http://www.garmin.com/xmlschemas/TrackPointExtension/v1">
            <gpxtpx:hr>102</gpxtpx:hr>
          </gpxtpx:TrackPointExtension>
        </extensions>
      </trkpt>
      <trkpt lat="46.18206" lon="6.2534">
        <ele>480.3</ele>
        <time>2021-03-02T11:58:41Z</time>
        <extensions>
          <gpxtpx:TrackPointExtension xmlns:gpxtpx="http://www.garmin.com/xmlschemas/TrackPointExtension/v1">
            <gpxtpx:hr>102</gpxtpx:hr>
          </gpxtpx:TrackPointExtension>
        </extensions>
      </trkpt>
      <trkpt lat="46.18201" lon="6.25343">
        <ele>480.4</ele>
        <time>2021-03-02T11:58:42Z</time>
        <extensions>
          <gpxtpx:TrackPointExtension xmlns:gpxtpx="http://www.garmin.com/xmlschemas/TrackPointExtension/v1">
            <gpxtpx:hr>101</gpxtpx:hr>
          </gpxtpx:TrackPointExtension>
        </extensions>
      </trkpt>
      <trkpt lat="46.18196" lon="6.25346">
        <ele>480.5</ele>
        <time>2021-03-02T11:58:43Z</time>
        <extensions>
          <gpxtpx:TrackPointExtension xmlns:gpxtpx="http://www.garmin.com/xmlschemas/TrackPointExtension/v1">
            <gpxtpx:hr>101</gpxtpx:hr>
          </gpxtpx:TrackPointExtension>
        </extensions>
      </trkpt>
      <trkpt lat="46.1819" lon="6.2535">
        <ele>480.6</ele>
        <time>2021-03-02T11:58:44Z</time>
        <extensions>
          <gpxtpx:TrackPointExtension xmlns:gpxtpx="http://www.garmin.com/xmlschemas/TrackPointExtension/v1">
            <gpxtpx:hr>101</gpxtpx:hr>
          </gpxtpx:TrackPointExtension>
        </extensions>
      </trkpt>
      <trkpt lat="46.18185" lon="6.25353">
        <ele>480.7</ele>
        <time>2021-03-02T11:58:45Z</time>
        <extensions>
          <gpxtpx:TrackPointExtension xmlns:gpxtpx="http://www.garmin.com/xmlschemas/TrackPointExtension/v1">
            <gpxtpx:hr>101</gpxtpx:hr>
          </gpxtpx:TrackPointExtension>
        </extensions>
      </trkpt>
      <trkpt lat="46.1818" lon="6.25357">
        <ele>480.8</ele>
        <time>2021-03-02T11:58:46Z</time>
        <extensions>
          <gpxtpx:TrackPointExtension xmlns:gpxtpx="http://www.garmin.com/xmlschemas/TrackPointExtension/v1">
            <gpxtpx:hr>101</gpxtpx:hr>
          </gpxtpx:TrackPointExtension>
        </extensions>
      </trkpt>
      <trkpt lat="46.18174" lon="6.2536">
        <ele>480.9</ele>
        <time>2021-03-02T11:58:47Z</time>
        <extensions>
          <gpxtpx:TrackPointExtension xmlns:gpxtpx="http://www.garmin.com/xmlschemas/TrackPointExtension/v1">
            <gpxtpx:hr>101</gpxtpx:hr>
          </gpxtpx:TrackPointExtension>
        </extensions>
      </trkpt>
      <trkpt lat="46.18169" lon="6.25363">
        <ele>481</ele>
        <time>2021-03-02T11:58:48Z</time>
        <extensions>
          <gpxtpx:TrackPointExtension xmlns:gpxtpx="http://www.garmin.com/xmlschemas/TrackPointExtension/v1">
            <gpxtpx:hr>101</gpxtpx:hr>
          </gpxtpx:TrackPointExtension>
        </extensions>
      </trkpt>
      <trkpt lat="46.18163" lon="6.25367">
        <ele>481.1</ele>
        <time>2021-03-02T11:58:49Z</time>
        <extensions>
          <gpxtpx:TrackPointExtension xmlns:gpxtpx="http://www.garmin.com/xmlschemas/TrackPointExtension/v1">
            <gpxtpx:hr>101</gpxtpx:hr>
          </gpxtpx:TrackPointExtension>
        </extensions>
      </trkpt>
      <trkpt lat="46.18158" lon="6.25371">
        <ele>481.2</ele>
        <time>2021-03-02T11:58:50Z</time>
        <extensions>
          <gpxtpx:TrackPointExtension xmlns:gpxtpx="http://www.garmin.com/xmlschemas/TrackPointExtension/v1">
            <gpxtpx:hr>100</gpxtpx:hr>
          </gpxtpx:TrackPointExtension>
        </extensions>
      </trkpt>
      <trkpt lat="46.18153" lon="6.25373">
        <ele>481.3</ele>
        <time>2021-03-02T11:58:51Z</time>
        <extensions>
          <gpxtpx:TrackPointExtension xmlns:gpxtpx="http://www.garmin.com/xmlschemas/TrackPointExtension/v1">
            <gpxtpx:hr>100</gpxtpx:hr>
          </gpxtpx:TrackPointExtension>
        </extensions>
      </trkpt>
      <trkpt lat="46.18147" lon="6.25376">
        <ele>481.4</ele>
        <time>2021-03-02T11:58:52Z</time>
        <extensions>
          <gpxtpx:TrackPointExtension xmlns:gpxtpx="http://www.garmin.com/xmlschemas/TrackPointExtension/v1">
            <gpxtpx:hr>99</gpxtpx:hr>
          </gpxtpx:TrackPointExtension>
        </extensions>
      </trkpt>
      <trkpt lat="46.18141" lon="6.25379">
        <ele>481.5</ele>
        <time>2021-03-02T11:58:53Z</time>
        <extensions>
          <gpxtpx:TrackPointExtension xmlns:gpxtpx="http://www.garmin.com/xmlschemas/TrackPointExtension/v1">
            <gpxtpx:hr>99</gpxtpx:hr>
          </gpxtpx:TrackPointExtension>
        </extensions>
      </trkpt>
      <trkpt lat="46.18136" lon="6.25382">
        <ele>481.6</ele>
        <time>2021-03-02T11:58:54Z</time>
        <extensions>
          <gpxtpx:TrackPointExtension xmlns:gpxtpx="http://www.garmin.com/xmlschemas/TrackPointExtension/v1">
            <gpxtpx:hr>99</gpxtpx:hr>
          </gpxtpx:TrackPointExtension>
        </extensions>
      </trkpt>
      <trkpt lat="46.1813" lon="6.25386">
        <ele>481.7</ele>
        <time>2021-03-02T11:58:55Z</time>
        <extensions>
          <gpxtpx:TrackPointExtension xmlns:gpxtpx="http://www.garmin.com/xmlschemas/TrackPointExtension/v1">
            <gpxtpx:hr>97</gpxtpx:hr>
          </gpxtpx:TrackPointExtension>
        </extensions>
      </trkpt>
      <trkpt lat="46.18124" lon="6.25389">
        <ele>481.9</ele>
        <time>2021-03-02T11:58:56Z</time>
        <extensions>
          <gpxtpx:TrackPointExtension xmlns:gpxtpx="http://www.garmin.com/xmlschemas/TrackPointExtension/v1">
            <gpxtpx:hr>96</gpxtpx:hr>
          </gpxtpx:TrackPointExtension>
        </extensions>
      </trkpt>
      <trkpt lat="46.18119" lon="6.25393">
        <ele>482</ele>
        <time>2021-03-02T11:58:57Z</time>
        <extensions>
          <gpxtpx:TrackPointExtension xmlns:gpxtpx="http://www.garmin.com/xmlschemas/TrackPointExtension/v1">
            <gpxtpx:hr>94</gpxtpx:hr>
          </gpxtpx:TrackPointExtension>
        </extensions>
      </trkpt>
      <trkpt lat="46.18113" lon="6.25396">
        <ele>482.2</ele>
        <time>2021-03-02T11:58:58Z</time>
        <extensions>
          <gpxtpx:TrackPointExtension xmlns:gpxtpx="http://www.garmin.com/xmlschemas/TrackPointExtension/v1">
            <gpxtpx:hr>93</gpxtpx:hr>
          </gpxtpx:TrackPointExtension>
        </extensions>
      </trkpt>
      <trkpt lat="46.18108" lon="6.254">
        <ele>482.3</ele>
        <time>2021-03-02T11:58:59Z</time>
        <extensions>
          <gpxtpx:TrackPointExtension xmlns:gpxtpx="http://www.garmin.com/xmlschemas/TrackPointExtension/v1">
            <gpxtpx:hr>92</gpxtpx:hr>
          </gpxtpx:TrackPointExtension>
        </extensions>
      </trkpt>
      <trkpt lat="46.18102" lon="6.25404">
        <ele>482.5</ele>
        <time>2021-03-02T11:59:00Z</time>
        <extensions>
          <gpxtpx:TrackPointExtension xmlns:gpxtpx="http://www.garmin.com/xmlschemas/TrackPointExtension/v1">
            <gpxtpx:hr>91</gpxtpx:hr>
          </gpxtpx:TrackPointExtension>
        </extensions>
      </trkpt>
      <trkpt lat="46.18097" lon="6.25407">
        <ele>482.8</ele>
        <time>2021-03-02T11:59:01Z</time>
        <extensions>
          <gpxtpx:TrackPointExtension xmlns:gpxtpx="http://www.garmin.com/xmlschemas/TrackPointExtension/v1">
            <gpxtpx:hr>90</gpxtpx:hr>
          </gpxtpx:TrackPointExtension>
        </extensions>
      </trkpt>
      <trkpt lat="46.18092" lon="6.25411">
        <ele>483</ele>
        <time>2021-03-02T11:59:02Z</time>
        <extensions>
          <gpxtpx:TrackPointExtension xmlns:gpxtpx="http://www.garmin.com/xmlschemas/TrackPointExtension/v1">
            <gpxtpx:hr>90</gpxtpx:hr>
          </gpxtpx:TrackPointExtension>
        </extensions>
      </trkpt>
      <trkpt lat="46.18086" lon="6.25415">
        <ele>483.3</ele>
        <time>2021-03-02T11:59:03Z</time>
        <extensions>
          <gpxtpx:TrackPointExtension xmlns:gpxtpx="http://www.garmin.com/xmlschemas/TrackPointExtension/v1">
            <gpxtpx:hr>90</gpxtpx:hr>
          </gpxtpx:TrackPointExtension>
        </extensions>
      </trkpt>
      <trkpt lat="46.18082" lon="6.2542">
        <ele>483.5</ele>
        <time>2021-03-02T11:59:04Z</time>
        <extensions>
          <gpxtpx:TrackPointExtension xmlns:gpxtpx="http://www.garmin.com/xmlschemas/TrackPointExtension/v1">
            <gpxtpx:hr>90</gpxtpx:hr>
          </gpxtpx:TrackPointExtension>
        </extensions>
      </trkpt>
      <trkpt lat="46.18077" lon="6.25424">
        <ele>483.7</ele>
        <time>2021-03-02T11:59:05Z</time>
        <extensions>
          <gpxtpx:TrackPointExtension xmlns:gpxtpx="http://www.garmin.com/xmlschemas/TrackPointExtension/v1">
            <gpxtpx:hr>90</gpxtpx:hr>
          </gpxtpx:TrackPointExtension>
        </extensions>
      </trkpt>
      <trkpt lat="46.18073" lon="6.25429">
        <ele>483.9</ele>
        <time>2021-03-02T11:59:06Z</time>
        <extensions>
          <gpxtpx:TrackPointExtension xmlns:gpxtpx="http://www.garmin.com/xmlschemas/TrackPointExtension/v1">
            <gpxtpx:hr>90</gpxtpx:hr>
          </gpxtpx:TrackPointExtension>
        </extensions>
      </trkpt>
      <trkpt lat="46.18069" lon="6.25433">
        <ele>484.2</ele>
        <time>2021-03-02T11:59:07Z</time>
        <extensions>
          <gpxtpx:TrackPointExtension xmlns:gpxtpx="http://www.garmin.com/xmlschemas/TrackPointExtension/v1">
            <gpxtpx:hr>90</gpxtpx:hr>
          </gpxtpx:TrackPointExtension>
        </extensions>
      </trkpt>
      <trkpt lat="46.18065" lon="6.25438">
        <ele>484.5</ele>
        <time>2021-03-02T11:59:08Z</time>
        <extensions>
          <gpxtpx:TrackPointExtension xmlns:gpxtpx="http://www.garmin.com/xmlschemas/TrackPointExtension/v1">
            <gpxtpx:hr>90</gpxtpx:hr>
          </gpxtpx:TrackPointExtension>
        </extensions>
      </trkpt>
      <trkpt lat="46.18062" lon="6.25442">
        <ele>484.7</ele>
        <time>2021-03-02T11:59:09Z</time>
        <extensions>
          <gpxtpx:TrackPointExtension xmlns:gpxtpx="http://www.garmin.com/xmlschemas/TrackPointExtension/v1">
            <gpxtpx:hr>90</gpxtpx:hr>
          </gpxtpx:TrackPointExtension>
        </extensions>
      </trkpt>
      <trkpt lat="46.18059" lon="6.25447">
        <ele>485</ele>
        <time>2021-03-02T11:59:10Z</time>
        <extensions>
          <gpxtpx:TrackPointExtension xmlns:gpxtpx="http://www.garmin.com/xmlschemas/TrackPointExtension/v1">
            <gpxtpx:hr>90</gpxtpx:hr>
          </gpxtpx:TrackPointExtension>
        </extensions>
      </trkpt>
      <trkpt lat="46.18055" lon="6.25452">
        <ele>485.3</ele>
        <time>2021-03-02T11:59:11Z</time>
        <extensions>
          <gpxtpx:TrackPointExtension xmlns:gpxtpx="http://www.garmin.com/xmlschemas/TrackPointExtension/v1">
            <gpxtpx:hr>90</gpxtpx:hr>
          </gpxtpx:TrackPointExtension>
        </extensions>
      </trkpt>
      <trkpt lat="46.18052" lon="6.25457">
        <ele>485.5</ele>
        <time>2021-03-02T11:59:12Z</time>
        <extensions>
          <gpxtpx:TrackPointExtension xmlns:gpxtpx="http://www.garmin.com/xmlschemas/TrackPointExtension/v1">
            <gpxtpx:hr>90</gpxtpx:hr>
          </gpxtpx:TrackPointExtension>
        </extensions>
      </trkpt>
      <trkpt lat="46.18049" lon="6.25462">
        <ele>485.8</ele>
        <time>2021-03-02T11:59:13Z</time>
        <extensions>
          <gpxtpx:TrackPointExtension xmlns:gpxtpx="http://www.garmin.com/xmlschemas/TrackPointExtension/v1">
            <gpxtpx:hr>89</gpxtpx:hr>
          </gpxtpx:TrackPointExtension>
        </extensions>
      </trkpt>
      <trkpt lat="46.18046" lon="6.25467">
        <ele>486</ele>
        <time>2021-03-02T11:59:14Z</time>
        <extensions>
          <gpxtpx:TrackPointExtension xmlns:gpxtpx="http://www.garmin.com/xmlschemas/TrackPointExtension/v1">
            <gpxtpx:hr>89</gpxtpx:hr>
          </gpxtpx:TrackPointExtension>
        </extensions>
      </trkpt>
      <trkpt lat="46.18043" lon="6.25471">
        <ele>486.2</ele>
        <time>2021-03-02T11:59:15Z</time>
        <extensions>
          <gpxtpx:TrackPointExtension xmlns:gpxtpx="http://www.garmin.com/xmlschemas/TrackPointExtension/v1">
            <gpxtpx:hr>90</gpxtpx:hr>
          </gpxtpx:TrackPointExtension>
        </extensions>
      </trkpt>
      <trkpt lat="46.18039" lon="6.25476">
        <ele>486.3</ele>
        <time>2021-03-02T11:59:16Z</time>
        <extensions>
          <gpxtpx:TrackPointExtension xmlns:gpxtpx="http://www.garmin.com/xmlschemas/TrackPointExtension/v1">
            <gpxtpx:hr>91</gpxtpx:hr>
          </gpxtpx:TrackPointExtension>
        </extensions>
      </trkpt>
      <trkpt lat="46.18036" lon="6.25481">
        <ele>486.5</ele>
        <time>2021-03-02T11:59:17Z</time>
        <extensions>
          <gpxtpx:TrackPointExtension xmlns:gpxtpx="http://www.garmin.com/xmlschemas/TrackPointExtension/v1">
            <gpxtpx:hr>91</gpxtpx:hr>
          </gpxtpx:TrackPointExtension>
        </extensions>
      </trkpt>
      <trkpt lat="46.18033" lon="6.25485">
        <ele>486.7</ele>
        <time>2021-03-02T11:59:18Z</time>
        <extensions>
          <gpxtpx:TrackPointExtension xmlns:gpxtpx="http://www.garmin.com/xmlschemas/TrackPointExtension/v1">
            <gpxtpx:hr>92</gpxtpx:hr>
          </gpxtpx:TrackPointExtension>
        </extensions>
      </trkpt>
      <trkpt lat="46.18029" lon="6.2549">
        <ele>486.8</ele>
        <time>2021-03-02T11:59:19Z</time>
        <extensions>
          <gpxtpx:TrackPointExtension xmlns:gpxtpx="http://www.garmin.com/xmlschemas/TrackPointExtension/v1">
            <gpxtpx:hr>91</gpxtpx:hr>
          </gpxtpx:TrackPointExtension>
        </extensions>
      </trkpt>
      <trkpt lat="46.18026" lon="6.25494">
        <ele>487</ele>
        <time>2021-03-02T11:59:20Z</time>
        <extensions>
          <gpxtpx:TrackPointExtension xmlns:gpxtpx="http://www.garmin.com/xmlschemas/TrackPointExtension/v1">
            <gpxtpx:hr>91</gpxtpx:hr>
          </gpxtpx:TrackPointExtension>
        </extensions>
      </trkpt>
      <trkpt lat="46.18022" lon="6.25498">
        <ele>487.2</ele>
        <time>2021-03-02T11:59:21Z</time>
        <extensions>
          <gpxtpx:TrackPointExtension xmlns:gpxtpx="http://www.garmin.com/xmlschemas/TrackPointExtension/v1">
            <gpxtpx:hr>90</gpxtpx:hr>
          </gpxtpx:TrackPointExtension>
        </extensions>
      </trkpt>
      <trkpt lat="46.18018" lon="6.25502">
        <ele>487.3</ele>
        <time>2021-03-02T11:59:22Z</time>
        <extensions>
          <gpxtpx:TrackPointExtension xmlns:gpxtpx="http://www.garmin.com/xmlschemas/TrackPointExtension/v1">
            <gpxtpx:hr>89</gpxtpx:hr>
          </gpxtpx:TrackPointExtension>
        </extensions>
      </trkpt>
      <trkpt lat="46.18014" lon="6.25506">
        <ele>487.4</ele>
        <time>2021-03-02T11:59:23Z</time>
        <extensions>
          <gpxtpx:TrackPointExtension xmlns:gpxtpx="http://www.garmin.com/xmlschemas/TrackPointExtension/v1">
            <gpxtpx:hr>89</gpxtpx:hr>
          </gpxtpx:TrackPointExtension>
        </extensions>
      </trkpt>
      <trkpt lat="46.1801" lon="6.2551">
        <ele>487.5</ele>
        <time>2021-03-02T11:59:24Z</time>
        <extensions>
          <gpxtpx:TrackPointExtension xmlns:gpxtpx="http://www.garmin.com/xmlschemas/TrackPointExtension/v1">
            <gpxtpx:hr>89</gpxtpx:hr>
          </gpxtpx:TrackPointExtension>
        </extensions>
      </trkpt>
      <trkpt lat="46.18006" lon="6.25514">
        <ele>487.6</ele>
        <time>2021-03-02T11:59:25Z</time>
        <extensions>
          <gpxtpx:TrackPointExtension xmlns:gpxtpx="http://www.garmin.com/xmlschemas/TrackPointExtension/v1">
            <gpxtpx:hr>89</gpxtpx:hr>
          </gpxtpx:TrackPointExtension>
        </extensions>
      </trkpt>
      <trkpt lat="46.18002" lon="6.25518">
        <ele>487.7</ele>
        <time>2021-03-02T11:59:26Z</time>
        <extensions>
          <gpxtpx:TrackPointExtension xmlns:gpxtpx="http://www.garmin.com/xmlschemas/TrackPointExtension/v1">
            <gpxtpx:hr>88</gpxtpx:hr>
          </gpxtpx:TrackPointExtension>
        </extensions>
      </trkpt>
      <trkpt lat="46.17997" lon="6.25521">
        <ele>487.8</ele>
        <time>2021-03-02T11:59:27Z</time>
        <extensions>
          <gpxtpx:TrackPointExtension xmlns:gpxtpx="http://www.garmin.com/xmlschemas/TrackPointExtension/v1">
            <gpxtpx:hr>88</gpxtpx:hr>
          </gpxtpx:TrackPointExtension>
        </extensions>
      </trkpt>
      <trkpt lat="46.17992" lon="6.25524">
        <ele>487.8</ele>
        <time>2021-03-02T11:59:28Z</time>
        <extensions>
          <gpxtpx:TrackPointExtension xmlns:gpxtpx="http://www.garmin.com/xmlschemas/TrackPointExtension/v1">
            <gpxtpx:hr>88</gpxtpx:hr>
          </gpxtpx:TrackPointExtension>
        </extensions>
      </trkpt>
      <trkpt lat="46.17987" lon="6.25528">
        <ele>487.9</ele>
        <time>2021-03-02T11:59:29Z</time>
        <extensions>
          <gpxtpx:TrackPointExtension xmlns:gpxtpx="http://www.garmin.com/xmlschemas/TrackPointExtension/v1">
            <gpxtpx:hr>88</gpxtpx:hr>
          </gpxtpx:TrackPointExtension>
        </extensions>
      </trkpt>
      <trkpt lat="46.17982" lon="6.25531">
        <ele>487.9</ele>
        <time>2021-03-02T11:59:30Z</time>
        <extensions>
          <gpxtpx:TrackPointExtension xmlns:gpxtpx="http://www.garmin.com/xmlschemas/TrackPointExtension/v1">
            <gpxtpx:hr>88</gpxtpx:hr>
          </gpxtpx:TrackPointExtension>
        </extensions>
      </trkpt>
      <trkpt lat="46.17977" lon="6.25534">
        <ele>487.9</ele>
        <time>2021-03-02T11:59:31Z</time>
        <extensions>
          <gpxtpx:TrackPointExtension xmlns:gpxtpx="http://www.garmin.com/xmlschemas/TrackPointExtension/v1">
            <gpxtpx:hr>89</gpxtpx:hr>
          </gpxtpx:TrackPointExtension>
        </extensions>
      </trkpt>
      <trkpt lat="46.17972" lon="6.25536">
        <ele>487.9</ele>
        <time>2021-03-02T11:59:32Z</time>
        <extensions>
          <gpxtpx:TrackPointExtension xmlns:gpxtpx="http://www.garmin.com/xmlschemas/TrackPointExtension/v1">
            <gpxtpx:hr>89</gpxtpx:hr>
          </gpxtpx:TrackPointExtension>
        </extensions>
      </trkpt>
      <trkpt lat="46.17966" lon="6.25539">
        <ele>487.8</ele>
        <time>2021-03-02T11:59:33Z</time>
        <extensions>
          <gpxtpx:TrackPointExtension xmlns:gpxtpx="http://www.garmin.com/xmlschemas/TrackPointExtension/v1">
            <gpxtpx:hr>89</gpxtpx:hr>
          </gpxtpx:TrackPointExtension>
        </extensions>
      </trkpt>
      <trkpt lat="46.1796" lon="6.25542">
        <ele>487.7</ele>
        <time>2021-03-02T11:59:34Z</time>
        <extensions>
          <gpxtpx:TrackPointExtension xmlns:gpxtpx="http://www.garmin.com/xmlschemas/TrackPointExtension/v1">
            <gpxtpx:hr>89</gpxtpx:hr>
          </gpxtpx:TrackPointExtension>
        </extensions>
      </trkpt>
      <trkpt lat="46.17954" lon="6.25544">
        <ele>487.6</ele>
        <time>2021-03-02T11:59:35Z</time>
        <extensions>
          <gpxtpx:TrackPointExtension xmlns:gpxtpx="http://www.garmin.com/xmlschemas/TrackPointExtension/v1">
            <gpxtpx:hr>90</gpxtpx:hr>
          </gpxtpx:TrackPointExtension>
        </extensions>
      </trkpt>
      <trkpt lat="46.17947" lon="6.25546">
        <ele>487.5</ele>
        <time>2021-03-02T11:59:36Z</time>
        <extensions>
          <gpxtpx:TrackPointExtension xmlns:gpxtpx="http://www.garmin.com/xmlschemas/TrackPointExtension/v1">
            <gpxtpx:hr>90</gpxtpx:hr>
          </gpxtpx:TrackPointExtension>
        </extensions>
      </trkpt>
      <trkpt lat="46.17941" lon="6.25548">
        <ele>487.3</ele>
        <time>2021-03-02T11:59:37Z</time>
        <extensions>
          <gpxtpx:TrackPointExtension xmlns:gpxtpx="http://www.garmin.com/xmlschemas/TrackPointExtension/v1">
            <gpxtpx:hr>90</gpxtpx:hr>
          </gpxtpx:TrackPointExtension>
        </extensions>
      </trkpt>
      <trkpt lat="46.17934" lon="6.2555">
        <ele>487</ele>
        <time>2021-03-02T11:59:38Z</time>
        <extensions>
          <gpxtpx:TrackPointExtension xmlns:gpxtpx="http://www.garmin.com/xmlschemas/TrackPointExtension/v1">
            <gpxtpx:hr>91</gpxtpx:hr>
          </gpxtpx:TrackPointExtension>
        </extensions>
      </trkpt>
      <trkpt lat="46.17926" lon="6.25553">
        <ele>486.7</ele>
        <time>2021-03-02T11:59:39Z</time>
        <extensions>
          <gpxtpx:TrackPointExtension xmlns:gpxtpx="http://www.garmin.com/xmlschemas/TrackPointExtension/v1">
            <gpxtpx:hr>91</gpxtpx:hr>
          </gpxtpx:TrackPointExtension>
        </extensions>
      </trkpt>
      <trkpt lat="46.17919" lon="6.25554">
        <ele>486.4</ele>
        <time>2021-03-02T11:59:40Z</time>
        <extensions>
          <gpxtpx:TrackPointExtension xmlns:gpxtpx="http://www.garmin.com/xmlschemas/TrackPointExtension/v1">
            <gpxtpx:hr>91</gpxtpx:hr>
          </gpxtpx:TrackPointExtension>
        </extensions>
      </trkpt>
      <trkpt lat="46.17911" lon="6.25556">
        <ele>486.1</ele>
        <time>2021-03-02T11:59:41Z</time>
        <extensions>
          <gpxtpx:TrackPointExtension xmlns:gpxtpx="http://www.garmin.com/xmlschemas/TrackPointExtension/v1">
            <gpxtpx:hr>91</gpxtpx:hr>
          </gpxtpx:TrackPointExtension>
        </extensions>
      </trkpt>
      <trkpt lat="46.17903" lon="6.25557">
        <ele>485.8</ele>
        <time>2021-03-02T11:59:42Z</time>
        <extensions>
          <gpxtpx:TrackPointExtension xmlns:gpxtpx="http://www.garmin.com/xmlschemas/TrackPointExtension/v1">
            <gpxtpx:hr>91</gpxtpx:hr>
          </gpxtpx:TrackPointExtension>
        </extensions>
      </trkpt>
      <trkpt lat="46.17895" lon="6.25557">
        <ele>485.5</ele>
        <time>2021-03-02T11:59:43Z</time>
        <extensions>
          <gpxtpx:TrackPointExtension xmlns:gpxtpx="http://www.garmin.com/xmlschemas/TrackPointExtension/v1">
            <gpxtpx:hr>92</gpxtpx:hr>
          </gpxtpx:TrackPointExtension>
        </extensions>
      </trkpt>
      <trkpt lat="46.17887" lon="6.25558">
        <ele>485.2</ele>
        <time>2021-03-02T11:59:44Z</time>
        <extensions>
          <gpxtpx:TrackPointExtension xmlns:gpxtpx="http://www.garmin.com/xmlschemas/TrackPointExtension/v1">
            <gpxtpx:hr>92</gpxtpx:hr>
          </gpxtpx:TrackPointExtension>
        </extensions>
      </trkpt>
      <trkpt lat="46.17879" lon="6.25558">
        <ele>484.8</ele>
        <time>2021-03-02T11:59:45Z</time>
        <extensions>
          <gpxtpx:TrackPointExtension xmlns:gpxtpx="http://www.garmin.com/xmlschemas/TrackPointExtension/v1">
            <gpxtpx:hr>93</gpxtpx:hr>
          </gpxtpx:TrackPointExtension>
        </extensions>
      </trkpt>
      <trkpt lat="46.17871" lon="6.25558">
        <ele>484.5</ele>
        <time>2021-03-02T11:59:46Z</time>
        <extensions>
          <gpxtpx:TrackPointExtension xmlns:gpxtpx="http://www.garmin.com/xmlschemas/TrackPointExtension/v1">
            <gpxtpx:hr>93</gpxtpx:hr>
          </gpxtpx:TrackPointExtension>
        </extensions>
      </trkpt>
      <trkpt lat="46.17862" lon="6.25557">
        <ele>484.1</ele>
        <time>2021-03-02T11:59:47Z</time>
        <extensions>
          <gpxtpx:TrackPointExtension xmlns:gpxtpx="http://www.garmin.com/xmlschemas/TrackPointExtension/v1">
            <gpxtpx:hr>94</gpxtpx:hr>
          </gpxtpx:TrackPointExtension>
        </extensions>
      </trkpt>
      <trkpt lat="46.17853" lon="6.25555">
        <ele>483.7</ele>
        <time>2021-03-02T11:59:48Z</time>
        <extensions>
          <gpxtpx:TrackPointExtension xmlns:gpxtpx="http://www.garmin.com/xmlschemas/TrackPointExtension/v1">
            <gpxtpx:hr>95</gpxtpx:hr>
          </gpxtpx:TrackPointExtension>
        </extensions>
      </trkpt>
      <trkpt lat="46.17844" lon="6.25553">
        <ele>483.5</ele>
        <time>2021-03-02T11:59:49Z</time>
        <extensions>
          <gpxtpx:TrackPointExtension xmlns:gpxtpx="http://www.garmin.com/xmlschemas/TrackPointExtension/v1">
            <gpxtpx:hr>96</gpxtpx:hr>
          </gpxtpx:TrackPointExtension>
        </extensions>
      </trkpt>
      <trkpt lat="46.17835" lon="6.25552">
        <ele>483.3</ele>
        <time>2021-03-02T11:59:50Z</time>
        <extensions>
          <gpxtpx:TrackPointExtension xmlns:gpxtpx="http://www.garmin.com/xmlschemas/TrackPointExtension/v1">
            <gpxtpx:hr>97</gpxtpx:hr>
          </gpxtpx:TrackPointExtension>
        </extensions>
      </trkpt>
      <trkpt lat="46.17825" lon="6.25552">
        <ele>483.1</ele>
        <time>2021-03-02T11:59:51Z</time>
        <extensions>
          <gpxtpx:TrackPointExtension xmlns:gpxtpx="http://www.garmin.com/xmlschemas/TrackPointExtension/v1">
            <gpxtpx:hr>97</gpxtpx:hr>
          </gpxtpx:TrackPointExtension>
        </extensions>
      </trkpt>
      <trkpt lat="46.17816" lon="6.25552">
        <ele>483</ele>
        <time>2021-03-02T11:59:52Z</time>
        <extensions>
          <gpxtpx:TrackPointExtension xmlns:gpxtpx="http://www.garmin.com/xmlschemas/TrackPointExtension/v1">
            <gpxtpx:hr>97</gpxtpx:hr>
          </gpxtpx:TrackPointExtension>
        </extensions>
      </trkpt>
      <trkpt lat="46.17807" lon="6.25552">
        <ele>482.9</ele>
        <time>2021-03-02T11:59:53Z</time>
        <extensions>
          <gpxtpx:TrackPointExtension xmlns:gpxtpx="http://www.garmin.com/xmlschemas/TrackPointExtension/v1">
            <gpxtpx:hr>98</gpxtpx:hr>
          </gpxtpx:TrackPointExtension>
        </extensions>
      </trkpt>
      <trkpt lat="46.17798" lon="6.25553">
        <ele>482.8</ele>
        <time>2021-03-02T11:59:54Z</time>
        <extensions>
          <gpxtpx:TrackPointExtension xmlns:gpxtpx="http://www.garmin.com/xmlschemas/TrackPointExtension/v1">
            <gpxtpx:hr>98</gpxtpx:hr>
          </gpxtpx:TrackPointExtension>
        </extensions>
      </trkpt>
      <trkpt lat="46.17788" lon="6.25554">
        <ele>482.8</ele>
        <time>2021-03-02T11:59:55Z</time>
        <extensions>
          <gpxtpx:TrackPointExtension xmlns:gpxtpx="http://www.garmin.com/xmlschemas/TrackPointExtension/v1">
            <gpxtpx:hr>98</gpxtpx:hr>
          </gpxtpx:TrackPointExtension>
        </extensions>
      </trkpt>
      <trkpt lat="46.17779" lon="6.25555">
        <ele>482.7</ele>
        <time>2021-03-02T11:59:56Z</time>
        <extensions>
          <gpxtpx:TrackPointExtension xmlns:gpxtpx="http://www.garmin.com/xmlschemas/TrackPointExtension/v1">
            <gpxtpx:hr>98</gpxtpx:hr>
          </gpxtpx:TrackPointExtension>
        </extensions>
      </trkpt>
      <trkpt lat="46.17769" lon="6.25557">
        <ele>482.7</ele>
        <time>2021-03-02T11:59:57Z</time>
        <extensions>
          <gpxtpx:TrackPointExtension xmlns:gpxtpx="http://www.garmin.com/xmlschemas/TrackPointExtension/v1">
            <gpxtpx:hr>98</gpxtpx:hr>
          </gpxtpx:TrackPointExtension>
        </extensions>
      </trkpt>
      <trkpt lat="46.1776" lon="6.25559">
        <ele>482.8</ele>
        <time>2021-03-02T11:59:58Z</time>
        <extensions>
          <gpxtpx:TrackPointExtension xmlns:gpxtpx="http://www.garmin.com/xmlschemas/TrackPointExtension/v1">
            <gpxtpx:hr>98</gpxtpx:hr>
          </gpxtpx:TrackPointExtension>
        </extensions>
      </trkpt>
      <trkpt lat="46.1775" lon="6.25562">
        <ele>482.8</ele>
        <time>2021-03-02T11:59:59Z</time>
        <extensions>
          <gpxtpx:TrackPointExtension xmlns:gpxtpx="http://www.garmin.com/xmlschemas/TrackPointExtension/v1">
            <gpxtpx:hr>98</gpxtpx:hr>
          </gpxtpx:TrackPointExtension>
        </extensions>
      </trkpt>
      <trkpt lat="46.17741" lon="6.25566">
        <ele>482.9</ele>
        <time>2021-03-02T12:00:00Z</time>
        <extensions>
          <gpxtpx:TrackPointExtension xmlns:gpxtpx="http://www.garmin.com/xmlschemas/TrackPointExtension/v1">
            <gpxtpx:hr>98</gpxtpx:hr>
          </gpxtpx:TrackPointExtension>
        </extensions>
      </trkpt>
      <trkpt lat="46.17733" lon="6.2557">
        <ele>483</ele>
        <time>2021-03-02T12:00:01Z</time>
        <extensions>
          <gpxtpx:TrackPointExtension xmlns:gpxtpx="http://www.garmin.com/xmlschemas/TrackPointExtension/v1">
            <gpxtpx:hr>98</gpxtpx:hr>
          </gpxtpx:TrackPointExtension>
        </extensions>
      </trkpt>
      <trkpt lat="46.17724" lon="6.25574">
        <ele>483.1</ele>
        <time>2021-03-02T12:00:02Z</time>
        <extensions>
          <gpxtpx:TrackPointExtension xmlns:gpxtpx="http://www.garmin.com/xmlschemas/TrackPointExtension/v1">
            <gpxtpx:hr>98</gpxtpx:hr>
          </gpxtpx:TrackPointExtension>
        </extensions>
      </trkpt>
      <trkpt lat="46.17716" lon="6.25579">
        <ele>483.3</ele>
        <time>2021-03-02T12:00:03Z</time>
        <extensions>
          <gpxtpx:TrackPointExtension xmlns:gpxtpx="http://www.garmin.com/xmlschemas/TrackPointExtension/v1">
            <gpxtpx:hr>98</gpxtpx:hr>
          </gpxtpx:TrackPointExtension>
        </extensions>
      </trkpt>
      <trkpt lat="46.17707" lon="6.25583">
        <ele>483.5</ele>
        <time>2021-03-02T12:00:04Z</time>
        <extensions>
          <gpxtpx:TrackPointExtension xmlns:gpxtpx="http://www.garmin.com/xmlschemas/TrackPointExtension/v1">
            <gpxtpx:hr>97</gpxtpx:hr>
          </gpxtpx:TrackPointExtension>
        </extensions>
      </trkpt>
      <trkpt lat="46.17699" lon="6.25587">
        <ele>483.7</ele>
        <time>2021-03-02T12:00:05Z</time>
        <extensions>
          <gpxtpx:TrackPointExtension xmlns:gpxtpx="http://www.garmin.com/xmlschemas/TrackPointExtension/v1">
            <gpxtpx:hr>97</gpxtpx:hr>
          </gpxtpx:TrackPointExtension>
        </extensions>
      </trkpt>
      <trkpt lat="46.17692" lon="6.25591">
        <ele>483.8</ele>
        <time>2021-03-02T12:00:06Z</time>
        <extensions>
          <gpxtpx:TrackPointExtension xmlns:gpxtpx="http://www.garmin.com/xmlschemas/TrackPointExtension/v1">
            <gpxtpx:hr>96</gpxtpx:hr>
          </gpxtpx:TrackPointExtension>
        </extensions>
      </trkpt>
      <trkpt lat="46.17684" lon="6.25596">
        <ele>484</ele>
        <time>2021-03-02T12:00:07Z</time>
        <extensions>
          <gpxtpx:TrackPointExtension xmlns:gpxtpx="http://www.garmin.com/xmlschemas/TrackPointExtension/v1">
            <gpxtpx:hr>95</gpxtpx:hr>
          </gpxtpx:TrackPointExtension>
        </extensions>
      </trkpt>
      <trkpt lat="46.17676" lon="6.256">
        <ele>484.1</ele>
        <time>2021-03-02T12:00:08Z</time>
        <extensions>
          <gpxtpx:TrackPointExtension xmlns:gpxtpx="http://www.garmin.com/xmlschemas/TrackPointExtension/v1">
            <gpxtpx:hr>95</gpxtpx:hr>
          </gpxtpx:TrackPointExtension>
        </extensions>
      </trkpt>
      <trkpt lat="46.17668" lon="6.25603">
        <ele>484.2</ele>
        <time>2021-03-02T12:00:09Z</time>
        <extensions>
          <gpxtpx:TrackPointExtension xmlns:gpxtpx="http://www.garmin.com/xmlschemas/TrackPointExtension/v1">
            <gpxtpx:hr>94</gpxtpx:hr>
          </gpxtpx:TrackPointExtension>
        </extensions>
      </trkpt>
      <trkpt lat="46.17661" lon="6.25607">
        <ele>484.4</ele>
        <time>2021-03-02T12:00:10Z</time>
        <extensions>
          <gpxtpx:TrackPointExtension xmlns:gpxtpx="http://www.garmin.com/xmlschemas/TrackPointExtension/v1">
            <gpxtpx:hr>94</gpxtpx:hr>
          </gpxtpx:TrackPointExtension>
        </extensions>
      </trkpt>
      <trkpt lat="46.17653" lon="6.25611">
        <ele>484.5</ele>
        <time>2021-03-02T12:00:11Z</time>
        <extensions>
          <gpxtpx:TrackPointExtension xmlns:gpxtpx="http://www.garmin.com/xmlschemas/TrackPointExtension/v1">
            <gpxtpx:hr>94</gpxtpx:hr>
          </gpxtpx:TrackPointExtension>
        </extensions>
      </trkpt>
      <trkpt lat="46.17646" lon="6.25615">
        <ele>484.6</ele>
        <time>2021-03-02T12:00:12Z</time>
        <extensions>
          <gpxtpx:TrackPointExtension xmlns:gpxtpx="http://www.garmin.com/xmlschemas/TrackPointExtension/v1">
            <gpxtpx:hr>94</gpxtpx:hr>
          </gpxtpx:TrackPointExtension>
        </extensions>
      </trkpt>
      <trkpt lat="46.17638" lon="6.25619">
        <ele>484.8</ele>
        <time>2021-03-02T12:00:13Z</time>
        <extensions>
          <gpxtpx:TrackPointExtension xmlns:gpxtpx="http://www.garmin.com/xmlschemas/TrackPointExtension/v1">
            <gpxtpx:hr>94</gpxtpx:hr>
          </gpxtpx:TrackPointExtension>
        </extensions>
      </trkpt>
      <trkpt lat="46.17631" lon="6.25623">
        <ele>485.1</ele>
        <time>2021-03-02T12:00:14Z</time>
        <extensions>
          <gpxtpx:TrackPointExtension xmlns:gpxtpx="http://www.garmin.com/xmlschemas/TrackPointExtension/v1">
            <gpxtpx:hr>94</gpxtpx:hr>
          </gpxtpx:TrackPointExtension>
        </extensions>
      </trkpt>
      <trkpt lat="46.17623" lon="6.25627">
        <ele>485.3</ele>
        <time>2021-03-02T12:00:15Z</time>
        <extensions>
          <gpxtpx:TrackPointExtension xmlns:gpxtpx="http://www.garmin.com/xmlschemas/TrackPointExtension/v1">
            <gpxtpx:hr>94</gpxtpx:hr>
          </gpxtpx:TrackPointExtension>
        </extensions>
      </trkpt>
      <trkpt lat="46.17616" lon="6.25631">
        <ele>485.5</ele>
        <time>2021-03-02T12:00:16Z</time>
        <extensions>
          <gpxtpx:TrackPointExtension xmlns:gpxtpx="http://www.garmin.com/xmlschemas/TrackPointExtension/v1">
            <gpxtpx:hr>94</gpxtpx:hr>
          </gpxtpx:TrackPointExtension>
        </extensions>
      </trkpt>
      <trkpt lat="46.17609" lon="6.25635">
        <ele>485.7</ele>
        <time>2021-03-02T12:00:17Z</time>
        <extensions>
          <gpxtpx:TrackPointExtension xmlns:gpxtpx="http://www.garmin.com/xmlschemas/TrackPointExtension/v1">
            <gpxtpx:hr>94</gpxtpx:hr>
          </gpxtpx:TrackPointExtension>
        </extensions>
      </trkpt>
      <trkpt lat="46.17602" lon="6.25639">
        <ele>485.9</ele>
        <time>2021-03-02T12:00:18Z</time>
        <extensions>
          <gpxtpx:TrackPointExtension xmlns:gpxtpx="http://www.garmin.com/xmlschemas/TrackPointExtension/v1">
            <gpxtpx:hr>94</gpxtpx:hr>
          </gpxtpx:TrackPointExtension>
        </extensions>
      </trkpt>
      <trkpt lat="46.17595" lon="6.25642">
        <ele>486.1</ele>
        <time>2021-03-02T12:00:19Z</time>
        <extensions>
          <gpxtpx:TrackPointExtension xmlns:gpxtpx="http://www.garmin.com/xmlschemas/TrackPointExtension/v1">
            <gpxtpx:hr>94</gpxtpx:hr>
          </gpxtpx:TrackPointExtension>
        </extensions>
      </trkpt>
      <trkpt lat="46.17588" lon="6.25646">
        <ele>486.3</ele>
        <time>2021-03-02T12:00:20Z</time>
        <extensions>
          <gpxtpx:TrackPointExtension xmlns:gpxtpx="http://www.garmin.com/xmlschemas/TrackPointExtension/v1">
            <gpxtpx:hr>94</gpxtpx:hr>
          </gpxtpx:TrackPointExtension>
        </extensions>
      </trkpt>
      <trkpt lat="46.17581" lon="6.25649">
        <ele>486.5</ele>
        <time>2021-03-02T12:00:21Z</time>
        <extensions>
          <gpxtpx:TrackPointExtension xmlns:gpxtpx="http://www.garmin.com/xmlschemas/TrackPointExtension/v1">
            <gpxtpx:hr>94</gpxtpx:hr>
          </gpxtpx:TrackPointExtension>
        </extensions>
      </trkpt>
      <trkpt lat="46.17575" lon="6.25653">
        <ele>486.7</ele>
        <time>2021-03-02T12:00:22Z</time>
        <extensions>
          <gpxtpx:TrackPointExtension xmlns:gpxtpx="http://www.garmin.com/xmlschemas/TrackPointExtension/v1">
            <gpxtpx:hr>93</gpxtpx:hr>
          </gpxtpx:TrackPointExtension>
        </extensions>
      </trkpt>
      <trkpt lat="46.17568" lon="6.25657">
        <ele>486.9</ele>
        <time>2021-03-02T12:00:23Z</time>
        <extensions>
          <gpxtpx:TrackPointExtension xmlns:gpxtpx="http://www.garmin.com/xmlschemas/TrackPointExtension/v1">
            <gpxtpx:hr>93</gpxtpx:hr>
          </gpxtpx:TrackPointExtension>
        </extensions>
      </trkpt>
      <trkpt lat="46.17562" lon="6.2566">
        <ele>487.2</ele>
        <time>2021-03-02T12:00:24Z</time>
        <extensions>
          <gpxtpx:TrackPointExtension xmlns:gpxtpx="http://www.garmin.com/xmlschemas/TrackPointExtension/v1">
            <gpxtpx:hr>93</gpxtpx:hr>
          </gpxtpx:TrackPointExtension>
        </extensions>
      </trkpt>
      <trkpt lat="46.17555" lon="6.25664">
        <ele>487.4</ele>
        <time>2021-03-02T12:00:25Z</time>
        <extensions>
          <gpxtpx:TrackPointExtension xmlns:gpxtpx="http://www.garmin.com/xmlschemas/TrackPointExtension/v1">
            <gpxtpx:hr>93</gpxtpx:hr>
          </gpxtpx:TrackPointExtension>
        </extensions>
      </trkpt>
      <trkpt lat="46.1755" lon="6.25669">
        <ele>487.7</ele>
        <time>2021-03-02T12:00:26Z</time>
        <extensions>
          <gpxtpx:TrackPointExtension xmlns:gpxtpx="http://www.garmin.com/xmlschemas/TrackPointExtension/v1">
            <gpxtpx:hr>93</gpxtpx:hr>
          </gpxtpx:TrackPointExtension>
        </extensions>
      </trkpt>
      <trkpt lat="46.17544" lon="6.25674">
        <ele>487.9</ele>
        <time>2021-03-02T12:00:27Z</time>
        <extensions>
          <gpxtpx:TrackPointExtension xmlns:gpxtpx="http://www.garmin.com/xmlschemas/TrackPointExtension/v1">
            <gpxtpx:hr>93</gpxtpx:hr>
          </gpxtpx:TrackPointExtension>
        </extensions>
      </trkpt>
      <trkpt lat="46.17539" lon="6.25678">
        <ele>488.1</ele>
        <time>2021-03-02T12:00:28Z</time>
        <extensions>
          <gpxtpx:TrackPointExtension xmlns:gpxtpx="http://www.garmin.com/xmlschemas/TrackPointExtension/v1">
            <gpxtpx:hr>93</gpxtpx:hr>
          </gpxtpx:TrackPointExtension>
        </extensions>
      </trkpt>
      <trkpt lat="46.17534" lon="6.25683">
        <ele>488.3</ele>
        <time>2021-03-02T12:00:29Z</time>
        <extensions>
          <gpxtpx:TrackPointExtension xmlns:gpxtpx="http://www.garmin.com/xmlschemas/TrackPointExtension/v1">
            <gpxtpx:hr>93</gpxtpx:hr>
          </gpxtpx:TrackPointExtension>
        </extensions>
      </trkpt>
      <trkpt lat="46.17528" lon="6.25687">
        <ele>488.6</ele>
        <time>2021-03-02T12:00:30Z</time>
        <extensions>
          <gpxtpx:TrackPointExtension xmlns:gpxtpx="http://www.garmin.com/xmlschemas/TrackPointExtension/v1">
            <gpxtpx:hr>94</gpxtpx:hr>
          </gpxtpx:TrackPointExtension>
        </extensions>
      </trkpt>
      <trkpt lat="46.17523" lon="6.25692">
        <ele>489</ele>
        <time>2021-03-02T12:00:31Z</time>
        <extensions>
          <gpxtpx:TrackPointExtension xmlns:gpxtpx="http://www.garmin.com/xmlschemas/TrackPointExtension/v1">
            <gpxtpx:hr>95</gpxtpx:hr>
          </gpxtpx:TrackPointExtension>
        </extensions>
      </trkpt>
      <trkpt lat="46.17518" lon="6.25695">
        <ele>489.4</ele>
        <time>2021-03-02T12:00:32Z</time>
        <extensions>
          <gpxtpx:TrackPointExtension xmlns:gpxtpx="http://www.garmin.com/xmlschemas/TrackPointExtension/v1">
            <gpxtpx:hr>95</gpxtpx:hr>
          </gpxtpx:TrackPointExtension>
        </extensions>
      </trkpt>
      <trkpt lat="46.17514" lon="6.25699">
        <ele>489.9</ele>
        <time>2021-03-02T12:00:33Z</time>
        <extensions>
          <gpxtpx:TrackPointExtension xmlns:gpxtpx="http://www.garmin.com/xmlschemas/TrackPointExtension/v1">
            <gpxtpx:hr>96</gpxtpx:hr>
          </gpxtpx:TrackPointExtension>
        </extensions>
      </trkpt>
      <trkpt lat="46.1751" lon="6.25702">
        <ele>490.2</ele>
        <time>2021-03-02T12:00:34Z</time>
        <extensions>
          <gpxtpx:TrackPointExtension xmlns:gpxtpx="http://www.garmin.com/xmlschemas/TrackPointExtension/v1">
            <gpxtpx:hr>96</gpxtpx:hr>
          </gpxtpx:TrackPointExtension>
        </extensions>
      </trkpt>
      <trkpt lat="46.17505" lon="6.25706">
        <ele>490.7</ele>
        <time>2021-03-02T12:00:35Z</time>
        <extensions>
          <gpxtpx:TrackPointExtension xmlns:gpxtpx="http://www.garmin.com/xmlschemas/TrackPointExtension/v1">
            <gpxtpx:hr>97</gpxtpx:hr>
          </gpxtpx:TrackPointExtension>
        </extensions>
      </trkpt>
      <trkpt lat="46.17501" lon="6.2571">
        <ele>491.1</ele>
        <time>2021-03-02T12:00:36Z</time>
        <extensions>
          <gpxtpx:TrackPointExtension xmlns:gpxtpx="http://www.garmin.com/xmlschemas/TrackPointExtension/v1">
            <gpxtpx:hr>97</gpxtpx:hr>
          </gpxtpx:TrackPointExtension>
        </extensions>
      </trkpt>
      <trkpt lat="46.17497" lon="6.25714">
        <ele>491.5</ele>
        <time>2021-03-02T12:00:37Z</time>
        <extensions>
          <gpxtpx:TrackPointExtension xmlns:gpxtpx="http://www.garmin.com/xmlschemas/TrackPointExtension/v1">
            <gpxtpx:hr>99</gpxtpx:hr>
          </gpxtpx:TrackPointExtension>
        </extensions>
      </trkpt>
      <trkpt lat="46.17493" lon="6.25718">
        <ele>491.8</ele>
        <time>2021-03-02T12:00:38Z</time>
        <extensions>
          <gpxtpx:TrackPointExtension xmlns:gpxtpx="http://www.garmin.com/xmlschemas/TrackPointExtension/v1">
            <gpxtpx:hr>100</gpxtpx:hr>
          </gpxtpx:TrackPointExtension>
        </extensions>
      </trkpt>
      <trkpt lat="46.17489" lon="6.25721">
        <ele>492.2</ele>
        <time>2021-03-02T12:00:39Z</time>
        <extensions>
          <gpxtpx:TrackPointExtension xmlns:gpxtpx="http://www.garmin.com/xmlschemas/TrackPointExtension/v1">
            <gpxtpx:hr>102</gpxtpx:hr>
          </gpxtpx:TrackPointExtension>
        </extensions>
      </trkpt>
      <trkpt lat="46.17484" lon="6.25725">
        <ele>492.3</ele>
        <time>2021-03-02T12:00:40Z</time>
        <extensions>
          <gpxtpx:TrackPointExtension xmlns:gpxtpx="http://www.garmin.com/xmlschemas/TrackPointExtension/v1">
            <gpxtpx:hr>102</gpxtpx:hr>
          </gpxtpx:TrackPointExtension>
        </extensions>
      </trkpt>
      <trkpt lat="46.1748" lon="6.25729">
        <ele>492.4</ele>
        <time>2021-03-02T12:00:41Z</time>
        <extensions>
          <gpxtpx:TrackPointExtension xmlns:gpxtpx="http://www.garmin.com/xmlschemas/TrackPointExtension/v1">
            <gpxtpx:hr>101</gpxtpx:hr>
          </gpxtpx:TrackPointExtension>
        </extensions>
      </trkpt>
      <trkpt lat="46.17476" lon="6.25732">
        <ele>492.6</ele>
        <time>2021-03-02T12:00:42Z</time>
        <extensions>
          <gpxtpx:TrackPointExtension xmlns:gpxtpx="http://www.garmin.com/xmlschemas/TrackPointExtension/v1">
            <gpxtpx:hr>100</gpxtpx:hr>
          </gpxtpx:TrackPointExtension>
        </extensions>
      </trkpt>
      <trkpt lat="46.17472" lon="6.25735">
        <ele>492.9</ele>
        <time>2021-03-02T12:00:43Z</time>
        <extensions>
          <gpxtpx:TrackPointExtension xmlns:gpxtpx="http://www.garmin.com/xmlschemas/TrackPointExtension/v1">
            <gpxtpx:hr>99</gpxtpx:hr>
          </gpxtpx:TrackPointExtension>
        </extensions>
      </trkpt>
      <trkpt lat="46.17468" lon="6.25739">
        <ele>493.2</ele>
        <time>2021-03-02T12:00:44Z</time>
        <extensions>
          <gpxtpx:TrackPointExtension xmlns:gpxtpx="http://www.garmin.com/xmlschemas/TrackPointExtension/v1">
            <gpxtpx:hr>98</gpxtpx:hr>
          </gpxtpx:TrackPointExtension>
        </extensions>
      </trkpt>
      <trkpt lat="46.17464" lon="6.25742">
        <ele>493.5</ele>
        <time>2021-03-02T12:00:45Z</time>
        <extensions>
          <gpxtpx:TrackPointExtension xmlns:gpxtpx="http://www.garmin.com/xmlschemas/TrackPointExtension/v1">
            <gpxtpx:hr>97</gpxtpx:hr>
          </gpxtpx:TrackPointExtension>
        </extensions>
      </trkpt>
      <trkpt lat="46.1746" lon="6.25746">
        <ele>493.8</ele>
        <time>2021-03-02T12:00:46Z</time>
        <extensions>
          <gpxtpx:TrackPointExtension xmlns:gpxtpx="http://www.garmin.com/xmlschemas/TrackPointExtension/v1">
            <gpxtpx:hr>96</gpxtpx:hr>
          </gpxtpx:TrackPointExtension>
        </extensions>
      </trkpt>
      <trkpt lat="46.17456" lon="6.2575">
        <ele>494.1</ele>
        <time>2021-03-02T12:00:47Z</time>
        <extensions>
          <gpxtpx:TrackPointExtension xmlns:gpxtpx="http://www.garmin.com/xmlschemas/TrackPointExtension/v1">
            <gpxtpx:hr>95</gpxtpx:hr>
          </gpxtpx:TrackPointExtension>
        </extensions>
      </trkpt>
      <trkpt lat="46.17452" lon="6.25753">
        <ele>494.3</ele>
        <time>2021-03-02T12:00:48Z</time>
        <extensions>
          <gpxtpx:TrackPointExtension xmlns:gpxtpx="http://www.garmin.com/xmlschemas/TrackPointExtension/v1">
            <gpxtpx:hr>95</gpxtpx:hr>
          </gpxtpx:TrackPointExtension>
        </extensions>
      </trkpt>
      <trkpt lat="46.17448" lon="6.25757">
        <ele>494.6</ele>
        <time>2021-03-02T12:00:49Z</time>
        <extensions>
          <gpxtpx:TrackPointExtension xmlns:gpxtpx="http://www.garmin.com/xmlschemas/TrackPointExtension/v1">
            <gpxtpx:hr>96</gpxtpx:hr>
          </gpxtpx:TrackPointExtension>
        </extensions>
      </trkpt>
      <trkpt lat="46.17444" lon="6.25761">
        <ele>494.8</ele>
        <time>2021-03-02T12:00:50Z</time>
        <extensions>
          <gpxtpx:TrackPointExtension xmlns:gpxtpx="http://www.garmin.com/xmlschemas/TrackPointExtension/v1">
            <gpxtpx:hr>97</gpxtpx:hr>
          </gpxtpx:TrackPointExtension>
        </extensions>
      </trkpt>
      <trkpt lat="46.1744" lon="6.25767">
        <ele>495</ele>
        <time>2021-03-02T12:00:51Z</time>
        <extensions>
          <gpxtpx:TrackPointExtension xmlns:gpxtpx="http://www.garmin.com/xmlschemas/TrackPointExtension/v1">
            <gpxtpx:hr>97</gpxtpx:hr>
          </gpxtpx:TrackPointExtension>
        </extensions>
      </trkpt>
      <trkpt lat="46.17437" lon="6.25772">
        <ele>495.1</ele>
        <time>2021-03-02T12:00:52Z</time>
        <extensions>
          <gpxtpx:TrackPointExtension xmlns:gpxtpx="http://www.garmin.com/xmlschemas/TrackPointExtension/v1">
            <gpxtpx:hr>98</gpxtpx:hr>
          </gpxtpx:TrackPointExtension>
        </extensions>
      </trkpt>
      <trkpt lat="46.17434" lon="6.25777">
        <ele>495.2</ele>
        <time>2021-03-02T12:00:53Z</time>
        <extensions>
          <gpxtpx:TrackPointExtension xmlns:gpxtpx="http://www.garmin.com/xmlschemas/TrackPointExtension/v1">
            <gpxtpx:hr>98</gpxtpx:hr>
          </gpxtpx:TrackPointExtension>
        </extensions>
      </trkpt>
      <trkpt lat="46.1743" lon="6.25781">
        <ele>495.3</ele>
        <time>2021-03-02T12:00:54Z</time>
        <extensions>
          <gpxtpx:TrackPointExtension xmlns:gpxtpx="http://www.garmin.com/xmlschemas/TrackPointExtension/v1">
            <gpxtpx:hr>98</gpxtpx:hr>
          </gpxtpx:TrackPointExtension>
        </extensions>
      </trkpt>
      <trkpt lat="46.17426" lon="6.25784">
        <ele>495.3</ele>
        <time>2021-03-02T12:00:55Z</time>
        <extensions>
          <gpxtpx:TrackPointExtension xmlns:gpxtpx="http://www.garmin.com/xmlschemas/TrackPointExtension/v1">
            <gpxtpx:hr>98</gpxtpx:hr>
          </gpxtpx:TrackPointExtension>
        </extensions>
      </trkpt>
      <trkpt lat="46.17423" lon="6.25786">
        <ele>495.2</ele>
        <time>2021-03-02T12:00:56Z</time>
        <extensions>
          <gpxtpx:TrackPointExtension xmlns:gpxtpx="http://www.garmin.com/xmlschemas/TrackPointExtension/v1">
            <gpxtpx:hr>99</gpxtpx:hr>
          </gpxtpx:TrackPointExtension>
        </extensions>
      </trkpt>
      <trkpt lat="46.17421" lon="6.25787">
        <ele>495.2</ele>
        <time>2021-03-02T12:00:57Z</time>
        <extensions>
          <gpxtpx:TrackPointExtension xmlns:gpxtpx="http://www.garmin.com/xmlschemas/TrackPointExtension/v1">
            <gpxtpx:hr>98</gpxtpx:hr>
          </gpxtpx:TrackPointExtension>
        </extensions>
      </trkpt>
      <trkpt lat="46.17421" lon="6.25788">
        <ele>495.2</ele>
        <time>2021-03-02T12:00:58Z</time>
        <extensions>
          <gpxtpx:TrackPointExtension xmlns:gpxtpx="http://www.garmin.com/xmlschemas/TrackPointExtension/v1">
            <gpxtpx:hr>98</gpxtpx:hr>
          </gpxtpx:TrackPointExtension>
        </extensions>
      </trkpt>
      <trkpt lat="46.17421" lon="6.25788">
        <ele>495.2</ele>
        <time>2021-03-02T12:00:59Z</time>
        <extensions>
          <gpxtpx:TrackPointExtension xmlns:gpxtpx="http://www.garmin.com/xmlschemas/TrackPointExtension/v1">
            <gpxtpx:hr>97</gpxtpx:hr>
          </gpxtpx:TrackPointExtension>
        </extensions>
      </trkpt>
      <trkpt lat="46.17421" lon="6.25788">
        <ele>495.2</ele>
        <time>2021-03-02T12:01:00Z</time>
        <extensions>
          <gpxtpx:TrackPointExtension xmlns:gpxtpx="http://www.garmin.com/xmlschemas/TrackPointExtension/v1">
            <gpxtpx:hr>96</gpxtpx:hr>
          </gpxtpx:TrackPointExtension>
        </extensions>
      </trkpt>
      <trkpt lat="46.17421" lon="6.25788">
        <ele>495.2</ele>
        <time>2021-03-02T12:01:01Z</time>
        <extensions>
          <gpxtpx:TrackPointExtension xmlns:gpxtpx="http://www.garmin.com/xmlschemas/TrackPointExtension/v1">
            <gpxtpx:hr>96</gpxtpx:hr>
          </gpxtpx:TrackPointExtension>
        </extensions>
      </trkpt>
      <trkpt lat="46.17421" lon="6.25788">
        <ele>495.2</ele>
        <time>2021-03-02T12:01:02Z</time>
        <extensions>
          <gpxtpx:TrackPointExtension xmlns:gpxtpx="http://www.garmin.com/xmlschemas/TrackPointExtension/v1">
            <gpxtpx:hr>103</gpxtpx:hr>
          </gpxtpx:TrackPointExtension>
        </extensions>
      </trkpt>
      <trkpt lat="46.17419" lon="6.25789">
        <ele>495.2</ele>
        <time>2021-03-02T12:01:15Z</time>
        <extensions>
          <gpxtpx:TrackPointExtension xmlns:gpxtpx="http://www.garmin.com/xmlschemas/TrackPointExtension/v1">
            <gpxtpx:hr>103</gpxtpx:hr>
          </gpxtpx:TrackPointExtension>
        </extensions>
      </trkpt>
      <trkpt lat="46.17417" lon="6.25791">
        <ele>495.3</ele>
        <time>2021-03-02T12:01:16Z</time>
        <extensions>
          <gpxtpx:TrackPointExtension xmlns:gpxtpx="http://www.garmin.com/xmlschemas/TrackPointExtension/v1">
            <gpxtpx:hr>103</gpxtpx:hr>
          </gpxtpx:TrackPointExtension>
        </extensions>
      </trkpt>
      <trkpt lat="46.17416" lon="6.25793">
        <ele>495.3</ele>
        <time>2021-03-02T12:01:17Z</time>
        <extensions>
          <gpxtpx:TrackPointExtension xmlns:gpxtpx="http://www.garmin.com/xmlschemas/TrackPointExtension/v1">
            <gpxtpx:hr>104</gpxtpx:hr>
          </gpxtpx:TrackPointExtension>
        </extensions>
      </trkpt>
      <trkpt lat="46.17416" lon="6.25796">
        <ele>495.3</ele>
        <time>2021-03-02T12:01:18Z</time>
        <extensions>
          <gpxtpx:TrackPointExtension xmlns:gpxtpx="http://www.garmin.com/xmlschemas/TrackPointExtension/v1">
            <gpxtpx:hr>104</gpxtpx:hr>
          </gpxtpx:TrackPointExtension>
        </extensions>
      </trkpt>
      <trkpt lat="46.17415" lon="6.25799">
        <ele>495.4</ele>
        <time>2021-03-02T12:01:19Z</time>
        <extensions>
          <gpxtpx:TrackPointExtension xmlns:gpxtpx="http://www.garmin.com/xmlschemas/TrackPointExtension/v1">
            <gpxtpx:hr>105</gpxtpx:hr>
          </gpxtpx:TrackPointExtension>
        </extensions>
      </trkpt>
      <trkpt lat="46.17415" lon="6.25802">
        <ele>495.4</ele>
        <time>2021-03-02T12:01:20Z</time>
        <extensions>
          <gpxtpx:TrackPointExtension xmlns:gpxtpx="http://www.garmin.com/xmlschemas/TrackPointExtension/v1">
            <gpxtpx:hr>105</gpxtpx:hr>
          </gpxtpx:TrackPointExtension>
        </extensions>
      </trkpt>
      <trkpt lat="46.17415" lon="6.25806">
        <ele>495.5</ele>
        <time>2021-03-02T12:01:21Z</time>
        <extensions>
          <gpxtpx:TrackPointExtension xmlns:gpxtpx="http://www.garmin.com/xmlschemas/TrackPointExtension/v1">
            <gpxtpx:hr>106</gpxtpx:hr>
          </gpxtpx:TrackPointExtension>
        </extensions>
      </trkpt>
      <trkpt lat="46.17414" lon="6.25811">
        <ele>495.5</ele>
        <time>2021-03-02T12:01:22Z</time>
        <extensions>
          <gpxtpx:TrackPointExtension xmlns:gpxtpx="http://www.garmin.com/xmlschemas/TrackPointExtension/v1">
            <gpxtpx:hr>106</gpxtpx:hr>
          </gpxtpx:TrackPointExtension>
        </extensions>
      </trkpt>
      <trkpt lat="46.17413" lon="6.25816">
        <ele>495.5</ele>
        <time>2021-03-02T12:01:23Z</time>
        <extensions>
          <gpxtpx:TrackPointExtension xmlns:gpxtpx="http://www.garmin.com/xmlschemas/TrackPointExtension/v1">
            <gpxtpx:hr>106</gpxtpx:hr>
          </gpxtpx:TrackPointExtension>
        </extensions>
      </trkpt>
      <trkpt lat="46.17413" lon="6.25822">
        <ele>495.5</ele>
        <time>2021-03-02T12:01:24Z</time>
        <extensions>
          <gpxtpx:TrackPointExtension xmlns:gpxtpx="http://www.garmin.com/xmlschemas/TrackPointExtension/v1">
            <gpxtpx:hr>105</gpxtpx:hr>
          </gpxtpx:TrackPointExtension>
        </extensions>
      </trkpt>
      <trkpt lat="46.17411" lon="6.25828">
        <ele>495.5</ele>
        <time>2021-03-02T12:01:25Z</time>
        <extensions>
          <gpxtpx:TrackPointExtension xmlns:gpxtpx="http://www.garmin.com/xmlschemas/TrackPointExtension/v1">
            <gpxtpx:hr>105</gpxtpx:hr>
          </gpxtpx:TrackPointExtension>
        </extensions>
      </trkpt>
      <trkpt lat="46.17409" lon="6.25834">
        <ele>495.6</ele>
        <time>2021-03-02T12:01:26Z</time>
        <extensions>
          <gpxtpx:TrackPointExtension xmlns:gpxtpx="http://www.garmin.com/xmlschemas/TrackPointExtension/v1">
            <gpxtpx:hr>105</gpxtpx:hr>
          </gpxtpx:TrackPointExtension>
        </extensions>
      </trkpt>
      <trkpt lat="46.17406" lon="6.25839">
        <ele>495.3</ele>
        <time>2021-03-02T12:01:27Z</time>
        <extensions>
          <gpxtpx:TrackPointExtension xmlns:gpxtpx="http://www.garmin.com/xmlschemas/TrackPointExtension/v1">
            <gpxtpx:hr>104</gpxtpx:hr>
          </gpxtpx:TrackPointExtension>
        </extensions>
      </trkpt>
      <trkpt lat="46.17402" lon="6.25844">
        <ele>495</ele>
        <time>2021-03-02T12:01:28Z</time>
        <extensions>
          <gpxtpx:TrackPointExtension xmlns:gpxtpx="http://www.garmin.com/xmlschemas/TrackPointExtension/v1">
            <gpxtpx:hr>104</gpxtpx:hr>
          </gpxtpx:TrackPointExtension>
        </extensions>
      </trkpt>
      <trkpt lat="46.17398" lon="6.25849">
        <ele>494.8</ele>
        <time>2021-03-02T12:01:29Z</time>
        <extensions>
          <gpxtpx:TrackPointExtension xmlns:gpxtpx="http://www.garmin.com/xmlschemas/TrackPointExtension/v1">
            <gpxtpx:hr>104</gpxtpx:hr>
          </gpxtpx:TrackPointExtension>
        </extensions>
      </trkpt>
      <trkpt lat="46.17393" lon="6.25854">
        <ele>494.5</ele>
        <time>2021-03-02T12:01:30Z</time>
        <extensions>
          <gpxtpx:TrackPointExtension xmlns:gpxtpx="http://www.garmin.com/xmlschemas/TrackPointExtension/v1">
            <gpxtpx:hr>103</gpxtpx:hr>
          </gpxtpx:TrackPointExtension>
        </extensions>
      </trkpt>
      <trkpt lat="46.17388" lon="6.25859">
        <ele>494.2</ele>
        <time>2021-03-02T12:01:31Z</time>
        <extensions>
          <gpxtpx:TrackPointExtension xmlns:gpxtpx="http://www.garmin.com/xmlschemas/TrackPointExtension/v1">
            <gpxtpx:hr>103</gpxtpx:hr>
          </gpxtpx:TrackPointExtension>
        </extensions>
      </trkpt>
      <trkpt lat="46.17383" lon="6.25865">
        <ele>494</ele>
        <time>2021-03-02T12:01:32Z</time>
        <extensions>
          <gpxtpx:TrackPointExtension xmlns:gpxtpx="http://www.garmin.com/xmlschemas/TrackPointExtension/v1">
            <gpxtpx:hr>101</gpxtpx:hr>
          </gpxtpx:TrackPointExtension>
        </extensions>
      </trkpt>
      <trkpt lat="46.17378" lon="6.25871">
        <ele>493.8</ele>
        <time>2021-03-02T12:01:33Z</time>
        <extensions>
          <gpxtpx:TrackPointExtension xmlns:gpxtpx="http://www.garmin.com/xmlschemas/TrackPointExtension/v1">
            <gpxtpx:hr>100</gpxtpx:hr>
          </gpxtpx:TrackPointExtension>
        </extensions>
      </trkpt>
      <trkpt lat="46.17373" lon="6.25878">
        <ele>493.5</ele>
        <time>2021-03-02T12:01:34Z</time>
        <extensions>
          <gpxtpx:TrackPointExtension xmlns:gpxtpx="http://www.garmin.com/xmlschemas/TrackPointExtension/v1">
            <gpxtpx:hr>100</gpxtpx:hr>
          </gpxtpx:TrackPointExtension>
        </extensions>
      </trkpt>
      <trkpt lat="46.17369" lon="6.25885">
        <ele>493.2</ele>
        <time>2021-03-02T12:01:35Z</time>
        <extensions>
          <gpxtpx:TrackPointExtension xmlns:gpxtpx="http://www.garmin.com/xmlschemas/TrackPointExtension/v1">
            <gpxtpx:hr>101</gpxtpx:hr>
          </gpxtpx:TrackPointExtension>
        </extensions>
      </trkpt>
      <trkpt lat="46.17364" lon="6.25893">
        <ele>493</ele>
        <time>2021-03-02T12:01:36Z</time>
        <extensions>
          <gpxtpx:TrackPointExtension xmlns:gpxtpx="http://www.garmin.com/xmlschemas/TrackPointExtension/v1">
            <gpxtpx:hr>101</gpxtpx:hr>
          </gpxtpx:TrackPointExtension>
        </extensions>
      </trkpt>
      <trkpt lat="46.1736" lon="6.25902">
        <ele>492.8</ele>
        <time>2021-03-02T12:01:37Z</time>
        <extensions>
          <gpxtpx:TrackPointExtension xmlns:gpxtpx="http://www.garmin.com/xmlschemas/TrackPointExtension/v1">
            <gpxtpx:hr>100</gpxtpx:hr>
          </gpxtpx:TrackPointExtension>
        </extensions>
      </trkpt>
      <trkpt lat="46.17357" lon="6.25912">
        <ele>492.7</ele>
        <time>2021-03-02T12:01:38Z</time>
        <extensions>
          <gpxtpx:TrackPointExtension xmlns:gpxtpx="http://www.garmin.com/xmlschemas/TrackPointExtension/v1">
            <gpxtpx:hr>100</gpxtpx:hr>
          </gpxtpx:TrackPointExtension>
        </extensions>
      </trkpt>
      <trkpt lat="46.17353" lon="6.25921">
        <ele>492.6</ele>
        <time>2021-03-02T12:01:39Z</time>
        <extensions>
          <gpxtpx:TrackPointExtension xmlns:gpxtpx="http://www.garmin.com/xmlschemas/TrackPointExtension/v1">
            <gpxtpx:hr>99</gpxtpx:hr>
          </gpxtpx:TrackPointExtension>
        </extensions>
      </trkpt>
      <trkpt lat="46.17349" lon="6.25931">
        <ele>492.5</ele>
        <time>2021-03-02T12:01:40Z</time>
        <extensions>
          <gpxtpx:TrackPointExtension xmlns:gpxtpx="http://www.garmin.com/xmlschemas/TrackPointExtension/v1">
            <gpxtpx:hr>99</gpxtpx:hr>
          </gpxtpx:TrackPointExtension>
        </extensions>
      </trkpt>
      <trkpt lat="46.17346" lon="6.2594">
        <ele>492.4</ele>
        <time>2021-03-02T12:01:41Z</time>
        <extensions>
          <gpxtpx:TrackPointExtension xmlns:gpxtpx="http://www.garmin.com/xmlschemas/TrackPointExtension/v1">
            <gpxtpx:hr>99</gpxtpx:hr>
          </gpxtpx:TrackPointExtension>
        </extensions>
      </trkpt>
      <trkpt lat="46.17342" lon="6.25949">
        <ele>492.3</ele>
        <time>2021-03-02T12:01:42Z</time>
        <extensions>
          <gpxtpx:TrackPointExtension xmlns:gpxtpx="http://www.garmin.com/xmlschemas/TrackPointExtension/v1">
            <gpxtpx:hr>99</gpxtpx:hr>
          </gpxtpx:TrackPointExtension>
        </extensions>
      </trkpt>
      <trkpt lat="46.17338" lon="6.25958">
        <ele>492.2</ele>
        <time>2021-03-02T12:01:43Z</time>
        <extensions>
          <gpxtpx:TrackPointExtension xmlns:gpxtpx="http://www.garmin.com/xmlschemas/TrackPointExtension/v1">
            <gpxtpx:hr>99</gpxtpx:hr>
          </gpxtpx:TrackPointExtension>
        </extensions>
      </trkpt>
      <trkpt lat="46.17334" lon="6.25967">
        <ele>492.1</ele>
        <time>2021-03-02T12:01:44Z</time>
        <extensions>
          <gpxtpx:TrackPointExtension xmlns:gpxtpx="http://www.garmin.com/xmlschemas/TrackPointExtension/v1">
            <gpxtpx:hr>100</gpxtpx:hr>
          </gpxtpx:TrackPointExtension>
        </extensions>
      </trkpt>
      <trkpt lat="46.1733" lon="6.25976">
        <ele>492.1</ele>
        <time>2021-03-02T12:01:45Z</time>
        <extensions>
          <gpxtpx:TrackPointExtension xmlns:gpxtpx="http://www.garmin.com/xmlschemas/TrackPointExtension/v1">
            <gpxtpx:hr>100</gpxtpx:hr>
          </gpxtpx:TrackPointExtension>
        </extensions>
      </trkpt>
      <trkpt lat="46.17326" lon="6.25984">
        <ele>492.1</ele>
        <time>2021-03-02T12:01:46Z</time>
        <extensions>
          <gpxtpx:TrackPointExtension xmlns:gpxtpx="http://www.garmin.com/xmlschemas/TrackPointExtension/v1">
            <gpxtpx:hr>100</gpxtpx:hr>
          </gpxtpx:TrackPointExtension>
        </extensions>
      </trkpt>
      <trkpt lat="46.17321" lon="6.25993">
        <ele>492.1</ele>
        <time>2021-03-02T12:01:47Z</time>
        <extensions>
          <gpxtpx:TrackPointExtension xmlns:gpxtpx="http://www.garmin.com/xmlschemas/TrackPointExtension/v1">
            <gpxtpx:hr>101</gpxtpx:hr>
          </gpxtpx:TrackPointExtension>
        </extensions>
      </trkpt>
      <trkpt lat="46.17317" lon="6.26002">
        <ele>492.2</ele>
        <time>2021-03-02T12:01:48Z</time>
        <extensions>
          <gpxtpx:TrackPointExtension xmlns:gpxtpx="http://www.garmin.com/xmlschemas/TrackPointExtension/v1">
            <gpxtpx:hr>101</gpxtpx:hr>
          </gpxtpx:TrackPointExtension>
        </extensions>
      </trkpt>
      <trkpt lat="46.17313" lon="6.26011">
        <ele>492.3</ele>
        <time>2021-03-02T12:01:49Z</time>
        <extensions>
          <gpxtpx:TrackPointExtension xmlns:gpxtpx="http://www.garmin.com/xmlschemas/TrackPointExtension/v1">
            <gpxtpx:hr>103</gpxtpx:hr>
          </gpxtpx:TrackPointExtension>
        </extensions>
      </trkpt>
      <trkpt lat="46.17308" lon="6.26021">
        <ele>492.4</ele>
        <time>2021-03-02T12:01:50Z</time>
        <extensions>
          <gpxtpx:TrackPointExtension xmlns:gpxtpx="http://www.garmin.com/xmlschemas/TrackPointExtension/v1">
            <gpxtpx:hr>105</gpxtpx:hr>
          </gpxtpx:TrackPointExtension>
        </extensions>
      </trkpt>
      <trkpt lat="46.17304" lon="6.2603">
        <ele>492.5</ele>
        <time>2021-03-02T12:01:51Z</time>
        <extensions>
          <gpxtpx:TrackPointExtension xmlns:gpxtpx="http://www.garmin.com/xmlschemas/TrackPointExtension/v1">
            <gpxtpx:hr>107</gpxtpx:hr>
          </gpxtpx:TrackPointExtension>
        </extensions>
      </trkpt>
      <trkpt lat="46.173" lon="6.26039">
        <ele>492.7</ele>
        <time>2021-03-02T12:01:52Z</time>
        <extensions>
          <gpxtpx:TrackPointExtension xmlns:gpxtpx="http://www.garmin.com/xmlschemas/TrackPointExtension/v1">
            <gpxtpx:hr>109</gpxtpx:hr>
          </gpxtpx:TrackPointExtension>
        </extensions>
      </trkpt>
      <trkpt lat="46.17295" lon="6.26048">
        <ele>492.9</ele>
        <time>2021-03-02T12:01:53Z</time>
        <extensions>
          <gpxtpx:TrackPointExtension xmlns:gpxtpx="http://www.garmin.com/xmlschemas/TrackPointExtension/v1">
            <gpxtpx:hr>109</gpxtpx:hr>
          </gpxtpx:TrackPointExtension>
        </extensions>
      </trkpt>
      <trkpt lat="46.17291" lon="6.26055">
        <ele>493.2</ele>
        <time>2021-03-02T12:01:54Z</time>
        <extensions>
          <gpxtpx:TrackPointExtension xmlns:gpxtpx="http://www.garmin.com/xmlschemas/TrackPointExtension/v1">
            <gpxtpx:hr>110</gpxtpx:hr>
          </gpxtpx:TrackPointExtension>
        </extensions>
      </trkpt>
      <trkpt lat="46.17286" lon="6.26063">
        <ele>493.5</ele>
        <time>2021-03-02T12:01:55Z</time>
        <extensions>
          <gpxtpx:TrackPointExtension xmlns:gpxtpx="http://www.garmin.com/xmlschemas/TrackPointExtension/v1">
            <gpxtpx:hr>111</gpxtpx:hr>
          </gpxtpx:TrackPointExtension>
        </extensions>
      </trkpt>
      <trkpt lat="46.17282" lon="6.2607">
        <ele>493.9</ele>
        <time>2021-03-02T12:01:56Z</time>
        <extensions>
          <gpxtpx:TrackPointExtension xmlns:gpxtpx="http://www.garmin.com/xmlschemas/TrackPointExtension/v1">
            <gpxtpx:hr>112</gpxtpx:hr>
          </gpxtpx:TrackPointExtension>
        </extensions>
      </trkpt>
      <trkpt lat="46.17278" lon="6.26077">
        <ele>494.3</ele>
        <time>2021-03-02T12:01:57Z</time>
        <extensions>
          <gpxtpx:TrackPointExtension xmlns:gpxtpx="http://www.garmin.com/xmlschemas/TrackPointExtension/v1">
            <gpxtpx:hr>112</gpxtpx:hr>
          </gpxtpx:TrackPointExtension>
        </extensions>
      </trkpt>
      <trkpt lat="46.17275" lon="6.26084">
        <ele>494.6</ele>
        <time>2021-03-02T12:01:58Z</time>
        <extensions>
          <gpxtpx:TrackPointExtension xmlns:gpxtpx="http://www.garmin.com/xmlschemas/TrackPointExtension/v1">
            <gpxtpx:hr>112</gpxtpx:hr>
          </gpxtpx:TrackPointExtension>
        </extensions>
      </trkpt>
      <trkpt lat="46.17271" lon="6.26091">
        <ele>495</ele>
        <time>2021-03-02T12:01:59Z</time>
        <extensions>
          <gpxtpx:TrackPointExtension xmlns:gpxtpx="http://www.garmin.com/xmlschemas/TrackPointExtension/v1">
            <gpxtpx:hr>112</gpxtpx:hr>
          </gpxtpx:TrackPointExtension>
        </extensions>
      </trkpt>
      <trkpt lat="46.17267" lon="6.26096">
        <ele>495.2</ele>
        <time>2021-03-02T12:02:00Z</time>
        <extensions>
          <gpxtpx:TrackPointExtension xmlns:gpxtpx="http://www.garmin.com/xmlschemas/TrackPointExtension/v1">
            <gpxtpx:hr>112</gpxtpx:hr>
          </gpxtpx:TrackPointExtension>
        </extensions>
      </trkpt>
      <trkpt lat="46.17264" lon="6.26103">
        <ele>495.5</ele>
        <time>2021-03-02T12:02:01Z</time>
        <extensions>
          <gpxtpx:TrackPointExtension xmlns:gpxtpx="http://www.garmin.com/xmlschemas/TrackPointExtension/v1">
            <gpxtpx:hr>112</gpxtpx:hr>
          </gpxtpx:TrackPointExtension>
        </extensions>
      </trkpt>
      <trkpt lat="46.17261" lon="6.2611">
        <ele>495.7</ele>
        <time>2021-03-02T12:02:02Z</time>
        <extensions>
          <gpxtpx:TrackPointExtension xmlns:gpxtpx="http://www.garmin.com/xmlschemas/TrackPointExtension/v1">
            <gpxtpx:hr>112</gpxtpx:hr>
          </gpxtpx:TrackPointExtension>
        </extensions>
      </trkpt>
      <trkpt lat="46.17258" lon="6.26117">
        <ele>496</ele>
        <time>2021-03-02T12:02:03Z</time>
        <extensions>
          <gpxtpx:TrackPointExtension xmlns:gpxtpx="http://www.garmin.com/xmlschemas/TrackPointExtension/v1">
            <gpxtpx:hr>112</gpxtpx:hr>
          </gpxtpx:TrackPointExtension>
        </extensions>
      </trkpt>
      <trkpt lat="46.17255" lon="6.26124">
        <ele>496.3</ele>
        <time>2021-03-02T12:02:04Z</time>
        <extensions>
          <gpxtpx:TrackPointExtension xmlns:gpxtpx="http://www.garmin.com/xmlschemas/TrackPointExtension/v1">
            <gpxtpx:hr>112</gpxtpx:hr>
          </gpxtpx:TrackPointExtension>
        </extensions>
      </trkpt>
      <trkpt lat="46.17252" lon="6.2613">
        <ele>496.6</ele>
        <time>2021-03-02T12:02:05Z</time>
        <extensions>
          <gpxtpx:TrackPointExtension xmlns:gpxtpx="http://www.garmin.com/xmlschemas/TrackPointExtension/v1">
            <gpxtpx:hr>112</gpxtpx:hr>
          </gpxtpx:TrackPointExtension>
        </extensions>
      </trkpt>
      <trkpt lat="46.17249" lon="6.26137">
        <ele>496.9</ele>
        <time>2021-03-02T12:02:06Z</time>
        <extensions>
          <gpxtpx:TrackPointExtension xmlns:gpxtpx="http://www.garmin.com/xmlschemas/TrackPointExtension/v1">
            <gpxtpx:hr>112</gpxtpx:hr>
          </gpxtpx:TrackPointExtension>
        </extensions>
      </trkpt>
      <trkpt lat="46.17245" lon="6.26143">
        <ele>497</ele>
        <time>2021-03-02T12:02:07Z</time>
        <extensions>
          <gpxtpx:TrackPointExtension xmlns:gpxtpx="http://www.garmin.com/xmlschemas/TrackPointExtension/v1">
            <gpxtpx:hr>112</gpxtpx:hr>
          </gpxtpx:TrackPointExtension>
        </extensions>
      </trkpt>
      <trkpt lat="46.17241" lon="6.26149">
        <ele>497.1</ele>
        <time>2021-03-02T12:02:08Z</time>
        <extensions>
          <gpxtpx:TrackPointExtension xmlns:gpxtpx="http://www.garmin.com/xmlschemas/TrackPointExtension/v1">
            <gpxtpx:hr>112</gpxtpx:hr>
          </gpxtpx:TrackPointExtension>
        </extensions>
      </trkpt>
      <trkpt lat="46.17238" lon="6.26155">
        <ele>497.3</ele>
        <time>2021-03-02T12:02:09Z</time>
        <extensions>
          <gpxtpx:TrackPointExtension xmlns:gpxtpx="http://www.garmin.com/xmlschemas/TrackPointExtension/v1">
            <gpxtpx:hr>112</gpxtpx:hr>
          </gpxtpx:TrackPointExtension>
        </extensions>
      </trkpt>
      <trkpt lat="46.17234" lon="6.26161">
        <ele>497.4</ele>
        <time>2021-03-02T12:02:10Z</time>
        <extensions>
          <gpxtpx:TrackPointExtension xmlns:gpxtpx="http://www.garmin.com/xmlschemas/TrackPointExtension/v1">
            <gpxtpx:hr>112</gpxtpx:hr>
          </gpxtpx:TrackPointExtension>
        </extensions>
      </trkpt>
      <trkpt lat="46.17231" lon="6.26167">
        <ele>497.5</ele>
        <time>2021-03-02T12:02:11Z</time>
        <extensions>
          <gpxtpx:TrackPointExtension xmlns:gpxtpx="http://www.garmin.com/xmlschemas/TrackPointExtension/v1">
            <gpxtpx:hr>112</gpxtpx:hr>
          </gpxtpx:TrackPointExtension>
        </extensions>
      </trkpt>
      <trkpt lat="46.17227" lon="6.26173">
        <ele>497.6</ele>
        <time>2021-03-02T12:02:12Z</time>
        <extensions>
          <gpxtpx:TrackPointExtension xmlns:gpxtpx="http://www.garmin.com/xmlschemas/TrackPointExtension/v1">
            <gpxtpx:hr>112</gpxtpx:hr>
          </gpxtpx:TrackPointExtension>
        </extensions>
      </trkpt>
      <trkpt lat="46.17223" lon="6.26179">
        <ele>497.7</ele>
        <time>2021-03-02T12:02:13Z</time>
        <extensions>
          <gpxtpx:TrackPointExtension xmlns:gpxtpx="http://www.garmin.com/xmlschemas/TrackPointExtension/v1">
            <gpxtpx:hr>112</gpxtpx:hr>
          </gpxtpx:TrackPointExtension>
        </extensions>
      </trkpt>
      <trkpt lat="46.1722" lon="6.26185">
        <ele>497.7</ele>
        <time>2021-03-02T12:02:14Z</time>
        <extensions>
          <gpxtpx:TrackPointExtension xmlns:gpxtpx="http://www.garmin.com/xmlschemas/TrackPointExtension/v1">
            <gpxtpx:hr>113</gpxtpx:hr>
          </gpxtpx:TrackPointExtension>
        </extensions>
      </trkpt>
      <trkpt lat="46.17216" lon="6.26191">
        <ele>497.7</ele>
        <time>2021-03-02T12:02:15Z</time>
        <extensions>
          <gpxtpx:TrackPointExtension xmlns:gpxtpx="http://www.garmin.com/xmlschemas/TrackPointExtension/v1">
            <gpxtpx:hr>112</gpxtpx:hr>
          </gpxtpx:TrackPointExtension>
        </extensions>
      </trkpt>
      <trkpt lat="46.17212" lon="6.26197">
        <ele>497.7</ele>
        <time>2021-03-02T12:02:16Z</time>
        <extensions>
          <gpxtpx:TrackPointExtension xmlns:gpxtpx="http://www.garmin.com/xmlschemas/TrackPointExtension/v1">
            <gpxtpx:hr>112</gpxtpx:hr>
          </gpxtpx:TrackPointExtension>
        </extensions>
      </trkpt>
      <trkpt lat="46.17209" lon="6.26204">
        <ele>497.7</ele>
        <time>2021-03-02T12:02:17Z</time>
        <extensions>
          <gpxtpx:TrackPointExtension xmlns:gpxtpx="http://www.garmin.com/xmlschemas/TrackPointExtension/v1">
            <gpxtpx:hr>112</gpxtpx:hr>
          </gpxtpx:TrackPointExtension>
        </extensions>
      </trkpt>
      <trkpt lat="46.17205" lon="6.26209">
        <ele>497.7</ele>
        <time>2021-03-02T12:02:18Z</time>
        <extensions>
          <gpxtpx:TrackPointExtension xmlns:gpxtpx="http://www.garmin.com/xmlschemas/TrackPointExtension/v1">
            <gpxtpx:hr>112</gpxtpx:hr>
          </gpxtpx:TrackPointExtension>
        </extensions>
      </trkpt>
      <trkpt lat="46.17201" lon="6.26215">
        <ele>497.7</ele>
        <time>2021-03-02T12:02:19Z</time>
        <extensions>
          <gpxtpx:TrackPointExtension xmlns:gpxtpx="http://www.garmin.com/xmlschemas/TrackPointExtension/v1">
            <gpxtpx:hr>112</gpxtpx:hr>
          </gpxtpx:TrackPointExtension>
        </extensions>
      </trkpt>
      <trkpt lat="46.17197" lon="6.26221">
        <ele>497.6</ele>
        <time>2021-03-02T12:02:20Z</time>
        <extensions>
          <gpxtpx:TrackPointExtension xmlns:gpxtpx="http://www.garmin.com/xmlschemas/TrackPointExtension/v1">
            <gpxtpx:hr>112</gpxtpx:hr>
          </gpxtpx:TrackPointExtension>
        </extensions>
      </trkpt>
      <trkpt lat="46.17194" lon="6.26227">
        <ele>497.6</ele>
        <time>2021-03-02T12:02:21Z</time>
        <extensions>
          <gpxtpx:TrackPointExtension xmlns:gpxtpx="http://www.garmin.com/xmlschemas/TrackPointExtension/v1">
            <gpxtpx:hr>112</gpxtpx:hr>
          </gpxtpx:TrackPointExtension>
        </extensions>
      </trkpt>
      <trkpt lat="46.1719" lon="6.26234">
        <ele>497.6</ele>
        <time>2021-03-02T12:02:22Z</time>
        <extensions>
          <gpxtpx:TrackPointExtension xmlns:gpxtpx="http://www.garmin.com/xmlschemas/TrackPointExtension/v1">
            <gpxtpx:hr>112</gpxtpx:hr>
          </gpxtpx:TrackPointExtension>
        </extensions>
      </trkpt>
      <trkpt lat="46.17185" lon="6.26241">
        <ele>497.5</ele>
        <time>2021-03-02T12:02:23Z</time>
        <extensions>
          <gpxtpx:TrackPointExtension xmlns:gpxtpx="http://www.garmin.com/xmlschemas/TrackPointExtension/v1">
            <gpxtpx:hr>112</gpxtpx:hr>
          </gpxtpx:TrackPointExtension>
        </extensions>
      </trkpt>
      <trkpt lat="46.17181" lon="6.26248">
        <ele>497.5</ele>
        <time>2021-03-02T12:02:24Z</time>
        <extensions>
          <gpxtpx:TrackPointExtension xmlns:gpxtpx="http://www.garmin.com/xmlschemas/TrackPointExtension/v1">
            <gpxtpx:hr>112</gpxtpx:hr>
          </gpxtpx:TrackPointExtension>
        </extensions>
      </trkpt>
      <trkpt lat="46.17177" lon="6.26255">
        <ele>497.5</ele>
        <time>2021-03-02T12:02:25Z</time>
        <extensions>
          <gpxtpx:TrackPointExtension xmlns:gpxtpx="http://www.garmin.com/xmlschemas/TrackPointExtension/v1">
            <gpxtpx:hr>112</gpxtpx:hr>
          </gpxtpx:TrackPointExtension>
        </extensions>
      </trkpt>
      <trkpt lat="46.17173" lon="6.26261">
        <ele>497.4</ele>
        <time>2021-03-02T12:02:26Z</time>
        <extensions>
          <gpxtpx:TrackPointExtension xmlns:gpxtpx="http://www.garmin.com/xmlschemas/TrackPointExtension/v1">
            <gpxtpx:hr>112</gpxtpx:hr>
          </gpxtpx:TrackPointExtension>
        </extensions>
      </trkpt>
      <trkpt lat="46.17168" lon="6.26268">
        <ele>497.4</ele>
        <time>2021-03-02T12:02:27Z</time>
        <extensions>
          <gpxtpx:TrackPointExtension xmlns:gpxtpx="http://www.garmin.com/xmlschemas/TrackPointExtension/v1">
            <gpxtpx:hr>112</gpxtpx:hr>
          </gpxtpx:TrackPointExtension>
        </extensions>
      </trkpt>
      <trkpt lat="46.17164" lon="6.26275">
        <ele>497.3</ele>
        <time>2021-03-02T12:02:28Z</time>
        <extensions>
          <gpxtpx:TrackPointExtension xmlns:gpxtpx="http://www.garmin.com/xmlschemas/TrackPointExtension/v1">
            <gpxtpx:hr>111</gpxtpx:hr>
          </gpxtpx:TrackPointExtension>
        </extensions>
      </trkpt>
      <trkpt lat="46.17159" lon="6.26283">
        <ele>497.3</ele>
        <time>2021-03-02T12:02:29Z</time>
        <extensions>
          <gpxtpx:TrackPointExtension xmlns:gpxtpx="http://www.garmin.com/xmlschemas/TrackPointExtension/v1">
            <gpxtpx:hr>111</gpxtpx:hr>
          </gpxtpx:TrackPointExtension>
        </extensions>
      </trkpt>
      <trkpt lat="46.17155" lon="6.2629">
        <ele>497.2</ele>
        <time>2021-03-02T12:02:30Z</time>
        <extensions>
          <gpxtpx:TrackPointExtension xmlns:gpxtpx="http://www.garmin.com/xmlschemas/TrackPointExtension/v1">
            <gpxtpx:hr>111</gpxtpx:hr>
          </gpxtpx:TrackPointExtension>
        </extensions>
      </trkpt>
      <trkpt lat="46.1715" lon="6.26297">
        <ele>497.2</ele>
        <time>2021-03-02T12:02:31Z</time>
        <extensions>
          <gpxtpx:TrackPointExtension xmlns:gpxtpx="http://www.garmin.com/xmlschemas/TrackPointExtension/v1">
            <gpxtpx:hr>111</gpxtpx:hr>
          </gpxtpx:TrackPointExtension>
        </extensions>
      </trkpt>
      <trkpt lat="46.17146" lon="6.26305">
        <ele>497.1</ele>
        <time>2021-03-02T12:02:32Z</time>
        <extensions>
          <gpxtpx:TrackPointExtension xmlns:gpxtpx="http://www.garmin.com/xmlschemas/TrackPointExtension/v1">
            <gpxtpx:hr>112</gpxtpx:hr>
          </gpxtpx:TrackPointExtension>
        </extensions>
      </trkpt>
      <trkpt lat="46.17141" lon="6.26312">
        <ele>497</ele>
        <time>2021-03-02T12:02:33Z</time>
        <extensions>
          <gpxtpx:TrackPointExtension xmlns:gpxtpx="http://www.garmin.com/xmlschemas/TrackPointExtension/v1">
            <gpxtpx:hr>112</gpxtpx:hr>
          </gpxtpx:TrackPointExtension>
        </extensions>
      </trkpt>
      <trkpt lat="46.17137" lon="6.2632">
        <ele>496.9</ele>
        <time>2021-03-02T12:02:34Z</time>
        <extensions>
          <gpxtpx:TrackPointExtension xmlns:gpxtpx="http://www.garmin.com/xmlschemas/TrackPointExtension/v1">
            <gpxtpx:hr>112</gpxtpx:hr>
          </gpxtpx:TrackPointExtension>
        </extensions>
      </trkpt>
      <trkpt lat="46.17132" lon="6.26328">
        <ele>496.9</ele>
        <time>2021-03-02T12:02:35Z</time>
        <extensions>
          <gpxtpx:TrackPointExtension xmlns:gpxtpx="http://www.garmin.com/xmlschemas/TrackPointExtension/v1">
            <gpxtpx:hr>112</gpxtpx:hr>
          </gpxtpx:TrackPointExtension>
        </extensions>
      </trkpt>
      <trkpt lat="46.17127" lon="6.26335">
        <ele>496.8</ele>
        <time>2021-03-02T12:02:36Z</time>
        <extensions>
          <gpxtpx:TrackPointExtension xmlns:gpxtpx="http://www.garmin.com/xmlschemas/TrackPointExtension/v1">
            <gpxtpx:hr>112</gpxtpx:hr>
          </gpxtpx:TrackPointExtension>
        </extensions>
      </trkpt>
      <trkpt lat="46.17123" lon="6.26343">
        <ele>496.7</ele>
        <time>2021-03-02T12:02:37Z</time>
        <extensions>
          <gpxtpx:TrackPointExtension xmlns:gpxtpx="http://www.garmin.com/xmlschemas/TrackPointExtension/v1">
            <gpxtpx:hr>112</gpxtpx:hr>
          </gpxtpx:TrackPointExtension>
        </extensions>
      </trkpt>
      <trkpt lat="46.17118" lon="6.26351">
        <ele>496.6</ele>
        <time>2021-03-02T12:02:38Z</time>
        <extensions>
          <gpxtpx:TrackPointExtension xmlns:gpxtpx="http://www.garmin.com/xmlschemas/TrackPointExtension/v1">
            <gpxtpx:hr>112</gpxtpx:hr>
          </gpxtpx:TrackPointExtension>
        </extensions>
      </trkpt>
      <trkpt lat="46.17114" lon="6.26359">
        <ele>496.6</ele>
        <time>2021-03-02T12:02:39Z</time>
        <extensions>
          <gpxtpx:TrackPointExtension xmlns:gpxtpx="http://www.garmin.com/xmlschemas/TrackPointExtension/v1">
            <gpxtpx:hr>112</gpxtpx:hr>
          </gpxtpx:TrackPointExtension>
        </extensions>
      </trkpt>
      <trkpt lat="46.17109" lon="6.26367">
        <ele>496.5</ele>
        <time>2021-03-02T12:02:40Z</time>
        <extensions>
          <gpxtpx:TrackPointExtension xmlns:gpxtpx="http://www.garmin.com/xmlschemas/TrackPointExtension/v1">
            <gpxtpx:hr>112</gpxtpx:hr>
          </gpxtpx:TrackPointExtension>
        </extensions>
      </trkpt>
      <trkpt lat="46.17104" lon="6.26375">
        <ele>496.4</ele>
        <time>2021-03-02T12:02:41Z</time>
        <extensions>
          <gpxtpx:TrackPointExtension xmlns:gpxtpx="http://www.garmin.com/xmlschemas/TrackPointExtension/v1">
            <gpxtpx:hr>112</gpxtpx:hr>
          </gpxtpx:TrackPointExtension>
        </extensions>
      </trkpt>
      <trkpt lat="46.171" lon="6.26383">
        <ele>496.3</ele>
        <time>2021-03-02T12:02:42Z</time>
        <extensions>
          <gpxtpx:TrackPointExtension xmlns:gpxtpx="http://www.garmin.com/xmlschemas/TrackPointExtension/v1">
            <gpxtpx:hr>112</gpxtpx:hr>
          </gpxtpx:TrackPointExtension>
        </extensions>
      </trkpt>
      <trkpt lat="46.17095" lon="6.26389">
        <ele>496.2</ele>
        <time>2021-03-02T12:02:43Z</time>
        <extensions>
          <gpxtpx:TrackPointExtension xmlns:gpxtpx="http://www.garmin.com/xmlschemas/TrackPointExtension/v1">
            <gpxtpx:hr>112</gpxtpx:hr>
          </gpxtpx:TrackPointExtension>
        </extensions>
      </trkpt>
      <trkpt lat="46.17092" lon="6.26395">
        <ele>496.1</ele>
        <time>2021-03-02T12:02:44Z</time>
        <extensions>
          <gpxtpx:TrackPointExtension xmlns:gpxtpx="http://www.garmin.com/xmlschemas/TrackPointExtension/v1">
            <gpxtpx:hr>112</gpxtpx:hr>
          </gpxtpx:TrackPointExtension>
        </extensions>
      </trkpt>
      <trkpt lat="46.17089" lon="6.26399">
        <ele>496</ele>
        <time>2021-03-02T12:02:45Z</time>
        <extensions>
          <gpxtpx:TrackPointExtension xmlns:gpxtpx="http://www.garmin.com/xmlschemas/TrackPointExtension/v1">
            <gpxtpx:hr>112</gpxtpx:hr>
          </gpxtpx:TrackPointExtension>
        </extensions>
      </trkpt>
      <trkpt lat="46.17087" lon="6.26403">
        <ele>496</ele>
        <time>2021-03-02T12:02:46Z</time>
        <extensions>
          <gpxtpx:TrackPointExtension xmlns:gpxtpx="http://www.garmin.com/xmlschemas/TrackPointExtension/v1">
            <gpxtpx:hr>112</gpxtpx:hr>
          </gpxtpx:TrackPointExtension>
        </extensions>
      </trkpt>
      <trkpt lat="46.17085" lon="6.26406">
        <ele>495.9</ele>
        <time>2021-03-02T12:02:47Z</time>
        <extensions>
          <gpxtpx:TrackPointExtension xmlns:gpxtpx="http://www.garmin.com/xmlschemas/TrackPointExtension/v1">
            <gpxtpx:hr>112</gpxtpx:hr>
          </gpxtpx:TrackPointExtension>
        </extensions>
      </trkpt>
      <trkpt lat="46.17082" lon="6.26411">
        <ele>495.7</ele>
        <time>2021-03-02T12:02:48Z</time>
        <extensions>
          <gpxtpx:TrackPointExtension xmlns:gpxtpx="http://www.garmin.com/xmlschemas/TrackPointExtension/v1">
            <gpxtpx:hr>112</gpxtpx:hr>
          </gpxtpx:TrackPointExtension>
        </extensions>
      </trkpt>
      <trkpt lat="46.17079" lon="6.26416">
        <ele>495.4</ele>
        <time>2021-03-02T12:02:49Z</time>
        <extensions>
          <gpxtpx:TrackPointExtension xmlns:gpxtpx="http://www.garmin.com/xmlschemas/TrackPointExtension/v1">
            <gpxtpx:hr>112</gpxtpx:hr>
          </gpxtpx:TrackPointExtension>
        </extensions>
      </trkpt>
      <trkpt lat="46.17075" lon="6.26422">
        <ele>495</ele>
        <time>2021-03-02T12:02:50Z</time>
        <extensions>
          <gpxtpx:TrackPointExtension xmlns:gpxtpx="http://www.garmin.com/xmlschemas/TrackPointExtension/v1">
            <gpxtpx:hr>111</gpxtpx:hr>
          </gpxtpx:TrackPointExtension>
        </extensions>
      </trkpt>
      <trkpt lat="46.17071" lon="6.26429">
        <ele>494.6</ele>
        <time>2021-03-02T12:02:51Z</time>
        <extensions>
          <gpxtpx:TrackPointExtension xmlns:gpxtpx="http://www.garmin.com/xmlschemas/TrackPointExtension/v1">
            <gpxtpx:hr>111</gpxtpx:hr>
          </gpxtpx:TrackPointExtension>
        </extensions>
      </trkpt>
      <trkpt lat="46.17067" lon="6.26435">
        <ele>494.3</ele>
        <time>2021-03-02T12:02:52Z</time>
        <extensions>
          <gpxtpx:TrackPointExtension xmlns:gpxtpx="http://www.garmin.com/xmlschemas/TrackPointExtension/v1">
            <gpxtpx:hr>110</gpxtpx:hr>
          </gpxtpx:TrackPointExtension>
        </extensions>
      </trkpt>
      <trkpt lat="46.17063" lon="6.26442">
        <ele>494</ele>
        <time>2021-03-02T12:02:53Z</time>
        <extensions>
          <gpxtpx:TrackPointExtension xmlns:gpxtpx="http://www.garmin.com/xmlschemas/TrackPointExtension/v1">
            <gpxtpx:hr>109</gpxtpx:hr>
          </gpxtpx:TrackPointExtension>
        </extensions>
      </trkpt>
      <trkpt lat="46.17059" lon="6.26449">
        <ele>493.5</ele>
        <time>2021-03-02T12:02:54Z</time>
        <extensions>
          <gpxtpx:TrackPointExtension xmlns:gpxtpx="http://www.garmin.com/xmlschemas/TrackPointExtension/v1">
            <gpxtpx:hr>109</gpxtpx:hr>
          </gpxtpx:TrackPointExtension>
        </extensions>
      </trkpt>
      <trkpt lat="46.17054" lon="6.26457">
        <ele>493</ele>
        <time>2021-03-02T12:02:55Z</time>
        <extensions>
          <gpxtpx:TrackPointExtension xmlns:gpxtpx="http://www.garmin.com/xmlschemas/TrackPointExtension/v1">
            <gpxtpx:hr>108</gpxtpx:hr>
          </gpxtpx:TrackPointExtension>
        </extensions>
      </trkpt>
      <trkpt lat="46.17049" lon="6.26465">
        <ele>492.5</ele>
        <time>2021-03-02T12:02:56Z</time>
        <extensions>
          <gpxtpx:TrackPointExtension xmlns:gpxtpx="http://www.garmin.com/xmlschemas/TrackPointExtension/v1">
            <gpxtpx:hr>108</gpxtpx:hr>
          </gpxtpx:TrackPointExtension>
        </extensions>
      </trkpt>
      <trkpt lat="46.17044" lon="6.26473">
        <ele>491.8</ele>
        <time>2021-03-02T12:02:57Z</time>
        <extensions>
          <gpxtpx:TrackPointExtension xmlns:gpxtpx="http://www.garmin.com/xmlschemas/TrackPointExtension/v1">
            <gpxtpx:hr>109</gpxtpx:hr>
          </gpxtpx:TrackPointExtension>
        </extensions>
      </trkpt>
      <trkpt lat="46.17039" lon="6.26482">
        <ele>491.2</ele>
        <time>2021-03-02T12:02:58Z</time>
        <extensions>
          <gpxtpx:TrackPointExtension xmlns:gpxtpx="http://www.garmin.com/xmlschemas/TrackPointExtension/v1">
            <gpxtpx:hr>110</gpxtpx:hr>
          </gpxtpx:TrackPointExtension>
        </extensions>
      </trkpt>
      <trkpt lat="46.17034" lon="6.26492">
        <ele>490.7</ele>
        <time>2021-03-02T12:02:59Z</time>
        <extensions>
          <gpxtpx:TrackPointExtension xmlns:gpxtpx="http://www.garmin.com/xmlschemas/TrackPointExtension/v1">
            <gpxtpx:hr>110</gpxtpx:hr>
          </gpxtpx:TrackPointExtension>
        </extensions>
      </trkpt>
      <trkpt lat="46.17028" lon="6.26502">
        <ele>489.9</ele>
        <time>2021-03-02T12:03:00Z</time>
        <extensions>
          <gpxtpx:TrackPointExtension xmlns:gpxtpx="http://www.garmin.com/xmlschemas/TrackPointExtension/v1">
            <gpxtpx:hr>111</gpxtpx:hr>
          </gpxtpx:TrackPointExtension>
        </extensions>
      </trkpt>
      <trkpt lat="46.17022" lon="6.26512">
        <ele>489.1</ele>
        <time>2021-03-02T12:03:01Z</time>
        <extensions>
          <gpxtpx:TrackPointExtension xmlns:gpxtpx="http://www.garmin.com/xmlschemas/TrackPointExtension/v1">
            <gpxtpx:hr>111</gpxtpx:hr>
          </gpxtpx:TrackPointExtension>
        </extensions>
      </trkpt>
      <trkpt lat="46.17016" lon="6.26523">
        <ele>488.4</ele>
        <time>2021-03-02T12:03:02Z</time>
        <extensions>
          <gpxtpx:TrackPointExtension xmlns:gpxtpx="http://www.garmin.com/xmlschemas/TrackPointExtension/v1">
            <gpxtpx:hr>112</gpxtpx:hr>
          </gpxtpx:TrackPointExtension>
        </extensions>
      </trkpt>
      <trkpt lat="46.17009" lon="6.26535">
        <ele>487.7</ele>
        <time>2021-03-02T12:03:03Z</time>
        <extensions>
          <gpxtpx:TrackPointExtension xmlns:gpxtpx="http://www.garmin.com/xmlschemas/TrackPointExtension/v1">
            <gpxtpx:hr>112</gpxtpx:hr>
          </gpxtpx:TrackPointExtension>
        </extensions>
      </trkpt>
      <trkpt lat="46.17002" lon="6.26546">
        <ele>487.1</ele>
        <time>2021-03-02T12:03:04Z</time>
        <extensions>
          <gpxtpx:TrackPointExtension xmlns:gpxtpx="http://www.garmin.com/xmlschemas/TrackPointExtension/v1">
            <gpxtpx:hr>112</gpxtpx:hr>
          </gpxtpx:TrackPointExtension>
        </extensions>
      </trkpt>
      <trkpt lat="46.16995" lon="6.26558">
        <ele>486.6</ele>
        <time>2021-03-02T12:03:05Z</time>
        <extensions>
          <gpxtpx:TrackPointExtension xmlns:gpxtpx="http://www.garmin.com/xmlschemas/TrackPointExtension/v1">
            <gpxtpx:hr>114</gpxtpx:hr>
          </gpxtpx:TrackPointExtension>
        </extensions>
      </trkpt>
      <trkpt lat="46.16988" lon="6.26569">
        <ele>486.1</ele>
        <time>2021-03-02T12:03:06Z</time>
        <extensions>
          <gpxtpx:TrackPointExtension xmlns:gpxtpx="http://www.garmin.com/xmlschemas/TrackPointExtension/v1">
            <gpxtpx:hr>115</gpxtpx:hr>
          </gpxtpx:TrackPointExtension>
        </extensions>
      </trkpt>
      <trkpt lat="46.1698" lon="6.26581">
        <ele>485.8</ele>
        <time>2021-03-02T12:03:07Z</time>
        <extensions>
          <gpxtpx:TrackPointExtension xmlns:gpxtpx="http://www.garmin.com/xmlschemas/TrackPointExtension/v1">
            <gpxtpx:hr>114</gpxtpx:hr>
          </gpxtpx:TrackPointExtension>
        </extensions>
      </trkpt>
      <trkpt lat="46.16973" lon="6.26593">
        <ele>485.5</ele>
        <time>2021-03-02T12:03:08Z</time>
        <extensions>
          <gpxtpx:TrackPointExtension xmlns:gpxtpx="http://www.garmin.com/xmlschemas/TrackPointExtension/v1">
            <gpxtpx:hr>114</gpxtpx:hr>
          </gpxtpx:TrackPointExtension>
        </extensions>
      </trkpt>
      <trkpt lat="46.16966" lon="6.26604">
        <ele>485.3</ele>
        <time>2021-03-02T12:03:09Z</time>
        <extensions>
          <gpxtpx:TrackPointExtension xmlns:gpxtpx="http://www.garmin.com/xmlschemas/TrackPointExtension/v1">
            <gpxtpx:hr>114</gpxtpx:hr>
          </gpxtpx:TrackPointExtension>
        </extensions>
      </trkpt>
      <trkpt lat="46.16959" lon="6.26615">
        <ele>485.1</ele>
        <time>2021-03-02T12:03:10Z</time>
        <extensions>
          <gpxtpx:TrackPointExtension xmlns:gpxtpx="http://www.garmin.com/xmlschemas/TrackPointExtension/v1">
            <gpxtpx:hr>114</gpxtpx:hr>
          </gpxtpx:TrackPointExtension>
        </extensions>
      </trkpt>
      <trkpt lat="46.16952" lon="6.26626">
        <ele>484.9</ele>
        <time>2021-03-02T12:03:11Z</time>
        <extensions>
          <gpxtpx:TrackPointExtension xmlns:gpxtpx="http://www.garmin.com/xmlschemas/TrackPointExtension/v1">
            <gpxtpx:hr>115</gpxtpx:hr>
          </gpxtpx:TrackPointExtension>
        </extensions>
      </trkpt>
      <trkpt lat="46.16946" lon="6.26637">
        <ele>484.8</ele>
        <time>2021-03-02T12:03:12Z</time>
        <extensions>
          <gpxtpx:TrackPointExtension xmlns:gpxtpx="http://www.garmin.com/xmlschemas/TrackPointExtension/v1">
            <gpxtpx:hr>115</gpxtpx:hr>
          </gpxtpx:TrackPointExtension>
        </extensions>
      </trkpt>
      <trkpt lat="46.16939" lon="6.26648">
        <ele>484.6</ele>
        <time>2021-03-02T12:03:13Z</time>
        <extensions>
          <gpxtpx:TrackPointExtension xmlns:gpxtpx="http://www.garmin.com/xmlschemas/TrackPointExtension/v1">
            <gpxtpx:hr>116</gpxtpx:hr>
          </gpxtpx:TrackPointExtension>
        </extensions>
      </trkpt>
      <trkpt lat="46.16932" lon="6.26659">
        <ele>484.5</ele>
        <time>2021-03-02T12:03:14Z</time>
        <extensions>
          <gpxtpx:TrackPointExtension xmlns:gpxtpx="http://www.garmin.com/xmlschemas/TrackPointExtension/v1">
            <gpxtpx:hr>116</gpxtpx:hr>
          </gpxtpx:TrackPointExtension>
        </extensions>
      </trkpt>
      <trkpt lat="46.16926" lon="6.2667">
        <ele>484.4</ele>
        <time>2021-03-02T12:03:15Z</time>
        <extensions>
          <gpxtpx:TrackPointExtension xmlns:gpxtpx="http://www.garmin.com/xmlschemas/TrackPointExtension/v1">
            <gpxtpx:hr>116</gpxtpx:hr>
          </gpxtpx:TrackPointExtension>
        </extensions>
      </trkpt>
      <trkpt lat="46.1692" lon="6.26681">
        <ele>484.3</ele>
        <time>2021-03-02T12:03:16Z</time>
        <extensions>
          <gpxtpx:TrackPointExtension xmlns:gpxtpx="http://www.garmin.com/xmlschemas/TrackPointExtension/v1">
            <gpxtpx:hr>116</gpxtpx:hr>
          </gpxtpx:TrackPointExtension>
        </extensions>
      </trkpt>
      <trkpt lat="46.16915" lon="6.26693">
        <ele>484.2</ele>
        <time>2021-03-02T12:03:17Z</time>
        <extensions>
          <gpxtpx:TrackPointExtension xmlns:gpxtpx="http://www.garmin.com/xmlschemas/TrackPointExtension/v1">
            <gpxtpx:hr>117</gpxtpx:hr>
          </gpxtpx:TrackPointExtension>
        </extensions>
      </trkpt>
      <trkpt lat="46.16911" lon="6.26706">
        <ele>484.1</ele>
        <time>2021-03-02T12:03:18Z</time>
        <extensions>
          <gpxtpx:TrackPointExtension xmlns:gpxtpx="http://www.garmin.com/xmlschemas/TrackPointExtension/v1">
            <gpxtpx:hr>117</gpxtpx:hr>
          </gpxtpx:TrackPointExtension>
        </extensions>
      </trkpt>
      <trkpt lat="46.16908" lon="6.26719">
        <ele>484</ele>
        <time>2021-03-02T12:03:19Z</time>
        <extensions>
          <gpxtpx:TrackPointExtension xmlns:gpxtpx="http://www.garmin.com/xmlschemas/TrackPointExtension/v1">
            <gpxtpx:hr>117</gpxtpx:hr>
          </gpxtpx:TrackPointExtension>
        </extensions>
      </trkpt>
      <trkpt lat="46.16906" lon="6.26733">
        <ele>483.9</ele>
        <time>2021-03-02T12:03:20Z</time>
        <extensions>
          <gpxtpx:TrackPointExtension xmlns:gpxtpx="http://www.garmin.com/xmlschemas/TrackPointExtension/v1">
            <gpxtpx:hr>118</gpxtpx:hr>
          </gpxtpx:TrackPointExtension>
        </extensions>
      </trkpt>
      <trkpt lat="46.16905" lon="6.26747">
        <ele>483.8</ele>
        <time>2021-03-02T12:03:21Z</time>
        <extensions>
          <gpxtpx:TrackPointExtension xmlns:gpxtpx="http://www.garmin.com/xmlschemas/TrackPointExtension/v1">
            <gpxtpx:hr>119</gpxtpx:hr>
          </gpxtpx:TrackPointExtension>
        </extensions>
      </trkpt>
      <trkpt lat="46.16904" lon="6.26761">
        <ele>483.7</ele>
        <time>2021-03-02T12:03:22Z</time>
        <extensions>
          <gpxtpx:TrackPointExtension xmlns:gpxtpx="http://www.garmin.com/xmlschemas/TrackPointExtension/v1">
            <gpxtpx:hr>120</gpxtpx:hr>
          </gpxtpx:TrackPointExtension>
        </extensions>
      </trkpt>
      <trkpt lat="46.16904" lon="6.26774">
        <ele>483.5</ele>
        <time>2021-03-02T12:03:23Z</time>
        <extensions>
          <gpxtpx:TrackPointExtension xmlns:gpxtpx="http://www.garmin.com/xmlschemas/TrackPointExtension/v1">
            <gpxtpx:hr>121</gpxtpx:hr>
          </gpxtpx:TrackPointExtension>
        </extensions>
      </trkpt>
      <trkpt lat="46.16902" lon="6.26787">
        <ele>483.3</ele>
        <time>2021-03-02T12:03:24Z</time>
        <extensions>
          <gpxtpx:TrackPointExtension xmlns:gpxtpx="http://www.garmin.com/xmlschemas/TrackPointExtension/v1">
            <gpxtpx:hr>122</gpxtpx:hr>
          </gpxtpx:TrackPointExtension>
        </extensions>
      </trkpt>
      <trkpt lat="46.16899" lon="6.268">
        <ele>483.1</ele>
        <time>2021-03-02T12:03:25Z</time>
        <extensions>
          <gpxtpx:TrackPointExtension xmlns:gpxtpx="http://www.garmin.com/xmlschemas/TrackPointExtension/v1">
            <gpxtpx:hr>122</gpxtpx:hr>
          </gpxtpx:TrackPointExtension>
        </extensions>
      </trkpt>
      <trkpt lat="46.16896" lon="6.26813">
        <ele>482.9</ele>
        <time>2021-03-02T12:03:26Z</time>
        <extensions>
          <gpxtpx:TrackPointExtension xmlns:gpxtpx="http://www.garmin.com/xmlschemas/TrackPointExtension/v1">
            <gpxtpx:hr>123</gpxtpx:hr>
          </gpxtpx:TrackPointExtension>
        </extensions>
      </trkpt>
      <trkpt lat="46.16891" lon="6.26824">
        <ele>482.7</ele>
        <time>2021-03-02T12:03:27Z</time>
        <extensions>
          <gpxtpx:TrackPointExtension xmlns:gpxtpx="http://www.garmin.com/xmlschemas/TrackPointExtension/v1">
            <gpxtpx:hr>124</gpxtpx:hr>
          </gpxtpx:TrackPointExtension>
        </extensions>
      </trkpt>
      <trkpt lat="46.16886" lon="6.26836">
        <ele>482.4</ele>
        <time>2021-03-02T12:03:28Z</time>
        <extensions>
          <gpxtpx:TrackPointExtension xmlns:gpxtpx="http://www.garmin.com/xmlschemas/TrackPointExtension/v1">
            <gpxtpx:hr>125</gpxtpx:hr>
          </gpxtpx:TrackPointExtension>
        </extensions>
      </trkpt>
      <trkpt lat="46.1688" lon="6.26847">
        <ele>482</ele>
        <time>2021-03-02T12:03:29Z</time>
        <extensions>
          <gpxtpx:TrackPointExtension xmlns:gpxtpx="http://www.garmin.com/xmlschemas/TrackPointExtension/v1">
            <gpxtpx:hr>125</gpxtpx:hr>
          </gpxtpx:TrackPointExtension>
        </extensions>
      </trkpt>
      <trkpt lat="46.16874" lon="6.26858">
        <ele>481.6</ele>
        <time>2021-03-02T12:03:30Z</time>
        <extensions>
          <gpxtpx:TrackPointExtension xmlns:gpxtpx="http://www.garmin.com/xmlschemas/TrackPointExtension/v1">
            <gpxtpx:hr>124</gpxtpx:hr>
          </gpxtpx:TrackPointExtension>
        </extensions>
      </trkpt>
      <trkpt lat="46.16867" lon="6.26869">
        <ele>481.1</ele>
        <time>2021-03-02T12:03:31Z</time>
        <extensions>
          <gpxtpx:TrackPointExtension xmlns:gpxtpx="http://www.garmin.com/xmlschemas/TrackPointExtension/v1">
            <gpxtpx:hr>124</gpxtpx:hr>
          </gpxtpx:TrackPointExtension>
        </extensions>
      </trkpt>
      <trkpt lat="46.1686" lon="6.26879">
        <ele>480.5</ele>
        <time>2021-03-02T12:03:32Z</time>
        <extensions>
          <gpxtpx:TrackPointExtension xmlns:gpxtpx="http://www.garmin.com/xmlschemas/TrackPointExtension/v1">
            <gpxtpx:hr>124</gpxtpx:hr>
          </gpxtpx:TrackPointExtension>
        </extensions>
      </trkpt>
      <trkpt lat="46.16852" lon="6.26888">
        <ele>480</ele>
        <time>2021-03-02T12:03:33Z</time>
        <extensions>
          <gpxtpx:TrackPointExtension xmlns:gpxtpx="http://www.garmin.com/xmlschemas/TrackPointExtension/v1">
            <gpxtpx:hr>123</gpxtpx:hr>
          </gpxtpx:TrackPointExtension>
        </extensions>
      </trkpt>
      <trkpt lat="46.16843" lon="6.26895">
        <ele>479.4</ele>
        <time>2021-03-02T12:03:34Z</time>
        <extensions>
          <gpxtpx:TrackPointExtension xmlns:gpxtpx="http://www.garmin.com/xmlschemas/TrackPointExtension/v1">
            <gpxtpx:hr>123</gpxtpx:hr>
          </gpxtpx:TrackPointExtension>
        </extensions>
      </trkpt>
      <trkpt lat="46.16833" lon="6.26901">
        <ele>478.8</ele>
        <time>2021-03-02T12:03:35Z</time>
        <extensions>
          <gpxtpx:TrackPointExtension xmlns:gpxtpx="http://www.garmin.com/xmlschemas/TrackPointExtension/v1">
            <gpxtpx:hr>123</gpxtpx:hr>
          </gpxtpx:TrackPointExtension>
        </extensions>
      </trkpt>
      <trkpt lat="46.16823" lon="6.26907">
        <ele>478.1</ele>
        <time>2021-03-02T12:03:36Z</time>
        <extensions>
          <gpxtpx:TrackPointExtension xmlns:gpxtpx="http://www.garmin.com/xmlschemas/TrackPointExtension/v1">
            <gpxtpx:hr>123</gpxtpx:hr>
          </gpxtpx:TrackPointExtension>
        </extensions>
      </trkpt>
      <trkpt lat="46.16814" lon="6.26914">
        <ele>477.4</ele>
        <time>2021-03-02T12:03:37Z</time>
        <extensions>
          <gpxtpx:TrackPointExtension xmlns:gpxtpx="http://www.garmin.com/xmlschemas/TrackPointExtension/v1">
            <gpxtpx:hr>124</gpxtpx:hr>
          </gpxtpx:TrackPointExtension>
        </extensions>
      </trkpt>
      <trkpt lat="46.16803" lon="6.2692">
        <ele>476.6</ele>
        <time>2021-03-02T12:03:38Z</time>
        <extensions>
          <gpxtpx:TrackPointExtension xmlns:gpxtpx="http://www.garmin.com/xmlschemas/TrackPointExtension/v1">
            <gpxtpx:hr>124</gpxtpx:hr>
          </gpxtpx:TrackPointExtension>
        </extensions>
      </trkpt>
      <trkpt lat="46.16793" lon="6.26927">
        <ele>475.7</ele>
        <time>2021-03-02T12:03:39Z</time>
        <extensions>
          <gpxtpx:TrackPointExtension xmlns:gpxtpx="http://www.garmin.com/xmlschemas/TrackPointExtension/v1">
            <gpxtpx:hr>123</gpxtpx:hr>
          </gpxtpx:TrackPointExtension>
        </extensions>
      </trkpt>
      <trkpt lat="46.16783" lon="6.26934">
        <ele>474.9</ele>
        <time>2021-03-02T12:03:40Z</time>
        <extensions>
          <gpxtpx:TrackPointExtension xmlns:gpxtpx="http://www.garmin.com/xmlschemas/TrackPointExtension/v1">
            <gpxtpx:hr>123</gpxtpx:hr>
          </gpxtpx:TrackPointExtension>
        </extensions>
      </trkpt>
      <trkpt lat="46.16773" lon="6.26942">
        <ele>474.1</ele>
        <time>2021-03-02T12:03:41Z</time>
        <extensions>
          <gpxtpx:TrackPointExtension xmlns:gpxtpx="http://www.garmin.com/xmlschemas/TrackPointExtension/v1">
            <gpxtpx:hr>123</gpxtpx:hr>
          </gpxtpx:TrackPointExtension>
        </extensions>
      </trkpt>
      <trkpt lat="46.16763" lon="6.26952">
        <ele>473.3</ele>
        <time>2021-03-02T12:03:42Z</time>
        <extensions>
          <gpxtpx:TrackPointExtension xmlns:gpxtpx="http://www.garmin.com/xmlschemas/TrackPointExtension/v1">
            <gpxtpx:hr>123</gpxtpx:hr>
          </gpxtpx:TrackPointExtension>
        </extensions>
      </trkpt>
      <trkpt lat="46.16753" lon="6.26961">
        <ele>472.6</ele>
        <time>2021-03-02T12:03:43Z</time>
        <extensions>
          <gpxtpx:TrackPointExtension xmlns:gpxtpx="http://www.garmin.com/xmlschemas/TrackPointExtension/v1">
            <gpxtpx:hr>123</gpxtpx:hr>
          </gpxtpx:TrackPointExtension>
        </extensions>
      </trkpt>
      <trkpt lat="46.16744" lon="6.26971">
        <ele>471.9</ele>
        <time>2021-03-02T12:03:44Z</time>
        <extensions>
          <gpxtpx:TrackPointExtension xmlns:gpxtpx="http://www.garmin.com/xmlschemas/TrackPointExtension/v1">
            <gpxtpx:hr>123</gpxtpx:hr>
          </gpxtpx:TrackPointExtension>
        </extensions>
      </trkpt>
      <trkpt lat="46.16735" lon="6.26982">
        <ele>471.1</ele>
        <time>2021-03-02T12:03:45Z</time>
        <extensions>
          <gpxtpx:TrackPointExtension xmlns:gpxtpx="http://www.garmin.com/xmlschemas/TrackPointExtension/v1">
            <gpxtpx:hr>123</gpxtpx:hr>
          </gpxtpx:TrackPointExtension>
        </extensions>
      </trkpt>
      <trkpt lat="46.16726" lon="6.26994">
        <ele>470.3</ele>
        <time>2021-03-02T12:03:46Z</time>
        <extensions>
          <gpxtpx:TrackPointExtension xmlns:gpxtpx="http://www.garmin.com/xmlschemas/TrackPointExtension/v1">
            <gpxtpx:hr>123</gpxtpx:hr>
          </gpxtpx:TrackPointExtension>
        </extensions>
      </trkpt>
      <trkpt lat="46.16719" lon="6.27007">
        <ele>469.4</ele>
        <time>2021-03-02T12:03:47Z</time>
        <extensions>
          <gpxtpx:TrackPointExtension xmlns:gpxtpx="http://www.garmin.com/xmlschemas/TrackPointExtension/v1">
            <gpxtpx:hr>123</gpxtpx:hr>
          </gpxtpx:TrackPointExtension>
        </extensions>
      </trkpt>
      <trkpt lat="46.16714" lon="6.27022">
        <ele>468.5</ele>
        <time>2021-03-02T12:03:48Z</time>
        <extensions>
          <gpxtpx:TrackPointExtension xmlns:gpxtpx="http://www.garmin.com/xmlschemas/TrackPointExtension/v1">
            <gpxtpx:hr>123</gpxtpx:hr>
          </gpxtpx:TrackPointExtension>
        </extensions>
      </trkpt>
      <trkpt lat="46.16714" lon="6.27039">
        <ele>467.4</ele>
        <time>2021-03-02T12:03:49Z</time>
        <extensions>
          <gpxtpx:TrackPointExtension xmlns:gpxtpx="http://www.garmin.com/xmlschemas/TrackPointExtension/v1">
            <gpxtpx:hr>123</gpxtpx:hr>
          </gpxtpx:TrackPointExtension>
        </extensions>
      </trkpt>
      <trkpt lat="46.16717" lon="6.27056">
        <ele>466.1</ele>
        <time>2021-03-02T12:03:50Z</time>
        <extensions>
          <gpxtpx:TrackPointExtension xmlns:gpxtpx="http://www.garmin.com/xmlschemas/TrackPointExtension/v1">
            <gpxtpx:hr>124</gpxtpx:hr>
          </gpxtpx:TrackPointExtension>
        </extensions>
      </trkpt>
      <trkpt lat="46.16725" lon="6.2707">
        <ele>464.8</ele>
        <time>2021-03-02T12:03:51Z</time>
        <extensions>
          <gpxtpx:TrackPointExtension xmlns:gpxtpx="http://www.garmin.com/xmlschemas/TrackPointExtension/v1">
            <gpxtpx:hr>124</gpxtpx:hr>
          </gpxtpx:TrackPointExtension>
        </extensions>
      </trkpt>
      <trkpt lat="46.16733" lon="6.27084">
        <ele>463.4</ele>
        <time>2021-03-02T12:03:52Z</time>
        <extensions>
          <gpxtpx:TrackPointExtension xmlns:gpxtpx="http://www.garmin.com/xmlschemas/TrackPointExtension/v1">
            <gpxtpx:hr>125</gpxtpx:hr>
          </gpxtpx:TrackPointExtension>
        </extensions>
      </trkpt>
      <trkpt lat="46.16743" lon="6.27097">
        <ele>462.1</ele>
        <time>2021-03-02T12:03:53Z</time>
        <extensions>
          <gpxtpx:TrackPointExtension xmlns:gpxtpx="http://www.garmin.com/xmlschemas/TrackPointExtension/v1">
            <gpxtpx:hr>125</gpxtpx:hr>
          </gpxtpx:TrackPointExtension>
        </extensions>
      </trkpt>
      <trkpt lat="46.16754" lon="6.2711">
        <ele>460.9</ele>
        <time>2021-03-02T12:03:54Z</time>
        <extensions>
          <gpxtpx:TrackPointExtension xmlns:gpxtpx="http://www.garmin.com/xmlschemas/TrackPointExtension/v1">
            <gpxtpx:hr>126</gpxtpx:hr>
          </gpxtpx:TrackPointExtension>
        </extensions>
      </trkpt>
      <trkpt lat="46.16765" lon="6.27121">
        <ele>459.8</ele>
        <time>2021-03-02T12:03:55Z</time>
        <extensions>
          <gpxtpx:TrackPointExtension xmlns:gpxtpx="http://www.garmin.com/xmlschemas/TrackPointExtension/v1">
            <gpxtpx:hr>126</gpxtpx:hr>
          </gpxtpx:TrackPointExtension>
        </extensions>
      </trkpt>
      <trkpt lat="46.16776" lon="6.2713">
        <ele>459.1</ele>
        <time>2021-03-02T12:03:56Z</time>
        <extensions>
          <gpxtpx:TrackPointExtension xmlns:gpxtpx="http://www.garmin.com/xmlschemas/TrackPointExtension/v1">
            <gpxtpx:hr>126</gpxtpx:hr>
          </gpxtpx:TrackPointExtension>
        </extensions>
      </trkpt>
      <trkpt lat="46.16786" lon="6.27135">
        <ele>458.5</ele>
        <time>2021-03-02T12:03:57Z</time>
        <extensions>
          <gpxtpx:TrackPointExtension xmlns:gpxtpx="http://www.garmin.com/xmlschemas/TrackPointExtension/v1">
            <gpxtpx:hr>126</gpxtpx:hr>
          </gpxtpx:TrackPointExtension>
        </extensions>
      </trkpt>
      <trkpt lat="46.16795" lon="6.27137">
        <ele>458.2</ele>
        <time>2021-03-02T12:03:58Z</time>
        <extensions>
          <gpxtpx:TrackPointExtension xmlns:gpxtpx="http://www.garmin.com/xmlschemas/TrackPointExtension/v1">
            <gpxtpx:hr>126</gpxtpx:hr>
          </gpxtpx:TrackPointExtension>
        </extensions>
      </trkpt>
      <trkpt lat="46.16802" lon="6.27138">
        <ele>458</ele>
        <time>2021-03-02T12:03:59Z</time>
        <extensions>
          <gpxtpx:TrackPointExtension xmlns:gpxtpx="http://www.garmin.com/xmlschemas/TrackPointExtension/v1">
            <gpxtpx:hr>126</gpxtpx:hr>
          </gpxtpx:TrackPointExtension>
        </extensions>
      </trkpt>
      <trkpt lat="46.16806" lon="6.2714">
        <ele>457.9</ele>
        <time>2021-03-02T12:04:00Z</time>
        <extensions>
          <gpxtpx:TrackPointExtension xmlns:gpxtpx="http://www.garmin.com/xmlschemas/TrackPointExtension/v1">
            <gpxtpx:hr>125</gpxtpx:hr>
          </gpxtpx:TrackPointExtension>
        </extensions>
      </trkpt>
      <trkpt lat="46.16808" lon="6.2714">
        <ele>457.9</ele>
        <time>2021-03-02T12:04:01Z</time>
        <extensions>
          <gpxtpx:TrackPointExtension xmlns:gpxtpx="http://www.garmin.com/xmlschemas/TrackPointExtension/v1">
            <gpxtpx:hr>125</gpxtpx:hr>
          </gpxtpx:TrackPointExtension>
        </extensions>
      </trkpt>
      <trkpt lat="46.16809" lon="6.2714">
        <ele>457.9</ele>
        <time>2021-03-02T12:04:02Z</time>
        <extensions>
          <gpxtpx:TrackPointExtension xmlns:gpxtpx="http://www.garmin.com/xmlschemas/TrackPointExtension/v1">
            <gpxtpx:hr>124</gpxtpx:hr>
          </gpxtpx:TrackPointExtension>
        </extensions>
      </trkpt>
      <trkpt lat="46.1681" lon="6.27139">
        <ele>457.8</ele>
        <time>2021-03-02T12:04:03Z</time>
        <extensions>
          <gpxtpx:TrackPointExtension xmlns:gpxtpx="http://www.garmin.com/xmlschemas/TrackPointExtension/v1">
            <gpxtpx:hr>124</gpxtpx:hr>
          </gpxtpx:TrackPointExtension>
        </extensions>
      </trkpt>
      <trkpt lat="46.16811" lon="6.27139">
        <ele>457.8</ele>
        <time>2021-03-02T12:04:04Z</time>
        <extensions>
          <gpxtpx:TrackPointExtension xmlns:gpxtpx="http://www.garmin.com/xmlschemas/TrackPointExtension/v1">
            <gpxtpx:hr>124</gpxtpx:hr>
          </gpxtpx:TrackPointExtension>
        </extensions>
      </trkpt>
      <trkpt lat="46.16812" lon="6.27139">
        <ele>457.8</ele>
        <time>2021-03-02T12:04:05Z</time>
        <extensions>
          <gpxtpx:TrackPointExtension xmlns:gpxtpx="http://www.garmin.com/xmlschemas/TrackPointExtension/v1">
            <gpxtpx:hr>124</gpxtpx:hr>
          </gpxtpx:TrackPointExtension>
        </extensions>
      </trkpt>
      <trkpt lat="46.16813" lon="6.27141">
        <ele>457.8</ele>
        <time>2021-03-02T12:04:06Z</time>
        <extensions>
          <gpxtpx:TrackPointExtension xmlns:gpxtpx="http://www.garmin.com/xmlschemas/TrackPointExtension/v1">
            <gpxtpx:hr>124</gpxtpx:hr>
          </gpxtpx:TrackPointExtension>
        </extensions>
      </trkpt>
      <trkpt lat="46.16814" lon="6.27143">
        <ele>457.8</ele>
        <time>2021-03-02T12:04:07Z</time>
        <extensions>
          <gpxtpx:TrackPointExtension xmlns:gpxtpx="http://www.garmin.com/xmlschemas/TrackPointExtension/v1">
            <gpxtpx:hr>124</gpxtpx:hr>
          </gpxtpx:TrackPointExtension>
        </extensions>
      </trkpt>
      <trkpt lat="46.16816" lon="6.27145">
        <ele>457.8</ele>
        <time>2021-03-02T12:04:08Z</time>
        <extensions>
          <gpxtpx:TrackPointExtension xmlns:gpxtpx="http://www.garmin.com/xmlschemas/TrackPointExtension/v1">
            <gpxtpx:hr>124</gpxtpx:hr>
          </gpxtpx:TrackPointExtension>
        </extensions>
      </trkpt>
      <trkpt lat="46.16818" lon="6.27146">
        <ele>457.8</ele>
        <time>2021-03-02T12:04:09Z</time>
        <extensions>
          <gpxtpx:TrackPointExtension xmlns:gpxtpx="http://www.garmin.com/xmlschemas/TrackPointExtension/v1">
            <gpxtpx:hr>124</gpxtpx:hr>
          </gpxtpx:TrackPointExtension>
        </extensions>
      </trkpt>
      <trkpt lat="46.1682" lon="6.27147">
        <ele>457.8</ele>
        <time>2021-03-02T12:04:10Z</time>
        <extensions>
          <gpxtpx:TrackPointExtension xmlns:gpxtpx="http://www.garmin.com/xmlschemas/TrackPointExtension/v1">
            <gpxtpx:hr>124</gpxtpx:hr>
          </gpxtpx:TrackPointExtension>
        </extensions>
      </trkpt>
      <trkpt lat="46.16824" lon="6.27148">
        <ele>457.8</ele>
        <time>2021-03-02T12:04:11Z</time>
        <extensions>
          <gpxtpx:TrackPointExtension xmlns:gpxtpx="http://www.garmin.com/xmlschemas/TrackPointExtension/v1">
            <gpxtpx:hr>124</gpxtpx:hr>
          </gpxtpx:TrackPointExtension>
        </extensions>
      </trkpt>
      <trkpt lat="46.16828" lon="6.27149">
        <ele>457.9</ele>
        <time>2021-03-02T12:04:12Z</time>
        <extensions>
          <gpxtpx:TrackPointExtension xmlns:gpxtpx="http://www.garmin.com/xmlschemas/TrackPointExtension/v1">
            <gpxtpx:hr>124</gpxtpx:hr>
          </gpxtpx:TrackPointExtension>
        </extensions>
      </trkpt>
      <trkpt lat="46.16832" lon="6.2715">
        <ele>457.9</ele>
        <time>2021-03-02T12:04:13Z</time>
        <extensions>
          <gpxtpx:TrackPointExtension xmlns:gpxtpx="http://www.garmin.com/xmlschemas/TrackPointExtension/v1">
            <gpxtpx:hr>124</gpxtpx:hr>
          </gpxtpx:TrackPointExtension>
        </extensions>
      </trkpt>
      <trkpt lat="46.16837" lon="6.27151">
        <ele>458</ele>
        <time>2021-03-02T12:04:14Z</time>
        <extensions>
          <gpxtpx:TrackPointExtension xmlns:gpxtpx="http://www.garmin.com/xmlschemas/TrackPointExtension/v1">
            <gpxtpx:hr>124</gpxtpx:hr>
          </gpxtpx:TrackPointExtension>
        </extensions>
      </trkpt>
      <trkpt lat="46.16841" lon="6.27153">
        <ele>458</ele>
        <time>2021-03-02T12:04:15Z</time>
        <extensions>
          <gpxtpx:TrackPointExtension xmlns:gpxtpx="http://www.garmin.com/xmlschemas/TrackPointExtension/v1">
            <gpxtpx:hr>124</gpxtpx:hr>
          </gpxtpx:TrackPointExtension>
        </extensions>
      </trkpt>
      <trkpt lat="46.16845" lon="6.27157">
        <ele>458.1</ele>
        <time>2021-03-02T12:04:16Z</time>
        <extensions>
          <gpxtpx:TrackPointExtension xmlns:gpxtpx="http://www.garmin.com/xmlschemas/TrackPointExtension/v1">
            <gpxtpx:hr>124</gpxtpx:hr>
          </gpxtpx:TrackPointExtension>
        </extensions>
      </trkpt>
      <trkpt lat="46.16848" lon="6.27162">
        <ele>458.1</ele>
        <time>2021-03-02T12:04:17Z</time>
        <extensions>
          <gpxtpx:TrackPointExtension xmlns:gpxtpx="http://www.garmin.com/xmlschemas/TrackPointExtension/v1">
            <gpxtpx:hr>125</gpxtpx:hr>
          </gpxtpx:TrackPointExtension>
        </extensions>
      </trkpt>
      <trkpt lat="46.16851" lon="6.27168">
        <ele>458.1</ele>
        <time>2021-03-02T12:04:18Z</time>
        <extensions>
          <gpxtpx:TrackPointExtension xmlns:gpxtpx="http://www.garmin.com/xmlschemas/TrackPointExtension/v1">
            <gpxtpx:hr>125</gpxtpx:hr>
          </gpxtpx:TrackPointExtension>
        </extensions>
      </trkpt>
      <trkpt lat="46.16853" lon="6.27175">
        <ele>458.1</ele>
        <time>2021-03-02T12:04:19Z</time>
        <extensions>
          <gpxtpx:TrackPointExtension xmlns:gpxtpx="http://www.garmin.com/xmlschemas/TrackPointExtension/v1">
            <gpxtpx:hr>125</gpxtpx:hr>
          </gpxtpx:TrackPointExtension>
        </extensions>
      </trkpt>
      <trkpt lat="46.16853" lon="6.27183">
        <ele>458.1</ele>
        <time>2021-03-02T12:04:20Z</time>
        <extensions>
          <gpxtpx:TrackPointExtension xmlns:gpxtpx="http://www.garmin.com/xmlschemas/TrackPointExtension/v1">
            <gpxtpx:hr>125</gpxtpx:hr>
          </gpxtpx:TrackPointExtension>
        </extensions>
      </trkpt>
      <trkpt lat="46.16853" lon="6.27191">
        <ele>458</ele>
        <time>2021-03-02T12:04:21Z</time>
        <extensions>
          <gpxtpx:TrackPointExtension xmlns:gpxtpx="http://www.garmin.com/xmlschemas/TrackPointExtension/v1">
            <gpxtpx:hr>125</gpxtpx:hr>
          </gpxtpx:TrackPointExtension>
        </extensions>
      </trkpt>
      <trkpt lat="46.16852" lon="6.27199">
        <ele>458</ele>
        <time>2021-03-02T12:04:22Z</time>
        <extensions>
          <gpxtpx:TrackPointExtension xmlns:gpxtpx="http://www.garmin.com/xmlschemas/TrackPointExtension/v1">
            <gpxtpx:hr>125</gpxtpx:hr>
          </gpxtpx:TrackPointExtension>
        </extensions>
      </trkpt>
      <trkpt lat="46.16851" lon="6.27207">
        <ele>458</ele>
        <time>2021-03-02T12:04:23Z</time>
        <extensions>
          <gpxtpx:TrackPointExtension xmlns:gpxtpx="http://www.garmin.com/xmlschemas/TrackPointExtension/v1">
            <gpxtpx:hr>125</gpxtpx:hr>
          </gpxtpx:TrackPointExtension>
        </extensions>
      </trkpt>
      <trkpt lat="46.1685" lon="6.27216">
        <ele>458.1</ele>
        <time>2021-03-02T12:04:24Z</time>
        <extensions>
          <gpxtpx:TrackPointExtension xmlns:gpxtpx="http://www.garmin.com/xmlschemas/TrackPointExtension/v1">
            <gpxtpx:hr>125</gpxtpx:hr>
          </gpxtpx:TrackPointExtension>
        </extensions>
      </trkpt>
      <trkpt lat="46.16849" lon="6.27225">
        <ele>458.1</ele>
        <time>2021-03-02T12:04:25Z</time>
        <extensions>
          <gpxtpx:TrackPointExtension xmlns:gpxtpx="http://www.garmin.com/xmlschemas/TrackPointExtension/v1">
            <gpxtpx:hr>126</gpxtpx:hr>
          </gpxtpx:TrackPointExtension>
        </extensions>
      </trkpt>
      <trkpt lat="46.16848" lon="6.27234">
        <ele>458.1</ele>
        <time>2021-03-02T12:04:26Z</time>
        <extensions>
          <gpxtpx:TrackPointExtension xmlns:gpxtpx="http://www.garmin.com/xmlschemas/TrackPointExtension/v1">
            <gpxtpx:hr>126</gpxtpx:hr>
          </gpxtpx:TrackPointExtension>
        </extensions>
      </trkpt>
      <trkpt lat="46.16846" lon="6.27243">
        <ele>458.1</ele>
        <time>2021-03-02T12:04:27Z</time>
        <extensions>
          <gpxtpx:TrackPointExtension xmlns:gpxtpx="http://www.garmin.com/xmlschemas/TrackPointExtension/v1">
            <gpxtpx:hr>126</gpxtpx:hr>
          </gpxtpx:TrackPointExtension>
        </extensions>
      </trkpt>
      <trkpt lat="46.16845" lon="6.27252">
        <ele>458.2</ele>
        <time>2021-03-02T12:04:28Z</time>
        <extensions>
          <gpxtpx:TrackPointExtension xmlns:gpxtpx="http://www.garmin.com/xmlschemas/TrackPointExtension/v1">
            <gpxtpx:hr>126</gpxtpx:hr>
          </gpxtpx:TrackPointExtension>
        </extensions>
      </trkpt>
      <trkpt lat="46.16844" lon="6.27261">
        <ele>458.2</ele>
        <time>2021-03-02T12:04:29Z</time>
        <extensions>
          <gpxtpx:TrackPointExtension xmlns:gpxtpx="http://www.garmin.com/xmlschemas/TrackPointExtension/v1">
            <gpxtpx:hr>126</gpxtpx:hr>
          </gpxtpx:TrackPointExtension>
        </extensions>
      </trkpt>
      <trkpt lat="46.16843" lon="6.27271">
        <ele>458.3</ele>
        <time>2021-03-02T12:04:30Z</time>
        <extensions>
          <gpxtpx:TrackPointExtension xmlns:gpxtpx="http://www.garmin.com/xmlschemas/TrackPointExtension/v1">
            <gpxtpx:hr>126</gpxtpx:hr>
          </gpxtpx:TrackPointExtension>
        </extensions>
      </trkpt>
      <trkpt lat="46.16842" lon="6.2728">
        <ele>458.3</ele>
        <time>2021-03-02T12:04:31Z</time>
        <extensions>
          <gpxtpx:TrackPointExtension xmlns:gpxtpx="http://www.garmin.com/xmlschemas/TrackPointExtension/v1">
            <gpxtpx:hr>125</gpxtpx:hr>
          </gpxtpx:TrackPointExtension>
        </extensions>
      </trkpt>
      <trkpt lat="46.16841" lon="6.27289">
        <ele>458.4</ele>
        <time>2021-03-02T12:04:32Z</time>
        <extensions>
          <gpxtpx:TrackPointExtension xmlns:gpxtpx="http://www.garmin.com/xmlschemas/TrackPointExtension/v1">
            <gpxtpx:hr>125</gpxtpx:hr>
          </gpxtpx:TrackPointExtension>
        </extensions>
      </trkpt>
      <trkpt lat="46.16839" lon="6.27299">
        <ele>458.5</ele>
        <time>2021-03-02T12:04:33Z</time>
        <extensions>
          <gpxtpx:TrackPointExtension xmlns:gpxtpx="http://www.garmin.com/xmlschemas/TrackPointExtension/v1">
            <gpxtpx:hr>125</gpxtpx:hr>
          </gpxtpx:TrackPointExtension>
        </extensions>
      </trkpt>
      <trkpt lat="46.16837" lon="6.27308">
        <ele>458.6</ele>
        <time>2021-03-02T12:04:34Z</time>
        <extensions>
          <gpxtpx:TrackPointExtension xmlns:gpxtpx="http://www.garmin.com/xmlschemas/TrackPointExtension/v1">
            <gpxtpx:hr>125</gpxtpx:hr>
          </gpxtpx:TrackPointExtension>
        </extensions>
      </trkpt>
      <trkpt lat="46.16835" lon="6.27317">
        <ele>458.7</ele>
        <time>2021-03-02T12:04:35Z</time>
        <extensions>
          <gpxtpx:TrackPointExtension xmlns:gpxtpx="http://www.garmin.com/xmlschemas/TrackPointExtension/v1">
            <gpxtpx:hr>125</gpxtpx:hr>
          </gpxtpx:TrackPointExtension>
        </extensions>
      </trkpt>
      <trkpt lat="46.16832" lon="6.27326">
        <ele>458.8</ele>
        <time>2021-03-02T12:04:36Z</time>
        <extensions>
          <gpxtpx:TrackPointExtension xmlns:gpxtpx="http://www.garmin.com/xmlschemas/TrackPointExtension/v1">
            <gpxtpx:hr>125</gpxtpx:hr>
          </gpxtpx:TrackPointExtension>
        </extensions>
      </trkpt>
      <trkpt lat="46.16828" lon="6.27334">
        <ele>459</ele>
        <time>2021-03-02T12:04:37Z</time>
        <extensions>
          <gpxtpx:TrackPointExtension xmlns:gpxtpx="http://www.garmin.com/xmlschemas/TrackPointExtension/v1">
            <gpxtpx:hr>125</gpxtpx:hr>
          </gpxtpx:TrackPointExtension>
        </extensions>
      </trkpt>
      <trkpt lat="46.16824" lon="6.27341">
        <ele>459.2</ele>
        <time>2021-03-02T12:04:38Z</time>
        <extensions>
          <gpxtpx:TrackPointExtension xmlns:gpxtpx="http://www.garmin.com/xmlschemas/TrackPointExtension/v1">
            <gpxtpx:hr>125</gpxtpx:hr>
          </gpxtpx:TrackPointExtension>
        </extensions>
      </trkpt>
      <trkpt lat="46.1682" lon="6.27348">
        <ele>459.4</ele>
        <time>2021-03-02T12:04:39Z</time>
        <extensions>
          <gpxtpx:TrackPointExtension xmlns:gpxtpx="http://www.garmin.com/xmlschemas/TrackPointExtension/v1">
            <gpxtpx:hr>125</gpxtpx:hr>
          </gpxtpx:TrackPointExtension>
        </extensions>
      </trkpt>
      <trkpt lat="46.16815" lon="6.27354">
        <ele>459.6</ele>
        <time>2021-03-02T12:04:40Z</time>
        <extensions>
          <gpxtpx:TrackPointExtension xmlns:gpxtpx="http://www.garmin.com/xmlschemas/TrackPointExtension/v1">
            <gpxtpx:hr>124</gpxtpx:hr>
          </gpxtpx:TrackPointExtension>
        </extensions>
      </trkpt>
      <trkpt lat="46.1681" lon="6.27358">
        <ele>459.8</ele>
        <time>2021-03-02T12:04:41Z</time>
        <extensions>
          <gpxtpx:TrackPointExtension xmlns:gpxtpx="http://www.garmin.com/xmlschemas/TrackPointExtension/v1">
            <gpxtpx:hr>124</gpxtpx:hr>
          </gpxtpx:TrackPointExtension>
        </extensions>
      </trkpt>
      <trkpt lat="46.16804" lon="6.27362">
        <ele>460.1</ele>
        <time>2021-03-02T12:04:42Z</time>
        <extensions>
          <gpxtpx:TrackPointExtension xmlns:gpxtpx="http://www.garmin.com/xmlschemas/TrackPointExtension/v1">
            <gpxtpx:hr>124</gpxtpx:hr>
          </gpxtpx:TrackPointExtension>
        </extensions>
      </trkpt>
      <trkpt lat="46.16799" lon="6.27365">
        <ele>460.3</ele>
        <time>2021-03-02T12:04:43Z</time>
        <extensions>
          <gpxtpx:TrackPointExtension xmlns:gpxtpx="http://www.garmin.com/xmlschemas/TrackPointExtension/v1">
            <gpxtpx:hr>123</gpxtpx:hr>
          </gpxtpx:TrackPointExtension>
        </extensions>
      </trkpt>
      <trkpt lat="46.16793" lon="6.27367">
        <ele>460.5</ele>
        <time>2021-03-02T12:04:44Z</time>
        <extensions>
          <gpxtpx:TrackPointExtension xmlns:gpxtpx="http://www.garmin.com/xmlschemas/TrackPointExtension/v1">
            <gpxtpx:hr>123</gpxtpx:hr>
          </gpxtpx:TrackPointExtension>
        </extensions>
      </trkpt>
      <trkpt lat="46.16788" lon="6.27369">
        <ele>460.7</ele>
        <time>2021-03-02T12:04:45Z</time>
        <extensions>
          <gpxtpx:TrackPointExtension xmlns:gpxtpx="http://www.garmin.com/xmlschemas/TrackPointExtension/v1">
            <gpxtpx:hr>123</gpxtpx:hr>
          </gpxtpx:TrackPointExtension>
        </extensions>
      </trkpt>
      <trkpt lat="46.16782" lon="6.27369">
        <ele>461</ele>
        <time>2021-03-02T12:04:46Z</time>
        <extensions>
          <gpxtpx:TrackPointExtension xmlns:gpxtpx="http://www.garmin.com/xmlschemas/TrackPointExtension/v1">
            <gpxtpx:hr>123</gpxtpx:hr>
          </gpxtpx:TrackPointExtension>
        </extensions>
      </trkpt>
      <trkpt lat="46.16776" lon="6.2737">
        <ele>461.2</ele>
        <time>2021-03-02T12:04:47Z</time>
        <extensions>
          <gpxtpx:TrackPointExtension xmlns:gpxtpx="http://www.garmin.com/xmlschemas/TrackPointExtension/v1">
            <gpxtpx:hr>123</gpxtpx:hr>
          </gpxtpx:TrackPointExtension>
        </extensions>
      </trkpt>
      <trkpt lat="46.16771" lon="6.27369">
        <ele>461.5</ele>
        <time>2021-03-02T12:04:48Z</time>
        <extensions>
          <gpxtpx:TrackPointExtension xmlns:gpxtpx="http://www.garmin.com/xmlschemas/TrackPointExtension/v1">
            <gpxtpx:hr>122</gpxtpx:hr>
          </gpxtpx:TrackPointExtension>
        </extensions>
      </trkpt>
      <trkpt lat="46.16765" lon="6.27368">
        <ele>461.7</ele>
        <time>2021-03-02T12:04:49Z</time>
        <extensions>
          <gpxtpx:TrackPointExtension xmlns:gpxtpx="http://www.garmin.com/xmlschemas/TrackPointExtension/v1">
            <gpxtpx:hr>122</gpxtpx:hr>
          </gpxtpx:TrackPointExtension>
        </extensions>
      </trkpt>
      <trkpt lat="46.16759" lon="6.27367">
        <ele>461.9</ele>
        <time>2021-03-02T12:04:50Z</time>
        <extensions>
          <gpxtpx:TrackPointExtension xmlns:gpxtpx="http://www.garmin.com/xmlschemas/TrackPointExtension/v1">
            <gpxtpx:hr>122</gpxtpx:hr>
          </gpxtpx:TrackPointExtension>
        </extensions>
      </trkpt>
      <trkpt lat="46.16753" lon="6.27366">
        <ele>462.2</ele>
        <time>2021-03-02T12:04:51Z</time>
        <extensions>
          <gpxtpx:TrackPointExtension xmlns:gpxtpx="http://www.garmin.com/xmlschemas/TrackPointExtension/v1">
            <gpxtpx:hr>122</gpxtpx:hr>
          </gpxtpx:TrackPointExtension>
        </extensions>
      </trkpt>
      <trkpt lat="46.16748" lon="6.27365">
        <ele>462.4</ele>
        <time>2021-03-02T12:04:52Z</time>
        <extensions>
          <gpxtpx:TrackPointExtension xmlns:gpxtpx="http://www.garmin.com/xmlschemas/TrackPointExtension/v1">
            <gpxtpx:hr>122</gpxtpx:hr>
          </gpxtpx:TrackPointExtension>
        </extensions>
      </trkpt>
      <trkpt lat="46.16742" lon="6.27364">
        <ele>462.6</ele>
        <time>2021-03-02T12:04:53Z</time>
        <extensions>
          <gpxtpx:TrackPointExtension xmlns:gpxtpx="http://www.garmin.com/xmlschemas/TrackPointExtension/v1">
            <gpxtpx:hr>122</gpxtpx:hr>
          </gpxtpx:TrackPointExtension>
        </extensions>
      </trkpt>
      <trkpt lat="46.16736" lon="6.27363">
        <ele>462.8</ele>
        <time>2021-03-02T12:04:54Z</time>
        <extensions>
          <gpxtpx:TrackPointExtension xmlns:gpxtpx="http://www.garmin.com/xmlschemas/TrackPointExtension/v1">
            <gpxtpx:hr>121</gpxtpx:hr>
          </gpxtpx:TrackPointExtension>
        </extensions>
      </trkpt>
      <trkpt lat="46.1673" lon="6.27362">
        <ele>463</ele>
        <time>2021-03-02T12:04:55Z</time>
        <extensions>
          <gpxtpx:TrackPointExtension xmlns:gpxtpx="http://www.garmin.com/xmlschemas/TrackPointExtension/v1">
            <gpxtpx:hr>120</gpxtpx:hr>
          </gpxtpx:TrackPointExtension>
        </extensions>
      </trkpt>
      <trkpt lat="46.16724" lon="6.27361">
        <ele>463.2</ele>
        <time>2021-03-02T12:04:56Z</time>
        <extensions>
          <gpxtpx:TrackPointExtension xmlns:gpxtpx="http://www.garmin.com/xmlschemas/TrackPointExtension/v1">
            <gpxtpx:hr>119</gpxtpx:hr>
          </gpxtpx:TrackPointExtension>
        </extensions>
      </trkpt>
      <trkpt lat="46.16718" lon="6.2736">
        <ele>463.4</ele>
        <time>2021-03-02T12:04:57Z</time>
        <extensions>
          <gpxtpx:TrackPointExtension xmlns:gpxtpx="http://www.garmin.com/xmlschemas/TrackPointExtension/v1">
            <gpxtpx:hr>119</gpxtpx:hr>
          </gpxtpx:TrackPointExtension>
        </extensions>
      </trkpt>
      <trkpt lat="46.16712" lon="6.27359">
        <ele>463.6</ele>
        <time>2021-03-02T12:04:58Z</time>
        <extensions>
          <gpxtpx:TrackPointExtension xmlns:gpxtpx="http://www.garmin.com/xmlschemas/TrackPointExtension/v1">
            <gpxtpx:hr>118</gpxtpx:hr>
          </gpxtpx:TrackPointExtension>
        </extensions>
      </trkpt>
      <trkpt lat="46.16706" lon="6.27357">
        <ele>463.8</ele>
        <time>2021-03-02T12:04:59Z</time>
        <extensions>
          <gpxtpx:TrackPointExtension xmlns:gpxtpx="http://www.garmin.com/xmlschemas/TrackPointExtension/v1">
            <gpxtpx:hr>118</gpxtpx:hr>
          </gpxtpx:TrackPointExtension>
        </extensions>
      </trkpt>
      <trkpt lat="46.16701" lon="6.27356">
        <ele>464.1</ele>
        <time>2021-03-02T12:05:00Z</time>
        <extensions>
          <gpxtpx:TrackPointExtension xmlns:gpxtpx="http://www.garmin.com/xmlschemas/TrackPointExtension/v1">
            <gpxtpx:hr>118</gpxtpx:hr>
          </gpxtpx:TrackPointExtension>
        </extensions>
      </trkpt>
      <trkpt lat="46.16695" lon="6.27355">
        <ele>464.3</ele>
        <time>2021-03-02T12:05:01Z</time>
        <extensions>
          <gpxtpx:TrackPointExtension xmlns:gpxtpx="http://www.garmin.com/xmlschemas/TrackPointExtension/v1">
            <gpxtpx:hr>118</gpxtpx:hr>
          </gpxtpx:TrackPointExtension>
        </extensions>
      </trkpt>
      <trkpt lat="46.16689" lon="6.27353">
        <ele>464.5</ele>
        <time>2021-03-02T12:05:02Z</time>
        <extensions>
          <gpxtpx:TrackPointExtension xmlns:gpxtpx="http://www.garmin.com/xmlschemas/TrackPointExtension/v1">
            <gpxtpx:hr>118</gpxtpx:hr>
          </gpxtpx:TrackPointExtension>
        </extensions>
      </trkpt>
      <trkpt lat="46.16684" lon="6.27352">
        <ele>464.7</ele>
        <time>2021-03-02T12:05:03Z</time>
        <extensions>
          <gpxtpx:TrackPointExtension xmlns:gpxtpx="http://www.garmin.com/xmlschemas/TrackPointExtension/v1">
            <gpxtpx:hr>118</gpxtpx:hr>
          </gpxtpx:TrackPointExtension>
        </extensions>
      </trkpt>
      <trkpt lat="46.16679" lon="6.27351">
        <ele>464.8</ele>
        <time>2021-03-02T12:05:04Z</time>
        <extensions>
          <gpxtpx:TrackPointExtension xmlns:gpxtpx="http://www.garmin.com/xmlschemas/TrackPointExtension/v1">
            <gpxtpx:hr>118</gpxtpx:hr>
          </gpxtpx:TrackPointExtension>
        </extensions>
      </trkpt>
      <trkpt lat="46.16674" lon="6.2735">
        <ele>465.1</ele>
        <time>2021-03-02T12:05:05Z</time>
        <extensions>
          <gpxtpx:TrackPointExtension xmlns:gpxtpx="http://www.garmin.com/xmlschemas/TrackPointExtension/v1">
            <gpxtpx:hr>118</gpxtpx:hr>
          </gpxtpx:TrackPointExtension>
        </extensions>
      </trkpt>
      <trkpt lat="46.16669" lon="6.27348">
        <ele>465.3</ele>
        <time>2021-03-02T12:05:06Z</time>
        <extensions>
          <gpxtpx:TrackPointExtension xmlns:gpxtpx="http://www.garmin.com/xmlschemas/TrackPointExtension/v1">
            <gpxtpx:hr>117</gpxtpx:hr>
          </gpxtpx:TrackPointExtension>
        </extensions>
      </trkpt>
      <trkpt lat="46.16664" lon="6.27346">
        <ele>465.6</ele>
        <time>2021-03-02T12:05:07Z</time>
        <extensions>
          <gpxtpx:TrackPointExtension xmlns:gpxtpx="http://www.garmin.com/xmlschemas/TrackPointExtension/v1">
            <gpxtpx:hr>117</gpxtpx:hr>
          </gpxtpx:TrackPointExtension>
        </extensions>
      </trkpt>
      <trkpt lat="46.16658" lon="6.27344">
        <ele>465.9</ele>
        <time>2021-03-02T12:05:08Z</time>
        <extensions>
          <gpxtpx:TrackPointExtension xmlns:gpxtpx="http://www.garmin.com/xmlschemas/TrackPointExtension/v1">
            <gpxtpx:hr>117</gpxtpx:hr>
          </gpxtpx:TrackPointExtension>
        </extensions>
      </trkpt>
      <trkpt lat="46.16653" lon="6.27342">
        <ele>466.1</ele>
        <time>2021-03-02T12:05:09Z</time>
        <extensions>
          <gpxtpx:TrackPointExtension xmlns:gpxtpx="http://www.garmin.com/xmlschemas/TrackPointExtension/v1">
            <gpxtpx:hr>117</gpxtpx:hr>
          </gpxtpx:TrackPointExtension>
        </extensions>
      </trkpt>
      <trkpt lat="46.16648" lon="6.2734">
        <ele>466.4</ele>
        <time>2021-03-02T12:05:10Z</time>
        <extensions>
          <gpxtpx:TrackPointExtension xmlns:gpxtpx="http://www.garmin.com/xmlschemas/TrackPointExtension/v1">
            <gpxtpx:hr>117</gpxtpx:hr>
          </gpxtpx:TrackPointExtension>
        </extensions>
      </trkpt>
      <trkpt lat="46.16643" lon="6.27338">
        <ele>466.7</ele>
        <time>2021-03-02T12:05:11Z</time>
        <extensions>
          <gpxtpx:TrackPointExtension xmlns:gpxtpx="http://www.garmin.com/xmlschemas/TrackPointExtension/v1">
            <gpxtpx:hr>117</gpxtpx:hr>
          </gpxtpx:TrackPointExtension>
        </extensions>
      </trkpt>
      <trkpt lat="46.16638" lon="6.27335">
        <ele>466.9</ele>
        <time>2021-03-02T12:05:12Z</time>
        <extensions>
          <gpxtpx:TrackPointExtension xmlns:gpxtpx="http://www.garmin.com/xmlschemas/TrackPointExtension/v1">
            <gpxtpx:hr>117</gpxtpx:hr>
          </gpxtpx:TrackPointExtension>
        </extensions>
      </trkpt>
      <trkpt lat="46.16633" lon="6.27332">
        <ele>467.2</ele>
        <time>2021-03-02T12:05:13Z</time>
        <extensions>
          <gpxtpx:TrackPointExtension xmlns:gpxtpx="http://www.garmin.com/xmlschemas/TrackPointExtension/v1">
            <gpxtpx:hr>116</gpxtpx:hr>
          </gpxtpx:TrackPointExtension>
        </extensions>
      </trkpt>
      <trkpt lat="46.16629" lon="6.27329">
        <ele>467.4</ele>
        <time>2021-03-02T12:05:14Z</time>
        <extensions>
          <gpxtpx:TrackPointExtension xmlns:gpxtpx="http://www.garmin.com/xmlschemas/TrackPointExtension/v1">
            <gpxtpx:hr>116</gpxtpx:hr>
          </gpxtpx:TrackPointExtension>
        </extensions>
      </trkpt>
      <trkpt lat="46.16625" lon="6.27325">
        <ele>467.7</ele>
        <time>2021-03-02T12:05:15Z</time>
        <extensions>
          <gpxtpx:TrackPointExtension xmlns:gpxtpx="http://www.garmin.com/xmlschemas/TrackPointExtension/v1">
            <gpxtpx:hr>116</gpxtpx:hr>
          </gpxtpx:TrackPointExtension>
        </extensions>
      </trkpt>
      <trkpt lat="46.1662" lon="6.27322">
        <ele>467.9</ele>
        <time>2021-03-02T12:05:16Z</time>
        <extensions>
          <gpxtpx:TrackPointExtension xmlns:gpxtpx="http://www.garmin.com/xmlschemas/TrackPointExtension/v1">
            <gpxtpx:hr>116</gpxtpx:hr>
          </gpxtpx:TrackPointExtension>
        </extensions>
      </trkpt>
      <trkpt lat="46.16615" lon="6.27318">
        <ele>468.1</ele>
        <time>2021-03-02T12:05:17Z</time>
        <extensions>
          <gpxtpx:TrackPointExtension xmlns:gpxtpx="http://www.garmin.com/xmlschemas/TrackPointExtension/v1">
            <gpxtpx:hr>116</gpxtpx:hr>
          </gpxtpx:TrackPointExtension>
        </extensions>
      </trkpt>
      <trkpt lat="46.16611" lon="6.27313">
        <ele>468.3</ele>
        <time>2021-03-02T12:05:18Z</time>
        <extensions>
          <gpxtpx:TrackPointExtension xmlns:gpxtpx="http://www.garmin.com/xmlschemas/TrackPointExtension/v1">
            <gpxtpx:hr>116</gpxtpx:hr>
          </gpxtpx:TrackPointExtension>
        </extensions>
      </trkpt>
      <trkpt lat="46.16606" lon="6.27309">
        <ele>468.6</ele>
        <time>2021-03-02T12:05:19Z</time>
        <extensions>
          <gpxtpx:TrackPointExtension xmlns:gpxtpx="http://www.garmin.com/xmlschemas/TrackPointExtension/v1">
            <gpxtpx:hr>116</gpxtpx:hr>
          </gpxtpx:TrackPointExtension>
        </extensions>
      </trkpt>
      <trkpt lat="46.16601" lon="6.27304">
        <ele>468.8</ele>
        <time>2021-03-02T12:05:20Z</time>
        <extensions>
          <gpxtpx:TrackPointExtension xmlns:gpxtpx="http://www.garmin.com/xmlschemas/TrackPointExtension/v1">
            <gpxtpx:hr>116</gpxtpx:hr>
          </gpxtpx:TrackPointExtension>
        </extensions>
      </trkpt>
      <trkpt lat="46.16597" lon="6.27299">
        <ele>469.1</ele>
        <time>2021-03-02T12:05:21Z</time>
        <extensions>
          <gpxtpx:TrackPointExtension xmlns:gpxtpx="http://www.garmin.com/xmlschemas/TrackPointExtension/v1">
            <gpxtpx:hr>116</gpxtpx:hr>
          </gpxtpx:TrackPointExtension>
        </extensions>
      </trkpt>
      <trkpt lat="46.16592" lon="6.27295">
        <ele>469.3</ele>
        <time>2021-03-02T12:05:22Z</time>
        <extensions>
          <gpxtpx:TrackPointExtension xmlns:gpxtpx="http://www.garmin.com/xmlschemas/TrackPointExtension/v1">
            <gpxtpx:hr>116</gpxtpx:hr>
          </gpxtpx:TrackPointExtension>
        </extensions>
      </trkpt>
      <trkpt lat="46.16587" lon="6.27291">
        <ele>469.6</ele>
        <time>2021-03-02T12:05:23Z</time>
        <extensions>
          <gpxtpx:TrackPointExtension xmlns:gpxtpx="http://www.garmin.com/xmlschemas/TrackPointExtension/v1">
            <gpxtpx:hr>116</gpxtpx:hr>
          </gpxtpx:TrackPointExtension>
        </extensions>
      </trkpt>
      <trkpt lat="46.16582" lon="6.27287">
        <ele>469.8</ele>
        <time>2021-03-02T12:05:24Z</time>
        <extensions>
          <gpxtpx:TrackPointExtension xmlns:gpxtpx="http://www.garmin.com/xmlschemas/TrackPointExtension/v1">
            <gpxtpx:hr>117</gpxtpx:hr>
          </gpxtpx:TrackPointExtension>
        </extensions>
      </trkpt>
      <trkpt lat="46.16578" lon="6.27283">
        <ele>470.1</ele>
        <time>2021-03-02T12:05:25Z</time>
        <extensions>
          <gpxtpx:TrackPointExtension xmlns:gpxtpx="http://www.garmin.com/xmlschemas/TrackPointExtension/v1">
            <gpxtpx:hr>116</gpxtpx:hr>
          </gpxtpx:TrackPointExtension>
        </extensions>
      </trkpt>
      <trkpt lat="46.16573" lon="6.27279">
        <ele>470.4</ele>
        <time>2021-03-02T12:05:26Z</time>
        <extensions>
          <gpxtpx:TrackPointExtension xmlns:gpxtpx="http://www.garmin.com/xmlschemas/TrackPointExtension/v1">
            <gpxtpx:hr>116</gpxtpx:hr>
          </gpxtpx:TrackPointExtension>
        </extensions>
      </trkpt>
      <trkpt lat="46.16568" lon="6.27276">
        <ele>470.6</ele>
        <time>2021-03-02T12:05:27Z</time>
        <extensions>
          <gpxtpx:TrackPointExtension xmlns:gpxtpx="http://www.garmin.com/xmlschemas/TrackPointExtension/v1">
            <gpxtpx:hr>116</gpxtpx:hr>
          </gpxtpx:TrackPointExtension>
        </extensions>
      </trkpt>
      <trkpt lat="46.16563" lon="6.27274">
        <ele>470.9</ele>
        <time>2021-03-02T12:05:28Z</time>
        <extensions>
          <gpxtpx:TrackPointExtension xmlns:gpxtpx="http://www.garmin.com/xmlschemas/TrackPointExtension/v1">
            <gpxtpx:hr>116</gpxtpx:hr>
          </gpxtpx:TrackPointExtension>
        </extensions>
      </trkpt>
      <trkpt lat="46.16558" lon="6.27271">
        <ele>471.1</ele>
        <time>2021-03-02T12:05:29Z</time>
        <extensions>
          <gpxtpx:TrackPointExtension xmlns:gpxtpx="http://www.garmin.com/xmlschemas/TrackPointExtension/v1">
            <gpxtpx:hr>116</gpxtpx:hr>
          </gpxtpx:TrackPointExtension>
        </extensions>
      </trkpt>
      <trkpt lat="46.16553" lon="6.27269">
        <ele>471.4</ele>
        <time>2021-03-02T12:05:30Z</time>
        <extensions>
          <gpxtpx:TrackPointExtension xmlns:gpxtpx="http://www.garmin.com/xmlschemas/TrackPointExtension/v1">
            <gpxtpx:hr>116</gpxtpx:hr>
          </gpxtpx:TrackPointExtension>
        </extensions>
      </trkpt>
      <trkpt lat="46.16548" lon="6.27267">
        <ele>471.6</ele>
        <time>2021-03-02T12:05:31Z</time>
        <extensions>
          <gpxtpx:TrackPointExtension xmlns:gpxtpx="http://www.garmin.com/xmlschemas/TrackPointExtension/v1">
            <gpxtpx:hr>116</gpxtpx:hr>
          </gpxtpx:TrackPointExtension>
        </extensions>
      </trkpt>
      <trkpt lat="46.16543" lon="6.27265">
        <ele>471.8</ele>
        <time>2021-03-02T12:05:32Z</time>
        <extensions>
          <gpxtpx:TrackPointExtension xmlns:gpxtpx="http://www.garmin.com/xmlschemas/TrackPointExtension/v1">
            <gpxtpx:hr>115</gpxtpx:hr>
          </gpxtpx:TrackPointExtension>
        </extensions>
      </trkpt>
      <trkpt lat="46.16538" lon="6.27264">
        <ele>472</ele>
        <time>2021-03-02T12:05:33Z</time>
        <extensions>
          <gpxtpx:TrackPointExtension xmlns:gpxtpx="http://www.garmin.com/xmlschemas/TrackPointExtension/v1">
            <gpxtpx:hr>115</gpxtpx:hr>
          </gpxtpx:TrackPointExtension>
        </extensions>
      </trkpt>
      <trkpt lat="46.16533" lon="6.27262">
        <ele>472.3</ele>
        <time>2021-03-02T12:05:34Z</time>
        <extensions>
          <gpxtpx:TrackPointExtension xmlns:gpxtpx="http://www.garmin.com/xmlschemas/TrackPointExtension/v1">
            <gpxtpx:hr>114</gpxtpx:hr>
          </gpxtpx:TrackPointExtension>
        </extensions>
      </trkpt>
      <trkpt lat="46.16528" lon="6.27261">
        <ele>472.5</ele>
        <time>2021-03-02T12:05:35Z</time>
        <extensions>
          <gpxtpx:TrackPointExtension xmlns:gpxtpx="http://www.garmin.com/xmlschemas/TrackPointExtension/v1">
            <gpxtpx:hr>114</gpxtpx:hr>
          </gpxtpx:TrackPointExtension>
        </extensions>
      </trkpt>
      <trkpt lat="46.16523" lon="6.27259">
        <ele>472.7</ele>
        <time>2021-03-02T12:05:36Z</time>
        <extensions>
          <gpxtpx:TrackPointExtension xmlns:gpxtpx="http://www.garmin.com/xmlschemas/TrackPointExtension/v1">
            <gpxtpx:hr>114</gpxtpx:hr>
          </gpxtpx:TrackPointExtension>
        </extensions>
      </trkpt>
      <trkpt lat="46.16518" lon="6.27257">
        <ele>473</ele>
        <time>2021-03-02T12:05:37Z</time>
        <extensions>
          <gpxtpx:TrackPointExtension xmlns:gpxtpx="http://www.garmin.com/xmlschemas/TrackPointExtension/v1">
            <gpxtpx:hr>114</gpxtpx:hr>
          </gpxtpx:TrackPointExtension>
        </extensions>
      </trkpt>
      <trkpt lat="46.16513" lon="6.27256">
        <ele>473.2</ele>
        <time>2021-03-02T12:05:38Z</time>
        <extensions>
          <gpxtpx:TrackPointExtension xmlns:gpxtpx="http://www.garmin.com/xmlschemas/TrackPointExtension/v1">
            <gpxtpx:hr>114</gpxtpx:hr>
          </gpxtpx:TrackPointExtension>
        </extensions>
      </trkpt>
      <trkpt lat="46.16508" lon="6.27254">
        <ele>473.4</ele>
        <time>2021-03-02T12:05:39Z</time>
        <extensions>
          <gpxtpx:TrackPointExtension xmlns:gpxtpx="http://www.garmin.com/xmlschemas/TrackPointExtension/v1">
            <gpxtpx:hr>114</gpxtpx:hr>
          </gpxtpx:TrackPointExtension>
        </extensions>
      </trkpt>
      <trkpt lat="46.16503" lon="6.27252">
        <ele>473.6</ele>
        <time>2021-03-02T12:05:40Z</time>
        <extensions>
          <gpxtpx:TrackPointExtension xmlns:gpxtpx="http://www.garmin.com/xmlschemas/TrackPointExtension/v1">
            <gpxtpx:hr>114</gpxtpx:hr>
          </gpxtpx:TrackPointExtension>
        </extensions>
      </trkpt>
      <trkpt lat="46.16498" lon="6.2725">
        <ele>473.8</ele>
        <time>2021-03-02T12:05:41Z</time>
        <extensions>
          <gpxtpx:TrackPointExtension xmlns:gpxtpx="http://www.garmin.com/xmlschemas/TrackPointExtension/v1">
            <gpxtpx:hr>114</gpxtpx:hr>
          </gpxtpx:TrackPointExtension>
        </extensions>
      </trkpt>
      <trkpt lat="46.16493" lon="6.27248">
        <ele>474.1</ele>
        <time>2021-03-02T12:05:42Z</time>
        <extensions>
          <gpxtpx:TrackPointExtension xmlns:gpxtpx="http://www.garmin.com/xmlschemas/TrackPointExtension/v1">
            <gpxtpx:hr>113</gpxtpx:hr>
          </gpxtpx:TrackPointExtension>
        </extensions>
      </trkpt>
      <trkpt lat="46.16488" lon="6.27247">
        <ele>474.3</ele>
        <time>2021-03-02T12:05:43Z</time>
        <extensions>
          <gpxtpx:TrackPointExtension xmlns:gpxtpx="http://www.garmin.com/xmlschemas/TrackPointExtension/v1">
            <gpxtpx:hr>113</gpxtpx:hr>
          </gpxtpx:TrackPointExtension>
        </extensions>
      </trkpt>
      <trkpt lat="46.16483" lon="6.27245">
        <ele>474.5</ele>
        <time>2021-03-02T12:05:44Z</time>
        <extensions>
          <gpxtpx:TrackPointExtension xmlns:gpxtpx="http://www.garmin.com/xmlschemas/TrackPointExtension/v1">
            <gpxtpx:hr>112</gpxtpx:hr>
          </gpxtpx:TrackPointExtension>
        </extensions>
      </trkpt>
      <trkpt lat="46.16478" lon="6.27243">
        <ele>474.8</ele>
        <time>2021-03-02T12:05:45Z</time>
        <extensions>
          <gpxtpx:TrackPointExtension xmlns:gpxtpx="http://www.garmin.com/xmlschemas/TrackPointExtension/v1">
            <gpxtpx:hr>112</gpxtpx:hr>
          </gpxtpx:TrackPointExtension>
        </extensions>
      </trkpt>
      <trkpt lat="46.16472" lon="6.27241">
        <ele>475</ele>
        <time>2021-03-02T12:05:46Z</time>
        <extensions>
          <gpxtpx:TrackPointExtension xmlns:gpxtpx="http://www.garmin.com/xmlschemas/TrackPointExtension/v1">
            <gpxtpx:hr>111</gpxtpx:hr>
          </gpxtpx:TrackPointExtension>
        </extensions>
      </trkpt>
      <trkpt lat="46.16467" lon="6.2724">
        <ele>475.3</ele>
        <time>2021-03-02T12:05:47Z</time>
        <extensions>
          <gpxtpx:TrackPointExtension xmlns:gpxtpx="http://www.garmin.com/xmlschemas/TrackPointExtension/v1">
            <gpxtpx:hr>110</gpxtpx:hr>
          </gpxtpx:TrackPointExtension>
        </extensions>
      </trkpt>
      <trkpt lat="46.16463" lon="6.27238">
        <ele>475.5</ele>
        <time>2021-03-02T12:05:48Z</time>
        <extensions>
          <gpxtpx:TrackPointExtension xmlns:gpxtpx="http://www.garmin.com/xmlschemas/TrackPointExtension/v1">
            <gpxtpx:hr>110</gpxtpx:hr>
          </gpxtpx:TrackPointExtension>
        </extensions>
      </trkpt>
      <trkpt lat="46.16458" lon="6.27236">
        <ele>475.7</ele>
        <time>2021-03-02T12:05:49Z</time>
        <extensions>
          <gpxtpx:TrackPointExtension xmlns:gpxtpx="http://www.garmin.com/xmlschemas/TrackPointExtension/v1">
            <gpxtpx:hr>110</gpxtpx:hr>
          </gpxtpx:TrackPointExtension>
        </extensions>
      </trkpt>
      <trkpt lat="46.16453" lon="6.27234">
        <ele>476</ele>
        <time>2021-03-02T12:05:50Z</time>
        <extensions>
          <gpxtpx:TrackPointExtension xmlns:gpxtpx="http://www.garmin.com/xmlschemas/TrackPointExtension/v1">
            <gpxtpx:hr>110</gpxtpx:hr>
          </gpxtpx:TrackPointExtension>
        </extensions>
      </trkpt>
      <trkpt lat="46.16448" lon="6.27233">
        <ele>476.2</ele>
        <time>2021-03-02T12:05:51Z</time>
        <extensions>
          <gpxtpx:TrackPointExtension xmlns:gpxtpx="http://www.garmin.com/xmlschemas/TrackPointExtension/v1">
            <gpxtpx:hr>110</gpxtpx:hr>
          </gpxtpx:TrackPointExtension>
        </extensions>
      </trkpt>
      <trkpt lat="46.16443" lon="6.27232">
        <ele>476.5</ele>
        <time>2021-03-02T12:05:52Z</time>
        <extensions>
          <gpxtpx:TrackPointExtension xmlns:gpxtpx="http://www.garmin.com/xmlschemas/TrackPointExtension/v1">
            <gpxtpx:hr>110</gpxtpx:hr>
          </gpxtpx:TrackPointExtension>
        </extensions>
      </trkpt>
      <trkpt lat="46.16438" lon="6.2723">
        <ele>476.8</ele>
        <time>2021-03-02T12:05:53Z</time>
        <extensions>
          <gpxtpx:TrackPointExtension xmlns:gpxtpx="http://www.garmin.com/xmlschemas/TrackPointExtension/v1">
            <gpxtpx:hr>110</gpxtpx:hr>
          </gpxtpx:TrackPointExtension>
        </extensions>
      </trkpt>
      <trkpt lat="46.16433" lon="6.27229">
        <ele>477</ele>
        <time>2021-03-02T12:05:54Z</time>
        <extensions>
          <gpxtpx:TrackPointExtension xmlns:gpxtpx="http://www.garmin.com/xmlschemas/TrackPointExtension/v1">
            <gpxtpx:hr>110</gpxtpx:hr>
          </gpxtpx:TrackPointExtension>
        </extensions>
      </trkpt>
      <trkpt lat="46.16428" lon="6.27228">
        <ele>477.3</ele>
        <time>2021-03-02T12:05:55Z</time>
        <extensions>
          <gpxtpx:TrackPointExtension xmlns:gpxtpx="http://www.garmin.com/xmlschemas/TrackPointExtension/v1">
            <gpxtpx:hr>110</gpxtpx:hr>
          </gpxtpx:TrackPointExtension>
        </extensions>
      </trkpt>
      <trkpt lat="46.16423" lon="6.27228">
        <ele>477.6</ele>
        <time>2021-03-02T12:05:56Z</time>
        <extensions>
          <gpxtpx:TrackPointExtension xmlns:gpxtpx="http://www.garmin.com/xmlschemas/TrackPointExtension/v1">
            <gpxtpx:hr>109</gpxtpx:hr>
          </gpxtpx:TrackPointExtension>
        </extensions>
      </trkpt>
      <trkpt lat="46.16418" lon="6.27227">
        <ele>477.9</ele>
        <time>2021-03-02T12:05:57Z</time>
        <extensions>
          <gpxtpx:TrackPointExtension xmlns:gpxtpx="http://www.garmin.com/xmlschemas/TrackPointExtension/v1">
            <gpxtpx:hr>109</gpxtpx:hr>
          </gpxtpx:TrackPointExtension>
        </extensions>
      </trkpt>
      <trkpt lat="46.16412" lon="6.27227">
        <ele>478.2</ele>
        <time>2021-03-02T12:05:58Z</time>
        <extensions>
          <gpxtpx:TrackPointExtension xmlns:gpxtpx="http://www.garmin.com/xmlschemas/TrackPointExtension/v1">
            <gpxtpx:hr>109</gpxtpx:hr>
          </gpxtpx:TrackPointExtension>
        </extensions>
      </trkpt>
      <trkpt lat="46.16407" lon="6.27228">
        <ele>478.4</ele>
        <time>2021-03-02T12:05:59Z</time>
        <extensions>
          <gpxtpx:TrackPointExtension xmlns:gpxtpx="http://www.garmin.com/xmlschemas/TrackPointExtension/v1">
            <gpxtpx:hr>109</gpxtpx:hr>
          </gpxtpx:TrackPointExtension>
        </extensions>
      </trkpt>
      <trkpt lat="46.16402" lon="6.27229">
        <ele>478.7</ele>
        <time>2021-03-02T12:06:00Z</time>
        <extensions>
          <gpxtpx:TrackPointExtension xmlns:gpxtpx="http://www.garmin.com/xmlschemas/TrackPointExtension/v1">
            <gpxtpx:hr>109</gpxtpx:hr>
          </gpxtpx:TrackPointExtension>
        </extensions>
      </trkpt>
      <trkpt lat="46.16397" lon="6.27231">
        <ele>478.9</ele>
        <time>2021-03-02T12:06:01Z</time>
        <extensions>
          <gpxtpx:TrackPointExtension xmlns:gpxtpx="http://www.garmin.com/xmlschemas/TrackPointExtension/v1">
            <gpxtpx:hr>109</gpxtpx:hr>
          </gpxtpx:TrackPointExtension>
        </extensions>
      </trkpt>
      <trkpt lat="46.16392" lon="6.27233">
        <ele>479.2</ele>
        <time>2021-03-02T12:06:02Z</time>
        <extensions>
          <gpxtpx:TrackPointExtension xmlns:gpxtpx="http://www.garmin.com/xmlschemas/TrackPointExtension/v1">
            <gpxtpx:hr>110</gpxtpx:hr>
          </gpxtpx:TrackPointExtension>
        </extensions>
      </trkpt>
      <trkpt lat="46.16388" lon="6.27235">
        <ele>479.5</ele>
        <time>2021-03-02T12:06:03Z</time>
        <extensions>
          <gpxtpx:TrackPointExtension xmlns:gpxtpx="http://www.garmin.com/xmlschemas/TrackPointExtension/v1">
            <gpxtpx:hr>110</gpxtpx:hr>
          </gpxtpx:TrackPointExtension>
        </extensions>
      </trkpt>
      <trkpt lat="46.16383" lon="6.27238">
        <ele>479.6</ele>
        <time>2021-03-02T12:06:04Z</time>
        <extensions>
          <gpxtpx:TrackPointExtension xmlns:gpxtpx="http://www.garmin.com/xmlschemas/TrackPointExtension/v1">
            <gpxtpx:hr>110</gpxtpx:hr>
          </gpxtpx:TrackPointExtension>
        </extensions>
      </trkpt>
      <trkpt lat="46.16379" lon="6.27241">
        <ele>479.7</ele>
        <time>2021-03-02T12:06:05Z</time>
        <extensions>
          <gpxtpx:TrackPointExtension xmlns:gpxtpx="http://www.garmin.com/xmlschemas/TrackPointExtension/v1">
            <gpxtpx:hr>110</gpxtpx:hr>
          </gpxtpx:TrackPointExtension>
        </extensions>
      </trkpt>
      <trkpt lat="46.16374" lon="6.27244">
        <ele>479.9</ele>
        <time>2021-03-02T12:06:06Z</time>
        <extensions>
          <gpxtpx:TrackPointExtension xmlns:gpxtpx="http://www.garmin.com/xmlschemas/TrackPointExtension/v1">
            <gpxtpx:hr>110</gpxtpx:hr>
          </gpxtpx:TrackPointExtension>
        </extensions>
      </trkpt>
      <trkpt lat="46.1637" lon="6.27248">
        <ele>480</ele>
        <time>2021-03-02T12:06:07Z</time>
        <extensions>
          <gpxtpx:TrackPointExtension xmlns:gpxtpx="http://www.garmin.com/xmlschemas/TrackPointExtension/v1">
            <gpxtpx:hr>111</gpxtpx:hr>
          </gpxtpx:TrackPointExtension>
        </extensions>
      </trkpt>
      <trkpt lat="46.16366" lon="6.27253">
        <ele>480.1</ele>
        <time>2021-03-02T12:06:08Z</time>
        <extensions>
          <gpxtpx:TrackPointExtension xmlns:gpxtpx="http://www.garmin.com/xmlschemas/TrackPointExtension/v1">
            <gpxtpx:hr>111</gpxtpx:hr>
          </gpxtpx:TrackPointExtension>
        </extensions>
      </trkpt>
      <trkpt lat="46.16362" lon="6.27258">
        <ele>480.3</ele>
        <time>2021-03-02T12:06:09Z</time>
        <extensions>
          <gpxtpx:TrackPointExtension xmlns:gpxtpx="http://www.garmin.com/xmlschemas/TrackPointExtension/v1">
            <gpxtpx:hr>112</gpxtpx:hr>
          </gpxtpx:TrackPointExtension>
        </extensions>
      </trkpt>
      <trkpt lat="46.16359" lon="6.27263">
        <ele>480.4</ele>
        <time>2021-03-02T12:06:10Z</time>
        <extensions>
          <gpxtpx:TrackPointExtension xmlns:gpxtpx="http://www.garmin.com/xmlschemas/TrackPointExtension/v1">
            <gpxtpx:hr>112</gpxtpx:hr>
          </gpxtpx:TrackPointExtension>
        </extensions>
      </trkpt>
      <trkpt lat="46.16355" lon="6.27268">
        <ele>480.5</ele>
        <time>2021-03-02T12:06:11Z</time>
        <extensions>
          <gpxtpx:TrackPointExtension xmlns:gpxtpx="http://www.garmin.com/xmlschemas/TrackPointExtension/v1">
            <gpxtpx:hr>113</gpxtpx:hr>
          </gpxtpx:TrackPointExtension>
        </extensions>
      </trkpt>
      <trkpt lat="46.16352" lon="6.27274">
        <ele>480.7</ele>
        <time>2021-03-02T12:06:12Z</time>
        <extensions>
          <gpxtpx:TrackPointExtension xmlns:gpxtpx="http://www.garmin.com/xmlschemas/TrackPointExtension/v1">
            <gpxtpx:hr>113</gpxtpx:hr>
          </gpxtpx:TrackPointExtension>
        </extensions>
      </trkpt>
      <trkpt lat="46.16349" lon="6.2728">
        <ele>480.8</ele>
        <time>2021-03-02T12:06:13Z</time>
        <extensions>
          <gpxtpx:TrackPointExtension xmlns:gpxtpx="http://www.garmin.com/xmlschemas/TrackPointExtension/v1">
            <gpxtpx:hr>113</gpxtpx:hr>
          </gpxtpx:TrackPointExtension>
        </extensions>
      </trkpt>
      <trkpt lat="46.16346" lon="6.27286">
        <ele>480.9</ele>
        <time>2021-03-02T12:06:14Z</time>
        <extensions>
          <gpxtpx:TrackPointExtension xmlns:gpxtpx="http://www.garmin.com/xmlschemas/TrackPointExtension/v1">
            <gpxtpx:hr>113</gpxtpx:hr>
          </gpxtpx:TrackPointExtension>
        </extensions>
      </trkpt>
      <trkpt lat="46.16343" lon="6.27292">
        <ele>481</ele>
        <time>2021-03-02T12:06:15Z</time>
        <extensions>
          <gpxtpx:TrackPointExtension xmlns:gpxtpx="http://www.garmin.com/xmlschemas/TrackPointExtension/v1">
            <gpxtpx:hr>113</gpxtpx:hr>
          </gpxtpx:TrackPointExtension>
        </extensions>
      </trkpt>
      <trkpt lat="46.1634" lon="6.27299">
        <ele>481.1</ele>
        <time>2021-03-02T12:06:16Z</time>
        <extensions>
          <gpxtpx:TrackPointExtension xmlns:gpxtpx="http://www.garmin.com/xmlschemas/TrackPointExtension/v1">
            <gpxtpx:hr>113</gpxtpx:hr>
          </gpxtpx:TrackPointExtension>
        </extensions>
      </trkpt>
      <trkpt lat="46.16337" lon="6.27307">
        <ele>481.2</ele>
        <time>2021-03-02T12:06:17Z</time>
        <extensions>
          <gpxtpx:TrackPointExtension xmlns:gpxtpx="http://www.garmin.com/xmlschemas/TrackPointExtension/v1">
            <gpxtpx:hr>114</gpxtpx:hr>
          </gpxtpx:TrackPointExtension>
        </extensions>
      </trkpt>
      <trkpt lat="46.16334" lon="6.27314">
        <ele>481.3</ele>
        <time>2021-03-02T12:06:18Z</time>
        <extensions>
          <gpxtpx:TrackPointExtension xmlns:gpxtpx="http://www.garmin.com/xmlschemas/TrackPointExtension/v1">
            <gpxtpx:hr>114</gpxtpx:hr>
          </gpxtpx:TrackPointExtension>
        </extensions>
      </trkpt>
      <trkpt lat="46.16332" lon="6.27322">
        <ele>481.3</ele>
        <time>2021-03-02T12:06:19Z</time>
        <extensions>
          <gpxtpx:TrackPointExtension xmlns:gpxtpx="http://www.garmin.com/xmlschemas/TrackPointExtension/v1">
            <gpxtpx:hr>114</gpxtpx:hr>
          </gpxtpx:TrackPointExtension>
        </extensions>
      </trkpt>
      <trkpt lat="46.16329" lon="6.27329">
        <ele>481.3</ele>
        <time>2021-03-02T12:06:20Z</time>
        <extensions>
          <gpxtpx:TrackPointExtension xmlns:gpxtpx="http://www.garmin.com/xmlschemas/TrackPointExtension/v1">
            <gpxtpx:hr>114</gpxtpx:hr>
          </gpxtpx:TrackPointExtension>
        </extensions>
      </trkpt>
      <trkpt lat="46.16326" lon="6.27337">
        <ele>481.4</ele>
        <time>2021-03-02T12:06:21Z</time>
        <extensions>
          <gpxtpx:TrackPointExtension xmlns:gpxtpx="http://www.garmin.com/xmlschemas/TrackPointExtension/v1">
            <gpxtpx:hr>115</gpxtpx:hr>
          </gpxtpx:TrackPointExtension>
        </extensions>
      </trkpt>
      <trkpt lat="46.16323" lon="6.27345">
        <ele>481.4</ele>
        <time>2021-03-02T12:06:22Z</time>
        <extensions>
          <gpxtpx:TrackPointExtension xmlns:gpxtpx="http://www.garmin.com/xmlschemas/TrackPointExtension/v1">
            <gpxtpx:hr>115</gpxtpx:hr>
          </gpxtpx:TrackPointExtension>
        </extensions>
      </trkpt>
      <trkpt lat="46.1632" lon="6.27353">
        <ele>481.5</ele>
        <time>2021-03-02T12:06:23Z</time>
        <extensions>
          <gpxtpx:TrackPointExtension xmlns:gpxtpx="http://www.garmin.com/xmlschemas/TrackPointExtension/v1">
            <gpxtpx:hr>116</gpxtpx:hr>
          </gpxtpx:TrackPointExtension>
        </extensions>
      </trkpt>
      <trkpt lat="46.16317" lon="6.27362">
        <ele>481.5</ele>
        <time>2021-03-02T12:06:24Z</time>
        <extensions>
          <gpxtpx:TrackPointExtension xmlns:gpxtpx="http://www.garmin.com/xmlschemas/TrackPointExtension/v1">
            <gpxtpx:hr>116</gpxtpx:hr>
          </gpxtpx:TrackPointExtension>
        </extensions>
      </trkpt>
      <trkpt lat="46.16314" lon="6.2737">
        <ele>481.5</ele>
        <time>2021-03-02T12:06:25Z</time>
        <extensions>
          <gpxtpx:TrackPointExtension xmlns:gpxtpx="http://www.garmin.com/xmlschemas/TrackPointExtension/v1">
            <gpxtpx:hr>117</gpxtpx:hr>
          </gpxtpx:TrackPointExtension>
        </extensions>
      </trkpt>
      <trkpt lat="46.1631" lon="6.27378">
        <ele>481.5</ele>
        <time>2021-03-02T12:06:26Z</time>
        <extensions>
          <gpxtpx:TrackPointExtension xmlns:gpxtpx="http://www.garmin.com/xmlschemas/TrackPointExtension/v1">
            <gpxtpx:hr>117</gpxtpx:hr>
          </gpxtpx:TrackPointExtension>
        </extensions>
      </trkpt>
      <trkpt lat="46.16307" lon="6.27387">
        <ele>481.5</ele>
        <time>2021-03-02T12:06:27Z</time>
        <extensions>
          <gpxtpx:TrackPointExtension xmlns:gpxtpx="http://www.garmin.com/xmlschemas/TrackPointExtension/v1">
            <gpxtpx:hr>118</gpxtpx:hr>
          </gpxtpx:TrackPointExtension>
        </extensions>
      </trkpt>
      <trkpt lat="46.16304" lon="6.27395">
        <ele>481.5</ele>
        <time>2021-03-02T12:06:28Z</time>
        <extensions>
          <gpxtpx:TrackPointExtension xmlns:gpxtpx="http://www.garmin.com/xmlschemas/TrackPointExtension/v1">
            <gpxtpx:hr>118</gpxtpx:hr>
          </gpxtpx:TrackPointExtension>
        </extensions>
      </trkpt>
      <trkpt lat="46.16301" lon="6.27404">
        <ele>481.5</ele>
        <time>2021-03-02T12:06:29Z</time>
        <extensions>
          <gpxtpx:TrackPointExtension xmlns:gpxtpx="http://www.garmin.com/xmlschemas/TrackPointExtension/v1">
            <gpxtpx:hr>119</gpxtpx:hr>
          </gpxtpx:TrackPointExtension>
        </extensions>
      </trkpt>
      <trkpt lat="46.16298" lon="6.27412">
        <ele>481.5</ele>
        <time>2021-03-02T12:06:30Z</time>
        <extensions>
          <gpxtpx:TrackPointExtension xmlns:gpxtpx="http://www.garmin.com/xmlschemas/TrackPointExtension/v1">
            <gpxtpx:hr>120</gpxtpx:hr>
          </gpxtpx:TrackPointExtension>
        </extensions>
      </trkpt>
      <trkpt lat="46.16295" lon="6.27421">
        <ele>481.5</ele>
        <time>2021-03-02T12:06:31Z</time>
        <extensions>
          <gpxtpx:TrackPointExtension xmlns:gpxtpx="http://www.garmin.com/xmlschemas/TrackPointExtension/v1">
            <gpxtpx:hr>120</gpxtpx:hr>
          </gpxtpx:TrackPointExtension>
        </extensions>
      </trkpt>
      <trkpt lat="46.16292" lon="6.27429">
        <ele>481.5</ele>
        <time>2021-03-02T12:06:32Z</time>
        <extensions>
          <gpxtpx:TrackPointExtension xmlns:gpxtpx="http://www.garmin.com/xmlschemas/TrackPointExtension/v1">
            <gpxtpx:hr>121</gpxtpx:hr>
          </gpxtpx:TrackPointExtension>
        </extensions>
      </trkpt>
      <trkpt lat="46.16289" lon="6.27438">
        <ele>481.5</ele>
        <time>2021-03-02T12:06:33Z</time>
        <extensions>
          <gpxtpx:TrackPointExtension xmlns:gpxtpx="http://www.garmin.com/xmlschemas/TrackPointExtension/v1">
            <gpxtpx:hr>121</gpxtpx:hr>
          </gpxtpx:TrackPointExtension>
        </extensions>
      </trkpt>
      <trkpt lat="46.16285" lon="6.27447">
        <ele>481.5</ele>
        <time>2021-03-02T12:06:34Z</time>
        <extensions>
          <gpxtpx:TrackPointExtension xmlns:gpxtpx="http://www.garmin.com/xmlschemas/TrackPointExtension/v1">
            <gpxtpx:hr>121</gpxtpx:hr>
          </gpxtpx:TrackPointExtension>
        </extensions>
      </trkpt>
      <trkpt lat="46.16282" lon="6.27455">
        <ele>481.5</ele>
        <time>2021-03-02T12:06:35Z</time>
        <extensions>
          <gpxtpx:TrackPointExtension xmlns:gpxtpx="http://www.garmin.com/xmlschemas/TrackPointExtension/v1">
            <gpxtpx:hr>122</gpxtpx:hr>
          </gpxtpx:TrackPointExtension>
        </extensions>
      </trkpt>
      <trkpt lat="46.16279" lon="6.27464">
        <ele>481.5</ele>
        <time>2021-03-02T12:06:36Z</time>
        <extensions>
          <gpxtpx:TrackPointExtension xmlns:gpxtpx="http://www.garmin.com/xmlschemas/TrackPointExtension/v1">
            <gpxtpx:hr>122</gpxtpx:hr>
          </gpxtpx:TrackPointExtension>
        </extensions>
      </trkpt>
      <trkpt lat="46.16275" lon="6.27473">
        <ele>481.5</ele>
        <time>2021-03-02T12:06:37Z</time>
        <extensions>
          <gpxtpx:TrackPointExtension xmlns:gpxtpx="http://www.garmin.com/xmlschemas/TrackPointExtension/v1">
            <gpxtpx:hr>122</gpxtpx:hr>
          </gpxtpx:TrackPointExtension>
        </extensions>
      </trkpt>
      <trkpt lat="46.16272" lon="6.27481">
        <ele>481.5</ele>
        <time>2021-03-02T12:06:38Z</time>
        <extensions>
          <gpxtpx:TrackPointExtension xmlns:gpxtpx="http://www.garmin.com/xmlschemas/TrackPointExtension/v1">
            <gpxtpx:hr>122</gpxtpx:hr>
          </gpxtpx:TrackPointExtension>
        </extensions>
      </trkpt>
      <trkpt lat="46.16269" lon="6.2749">
        <ele>481.5</ele>
        <time>2021-03-02T12:06:39Z</time>
        <extensions>
          <gpxtpx:TrackPointExtension xmlns:gpxtpx="http://www.garmin.com/xmlschemas/TrackPointExtension/v1">
            <gpxtpx:hr>122</gpxtpx:hr>
          </gpxtpx:TrackPointExtension>
        </extensions>
      </trkpt>
      <trkpt lat="46.16266" lon="6.27499">
        <ele>481.4</ele>
        <time>2021-03-02T12:06:40Z</time>
        <extensions>
          <gpxtpx:TrackPointExtension xmlns:gpxtpx="http://www.garmin.com/xmlschemas/TrackPointExtension/v1">
            <gpxtpx:hr>122</gpxtpx:hr>
          </gpxtpx:TrackPointExtension>
        </extensions>
      </trkpt>
      <trkpt lat="46.16262" lon="6.27508">
        <ele>481.4</ele>
        <time>2021-03-02T12:06:41Z</time>
        <extensions>
          <gpxtpx:TrackPointExtension xmlns:gpxtpx="http://www.garmin.com/xmlschemas/TrackPointExtension/v1">
            <gpxtpx:hr>123</gpxtpx:hr>
          </gpxtpx:TrackPointExtension>
        </extensions>
      </trkpt>
      <trkpt lat="46.16259" lon="6.27517">
        <ele>481.4</ele>
        <time>2021-03-02T12:06:42Z</time>
        <extensions>
          <gpxtpx:TrackPointExtension xmlns:gpxtpx="http://www.garmin.com/xmlschemas/TrackPointExtension/v1">
            <gpxtpx:hr>123</gpxtpx:hr>
          </gpxtpx:TrackPointExtension>
        </extensions>
      </trkpt>
      <trkpt lat="46.16255" lon="6.27527">
        <ele>481.4</ele>
        <time>2021-03-02T12:06:43Z</time>
        <extensions>
          <gpxtpx:TrackPointExtension xmlns:gpxtpx="http://www.garmin.com/xmlschemas/TrackPointExtension/v1">
            <gpxtpx:hr>123</gpxtpx:hr>
          </gpxtpx:TrackPointExtension>
        </extensions>
      </trkpt>
      <trkpt lat="46.16252" lon="6.27536">
        <ele>481.3</ele>
        <time>2021-03-02T12:06:44Z</time>
        <extensions>
          <gpxtpx:TrackPointExtension xmlns:gpxtpx="http://www.garmin.com/xmlschemas/TrackPointExtension/v1">
            <gpxtpx:hr>123</gpxtpx:hr>
          </gpxtpx:TrackPointExtension>
        </extensions>
      </trkpt>
      <trkpt lat="46.16248" lon="6.27545">
        <ele>481.3</ele>
        <time>2021-03-02T12:06:45Z</time>
        <extensions>
          <gpxtpx:TrackPointExtension xmlns:gpxtpx="http://www.garmin.com/xmlschemas/TrackPointExtension/v1">
            <gpxtpx:hr>123</gpxtpx:hr>
          </gpxtpx:TrackPointExtension>
        </extensions>
      </trkpt>
      <trkpt lat="46.16245" lon="6.27554">
        <ele>481.3</ele>
        <time>2021-03-02T12:06:46Z</time>
        <extensions>
          <gpxtpx:TrackPointExtension xmlns:gpxtpx="http://www.garmin.com/xmlschemas/TrackPointExtension/v1">
            <gpxtpx:hr>124</gpxtpx:hr>
          </gpxtpx:TrackPointExtension>
        </extensions>
      </trkpt>
      <trkpt lat="46.16241" lon="6.27563">
        <ele>481.3</ele>
        <time>2021-03-02T12:06:47Z</time>
        <extensions>
          <gpxtpx:TrackPointExtension xmlns:gpxtpx="http://www.garmin.com/xmlschemas/TrackPointExtension/v1">
            <gpxtpx:hr>124</gpxtpx:hr>
          </gpxtpx:TrackPointExtension>
        </extensions>
      </trkpt>
      <trkpt lat="46.16238" lon="6.27572">
        <ele>481.2</ele>
        <time>2021-03-02T12:06:48Z</time>
        <extensions>
          <gpxtpx:TrackPointExtension xmlns:gpxtpx="http://www.garmin.com/xmlschemas/TrackPointExtension/v1">
            <gpxtpx:hr>124</gpxtpx:hr>
          </gpxtpx:TrackPointExtension>
        </extensions>
      </trkpt>
      <trkpt lat="46.16233" lon="6.2758">
        <ele>481.2</ele>
        <time>2021-03-02T12:06:49Z</time>
        <extensions>
          <gpxtpx:TrackPointExtension xmlns:gpxtpx="http://www.garmin.com/xmlschemas/TrackPointExtension/v1">
            <gpxtpx:hr>124</gpxtpx:hr>
          </gpxtpx:TrackPointExtension>
        </extensions>
      </trkpt>
      <trkpt lat="46.16228" lon="6.27587">
        <ele>481.2</ele>
        <time>2021-03-02T12:06:50Z</time>
        <extensions>
          <gpxtpx:TrackPointExtension xmlns:gpxtpx="http://www.garmin.com/xmlschemas/TrackPointExtension/v1">
            <gpxtpx:hr>125</gpxtpx:hr>
          </gpxtpx:TrackPointExtension>
        </extensions>
      </trkpt>
      <trkpt lat="46.16222" lon="6.27592">
        <ele>481.1</ele>
        <time>2021-03-02T12:06:51Z</time>
        <extensions>
          <gpxtpx:TrackPointExtension xmlns:gpxtpx="http://www.garmin.com/xmlschemas/TrackPointExtension/v1">
            <gpxtpx:hr>125</gpxtpx:hr>
          </gpxtpx:TrackPointExtension>
        </extensions>
      </trkpt>
      <trkpt lat="46.16215" lon="6.27592">
        <ele>481.1</ele>
        <time>2021-03-02T12:06:52Z</time>
        <extensions>
          <gpxtpx:TrackPointExtension xmlns:gpxtpx="http://www.garmin.com/xmlschemas/TrackPointExtension/v1">
            <gpxtpx:hr>125</gpxtpx:hr>
          </gpxtpx:TrackPointExtension>
        </extensions>
      </trkpt>
      <trkpt lat="46.16209" lon="6.27589">
        <ele>481</ele>
        <time>2021-03-02T12:06:53Z</time>
        <extensions>
          <gpxtpx:TrackPointExtension xmlns:gpxtpx="http://www.garmin.com/xmlschemas/TrackPointExtension/v1">
            <gpxtpx:hr>125</gpxtpx:hr>
          </gpxtpx:TrackPointExtension>
        </extensions>
      </trkpt>
      <trkpt lat="46.16203" lon="6.27583">
        <ele>481</ele>
        <time>2021-03-02T12:06:54Z</time>
        <extensions>
          <gpxtpx:TrackPointExtension xmlns:gpxtpx="http://www.garmin.com/xmlschemas/TrackPointExtension/v1">
            <gpxtpx:hr>125</gpxtpx:hr>
          </gpxtpx:TrackPointExtension>
        </extensions>
      </trkpt>
      <trkpt lat="46.16198" lon="6.27577">
        <ele>481</ele>
        <time>2021-03-02T12:06:55Z</time>
        <extensions>
          <gpxtpx:TrackPointExtension xmlns:gpxtpx="http://www.garmin.com/xmlschemas/TrackPointExtension/v1">
            <gpxtpx:hr>125</gpxtpx:hr>
          </gpxtpx:TrackPointExtension>
        </extensions>
      </trkpt>
      <trkpt lat="46.16193" lon="6.2757">
        <ele>481</ele>
        <time>2021-03-02T12:06:56Z</time>
        <extensions>
          <gpxtpx:TrackPointExtension xmlns:gpxtpx="http://www.garmin.com/xmlschemas/TrackPointExtension/v1">
            <gpxtpx:hr>125</gpxtpx:hr>
          </gpxtpx:TrackPointExtension>
        </extensions>
      </trkpt>
      <trkpt lat="46.16188" lon="6.27564">
        <ele>480.9</ele>
        <time>2021-03-02T12:06:57Z</time>
        <extensions>
          <gpxtpx:TrackPointExtension xmlns:gpxtpx="http://www.garmin.com/xmlschemas/TrackPointExtension/v1">
            <gpxtpx:hr>125</gpxtpx:hr>
          </gpxtpx:TrackPointExtension>
        </extensions>
      </trkpt>
      <trkpt lat="46.16183" lon="6.27558">
        <ele>480.9</ele>
        <time>2021-03-02T12:06:58Z</time>
        <extensions>
          <gpxtpx:TrackPointExtension xmlns:gpxtpx="http://www.garmin.com/xmlschemas/TrackPointExtension/v1">
            <gpxtpx:hr>125</gpxtpx:hr>
          </gpxtpx:TrackPointExtension>
        </extensions>
      </trkpt>
      <trkpt lat="46.16178" lon="6.27552">
        <ele>480.9</ele>
        <time>2021-03-02T12:06:59Z</time>
        <extensions>
          <gpxtpx:TrackPointExtension xmlns:gpxtpx="http://www.garmin.com/xmlschemas/TrackPointExtension/v1">
            <gpxtpx:hr>124</gpxtpx:hr>
          </gpxtpx:TrackPointExtension>
        </extensions>
      </trkpt>
      <trkpt lat="46.16172" lon="6.27546">
        <ele>480.9</ele>
        <time>2021-03-02T12:07:00Z</time>
        <extensions>
          <gpxtpx:TrackPointExtension xmlns:gpxtpx="http://www.garmin.com/xmlschemas/TrackPointExtension/v1">
            <gpxtpx:hr>123</gpxtpx:hr>
          </gpxtpx:TrackPointExtension>
        </extensions>
      </trkpt>
      <trkpt lat="46.16167" lon="6.27541">
        <ele>480.9</ele>
        <time>2021-03-02T12:07:01Z</time>
        <extensions>
          <gpxtpx:TrackPointExtension xmlns:gpxtpx="http://www.garmin.com/xmlschemas/TrackPointExtension/v1">
            <gpxtpx:hr>123</gpxtpx:hr>
          </gpxtpx:TrackPointExtension>
        </extensions>
      </trkpt>
      <trkpt lat="46.16161" lon="6.27536">
        <ele>480.8</ele>
        <time>2021-03-02T12:07:02Z</time>
        <extensions>
          <gpxtpx:TrackPointExtension xmlns:gpxtpx="http://www.garmin.com/xmlschemas/TrackPointExtension/v1">
            <gpxtpx:hr>123</gpxtpx:hr>
          </gpxtpx:TrackPointExtension>
        </extensions>
      </trkpt>
      <trkpt lat="46.16155" lon="6.27531">
        <ele>480.8</ele>
        <time>2021-03-02T12:07:03Z</time>
        <extensions>
          <gpxtpx:TrackPointExtension xmlns:gpxtpx="http://www.garmin.com/xmlschemas/TrackPointExtension/v1">
            <gpxtpx:hr>123</gpxtpx:hr>
          </gpxtpx:TrackPointExtension>
        </extensions>
      </trkpt>
      <trkpt lat="46.16149" lon="6.27526">
        <ele>480.8</ele>
        <time>2021-03-02T12:07:04Z</time>
        <extensions>
          <gpxtpx:TrackPointExtension xmlns:gpxtpx="http://www.garmin.com/xmlschemas/TrackPointExtension/v1">
            <gpxtpx:hr>123</gpxtpx:hr>
          </gpxtpx:TrackPointExtension>
        </extensions>
      </trkpt>
      <trkpt lat="46.16143" lon="6.27521">
        <ele>480.8</ele>
        <time>2021-03-02T12:07:05Z</time>
        <extensions>
          <gpxtpx:TrackPointExtension xmlns:gpxtpx="http://www.garmin.com/xmlschemas/TrackPointExtension/v1">
            <gpxtpx:hr>123</gpxtpx:hr>
          </gpxtpx:TrackPointExtension>
        </extensions>
      </trkpt>
      <trkpt lat="46.16136" lon="6.27516">
        <ele>480.8</ele>
        <time>2021-03-02T12:07:06Z</time>
        <extensions>
          <gpxtpx:TrackPointExtension xmlns:gpxtpx="http://www.garmin.com/xmlschemas/TrackPointExtension/v1">
            <gpxtpx:hr>124</gpxtpx:hr>
          </gpxtpx:TrackPointExtension>
        </extensions>
      </trkpt>
      <trkpt lat="46.1613" lon="6.27511">
        <ele>480.8</ele>
        <time>2021-03-02T12:07:07Z</time>
        <extensions>
          <gpxtpx:TrackPointExtension xmlns:gpxtpx="http://www.garmin.com/xmlschemas/TrackPointExtension/v1">
            <gpxtpx:hr>124</gpxtpx:hr>
          </gpxtpx:TrackPointExtension>
        </extensions>
      </trkpt>
      <trkpt lat="46.16123" lon="6.27507">
        <ele>480.8</ele>
        <time>2021-03-02T12:07:08Z</time>
        <extensions>
          <gpxtpx:TrackPointExtension xmlns:gpxtpx="http://www.garmin.com/xmlschemas/TrackPointExtension/v1">
            <gpxtpx:hr>124</gpxtpx:hr>
          </gpxtpx:TrackPointExtension>
        </extensions>
      </trkpt>
      <trkpt lat="46.16117" lon="6.27502">
        <ele>480.8</ele>
        <time>2021-03-02T12:07:09Z</time>
        <extensions>
          <gpxtpx:TrackPointExtension xmlns:gpxtpx="http://www.garmin.com/xmlschemas/TrackPointExtension/v1">
            <gpxtpx:hr>124</gpxtpx:hr>
          </gpxtpx:TrackPointExtension>
        </extensions>
      </trkpt>
      <trkpt lat="46.1611" lon="6.27496">
        <ele>480.8</ele>
        <time>2021-03-02T12:07:10Z</time>
        <extensions>
          <gpxtpx:TrackPointExtension xmlns:gpxtpx="http://www.garmin.com/xmlschemas/TrackPointExtension/v1">
            <gpxtpx:hr>124</gpxtpx:hr>
          </gpxtpx:TrackPointExtension>
        </extensions>
      </trkpt>
      <trkpt lat="46.16103" lon="6.27491">
        <ele>480.7</ele>
        <time>2021-03-02T12:07:11Z</time>
        <extensions>
          <gpxtpx:TrackPointExtension xmlns:gpxtpx="http://www.garmin.com/xmlschemas/TrackPointExtension/v1">
            <gpxtpx:hr>125</gpxtpx:hr>
          </gpxtpx:TrackPointExtension>
        </extensions>
      </trkpt>
      <trkpt lat="46.16096" lon="6.27486">
        <ele>480.7</ele>
        <time>2021-03-02T12:07:12Z</time>
        <extensions>
          <gpxtpx:TrackPointExtension xmlns:gpxtpx="http://www.garmin.com/xmlschemas/TrackPointExtension/v1">
            <gpxtpx:hr>125</gpxtpx:hr>
          </gpxtpx:TrackPointExtension>
        </extensions>
      </trkpt>
      <trkpt lat="46.1609" lon="6.27481">
        <ele>480.7</ele>
        <time>2021-03-02T12:07:13Z</time>
        <extensions>
          <gpxtpx:TrackPointExtension xmlns:gpxtpx="http://www.garmin.com/xmlschemas/TrackPointExtension/v1">
            <gpxtpx:hr>126</gpxtpx:hr>
          </gpxtpx:TrackPointExtension>
        </extensions>
      </trkpt>
      <trkpt lat="46.16083" lon="6.27476">
        <ele>480.7</ele>
        <time>2021-03-02T12:07:14Z</time>
        <extensions>
          <gpxtpx:TrackPointExtension xmlns:gpxtpx="http://www.garmin.com/xmlschemas/TrackPointExtension/v1">
            <gpxtpx:hr>127</gpxtpx:hr>
          </gpxtpx:TrackPointExtension>
        </extensions>
      </trkpt>
      <trkpt lat="46.16076" lon="6.27471">
        <ele>480.7</ele>
        <time>2021-03-02T12:07:15Z</time>
        <extensions>
          <gpxtpx:TrackPointExtension xmlns:gpxtpx="http://www.garmin.com/xmlschemas/TrackPointExtension/v1">
            <gpxtpx:hr>128</gpxtpx:hr>
          </gpxtpx:TrackPointExtension>
        </extensions>
      </trkpt>
      <trkpt lat="46.16069" lon="6.27466">
        <ele>480.6</ele>
        <time>2021-03-02T12:07:16Z</time>
        <extensions>
          <gpxtpx:TrackPointExtension xmlns:gpxtpx="http://www.garmin.com/xmlschemas/TrackPointExtension/v1">
            <gpxtpx:hr>129</gpxtpx:hr>
          </gpxtpx:TrackPointExtension>
        </extensions>
      </trkpt>
      <trkpt lat="46.16062" lon="6.2746">
        <ele>480.6</ele>
        <time>2021-03-02T12:07:17Z</time>
        <extensions>
          <gpxtpx:TrackPointExtension xmlns:gpxtpx="http://www.garmin.com/xmlschemas/TrackPointExtension/v1">
            <gpxtpx:hr>130</gpxtpx:hr>
          </gpxtpx:TrackPointExtension>
        </extensions>
      </trkpt>
      <trkpt lat="46.16055" lon="6.27455">
        <ele>480.6</ele>
        <time>2021-03-02T12:07:18Z</time>
        <extensions>
          <gpxtpx:TrackPointExtension xmlns:gpxtpx="http://www.garmin.com/xmlschemas/TrackPointExtension/v1">
            <gpxtpx:hr>131</gpxtpx:hr>
          </gpxtpx:TrackPointExtension>
        </extensions>
      </trkpt>
      <trkpt lat="46.16048" lon="6.2745">
        <ele>480.5</ele>
        <time>2021-03-02T12:07:19Z</time>
        <extensions>
          <gpxtpx:TrackPointExtension xmlns:gpxtpx="http://www.garmin.com/xmlschemas/TrackPointExtension/v1">
            <gpxtpx:hr>132</gpxtpx:hr>
          </gpxtpx:TrackPointExtension>
        </extensions>
      </trkpt>
      <trkpt lat="46.16041" lon="6.27444">
        <ele>480.5</ele>
        <time>2021-03-02T12:07:20Z</time>
        <extensions>
          <gpxtpx:TrackPointExtension xmlns:gpxtpx="http://www.garmin.com/xmlschemas/TrackPointExtension/v1">
            <gpxtpx:hr>132</gpxtpx:hr>
          </gpxtpx:TrackPointExtension>
        </extensions>
      </trkpt>
      <trkpt lat="46.16034" lon="6.27438">
        <ele>480.5</ele>
        <time>2021-03-02T12:07:21Z</time>
        <extensions>
          <gpxtpx:TrackPointExtension xmlns:gpxtpx="http://www.garmin.com/xmlschemas/TrackPointExtension/v1">
            <gpxtpx:hr>133</gpxtpx:hr>
          </gpxtpx:TrackPointExtension>
        </extensions>
      </trkpt>
      <trkpt lat="46.16028" lon="6.27432">
        <ele>480.4</ele>
        <time>2021-03-02T12:07:22Z</time>
        <extensions>
          <gpxtpx:TrackPointExtension xmlns:gpxtpx="http://www.garmin.com/xmlschemas/TrackPointExtension/v1">
            <gpxtpx:hr>134</gpxtpx:hr>
          </gpxtpx:TrackPointExtension>
        </extensions>
      </trkpt>
      <trkpt lat="46.16022" lon="6.27425">
        <ele>480.3</ele>
        <time>2021-03-02T12:07:23Z</time>
        <extensions>
          <gpxtpx:TrackPointExtension xmlns:gpxtpx="http://www.garmin.com/xmlschemas/TrackPointExtension/v1">
            <gpxtpx:hr>134</gpxtpx:hr>
          </gpxtpx:TrackPointExtension>
        </extensions>
      </trkpt>
      <trkpt lat="46.16015" lon="6.27418">
        <ele>480.3</ele>
        <time>2021-03-02T12:07:24Z</time>
        <extensions>
          <gpxtpx:TrackPointExtension xmlns:gpxtpx="http://www.garmin.com/xmlschemas/TrackPointExtension/v1">
            <gpxtpx:hr>135</gpxtpx:hr>
          </gpxtpx:TrackPointExtension>
        </extensions>
      </trkpt>
      <trkpt lat="46.16009" lon="6.27411">
        <ele>480.2</ele>
        <time>2021-03-02T12:07:25Z</time>
        <extensions>
          <gpxtpx:TrackPointExtension xmlns:gpxtpx="http://www.garmin.com/xmlschemas/TrackPointExtension/v1">
            <gpxtpx:hr>136</gpxtpx:hr>
          </gpxtpx:TrackPointExtension>
        </extensions>
      </trkpt>
      <trkpt lat="46.16004" lon="6.27403">
        <ele>480.1</ele>
        <time>2021-03-02T12:07:26Z</time>
        <extensions>
          <gpxtpx:TrackPointExtension xmlns:gpxtpx="http://www.garmin.com/xmlschemas/TrackPointExtension/v1">
            <gpxtpx:hr>136</gpxtpx:hr>
          </gpxtpx:TrackPointExtension>
        </extensions>
      </trkpt>
      <trkpt lat="46.15999" lon="6.27395">
        <ele>479.8</ele>
        <time>2021-03-02T12:07:27Z</time>
        <extensions>
          <gpxtpx:TrackPointExtension xmlns:gpxtpx="http://www.garmin.com/xmlschemas/TrackPointExtension/v1">
            <gpxtpx:hr>137</gpxtpx:hr>
          </gpxtpx:TrackPointExtension>
        </extensions>
      </trkpt>
      <trkpt lat="46.15995" lon="6.27386">
        <ele>479.6</ele>
        <time>2021-03-02T12:07:28Z</time>
        <extensions>
          <gpxtpx:TrackPointExtension xmlns:gpxtpx="http://www.garmin.com/xmlschemas/TrackPointExtension/v1">
            <gpxtpx:hr>137</gpxtpx:hr>
          </gpxtpx:TrackPointExtension>
        </extensions>
      </trkpt>
      <trkpt lat="46.1599" lon="6.27377">
        <ele>479.4</ele>
        <time>2021-03-02T12:07:29Z</time>
        <extensions>
          <gpxtpx:TrackPointExtension xmlns:gpxtpx="http://www.garmin.com/xmlschemas/TrackPointExtension/v1">
            <gpxtpx:hr>137</gpxtpx:hr>
          </gpxtpx:TrackPointExtension>
        </extensions>
      </trkpt>
      <trkpt lat="46.15986" lon="6.27367">
        <ele>479.2</ele>
        <time>2021-03-02T12:07:30Z</time>
        <extensions>
          <gpxtpx:TrackPointExtension xmlns:gpxtpx="http://www.garmin.com/xmlschemas/TrackPointExtension/v1">
            <gpxtpx:hr>137</gpxtpx:hr>
          </gpxtpx:TrackPointExtension>
        </extensions>
      </trkpt>
      <trkpt lat="46.15982" lon="6.27357">
        <ele>479.1</ele>
        <time>2021-03-02T12:07:31Z</time>
        <extensions>
          <gpxtpx:TrackPointExtension xmlns:gpxtpx="http://www.garmin.com/xmlschemas/TrackPointExtension/v1">
            <gpxtpx:hr>137</gpxtpx:hr>
          </gpxtpx:TrackPointExtension>
        </extensions>
      </trkpt>
      <trkpt lat="46.15978" lon="6.27347">
        <ele>478.9</ele>
        <time>2021-03-02T12:07:32Z</time>
        <extensions>
          <gpxtpx:TrackPointExtension xmlns:gpxtpx="http://www.garmin.com/xmlschemas/TrackPointExtension/v1">
            <gpxtpx:hr>137</gpxtpx:hr>
          </gpxtpx:TrackPointExtension>
        </extensions>
      </trkpt>
      <trkpt lat="46.15974" lon="6.27336">
        <ele>478.7</ele>
        <time>2021-03-02T12:07:33Z</time>
        <extensions>
          <gpxtpx:TrackPointExtension xmlns:gpxtpx="http://www.garmin.com/xmlschemas/TrackPointExtension/v1">
            <gpxtpx:hr>136</gpxtpx:hr>
          </gpxtpx:TrackPointExtension>
        </extensions>
      </trkpt>
      <trkpt lat="46.15969" lon="6.27326">
        <ele>478.4</ele>
        <time>2021-03-02T12:07:34Z</time>
        <extensions>
          <gpxtpx:TrackPointExtension xmlns:gpxtpx="http://www.garmin.com/xmlschemas/TrackPointExtension/v1">
            <gpxtpx:hr>136</gpxtpx:hr>
          </gpxtpx:TrackPointExtension>
        </extensions>
      </trkpt>
      <trkpt lat="46.15965" lon="6.27314">
        <ele>478</ele>
        <time>2021-03-02T12:07:35Z</time>
        <extensions>
          <gpxtpx:TrackPointExtension xmlns:gpxtpx="http://www.garmin.com/xmlschemas/TrackPointExtension/v1">
            <gpxtpx:hr>136</gpxtpx:hr>
          </gpxtpx:TrackPointExtension>
        </extensions>
      </trkpt>
      <trkpt lat="46.1596" lon="6.27302">
        <ele>477.7</ele>
        <time>2021-03-02T12:07:36Z</time>
        <extensions>
          <gpxtpx:TrackPointExtension xmlns:gpxtpx="http://www.garmin.com/xmlschemas/TrackPointExtension/v1">
            <gpxtpx:hr>135</gpxtpx:hr>
          </gpxtpx:TrackPointExtension>
        </extensions>
      </trkpt>
      <trkpt lat="46.15955" lon="6.2729">
        <ele>477.4</ele>
        <time>2021-03-02T12:07:37Z</time>
        <extensions>
          <gpxtpx:TrackPointExtension xmlns:gpxtpx="http://www.garmin.com/xmlschemas/TrackPointExtension/v1">
            <gpxtpx:hr>135</gpxtpx:hr>
          </gpxtpx:TrackPointExtension>
        </extensions>
      </trkpt>
      <trkpt lat="46.15951" lon="6.27279">
        <ele>477.3</ele>
        <time>2021-03-02T12:07:38Z</time>
        <extensions>
          <gpxtpx:TrackPointExtension xmlns:gpxtpx="http://www.garmin.com/xmlschemas/TrackPointExtension/v1">
            <gpxtpx:hr>135</gpxtpx:hr>
          </gpxtpx:TrackPointExtension>
        </extensions>
      </trkpt>
      <trkpt lat="46.15947" lon="6.27267">
        <ele>477.3</ele>
        <time>2021-03-02T12:07:39Z</time>
        <extensions>
          <gpxtpx:TrackPointExtension xmlns:gpxtpx="http://www.garmin.com/xmlschemas/TrackPointExtension/v1">
            <gpxtpx:hr>134</gpxtpx:hr>
          </gpxtpx:TrackPointExtension>
        </extensions>
      </trkpt>
      <trkpt lat="46.15942" lon="6.27253">
        <ele>477.3</ele>
        <time>2021-03-02T12:07:40Z</time>
        <extensions>
          <gpxtpx:TrackPointExtension xmlns:gpxtpx="http://www.garmin.com/xmlschemas/TrackPointExtension/v1">
            <gpxtpx:hr>134</gpxtpx:hr>
          </gpxtpx:TrackPointExtension>
        </extensions>
      </trkpt>
      <trkpt lat="46.15937" lon="6.27241">
        <ele>477.3</ele>
        <time>2021-03-02T12:07:41Z</time>
        <extensions>
          <gpxtpx:TrackPointExtension xmlns:gpxtpx="http://www.garmin.com/xmlschemas/TrackPointExtension/v1">
            <gpxtpx:hr>134</gpxtpx:hr>
          </gpxtpx:TrackPointExtension>
        </extensions>
      </trkpt>
      <trkpt lat="46.15931" lon="6.27231">
        <ele>477.4</ele>
        <time>2021-03-02T12:07:42Z</time>
        <extensions>
          <gpxtpx:TrackPointExtension xmlns:gpxtpx="http://www.garmin.com/xmlschemas/TrackPointExtension/v1">
            <gpxtpx:hr>134</gpxtpx:hr>
          </gpxtpx:TrackPointExtension>
        </extensions>
      </trkpt>
      <trkpt lat="46.15927" lon="6.2722">
        <ele>477.5</ele>
        <time>2021-03-02T12:07:43Z</time>
        <extensions>
          <gpxtpx:TrackPointExtension xmlns:gpxtpx="http://www.garmin.com/xmlschemas/TrackPointExtension/v1">
            <gpxtpx:hr>134</gpxtpx:hr>
          </gpxtpx:TrackPointExtension>
        </extensions>
      </trkpt>
      <trkpt lat="46.15923" lon="6.27211">
        <ele>477.7</ele>
        <time>2021-03-02T12:07:44Z</time>
        <extensions>
          <gpxtpx:TrackPointExtension xmlns:gpxtpx="http://www.garmin.com/xmlschemas/TrackPointExtension/v1">
            <gpxtpx:hr>134</gpxtpx:hr>
          </gpxtpx:TrackPointExtension>
        </extensions>
      </trkpt>
      <trkpt lat="46.1592" lon="6.27203">
        <ele>477.8</ele>
        <time>2021-03-02T12:07:45Z</time>
        <extensions>
          <gpxtpx:TrackPointExtension xmlns:gpxtpx="http://www.garmin.com/xmlschemas/TrackPointExtension/v1">
            <gpxtpx:hr>134</gpxtpx:hr>
          </gpxtpx:TrackPointExtension>
        </extensions>
      </trkpt>
      <trkpt lat="46.15917" lon="6.27195">
        <ele>477.9</ele>
        <time>2021-03-02T12:07:46Z</time>
        <extensions>
          <gpxtpx:TrackPointExtension xmlns:gpxtpx="http://www.garmin.com/xmlschemas/TrackPointExtension/v1">
            <gpxtpx:hr>134</gpxtpx:hr>
          </gpxtpx:TrackPointExtension>
        </extensions>
      </trkpt>
      <trkpt lat="46.15914" lon="6.27188">
        <ele>478</ele>
        <time>2021-03-02T12:07:47Z</time>
        <extensions>
          <gpxtpx:TrackPointExtension xmlns:gpxtpx="http://www.garmin.com/xmlschemas/TrackPointExtension/v1">
            <gpxtpx:hr>134</gpxtpx:hr>
          </gpxtpx:TrackPointExtension>
        </extensions>
      </trkpt>
      <trkpt lat="46.15912" lon="6.27181">
        <ele>478</ele>
        <time>2021-03-02T12:07:48Z</time>
        <extensions>
          <gpxtpx:TrackPointExtension xmlns:gpxtpx="http://www.garmin.com/xmlschemas/TrackPointExtension/v1">
            <gpxtpx:hr>134</gpxtpx:hr>
          </gpxtpx:TrackPointExtension>
        </extensions>
      </trkpt>
      <trkpt lat="46.15909" lon="6.27175">
        <ele>478.1</ele>
        <time>2021-03-02T12:07:49Z</time>
        <extensions>
          <gpxtpx:TrackPointExtension xmlns:gpxtpx="http://www.garmin.com/xmlschemas/TrackPointExtension/v1">
            <gpxtpx:hr>134</gpxtpx:hr>
          </gpxtpx:TrackPointExtension>
        </extensions>
      </trkpt>
      <trkpt lat="46.15907" lon="6.2717">
        <ele>478.2</ele>
        <time>2021-03-02T12:07:50Z</time>
        <extensions>
          <gpxtpx:TrackPointExtension xmlns:gpxtpx="http://www.garmin.com/xmlschemas/TrackPointExtension/v1">
            <gpxtpx:hr>133</gpxtpx:hr>
          </gpxtpx:TrackPointExtension>
        </extensions>
      </trkpt>
      <trkpt lat="46.15905" lon="6.27166">
        <ele>478.2</ele>
        <time>2021-03-02T12:07:51Z</time>
        <extensions>
          <gpxtpx:TrackPointExtension xmlns:gpxtpx="http://www.garmin.com/xmlschemas/TrackPointExtension/v1">
            <gpxtpx:hr>133</gpxtpx:hr>
          </gpxtpx:TrackPointExtension>
        </extensions>
      </trkpt>
      <trkpt lat="46.15904" lon="6.27163">
        <ele>478.2</ele>
        <time>2021-03-02T12:07:52Z</time>
        <extensions>
          <gpxtpx:TrackPointExtension xmlns:gpxtpx="http://www.garmin.com/xmlschemas/TrackPointExtension/v1">
            <gpxtpx:hr>133</gpxtpx:hr>
          </gpxtpx:TrackPointExtension>
        </extensions>
      </trkpt>
      <trkpt lat="46.15903" lon="6.27161">
        <ele>478.3</ele>
        <time>2021-03-02T12:07:53Z</time>
        <extensions>
          <gpxtpx:TrackPointExtension xmlns:gpxtpx="http://www.garmin.com/xmlschemas/TrackPointExtension/v1">
            <gpxtpx:hr>133</gpxtpx:hr>
          </gpxtpx:TrackPointExtension>
        </extensions>
      </trkpt>
      <trkpt lat="46.15903" lon="6.27161">
        <ele>478.3</ele>
        <time>2021-03-02T12:07:54Z</time>
        <extensions>
          <gpxtpx:TrackPointExtension xmlns:gpxtpx="http://www.garmin.com/xmlschemas/TrackPointExtension/v1">
            <gpxtpx:hr>132</gpxtpx:hr>
          </gpxtpx:TrackPointExtension>
        </extensions>
      </trkpt>
      <trkpt lat="46.15903" lon="6.27161">
        <ele>478.3</ele>
        <time>2021-03-02T12:07:55Z</time>
        <extensions>
          <gpxtpx:TrackPointExtension xmlns:gpxtpx="http://www.garmin.com/xmlschemas/TrackPointExtension/v1">
            <gpxtpx:hr>132</gpxtpx:hr>
          </gpxtpx:TrackPointExtension>
        </extensions>
      </trkpt>
      <trkpt lat="46.15903" lon="6.27161">
        <ele>478.3</ele>
        <time>2021-03-02T12:07:56Z</time>
        <extensions>
          <gpxtpx:TrackPointExtension xmlns:gpxtpx="http://www.garmin.com/xmlschemas/TrackPointExtension/v1">
            <gpxtpx:hr>132</gpxtpx:hr>
          </gpxtpx:TrackPointExtension>
        </extensions>
      </trkpt>
      <trkpt lat="46.15903" lon="6.27161">
        <ele>478.3</ele>
        <time>2021-03-02T12:07:57Z</time>
        <extensions>
          <gpxtpx:TrackPointExtension xmlns:gpxtpx="http://www.garmin.com/xmlschemas/TrackPointExtension/v1">
            <gpxtpx:hr>129</gpxtpx:hr>
          </gpxtpx:TrackPointExtension>
        </extensions>
      </trkpt>
      <trkpt lat="46.15903" lon="6.2716">
        <ele>478.3</ele>
        <time>2021-03-02T12:08:00Z</time>
        <extensions>
          <gpxtpx:TrackPointExtension xmlns:gpxtpx="http://www.garmin.com/xmlschemas/TrackPointExtension/v1">
            <gpxtpx:hr>129</gpxtpx:hr>
          </gpxtpx:TrackPointExtension>
        </extensions>
      </trkpt>
      <trkpt lat="46.15902" lon="6.27159">
        <ele>478.3</ele>
        <time>2021-03-02T12:08:01Z</time>
        <extensions>
          <gpxtpx:TrackPointExtension xmlns:gpxtpx="http://www.garmin.com/xmlschemas/TrackPointExtension/v1">
            <gpxtpx:hr>128</gpxtpx:hr>
          </gpxtpx:TrackPointExtension>
        </extensions>
      </trkpt>
      <trkpt lat="46.15901" lon="6.27158">
        <ele>478.3</ele>
        <time>2021-03-02T12:08:02Z</time>
        <extensions>
          <gpxtpx:TrackPointExtension xmlns:gpxtpx="http://www.garmin.com/xmlschemas/TrackPointExtension/v1">
            <gpxtpx:hr>127</gpxtpx:hr>
          </gpxtpx:TrackPointExtension>
        </extensions>
      </trkpt>
      <trkpt lat="46.159" lon="6.27156">
        <ele>478.3</ele>
        <time>2021-03-02T12:08:03Z</time>
        <extensions>
          <gpxtpx:TrackPointExtension xmlns:gpxtpx="http://www.garmin.com/xmlschemas/TrackPointExtension/v1">
            <gpxtpx:hr>126</gpxtpx:hr>
          </gpxtpx:TrackPointExtension>
        </extensions>
      </trkpt>
      <trkpt lat="46.15898" lon="6.27153">
        <ele>478.4</ele>
        <time>2021-03-02T12:08:04Z</time>
        <extensions>
          <gpxtpx:TrackPointExtension xmlns:gpxtpx="http://www.garmin.com/xmlschemas/TrackPointExtension/v1">
            <gpxtpx:hr>125</gpxtpx:hr>
          </gpxtpx:TrackPointExtension>
        </extensions>
      </trkpt>
      <trkpt lat="46.15896" lon="6.27149">
        <ele>478.4</ele>
        <time>2021-03-02T12:08:05Z</time>
        <extensions>
          <gpxtpx:TrackPointExtension xmlns:gpxtpx="http://www.garmin.com/xmlschemas/TrackPointExtension/v1">
            <gpxtpx:hr>124</gpxtpx:hr>
          </gpxtpx:TrackPointExtension>
        </extensions>
      </trkpt>
      <trkpt lat="46.15894" lon="6.27145">
        <ele>478.5</ele>
        <time>2021-03-02T12:08:06Z</time>
        <extensions>
          <gpxtpx:TrackPointExtension xmlns:gpxtpx="http://www.garmin.com/xmlschemas/TrackPointExtension/v1">
            <gpxtpx:hr>124</gpxtpx:hr>
          </gpxtpx:TrackPointExtension>
        </extensions>
      </trkpt>
      <trkpt lat="46.15891" lon="6.2714">
        <ele>478.6</ele>
        <time>2021-03-02T12:08:07Z</time>
        <extensions>
          <gpxtpx:TrackPointExtension xmlns:gpxtpx="http://www.garmin.com/xmlschemas/TrackPointExtension/v1">
            <gpxtpx:hr>123</gpxtpx:hr>
          </gpxtpx:TrackPointExtension>
        </extensions>
      </trkpt>
      <trkpt lat="46.15887" lon="6.27136">
        <ele>478.6</ele>
        <time>2021-03-02T12:08:08Z</time>
        <extensions>
          <gpxtpx:TrackPointExtension xmlns:gpxtpx="http://www.garmin.com/xmlschemas/TrackPointExtension/v1">
            <gpxtpx:hr>122</gpxtpx:hr>
          </gpxtpx:TrackPointExtension>
        </extensions>
      </trkpt>
      <trkpt lat="46.15883" lon="6.27131">
        <ele>478.6</ele>
        <time>2021-03-02T12:08:09Z</time>
        <extensions>
          <gpxtpx:TrackPointExtension xmlns:gpxtpx="http://www.garmin.com/xmlschemas/TrackPointExtension/v1">
            <gpxtpx:hr>121</gpxtpx:hr>
          </gpxtpx:TrackPointExtension>
        </extensions>
      </trkpt>
      <trkpt lat="46.15879" lon="6.27126">
        <ele>478.7</ele>
        <time>2021-03-02T12:08:10Z</time>
        <extensions>
          <gpxtpx:TrackPointExtension xmlns:gpxtpx="http://www.garmin.com/xmlschemas/TrackPointExtension/v1">
            <gpxtpx:hr>121</gpxtpx:hr>
          </gpxtpx:TrackPointExtension>
        </extensions>
      </trkpt>
      <trkpt lat="46.15874" lon="6.27122">
        <ele>478.7</ele>
        <time>2021-03-02T12:08:11Z</time>
        <extensions>
          <gpxtpx:TrackPointExtension xmlns:gpxtpx="http://www.garmin.com/xmlschemas/TrackPointExtension/v1">
            <gpxtpx:hr>120</gpxtpx:hr>
          </gpxtpx:TrackPointExtension>
        </extensions>
      </trkpt>
      <trkpt lat="46.15869" lon="6.27117">
        <ele>478.7</ele>
        <time>2021-03-02T12:08:12Z</time>
        <extensions>
          <gpxtpx:TrackPointExtension xmlns:gpxtpx="http://www.garmin.com/xmlschemas/TrackPointExtension/v1">
            <gpxtpx:hr>121</gpxtpx:hr>
          </gpxtpx:TrackPointExtension>
        </extensions>
      </trkpt>
      <trkpt lat="46.15864" lon="6.27112">
        <ele>478.7</ele>
        <time>2021-03-02T12:08:13Z</time>
        <extensions>
          <gpxtpx:TrackPointExtension xmlns:gpxtpx="http://www.garmin.com/xmlschemas/TrackPointExtension/v1">
            <gpxtpx:hr>121</gpxtpx:hr>
          </gpxtpx:TrackPointExtension>
        </extensions>
      </trkpt>
      <trkpt lat="46.15859" lon="6.27107">
        <ele>478.8</ele>
        <time>2021-03-02T12:08:14Z</time>
        <extensions>
          <gpxtpx:TrackPointExtension xmlns:gpxtpx="http://www.garmin.com/xmlschemas/TrackPointExtension/v1">
            <gpxtpx:hr>121</gpxtpx:hr>
          </gpxtpx:TrackPointExtension>
        </extensions>
      </trkpt>
      <trkpt lat="46.15854" lon="6.27101">
        <ele>478.8</ele>
        <time>2021-03-02T12:08:15Z</time>
        <extensions>
          <gpxtpx:TrackPointExtension xmlns:gpxtpx="http://www.garmin.com/xmlschemas/TrackPointExtension/v1">
            <gpxtpx:hr>121</gpxtpx:hr>
          </gpxtpx:TrackPointExtension>
        </extensions>
      </trkpt>
      <trkpt lat="46.15849" lon="6.27095">
        <ele>478.8</ele>
        <time>2021-03-02T12:08:16Z</time>
        <extensions>
          <gpxtpx:TrackPointExtension xmlns:gpxtpx="http://www.garmin.com/xmlschemas/TrackPointExtension/v1">
            <gpxtpx:hr>122</gpxtpx:hr>
          </gpxtpx:TrackPointExtension>
        </extensions>
      </trkpt>
      <trkpt lat="46.15843" lon="6.27089">
        <ele>478.7</ele>
        <time>2021-03-02T12:08:17Z</time>
        <extensions>
          <gpxtpx:TrackPointExtension xmlns:gpxtpx="http://www.garmin.com/xmlschemas/TrackPointExtension/v1">
            <gpxtpx:hr>122</gpxtpx:hr>
          </gpxtpx:TrackPointExtension>
        </extensions>
      </trkpt>
      <trkpt lat="46.15838" lon="6.27084">
        <ele>478.7</ele>
        <time>2021-03-02T12:08:18Z</time>
        <extensions>
          <gpxtpx:TrackPointExtension xmlns:gpxtpx="http://www.garmin.com/xmlschemas/TrackPointExtension/v1">
            <gpxtpx:hr>122</gpxtpx:hr>
          </gpxtpx:TrackPointExtension>
        </extensions>
      </trkpt>
      <trkpt lat="46.15832" lon="6.27078">
        <ele>478.7</ele>
        <time>2021-03-02T12:08:19Z</time>
        <extensions>
          <gpxtpx:TrackPointExtension xmlns:gpxtpx="http://www.garmin.com/xmlschemas/TrackPointExtension/v1">
            <gpxtpx:hr>122</gpxtpx:hr>
          </gpxtpx:TrackPointExtension>
        </extensions>
      </trkpt>
      <trkpt lat="46.15827" lon="6.27072">
        <ele>478.7</ele>
        <time>2021-03-02T12:08:20Z</time>
        <extensions>
          <gpxtpx:TrackPointExtension xmlns:gpxtpx="http://www.garmin.com/xmlschemas/TrackPointExtension/v1">
            <gpxtpx:hr>123</gpxtpx:hr>
          </gpxtpx:TrackPointExtension>
        </extensions>
      </trkpt>
      <trkpt lat="46.15821" lon="6.27066">
        <ele>478.7</ele>
        <time>2021-03-02T12:08:21Z</time>
        <extensions>
          <gpxtpx:TrackPointExtension xmlns:gpxtpx="http://www.garmin.com/xmlschemas/TrackPointExtension/v1">
            <gpxtpx:hr>123</gpxtpx:hr>
          </gpxtpx:TrackPointExtension>
        </extensions>
      </trkpt>
      <trkpt lat="46.15815" lon="6.2706">
        <ele>478.7</ele>
        <time>2021-03-02T12:08:22Z</time>
        <extensions>
          <gpxtpx:TrackPointExtension xmlns:gpxtpx="http://www.garmin.com/xmlschemas/TrackPointExtension/v1">
            <gpxtpx:hr>123</gpxtpx:hr>
          </gpxtpx:TrackPointExtension>
        </extensions>
      </trkpt>
      <trkpt lat="46.15809" lon="6.27054">
        <ele>478.7</ele>
        <time>2021-03-02T12:08:23Z</time>
        <extensions>
          <gpxtpx:TrackPointExtension xmlns:gpxtpx="http://www.garmin.com/xmlschemas/TrackPointExtension/v1">
            <gpxtpx:hr>124</gpxtpx:hr>
          </gpxtpx:TrackPointExtension>
        </extensions>
      </trkpt>
      <trkpt lat="46.15803" lon="6.27048">
        <ele>478.7</ele>
        <time>2021-03-02T12:08:24Z</time>
        <extensions>
          <gpxtpx:TrackPointExtension xmlns:gpxtpx="http://www.garmin.com/xmlschemas/TrackPointExtension/v1">
            <gpxtpx:hr>125</gpxtpx:hr>
          </gpxtpx:TrackPointExtension>
        </extensions>
      </trkpt>
      <trkpt lat="46.15797" lon="6.27042">
        <ele>478.7</ele>
        <time>2021-03-02T12:08:25Z</time>
        <extensions>
          <gpxtpx:TrackPointExtension xmlns:gpxtpx="http://www.garmin.com/xmlschemas/TrackPointExtension/v1">
            <gpxtpx:hr>125</gpxtpx:hr>
          </gpxtpx:TrackPointExtension>
        </extensions>
      </trkpt>
      <trkpt lat="46.15791" lon="6.27035">
        <ele>478.7</ele>
        <time>2021-03-02T12:08:26Z</time>
        <extensions>
          <gpxtpx:TrackPointExtension xmlns:gpxtpx="http://www.garmin.com/xmlschemas/TrackPointExtension/v1">
            <gpxtpx:hr>127</gpxtpx:hr>
          </gpxtpx:TrackPointExtension>
        </extensions>
      </trkpt>
      <trkpt lat="46.15785" lon="6.27029">
        <ele>478.6</ele>
        <time>2021-03-02T12:08:27Z</time>
        <extensions>
          <gpxtpx:TrackPointExtension xmlns:gpxtpx="http://www.garmin.com/xmlschemas/TrackPointExtension/v1">
            <gpxtpx:hr>128</gpxtpx:hr>
          </gpxtpx:TrackPointExtension>
        </extensions>
      </trkpt>
      <trkpt lat="46.15779" lon="6.27023">
        <ele>478.6</ele>
        <time>2021-03-02T12:08:28Z</time>
        <extensions>
          <gpxtpx:TrackPointExtension xmlns:gpxtpx="http://www.garmin.com/xmlschemas/TrackPointExtension/v1">
            <gpxtpx:hr>129</gpxtpx:hr>
          </gpxtpx:TrackPointExtension>
        </extensions>
      </trkpt>
      <trkpt lat="46.15773" lon="6.27016">
        <ele>478.6</ele>
        <time>2021-03-02T12:08:29Z</time>
        <extensions>
          <gpxtpx:TrackPointExtension xmlns:gpxtpx="http://www.garmin.com/xmlschemas/TrackPointExtension/v1">
            <gpxtpx:hr>130</gpxtpx:hr>
          </gpxtpx:TrackPointExtension>
        </extensions>
      </trkpt>
      <trkpt lat="46.15766" lon="6.2701">
        <ele>478.5</ele>
        <time>2021-03-02T12:08:30Z</time>
        <extensions>
          <gpxtpx:TrackPointExtension xmlns:gpxtpx="http://www.garmin.com/xmlschemas/TrackPointExtension/v1">
            <gpxtpx:hr>132</gpxtpx:hr>
          </gpxtpx:TrackPointExtension>
        </extensions>
      </trkpt>
      <trkpt lat="46.1576" lon="6.27003">
        <ele>478.4</ele>
        <time>2021-03-02T12:08:31Z</time>
        <extensions>
          <gpxtpx:TrackPointExtension xmlns:gpxtpx="http://www.garmin.com/xmlschemas/TrackPointExtension/v1">
            <gpxtpx:hr>133</gpxtpx:hr>
          </gpxtpx:TrackPointExtension>
        </extensions>
      </trkpt>
      <trkpt lat="46.15753" lon="6.26997">
        <ele>478.3</ele>
        <time>2021-03-02T12:08:32Z</time>
        <extensions>
          <gpxtpx:TrackPointExtension xmlns:gpxtpx="http://www.garmin.com/xmlschemas/TrackPointExtension/v1">
            <gpxtpx:hr>133</gpxtpx:hr>
          </gpxtpx:TrackPointExtension>
        </extensions>
      </trkpt>
      <trkpt lat="46.15747" lon="6.2699">
        <ele>478.2</ele>
        <time>2021-03-02T12:08:33Z</time>
        <extensions>
          <gpxtpx:TrackPointExtension xmlns:gpxtpx="http://www.garmin.com/xmlschemas/TrackPointExtension/v1">
            <gpxtpx:hr>133</gpxtpx:hr>
          </gpxtpx:TrackPointExtension>
        </extensions>
      </trkpt>
      <trkpt lat="46.1574" lon="6.26983">
        <ele>478.1</ele>
        <time>2021-03-02T12:08:34Z</time>
        <extensions>
          <gpxtpx:TrackPointExtension xmlns:gpxtpx="http://www.garmin.com/xmlschemas/TrackPointExtension/v1">
            <gpxtpx:hr>133</gpxtpx:hr>
          </gpxtpx:TrackPointExtension>
        </extensions>
      </trkpt>
      <trkpt lat="46.15734" lon="6.26978">
        <ele>478</ele>
        <time>2021-03-02T12:08:35Z</time>
        <extensions>
          <gpxtpx:TrackPointExtension xmlns:gpxtpx="http://www.garmin.com/xmlschemas/TrackPointExtension/v1">
            <gpxtpx:hr>134</gpxtpx:hr>
          </gpxtpx:TrackPointExtension>
        </extensions>
      </trkpt>
      <trkpt lat="46.15726" lon="6.26973">
        <ele>477.8</ele>
        <time>2021-03-02T12:08:36Z</time>
        <extensions>
          <gpxtpx:TrackPointExtension xmlns:gpxtpx="http://www.garmin.com/xmlschemas/TrackPointExtension/v1">
            <gpxtpx:hr>134</gpxtpx:hr>
          </gpxtpx:TrackPointExtension>
        </extensions>
      </trkpt>
      <trkpt lat="46.15718" lon="6.26971">
        <ele>477.6</ele>
        <time>2021-03-02T12:08:37Z</time>
        <extensions>
          <gpxtpx:TrackPointExtension xmlns:gpxtpx="http://www.garmin.com/xmlschemas/TrackPointExtension/v1">
            <gpxtpx:hr>135</gpxtpx:hr>
          </gpxtpx:TrackPointExtension>
        </extensions>
      </trkpt>
      <trkpt lat="46.1571" lon="6.26971">
        <ele>477.4</ele>
        <time>2021-03-02T12:08:38Z</time>
        <extensions>
          <gpxtpx:TrackPointExtension xmlns:gpxtpx="http://www.garmin.com/xmlschemas/TrackPointExtension/v1">
            <gpxtpx:hr>135</gpxtpx:hr>
          </gpxtpx:TrackPointExtension>
        </extensions>
      </trkpt>
      <trkpt lat="46.15701" lon="6.26973">
        <ele>477.1</ele>
        <time>2021-03-02T12:08:39Z</time>
        <extensions>
          <gpxtpx:TrackPointExtension xmlns:gpxtpx="http://www.garmin.com/xmlschemas/TrackPointExtension/v1">
            <gpxtpx:hr>135</gpxtpx:hr>
          </gpxtpx:TrackPointExtension>
        </extensions>
      </trkpt>
      <trkpt lat="46.15692" lon="6.26975">
        <ele>476.8</ele>
        <time>2021-03-02T12:08:40Z</time>
        <extensions>
          <gpxtpx:TrackPointExtension xmlns:gpxtpx="http://www.garmin.com/xmlschemas/TrackPointExtension/v1">
            <gpxtpx:hr>136</gpxtpx:hr>
          </gpxtpx:TrackPointExtension>
        </extensions>
      </trkpt>
      <trkpt lat="46.15683" lon="6.26978">
        <ele>476.5</ele>
        <time>2021-03-02T12:08:41Z</time>
        <extensions>
          <gpxtpx:TrackPointExtension xmlns:gpxtpx="http://www.garmin.com/xmlschemas/TrackPointExtension/v1">
            <gpxtpx:hr>136</gpxtpx:hr>
          </gpxtpx:TrackPointExtension>
        </extensions>
      </trkpt>
      <trkpt lat="46.15673" lon="6.26982">
        <ele>475.9</ele>
        <time>2021-03-02T12:08:42Z</time>
        <extensions>
          <gpxtpx:TrackPointExtension xmlns:gpxtpx="http://www.garmin.com/xmlschemas/TrackPointExtension/v1">
            <gpxtpx:hr>136</gpxtpx:hr>
          </gpxtpx:TrackPointExtension>
        </extensions>
      </trkpt>
      <trkpt lat="46.15663" lon="6.26985">
        <ele>475.1</ele>
        <time>2021-03-02T12:08:43Z</time>
        <extensions>
          <gpxtpx:TrackPointExtension xmlns:gpxtpx="http://www.garmin.com/xmlschemas/TrackPointExtension/v1">
            <gpxtpx:hr>136</gpxtpx:hr>
          </gpxtpx:TrackPointExtension>
        </extensions>
      </trkpt>
      <trkpt lat="46.15653" lon="6.26989">
        <ele>474.3</ele>
        <time>2021-03-02T12:08:44Z</time>
        <extensions>
          <gpxtpx:TrackPointExtension xmlns:gpxtpx="http://www.garmin.com/xmlschemas/TrackPointExtension/v1">
            <gpxtpx:hr>136</gpxtpx:hr>
          </gpxtpx:TrackPointExtension>
        </extensions>
      </trkpt>
      <trkpt lat="46.15642" lon="6.26992">
        <ele>473.7</ele>
        <time>2021-03-02T12:08:45Z</time>
        <extensions>
          <gpxtpx:TrackPointExtension xmlns:gpxtpx="http://www.garmin.com/xmlschemas/TrackPointExtension/v1">
            <gpxtpx:hr>136</gpxtpx:hr>
          </gpxtpx:TrackPointExtension>
        </extensions>
      </trkpt>
      <trkpt lat="46.15631" lon="6.26996">
        <ele>473.1</ele>
        <time>2021-03-02T12:08:46Z</time>
        <extensions>
          <gpxtpx:TrackPointExtension xmlns:gpxtpx="http://www.garmin.com/xmlschemas/TrackPointExtension/v1">
            <gpxtpx:hr>137</gpxtpx:hr>
          </gpxtpx:TrackPointExtension>
        </extensions>
      </trkpt>
      <trkpt lat="46.1562" lon="6.27001">
        <ele>471.5</ele>
        <time>2021-03-02T12:08:47Z</time>
        <extensions>
          <gpxtpx:TrackPointExtension xmlns:gpxtpx="http://www.garmin.com/xmlschemas/TrackPointExtension/v1">
            <gpxtpx:hr>137</gpxtpx:hr>
          </gpxtpx:TrackPointExtension>
        </extensions>
      </trkpt>
      <trkpt lat="46.15608" lon="6.27006">
        <ele>470</ele>
        <time>2021-03-02T12:08:48Z</time>
        <extensions>
          <gpxtpx:TrackPointExtension xmlns:gpxtpx="http://www.garmin.com/xmlschemas/TrackPointExtension/v1">
            <gpxtpx:hr>137</gpxtpx:hr>
          </gpxtpx:TrackPointExtension>
        </extensions>
      </trkpt>
      <trkpt lat="46.15596" lon="6.27012">
        <ele>468.5</ele>
        <time>2021-03-02T12:08:49Z</time>
        <extensions>
          <gpxtpx:TrackPointExtension xmlns:gpxtpx="http://www.garmin.com/xmlschemas/TrackPointExtension/v1">
            <gpxtpx:hr>137</gpxtpx:hr>
          </gpxtpx:TrackPointExtension>
        </extensions>
      </trkpt>
      <trkpt lat="46.15583" lon="6.27018">
        <ele>467.1</ele>
        <time>2021-03-02T12:08:50Z</time>
        <extensions>
          <gpxtpx:TrackPointExtension xmlns:gpxtpx="http://www.garmin.com/xmlschemas/TrackPointExtension/v1">
            <gpxtpx:hr>138</gpxtpx:hr>
          </gpxtpx:TrackPointExtension>
        </extensions>
      </trkpt>
      <trkpt lat="46.1557" lon="6.27026">
        <ele>465.9</ele>
        <time>2021-03-02T12:08:51Z</time>
        <extensions>
          <gpxtpx:TrackPointExtension xmlns:gpxtpx="http://www.garmin.com/xmlschemas/TrackPointExtension/v1">
            <gpxtpx:hr>138</gpxtpx:hr>
          </gpxtpx:TrackPointExtension>
        </extensions>
      </trkpt>
      <trkpt lat="46.15557" lon="6.27034">
        <ele>464.1</ele>
        <time>2021-03-02T12:08:52Z</time>
        <extensions>
          <gpxtpx:TrackPointExtension xmlns:gpxtpx="http://www.garmin.com/xmlschemas/TrackPointExtension/v1">
            <gpxtpx:hr>139</gpxtpx:hr>
          </gpxtpx:TrackPointExtension>
        </extensions>
      </trkpt>
      <trkpt lat="46.15544" lon="6.27043">
        <ele>462.4</ele>
        <time>2021-03-02T12:08:53Z</time>
        <extensions>
          <gpxtpx:TrackPointExtension xmlns:gpxtpx="http://www.garmin.com/xmlschemas/TrackPointExtension/v1">
            <gpxtpx:hr>139</gpxtpx:hr>
          </gpxtpx:TrackPointExtension>
        </extensions>
      </trkpt>
      <trkpt lat="46.15531" lon="6.27052">
        <ele>460.7</ele>
        <time>2021-03-02T12:08:54Z</time>
        <extensions>
          <gpxtpx:TrackPointExtension xmlns:gpxtpx="http://www.garmin.com/xmlschemas/TrackPointExtension/v1">
            <gpxtpx:hr>141</gpxtpx:hr>
          </gpxtpx:TrackPointExtension>
        </extensions>
      </trkpt>
      <trkpt lat="46.15518" lon="6.27063">
        <ele>459.1</ele>
        <time>2021-03-02T12:08:55Z</time>
        <extensions>
          <gpxtpx:TrackPointExtension xmlns:gpxtpx="http://www.garmin.com/xmlschemas/TrackPointExtension/v1">
            <gpxtpx:hr>142</gpxtpx:hr>
          </gpxtpx:TrackPointExtension>
        </extensions>
      </trkpt>
      <trkpt lat="46.15504" lon="6.27073">
        <ele>457.5</ele>
        <time>2021-03-02T12:08:56Z</time>
        <extensions>
          <gpxtpx:TrackPointExtension xmlns:gpxtpx="http://www.garmin.com/xmlschemas/TrackPointExtension/v1">
            <gpxtpx:hr>143</gpxtpx:hr>
          </gpxtpx:TrackPointExtension>
        </extensions>
      </trkpt>
      <trkpt lat="46.15491" lon="6.27083">
        <ele>456.3</ele>
        <time>2021-03-02T12:08:57Z</time>
        <extensions>
          <gpxtpx:TrackPointExtension xmlns:gpxtpx="http://www.garmin.com/xmlschemas/TrackPointExtension/v1">
            <gpxtpx:hr>144</gpxtpx:hr>
          </gpxtpx:TrackPointExtension>
        </extensions>
      </trkpt>
      <trkpt lat="46.15477" lon="6.27093">
        <ele>455.2</ele>
        <time>2021-03-02T12:08:58Z</time>
        <extensions>
          <gpxtpx:TrackPointExtension xmlns:gpxtpx="http://www.garmin.com/xmlschemas/TrackPointExtension/v1">
            <gpxtpx:hr>144</gpxtpx:hr>
          </gpxtpx:TrackPointExtension>
        </extensions>
      </trkpt>
      <trkpt lat="46.15463" lon="6.27103">
        <ele>455.3</ele>
        <time>2021-03-02T12:08:59Z</time>
        <extensions>
          <gpxtpx:TrackPointExtension xmlns:gpxtpx="http://www.garmin.com/xmlschemas/TrackPointExtension/v1">
            <gpxtpx:hr>145</gpxtpx:hr>
          </gpxtpx:TrackPointExtension>
        </extensions>
      </trkpt>
      <trkpt lat="46.15448" lon="6.27113">
        <ele>452.9</ele>
        <time>2021-03-02T12:09:00Z</time>
        <extensions>
          <gpxtpx:TrackPointExtension xmlns:gpxtpx="http://www.garmin.com/xmlschemas/TrackPointExtension/v1">
            <gpxtpx:hr>145</gpxtpx:hr>
          </gpxtpx:TrackPointExtension>
        </extensions>
      </trkpt>
      <trkpt lat="46.15434" lon="6.27122">
        <ele>450.5</ele>
        <time>2021-03-02T12:09:01Z</time>
        <extensions>
          <gpxtpx:TrackPointExtension xmlns:gpxtpx="http://www.garmin.com/xmlschemas/TrackPointExtension/v1">
            <gpxtpx:hr>145</gpxtpx:hr>
          </gpxtpx:TrackPointExtension>
        </extensions>
      </trkpt>
      <trkpt lat="46.15419" lon="6.27129">
        <ele>448.2</ele>
        <time>2021-03-02T12:09:02Z</time>
        <extensions>
          <gpxtpx:TrackPointExtension xmlns:gpxtpx="http://www.garmin.com/xmlschemas/TrackPointExtension/v1">
            <gpxtpx:hr>145</gpxtpx:hr>
          </gpxtpx:TrackPointExtension>
        </extensions>
      </trkpt>
      <trkpt lat="46.15403" lon="6.27136">
        <ele>447.1</ele>
        <time>2021-03-02T12:09:03Z</time>
        <extensions>
          <gpxtpx:TrackPointExtension xmlns:gpxtpx="http://www.garmin.com/xmlschemas/TrackPointExtension/v1">
            <gpxtpx:hr>145</gpxtpx:hr>
          </gpxtpx:TrackPointExtension>
        </extensions>
      </trkpt>
      <trkpt lat="46.15388" lon="6.27142">
        <ele>445.8</ele>
        <time>2021-03-02T12:09:04Z</time>
        <extensions>
          <gpxtpx:TrackPointExtension xmlns:gpxtpx="http://www.garmin.com/xmlschemas/TrackPointExtension/v1">
            <gpxtpx:hr>145</gpxtpx:hr>
          </gpxtpx:TrackPointExtension>
        </extensions>
      </trkpt>
      <trkpt lat="46.15372" lon="6.27147">
        <ele>444</ele>
        <time>2021-03-02T12:09:05Z</time>
        <extensions>
          <gpxtpx:TrackPointExtension xmlns:gpxtpx="http://www.garmin.com/xmlschemas/TrackPointExtension/v1">
            <gpxtpx:hr>145</gpxtpx:hr>
          </gpxtpx:TrackPointExtension>
        </extensions>
      </trkpt>
      <trkpt lat="46.15356" lon="6.2715">
        <ele>442.2</ele>
        <time>2021-03-02T12:09:06Z</time>
        <extensions>
          <gpxtpx:TrackPointExtension xmlns:gpxtpx="http://www.garmin.com/xmlschemas/TrackPointExtension/v1">
            <gpxtpx:hr>145</gpxtpx:hr>
          </gpxtpx:TrackPointExtension>
        </extensions>
      </trkpt>
      <trkpt lat="46.15341" lon="6.27153">
        <ele>440.3</ele>
        <time>2021-03-02T12:09:07Z</time>
        <extensions>
          <gpxtpx:TrackPointExtension xmlns:gpxtpx="http://www.garmin.com/xmlschemas/TrackPointExtension/v1">
            <gpxtpx:hr>145</gpxtpx:hr>
          </gpxtpx:TrackPointExtension>
        </extensions>
      </trkpt>
      <trkpt lat="46.15325" lon="6.27152">
        <ele>438.4</ele>
        <time>2021-03-02T12:09:08Z</time>
        <extensions>
          <gpxtpx:TrackPointExtension xmlns:gpxtpx="http://www.garmin.com/xmlschemas/TrackPointExtension/v1">
            <gpxtpx:hr>145</gpxtpx:hr>
          </gpxtpx:TrackPointExtension>
        </extensions>
      </trkpt>
      <trkpt lat="46.15309" lon="6.27149">
        <ele>437.4</ele>
        <time>2021-03-02T12:09:09Z</time>
        <extensions>
          <gpxtpx:TrackPointExtension xmlns:gpxtpx="http://www.garmin.com/xmlschemas/TrackPointExtension/v1">
            <gpxtpx:hr>144</gpxtpx:hr>
          </gpxtpx:TrackPointExtension>
        </extensions>
      </trkpt>
      <trkpt lat="46.15294" lon="6.27143">
        <ele>437.4</ele>
        <time>2021-03-02T12:09:10Z</time>
        <extensions>
          <gpxtpx:TrackPointExtension xmlns:gpxtpx="http://www.garmin.com/xmlschemas/TrackPointExtension/v1">
            <gpxtpx:hr>144</gpxtpx:hr>
          </gpxtpx:TrackPointExtension>
        </extensions>
      </trkpt>
      <trkpt lat="46.15279" lon="6.27136">
        <ele>434</ele>
        <time>2021-03-02T12:09:11Z</time>
        <extensions>
          <gpxtpx:TrackPointExtension xmlns:gpxtpx="http://www.garmin.com/xmlschemas/TrackPointExtension/v1">
            <gpxtpx:hr>144</gpxtpx:hr>
          </gpxtpx:TrackPointExtension>
        </extensions>
      </trkpt>
      <trkpt lat="46.15264" lon="6.27128">
        <ele>432.1</ele>
        <time>2021-03-02T12:09:12Z</time>
        <extensions>
          <gpxtpx:TrackPointExtension xmlns:gpxtpx="http://www.garmin.com/xmlschemas/TrackPointExtension/v1">
            <gpxtpx:hr>144</gpxtpx:hr>
          </gpxtpx:TrackPointExtension>
        </extensions>
      </trkpt>
      <trkpt lat="46.15249" lon="6.2712">
        <ele>430.2</ele>
        <time>2021-03-02T12:09:13Z</time>
        <extensions>
          <gpxtpx:TrackPointExtension xmlns:gpxtpx="http://www.garmin.com/xmlschemas/TrackPointExtension/v1">
            <gpxtpx:hr>144</gpxtpx:hr>
          </gpxtpx:TrackPointExtension>
        </extensions>
      </trkpt>
      <trkpt lat="46.15235" lon="6.27111">
        <ele>428.4</ele>
        <time>2021-03-02T12:09:14Z</time>
        <extensions>
          <gpxtpx:TrackPointExtension xmlns:gpxtpx="http://www.garmin.com/xmlschemas/TrackPointExtension/v1">
            <gpxtpx:hr>143</gpxtpx:hr>
          </gpxtpx:TrackPointExtension>
        </extensions>
      </trkpt>
      <trkpt lat="46.1522" lon="6.27103">
        <ele>427.2</ele>
        <time>2021-03-02T12:09:15Z</time>
        <extensions>
          <gpxtpx:TrackPointExtension xmlns:gpxtpx="http://www.garmin.com/xmlschemas/TrackPointExtension/v1">
            <gpxtpx:hr>143</gpxtpx:hr>
          </gpxtpx:TrackPointExtension>
        </extensions>
      </trkpt>
      <trkpt lat="46.15206" lon="6.27095">
        <ele>426</ele>
        <time>2021-03-02T12:09:16Z</time>
        <extensions>
          <gpxtpx:TrackPointExtension xmlns:gpxtpx="http://www.garmin.com/xmlschemas/TrackPointExtension/v1">
            <gpxtpx:hr>142</gpxtpx:hr>
          </gpxtpx:TrackPointExtension>
        </extensions>
      </trkpt>
      <trkpt lat="46.15191" lon="6.27087">
        <ele>425.1</ele>
        <time>2021-03-02T12:09:17Z</time>
        <extensions>
          <gpxtpx:TrackPointExtension xmlns:gpxtpx="http://www.garmin.com/xmlschemas/TrackPointExtension/v1">
            <gpxtpx:hr>142</gpxtpx:hr>
          </gpxtpx:TrackPointExtension>
        </extensions>
      </trkpt>
      <trkpt lat="46.15177" lon="6.27078">
        <ele>424.2</ele>
        <time>2021-03-02T12:09:18Z</time>
        <extensions>
          <gpxtpx:TrackPointExtension xmlns:gpxtpx="http://www.garmin.com/xmlschemas/TrackPointExtension/v1">
            <gpxtpx:hr>142</gpxtpx:hr>
          </gpxtpx:TrackPointExtension>
        </extensions>
      </trkpt>
      <trkpt lat="46.15164" lon="6.2707">
        <ele>423.4</ele>
        <time>2021-03-02T12:09:19Z</time>
        <extensions>
          <gpxtpx:TrackPointExtension xmlns:gpxtpx="http://www.garmin.com/xmlschemas/TrackPointExtension/v1">
            <gpxtpx:hr>142</gpxtpx:hr>
          </gpxtpx:TrackPointExtension>
        </extensions>
      </trkpt>
      <trkpt lat="46.1515" lon="6.27062">
        <ele>422.9</ele>
        <time>2021-03-02T12:09:20Z</time>
        <extensions>
          <gpxtpx:TrackPointExtension xmlns:gpxtpx="http://www.garmin.com/xmlschemas/TrackPointExtension/v1">
            <gpxtpx:hr>141</gpxtpx:hr>
          </gpxtpx:TrackPointExtension>
        </extensions>
      </trkpt>
      <trkpt lat="46.15137" lon="6.27054">
        <ele>422.5</ele>
        <time>2021-03-02T12:09:21Z</time>
        <extensions>
          <gpxtpx:TrackPointExtension xmlns:gpxtpx="http://www.garmin.com/xmlschemas/TrackPointExtension/v1">
            <gpxtpx:hr>141</gpxtpx:hr>
          </gpxtpx:TrackPointExtension>
        </extensions>
      </trkpt>
      <trkpt lat="46.15125" lon="6.27046">
        <ele>422.4</ele>
        <time>2021-03-02T12:09:22Z</time>
        <extensions>
          <gpxtpx:TrackPointExtension xmlns:gpxtpx="http://www.garmin.com/xmlschemas/TrackPointExtension/v1">
            <gpxtpx:hr>140</gpxtpx:hr>
          </gpxtpx:TrackPointExtension>
        </extensions>
      </trkpt>
      <trkpt lat="46.15114" lon="6.27038">
        <ele>422.5</ele>
        <time>2021-03-02T12:09:23Z</time>
        <extensions>
          <gpxtpx:TrackPointExtension xmlns:gpxtpx="http://www.garmin.com/xmlschemas/TrackPointExtension/v1">
            <gpxtpx:hr>140</gpxtpx:hr>
          </gpxtpx:TrackPointExtension>
        </extensions>
      </trkpt>
      <trkpt lat="46.15104" lon="6.27029">
        <ele>422.7</ele>
        <time>2021-03-02T12:09:24Z</time>
        <extensions>
          <gpxtpx:TrackPointExtension xmlns:gpxtpx="http://www.garmin.com/xmlschemas/TrackPointExtension/v1">
            <gpxtpx:hr>140</gpxtpx:hr>
          </gpxtpx:TrackPointExtension>
        </extensions>
      </trkpt>
      <trkpt lat="46.15095" lon="6.2702">
        <ele>423.1</ele>
        <time>2021-03-02T12:09:25Z</time>
        <extensions>
          <gpxtpx:TrackPointExtension xmlns:gpxtpx="http://www.garmin.com/xmlschemas/TrackPointExtension/v1">
            <gpxtpx:hr>139</gpxtpx:hr>
          </gpxtpx:TrackPointExtension>
        </extensions>
      </trkpt>
      <trkpt lat="46.15086" lon="6.27016">
        <ele>423.4</ele>
        <time>2021-03-02T12:09:26Z</time>
        <extensions>
          <gpxtpx:TrackPointExtension xmlns:gpxtpx="http://www.garmin.com/xmlschemas/TrackPointExtension/v1">
            <gpxtpx:hr>139</gpxtpx:hr>
          </gpxtpx:TrackPointExtension>
        </extensions>
      </trkpt>
      <trkpt lat="46.15077" lon="6.27017">
        <ele>423.5</ele>
        <time>2021-03-02T12:09:27Z</time>
        <extensions>
          <gpxtpx:TrackPointExtension xmlns:gpxtpx="http://www.garmin.com/xmlschemas/TrackPointExtension/v1">
            <gpxtpx:hr>140</gpxtpx:hr>
          </gpxtpx:TrackPointExtension>
        </extensions>
      </trkpt>
      <trkpt lat="46.15071" lon="6.27022">
        <ele>423.5</ele>
        <time>2021-03-02T12:09:28Z</time>
        <extensions>
          <gpxtpx:TrackPointExtension xmlns:gpxtpx="http://www.garmin.com/xmlschemas/TrackPointExtension/v1">
            <gpxtpx:hr>139</gpxtpx:hr>
          </gpxtpx:TrackPointExtension>
        </extensions>
      </trkpt>
      <trkpt lat="46.15065" lon="6.2703">
        <ele>423.4</ele>
        <time>2021-03-02T12:09:29Z</time>
        <extensions>
          <gpxtpx:TrackPointExtension xmlns:gpxtpx="http://www.garmin.com/xmlschemas/TrackPointExtension/v1">
            <gpxtpx:hr>139</gpxtpx:hr>
          </gpxtpx:TrackPointExtension>
        </extensions>
      </trkpt>
      <trkpt lat="46.15059" lon="6.2704">
        <ele>423.3</ele>
        <time>2021-03-02T12:09:30Z</time>
        <extensions>
          <gpxtpx:TrackPointExtension xmlns:gpxtpx="http://www.garmin.com/xmlschemas/TrackPointExtension/v1">
            <gpxtpx:hr>139</gpxtpx:hr>
          </gpxtpx:TrackPointExtension>
        </extensions>
      </trkpt>
      <trkpt lat="46.15054" lon="6.2705">
        <ele>423.3</ele>
        <time>2021-03-02T12:09:31Z</time>
        <extensions>
          <gpxtpx:TrackPointExtension xmlns:gpxtpx="http://www.garmin.com/xmlschemas/TrackPointExtension/v1">
            <gpxtpx:hr>139</gpxtpx:hr>
          </gpxtpx:TrackPointExtension>
        </extensions>
      </trkpt>
      <trkpt lat="46.15048" lon="6.2706">
        <ele>423.2</ele>
        <time>2021-03-02T12:09:32Z</time>
        <extensions>
          <gpxtpx:TrackPointExtension xmlns:gpxtpx="http://www.garmin.com/xmlschemas/TrackPointExtension/v1">
            <gpxtpx:hr>138</gpxtpx:hr>
          </gpxtpx:TrackPointExtension>
        </extensions>
      </trkpt>
      <trkpt lat="46.15043" lon="6.27071">
        <ele>423.1</ele>
        <time>2021-03-02T12:09:33Z</time>
        <extensions>
          <gpxtpx:TrackPointExtension xmlns:gpxtpx="http://www.garmin.com/xmlschemas/TrackPointExtension/v1">
            <gpxtpx:hr>138</gpxtpx:hr>
          </gpxtpx:TrackPointExtension>
        </extensions>
      </trkpt>
      <trkpt lat="46.15037" lon="6.27081">
        <ele>423</ele>
        <time>2021-03-02T12:09:34Z</time>
        <extensions>
          <gpxtpx:TrackPointExtension xmlns:gpxtpx="http://www.garmin.com/xmlschemas/TrackPointExtension/v1">
            <gpxtpx:hr>137</gpxtpx:hr>
          </gpxtpx:TrackPointExtension>
        </extensions>
      </trkpt>
      <trkpt lat="46.15032" lon="6.27091">
        <ele>422.9</ele>
        <time>2021-03-02T12:09:35Z</time>
        <extensions>
          <gpxtpx:TrackPointExtension xmlns:gpxtpx="http://www.garmin.com/xmlschemas/TrackPointExtension/v1">
            <gpxtpx:hr>136</gpxtpx:hr>
          </gpxtpx:TrackPointExtension>
        </extensions>
      </trkpt>
      <trkpt lat="46.15026" lon="6.27102">
        <ele>422.8</ele>
        <time>2021-03-02T12:09:36Z</time>
        <extensions>
          <gpxtpx:TrackPointExtension xmlns:gpxtpx="http://www.garmin.com/xmlschemas/TrackPointExtension/v1">
            <gpxtpx:hr>134</gpxtpx:hr>
          </gpxtpx:TrackPointExtension>
        </extensions>
      </trkpt>
      <trkpt lat="46.15021" lon="6.27112">
        <ele>422.7</ele>
        <time>2021-03-02T12:09:37Z</time>
        <extensions>
          <gpxtpx:TrackPointExtension xmlns:gpxtpx="http://www.garmin.com/xmlschemas/TrackPointExtension/v1">
            <gpxtpx:hr>132</gpxtpx:hr>
          </gpxtpx:TrackPointExtension>
        </extensions>
      </trkpt>
      <trkpt lat="46.15015" lon="6.27122">
        <ele>422.5</ele>
        <time>2021-03-02T12:09:38Z</time>
        <extensions>
          <gpxtpx:TrackPointExtension xmlns:gpxtpx="http://www.garmin.com/xmlschemas/TrackPointExtension/v1">
            <gpxtpx:hr>131</gpxtpx:hr>
          </gpxtpx:TrackPointExtension>
        </extensions>
      </trkpt>
      <trkpt lat="46.15008" lon="6.2713">
        <ele>422.4</ele>
        <time>2021-03-02T12:09:39Z</time>
        <extensions>
          <gpxtpx:TrackPointExtension xmlns:gpxtpx="http://www.garmin.com/xmlschemas/TrackPointExtension/v1">
            <gpxtpx:hr>131</gpxtpx:hr>
          </gpxtpx:TrackPointExtension>
        </extensions>
      </trkpt>
      <trkpt lat="46.15001" lon="6.27137">
        <ele>422.2</ele>
        <time>2021-03-02T12:09:40Z</time>
        <extensions>
          <gpxtpx:TrackPointExtension xmlns:gpxtpx="http://www.garmin.com/xmlschemas/TrackPointExtension/v1">
            <gpxtpx:hr>131</gpxtpx:hr>
          </gpxtpx:TrackPointExtension>
        </extensions>
      </trkpt>
      <trkpt lat="46.14992" lon="6.2714">
        <ele>422</ele>
        <time>2021-03-02T12:09:41Z</time>
        <extensions>
          <gpxtpx:TrackPointExtension xmlns:gpxtpx="http://www.garmin.com/xmlschemas/TrackPointExtension/v1">
            <gpxtpx:hr>131</gpxtpx:hr>
          </gpxtpx:TrackPointExtension>
        </extensions>
      </trkpt>
      <trkpt lat="46.14983" lon="6.27141">
        <ele>421.9</ele>
        <time>2021-03-02T12:09:42Z</time>
        <extensions>
          <gpxtpx:TrackPointExtension xmlns:gpxtpx="http://www.garmin.com/xmlschemas/TrackPointExtension/v1">
            <gpxtpx:hr>131</gpxtpx:hr>
          </gpxtpx:TrackPointExtension>
        </extensions>
      </trkpt>
      <trkpt lat="46.14973" lon="6.27141">
        <ele>421.7</ele>
        <time>2021-03-02T12:09:43Z</time>
        <extensions>
          <gpxtpx:TrackPointExtension xmlns:gpxtpx="http://www.garmin.com/xmlschemas/TrackPointExtension/v1">
            <gpxtpx:hr>131</gpxtpx:hr>
          </gpxtpx:TrackPointExtension>
        </extensions>
      </trkpt>
      <trkpt lat="46.14963" lon="6.27139">
        <ele>421.5</ele>
        <time>2021-03-02T12:09:44Z</time>
        <extensions>
          <gpxtpx:TrackPointExtension xmlns:gpxtpx="http://www.garmin.com/xmlschemas/TrackPointExtension/v1">
            <gpxtpx:hr>131</gpxtpx:hr>
          </gpxtpx:TrackPointExtension>
        </extensions>
      </trkpt>
      <trkpt lat="46.14953" lon="6.27136">
        <ele>421.4</ele>
        <time>2021-03-02T12:09:45Z</time>
        <extensions>
          <gpxtpx:TrackPointExtension xmlns:gpxtpx="http://www.garmin.com/xmlschemas/TrackPointExtension/v1">
            <gpxtpx:hr>132</gpxtpx:hr>
          </gpxtpx:TrackPointExtension>
        </extensions>
      </trkpt>
      <trkpt lat="46.14943" lon="6.27131">
        <ele>421.1</ele>
        <time>2021-03-02T12:09:46Z</time>
        <extensions>
          <gpxtpx:TrackPointExtension xmlns:gpxtpx="http://www.garmin.com/xmlschemas/TrackPointExtension/v1">
            <gpxtpx:hr>132</gpxtpx:hr>
          </gpxtpx:TrackPointExtension>
        </extensions>
      </trkpt>
      <trkpt lat="46.14933" lon="6.27127">
        <ele>420.9</ele>
        <time>2021-03-02T12:09:47Z</time>
        <extensions>
          <gpxtpx:TrackPointExtension xmlns:gpxtpx="http://www.garmin.com/xmlschemas/TrackPointExtension/v1">
            <gpxtpx:hr>132</gpxtpx:hr>
          </gpxtpx:TrackPointExtension>
        </extensions>
      </trkpt>
      <trkpt lat="46.14923" lon="6.27122">
        <ele>420.8</ele>
        <time>2021-03-02T12:09:48Z</time>
        <extensions>
          <gpxtpx:TrackPointExtension xmlns:gpxtpx="http://www.garmin.com/xmlschemas/TrackPointExtension/v1">
            <gpxtpx:hr>132</gpxtpx:hr>
          </gpxtpx:TrackPointExtension>
        </extensions>
      </trkpt>
      <trkpt lat="46.14914" lon="6.27118">
        <ele>420.6</ele>
        <time>2021-03-02T12:09:49Z</time>
        <extensions>
          <gpxtpx:TrackPointExtension xmlns:gpxtpx="http://www.garmin.com/xmlschemas/TrackPointExtension/v1">
            <gpxtpx:hr>132</gpxtpx:hr>
          </gpxtpx:TrackPointExtension>
        </extensions>
      </trkpt>
      <trkpt lat="46.14904" lon="6.27114">
        <ele>420.5</ele>
        <time>2021-03-02T12:09:50Z</time>
        <extensions>
          <gpxtpx:TrackPointExtension xmlns:gpxtpx="http://www.garmin.com/xmlschemas/TrackPointExtension/v1">
            <gpxtpx:hr>133</gpxtpx:hr>
          </gpxtpx:TrackPointExtension>
        </extensions>
      </trkpt>
      <trkpt lat="46.14895" lon="6.27109">
        <ele>420.4</ele>
        <time>2021-03-02T12:09:51Z</time>
        <extensions>
          <gpxtpx:TrackPointExtension xmlns:gpxtpx="http://www.garmin.com/xmlschemas/TrackPointExtension/v1">
            <gpxtpx:hr>133</gpxtpx:hr>
          </gpxtpx:TrackPointExtension>
        </extensions>
      </trkpt>
      <trkpt lat="46.14886" lon="6.27104">
        <ele>420.3</ele>
        <time>2021-03-02T12:09:52Z</time>
        <extensions>
          <gpxtpx:TrackPointExtension xmlns:gpxtpx="http://www.garmin.com/xmlschemas/TrackPointExtension/v1">
            <gpxtpx:hr>134</gpxtpx:hr>
          </gpxtpx:TrackPointExtension>
        </extensions>
      </trkpt>
      <trkpt lat="46.14877" lon="6.271">
        <ele>420.3</ele>
        <time>2021-03-02T12:09:53Z</time>
        <extensions>
          <gpxtpx:TrackPointExtension xmlns:gpxtpx="http://www.garmin.com/xmlschemas/TrackPointExtension/v1">
            <gpxtpx:hr>134</gpxtpx:hr>
          </gpxtpx:TrackPointExtension>
        </extensions>
      </trkpt>
      <trkpt lat="46.14868" lon="6.27096">
        <ele>420.2</ele>
        <time>2021-03-02T12:09:54Z</time>
        <extensions>
          <gpxtpx:TrackPointExtension xmlns:gpxtpx="http://www.garmin.com/xmlschemas/TrackPointExtension/v1">
            <gpxtpx:hr>134</gpxtpx:hr>
          </gpxtpx:TrackPointExtension>
        </extensions>
      </trkpt>
      <trkpt lat="46.14859" lon="6.27092">
        <ele>420.2</ele>
        <time>2021-03-02T12:09:55Z</time>
        <extensions>
          <gpxtpx:TrackPointExtension xmlns:gpxtpx="http://www.garmin.com/xmlschemas/TrackPointExtension/v1">
            <gpxtpx:hr>134</gpxtpx:hr>
          </gpxtpx:TrackPointExtension>
        </extensions>
      </trkpt>
      <trkpt lat="46.1485" lon="6.27087">
        <ele>420.1</ele>
        <time>2021-03-02T12:09:56Z</time>
        <extensions>
          <gpxtpx:TrackPointExtension xmlns:gpxtpx="http://www.garmin.com/xmlschemas/TrackPointExtension/v1">
            <gpxtpx:hr>134</gpxtpx:hr>
          </gpxtpx:TrackPointExtension>
        </extensions>
      </trkpt>
      <trkpt lat="46.14841" lon="6.27083">
        <ele>420.1</ele>
        <time>2021-03-02T12:09:57Z</time>
        <extensions>
          <gpxtpx:TrackPointExtension xmlns:gpxtpx="http://www.garmin.com/xmlschemas/TrackPointExtension/v1">
            <gpxtpx:hr>134</gpxtpx:hr>
          </gpxtpx:TrackPointExtension>
        </extensions>
      </trkpt>
      <trkpt lat="46.14832" lon="6.27079">
        <ele>420.1</ele>
        <time>2021-03-02T12:09:58Z</time>
        <extensions>
          <gpxtpx:TrackPointExtension xmlns:gpxtpx="http://www.garmin.com/xmlschemas/TrackPointExtension/v1">
            <gpxtpx:hr>133</gpxtpx:hr>
          </gpxtpx:TrackPointExtension>
        </extensions>
      </trkpt>
      <trkpt lat="46.14823" lon="6.27075">
        <ele>420</ele>
        <time>2021-03-02T12:09:59Z</time>
        <extensions>
          <gpxtpx:TrackPointExtension xmlns:gpxtpx="http://www.garmin.com/xmlschemas/TrackPointExtension/v1">
            <gpxtpx:hr>133</gpxtpx:hr>
          </gpxtpx:TrackPointExtension>
        </extensions>
      </trkpt>
      <trkpt lat="46.14815" lon="6.27071">
        <ele>420</ele>
        <time>2021-03-02T12:10:00Z</time>
        <extensions>
          <gpxtpx:TrackPointExtension xmlns:gpxtpx="http://www.garmin.com/xmlschemas/TrackPointExtension/v1">
            <gpxtpx:hr>133</gpxtpx:hr>
          </gpxtpx:TrackPointExtension>
        </extensions>
      </trkpt>
      <trkpt lat="46.14806" lon="6.27067">
        <ele>420</ele>
        <time>2021-03-02T12:10:01Z</time>
        <extensions>
          <gpxtpx:TrackPointExtension xmlns:gpxtpx="http://www.garmin.com/xmlschemas/TrackPointExtension/v1">
            <gpxtpx:hr>134</gpxtpx:hr>
          </gpxtpx:TrackPointExtension>
        </extensions>
      </trkpt>
      <trkpt lat="46.14798" lon="6.27063">
        <ele>420</ele>
        <time>2021-03-02T12:10:02Z</time>
        <extensions>
          <gpxtpx:TrackPointExtension xmlns:gpxtpx="http://www.garmin.com/xmlschemas/TrackPointExtension/v1">
            <gpxtpx:hr>134</gpxtpx:hr>
          </gpxtpx:TrackPointExtension>
        </extensions>
      </trkpt>
      <trkpt lat="46.14789" lon="6.27058">
        <ele>420</ele>
        <time>2021-03-02T12:10:03Z</time>
        <extensions>
          <gpxtpx:TrackPointExtension xmlns:gpxtpx="http://www.garmin.com/xmlschemas/TrackPointExtension/v1">
            <gpxtpx:hr>135</gpxtpx:hr>
          </gpxtpx:TrackPointExtension>
        </extensions>
      </trkpt>
      <trkpt lat="46.14781" lon="6.27053">
        <ele>420</ele>
        <time>2021-03-02T12:10:04Z</time>
        <extensions>
          <gpxtpx:TrackPointExtension xmlns:gpxtpx="http://www.garmin.com/xmlschemas/TrackPointExtension/v1">
            <gpxtpx:hr>135</gpxtpx:hr>
          </gpxtpx:TrackPointExtension>
        </extensions>
      </trkpt>
      <trkpt lat="46.14772" lon="6.27048">
        <ele>420.1</ele>
        <time>2021-03-02T12:10:05Z</time>
        <extensions>
          <gpxtpx:TrackPointExtension xmlns:gpxtpx="http://www.garmin.com/xmlschemas/TrackPointExtension/v1">
            <gpxtpx:hr>135</gpxtpx:hr>
          </gpxtpx:TrackPointExtension>
        </extensions>
      </trkpt>
      <trkpt lat="46.14764" lon="6.27042">
        <ele>420.1</ele>
        <time>2021-03-02T12:10:06Z</time>
        <extensions>
          <gpxtpx:TrackPointExtension xmlns:gpxtpx="http://www.garmin.com/xmlschemas/TrackPointExtension/v1">
            <gpxtpx:hr>135</gpxtpx:hr>
          </gpxtpx:TrackPointExtension>
        </extensions>
      </trkpt>
      <trkpt lat="46.14756" lon="6.27036">
        <ele>420.1</ele>
        <time>2021-03-02T12:10:07Z</time>
        <extensions>
          <gpxtpx:TrackPointExtension xmlns:gpxtpx="http://www.garmin.com/xmlschemas/TrackPointExtension/v1">
            <gpxtpx:hr>135</gpxtpx:hr>
          </gpxtpx:TrackPointExtension>
        </extensions>
      </trkpt>
      <trkpt lat="46.14749" lon="6.2703">
        <ele>420.1</ele>
        <time>2021-03-02T12:10:08Z</time>
        <extensions>
          <gpxtpx:TrackPointExtension xmlns:gpxtpx="http://www.garmin.com/xmlschemas/TrackPointExtension/v1">
            <gpxtpx:hr>135</gpxtpx:hr>
          </gpxtpx:TrackPointExtension>
        </extensions>
      </trkpt>
      <trkpt lat="46.14741" lon="6.27024">
        <ele>420.2</ele>
        <time>2021-03-02T12:10:09Z</time>
        <extensions>
          <gpxtpx:TrackPointExtension xmlns:gpxtpx="http://www.garmin.com/xmlschemas/TrackPointExtension/v1">
            <gpxtpx:hr>135</gpxtpx:hr>
          </gpxtpx:TrackPointExtension>
        </extensions>
      </trkpt>
      <trkpt lat="46.14733" lon="6.27017">
        <ele>420.2</ele>
        <time>2021-03-02T12:10:10Z</time>
        <extensions>
          <gpxtpx:TrackPointExtension xmlns:gpxtpx="http://www.garmin.com/xmlschemas/TrackPointExtension/v1">
            <gpxtpx:hr>135</gpxtpx:hr>
          </gpxtpx:TrackPointExtension>
        </extensions>
      </trkpt>
      <trkpt lat="46.14726" lon="6.27011">
        <ele>420.3</ele>
        <time>2021-03-02T12:10:11Z</time>
        <extensions>
          <gpxtpx:TrackPointExtension xmlns:gpxtpx="http://www.garmin.com/xmlschemas/TrackPointExtension/v1">
            <gpxtpx:hr>135</gpxtpx:hr>
          </gpxtpx:TrackPointExtension>
        </extensions>
      </trkpt>
      <trkpt lat="46.14719" lon="6.27004">
        <ele>420.4</ele>
        <time>2021-03-02T12:10:12Z</time>
        <extensions>
          <gpxtpx:TrackPointExtension xmlns:gpxtpx="http://www.garmin.com/xmlschemas/TrackPointExtension/v1">
            <gpxtpx:hr>135</gpxtpx:hr>
          </gpxtpx:TrackPointExtension>
        </extensions>
      </trkpt>
      <trkpt lat="46.14712" lon="6.26997">
        <ele>420.5</ele>
        <time>2021-03-02T12:10:13Z</time>
        <extensions>
          <gpxtpx:TrackPointExtension xmlns:gpxtpx="http://www.garmin.com/xmlschemas/TrackPointExtension/v1">
            <gpxtpx:hr>135</gpxtpx:hr>
          </gpxtpx:TrackPointExtension>
        </extensions>
      </trkpt>
      <trkpt lat="46.14706" lon="6.2699">
        <ele>420.5</ele>
        <time>2021-03-02T12:10:14Z</time>
        <extensions>
          <gpxtpx:TrackPointExtension xmlns:gpxtpx="http://www.garmin.com/xmlschemas/TrackPointExtension/v1">
            <gpxtpx:hr>136</gpxtpx:hr>
          </gpxtpx:TrackPointExtension>
        </extensions>
      </trkpt>
      <trkpt lat="46.14699" lon="6.26982">
        <ele>420.6</ele>
        <time>2021-03-02T12:10:15Z</time>
        <extensions>
          <gpxtpx:TrackPointExtension xmlns:gpxtpx="http://www.garmin.com/xmlschemas/TrackPointExtension/v1">
            <gpxtpx:hr>137</gpxtpx:hr>
          </gpxtpx:TrackPointExtension>
        </extensions>
      </trkpt>
      <trkpt lat="46.14693" lon="6.26975">
        <ele>420.7</ele>
        <time>2021-03-02T12:10:16Z</time>
        <extensions>
          <gpxtpx:TrackPointExtension xmlns:gpxtpx="http://www.garmin.com/xmlschemas/TrackPointExtension/v1">
            <gpxtpx:hr>137</gpxtpx:hr>
          </gpxtpx:TrackPointExtension>
        </extensions>
      </trkpt>
      <trkpt lat="46.14687" lon="6.26967">
        <ele>420.7</ele>
        <time>2021-03-02T12:10:17Z</time>
        <extensions>
          <gpxtpx:TrackPointExtension xmlns:gpxtpx="http://www.garmin.com/xmlschemas/TrackPointExtension/v1">
            <gpxtpx:hr>137</gpxtpx:hr>
          </gpxtpx:TrackPointExtension>
        </extensions>
      </trkpt>
      <trkpt lat="46.14681" lon="6.26959">
        <ele>420.8</ele>
        <time>2021-03-02T12:10:18Z</time>
        <extensions>
          <gpxtpx:TrackPointExtension xmlns:gpxtpx="http://www.garmin.com/xmlschemas/TrackPointExtension/v1">
            <gpxtpx:hr>137</gpxtpx:hr>
          </gpxtpx:TrackPointExtension>
        </extensions>
      </trkpt>
      <trkpt lat="46.14675" lon="6.26951">
        <ele>420.9</ele>
        <time>2021-03-02T12:10:19Z</time>
        <extensions>
          <gpxtpx:TrackPointExtension xmlns:gpxtpx="http://www.garmin.com/xmlschemas/TrackPointExtension/v1">
            <gpxtpx:hr>138</gpxtpx:hr>
          </gpxtpx:TrackPointExtension>
        </extensions>
      </trkpt>
      <trkpt lat="46.14669" lon="6.26943">
        <ele>421.1</ele>
        <time>2021-03-02T12:10:20Z</time>
        <extensions>
          <gpxtpx:TrackPointExtension xmlns:gpxtpx="http://www.garmin.com/xmlschemas/TrackPointExtension/v1">
            <gpxtpx:hr>138</gpxtpx:hr>
          </gpxtpx:TrackPointExtension>
        </extensions>
      </trkpt>
      <trkpt lat="46.14663" lon="6.26935">
        <ele>421.3</ele>
        <time>2021-03-02T12:10:21Z</time>
        <extensions>
          <gpxtpx:TrackPointExtension xmlns:gpxtpx="http://www.garmin.com/xmlschemas/TrackPointExtension/v1">
            <gpxtpx:hr>138</gpxtpx:hr>
          </gpxtpx:TrackPointExtension>
        </extensions>
      </trkpt>
      <trkpt lat="46.14657" lon="6.26927">
        <ele>421.5</ele>
        <time>2021-03-02T12:10:22Z</time>
        <extensions>
          <gpxtpx:TrackPointExtension xmlns:gpxtpx="http://www.garmin.com/xmlschemas/TrackPointExtension/v1">
            <gpxtpx:hr>138</gpxtpx:hr>
          </gpxtpx:TrackPointExtension>
        </extensions>
      </trkpt>
      <trkpt lat="46.14652" lon="6.26919">
        <ele>421.7</ele>
        <time>2021-03-02T12:10:23Z</time>
        <extensions>
          <gpxtpx:TrackPointExtension xmlns:gpxtpx="http://www.garmin.com/xmlschemas/TrackPointExtension/v1">
            <gpxtpx:hr>138</gpxtpx:hr>
          </gpxtpx:TrackPointExtension>
        </extensions>
      </trkpt>
      <trkpt lat="46.14646" lon="6.26912">
        <ele>422</ele>
        <time>2021-03-02T12:10:24Z</time>
        <extensions>
          <gpxtpx:TrackPointExtension xmlns:gpxtpx="http://www.garmin.com/xmlschemas/TrackPointExtension/v1">
            <gpxtpx:hr>138</gpxtpx:hr>
          </gpxtpx:TrackPointExtension>
        </extensions>
      </trkpt>
      <trkpt lat="46.14641" lon="6.26905">
        <ele>422.2</ele>
        <time>2021-03-02T12:10:25Z</time>
        <extensions>
          <gpxtpx:TrackPointExtension xmlns:gpxtpx="http://www.garmin.com/xmlschemas/TrackPointExtension/v1">
            <gpxtpx:hr>138</gpxtpx:hr>
          </gpxtpx:TrackPointExtension>
        </extensions>
      </trkpt>
      <trkpt lat="46.14636" lon="6.26898">
        <ele>422.5</ele>
        <time>2021-03-02T12:10:26Z</time>
        <extensions>
          <gpxtpx:TrackPointExtension xmlns:gpxtpx="http://www.garmin.com/xmlschemas/TrackPointExtension/v1">
            <gpxtpx:hr>138</gpxtpx:hr>
          </gpxtpx:TrackPointExtension>
        </extensions>
      </trkpt>
      <trkpt lat="46.1463" lon="6.26891">
        <ele>422.8</ele>
        <time>2021-03-02T12:10:27Z</time>
        <extensions>
          <gpxtpx:TrackPointExtension xmlns:gpxtpx="http://www.garmin.com/xmlschemas/TrackPointExtension/v1">
            <gpxtpx:hr>138</gpxtpx:hr>
          </gpxtpx:TrackPointExtension>
        </extensions>
      </trkpt>
      <trkpt lat="46.14624" lon="6.26885">
        <ele>423.1</ele>
        <time>2021-03-02T12:10:28Z</time>
        <extensions>
          <gpxtpx:TrackPointExtension xmlns:gpxtpx="http://www.garmin.com/xmlschemas/TrackPointExtension/v1">
            <gpxtpx:hr>138</gpxtpx:hr>
          </gpxtpx:TrackPointExtension>
        </extensions>
      </trkpt>
      <trkpt lat="46.14619" lon="6.26879">
        <ele>423.4</ele>
        <time>2021-03-02T12:10:29Z</time>
        <extensions>
          <gpxtpx:TrackPointExtension xmlns:gpxtpx="http://www.garmin.com/xmlschemas/TrackPointExtension/v1">
            <gpxtpx:hr>139</gpxtpx:hr>
          </gpxtpx:TrackPointExtension>
        </extensions>
      </trkpt>
      <trkpt lat="46.14614" lon="6.26873">
        <ele>423.7</ele>
        <time>2021-03-02T12:10:30Z</time>
        <extensions>
          <gpxtpx:TrackPointExtension xmlns:gpxtpx="http://www.garmin.com/xmlschemas/TrackPointExtension/v1">
            <gpxtpx:hr>139</gpxtpx:hr>
          </gpxtpx:TrackPointExtension>
        </extensions>
      </trkpt>
      <trkpt lat="46.14608" lon="6.26868">
        <ele>423.8</ele>
        <time>2021-03-02T12:10:31Z</time>
        <extensions>
          <gpxtpx:TrackPointExtension xmlns:gpxtpx="http://www.garmin.com/xmlschemas/TrackPointExtension/v1">
            <gpxtpx:hr>140</gpxtpx:hr>
          </gpxtpx:TrackPointExtension>
        </extensions>
      </trkpt>
      <trkpt lat="46.14603" lon="6.26863">
        <ele>424.1</ele>
        <time>2021-03-02T12:10:32Z</time>
        <extensions>
          <gpxtpx:TrackPointExtension xmlns:gpxtpx="http://www.garmin.com/xmlschemas/TrackPointExtension/v1">
            <gpxtpx:hr>140</gpxtpx:hr>
          </gpxtpx:TrackPointExtension>
        </extensions>
      </trkpt>
      <trkpt lat="46.14598" lon="6.26858">
        <ele>424.3</ele>
        <time>2021-03-02T12:10:33Z</time>
        <extensions>
          <gpxtpx:TrackPointExtension xmlns:gpxtpx="http://www.garmin.com/xmlschemas/TrackPointExtension/v1">
            <gpxtpx:hr>140</gpxtpx:hr>
          </gpxtpx:TrackPointExtension>
        </extensions>
      </trkpt>
      <trkpt lat="46.14593" lon="6.26853">
        <ele>424.6</ele>
        <time>2021-03-02T12:10:34Z</time>
        <extensions>
          <gpxtpx:TrackPointExtension xmlns:gpxtpx="http://www.garmin.com/xmlschemas/TrackPointExtension/v1">
            <gpxtpx:hr>140</gpxtpx:hr>
          </gpxtpx:TrackPointExtension>
        </extensions>
      </trkpt>
      <trkpt lat="46.14588" lon="6.26848">
        <ele>424.9</ele>
        <time>2021-03-02T12:10:35Z</time>
        <extensions>
          <gpxtpx:TrackPointExtension xmlns:gpxtpx="http://www.garmin.com/xmlschemas/TrackPointExtension/v1">
            <gpxtpx:hr>140</gpxtpx:hr>
          </gpxtpx:TrackPointExtension>
        </extensions>
      </trkpt>
      <trkpt lat="46.14582" lon="6.26845">
        <ele>425.2</ele>
        <time>2021-03-02T12:10:36Z</time>
        <extensions>
          <gpxtpx:TrackPointExtension xmlns:gpxtpx="http://www.garmin.com/xmlschemas/TrackPointExtension/v1">
            <gpxtpx:hr>140</gpxtpx:hr>
          </gpxtpx:TrackPointExtension>
        </extensions>
      </trkpt>
      <trkpt lat="46.14577" lon="6.26841">
        <ele>425.5</ele>
        <time>2021-03-02T12:10:37Z</time>
        <extensions>
          <gpxtpx:TrackPointExtension xmlns:gpxtpx="http://www.garmin.com/xmlschemas/TrackPointExtension/v1">
            <gpxtpx:hr>139</gpxtpx:hr>
          </gpxtpx:TrackPointExtension>
        </extensions>
      </trkpt>
      <trkpt lat="46.14573" lon="6.26838">
        <ele>425.9</ele>
        <time>2021-03-02T12:10:38Z</time>
        <extensions>
          <gpxtpx:TrackPointExtension xmlns:gpxtpx="http://www.garmin.com/xmlschemas/TrackPointExtension/v1">
            <gpxtpx:hr>139</gpxtpx:hr>
          </gpxtpx:TrackPointExtension>
        </extensions>
      </trkpt>
      <trkpt lat="46.14569" lon="6.26835">
        <ele>426.2</ele>
        <time>2021-03-02T12:10:39Z</time>
        <extensions>
          <gpxtpx:TrackPointExtension xmlns:gpxtpx="http://www.garmin.com/xmlschemas/TrackPointExtension/v1">
            <gpxtpx:hr>139</gpxtpx:hr>
          </gpxtpx:TrackPointExtension>
        </extensions>
      </trkpt>
      <trkpt lat="46.14564" lon="6.26832">
        <ele>426.5</ele>
        <time>2021-03-02T12:10:40Z</time>
        <extensions>
          <gpxtpx:TrackPointExtension xmlns:gpxtpx="http://www.garmin.com/xmlschemas/TrackPointExtension/v1">
            <gpxtpx:hr>139</gpxtpx:hr>
          </gpxtpx:TrackPointExtension>
        </extensions>
      </trkpt>
      <trkpt lat="46.14559" lon="6.26827">
        <ele>426.9</ele>
        <time>2021-03-02T12:10:41Z</time>
        <extensions>
          <gpxtpx:TrackPointExtension xmlns:gpxtpx="http://www.garmin.com/xmlschemas/TrackPointExtension/v1">
            <gpxtpx:hr>139</gpxtpx:hr>
          </gpxtpx:TrackPointExtension>
        </extensions>
      </trkpt>
      <trkpt lat="46.14555" lon="6.26822">
        <ele>427.2</ele>
        <time>2021-03-02T12:10:42Z</time>
        <extensions>
          <gpxtpx:TrackPointExtension xmlns:gpxtpx="http://www.garmin.com/xmlschemas/TrackPointExtension/v1">
            <gpxtpx:hr>138</gpxtpx:hr>
          </gpxtpx:TrackPointExtension>
        </extensions>
      </trkpt>
      <trkpt lat="46.1455" lon="6.26818">
        <ele>427.2</ele>
        <time>2021-03-02T12:10:43Z</time>
        <extensions>
          <gpxtpx:TrackPointExtension xmlns:gpxtpx="http://www.garmin.com/xmlschemas/TrackPointExtension/v1">
            <gpxtpx:hr>138</gpxtpx:hr>
          </gpxtpx:TrackPointExtension>
        </extensions>
      </trkpt>
      <trkpt lat="46.14545" lon="6.26817">
        <ele>427</ele>
        <time>2021-03-02T12:10:44Z</time>
        <extensions>
          <gpxtpx:TrackPointExtension xmlns:gpxtpx="http://www.garmin.com/xmlschemas/TrackPointExtension/v1">
            <gpxtpx:hr>138</gpxtpx:hr>
          </gpxtpx:TrackPointExtension>
        </extensions>
      </trkpt>
      <trkpt lat="46.1454" lon="6.26819">
        <ele>426.8</ele>
        <time>2021-03-02T12:10:45Z</time>
        <extensions>
          <gpxtpx:TrackPointExtension xmlns:gpxtpx="http://www.garmin.com/xmlschemas/TrackPointExtension/v1">
            <gpxtpx:hr>138</gpxtpx:hr>
          </gpxtpx:TrackPointExtension>
        </extensions>
      </trkpt>
      <trkpt lat="46.14536" lon="6.26825">
        <ele>427</ele>
        <time>2021-03-02T12:10:46Z</time>
        <extensions>
          <gpxtpx:TrackPointExtension xmlns:gpxtpx="http://www.garmin.com/xmlschemas/TrackPointExtension/v1">
            <gpxtpx:hr>138</gpxtpx:hr>
          </gpxtpx:TrackPointExtension>
        </extensions>
      </trkpt>
      <trkpt lat="46.14533" lon="6.26831">
        <ele>427.1</ele>
        <time>2021-03-02T12:10:47Z</time>
        <extensions>
          <gpxtpx:TrackPointExtension xmlns:gpxtpx="http://www.garmin.com/xmlschemas/TrackPointExtension/v1">
            <gpxtpx:hr>138</gpxtpx:hr>
          </gpxtpx:TrackPointExtension>
        </extensions>
      </trkpt>
      <trkpt lat="46.1453" lon="6.26838">
        <ele>427.3</ele>
        <time>2021-03-02T12:10:48Z</time>
        <extensions>
          <gpxtpx:TrackPointExtension xmlns:gpxtpx="http://www.garmin.com/xmlschemas/TrackPointExtension/v1">
            <gpxtpx:hr>138</gpxtpx:hr>
          </gpxtpx:TrackPointExtension>
        </extensions>
      </trkpt>
      <trkpt lat="46.14526" lon="6.26844">
        <ele>427.6</ele>
        <time>2021-03-02T12:10:49Z</time>
        <extensions>
          <gpxtpx:TrackPointExtension xmlns:gpxtpx="http://www.garmin.com/xmlschemas/TrackPointExtension/v1">
            <gpxtpx:hr>139</gpxtpx:hr>
          </gpxtpx:TrackPointExtension>
        </extensions>
      </trkpt>
      <trkpt lat="46.14522" lon="6.26849">
        <ele>427.8</ele>
        <time>2021-03-02T12:10:50Z</time>
        <extensions>
          <gpxtpx:TrackPointExtension xmlns:gpxtpx="http://www.garmin.com/xmlschemas/TrackPointExtension/v1">
            <gpxtpx:hr>139</gpxtpx:hr>
          </gpxtpx:TrackPointExtension>
        </extensions>
      </trkpt>
      <trkpt lat="46.14518" lon="6.26854">
        <ele>428.1</ele>
        <time>2021-03-02T12:10:51Z</time>
        <extensions>
          <gpxtpx:TrackPointExtension xmlns:gpxtpx="http://www.garmin.com/xmlschemas/TrackPointExtension/v1">
            <gpxtpx:hr>139</gpxtpx:hr>
          </gpxtpx:TrackPointExtension>
        </extensions>
      </trkpt>
      <trkpt lat="46.14514" lon="6.26858">
        <ele>428.3</ele>
        <time>2021-03-02T12:10:52Z</time>
        <extensions>
          <gpxtpx:TrackPointExtension xmlns:gpxtpx="http://www.garmin.com/xmlschemas/TrackPointExtension/v1">
            <gpxtpx:hr>139</gpxtpx:hr>
          </gpxtpx:TrackPointExtension>
        </extensions>
      </trkpt>
      <trkpt lat="46.1451" lon="6.26863">
        <ele>428.5</ele>
        <time>2021-03-02T12:10:53Z</time>
        <extensions>
          <gpxtpx:TrackPointExtension xmlns:gpxtpx="http://www.garmin.com/xmlschemas/TrackPointExtension/v1">
            <gpxtpx:hr>140</gpxtpx:hr>
          </gpxtpx:TrackPointExtension>
        </extensions>
      </trkpt>
      <trkpt lat="46.14506" lon="6.26867">
        <ele>428.7</ele>
        <time>2021-03-02T12:10:54Z</time>
        <extensions>
          <gpxtpx:TrackPointExtension xmlns:gpxtpx="http://www.garmin.com/xmlschemas/TrackPointExtension/v1">
            <gpxtpx:hr>140</gpxtpx:hr>
          </gpxtpx:TrackPointExtension>
        </extensions>
      </trkpt>
      <trkpt lat="46.14503" lon="6.26871">
        <ele>429</ele>
        <time>2021-03-02T12:10:55Z</time>
        <extensions>
          <gpxtpx:TrackPointExtension xmlns:gpxtpx="http://www.garmin.com/xmlschemas/TrackPointExtension/v1">
            <gpxtpx:hr>141</gpxtpx:hr>
          </gpxtpx:TrackPointExtension>
        </extensions>
      </trkpt>
      <trkpt lat="46.14499" lon="6.26875">
        <ele>429.2</ele>
        <time>2021-03-02T12:10:56Z</time>
        <extensions>
          <gpxtpx:TrackPointExtension xmlns:gpxtpx="http://www.garmin.com/xmlschemas/TrackPointExtension/v1">
            <gpxtpx:hr>141</gpxtpx:hr>
          </gpxtpx:TrackPointExtension>
        </extensions>
      </trkpt>
      <trkpt lat="46.14495" lon="6.2688">
        <ele>429.4</ele>
        <time>2021-03-02T12:10:57Z</time>
        <extensions>
          <gpxtpx:TrackPointExtension xmlns:gpxtpx="http://www.garmin.com/xmlschemas/TrackPointExtension/v1">
            <gpxtpx:hr>141</gpxtpx:hr>
          </gpxtpx:TrackPointExtension>
        </extensions>
      </trkpt>
      <trkpt lat="46.14491" lon="6.26884">
        <ele>429.7</ele>
        <time>2021-03-02T12:10:58Z</time>
        <extensions>
          <gpxtpx:TrackPointExtension xmlns:gpxtpx="http://www.garmin.com/xmlschemas/TrackPointExtension/v1">
            <gpxtpx:hr>142</gpxtpx:hr>
          </gpxtpx:TrackPointExtension>
        </extensions>
      </trkpt>
      <trkpt lat="46.14488" lon="6.26888">
        <ele>429.9</ele>
        <time>2021-03-02T12:10:59Z</time>
        <extensions>
          <gpxtpx:TrackPointExtension xmlns:gpxtpx="http://www.garmin.com/xmlschemas/TrackPointExtension/v1">
            <gpxtpx:hr>142</gpxtpx:hr>
          </gpxtpx:TrackPointExtension>
        </extensions>
      </trkpt>
      <trkpt lat="46.14484" lon="6.26892">
        <ele>430.2</ele>
        <time>2021-03-02T12:11:00Z</time>
        <extensions>
          <gpxtpx:TrackPointExtension xmlns:gpxtpx="http://www.garmin.com/xmlschemas/TrackPointExtension/v1">
            <gpxtpx:hr>143</gpxtpx:hr>
          </gpxtpx:TrackPointExtension>
        </extensions>
      </trkpt>
      <trkpt lat="46.1448" lon="6.26896">
        <ele>430.5</ele>
        <time>2021-03-02T12:11:01Z</time>
        <extensions>
          <gpxtpx:TrackPointExtension xmlns:gpxtpx="http://www.garmin.com/xmlschemas/TrackPointExtension/v1">
            <gpxtpx:hr>144</gpxtpx:hr>
          </gpxtpx:TrackPointExtension>
        </extensions>
      </trkpt>
      <trkpt lat="46.14476" lon="6.269">
        <ele>430.8</ele>
        <time>2021-03-02T12:11:02Z</time>
        <extensions>
          <gpxtpx:TrackPointExtension xmlns:gpxtpx="http://www.garmin.com/xmlschemas/TrackPointExtension/v1">
            <gpxtpx:hr>146</gpxtpx:hr>
          </gpxtpx:TrackPointExtension>
        </extensions>
      </trkpt>
      <trkpt lat="46.14473" lon="6.26904">
        <ele>431</ele>
        <time>2021-03-02T12:11:03Z</time>
        <extensions>
          <gpxtpx:TrackPointExtension xmlns:gpxtpx="http://www.garmin.com/xmlschemas/TrackPointExtension/v1">
            <gpxtpx:hr>147</gpxtpx:hr>
          </gpxtpx:TrackPointExtension>
        </extensions>
      </trkpt>
      <trkpt lat="46.14469" lon="6.26908">
        <ele>431.3</ele>
        <time>2021-03-02T12:11:04Z</time>
        <extensions>
          <gpxtpx:TrackPointExtension xmlns:gpxtpx="http://www.garmin.com/xmlschemas/TrackPointExtension/v1">
            <gpxtpx:hr>148</gpxtpx:hr>
          </gpxtpx:TrackPointExtension>
        </extensions>
      </trkpt>
      <trkpt lat="46.14465" lon="6.26912">
        <ele>431.6</ele>
        <time>2021-03-02T12:11:05Z</time>
        <extensions>
          <gpxtpx:TrackPointExtension xmlns:gpxtpx="http://www.garmin.com/xmlschemas/TrackPointExtension/v1">
            <gpxtpx:hr>148</gpxtpx:hr>
          </gpxtpx:TrackPointExtension>
        </extensions>
      </trkpt>
      <trkpt lat="46.14461" lon="6.26916">
        <ele>431.9</ele>
        <time>2021-03-02T12:11:06Z</time>
        <extensions>
          <gpxtpx:TrackPointExtension xmlns:gpxtpx="http://www.garmin.com/xmlschemas/TrackPointExtension/v1">
            <gpxtpx:hr>149</gpxtpx:hr>
          </gpxtpx:TrackPointExtension>
        </extensions>
      </trkpt>
      <trkpt lat="46.14457" lon="6.2692">
        <ele>432.1</ele>
        <time>2021-03-02T12:11:07Z</time>
        <extensions>
          <gpxtpx:TrackPointExtension xmlns:gpxtpx="http://www.garmin.com/xmlschemas/TrackPointExtension/v1">
            <gpxtpx:hr>149</gpxtpx:hr>
          </gpxtpx:TrackPointExtension>
        </extensions>
      </trkpt>
      <trkpt lat="46.14453" lon="6.26924">
        <ele>432.4</ele>
        <time>2021-03-02T12:11:08Z</time>
        <extensions>
          <gpxtpx:TrackPointExtension xmlns:gpxtpx="http://www.garmin.com/xmlschemas/TrackPointExtension/v1">
            <gpxtpx:hr>150</gpxtpx:hr>
          </gpxtpx:TrackPointExtension>
        </extensions>
      </trkpt>
      <trkpt lat="46.14449" lon="6.26927">
        <ele>432.7</ele>
        <time>2021-03-02T12:11:09Z</time>
        <extensions>
          <gpxtpx:TrackPointExtension xmlns:gpxtpx="http://www.garmin.com/xmlschemas/TrackPointExtension/v1">
            <gpxtpx:hr>150</gpxtpx:hr>
          </gpxtpx:TrackPointExtension>
        </extensions>
      </trkpt>
      <trkpt lat="46.14445" lon="6.2693">
        <ele>433</ele>
        <time>2021-03-02T12:11:10Z</time>
        <extensions>
          <gpxtpx:TrackPointExtension xmlns:gpxtpx="http://www.garmin.com/xmlschemas/TrackPointExtension/v1">
            <gpxtpx:hr>151</gpxtpx:hr>
          </gpxtpx:TrackPointExtension>
        </extensions>
      </trkpt>
      <trkpt lat="46.14441" lon="6.26933">
        <ele>433.2</ele>
        <time>2021-03-02T12:11:11Z</time>
        <extensions>
          <gpxtpx:TrackPointExtension xmlns:gpxtpx="http://www.garmin.com/xmlschemas/TrackPointExtension/v1">
            <gpxtpx:hr>151</gpxtpx:hr>
          </gpxtpx:TrackPointExtension>
        </extensions>
      </trkpt>
      <trkpt lat="46.14437" lon="6.26936">
        <ele>433.5</ele>
        <time>2021-03-02T12:11:12Z</time>
        <extensions>
          <gpxtpx:TrackPointExtension xmlns:gpxtpx="http://www.garmin.com/xmlschemas/TrackPointExtension/v1">
            <gpxtpx:hr>151</gpxtpx:hr>
          </gpxtpx:TrackPointExtension>
        </extensions>
      </trkpt>
      <trkpt lat="46.14433" lon="6.26939">
        <ele>433.8</ele>
        <time>2021-03-02T12:11:13Z</time>
        <extensions>
          <gpxtpx:TrackPointExtension xmlns:gpxtpx="http://www.garmin.com/xmlschemas/TrackPointExtension/v1">
            <gpxtpx:hr>152</gpxtpx:hr>
          </gpxtpx:TrackPointExtension>
        </extensions>
      </trkpt>
      <trkpt lat="46.14428" lon="6.26941">
        <ele>434.1</ele>
        <time>2021-03-02T12:11:14Z</time>
        <extensions>
          <gpxtpx:TrackPointExtension xmlns:gpxtpx="http://www.garmin.com/xmlschemas/TrackPointExtension/v1">
            <gpxtpx:hr>152</gpxtpx:hr>
          </gpxtpx:TrackPointExtension>
        </extensions>
      </trkpt>
      <trkpt lat="46.14424" lon="6.26943">
        <ele>434.3</ele>
        <time>2021-03-02T12:11:15Z</time>
        <extensions>
          <gpxtpx:TrackPointExtension xmlns:gpxtpx="http://www.garmin.com/xmlschemas/TrackPointExtension/v1">
            <gpxtpx:hr>152</gpxtpx:hr>
          </gpxtpx:TrackPointExtension>
        </extensions>
      </trkpt>
      <trkpt lat="46.1442" lon="6.26945">
        <ele>434.6</ele>
        <time>2021-03-02T12:11:16Z</time>
        <extensions>
          <gpxtpx:TrackPointExtension xmlns:gpxtpx="http://www.garmin.com/xmlschemas/TrackPointExtension/v1">
            <gpxtpx:hr>152</gpxtpx:hr>
          </gpxtpx:TrackPointExtension>
        </extensions>
      </trkpt>
      <trkpt lat="46.14415" lon="6.26946">
        <ele>434.8</ele>
        <time>2021-03-02T12:11:17Z</time>
        <extensions>
          <gpxtpx:TrackPointExtension xmlns:gpxtpx="http://www.garmin.com/xmlschemas/TrackPointExtension/v1">
            <gpxtpx:hr>153</gpxtpx:hr>
          </gpxtpx:TrackPointExtension>
        </extensions>
      </trkpt>
      <trkpt lat="46.14411" lon="6.26947">
        <ele>435.1</ele>
        <time>2021-03-02T12:11:18Z</time>
        <extensions>
          <gpxtpx:TrackPointExtension xmlns:gpxtpx="http://www.garmin.com/xmlschemas/TrackPointExtension/v1">
            <gpxtpx:hr>153</gpxtpx:hr>
          </gpxtpx:TrackPointExtension>
        </extensions>
      </trkpt>
      <trkpt lat="46.14406" lon="6.26948">
        <ele>435.4</ele>
        <time>2021-03-02T12:11:19Z</time>
        <extensions>
          <gpxtpx:TrackPointExtension xmlns:gpxtpx="http://www.garmin.com/xmlschemas/TrackPointExtension/v1">
            <gpxtpx:hr>153</gpxtpx:hr>
          </gpxtpx:TrackPointExtension>
        </extensions>
      </trkpt>
      <trkpt lat="46.14402" lon="6.26948">
        <ele>435.7</ele>
        <time>2021-03-02T12:11:20Z</time>
        <extensions>
          <gpxtpx:TrackPointExtension xmlns:gpxtpx="http://www.garmin.com/xmlschemas/TrackPointExtension/v1">
            <gpxtpx:hr>153</gpxtpx:hr>
          </gpxtpx:TrackPointExtension>
        </extensions>
      </trkpt>
      <trkpt lat="46.14398" lon="6.26948">
        <ele>436</ele>
        <time>2021-03-02T12:11:21Z</time>
        <extensions>
          <gpxtpx:TrackPointExtension xmlns:gpxtpx="http://www.garmin.com/xmlschemas/TrackPointExtension/v1">
            <gpxtpx:hr>153</gpxtpx:hr>
          </gpxtpx:TrackPointExtension>
        </extensions>
      </trkpt>
      <trkpt lat="46.14393" lon="6.26948">
        <ele>436.3</ele>
        <time>2021-03-02T12:11:22Z</time>
        <extensions>
          <gpxtpx:TrackPointExtension xmlns:gpxtpx="http://www.garmin.com/xmlschemas/TrackPointExtension/v1">
            <gpxtpx:hr>153</gpxtpx:hr>
          </gpxtpx:TrackPointExtension>
        </extensions>
      </trkpt>
      <trkpt lat="46.14389" lon="6.26948">
        <ele>436.6</ele>
        <time>2021-03-02T12:11:23Z</time>
        <extensions>
          <gpxtpx:TrackPointExtension xmlns:gpxtpx="http://www.garmin.com/xmlschemas/TrackPointExtension/v1">
            <gpxtpx:hr>153</gpxtpx:hr>
          </gpxtpx:TrackPointExtension>
        </extensions>
      </trkpt>
      <trkpt lat="46.14385" lon="6.26948">
        <ele>436.9</ele>
        <time>2021-03-02T12:11:24Z</time>
        <extensions>
          <gpxtpx:TrackPointExtension xmlns:gpxtpx="http://www.garmin.com/xmlschemas/TrackPointExtension/v1">
            <gpxtpx:hr>153</gpxtpx:hr>
          </gpxtpx:TrackPointExtension>
        </extensions>
      </trkpt>
      <trkpt lat="46.1438" lon="6.26947">
        <ele>437.1</ele>
        <time>2021-03-02T12:11:25Z</time>
        <extensions>
          <gpxtpx:TrackPointExtension xmlns:gpxtpx="http://www.garmin.com/xmlschemas/TrackPointExtension/v1">
            <gpxtpx:hr>154</gpxtpx:hr>
          </gpxtpx:TrackPointExtension>
        </extensions>
      </trkpt>
      <trkpt lat="46.14376" lon="6.26946">
        <ele>437.4</ele>
        <time>2021-03-02T12:11:26Z</time>
        <extensions>
          <gpxtpx:TrackPointExtension xmlns:gpxtpx="http://www.garmin.com/xmlschemas/TrackPointExtension/v1">
            <gpxtpx:hr>154</gpxtpx:hr>
          </gpxtpx:TrackPointExtension>
        </extensions>
      </trkpt>
      <trkpt lat="46.14372" lon="6.26945">
        <ele>437.7</ele>
        <time>2021-03-02T12:11:27Z</time>
        <extensions>
          <gpxtpx:TrackPointExtension xmlns:gpxtpx="http://www.garmin.com/xmlschemas/TrackPointExtension/v1">
            <gpxtpx:hr>154</gpxtpx:hr>
          </gpxtpx:TrackPointExtension>
        </extensions>
      </trkpt>
      <trkpt lat="46.14368" lon="6.26944">
        <ele>438</ele>
        <time>2021-03-02T12:11:28Z</time>
        <extensions>
          <gpxtpx:TrackPointExtension xmlns:gpxtpx="http://www.garmin.com/xmlschemas/TrackPointExtension/v1">
            <gpxtpx:hr>154</gpxtpx:hr>
          </gpxtpx:TrackPointExtension>
        </extensions>
      </trkpt>
      <trkpt lat="46.14363" lon="6.26943">
        <ele>438.3</ele>
        <time>2021-03-02T12:11:29Z</time>
        <extensions>
          <gpxtpx:TrackPointExtension xmlns:gpxtpx="http://www.garmin.com/xmlschemas/TrackPointExtension/v1">
            <gpxtpx:hr>154</gpxtpx:hr>
          </gpxtpx:TrackPointExtension>
        </extensions>
      </trkpt>
      <trkpt lat="46.14359" lon="6.26943">
        <ele>438.5</ele>
        <time>2021-03-02T12:11:30Z</time>
        <extensions>
          <gpxtpx:TrackPointExtension xmlns:gpxtpx="http://www.garmin.com/xmlschemas/TrackPointExtension/v1">
            <gpxtpx:hr>154</gpxtpx:hr>
          </gpxtpx:TrackPointExtension>
        </extensions>
      </trkpt>
      <trkpt lat="46.14355" lon="6.26942">
        <ele>438.8</ele>
        <time>2021-03-02T12:11:31Z</time>
        <extensions>
          <gpxtpx:TrackPointExtension xmlns:gpxtpx="http://www.garmin.com/xmlschemas/TrackPointExtension/v1">
            <gpxtpx:hr>154</gpxtpx:hr>
          </gpxtpx:TrackPointExtension>
        </extensions>
      </trkpt>
      <trkpt lat="46.14351" lon="6.26941">
        <ele>439.1</ele>
        <time>2021-03-02T12:11:32Z</time>
        <extensions>
          <gpxtpx:TrackPointExtension xmlns:gpxtpx="http://www.garmin.com/xmlschemas/TrackPointExtension/v1">
            <gpxtpx:hr>155</gpxtpx:hr>
          </gpxtpx:TrackPointExtension>
        </extensions>
      </trkpt>
      <trkpt lat="46.14346" lon="6.2694">
        <ele>439.4</ele>
        <time>2021-03-02T12:11:33Z</time>
        <extensions>
          <gpxtpx:TrackPointExtension xmlns:gpxtpx="http://www.garmin.com/xmlschemas/TrackPointExtension/v1">
            <gpxtpx:hr>155</gpxtpx:hr>
          </gpxtpx:TrackPointExtension>
        </extensions>
      </trkpt>
      <trkpt lat="46.14342" lon="6.2694">
        <ele>439.7</ele>
        <time>2021-03-02T12:11:34Z</time>
        <extensions>
          <gpxtpx:TrackPointExtension xmlns:gpxtpx="http://www.garmin.com/xmlschemas/TrackPointExtension/v1">
            <gpxtpx:hr>155</gpxtpx:hr>
          </gpxtpx:TrackPointExtension>
        </extensions>
      </trkpt>
      <trkpt lat="46.14338" lon="6.26939">
        <ele>440</ele>
        <time>2021-03-02T12:11:35Z</time>
        <extensions>
          <gpxtpx:TrackPointExtension xmlns:gpxtpx="http://www.garmin.com/xmlschemas/TrackPointExtension/v1">
            <gpxtpx:hr>155</gpxtpx:hr>
          </gpxtpx:TrackPointExtension>
        </extensions>
      </trkpt>
      <trkpt lat="46.14333" lon="6.26939">
        <ele>440.3</ele>
        <time>2021-03-02T12:11:36Z</time>
        <extensions>
          <gpxtpx:TrackPointExtension xmlns:gpxtpx="http://www.garmin.com/xmlschemas/TrackPointExtension/v1">
            <gpxtpx:hr>155</gpxtpx:hr>
          </gpxtpx:TrackPointExtension>
        </extensions>
      </trkpt>
      <trkpt lat="46.14329" lon="6.26939">
        <ele>440.5</ele>
        <time>2021-03-02T12:11:37Z</time>
        <extensions>
          <gpxtpx:TrackPointExtension xmlns:gpxtpx="http://www.garmin.com/xmlschemas/TrackPointExtension/v1">
            <gpxtpx:hr>155</gpxtpx:hr>
          </gpxtpx:TrackPointExtension>
        </extensions>
      </trkpt>
      <trkpt lat="46.14325" lon="6.26939">
        <ele>440.8</ele>
        <time>2021-03-02T12:11:38Z</time>
        <extensions>
          <gpxtpx:TrackPointExtension xmlns:gpxtpx="http://www.garmin.com/xmlschemas/TrackPointExtension/v1">
            <gpxtpx:hr>155</gpxtpx:hr>
          </gpxtpx:TrackPointExtension>
        </extensions>
      </trkpt>
      <trkpt lat="46.1432" lon="6.2694">
        <ele>441.1</ele>
        <time>2021-03-02T12:11:39Z</time>
        <extensions>
          <gpxtpx:TrackPointExtension xmlns:gpxtpx="http://www.garmin.com/xmlschemas/TrackPointExtension/v1">
            <gpxtpx:hr>155</gpxtpx:hr>
          </gpxtpx:TrackPointExtension>
        </extensions>
      </trkpt>
      <trkpt lat="46.14316" lon="6.26941">
        <ele>441.3</ele>
        <time>2021-03-02T12:11:40Z</time>
        <extensions>
          <gpxtpx:TrackPointExtension xmlns:gpxtpx="http://www.garmin.com/xmlschemas/TrackPointExtension/v1">
            <gpxtpx:hr>155</gpxtpx:hr>
          </gpxtpx:TrackPointExtension>
        </extensions>
      </trkpt>
      <trkpt lat="46.14312" lon="6.26942">
        <ele>441.6</ele>
        <time>2021-03-02T12:11:41Z</time>
        <extensions>
          <gpxtpx:TrackPointExtension xmlns:gpxtpx="http://www.garmin.com/xmlschemas/TrackPointExtension/v1">
            <gpxtpx:hr>155</gpxtpx:hr>
          </gpxtpx:TrackPointExtension>
        </extensions>
      </trkpt>
      <trkpt lat="46.14308" lon="6.26943">
        <ele>441.9</ele>
        <time>2021-03-02T12:11:42Z</time>
        <extensions>
          <gpxtpx:TrackPointExtension xmlns:gpxtpx="http://www.garmin.com/xmlschemas/TrackPointExtension/v1">
            <gpxtpx:hr>155</gpxtpx:hr>
          </gpxtpx:TrackPointExtension>
        </extensions>
      </trkpt>
      <trkpt lat="46.14303" lon="6.26944">
        <ele>442.2</ele>
        <time>2021-03-02T12:11:43Z</time>
        <extensions>
          <gpxtpx:TrackPointExtension xmlns:gpxtpx="http://www.garmin.com/xmlschemas/TrackPointExtension/v1">
            <gpxtpx:hr>155</gpxtpx:hr>
          </gpxtpx:TrackPointExtension>
        </extensions>
      </trkpt>
      <trkpt lat="46.14299" lon="6.26946">
        <ele>442.4</ele>
        <time>2021-03-02T12:11:44Z</time>
        <extensions>
          <gpxtpx:TrackPointExtension xmlns:gpxtpx="http://www.garmin.com/xmlschemas/TrackPointExtension/v1">
            <gpxtpx:hr>155</gpxtpx:hr>
          </gpxtpx:TrackPointExtension>
        </extensions>
      </trkpt>
      <trkpt lat="46.14295" lon="6.26948">
        <ele>442.7</ele>
        <time>2021-03-02T12:11:45Z</time>
        <extensions>
          <gpxtpx:TrackPointExtension xmlns:gpxtpx="http://www.garmin.com/xmlschemas/TrackPointExtension/v1">
            <gpxtpx:hr>155</gpxtpx:hr>
          </gpxtpx:TrackPointExtension>
        </extensions>
      </trkpt>
      <trkpt lat="46.14291" lon="6.2695">
        <ele>442.9</ele>
        <time>2021-03-02T12:11:46Z</time>
        <extensions>
          <gpxtpx:TrackPointExtension xmlns:gpxtpx="http://www.garmin.com/xmlschemas/TrackPointExtension/v1">
            <gpxtpx:hr>155</gpxtpx:hr>
          </gpxtpx:TrackPointExtension>
        </extensions>
      </trkpt>
      <trkpt lat="46.14287" lon="6.26951">
        <ele>443.2</ele>
        <time>2021-03-02T12:11:47Z</time>
        <extensions>
          <gpxtpx:TrackPointExtension xmlns:gpxtpx="http://www.garmin.com/xmlschemas/TrackPointExtension/v1">
            <gpxtpx:hr>155</gpxtpx:hr>
          </gpxtpx:TrackPointExtension>
        </extensions>
      </trkpt>
      <trkpt lat="46.14283" lon="6.26953">
        <ele>443.4</ele>
        <time>2021-03-02T12:11:48Z</time>
        <extensions>
          <gpxtpx:TrackPointExtension xmlns:gpxtpx="http://www.garmin.com/xmlschemas/TrackPointExtension/v1">
            <gpxtpx:hr>155</gpxtpx:hr>
          </gpxtpx:TrackPointExtension>
        </extensions>
      </trkpt>
      <trkpt lat="46.14279" lon="6.26955">
        <ele>443.6</ele>
        <time>2021-03-02T12:11:49Z</time>
        <extensions>
          <gpxtpx:TrackPointExtension xmlns:gpxtpx="http://www.garmin.com/xmlschemas/TrackPointExtension/v1">
            <gpxtpx:hr>155</gpxtpx:hr>
          </gpxtpx:TrackPointExtension>
        </extensions>
      </trkpt>
      <trkpt lat="46.14276" lon="6.26957">
        <ele>443.9</ele>
        <time>2021-03-02T12:11:50Z</time>
        <extensions>
          <gpxtpx:TrackPointExtension xmlns:gpxtpx="http://www.garmin.com/xmlschemas/TrackPointExtension/v1">
            <gpxtpx:hr>155</gpxtpx:hr>
          </gpxtpx:TrackPointExtension>
        </extensions>
      </trkpt>
      <trkpt lat="46.14272" lon="6.26959">
        <ele>444.1</ele>
        <time>2021-03-02T12:11:51Z</time>
        <extensions>
          <gpxtpx:TrackPointExtension xmlns:gpxtpx="http://www.garmin.com/xmlschemas/TrackPointExtension/v1">
            <gpxtpx:hr>155</gpxtpx:hr>
          </gpxtpx:TrackPointExtension>
        </extensions>
      </trkpt>
      <trkpt lat="46.14268" lon="6.26962">
        <ele>444.3</ele>
        <time>2021-03-02T12:11:52Z</time>
        <extensions>
          <gpxtpx:TrackPointExtension xmlns:gpxtpx="http://www.garmin.com/xmlschemas/TrackPointExtension/v1">
            <gpxtpx:hr>155</gpxtpx:hr>
          </gpxtpx:TrackPointExtension>
        </extensions>
      </trkpt>
      <trkpt lat="46.14263" lon="6.26963">
        <ele>444.5</ele>
        <time>2021-03-02T12:11:53Z</time>
        <extensions>
          <gpxtpx:TrackPointExtension xmlns:gpxtpx="http://www.garmin.com/xmlschemas/TrackPointExtension/v1">
            <gpxtpx:hr>155</gpxtpx:hr>
          </gpxtpx:TrackPointExtension>
        </extensions>
      </trkpt>
      <trkpt lat="46.14259" lon="6.26965">
        <ele>444.8</ele>
        <time>2021-03-02T12:11:54Z</time>
        <extensions>
          <gpxtpx:TrackPointExtension xmlns:gpxtpx="http://www.garmin.com/xmlschemas/TrackPointExtension/v1">
            <gpxtpx:hr>156</gpxtpx:hr>
          </gpxtpx:TrackPointExtension>
        </extensions>
      </trkpt>
      <trkpt lat="46.14255" lon="6.26967">
        <ele>445</ele>
        <time>2021-03-02T12:11:55Z</time>
        <extensions>
          <gpxtpx:TrackPointExtension xmlns:gpxtpx="http://www.garmin.com/xmlschemas/TrackPointExtension/v1">
            <gpxtpx:hr>156</gpxtpx:hr>
          </gpxtpx:TrackPointExtension>
        </extensions>
      </trkpt>
      <trkpt lat="46.14251" lon="6.26969">
        <ele>445.2</ele>
        <time>2021-03-02T12:11:56Z</time>
        <extensions>
          <gpxtpx:TrackPointExtension xmlns:gpxtpx="http://www.garmin.com/xmlschemas/TrackPointExtension/v1">
            <gpxtpx:hr>156</gpxtpx:hr>
          </gpxtpx:TrackPointExtension>
        </extensions>
      </trkpt>
      <trkpt lat="46.14247" lon="6.2697">
        <ele>445.5</ele>
        <time>2021-03-02T12:11:57Z</time>
        <extensions>
          <gpxtpx:TrackPointExtension xmlns:gpxtpx="http://www.garmin.com/xmlschemas/TrackPointExtension/v1">
            <gpxtpx:hr>156</gpxtpx:hr>
          </gpxtpx:TrackPointExtension>
        </extensions>
      </trkpt>
      <trkpt lat="46.14243" lon="6.26972">
        <ele>445.7</ele>
        <time>2021-03-02T12:11:58Z</time>
        <extensions>
          <gpxtpx:TrackPointExtension xmlns:gpxtpx="http://www.garmin.com/xmlschemas/TrackPointExtension/v1">
            <gpxtpx:hr>156</gpxtpx:hr>
          </gpxtpx:TrackPointExtension>
        </extensions>
      </trkpt>
      <trkpt lat="46.14239" lon="6.26973">
        <ele>446</ele>
        <time>2021-03-02T12:11:59Z</time>
        <extensions>
          <gpxtpx:TrackPointExtension xmlns:gpxtpx="http://www.garmin.com/xmlschemas/TrackPointExtension/v1">
            <gpxtpx:hr>156</gpxtpx:hr>
          </gpxtpx:TrackPointExtension>
        </extensions>
      </trkpt>
      <trkpt lat="46.14234" lon="6.26975">
        <ele>446.2</ele>
        <time>2021-03-02T12:12:00Z</time>
        <extensions>
          <gpxtpx:TrackPointExtension xmlns:gpxtpx="http://www.garmin.com/xmlschemas/TrackPointExtension/v1">
            <gpxtpx:hr>156</gpxtpx:hr>
          </gpxtpx:TrackPointExtension>
        </extensions>
      </trkpt>
      <trkpt lat="46.1423" lon="6.26976">
        <ele>446.5</ele>
        <time>2021-03-02T12:12:01Z</time>
        <extensions>
          <gpxtpx:TrackPointExtension xmlns:gpxtpx="http://www.garmin.com/xmlschemas/TrackPointExtension/v1">
            <gpxtpx:hr>156</gpxtpx:hr>
          </gpxtpx:TrackPointExtension>
        </extensions>
      </trkpt>
      <trkpt lat="46.14226" lon="6.26977">
        <ele>446.7</ele>
        <time>2021-03-02T12:12:02Z</time>
        <extensions>
          <gpxtpx:TrackPointExtension xmlns:gpxtpx="http://www.garmin.com/xmlschemas/TrackPointExtension/v1">
            <gpxtpx:hr>156</gpxtpx:hr>
          </gpxtpx:TrackPointExtension>
        </extensions>
      </trkpt>
      <trkpt lat="46.14223" lon="6.26979">
        <ele>446.9</ele>
        <time>2021-03-02T12:12:03Z</time>
        <extensions>
          <gpxtpx:TrackPointExtension xmlns:gpxtpx="http://www.garmin.com/xmlschemas/TrackPointExtension/v1">
            <gpxtpx:hr>156</gpxtpx:hr>
          </gpxtpx:TrackPointExtension>
        </extensions>
      </trkpt>
      <trkpt lat="46.14219" lon="6.26979">
        <ele>447.2</ele>
        <time>2021-03-02T12:12:04Z</time>
        <extensions>
          <gpxtpx:TrackPointExtension xmlns:gpxtpx="http://www.garmin.com/xmlschemas/TrackPointExtension/v1">
            <gpxtpx:hr>156</gpxtpx:hr>
          </gpxtpx:TrackPointExtension>
        </extensions>
      </trkpt>
      <trkpt lat="46.14214" lon="6.2698">
        <ele>447.5</ele>
        <time>2021-03-02T12:12:05Z</time>
        <extensions>
          <gpxtpx:TrackPointExtension xmlns:gpxtpx="http://www.garmin.com/xmlschemas/TrackPointExtension/v1">
            <gpxtpx:hr>156</gpxtpx:hr>
          </gpxtpx:TrackPointExtension>
        </extensions>
      </trkpt>
      <trkpt lat="46.1421" lon="6.2698">
        <ele>447.7</ele>
        <time>2021-03-02T12:12:06Z</time>
        <extensions>
          <gpxtpx:TrackPointExtension xmlns:gpxtpx="http://www.garmin.com/xmlschemas/TrackPointExtension/v1">
            <gpxtpx:hr>156</gpxtpx:hr>
          </gpxtpx:TrackPointExtension>
        </extensions>
      </trkpt>
      <trkpt lat="46.14207" lon="6.2698">
        <ele>447.9</ele>
        <time>2021-03-02T12:12:07Z</time>
        <extensions>
          <gpxtpx:TrackPointExtension xmlns:gpxtpx="http://www.garmin.com/xmlschemas/TrackPointExtension/v1">
            <gpxtpx:hr>155</gpxtpx:hr>
          </gpxtpx:TrackPointExtension>
        </extensions>
      </trkpt>
      <trkpt lat="46.14203" lon="6.2698">
        <ele>448.2</ele>
        <time>2021-03-02T12:12:08Z</time>
        <extensions>
          <gpxtpx:TrackPointExtension xmlns:gpxtpx="http://www.garmin.com/xmlschemas/TrackPointExtension/v1">
            <gpxtpx:hr>155</gpxtpx:hr>
          </gpxtpx:TrackPointExtension>
        </extensions>
      </trkpt>
      <trkpt lat="46.14199" lon="6.2698">
        <ele>448.4</ele>
        <time>2021-03-02T12:12:09Z</time>
        <extensions>
          <gpxtpx:TrackPointExtension xmlns:gpxtpx="http://www.garmin.com/xmlschemas/TrackPointExtension/v1">
            <gpxtpx:hr>155</gpxtpx:hr>
          </gpxtpx:TrackPointExtension>
        </extensions>
      </trkpt>
      <trkpt lat="46.14195" lon="6.26979">
        <ele>448.6</ele>
        <time>2021-03-02T12:12:10Z</time>
        <extensions>
          <gpxtpx:TrackPointExtension xmlns:gpxtpx="http://www.garmin.com/xmlschemas/TrackPointExtension/v1">
            <gpxtpx:hr>155</gpxtpx:hr>
          </gpxtpx:TrackPointExtension>
        </extensions>
      </trkpt>
      <trkpt lat="46.14192" lon="6.26979">
        <ele>448.8</ele>
        <time>2021-03-02T12:12:11Z</time>
        <extensions>
          <gpxtpx:TrackPointExtension xmlns:gpxtpx="http://www.garmin.com/xmlschemas/TrackPointExtension/v1">
            <gpxtpx:hr>155</gpxtpx:hr>
          </gpxtpx:TrackPointExtension>
        </extensions>
      </trkpt>
      <trkpt lat="46.14188" lon="6.26978">
        <ele>449.1</ele>
        <time>2021-03-02T12:12:12Z</time>
        <extensions>
          <gpxtpx:TrackPointExtension xmlns:gpxtpx="http://www.garmin.com/xmlschemas/TrackPointExtension/v1">
            <gpxtpx:hr>155</gpxtpx:hr>
          </gpxtpx:TrackPointExtension>
        </extensions>
      </trkpt>
      <trkpt lat="46.14185" lon="6.26977">
        <ele>449.3</ele>
        <time>2021-03-02T12:12:13Z</time>
        <extensions>
          <gpxtpx:TrackPointExtension xmlns:gpxtpx="http://www.garmin.com/xmlschemas/TrackPointExtension/v1">
            <gpxtpx:hr>155</gpxtpx:hr>
          </gpxtpx:TrackPointExtension>
        </extensions>
      </trkpt>
      <trkpt lat="46.1418" lon="6.26975">
        <ele>449.6</ele>
        <time>2021-03-02T12:12:14Z</time>
        <extensions>
          <gpxtpx:TrackPointExtension xmlns:gpxtpx="http://www.garmin.com/xmlschemas/TrackPointExtension/v1">
            <gpxtpx:hr>154</gpxtpx:hr>
          </gpxtpx:TrackPointExtension>
        </extensions>
      </trkpt>
      <trkpt lat="46.14176" lon="6.26973">
        <ele>449.8</ele>
        <time>2021-03-02T12:12:15Z</time>
        <extensions>
          <gpxtpx:TrackPointExtension xmlns:gpxtpx="http://www.garmin.com/xmlschemas/TrackPointExtension/v1">
            <gpxtpx:hr>154</gpxtpx:hr>
          </gpxtpx:TrackPointExtension>
        </extensions>
      </trkpt>
      <trkpt lat="46.14172" lon="6.2697">
        <ele>450.1</ele>
        <time>2021-03-02T12:12:16Z</time>
        <extensions>
          <gpxtpx:TrackPointExtension xmlns:gpxtpx="http://www.garmin.com/xmlschemas/TrackPointExtension/v1">
            <gpxtpx:hr>154</gpxtpx:hr>
          </gpxtpx:TrackPointExtension>
        </extensions>
      </trkpt>
      <trkpt lat="46.14168" lon="6.26968">
        <ele>450.3</ele>
        <time>2021-03-02T12:12:17Z</time>
        <extensions>
          <gpxtpx:TrackPointExtension xmlns:gpxtpx="http://www.garmin.com/xmlschemas/TrackPointExtension/v1">
            <gpxtpx:hr>154</gpxtpx:hr>
          </gpxtpx:TrackPointExtension>
        </extensions>
      </trkpt>
      <trkpt lat="46.14165" lon="6.26966">
        <ele>450.6</ele>
        <time>2021-03-02T12:12:18Z</time>
        <extensions>
          <gpxtpx:TrackPointExtension xmlns:gpxtpx="http://www.garmin.com/xmlschemas/TrackPointExtension/v1">
            <gpxtpx:hr>155</gpxtpx:hr>
          </gpxtpx:TrackPointExtension>
        </extensions>
      </trkpt>
      <trkpt lat="46.14161" lon="6.26964">
        <ele>450.8</ele>
        <time>2021-03-02T12:12:19Z</time>
        <extensions>
          <gpxtpx:TrackPointExtension xmlns:gpxtpx="http://www.garmin.com/xmlschemas/TrackPointExtension/v1">
            <gpxtpx:hr>155</gpxtpx:hr>
          </gpxtpx:TrackPointExtension>
        </extensions>
      </trkpt>
      <trkpt lat="46.14157" lon="6.26962">
        <ele>451</ele>
        <time>2021-03-02T12:12:20Z</time>
        <extensions>
          <gpxtpx:TrackPointExtension xmlns:gpxtpx="http://www.garmin.com/xmlschemas/TrackPointExtension/v1">
            <gpxtpx:hr>155</gpxtpx:hr>
          </gpxtpx:TrackPointExtension>
        </extensions>
      </trkpt>
      <trkpt lat="46.14153" lon="6.2696">
        <ele>451.3</ele>
        <time>2021-03-02T12:12:21Z</time>
        <extensions>
          <gpxtpx:TrackPointExtension xmlns:gpxtpx="http://www.garmin.com/xmlschemas/TrackPointExtension/v1">
            <gpxtpx:hr>155</gpxtpx:hr>
          </gpxtpx:TrackPointExtension>
        </extensions>
      </trkpt>
      <trkpt lat="46.14149" lon="6.26957">
        <ele>451.5</ele>
        <time>2021-03-02T12:12:22Z</time>
        <extensions>
          <gpxtpx:TrackPointExtension xmlns:gpxtpx="http://www.garmin.com/xmlschemas/TrackPointExtension/v1">
            <gpxtpx:hr>155</gpxtpx:hr>
          </gpxtpx:TrackPointExtension>
        </extensions>
      </trkpt>
      <trkpt lat="46.14145" lon="6.26955">
        <ele>451.7</ele>
        <time>2021-03-02T12:12:23Z</time>
        <extensions>
          <gpxtpx:TrackPointExtension xmlns:gpxtpx="http://www.garmin.com/xmlschemas/TrackPointExtension/v1">
            <gpxtpx:hr>155</gpxtpx:hr>
          </gpxtpx:TrackPointExtension>
        </extensions>
      </trkpt>
      <trkpt lat="46.14141" lon="6.26953">
        <ele>451.9</ele>
        <time>2021-03-02T12:12:24Z</time>
        <extensions>
          <gpxtpx:TrackPointExtension xmlns:gpxtpx="http://www.garmin.com/xmlschemas/TrackPointExtension/v1">
            <gpxtpx:hr>155</gpxtpx:hr>
          </gpxtpx:TrackPointExtension>
        </extensions>
      </trkpt>
      <trkpt lat="46.14137" lon="6.2695">
        <ele>452.2</ele>
        <time>2021-03-02T12:12:25Z</time>
        <extensions>
          <gpxtpx:TrackPointExtension xmlns:gpxtpx="http://www.garmin.com/xmlschemas/TrackPointExtension/v1">
            <gpxtpx:hr>155</gpxtpx:hr>
          </gpxtpx:TrackPointExtension>
        </extensions>
      </trkpt>
      <trkpt lat="46.14133" lon="6.26947">
        <ele>452.5</ele>
        <time>2021-03-02T12:12:26Z</time>
        <extensions>
          <gpxtpx:TrackPointExtension xmlns:gpxtpx="http://www.garmin.com/xmlschemas/TrackPointExtension/v1">
            <gpxtpx:hr>156</gpxtpx:hr>
          </gpxtpx:TrackPointExtension>
        </extensions>
      </trkpt>
      <trkpt lat="46.14128" lon="6.26945">
        <ele>452.7</ele>
        <time>2021-03-02T12:12:27Z</time>
        <extensions>
          <gpxtpx:TrackPointExtension xmlns:gpxtpx="http://www.garmin.com/xmlschemas/TrackPointExtension/v1">
            <gpxtpx:hr>156</gpxtpx:hr>
          </gpxtpx:TrackPointExtension>
        </extensions>
      </trkpt>
      <trkpt lat="46.14124" lon="6.26942">
        <ele>453</ele>
        <time>2021-03-02T12:12:28Z</time>
        <extensions>
          <gpxtpx:TrackPointExtension xmlns:gpxtpx="http://www.garmin.com/xmlschemas/TrackPointExtension/v1">
            <gpxtpx:hr>156</gpxtpx:hr>
          </gpxtpx:TrackPointExtension>
        </extensions>
      </trkpt>
      <trkpt lat="46.1412" lon="6.2694">
        <ele>453.2</ele>
        <time>2021-03-02T12:12:29Z</time>
        <extensions>
          <gpxtpx:TrackPointExtension xmlns:gpxtpx="http://www.garmin.com/xmlschemas/TrackPointExtension/v1">
            <gpxtpx:hr>156</gpxtpx:hr>
          </gpxtpx:TrackPointExtension>
        </extensions>
      </trkpt>
      <trkpt lat="46.14115" lon="6.26937">
        <ele>453.5</ele>
        <time>2021-03-02T12:12:30Z</time>
        <extensions>
          <gpxtpx:TrackPointExtension xmlns:gpxtpx="http://www.garmin.com/xmlschemas/TrackPointExtension/v1">
            <gpxtpx:hr>156</gpxtpx:hr>
          </gpxtpx:TrackPointExtension>
        </extensions>
      </trkpt>
      <trkpt lat="46.14111" lon="6.26934">
        <ele>453.7</ele>
        <time>2021-03-02T12:12:31Z</time>
        <extensions>
          <gpxtpx:TrackPointExtension xmlns:gpxtpx="http://www.garmin.com/xmlschemas/TrackPointExtension/v1">
            <gpxtpx:hr>157</gpxtpx:hr>
          </gpxtpx:TrackPointExtension>
        </extensions>
      </trkpt>
      <trkpt lat="46.14107" lon="6.26932">
        <ele>454</ele>
        <time>2021-03-02T12:12:32Z</time>
        <extensions>
          <gpxtpx:TrackPointExtension xmlns:gpxtpx="http://www.garmin.com/xmlschemas/TrackPointExtension/v1">
            <gpxtpx:hr>157</gpxtpx:hr>
          </gpxtpx:TrackPointExtension>
        </extensions>
      </trkpt>
      <trkpt lat="46.14103" lon="6.26929">
        <ele>454.2</ele>
        <time>2021-03-02T12:12:33Z</time>
        <extensions>
          <gpxtpx:TrackPointExtension xmlns:gpxtpx="http://www.garmin.com/xmlschemas/TrackPointExtension/v1">
            <gpxtpx:hr>157</gpxtpx:hr>
          </gpxtpx:TrackPointExtension>
        </extensions>
      </trkpt>
      <trkpt lat="46.14098" lon="6.26927">
        <ele>454.5</ele>
        <time>2021-03-02T12:12:34Z</time>
        <extensions>
          <gpxtpx:TrackPointExtension xmlns:gpxtpx="http://www.garmin.com/xmlschemas/TrackPointExtension/v1">
            <gpxtpx:hr>157</gpxtpx:hr>
          </gpxtpx:TrackPointExtension>
        </extensions>
      </trkpt>
      <trkpt lat="46.14094" lon="6.26924">
        <ele>454.7</ele>
        <time>2021-03-02T12:12:35Z</time>
        <extensions>
          <gpxtpx:TrackPointExtension xmlns:gpxtpx="http://www.garmin.com/xmlschemas/TrackPointExtension/v1">
            <gpxtpx:hr>156</gpxtpx:hr>
          </gpxtpx:TrackPointExtension>
        </extensions>
      </trkpt>
      <trkpt lat="46.1409" lon="6.26922">
        <ele>455</ele>
        <time>2021-03-02T12:12:36Z</time>
        <extensions>
          <gpxtpx:TrackPointExtension xmlns:gpxtpx="http://www.garmin.com/xmlschemas/TrackPointExtension/v1">
            <gpxtpx:hr>156</gpxtpx:hr>
          </gpxtpx:TrackPointExtension>
        </extensions>
      </trkpt>
      <trkpt lat="46.14085" lon="6.26919">
        <ele>455.2</ele>
        <time>2021-03-02T12:12:37Z</time>
        <extensions>
          <gpxtpx:TrackPointExtension xmlns:gpxtpx="http://www.garmin.com/xmlschemas/TrackPointExtension/v1">
            <gpxtpx:hr>156</gpxtpx:hr>
          </gpxtpx:TrackPointExtension>
        </extensions>
      </trkpt>
      <trkpt lat="46.1408" lon="6.26916">
        <ele>455.5</ele>
        <time>2021-03-02T12:12:38Z</time>
        <extensions>
          <gpxtpx:TrackPointExtension xmlns:gpxtpx="http://www.garmin.com/xmlschemas/TrackPointExtension/v1">
            <gpxtpx:hr>156</gpxtpx:hr>
          </gpxtpx:TrackPointExtension>
        </extensions>
      </trkpt>
      <trkpt lat="46.14076" lon="6.26914">
        <ele>455.7</ele>
        <time>2021-03-02T12:12:39Z</time>
        <extensions>
          <gpxtpx:TrackPointExtension xmlns:gpxtpx="http://www.garmin.com/xmlschemas/TrackPointExtension/v1">
            <gpxtpx:hr>156</gpxtpx:hr>
          </gpxtpx:TrackPointExtension>
        </extensions>
      </trkpt>
      <trkpt lat="46.14072" lon="6.26911">
        <ele>456</ele>
        <time>2021-03-02T12:12:40Z</time>
        <extensions>
          <gpxtpx:TrackPointExtension xmlns:gpxtpx="http://www.garmin.com/xmlschemas/TrackPointExtension/v1">
            <gpxtpx:hr>156</gpxtpx:hr>
          </gpxtpx:TrackPointExtension>
        </extensions>
      </trkpt>
      <trkpt lat="46.14067" lon="6.26909">
        <ele>456.2</ele>
        <time>2021-03-02T12:12:41Z</time>
        <extensions>
          <gpxtpx:TrackPointExtension xmlns:gpxtpx="http://www.garmin.com/xmlschemas/TrackPointExtension/v1">
            <gpxtpx:hr>156</gpxtpx:hr>
          </gpxtpx:TrackPointExtension>
        </extensions>
      </trkpt>
      <trkpt lat="46.14063" lon="6.26906">
        <ele>456.5</ele>
        <time>2021-03-02T12:12:42Z</time>
        <extensions>
          <gpxtpx:TrackPointExtension xmlns:gpxtpx="http://www.garmin.com/xmlschemas/TrackPointExtension/v1">
            <gpxtpx:hr>155</gpxtpx:hr>
          </gpxtpx:TrackPointExtension>
        </extensions>
      </trkpt>
      <trkpt lat="46.14058" lon="6.26904">
        <ele>456.7</ele>
        <time>2021-03-02T12:12:43Z</time>
        <extensions>
          <gpxtpx:TrackPointExtension xmlns:gpxtpx="http://www.garmin.com/xmlschemas/TrackPointExtension/v1">
            <gpxtpx:hr>155</gpxtpx:hr>
          </gpxtpx:TrackPointExtension>
        </extensions>
      </trkpt>
      <trkpt lat="46.14054" lon="6.26901">
        <ele>457</ele>
        <time>2021-03-02T12:12:44Z</time>
        <extensions>
          <gpxtpx:TrackPointExtension xmlns:gpxtpx="http://www.garmin.com/xmlschemas/TrackPointExtension/v1">
            <gpxtpx:hr>155</gpxtpx:hr>
          </gpxtpx:TrackPointExtension>
        </extensions>
      </trkpt>
      <trkpt lat="46.14049" lon="6.26899">
        <ele>457.2</ele>
        <time>2021-03-02T12:12:45Z</time>
        <extensions>
          <gpxtpx:TrackPointExtension xmlns:gpxtpx="http://www.garmin.com/xmlschemas/TrackPointExtension/v1">
            <gpxtpx:hr>155</gpxtpx:hr>
          </gpxtpx:TrackPointExtension>
        </extensions>
      </trkpt>
      <trkpt lat="46.14045" lon="6.26896">
        <ele>457.4</ele>
        <time>2021-03-02T12:12:46Z</time>
        <extensions>
          <gpxtpx:TrackPointExtension xmlns:gpxtpx="http://www.garmin.com/xmlschemas/TrackPointExtension/v1">
            <gpxtpx:hr>155</gpxtpx:hr>
          </gpxtpx:TrackPointExtension>
        </extensions>
      </trkpt>
      <trkpt lat="46.14041" lon="6.26893">
        <ele>457.7</ele>
        <time>2021-03-02T12:12:47Z</time>
        <extensions>
          <gpxtpx:TrackPointExtension xmlns:gpxtpx="http://www.garmin.com/xmlschemas/TrackPointExtension/v1">
            <gpxtpx:hr>155</gpxtpx:hr>
          </gpxtpx:TrackPointExtension>
        </extensions>
      </trkpt>
      <trkpt lat="46.14036" lon="6.26891">
        <ele>458</ele>
        <time>2021-03-02T12:12:48Z</time>
        <extensions>
          <gpxtpx:TrackPointExtension xmlns:gpxtpx="http://www.garmin.com/xmlschemas/TrackPointExtension/v1">
            <gpxtpx:hr>155</gpxtpx:hr>
          </gpxtpx:TrackPointExtension>
        </extensions>
      </trkpt>
      <trkpt lat="46.14032" lon="6.26888">
        <ele>458.2</ele>
        <time>2021-03-02T12:12:49Z</time>
        <extensions>
          <gpxtpx:TrackPointExtension xmlns:gpxtpx="http://www.garmin.com/xmlschemas/TrackPointExtension/v1">
            <gpxtpx:hr>155</gpxtpx:hr>
          </gpxtpx:TrackPointExtension>
        </extensions>
      </trkpt>
      <trkpt lat="46.14028" lon="6.26886">
        <ele>458.5</ele>
        <time>2021-03-02T12:12:50Z</time>
        <extensions>
          <gpxtpx:TrackPointExtension xmlns:gpxtpx="http://www.garmin.com/xmlschemas/TrackPointExtension/v1">
            <gpxtpx:hr>155</gpxtpx:hr>
          </gpxtpx:TrackPointExtension>
        </extensions>
      </trkpt>
      <trkpt lat="46.14023" lon="6.26883">
        <ele>458.7</ele>
        <time>2021-03-02T12:12:51Z</time>
        <extensions>
          <gpxtpx:TrackPointExtension xmlns:gpxtpx="http://www.garmin.com/xmlschemas/TrackPointExtension/v1">
            <gpxtpx:hr>155</gpxtpx:hr>
          </gpxtpx:TrackPointExtension>
        </extensions>
      </trkpt>
      <trkpt lat="46.14019" lon="6.26881">
        <ele>459</ele>
        <time>2021-03-02T12:12:52Z</time>
        <extensions>
          <gpxtpx:TrackPointExtension xmlns:gpxtpx="http://www.garmin.com/xmlschemas/TrackPointExtension/v1">
            <gpxtpx:hr>155</gpxtpx:hr>
          </gpxtpx:TrackPointExtension>
        </extensions>
      </trkpt>
      <trkpt lat="46.14015" lon="6.26878">
        <ele>459.2</ele>
        <time>2021-03-02T12:12:53Z</time>
        <extensions>
          <gpxtpx:TrackPointExtension xmlns:gpxtpx="http://www.garmin.com/xmlschemas/TrackPointExtension/v1">
            <gpxtpx:hr>155</gpxtpx:hr>
          </gpxtpx:TrackPointExtension>
        </extensions>
      </trkpt>
      <trkpt lat="46.14011" lon="6.26875">
        <ele>459.4</ele>
        <time>2021-03-02T12:12:54Z</time>
        <extensions>
          <gpxtpx:TrackPointExtension xmlns:gpxtpx="http://www.garmin.com/xmlschemas/TrackPointExtension/v1">
            <gpxtpx:hr>155</gpxtpx:hr>
          </gpxtpx:TrackPointExtension>
        </extensions>
      </trkpt>
      <trkpt lat="46.14007" lon="6.26873">
        <ele>459.7</ele>
        <time>2021-03-02T12:12:55Z</time>
        <extensions>
          <gpxtpx:TrackPointExtension xmlns:gpxtpx="http://www.garmin.com/xmlschemas/TrackPointExtension/v1">
            <gpxtpx:hr>155</gpxtpx:hr>
          </gpxtpx:TrackPointExtension>
        </extensions>
      </trkpt>
      <trkpt lat="46.14003" lon="6.2687">
        <ele>459.9</ele>
        <time>2021-03-02T12:12:56Z</time>
        <extensions>
          <gpxtpx:TrackPointExtension xmlns:gpxtpx="http://www.garmin.com/xmlschemas/TrackPointExtension/v1">
            <gpxtpx:hr>155</gpxtpx:hr>
          </gpxtpx:TrackPointExtension>
        </extensions>
      </trkpt>
      <trkpt lat="46.13999" lon="6.26867">
        <ele>460.2</ele>
        <time>2021-03-02T12:12:57Z</time>
        <extensions>
          <gpxtpx:TrackPointExtension xmlns:gpxtpx="http://www.garmin.com/xmlschemas/TrackPointExtension/v1">
            <gpxtpx:hr>155</gpxtpx:hr>
          </gpxtpx:TrackPointExtension>
        </extensions>
      </trkpt>
      <trkpt lat="46.13995" lon="6.26865">
        <ele>460.4</ele>
        <time>2021-03-02T12:12:58Z</time>
        <extensions>
          <gpxtpx:TrackPointExtension xmlns:gpxtpx="http://www.garmin.com/xmlschemas/TrackPointExtension/v1">
            <gpxtpx:hr>156</gpxtpx:hr>
          </gpxtpx:TrackPointExtension>
        </extensions>
      </trkpt>
      <trkpt lat="46.13991" lon="6.26862">
        <ele>460.7</ele>
        <time>2021-03-02T12:12:59Z</time>
        <extensions>
          <gpxtpx:TrackPointExtension xmlns:gpxtpx="http://www.garmin.com/xmlschemas/TrackPointExtension/v1">
            <gpxtpx:hr>156</gpxtpx:hr>
          </gpxtpx:TrackPointExtension>
        </extensions>
      </trkpt>
      <trkpt lat="46.13987" lon="6.26859">
        <ele>460.9</ele>
        <time>2021-03-02T12:13:00Z</time>
        <extensions>
          <gpxtpx:TrackPointExtension xmlns:gpxtpx="http://www.garmin.com/xmlschemas/TrackPointExtension/v1">
            <gpxtpx:hr>156</gpxtpx:hr>
          </gpxtpx:TrackPointExtension>
        </extensions>
      </trkpt>
      <trkpt lat="46.13982" lon="6.26857">
        <ele>461.2</ele>
        <time>2021-03-02T12:13:01Z</time>
        <extensions>
          <gpxtpx:TrackPointExtension xmlns:gpxtpx="http://www.garmin.com/xmlschemas/TrackPointExtension/v1">
            <gpxtpx:hr>156</gpxtpx:hr>
          </gpxtpx:TrackPointExtension>
        </extensions>
      </trkpt>
      <trkpt lat="46.13978" lon="6.26854">
        <ele>461.5</ele>
        <time>2021-03-02T12:13:02Z</time>
        <extensions>
          <gpxtpx:TrackPointExtension xmlns:gpxtpx="http://www.garmin.com/xmlschemas/TrackPointExtension/v1">
            <gpxtpx:hr>156</gpxtpx:hr>
          </gpxtpx:TrackPointExtension>
        </extensions>
      </trkpt>
      <trkpt lat="46.13974" lon="6.26852">
        <ele>461.7</ele>
        <time>2021-03-02T12:13:03Z</time>
        <extensions>
          <gpxtpx:TrackPointExtension xmlns:gpxtpx="http://www.garmin.com/xmlschemas/TrackPointExtension/v1">
            <gpxtpx:hr>156</gpxtpx:hr>
          </gpxtpx:TrackPointExtension>
        </extensions>
      </trkpt>
      <trkpt lat="46.1397" lon="6.2685">
        <ele>462</ele>
        <time>2021-03-02T12:13:04Z</time>
        <extensions>
          <gpxtpx:TrackPointExtension xmlns:gpxtpx="http://www.garmin.com/xmlschemas/TrackPointExtension/v1">
            <gpxtpx:hr>156</gpxtpx:hr>
          </gpxtpx:TrackPointExtension>
        </extensions>
      </trkpt>
      <trkpt lat="46.13966" lon="6.26848">
        <ele>462.2</ele>
        <time>2021-03-02T12:13:05Z</time>
        <extensions>
          <gpxtpx:TrackPointExtension xmlns:gpxtpx="http://www.garmin.com/xmlschemas/TrackPointExtension/v1">
            <gpxtpx:hr>156</gpxtpx:hr>
          </gpxtpx:TrackPointExtension>
        </extensions>
      </trkpt>
      <trkpt lat="46.13962" lon="6.26846">
        <ele>462.5</ele>
        <time>2021-03-02T12:13:06Z</time>
        <extensions>
          <gpxtpx:TrackPointExtension xmlns:gpxtpx="http://www.garmin.com/xmlschemas/TrackPointExtension/v1">
            <gpxtpx:hr>156</gpxtpx:hr>
          </gpxtpx:TrackPointExtension>
        </extensions>
      </trkpt>
      <trkpt lat="46.13957" lon="6.26844">
        <ele>462.8</ele>
        <time>2021-03-02T12:13:07Z</time>
        <extensions>
          <gpxtpx:TrackPointExtension xmlns:gpxtpx="http://www.garmin.com/xmlschemas/TrackPointExtension/v1">
            <gpxtpx:hr>156</gpxtpx:hr>
          </gpxtpx:TrackPointExtension>
        </extensions>
      </trkpt>
      <trkpt lat="46.13953" lon="6.26843">
        <ele>463</ele>
        <time>2021-03-02T12:13:08Z</time>
        <extensions>
          <gpxtpx:TrackPointExtension xmlns:gpxtpx="http://www.garmin.com/xmlschemas/TrackPointExtension/v1">
            <gpxtpx:hr>156</gpxtpx:hr>
          </gpxtpx:TrackPointExtension>
        </extensions>
      </trkpt>
      <trkpt lat="46.13949" lon="6.26842">
        <ele>463.3</ele>
        <time>2021-03-02T12:13:09Z</time>
        <extensions>
          <gpxtpx:TrackPointExtension xmlns:gpxtpx="http://www.garmin.com/xmlschemas/TrackPointExtension/v1">
            <gpxtpx:hr>156</gpxtpx:hr>
          </gpxtpx:TrackPointExtension>
        </extensions>
      </trkpt>
      <trkpt lat="46.13944" lon="6.26842">
        <ele>463.6</ele>
        <time>2021-03-02T12:13:10Z</time>
        <extensions>
          <gpxtpx:TrackPointExtension xmlns:gpxtpx="http://www.garmin.com/xmlschemas/TrackPointExtension/v1">
            <gpxtpx:hr>156</gpxtpx:hr>
          </gpxtpx:TrackPointExtension>
        </extensions>
      </trkpt>
      <trkpt lat="46.1394" lon="6.26842">
        <ele>463.8</ele>
        <time>2021-03-02T12:13:11Z</time>
        <extensions>
          <gpxtpx:TrackPointExtension xmlns:gpxtpx="http://www.garmin.com/xmlschemas/TrackPointExtension/v1">
            <gpxtpx:hr>156</gpxtpx:hr>
          </gpxtpx:TrackPointExtension>
        </extensions>
      </trkpt>
      <trkpt lat="46.13936" lon="6.26843">
        <ele>464.1</ele>
        <time>2021-03-02T12:13:12Z</time>
        <extensions>
          <gpxtpx:TrackPointExtension xmlns:gpxtpx="http://www.garmin.com/xmlschemas/TrackPointExtension/v1">
            <gpxtpx:hr>156</gpxtpx:hr>
          </gpxtpx:TrackPointExtension>
        </extensions>
      </trkpt>
      <trkpt lat="46.13931" lon="6.26844">
        <ele>464.4</ele>
        <time>2021-03-02T12:13:13Z</time>
        <extensions>
          <gpxtpx:TrackPointExtension xmlns:gpxtpx="http://www.garmin.com/xmlschemas/TrackPointExtension/v1">
            <gpxtpx:hr>156</gpxtpx:hr>
          </gpxtpx:TrackPointExtension>
        </extensions>
      </trkpt>
      <trkpt lat="46.13927" lon="6.26847">
        <ele>464.7</ele>
        <time>2021-03-02T12:13:14Z</time>
        <extensions>
          <gpxtpx:TrackPointExtension xmlns:gpxtpx="http://www.garmin.com/xmlschemas/TrackPointExtension/v1">
            <gpxtpx:hr>156</gpxtpx:hr>
          </gpxtpx:TrackPointExtension>
        </extensions>
      </trkpt>
      <trkpt lat="46.13924" lon="6.26849">
        <ele>464.9</ele>
        <time>2021-03-02T12:13:15Z</time>
        <extensions>
          <gpxtpx:TrackPointExtension xmlns:gpxtpx="http://www.garmin.com/xmlschemas/TrackPointExtension/v1">
            <gpxtpx:hr>156</gpxtpx:hr>
          </gpxtpx:TrackPointExtension>
        </extensions>
      </trkpt>
      <trkpt lat="46.1392" lon="6.26852">
        <ele>465.2</ele>
        <time>2021-03-02T12:13:16Z</time>
        <extensions>
          <gpxtpx:TrackPointExtension xmlns:gpxtpx="http://www.garmin.com/xmlschemas/TrackPointExtension/v1">
            <gpxtpx:hr>156</gpxtpx:hr>
          </gpxtpx:TrackPointExtension>
        </extensions>
      </trkpt>
      <trkpt lat="46.13917" lon="6.26856">
        <ele>465.4</ele>
        <time>2021-03-02T12:13:17Z</time>
        <extensions>
          <gpxtpx:TrackPointExtension xmlns:gpxtpx="http://www.garmin.com/xmlschemas/TrackPointExtension/v1">
            <gpxtpx:hr>156</gpxtpx:hr>
          </gpxtpx:TrackPointExtension>
        </extensions>
      </trkpt>
      <trkpt lat="46.13914" lon="6.26861">
        <ele>465.7</ele>
        <time>2021-03-02T12:13:18Z</time>
        <extensions>
          <gpxtpx:TrackPointExtension xmlns:gpxtpx="http://www.garmin.com/xmlschemas/TrackPointExtension/v1">
            <gpxtpx:hr>156</gpxtpx:hr>
          </gpxtpx:TrackPointExtension>
        </extensions>
      </trkpt>
      <trkpt lat="46.13912" lon="6.26865">
        <ele>466</ele>
        <time>2021-03-02T12:13:19Z</time>
        <extensions>
          <gpxtpx:TrackPointExtension xmlns:gpxtpx="http://www.garmin.com/xmlschemas/TrackPointExtension/v1">
            <gpxtpx:hr>156</gpxtpx:hr>
          </gpxtpx:TrackPointExtension>
        </extensions>
      </trkpt>
      <trkpt lat="46.1391" lon="6.2687">
        <ele>466.2</ele>
        <time>2021-03-02T12:13:20Z</time>
        <extensions>
          <gpxtpx:TrackPointExtension xmlns:gpxtpx="http://www.garmin.com/xmlschemas/TrackPointExtension/v1">
            <gpxtpx:hr>156</gpxtpx:hr>
          </gpxtpx:TrackPointExtension>
        </extensions>
      </trkpt>
      <trkpt lat="46.13908" lon="6.26875">
        <ele>466.5</ele>
        <time>2021-03-02T12:13:21Z</time>
        <extensions>
          <gpxtpx:TrackPointExtension xmlns:gpxtpx="http://www.garmin.com/xmlschemas/TrackPointExtension/v1">
            <gpxtpx:hr>156</gpxtpx:hr>
          </gpxtpx:TrackPointExtension>
        </extensions>
      </trkpt>
      <trkpt lat="46.13907" lon="6.2688">
        <ele>466.7</ele>
        <time>2021-03-02T12:13:22Z</time>
        <extensions>
          <gpxtpx:TrackPointExtension xmlns:gpxtpx="http://www.garmin.com/xmlschemas/TrackPointExtension/v1">
            <gpxtpx:hr>156</gpxtpx:hr>
          </gpxtpx:TrackPointExtension>
        </extensions>
      </trkpt>
      <trkpt lat="46.13906" lon="6.26886">
        <ele>467</ele>
        <time>2021-03-02T12:13:23Z</time>
        <extensions>
          <gpxtpx:TrackPointExtension xmlns:gpxtpx="http://www.garmin.com/xmlschemas/TrackPointExtension/v1">
            <gpxtpx:hr>156</gpxtpx:hr>
          </gpxtpx:TrackPointExtension>
        </extensions>
      </trkpt>
      <trkpt lat="46.13905" lon="6.26891">
        <ele>467.2</ele>
        <time>2021-03-02T12:13:24Z</time>
        <extensions>
          <gpxtpx:TrackPointExtension xmlns:gpxtpx="http://www.garmin.com/xmlschemas/TrackPointExtension/v1">
            <gpxtpx:hr>156</gpxtpx:hr>
          </gpxtpx:TrackPointExtension>
        </extensions>
      </trkpt>
      <trkpt lat="46.13905" lon="6.26897">
        <ele>467.5</ele>
        <time>2021-03-02T12:13:25Z</time>
        <extensions>
          <gpxtpx:TrackPointExtension xmlns:gpxtpx="http://www.garmin.com/xmlschemas/TrackPointExtension/v1">
            <gpxtpx:hr>157</gpxtpx:hr>
          </gpxtpx:TrackPointExtension>
        </extensions>
      </trkpt>
      <trkpt lat="46.13906" lon="6.26902">
        <ele>467.7</ele>
        <time>2021-03-02T12:13:26Z</time>
        <extensions>
          <gpxtpx:TrackPointExtension xmlns:gpxtpx="http://www.garmin.com/xmlschemas/TrackPointExtension/v1">
            <gpxtpx:hr>157</gpxtpx:hr>
          </gpxtpx:TrackPointExtension>
        </extensions>
      </trkpt>
      <trkpt lat="46.13906" lon="6.26907">
        <ele>468</ele>
        <time>2021-03-02T12:13:27Z</time>
        <extensions>
          <gpxtpx:TrackPointExtension xmlns:gpxtpx="http://www.garmin.com/xmlschemas/TrackPointExtension/v1">
            <gpxtpx:hr>157</gpxtpx:hr>
          </gpxtpx:TrackPointExtension>
        </extensions>
      </trkpt>
      <trkpt lat="46.13907" lon="6.26913">
        <ele>468.2</ele>
        <time>2021-03-02T12:13:28Z</time>
        <extensions>
          <gpxtpx:TrackPointExtension xmlns:gpxtpx="http://www.garmin.com/xmlschemas/TrackPointExtension/v1">
            <gpxtpx:hr>157</gpxtpx:hr>
          </gpxtpx:TrackPointExtension>
        </extensions>
      </trkpt>
      <trkpt lat="46.13908" lon="6.26918">
        <ele>468.4</ele>
        <time>2021-03-02T12:13:29Z</time>
        <extensions>
          <gpxtpx:TrackPointExtension xmlns:gpxtpx="http://www.garmin.com/xmlschemas/TrackPointExtension/v1">
            <gpxtpx:hr>157</gpxtpx:hr>
          </gpxtpx:TrackPointExtension>
        </extensions>
      </trkpt>
      <trkpt lat="46.1391" lon="6.26923">
        <ele>468.7</ele>
        <time>2021-03-02T12:13:30Z</time>
        <extensions>
          <gpxtpx:TrackPointExtension xmlns:gpxtpx="http://www.garmin.com/xmlschemas/TrackPointExtension/v1">
            <gpxtpx:hr>157</gpxtpx:hr>
          </gpxtpx:TrackPointExtension>
        </extensions>
      </trkpt>
      <trkpt lat="46.13911" lon="6.26929">
        <ele>468.9</ele>
        <time>2021-03-02T12:13:31Z</time>
        <extensions>
          <gpxtpx:TrackPointExtension xmlns:gpxtpx="http://www.garmin.com/xmlschemas/TrackPointExtension/v1">
            <gpxtpx:hr>157</gpxtpx:hr>
          </gpxtpx:TrackPointExtension>
        </extensions>
      </trkpt>
      <trkpt lat="46.13912" lon="6.26934">
        <ele>469.2</ele>
        <time>2021-03-02T12:13:32Z</time>
        <extensions>
          <gpxtpx:TrackPointExtension xmlns:gpxtpx="http://www.garmin.com/xmlschemas/TrackPointExtension/v1">
            <gpxtpx:hr>157</gpxtpx:hr>
          </gpxtpx:TrackPointExtension>
        </extensions>
      </trkpt>
      <trkpt lat="46.13913" lon="6.2694">
        <ele>469.4</ele>
        <time>2021-03-02T12:13:33Z</time>
        <extensions>
          <gpxtpx:TrackPointExtension xmlns:gpxtpx="http://www.garmin.com/xmlschemas/TrackPointExtension/v1">
            <gpxtpx:hr>157</gpxtpx:hr>
          </gpxtpx:TrackPointExtension>
        </extensions>
      </trkpt>
      <trkpt lat="46.13914" lon="6.26945">
        <ele>469.7</ele>
        <time>2021-03-02T12:13:34Z</time>
        <extensions>
          <gpxtpx:TrackPointExtension xmlns:gpxtpx="http://www.garmin.com/xmlschemas/TrackPointExtension/v1">
            <gpxtpx:hr>157</gpxtpx:hr>
          </gpxtpx:TrackPointExtension>
        </extensions>
      </trkpt>
      <trkpt lat="46.13914" lon="6.26951">
        <ele>469.9</ele>
        <time>2021-03-02T12:13:35Z</time>
        <extensions>
          <gpxtpx:TrackPointExtension xmlns:gpxtpx="http://www.garmin.com/xmlschemas/TrackPointExtension/v1">
            <gpxtpx:hr>157</gpxtpx:hr>
          </gpxtpx:TrackPointExtension>
        </extensions>
      </trkpt>
      <trkpt lat="46.13915" lon="6.26957">
        <ele>470.2</ele>
        <time>2021-03-02T12:13:36Z</time>
        <extensions>
          <gpxtpx:TrackPointExtension xmlns:gpxtpx="http://www.garmin.com/xmlschemas/TrackPointExtension/v1">
            <gpxtpx:hr>157</gpxtpx:hr>
          </gpxtpx:TrackPointExtension>
        </extensions>
      </trkpt>
      <trkpt lat="46.13915" lon="6.26962">
        <ele>470.5</ele>
        <time>2021-03-02T12:13:37Z</time>
        <extensions>
          <gpxtpx:TrackPointExtension xmlns:gpxtpx="http://www.garmin.com/xmlschemas/TrackPointExtension/v1">
            <gpxtpx:hr>157</gpxtpx:hr>
          </gpxtpx:TrackPointExtension>
        </extensions>
      </trkpt>
      <trkpt lat="46.13915" lon="6.26968">
        <ele>470.7</ele>
        <time>2021-03-02T12:13:38Z</time>
        <extensions>
          <gpxtpx:TrackPointExtension xmlns:gpxtpx="http://www.garmin.com/xmlschemas/TrackPointExtension/v1">
            <gpxtpx:hr>157</gpxtpx:hr>
          </gpxtpx:TrackPointExtension>
        </extensions>
      </trkpt>
      <trkpt lat="46.13914" lon="6.26973">
        <ele>471</ele>
        <time>2021-03-02T12:13:39Z</time>
        <extensions>
          <gpxtpx:TrackPointExtension xmlns:gpxtpx="http://www.garmin.com/xmlschemas/TrackPointExtension/v1">
            <gpxtpx:hr>157</gpxtpx:hr>
          </gpxtpx:TrackPointExtension>
        </extensions>
      </trkpt>
      <trkpt lat="46.13914" lon="6.26978">
        <ele>471.3</ele>
        <time>2021-03-02T12:13:40Z</time>
        <extensions>
          <gpxtpx:TrackPointExtension xmlns:gpxtpx="http://www.garmin.com/xmlschemas/TrackPointExtension/v1">
            <gpxtpx:hr>158</gpxtpx:hr>
          </gpxtpx:TrackPointExtension>
        </extensions>
      </trkpt>
      <trkpt lat="46.13913" lon="6.26984">
        <ele>471.5</ele>
        <time>2021-03-02T12:13:41Z</time>
        <extensions>
          <gpxtpx:TrackPointExtension xmlns:gpxtpx="http://www.garmin.com/xmlschemas/TrackPointExtension/v1">
            <gpxtpx:hr>158</gpxtpx:hr>
          </gpxtpx:TrackPointExtension>
        </extensions>
      </trkpt>
      <trkpt lat="46.13911" lon="6.26989">
        <ele>471.8</ele>
        <time>2021-03-02T12:13:42Z</time>
        <extensions>
          <gpxtpx:TrackPointExtension xmlns:gpxtpx="http://www.garmin.com/xmlschemas/TrackPointExtension/v1">
            <gpxtpx:hr>158</gpxtpx:hr>
          </gpxtpx:TrackPointExtension>
        </extensions>
      </trkpt>
      <trkpt lat="46.1391" lon="6.26994">
        <ele>472.1</ele>
        <time>2021-03-02T12:13:43Z</time>
        <extensions>
          <gpxtpx:TrackPointExtension xmlns:gpxtpx="http://www.garmin.com/xmlschemas/TrackPointExtension/v1">
            <gpxtpx:hr>158</gpxtpx:hr>
          </gpxtpx:TrackPointExtension>
        </extensions>
      </trkpt>
      <trkpt lat="46.13908" lon="6.26998">
        <ele>472.4</ele>
        <time>2021-03-02T12:13:44Z</time>
        <extensions>
          <gpxtpx:TrackPointExtension xmlns:gpxtpx="http://www.garmin.com/xmlschemas/TrackPointExtension/v1">
            <gpxtpx:hr>158</gpxtpx:hr>
          </gpxtpx:TrackPointExtension>
        </extensions>
      </trkpt>
      <trkpt lat="46.13906" lon="6.27003">
        <ele>472.6</ele>
        <time>2021-03-02T12:13:45Z</time>
        <extensions>
          <gpxtpx:TrackPointExtension xmlns:gpxtpx="http://www.garmin.com/xmlschemas/TrackPointExtension/v1">
            <gpxtpx:hr>158</gpxtpx:hr>
          </gpxtpx:TrackPointExtension>
        </extensions>
      </trkpt>
      <trkpt lat="46.13904" lon="6.27007">
        <ele>473.1</ele>
        <time>2021-03-02T12:13:46Z</time>
        <extensions>
          <gpxtpx:TrackPointExtension xmlns:gpxtpx="http://www.garmin.com/xmlschemas/TrackPointExtension/v1">
            <gpxtpx:hr>158</gpxtpx:hr>
          </gpxtpx:TrackPointExtension>
        </extensions>
      </trkpt>
      <trkpt lat="46.13901" lon="6.2701">
        <ele>473.1</ele>
        <time>2021-03-02T12:13:47Z</time>
        <extensions>
          <gpxtpx:TrackPointExtension xmlns:gpxtpx="http://www.garmin.com/xmlschemas/TrackPointExtension/v1">
            <gpxtpx:hr>158</gpxtpx:hr>
          </gpxtpx:TrackPointExtension>
        </extensions>
      </trkpt>
      <trkpt lat="46.13898" lon="6.27012">
        <ele>473.1</ele>
        <time>2021-03-02T12:13:48Z</time>
        <extensions>
          <gpxtpx:TrackPointExtension xmlns:gpxtpx="http://www.garmin.com/xmlschemas/TrackPointExtension/v1">
            <gpxtpx:hr>159</gpxtpx:hr>
          </gpxtpx:TrackPointExtension>
        </extensions>
      </trkpt>
      <trkpt lat="46.13894" lon="6.27014">
        <ele>473.1</ele>
        <time>2021-03-02T12:13:49Z</time>
        <extensions>
          <gpxtpx:TrackPointExtension xmlns:gpxtpx="http://www.garmin.com/xmlschemas/TrackPointExtension/v1">
            <gpxtpx:hr>159</gpxtpx:hr>
          </gpxtpx:TrackPointExtension>
        </extensions>
      </trkpt>
      <trkpt lat="46.1389" lon="6.27014">
        <ele>473.3</ele>
        <time>2021-03-02T12:13:50Z</time>
        <extensions>
          <gpxtpx:TrackPointExtension xmlns:gpxtpx="http://www.garmin.com/xmlschemas/TrackPointExtension/v1">
            <gpxtpx:hr>159</gpxtpx:hr>
          </gpxtpx:TrackPointExtension>
        </extensions>
      </trkpt>
      <trkpt lat="46.13886" lon="6.27013">
        <ele>473.4</ele>
        <time>2021-03-02T12:13:51Z</time>
        <extensions>
          <gpxtpx:TrackPointExtension xmlns:gpxtpx="http://www.garmin.com/xmlschemas/TrackPointExtension/v1">
            <gpxtpx:hr>159</gpxtpx:hr>
          </gpxtpx:TrackPointExtension>
        </extensions>
      </trkpt>
      <trkpt lat="46.13882" lon="6.2701">
        <ele>473.4</ele>
        <time>2021-03-02T12:13:52Z</time>
        <extensions>
          <gpxtpx:TrackPointExtension xmlns:gpxtpx="http://www.garmin.com/xmlschemas/TrackPointExtension/v1">
            <gpxtpx:hr>159</gpxtpx:hr>
          </gpxtpx:TrackPointExtension>
        </extensions>
      </trkpt>
      <trkpt lat="46.13879" lon="6.27006">
        <ele>473.9</ele>
        <time>2021-03-02T12:13:53Z</time>
        <extensions>
          <gpxtpx:TrackPointExtension xmlns:gpxtpx="http://www.garmin.com/xmlschemas/TrackPointExtension/v1">
            <gpxtpx:hr>158</gpxtpx:hr>
          </gpxtpx:TrackPointExtension>
        </extensions>
      </trkpt>
      <trkpt lat="46.13876" lon="6.27002">
        <ele>474.2</ele>
        <time>2021-03-02T12:13:54Z</time>
        <extensions>
          <gpxtpx:TrackPointExtension xmlns:gpxtpx="http://www.garmin.com/xmlschemas/TrackPointExtension/v1">
            <gpxtpx:hr>158</gpxtpx:hr>
          </gpxtpx:TrackPointExtension>
        </extensions>
      </trkpt>
      <trkpt lat="46.13873" lon="6.26997">
        <ele>474.6</ele>
        <time>2021-03-02T12:13:55Z</time>
        <extensions>
          <gpxtpx:TrackPointExtension xmlns:gpxtpx="http://www.garmin.com/xmlschemas/TrackPointExtension/v1">
            <gpxtpx:hr>158</gpxtpx:hr>
          </gpxtpx:TrackPointExtension>
        </extensions>
      </trkpt>
      <trkpt lat="46.1387" lon="6.26991">
        <ele>474.8</ele>
        <time>2021-03-02T12:13:56Z</time>
        <extensions>
          <gpxtpx:TrackPointExtension xmlns:gpxtpx="http://www.garmin.com/xmlschemas/TrackPointExtension/v1">
            <gpxtpx:hr>158</gpxtpx:hr>
          </gpxtpx:TrackPointExtension>
        </extensions>
      </trkpt>
      <trkpt lat="46.13868" lon="6.26986">
        <ele>474.9</ele>
        <time>2021-03-02T12:13:57Z</time>
        <extensions>
          <gpxtpx:TrackPointExtension xmlns:gpxtpx="http://www.garmin.com/xmlschemas/TrackPointExtension/v1">
            <gpxtpx:hr>157</gpxtpx:hr>
          </gpxtpx:TrackPointExtension>
        </extensions>
      </trkpt>
      <trkpt lat="46.13867" lon="6.2698">
        <ele>475</ele>
        <time>2021-03-02T12:13:58Z</time>
        <extensions>
          <gpxtpx:TrackPointExtension xmlns:gpxtpx="http://www.garmin.com/xmlschemas/TrackPointExtension/v1">
            <gpxtpx:hr>157</gpxtpx:hr>
          </gpxtpx:TrackPointExtension>
        </extensions>
      </trkpt>
      <trkpt lat="46.13865" lon="6.26974">
        <ele>475.1</ele>
        <time>2021-03-02T12:13:59Z</time>
        <extensions>
          <gpxtpx:TrackPointExtension xmlns:gpxtpx="http://www.garmin.com/xmlschemas/TrackPointExtension/v1">
            <gpxtpx:hr>157</gpxtpx:hr>
          </gpxtpx:TrackPointExtension>
        </extensions>
      </trkpt>
      <trkpt lat="46.13864" lon="6.26967">
        <ele>475.2</ele>
        <time>2021-03-02T12:14:00Z</time>
        <extensions>
          <gpxtpx:TrackPointExtension xmlns:gpxtpx="http://www.garmin.com/xmlschemas/TrackPointExtension/v1">
            <gpxtpx:hr>157</gpxtpx:hr>
          </gpxtpx:TrackPointExtension>
        </extensions>
      </trkpt>
      <trkpt lat="46.13863" lon="6.2696">
        <ele>475.2</ele>
        <time>2021-03-02T12:14:01Z</time>
        <extensions>
          <gpxtpx:TrackPointExtension xmlns:gpxtpx="http://www.garmin.com/xmlschemas/TrackPointExtension/v1">
            <gpxtpx:hr>156</gpxtpx:hr>
          </gpxtpx:TrackPointExtension>
        </extensions>
      </trkpt>
      <trkpt lat="46.13862" lon="6.26954">
        <ele>475.3</ele>
        <time>2021-03-02T12:14:02Z</time>
        <extensions>
          <gpxtpx:TrackPointExtension xmlns:gpxtpx="http://www.garmin.com/xmlschemas/TrackPointExtension/v1">
            <gpxtpx:hr>156</gpxtpx:hr>
          </gpxtpx:TrackPointExtension>
        </extensions>
      </trkpt>
      <trkpt lat="46.1386" lon="6.26947">
        <ele>475.3</ele>
        <time>2021-03-02T12:14:03Z</time>
        <extensions>
          <gpxtpx:TrackPointExtension xmlns:gpxtpx="http://www.garmin.com/xmlschemas/TrackPointExtension/v1">
            <gpxtpx:hr>156</gpxtpx:hr>
          </gpxtpx:TrackPointExtension>
        </extensions>
      </trkpt>
      <trkpt lat="46.13857" lon="6.26941">
        <ele>475.4</ele>
        <time>2021-03-02T12:14:04Z</time>
        <extensions>
          <gpxtpx:TrackPointExtension xmlns:gpxtpx="http://www.garmin.com/xmlschemas/TrackPointExtension/v1">
            <gpxtpx:hr>155</gpxtpx:hr>
          </gpxtpx:TrackPointExtension>
        </extensions>
      </trkpt>
      <trkpt lat="46.13854" lon="6.26936">
        <ele>475.4</ele>
        <time>2021-03-02T12:14:05Z</time>
        <extensions>
          <gpxtpx:TrackPointExtension xmlns:gpxtpx="http://www.garmin.com/xmlschemas/TrackPointExtension/v1">
            <gpxtpx:hr>155</gpxtpx:hr>
          </gpxtpx:TrackPointExtension>
        </extensions>
      </trkpt>
      <trkpt lat="46.13851" lon="6.26931">
        <ele>475.5</ele>
        <time>2021-03-02T12:14:06Z</time>
        <extensions>
          <gpxtpx:TrackPointExtension xmlns:gpxtpx="http://www.garmin.com/xmlschemas/TrackPointExtension/v1">
            <gpxtpx:hr>155</gpxtpx:hr>
          </gpxtpx:TrackPointExtension>
        </extensions>
      </trkpt>
      <trkpt lat="46.13847" lon="6.26926">
        <ele>475.5</ele>
        <time>2021-03-02T12:14:07Z</time>
        <extensions>
          <gpxtpx:TrackPointExtension xmlns:gpxtpx="http://www.garmin.com/xmlschemas/TrackPointExtension/v1">
            <gpxtpx:hr>155</gpxtpx:hr>
          </gpxtpx:TrackPointExtension>
        </extensions>
      </trkpt>
      <trkpt lat="46.13843" lon="6.26921">
        <ele>475.6</ele>
        <time>2021-03-02T12:14:08Z</time>
        <extensions>
          <gpxtpx:TrackPointExtension xmlns:gpxtpx="http://www.garmin.com/xmlschemas/TrackPointExtension/v1">
            <gpxtpx:hr>154</gpxtpx:hr>
          </gpxtpx:TrackPointExtension>
        </extensions>
      </trkpt>
      <trkpt lat="46.13839" lon="6.26916">
        <ele>475.6</ele>
        <time>2021-03-02T12:14:09Z</time>
        <extensions>
          <gpxtpx:TrackPointExtension xmlns:gpxtpx="http://www.garmin.com/xmlschemas/TrackPointExtension/v1">
            <gpxtpx:hr>154</gpxtpx:hr>
          </gpxtpx:TrackPointExtension>
        </extensions>
      </trkpt>
      <trkpt lat="46.13834" lon="6.26912">
        <ele>475.7</ele>
        <time>2021-03-02T12:14:10Z</time>
        <extensions>
          <gpxtpx:TrackPointExtension xmlns:gpxtpx="http://www.garmin.com/xmlschemas/TrackPointExtension/v1">
            <gpxtpx:hr>153</gpxtpx:hr>
          </gpxtpx:TrackPointExtension>
        </extensions>
      </trkpt>
      <trkpt lat="46.1383" lon="6.26908">
        <ele>475.8</ele>
        <time>2021-03-02T12:14:11Z</time>
        <extensions>
          <gpxtpx:TrackPointExtension xmlns:gpxtpx="http://www.garmin.com/xmlschemas/TrackPointExtension/v1">
            <gpxtpx:hr>153</gpxtpx:hr>
          </gpxtpx:TrackPointExtension>
        </extensions>
      </trkpt>
      <trkpt lat="46.13826" lon="6.26903">
        <ele>475.9</ele>
        <time>2021-03-02T12:14:12Z</time>
        <extensions>
          <gpxtpx:TrackPointExtension xmlns:gpxtpx="http://www.garmin.com/xmlschemas/TrackPointExtension/v1">
            <gpxtpx:hr>153</gpxtpx:hr>
          </gpxtpx:TrackPointExtension>
        </extensions>
      </trkpt>
      <trkpt lat="46.13821" lon="6.26898">
        <ele>476</ele>
        <time>2021-03-02T12:14:13Z</time>
        <extensions>
          <gpxtpx:TrackPointExtension xmlns:gpxtpx="http://www.garmin.com/xmlschemas/TrackPointExtension/v1">
            <gpxtpx:hr>153</gpxtpx:hr>
          </gpxtpx:TrackPointExtension>
        </extensions>
      </trkpt>
      <trkpt lat="46.13817" lon="6.26894">
        <ele>476</ele>
        <time>2021-03-02T12:14:14Z</time>
        <extensions>
          <gpxtpx:TrackPointExtension xmlns:gpxtpx="http://www.garmin.com/xmlschemas/TrackPointExtension/v1">
            <gpxtpx:hr>153</gpxtpx:hr>
          </gpxtpx:TrackPointExtension>
        </extensions>
      </trkpt>
      <trkpt lat="46.13812" lon="6.26889">
        <ele>476.1</ele>
        <time>2021-03-02T12:14:15Z</time>
        <extensions>
          <gpxtpx:TrackPointExtension xmlns:gpxtpx="http://www.garmin.com/xmlschemas/TrackPointExtension/v1">
            <gpxtpx:hr>153</gpxtpx:hr>
          </gpxtpx:TrackPointExtension>
        </extensions>
      </trkpt>
      <trkpt lat="46.13808" lon="6.26885">
        <ele>476.1</ele>
        <time>2021-03-02T12:14:16Z</time>
        <extensions>
          <gpxtpx:TrackPointExtension xmlns:gpxtpx="http://www.garmin.com/xmlschemas/TrackPointExtension/v1">
            <gpxtpx:hr>152</gpxtpx:hr>
          </gpxtpx:TrackPointExtension>
        </extensions>
      </trkpt>
      <trkpt lat="46.13803" lon="6.2688">
        <ele>476.2</ele>
        <time>2021-03-02T12:14:17Z</time>
        <extensions>
          <gpxtpx:TrackPointExtension xmlns:gpxtpx="http://www.garmin.com/xmlschemas/TrackPointExtension/v1">
            <gpxtpx:hr>152</gpxtpx:hr>
          </gpxtpx:TrackPointExtension>
        </extensions>
      </trkpt>
      <trkpt lat="46.13799" lon="6.26876">
        <ele>476.2</ele>
        <time>2021-03-02T12:14:18Z</time>
        <extensions>
          <gpxtpx:TrackPointExtension xmlns:gpxtpx="http://www.garmin.com/xmlschemas/TrackPointExtension/v1">
            <gpxtpx:hr>152</gpxtpx:hr>
          </gpxtpx:TrackPointExtension>
        </extensions>
      </trkpt>
      <trkpt lat="46.13794" lon="6.26873">
        <ele>476.3</ele>
        <time>2021-03-02T12:14:19Z</time>
        <extensions>
          <gpxtpx:TrackPointExtension xmlns:gpxtpx="http://www.garmin.com/xmlschemas/TrackPointExtension/v1">
            <gpxtpx:hr>152</gpxtpx:hr>
          </gpxtpx:TrackPointExtension>
        </extensions>
      </trkpt>
      <trkpt lat="46.13788" lon="6.26869">
        <ele>476.4</ele>
        <time>2021-03-02T12:14:20Z</time>
        <extensions>
          <gpxtpx:TrackPointExtension xmlns:gpxtpx="http://www.garmin.com/xmlschemas/TrackPointExtension/v1">
            <gpxtpx:hr>151</gpxtpx:hr>
          </gpxtpx:TrackPointExtension>
        </extensions>
      </trkpt>
      <trkpt lat="46.13783" lon="6.26866">
        <ele>476.5</ele>
        <time>2021-03-02T12:14:21Z</time>
        <extensions>
          <gpxtpx:TrackPointExtension xmlns:gpxtpx="http://www.garmin.com/xmlschemas/TrackPointExtension/v1">
            <gpxtpx:hr>151</gpxtpx:hr>
          </gpxtpx:TrackPointExtension>
        </extensions>
      </trkpt>
      <trkpt lat="46.13778" lon="6.26863">
        <ele>476.5</ele>
        <time>2021-03-02T12:14:22Z</time>
        <extensions>
          <gpxtpx:TrackPointExtension xmlns:gpxtpx="http://www.garmin.com/xmlschemas/TrackPointExtension/v1">
            <gpxtpx:hr>150</gpxtpx:hr>
          </gpxtpx:TrackPointExtension>
        </extensions>
      </trkpt>
      <trkpt lat="46.13773" lon="6.26859">
        <ele>476.6</ele>
        <time>2021-03-02T12:14:23Z</time>
        <extensions>
          <gpxtpx:TrackPointExtension xmlns:gpxtpx="http://www.garmin.com/xmlschemas/TrackPointExtension/v1">
            <gpxtpx:hr>150</gpxtpx:hr>
          </gpxtpx:TrackPointExtension>
        </extensions>
      </trkpt>
      <trkpt lat="46.13768" lon="6.26856">
        <ele>476.7</ele>
        <time>2021-03-02T12:14:24Z</time>
        <extensions>
          <gpxtpx:TrackPointExtension xmlns:gpxtpx="http://www.garmin.com/xmlschemas/TrackPointExtension/v1">
            <gpxtpx:hr>149</gpxtpx:hr>
          </gpxtpx:TrackPointExtension>
        </extensions>
      </trkpt>
      <trkpt lat="46.13763" lon="6.26852">
        <ele>476.8</ele>
        <time>2021-03-02T12:14:25Z</time>
        <extensions>
          <gpxtpx:TrackPointExtension xmlns:gpxtpx="http://www.garmin.com/xmlschemas/TrackPointExtension/v1">
            <gpxtpx:hr>149</gpxtpx:hr>
          </gpxtpx:TrackPointExtension>
        </extensions>
      </trkpt>
      <trkpt lat="46.13758" lon="6.26849">
        <ele>476.8</ele>
        <time>2021-03-02T12:14:26Z</time>
        <extensions>
          <gpxtpx:TrackPointExtension xmlns:gpxtpx="http://www.garmin.com/xmlschemas/TrackPointExtension/v1">
            <gpxtpx:hr>148</gpxtpx:hr>
          </gpxtpx:TrackPointExtension>
        </extensions>
      </trkpt>
      <trkpt lat="46.13753" lon="6.26846">
        <ele>476.8</ele>
        <time>2021-03-02T12:14:27Z</time>
        <extensions>
          <gpxtpx:TrackPointExtension xmlns:gpxtpx="http://www.garmin.com/xmlschemas/TrackPointExtension/v1">
            <gpxtpx:hr>147</gpxtpx:hr>
          </gpxtpx:TrackPointExtension>
        </extensions>
      </trkpt>
      <trkpt lat="46.13748" lon="6.26843">
        <ele>476.9</ele>
        <time>2021-03-02T12:14:28Z</time>
        <extensions>
          <gpxtpx:TrackPointExtension xmlns:gpxtpx="http://www.garmin.com/xmlschemas/TrackPointExtension/v1">
            <gpxtpx:hr>147</gpxtpx:hr>
          </gpxtpx:TrackPointExtension>
        </extensions>
      </trkpt>
      <trkpt lat="46.13742" lon="6.2684">
        <ele>477</ele>
        <time>2021-03-02T12:14:29Z</time>
        <extensions>
          <gpxtpx:TrackPointExtension xmlns:gpxtpx="http://www.garmin.com/xmlschemas/TrackPointExtension/v1">
            <gpxtpx:hr>147</gpxtpx:hr>
          </gpxtpx:TrackPointExtension>
        </extensions>
      </trkpt>
      <trkpt lat="46.13737" lon="6.26837">
        <ele>477</ele>
        <time>2021-03-02T12:14:30Z</time>
        <extensions>
          <gpxtpx:TrackPointExtension xmlns:gpxtpx="http://www.garmin.com/xmlschemas/TrackPointExtension/v1">
            <gpxtpx:hr>146</gpxtpx:hr>
          </gpxtpx:TrackPointExtension>
        </extensions>
      </trkpt>
      <trkpt lat="46.13732" lon="6.26834">
        <ele>477.1</ele>
        <time>2021-03-02T12:14:31Z</time>
        <extensions>
          <gpxtpx:TrackPointExtension xmlns:gpxtpx="http://www.garmin.com/xmlschemas/TrackPointExtension/v1">
            <gpxtpx:hr>146</gpxtpx:hr>
          </gpxtpx:TrackPointExtension>
        </extensions>
      </trkpt>
      <trkpt lat="46.13727" lon="6.2683">
        <ele>477.1</ele>
        <time>2021-03-02T12:14:32Z</time>
        <extensions>
          <gpxtpx:TrackPointExtension xmlns:gpxtpx="http://www.garmin.com/xmlschemas/TrackPointExtension/v1">
            <gpxtpx:hr>145</gpxtpx:hr>
          </gpxtpx:TrackPointExtension>
        </extensions>
      </trkpt>
      <trkpt lat="46.13722" lon="6.26827">
        <ele>477.2</ele>
        <time>2021-03-02T12:14:33Z</time>
        <extensions>
          <gpxtpx:TrackPointExtension xmlns:gpxtpx="http://www.garmin.com/xmlschemas/TrackPointExtension/v1">
            <gpxtpx:hr>145</gpxtpx:hr>
          </gpxtpx:TrackPointExtension>
        </extensions>
      </trkpt>
      <trkpt lat="46.13717" lon="6.26824">
        <ele>477.3</ele>
        <time>2021-03-02T12:14:34Z</time>
        <extensions>
          <gpxtpx:TrackPointExtension xmlns:gpxtpx="http://www.garmin.com/xmlschemas/TrackPointExtension/v1">
            <gpxtpx:hr>144</gpxtpx:hr>
          </gpxtpx:TrackPointExtension>
        </extensions>
      </trkpt>
      <trkpt lat="46.13711" lon="6.26821">
        <ele>477.3</ele>
        <time>2021-03-02T12:14:35Z</time>
        <extensions>
          <gpxtpx:TrackPointExtension xmlns:gpxtpx="http://www.garmin.com/xmlschemas/TrackPointExtension/v1">
            <gpxtpx:hr>144</gpxtpx:hr>
          </gpxtpx:TrackPointExtension>
        </extensions>
      </trkpt>
      <trkpt lat="46.13706" lon="6.26818">
        <ele>477.4</ele>
        <time>2021-03-02T12:14:36Z</time>
        <extensions>
          <gpxtpx:TrackPointExtension xmlns:gpxtpx="http://www.garmin.com/xmlschemas/TrackPointExtension/v1">
            <gpxtpx:hr>143</gpxtpx:hr>
          </gpxtpx:TrackPointExtension>
        </extensions>
      </trkpt>
      <trkpt lat="46.13701" lon="6.26815">
        <ele>477.6</ele>
        <time>2021-03-02T12:14:37Z</time>
        <extensions>
          <gpxtpx:TrackPointExtension xmlns:gpxtpx="http://www.garmin.com/xmlschemas/TrackPointExtension/v1">
            <gpxtpx:hr>143</gpxtpx:hr>
          </gpxtpx:TrackPointExtension>
        </extensions>
      </trkpt>
      <trkpt lat="46.13696" lon="6.26812">
        <ele>477.6</ele>
        <time>2021-03-02T12:14:38Z</time>
        <extensions>
          <gpxtpx:TrackPointExtension xmlns:gpxtpx="http://www.garmin.com/xmlschemas/TrackPointExtension/v1">
            <gpxtpx:hr>142</gpxtpx:hr>
          </gpxtpx:TrackPointExtension>
        </extensions>
      </trkpt>
      <trkpt lat="46.1369" lon="6.26809">
        <ele>477.7</ele>
        <time>2021-03-02T12:14:39Z</time>
        <extensions>
          <gpxtpx:TrackPointExtension xmlns:gpxtpx="http://www.garmin.com/xmlschemas/TrackPointExtension/v1">
            <gpxtpx:hr>142</gpxtpx:hr>
          </gpxtpx:TrackPointExtension>
        </extensions>
      </trkpt>
      <trkpt lat="46.13685" lon="6.26806">
        <ele>477.8</ele>
        <time>2021-03-02T12:14:40Z</time>
        <extensions>
          <gpxtpx:TrackPointExtension xmlns:gpxtpx="http://www.garmin.com/xmlschemas/TrackPointExtension/v1">
            <gpxtpx:hr>141</gpxtpx:hr>
          </gpxtpx:TrackPointExtension>
        </extensions>
      </trkpt>
      <trkpt lat="46.13679" lon="6.26803">
        <ele>477.8</ele>
        <time>2021-03-02T12:14:41Z</time>
        <extensions>
          <gpxtpx:TrackPointExtension xmlns:gpxtpx="http://www.garmin.com/xmlschemas/TrackPointExtension/v1">
            <gpxtpx:hr>140</gpxtpx:hr>
          </gpxtpx:TrackPointExtension>
        </extensions>
      </trkpt>
      <trkpt lat="46.13674" lon="6.268">
        <ele>477.9</ele>
        <time>2021-03-02T12:14:42Z</time>
        <extensions>
          <gpxtpx:TrackPointExtension xmlns:gpxtpx="http://www.garmin.com/xmlschemas/TrackPointExtension/v1">
            <gpxtpx:hr>140</gpxtpx:hr>
          </gpxtpx:TrackPointExtension>
        </extensions>
      </trkpt>
      <trkpt lat="46.13669" lon="6.26797">
        <ele>478</ele>
        <time>2021-03-02T12:14:43Z</time>
        <extensions>
          <gpxtpx:TrackPointExtension xmlns:gpxtpx="http://www.garmin.com/xmlschemas/TrackPointExtension/v1">
            <gpxtpx:hr>140</gpxtpx:hr>
          </gpxtpx:TrackPointExtension>
        </extensions>
      </trkpt>
      <trkpt lat="46.13663" lon="6.26794">
        <ele>478.1</ele>
        <time>2021-03-02T12:14:44Z</time>
        <extensions>
          <gpxtpx:TrackPointExtension xmlns:gpxtpx="http://www.garmin.com/xmlschemas/TrackPointExtension/v1">
            <gpxtpx:hr>140</gpxtpx:hr>
          </gpxtpx:TrackPointExtension>
        </extensions>
      </trkpt>
      <trkpt lat="46.13658" lon="6.26791">
        <ele>478.2</ele>
        <time>2021-03-02T12:14:45Z</time>
        <extensions>
          <gpxtpx:TrackPointExtension xmlns:gpxtpx="http://www.garmin.com/xmlschemas/TrackPointExtension/v1">
            <gpxtpx:hr>140</gpxtpx:hr>
          </gpxtpx:TrackPointExtension>
        </extensions>
      </trkpt>
      <trkpt lat="46.13652" lon="6.26787">
        <ele>478.2</ele>
        <time>2021-03-02T12:14:46Z</time>
        <extensions>
          <gpxtpx:TrackPointExtension xmlns:gpxtpx="http://www.garmin.com/xmlschemas/TrackPointExtension/v1">
            <gpxtpx:hr>140</gpxtpx:hr>
          </gpxtpx:TrackPointExtension>
        </extensions>
      </trkpt>
      <trkpt lat="46.13647" lon="6.26784">
        <ele>478.3</ele>
        <time>2021-03-02T12:14:47Z</time>
        <extensions>
          <gpxtpx:TrackPointExtension xmlns:gpxtpx="http://www.garmin.com/xmlschemas/TrackPointExtension/v1">
            <gpxtpx:hr>140</gpxtpx:hr>
          </gpxtpx:TrackPointExtension>
        </extensions>
      </trkpt>
      <trkpt lat="46.13641" lon="6.26781">
        <ele>478.5</ele>
        <time>2021-03-02T12:14:48Z</time>
        <extensions>
          <gpxtpx:TrackPointExtension xmlns:gpxtpx="http://www.garmin.com/xmlschemas/TrackPointExtension/v1">
            <gpxtpx:hr>140</gpxtpx:hr>
          </gpxtpx:TrackPointExtension>
        </extensions>
      </trkpt>
      <trkpt lat="46.13636" lon="6.26778">
        <ele>478.6</ele>
        <time>2021-03-02T12:14:49Z</time>
        <extensions>
          <gpxtpx:TrackPointExtension xmlns:gpxtpx="http://www.garmin.com/xmlschemas/TrackPointExtension/v1">
            <gpxtpx:hr>140</gpxtpx:hr>
          </gpxtpx:TrackPointExtension>
        </extensions>
      </trkpt>
      <trkpt lat="46.1363" lon="6.26776">
        <ele>478.7</ele>
        <time>2021-03-02T12:14:50Z</time>
        <extensions>
          <gpxtpx:TrackPointExtension xmlns:gpxtpx="http://www.garmin.com/xmlschemas/TrackPointExtension/v1">
            <gpxtpx:hr>140</gpxtpx:hr>
          </gpxtpx:TrackPointExtension>
        </extensions>
      </trkpt>
      <trkpt lat="46.13624" lon="6.26773">
        <ele>478.8</ele>
        <time>2021-03-02T12:14:51Z</time>
        <extensions>
          <gpxtpx:TrackPointExtension xmlns:gpxtpx="http://www.garmin.com/xmlschemas/TrackPointExtension/v1">
            <gpxtpx:hr>140</gpxtpx:hr>
          </gpxtpx:TrackPointExtension>
        </extensions>
      </trkpt>
      <trkpt lat="46.13619" lon="6.2677">
        <ele>479</ele>
        <time>2021-03-02T12:14:52Z</time>
        <extensions>
          <gpxtpx:TrackPointExtension xmlns:gpxtpx="http://www.garmin.com/xmlschemas/TrackPointExtension/v1">
            <gpxtpx:hr>140</gpxtpx:hr>
          </gpxtpx:TrackPointExtension>
        </extensions>
      </trkpt>
      <trkpt lat="46.13613" lon="6.26767">
        <ele>479.1</ele>
        <time>2021-03-02T12:14:53Z</time>
        <extensions>
          <gpxtpx:TrackPointExtension xmlns:gpxtpx="http://www.garmin.com/xmlschemas/TrackPointExtension/v1">
            <gpxtpx:hr>140</gpxtpx:hr>
          </gpxtpx:TrackPointExtension>
        </extensions>
      </trkpt>
      <trkpt lat="46.13608" lon="6.26763">
        <ele>479.2</ele>
        <time>2021-03-02T12:14:54Z</time>
        <extensions>
          <gpxtpx:TrackPointExtension xmlns:gpxtpx="http://www.garmin.com/xmlschemas/TrackPointExtension/v1">
            <gpxtpx:hr>140</gpxtpx:hr>
          </gpxtpx:TrackPointExtension>
        </extensions>
      </trkpt>
      <trkpt lat="46.13602" lon="6.2676">
        <ele>479.3</ele>
        <time>2021-03-02T12:14:55Z</time>
        <extensions>
          <gpxtpx:TrackPointExtension xmlns:gpxtpx="http://www.garmin.com/xmlschemas/TrackPointExtension/v1">
            <gpxtpx:hr>140</gpxtpx:hr>
          </gpxtpx:TrackPointExtension>
        </extensions>
      </trkpt>
      <trkpt lat="46.13597" lon="6.26756">
        <ele>479.4</ele>
        <time>2021-03-02T12:14:56Z</time>
        <extensions>
          <gpxtpx:TrackPointExtension xmlns:gpxtpx="http://www.garmin.com/xmlschemas/TrackPointExtension/v1">
            <gpxtpx:hr>139</gpxtpx:hr>
          </gpxtpx:TrackPointExtension>
        </extensions>
      </trkpt>
      <trkpt lat="46.13591" lon="6.26753">
        <ele>479.5</ele>
        <time>2021-03-02T12:14:57Z</time>
        <extensions>
          <gpxtpx:TrackPointExtension xmlns:gpxtpx="http://www.garmin.com/xmlschemas/TrackPointExtension/v1">
            <gpxtpx:hr>139</gpxtpx:hr>
          </gpxtpx:TrackPointExtension>
        </extensions>
      </trkpt>
      <trkpt lat="46.13586" lon="6.26749">
        <ele>479.5</ele>
        <time>2021-03-02T12:14:58Z</time>
        <extensions>
          <gpxtpx:TrackPointExtension xmlns:gpxtpx="http://www.garmin.com/xmlschemas/TrackPointExtension/v1">
            <gpxtpx:hr>139</gpxtpx:hr>
          </gpxtpx:TrackPointExtension>
        </extensions>
      </trkpt>
      <trkpt lat="46.13581" lon="6.26744">
        <ele>479.6</ele>
        <time>2021-03-02T12:14:59Z</time>
        <extensions>
          <gpxtpx:TrackPointExtension xmlns:gpxtpx="http://www.garmin.com/xmlschemas/TrackPointExtension/v1">
            <gpxtpx:hr>139</gpxtpx:hr>
          </gpxtpx:TrackPointExtension>
        </extensions>
      </trkpt>
      <trkpt lat="46.13575" lon="6.2674">
        <ele>479.7</ele>
        <time>2021-03-02T12:15:00Z</time>
        <extensions>
          <gpxtpx:TrackPointExtension xmlns:gpxtpx="http://www.garmin.com/xmlschemas/TrackPointExtension/v1">
            <gpxtpx:hr>139</gpxtpx:hr>
          </gpxtpx:TrackPointExtension>
        </extensions>
      </trkpt>
      <trkpt lat="46.1357" lon="6.26736">
        <ele>479.9</ele>
        <time>2021-03-02T12:15:01Z</time>
        <extensions>
          <gpxtpx:TrackPointExtension xmlns:gpxtpx="http://www.garmin.com/xmlschemas/TrackPointExtension/v1">
            <gpxtpx:hr>139</gpxtpx:hr>
          </gpxtpx:TrackPointExtension>
        </extensions>
      </trkpt>
      <trkpt lat="46.13565" lon="6.26732">
        <ele>480</ele>
        <time>2021-03-02T12:15:02Z</time>
        <extensions>
          <gpxtpx:TrackPointExtension xmlns:gpxtpx="http://www.garmin.com/xmlschemas/TrackPointExtension/v1">
            <gpxtpx:hr>139</gpxtpx:hr>
          </gpxtpx:TrackPointExtension>
        </extensions>
      </trkpt>
      <trkpt lat="46.13559" lon="6.26729">
        <ele>480.1</ele>
        <time>2021-03-02T12:15:03Z</time>
        <extensions>
          <gpxtpx:TrackPointExtension xmlns:gpxtpx="http://www.garmin.com/xmlschemas/TrackPointExtension/v1">
            <gpxtpx:hr>139</gpxtpx:hr>
          </gpxtpx:TrackPointExtension>
        </extensions>
      </trkpt>
      <trkpt lat="46.13554" lon="6.26725">
        <ele>480.2</ele>
        <time>2021-03-02T12:15:04Z</time>
        <extensions>
          <gpxtpx:TrackPointExtension xmlns:gpxtpx="http://www.garmin.com/xmlschemas/TrackPointExtension/v1">
            <gpxtpx:hr>139</gpxtpx:hr>
          </gpxtpx:TrackPointExtension>
        </extensions>
      </trkpt>
      <trkpt lat="46.13549" lon="6.26722">
        <ele>480.3</ele>
        <time>2021-03-02T12:15:05Z</time>
        <extensions>
          <gpxtpx:TrackPointExtension xmlns:gpxtpx="http://www.garmin.com/xmlschemas/TrackPointExtension/v1">
            <gpxtpx:hr>139</gpxtpx:hr>
          </gpxtpx:TrackPointExtension>
        </extensions>
      </trkpt>
      <trkpt lat="46.13545" lon="6.26718">
        <ele>480.4</ele>
        <time>2021-03-02T12:15:06Z</time>
        <extensions>
          <gpxtpx:TrackPointExtension xmlns:gpxtpx="http://www.garmin.com/xmlschemas/TrackPointExtension/v1">
            <gpxtpx:hr>139</gpxtpx:hr>
          </gpxtpx:TrackPointExtension>
        </extensions>
      </trkpt>
      <trkpt lat="46.1354" lon="6.26714">
        <ele>480.5</ele>
        <time>2021-03-02T12:15:07Z</time>
        <extensions>
          <gpxtpx:TrackPointExtension xmlns:gpxtpx="http://www.garmin.com/xmlschemas/TrackPointExtension/v1">
            <gpxtpx:hr>138</gpxtpx:hr>
          </gpxtpx:TrackPointExtension>
        </extensions>
      </trkpt>
      <trkpt lat="46.13535" lon="6.2671">
        <ele>480.6</ele>
        <time>2021-03-02T12:15:08Z</time>
        <extensions>
          <gpxtpx:TrackPointExtension xmlns:gpxtpx="http://www.garmin.com/xmlschemas/TrackPointExtension/v1">
            <gpxtpx:hr>138</gpxtpx:hr>
          </gpxtpx:TrackPointExtension>
        </extensions>
      </trkpt>
      <trkpt lat="46.13529" lon="6.26707">
        <ele>480.7</ele>
        <time>2021-03-02T12:15:09Z</time>
        <extensions>
          <gpxtpx:TrackPointExtension xmlns:gpxtpx="http://www.garmin.com/xmlschemas/TrackPointExtension/v1">
            <gpxtpx:hr>138</gpxtpx:hr>
          </gpxtpx:TrackPointExtension>
        </extensions>
      </trkpt>
      <trkpt lat="46.13524" lon="6.26703">
        <ele>480.8</ele>
        <time>2021-03-02T12:15:10Z</time>
        <extensions>
          <gpxtpx:TrackPointExtension xmlns:gpxtpx="http://www.garmin.com/xmlschemas/TrackPointExtension/v1">
            <gpxtpx:hr>138</gpxtpx:hr>
          </gpxtpx:TrackPointExtension>
        </extensions>
      </trkpt>
      <trkpt lat="46.13519" lon="6.26699">
        <ele>480.9</ele>
        <time>2021-03-02T12:15:11Z</time>
        <extensions>
          <gpxtpx:TrackPointExtension xmlns:gpxtpx="http://www.garmin.com/xmlschemas/TrackPointExtension/v1">
            <gpxtpx:hr>138</gpxtpx:hr>
          </gpxtpx:TrackPointExtension>
        </extensions>
      </trkpt>
      <trkpt lat="46.13514" lon="6.26695">
        <ele>481</ele>
        <time>2021-03-02T12:15:12Z</time>
        <extensions>
          <gpxtpx:TrackPointExtension xmlns:gpxtpx="http://www.garmin.com/xmlschemas/TrackPointExtension/v1">
            <gpxtpx:hr>137</gpxtpx:hr>
          </gpxtpx:TrackPointExtension>
        </extensions>
      </trkpt>
      <trkpt lat="46.13509" lon="6.26692">
        <ele>481</ele>
        <time>2021-03-02T12:15:13Z</time>
        <extensions>
          <gpxtpx:TrackPointExtension xmlns:gpxtpx="http://www.garmin.com/xmlschemas/TrackPointExtension/v1">
            <gpxtpx:hr>137</gpxtpx:hr>
          </gpxtpx:TrackPointExtension>
        </extensions>
      </trkpt>
      <trkpt lat="46.13503" lon="6.26688">
        <ele>481.1</ele>
        <time>2021-03-02T12:15:14Z</time>
        <extensions>
          <gpxtpx:TrackPointExtension xmlns:gpxtpx="http://www.garmin.com/xmlschemas/TrackPointExtension/v1">
            <gpxtpx:hr>137</gpxtpx:hr>
          </gpxtpx:TrackPointExtension>
        </extensions>
      </trkpt>
      <trkpt lat="46.13498" lon="6.26685">
        <ele>481.2</ele>
        <time>2021-03-02T12:15:15Z</time>
        <extensions>
          <gpxtpx:TrackPointExtension xmlns:gpxtpx="http://www.garmin.com/xmlschemas/TrackPointExtension/v1">
            <gpxtpx:hr>137</gpxtpx:hr>
          </gpxtpx:TrackPointExtension>
        </extensions>
      </trkpt>
      <trkpt lat="46.13493" lon="6.26681">
        <ele>481.3</ele>
        <time>2021-03-02T12:15:16Z</time>
        <extensions>
          <gpxtpx:TrackPointExtension xmlns:gpxtpx="http://www.garmin.com/xmlschemas/TrackPointExtension/v1">
            <gpxtpx:hr>137</gpxtpx:hr>
          </gpxtpx:TrackPointExtension>
        </extensions>
      </trkpt>
      <trkpt lat="46.13487" lon="6.26677">
        <ele>481.3</ele>
        <time>2021-03-02T12:15:17Z</time>
        <extensions>
          <gpxtpx:TrackPointExtension xmlns:gpxtpx="http://www.garmin.com/xmlschemas/TrackPointExtension/v1">
            <gpxtpx:hr>137</gpxtpx:hr>
          </gpxtpx:TrackPointExtension>
        </extensions>
      </trkpt>
      <trkpt lat="46.13482" lon="6.26673">
        <ele>481.4</ele>
        <time>2021-03-02T12:15:18Z</time>
        <extensions>
          <gpxtpx:TrackPointExtension xmlns:gpxtpx="http://www.garmin.com/xmlschemas/TrackPointExtension/v1">
            <gpxtpx:hr>137</gpxtpx:hr>
          </gpxtpx:TrackPointExtension>
        </extensions>
      </trkpt>
      <trkpt lat="46.13477" lon="6.26669">
        <ele>481.5</ele>
        <time>2021-03-02T12:15:19Z</time>
        <extensions>
          <gpxtpx:TrackPointExtension xmlns:gpxtpx="http://www.garmin.com/xmlschemas/TrackPointExtension/v1">
            <gpxtpx:hr>137</gpxtpx:hr>
          </gpxtpx:TrackPointExtension>
        </extensions>
      </trkpt>
      <trkpt lat="46.13471" lon="6.26665">
        <ele>481.6</ele>
        <time>2021-03-02T12:15:20Z</time>
        <extensions>
          <gpxtpx:TrackPointExtension xmlns:gpxtpx="http://www.garmin.com/xmlschemas/TrackPointExtension/v1">
            <gpxtpx:hr>137</gpxtpx:hr>
          </gpxtpx:TrackPointExtension>
        </extensions>
      </trkpt>
      <trkpt lat="46.13466" lon="6.26662">
        <ele>481.7</ele>
        <time>2021-03-02T12:15:21Z</time>
        <extensions>
          <gpxtpx:TrackPointExtension xmlns:gpxtpx="http://www.garmin.com/xmlschemas/TrackPointExtension/v1">
            <gpxtpx:hr>137</gpxtpx:hr>
          </gpxtpx:TrackPointExtension>
        </extensions>
      </trkpt>
      <trkpt lat="46.13461" lon="6.26658">
        <ele>481.8</ele>
        <time>2021-03-02T12:15:22Z</time>
        <extensions>
          <gpxtpx:TrackPointExtension xmlns:gpxtpx="http://www.garmin.com/xmlschemas/TrackPointExtension/v1">
            <gpxtpx:hr>137</gpxtpx:hr>
          </gpxtpx:TrackPointExtension>
        </extensions>
      </trkpt>
      <trkpt lat="46.13455" lon="6.26654">
        <ele>481.9</ele>
        <time>2021-03-02T12:15:23Z</time>
        <extensions>
          <gpxtpx:TrackPointExtension xmlns:gpxtpx="http://www.garmin.com/xmlschemas/TrackPointExtension/v1">
            <gpxtpx:hr>137</gpxtpx:hr>
          </gpxtpx:TrackPointExtension>
        </extensions>
      </trkpt>
      <trkpt lat="46.13449" lon="6.2665">
        <ele>482</ele>
        <time>2021-03-02T12:15:24Z</time>
        <extensions>
          <gpxtpx:TrackPointExtension xmlns:gpxtpx="http://www.garmin.com/xmlschemas/TrackPointExtension/v1">
            <gpxtpx:hr>137</gpxtpx:hr>
          </gpxtpx:TrackPointExtension>
        </extensions>
      </trkpt>
      <trkpt lat="46.13444" lon="6.26646">
        <ele>482.1</ele>
        <time>2021-03-02T12:15:25Z</time>
        <extensions>
          <gpxtpx:TrackPointExtension xmlns:gpxtpx="http://www.garmin.com/xmlschemas/TrackPointExtension/v1">
            <gpxtpx:hr>137</gpxtpx:hr>
          </gpxtpx:TrackPointExtension>
        </extensions>
      </trkpt>
      <trkpt lat="46.13438" lon="6.26642">
        <ele>482.2</ele>
        <time>2021-03-02T12:15:26Z</time>
        <extensions>
          <gpxtpx:TrackPointExtension xmlns:gpxtpx="http://www.garmin.com/xmlschemas/TrackPointExtension/v1">
            <gpxtpx:hr>137</gpxtpx:hr>
          </gpxtpx:TrackPointExtension>
        </extensions>
      </trkpt>
      <trkpt lat="46.13432" lon="6.26638">
        <ele>482.3</ele>
        <time>2021-03-02T12:15:27Z</time>
        <extensions>
          <gpxtpx:TrackPointExtension xmlns:gpxtpx="http://www.garmin.com/xmlschemas/TrackPointExtension/v1">
            <gpxtpx:hr>137</gpxtpx:hr>
          </gpxtpx:TrackPointExtension>
        </extensions>
      </trkpt>
      <trkpt lat="46.13427" lon="6.26635">
        <ele>482.4</ele>
        <time>2021-03-02T12:15:28Z</time>
        <extensions>
          <gpxtpx:TrackPointExtension xmlns:gpxtpx="http://www.garmin.com/xmlschemas/TrackPointExtension/v1">
            <gpxtpx:hr>137</gpxtpx:hr>
          </gpxtpx:TrackPointExtension>
        </extensions>
      </trkpt>
      <trkpt lat="46.13421" lon="6.26631">
        <ele>482.5</ele>
        <time>2021-03-02T12:15:29Z</time>
        <extensions>
          <gpxtpx:TrackPointExtension xmlns:gpxtpx="http://www.garmin.com/xmlschemas/TrackPointExtension/v1">
            <gpxtpx:hr>138</gpxtpx:hr>
          </gpxtpx:TrackPointExtension>
        </extensions>
      </trkpt>
      <trkpt lat="46.13415" lon="6.26627">
        <ele>482.6</ele>
        <time>2021-03-02T12:15:30Z</time>
        <extensions>
          <gpxtpx:TrackPointExtension xmlns:gpxtpx="http://www.garmin.com/xmlschemas/TrackPointExtension/v1">
            <gpxtpx:hr>138</gpxtpx:hr>
          </gpxtpx:TrackPointExtension>
        </extensions>
      </trkpt>
      <trkpt lat="46.1341" lon="6.26623">
        <ele>482.7</ele>
        <time>2021-03-02T12:15:31Z</time>
        <extensions>
          <gpxtpx:TrackPointExtension xmlns:gpxtpx="http://www.garmin.com/xmlschemas/TrackPointExtension/v1">
            <gpxtpx:hr>138</gpxtpx:hr>
          </gpxtpx:TrackPointExtension>
        </extensions>
      </trkpt>
      <trkpt lat="46.13404" lon="6.26619">
        <ele>482.9</ele>
        <time>2021-03-02T12:15:32Z</time>
        <extensions>
          <gpxtpx:TrackPointExtension xmlns:gpxtpx="http://www.garmin.com/xmlschemas/TrackPointExtension/v1">
            <gpxtpx:hr>138</gpxtpx:hr>
          </gpxtpx:TrackPointExtension>
        </extensions>
      </trkpt>
      <trkpt lat="46.13399" lon="6.26615">
        <ele>483</ele>
        <time>2021-03-02T12:15:33Z</time>
        <extensions>
          <gpxtpx:TrackPointExtension xmlns:gpxtpx="http://www.garmin.com/xmlschemas/TrackPointExtension/v1">
            <gpxtpx:hr>138</gpxtpx:hr>
          </gpxtpx:TrackPointExtension>
        </extensions>
      </trkpt>
      <trkpt lat="46.13393" lon="6.26611">
        <ele>483.1</ele>
        <time>2021-03-02T12:15:34Z</time>
        <extensions>
          <gpxtpx:TrackPointExtension xmlns:gpxtpx="http://www.garmin.com/xmlschemas/TrackPointExtension/v1">
            <gpxtpx:hr>138</gpxtpx:hr>
          </gpxtpx:TrackPointExtension>
        </extensions>
      </trkpt>
      <trkpt lat="46.13388" lon="6.26607">
        <ele>483.2</ele>
        <time>2021-03-02T12:15:35Z</time>
        <extensions>
          <gpxtpx:TrackPointExtension xmlns:gpxtpx="http://www.garmin.com/xmlschemas/TrackPointExtension/v1">
            <gpxtpx:hr>138</gpxtpx:hr>
          </gpxtpx:TrackPointExtension>
        </extensions>
      </trkpt>
      <trkpt lat="46.13382" lon="6.26603">
        <ele>483.4</ele>
        <time>2021-03-02T12:15:36Z</time>
        <extensions>
          <gpxtpx:TrackPointExtension xmlns:gpxtpx="http://www.garmin.com/xmlschemas/TrackPointExtension/v1">
            <gpxtpx:hr>138</gpxtpx:hr>
          </gpxtpx:TrackPointExtension>
        </extensions>
      </trkpt>
      <trkpt lat="46.13377" lon="6.26599">
        <ele>483.5</ele>
        <time>2021-03-02T12:15:37Z</time>
        <extensions>
          <gpxtpx:TrackPointExtension xmlns:gpxtpx="http://www.garmin.com/xmlschemas/TrackPointExtension/v1">
            <gpxtpx:hr>137</gpxtpx:hr>
          </gpxtpx:TrackPointExtension>
        </extensions>
      </trkpt>
      <trkpt lat="46.13372" lon="6.26595">
        <ele>483.5</ele>
        <time>2021-03-02T12:15:38Z</time>
        <extensions>
          <gpxtpx:TrackPointExtension xmlns:gpxtpx="http://www.garmin.com/xmlschemas/TrackPointExtension/v1">
            <gpxtpx:hr>137</gpxtpx:hr>
          </gpxtpx:TrackPointExtension>
        </extensions>
      </trkpt>
      <trkpt lat="46.13366" lon="6.2659">
        <ele>483.6</ele>
        <time>2021-03-02T12:15:39Z</time>
        <extensions>
          <gpxtpx:TrackPointExtension xmlns:gpxtpx="http://www.garmin.com/xmlschemas/TrackPointExtension/v1">
            <gpxtpx:hr>137</gpxtpx:hr>
          </gpxtpx:TrackPointExtension>
        </extensions>
      </trkpt>
      <trkpt lat="46.13361" lon="6.26586">
        <ele>483.7</ele>
        <time>2021-03-02T12:15:40Z</time>
        <extensions>
          <gpxtpx:TrackPointExtension xmlns:gpxtpx="http://www.garmin.com/xmlschemas/TrackPointExtension/v1">
            <gpxtpx:hr>137</gpxtpx:hr>
          </gpxtpx:TrackPointExtension>
        </extensions>
      </trkpt>
      <trkpt lat="46.13356" lon="6.26583">
        <ele>483.8</ele>
        <time>2021-03-02T12:15:41Z</time>
        <extensions>
          <gpxtpx:TrackPointExtension xmlns:gpxtpx="http://www.garmin.com/xmlschemas/TrackPointExtension/v1">
            <gpxtpx:hr>137</gpxtpx:hr>
          </gpxtpx:TrackPointExtension>
        </extensions>
      </trkpt>
      <trkpt lat="46.13351" lon="6.26579">
        <ele>484</ele>
        <time>2021-03-02T12:15:42Z</time>
        <extensions>
          <gpxtpx:TrackPointExtension xmlns:gpxtpx="http://www.garmin.com/xmlschemas/TrackPointExtension/v1">
            <gpxtpx:hr>137</gpxtpx:hr>
          </gpxtpx:TrackPointExtension>
        </extensions>
      </trkpt>
      <trkpt lat="46.13346" lon="6.26577">
        <ele>484</ele>
        <time>2021-03-02T12:15:43Z</time>
        <extensions>
          <gpxtpx:TrackPointExtension xmlns:gpxtpx="http://www.garmin.com/xmlschemas/TrackPointExtension/v1">
            <gpxtpx:hr>137</gpxtpx:hr>
          </gpxtpx:TrackPointExtension>
        </extensions>
      </trkpt>
      <trkpt lat="46.13341" lon="6.26575">
        <ele>484.1</ele>
        <time>2021-03-02T12:15:44Z</time>
        <extensions>
          <gpxtpx:TrackPointExtension xmlns:gpxtpx="http://www.garmin.com/xmlschemas/TrackPointExtension/v1">
            <gpxtpx:hr>136</gpxtpx:hr>
          </gpxtpx:TrackPointExtension>
        </extensions>
      </trkpt>
      <trkpt lat="46.13337" lon="6.26571">
        <ele>484.2</ele>
        <time>2021-03-02T12:15:45Z</time>
        <extensions>
          <gpxtpx:TrackPointExtension xmlns:gpxtpx="http://www.garmin.com/xmlschemas/TrackPointExtension/v1">
            <gpxtpx:hr>134</gpxtpx:hr>
          </gpxtpx:TrackPointExtension>
        </extensions>
      </trkpt>
      <trkpt lat="46.13332" lon="6.2657">
        <ele>484.3</ele>
        <time>2021-03-02T12:15:46Z</time>
        <extensions>
          <gpxtpx:TrackPointExtension xmlns:gpxtpx="http://www.garmin.com/xmlschemas/TrackPointExtension/v1">
            <gpxtpx:hr>133</gpxtpx:hr>
          </gpxtpx:TrackPointExtension>
        </extensions>
      </trkpt>
      <trkpt lat="46.13328" lon="6.2657">
        <ele>484.4</ele>
        <time>2021-03-02T12:15:47Z</time>
        <extensions>
          <gpxtpx:TrackPointExtension xmlns:gpxtpx="http://www.garmin.com/xmlschemas/TrackPointExtension/v1">
            <gpxtpx:hr>132</gpxtpx:hr>
          </gpxtpx:TrackPointExtension>
        </extensions>
      </trkpt>
      <trkpt lat="46.13325" lon="6.26574">
        <ele>484.4</ele>
        <time>2021-03-02T12:15:48Z</time>
        <extensions>
          <gpxtpx:TrackPointExtension xmlns:gpxtpx="http://www.garmin.com/xmlschemas/TrackPointExtension/v1">
            <gpxtpx:hr>131</gpxtpx:hr>
          </gpxtpx:TrackPointExtension>
        </extensions>
      </trkpt>
      <trkpt lat="46.13325" lon="6.26581">
        <ele>484.5</ele>
        <time>2021-03-02T12:15:49Z</time>
        <extensions>
          <gpxtpx:TrackPointExtension xmlns:gpxtpx="http://www.garmin.com/xmlschemas/TrackPointExtension/v1">
            <gpxtpx:hr>130</gpxtpx:hr>
          </gpxtpx:TrackPointExtension>
        </extensions>
      </trkpt>
      <trkpt lat="46.13326" lon="6.26588">
        <ele>484.6</ele>
        <time>2021-03-02T12:15:50Z</time>
        <extensions>
          <gpxtpx:TrackPointExtension xmlns:gpxtpx="http://www.garmin.com/xmlschemas/TrackPointExtension/v1">
            <gpxtpx:hr>130</gpxtpx:hr>
          </gpxtpx:TrackPointExtension>
        </extensions>
      </trkpt>
      <trkpt lat="46.13326" lon="6.26596">
        <ele>484.6</ele>
        <time>2021-03-02T12:15:51Z</time>
        <extensions>
          <gpxtpx:TrackPointExtension xmlns:gpxtpx="http://www.garmin.com/xmlschemas/TrackPointExtension/v1">
            <gpxtpx:hr>130</gpxtpx:hr>
          </gpxtpx:TrackPointExtension>
        </extensions>
      </trkpt>
      <trkpt lat="46.13327" lon="6.26605">
        <ele>484.7</ele>
        <time>2021-03-02T12:15:52Z</time>
        <extensions>
          <gpxtpx:TrackPointExtension xmlns:gpxtpx="http://www.garmin.com/xmlschemas/TrackPointExtension/v1">
            <gpxtpx:hr>130</gpxtpx:hr>
          </gpxtpx:TrackPointExtension>
        </extensions>
      </trkpt>
      <trkpt lat="46.13328" lon="6.26614">
        <ele>484.6</ele>
        <time>2021-03-02T12:15:53Z</time>
        <extensions>
          <gpxtpx:TrackPointExtension xmlns:gpxtpx="http://www.garmin.com/xmlschemas/TrackPointExtension/v1">
            <gpxtpx:hr>130</gpxtpx:hr>
          </gpxtpx:TrackPointExtension>
        </extensions>
      </trkpt>
      <trkpt lat="46.13329" lon="6.26623">
        <ele>484.6</ele>
        <time>2021-03-02T12:15:54Z</time>
        <extensions>
          <gpxtpx:TrackPointExtension xmlns:gpxtpx="http://www.garmin.com/xmlschemas/TrackPointExtension/v1">
            <gpxtpx:hr>130</gpxtpx:hr>
          </gpxtpx:TrackPointExtension>
        </extensions>
      </trkpt>
      <trkpt lat="46.1333" lon="6.26632">
        <ele>484.5</ele>
        <time>2021-03-02T12:15:55Z</time>
        <extensions>
          <gpxtpx:TrackPointExtension xmlns:gpxtpx="http://www.garmin.com/xmlschemas/TrackPointExtension/v1">
            <gpxtpx:hr>130</gpxtpx:hr>
          </gpxtpx:TrackPointExtension>
        </extensions>
      </trkpt>
      <trkpt lat="46.13331" lon="6.26642">
        <ele>484.5</ele>
        <time>2021-03-02T12:15:56Z</time>
        <extensions>
          <gpxtpx:TrackPointExtension xmlns:gpxtpx="http://www.garmin.com/xmlschemas/TrackPointExtension/v1">
            <gpxtpx:hr>131</gpxtpx:hr>
          </gpxtpx:TrackPointExtension>
        </extensions>
      </trkpt>
      <trkpt lat="46.13332" lon="6.26652">
        <ele>484.4</ele>
        <time>2021-03-02T12:15:57Z</time>
        <extensions>
          <gpxtpx:TrackPointExtension xmlns:gpxtpx="http://www.garmin.com/xmlschemas/TrackPointExtension/v1">
            <gpxtpx:hr>131</gpxtpx:hr>
          </gpxtpx:TrackPointExtension>
        </extensions>
      </trkpt>
      <trkpt lat="46.13333" lon="6.26662">
        <ele>484.4</ele>
        <time>2021-03-02T12:15:58Z</time>
        <extensions>
          <gpxtpx:TrackPointExtension xmlns:gpxtpx="http://www.garmin.com/xmlschemas/TrackPointExtension/v1">
            <gpxtpx:hr>131</gpxtpx:hr>
          </gpxtpx:TrackPointExtension>
        </extensions>
      </trkpt>
      <trkpt lat="46.13333" lon="6.26672">
        <ele>484.3</ele>
        <time>2021-03-02T12:15:59Z</time>
        <extensions>
          <gpxtpx:TrackPointExtension xmlns:gpxtpx="http://www.garmin.com/xmlschemas/TrackPointExtension/v1">
            <gpxtpx:hr>131</gpxtpx:hr>
          </gpxtpx:TrackPointExtension>
        </extensions>
      </trkpt>
      <trkpt lat="46.13333" lon="6.26683">
        <ele>484.3</ele>
        <time>2021-03-02T12:16:00Z</time>
        <extensions>
          <gpxtpx:TrackPointExtension xmlns:gpxtpx="http://www.garmin.com/xmlschemas/TrackPointExtension/v1">
            <gpxtpx:hr>131</gpxtpx:hr>
          </gpxtpx:TrackPointExtension>
        </extensions>
      </trkpt>
      <trkpt lat="46.13333" lon="6.26693">
        <ele>484.2</ele>
        <time>2021-03-02T12:16:01Z</time>
        <extensions>
          <gpxtpx:TrackPointExtension xmlns:gpxtpx="http://www.garmin.com/xmlschemas/TrackPointExtension/v1">
            <gpxtpx:hr>131</gpxtpx:hr>
          </gpxtpx:TrackPointExtension>
        </extensions>
      </trkpt>
      <trkpt lat="46.13333" lon="6.26703">
        <ele>484.2</ele>
        <time>2021-03-02T12:16:02Z</time>
        <extensions>
          <gpxtpx:TrackPointExtension xmlns:gpxtpx="http://www.garmin.com/xmlschemas/TrackPointExtension/v1">
            <gpxtpx:hr>131</gpxtpx:hr>
          </gpxtpx:TrackPointExtension>
        </extensions>
      </trkpt>
      <trkpt lat="46.13333" lon="6.26714">
        <ele>484.1</ele>
        <time>2021-03-02T12:16:03Z</time>
        <extensions>
          <gpxtpx:TrackPointExtension xmlns:gpxtpx="http://www.garmin.com/xmlschemas/TrackPointExtension/v1">
            <gpxtpx:hr>130</gpxtpx:hr>
          </gpxtpx:TrackPointExtension>
        </extensions>
      </trkpt>
      <trkpt lat="46.13333" lon="6.26724">
        <ele>484.1</ele>
        <time>2021-03-02T12:16:04Z</time>
        <extensions>
          <gpxtpx:TrackPointExtension xmlns:gpxtpx="http://www.garmin.com/xmlschemas/TrackPointExtension/v1">
            <gpxtpx:hr>130</gpxtpx:hr>
          </gpxtpx:TrackPointExtension>
        </extensions>
      </trkpt>
      <trkpt lat="46.13333" lon="6.26734">
        <ele>484.1</ele>
        <time>2021-03-02T12:16:05Z</time>
        <extensions>
          <gpxtpx:TrackPointExtension xmlns:gpxtpx="http://www.garmin.com/xmlschemas/TrackPointExtension/v1">
            <gpxtpx:hr>130</gpxtpx:hr>
          </gpxtpx:TrackPointExtension>
        </extensions>
      </trkpt>
      <trkpt lat="46.13332" lon="6.26745">
        <ele>484</ele>
        <time>2021-03-02T12:16:06Z</time>
        <extensions>
          <gpxtpx:TrackPointExtension xmlns:gpxtpx="http://www.garmin.com/xmlschemas/TrackPointExtension/v1">
            <gpxtpx:hr>131</gpxtpx:hr>
          </gpxtpx:TrackPointExtension>
        </extensions>
      </trkpt>
      <trkpt lat="46.13332" lon="6.26755">
        <ele>484</ele>
        <time>2021-03-02T12:16:07Z</time>
        <extensions>
          <gpxtpx:TrackPointExtension xmlns:gpxtpx="http://www.garmin.com/xmlschemas/TrackPointExtension/v1">
            <gpxtpx:hr>131</gpxtpx:hr>
          </gpxtpx:TrackPointExtension>
        </extensions>
      </trkpt>
      <trkpt lat="46.1333" lon="6.26764">
        <ele>483.9</ele>
        <time>2021-03-02T12:16:08Z</time>
        <extensions>
          <gpxtpx:TrackPointExtension xmlns:gpxtpx="http://www.garmin.com/xmlschemas/TrackPointExtension/v1">
            <gpxtpx:hr>131</gpxtpx:hr>
          </gpxtpx:TrackPointExtension>
        </extensions>
      </trkpt>
      <trkpt lat="46.13326" lon="6.26772">
        <ele>483.9</ele>
        <time>2021-03-02T12:16:09Z</time>
        <extensions>
          <gpxtpx:TrackPointExtension xmlns:gpxtpx="http://www.garmin.com/xmlschemas/TrackPointExtension/v1">
            <gpxtpx:hr>131</gpxtpx:hr>
          </gpxtpx:TrackPointExtension>
        </extensions>
      </trkpt>
      <trkpt lat="46.13321" lon="6.26778">
        <ele>484</ele>
        <time>2021-03-02T12:16:10Z</time>
        <extensions>
          <gpxtpx:TrackPointExtension xmlns:gpxtpx="http://www.garmin.com/xmlschemas/TrackPointExtension/v1">
            <gpxtpx:hr>131</gpxtpx:hr>
          </gpxtpx:TrackPointExtension>
        </extensions>
      </trkpt>
      <trkpt lat="46.13316" lon="6.26782">
        <ele>484</ele>
        <time>2021-03-02T12:16:11Z</time>
        <extensions>
          <gpxtpx:TrackPointExtension xmlns:gpxtpx="http://www.garmin.com/xmlschemas/TrackPointExtension/v1">
            <gpxtpx:hr>131</gpxtpx:hr>
          </gpxtpx:TrackPointExtension>
        </extensions>
      </trkpt>
      <trkpt lat="46.13311" lon="6.26785">
        <ele>484</ele>
        <time>2021-03-02T12:16:12Z</time>
        <extensions>
          <gpxtpx:TrackPointExtension xmlns:gpxtpx="http://www.garmin.com/xmlschemas/TrackPointExtension/v1">
            <gpxtpx:hr>131</gpxtpx:hr>
          </gpxtpx:TrackPointExtension>
        </extensions>
      </trkpt>
      <trkpt lat="46.13306" lon="6.26788">
        <ele>484.1</ele>
        <time>2021-03-02T12:16:13Z</time>
        <extensions>
          <gpxtpx:TrackPointExtension xmlns:gpxtpx="http://www.garmin.com/xmlschemas/TrackPointExtension/v1">
            <gpxtpx:hr>131</gpxtpx:hr>
          </gpxtpx:TrackPointExtension>
        </extensions>
      </trkpt>
      <trkpt lat="46.133" lon="6.2679">
        <ele>484.2</ele>
        <time>2021-03-02T12:16:14Z</time>
        <extensions>
          <gpxtpx:TrackPointExtension xmlns:gpxtpx="http://www.garmin.com/xmlschemas/TrackPointExtension/v1">
            <gpxtpx:hr>131</gpxtpx:hr>
          </gpxtpx:TrackPointExtension>
        </extensions>
      </trkpt>
      <trkpt lat="46.13295" lon="6.26793">
        <ele>484.3</ele>
        <time>2021-03-02T12:16:15Z</time>
        <extensions>
          <gpxtpx:TrackPointExtension xmlns:gpxtpx="http://www.garmin.com/xmlschemas/TrackPointExtension/v1">
            <gpxtpx:hr>131</gpxtpx:hr>
          </gpxtpx:TrackPointExtension>
        </extensions>
      </trkpt>
      <trkpt lat="46.13289" lon="6.26794">
        <ele>484.4</ele>
        <time>2021-03-02T12:16:16Z</time>
        <extensions>
          <gpxtpx:TrackPointExtension xmlns:gpxtpx="http://www.garmin.com/xmlschemas/TrackPointExtension/v1">
            <gpxtpx:hr>130</gpxtpx:hr>
          </gpxtpx:TrackPointExtension>
        </extensions>
      </trkpt>
      <trkpt lat="46.13283" lon="6.26794">
        <ele>484.4</ele>
        <time>2021-03-02T12:16:17Z</time>
        <extensions>
          <gpxtpx:TrackPointExtension xmlns:gpxtpx="http://www.garmin.com/xmlschemas/TrackPointExtension/v1">
            <gpxtpx:hr>130</gpxtpx:hr>
          </gpxtpx:TrackPointExtension>
        </extensions>
      </trkpt>
      <trkpt lat="46.13277" lon="6.26793">
        <ele>484.5</ele>
        <time>2021-03-02T12:16:18Z</time>
        <extensions>
          <gpxtpx:TrackPointExtension xmlns:gpxtpx="http://www.garmin.com/xmlschemas/TrackPointExtension/v1">
            <gpxtpx:hr>129</gpxtpx:hr>
          </gpxtpx:TrackPointExtension>
        </extensions>
      </trkpt>
      <trkpt lat="46.13272" lon="6.26791">
        <ele>484.5</ele>
        <time>2021-03-02T12:16:19Z</time>
        <extensions>
          <gpxtpx:TrackPointExtension xmlns:gpxtpx="http://www.garmin.com/xmlschemas/TrackPointExtension/v1">
            <gpxtpx:hr>129</gpxtpx:hr>
          </gpxtpx:TrackPointExtension>
        </extensions>
      </trkpt>
      <trkpt lat="46.13266" lon="6.26788">
        <ele>484.6</ele>
        <time>2021-03-02T12:16:20Z</time>
        <extensions>
          <gpxtpx:TrackPointExtension xmlns:gpxtpx="http://www.garmin.com/xmlschemas/TrackPointExtension/v1">
            <gpxtpx:hr>129</gpxtpx:hr>
          </gpxtpx:TrackPointExtension>
        </extensions>
      </trkpt>
      <trkpt lat="46.1326" lon="6.26786">
        <ele>484.7</ele>
        <time>2021-03-02T12:16:21Z</time>
        <extensions>
          <gpxtpx:TrackPointExtension xmlns:gpxtpx="http://www.garmin.com/xmlschemas/TrackPointExtension/v1">
            <gpxtpx:hr>129</gpxtpx:hr>
          </gpxtpx:TrackPointExtension>
        </extensions>
      </trkpt>
      <trkpt lat="46.13254" lon="6.26784">
        <ele>484.7</ele>
        <time>2021-03-02T12:16:22Z</time>
        <extensions>
          <gpxtpx:TrackPointExtension xmlns:gpxtpx="http://www.garmin.com/xmlschemas/TrackPointExtension/v1">
            <gpxtpx:hr>129</gpxtpx:hr>
          </gpxtpx:TrackPointExtension>
        </extensions>
      </trkpt>
      <trkpt lat="46.13248" lon="6.26781">
        <ele>484.8</ele>
        <time>2021-03-02T12:16:23Z</time>
        <extensions>
          <gpxtpx:TrackPointExtension xmlns:gpxtpx="http://www.garmin.com/xmlschemas/TrackPointExtension/v1">
            <gpxtpx:hr>129</gpxtpx:hr>
          </gpxtpx:TrackPointExtension>
        </extensions>
      </trkpt>
      <trkpt lat="46.13242" lon="6.26779">
        <ele>484.9</ele>
        <time>2021-03-02T12:16:24Z</time>
        <extensions>
          <gpxtpx:TrackPointExtension xmlns:gpxtpx="http://www.garmin.com/xmlschemas/TrackPointExtension/v1">
            <gpxtpx:hr>128</gpxtpx:hr>
          </gpxtpx:TrackPointExtension>
        </extensions>
      </trkpt>
      <trkpt lat="46.13236" lon="6.26778">
        <ele>485</ele>
        <time>2021-03-02T12:16:25Z</time>
        <extensions>
          <gpxtpx:TrackPointExtension xmlns:gpxtpx="http://www.garmin.com/xmlschemas/TrackPointExtension/v1">
            <gpxtpx:hr>128</gpxtpx:hr>
          </gpxtpx:TrackPointExtension>
        </extensions>
      </trkpt>
      <trkpt lat="46.13229" lon="6.26776">
        <ele>485.1</ele>
        <time>2021-03-02T12:16:26Z</time>
        <extensions>
          <gpxtpx:TrackPointExtension xmlns:gpxtpx="http://www.garmin.com/xmlschemas/TrackPointExtension/v1">
            <gpxtpx:hr>129</gpxtpx:hr>
          </gpxtpx:TrackPointExtension>
        </extensions>
      </trkpt>
      <trkpt lat="46.13223" lon="6.26775">
        <ele>485.1</ele>
        <time>2021-03-02T12:16:27Z</time>
        <extensions>
          <gpxtpx:TrackPointExtension xmlns:gpxtpx="http://www.garmin.com/xmlschemas/TrackPointExtension/v1">
            <gpxtpx:hr>129</gpxtpx:hr>
          </gpxtpx:TrackPointExtension>
        </extensions>
      </trkpt>
      <trkpt lat="46.13217" lon="6.26775">
        <ele>485.2</ele>
        <time>2021-03-02T12:16:28Z</time>
        <extensions>
          <gpxtpx:TrackPointExtension xmlns:gpxtpx="http://www.garmin.com/xmlschemas/TrackPointExtension/v1">
            <gpxtpx:hr>129</gpxtpx:hr>
          </gpxtpx:TrackPointExtension>
        </extensions>
      </trkpt>
      <trkpt lat="46.1321" lon="6.26775">
        <ele>485.4</ele>
        <time>2021-03-02T12:16:29Z</time>
        <extensions>
          <gpxtpx:TrackPointExtension xmlns:gpxtpx="http://www.garmin.com/xmlschemas/TrackPointExtension/v1">
            <gpxtpx:hr>129</gpxtpx:hr>
          </gpxtpx:TrackPointExtension>
        </extensions>
      </trkpt>
      <trkpt lat="46.13204" lon="6.26774">
        <ele>485.6</ele>
        <time>2021-03-02T12:16:30Z</time>
        <extensions>
          <gpxtpx:TrackPointExtension xmlns:gpxtpx="http://www.garmin.com/xmlschemas/TrackPointExtension/v1">
            <gpxtpx:hr>129</gpxtpx:hr>
          </gpxtpx:TrackPointExtension>
        </extensions>
      </trkpt>
      <trkpt lat="46.13197" lon="6.26774">
        <ele>485.8</ele>
        <time>2021-03-02T12:16:31Z</time>
        <extensions>
          <gpxtpx:TrackPointExtension xmlns:gpxtpx="http://www.garmin.com/xmlschemas/TrackPointExtension/v1">
            <gpxtpx:hr>129</gpxtpx:hr>
          </gpxtpx:TrackPointExtension>
        </extensions>
      </trkpt>
      <trkpt lat="46.13191" lon="6.26775">
        <ele>486.1</ele>
        <time>2021-03-02T12:16:32Z</time>
        <extensions>
          <gpxtpx:TrackPointExtension xmlns:gpxtpx="http://www.garmin.com/xmlschemas/TrackPointExtension/v1">
            <gpxtpx:hr>129</gpxtpx:hr>
          </gpxtpx:TrackPointExtension>
        </extensions>
      </trkpt>
      <trkpt lat="46.13184" lon="6.26775">
        <ele>486.3</ele>
        <time>2021-03-02T12:16:33Z</time>
        <extensions>
          <gpxtpx:TrackPointExtension xmlns:gpxtpx="http://www.garmin.com/xmlschemas/TrackPointExtension/v1">
            <gpxtpx:hr>129</gpxtpx:hr>
          </gpxtpx:TrackPointExtension>
        </extensions>
      </trkpt>
      <trkpt lat="46.13178" lon="6.26775">
        <ele>486.5</ele>
        <time>2021-03-02T12:16:34Z</time>
        <extensions>
          <gpxtpx:TrackPointExtension xmlns:gpxtpx="http://www.garmin.com/xmlschemas/TrackPointExtension/v1">
            <gpxtpx:hr>129</gpxtpx:hr>
          </gpxtpx:TrackPointExtension>
        </extensions>
      </trkpt>
      <trkpt lat="46.13171" lon="6.26775">
        <ele>486.7</ele>
        <time>2021-03-02T12:16:35Z</time>
        <extensions>
          <gpxtpx:TrackPointExtension xmlns:gpxtpx="http://www.garmin.com/xmlschemas/TrackPointExtension/v1">
            <gpxtpx:hr>129</gpxtpx:hr>
          </gpxtpx:TrackPointExtension>
        </extensions>
      </trkpt>
      <trkpt lat="46.13165" lon="6.26775">
        <ele>486.9</ele>
        <time>2021-03-02T12:16:36Z</time>
        <extensions>
          <gpxtpx:TrackPointExtension xmlns:gpxtpx="http://www.garmin.com/xmlschemas/TrackPointExtension/v1">
            <gpxtpx:hr>130</gpxtpx:hr>
          </gpxtpx:TrackPointExtension>
        </extensions>
      </trkpt>
      <trkpt lat="46.13158" lon="6.26774">
        <ele>487.1</ele>
        <time>2021-03-02T12:16:37Z</time>
        <extensions>
          <gpxtpx:TrackPointExtension xmlns:gpxtpx="http://www.garmin.com/xmlschemas/TrackPointExtension/v1">
            <gpxtpx:hr>131</gpxtpx:hr>
          </gpxtpx:TrackPointExtension>
        </extensions>
      </trkpt>
      <trkpt lat="46.13152" lon="6.26774">
        <ele>487.2</ele>
        <time>2021-03-02T12:16:38Z</time>
        <extensions>
          <gpxtpx:TrackPointExtension xmlns:gpxtpx="http://www.garmin.com/xmlschemas/TrackPointExtension/v1">
            <gpxtpx:hr>131</gpxtpx:hr>
          </gpxtpx:TrackPointExtension>
        </extensions>
      </trkpt>
      <trkpt lat="46.13145" lon="6.26774">
        <ele>487.2</ele>
        <time>2021-03-02T12:16:39Z</time>
        <extensions>
          <gpxtpx:TrackPointExtension xmlns:gpxtpx="http://www.garmin.com/xmlschemas/TrackPointExtension/v1">
            <gpxtpx:hr>132</gpxtpx:hr>
          </gpxtpx:TrackPointExtension>
        </extensions>
      </trkpt>
      <trkpt lat="46.13139" lon="6.26774">
        <ele>487.4</ele>
        <time>2021-03-02T12:16:40Z</time>
        <extensions>
          <gpxtpx:TrackPointExtension xmlns:gpxtpx="http://www.garmin.com/xmlschemas/TrackPointExtension/v1">
            <gpxtpx:hr>132</gpxtpx:hr>
          </gpxtpx:TrackPointExtension>
        </extensions>
      </trkpt>
      <trkpt lat="46.13132" lon="6.26773">
        <ele>487.5</ele>
        <time>2021-03-02T12:16:41Z</time>
        <extensions>
          <gpxtpx:TrackPointExtension xmlns:gpxtpx="http://www.garmin.com/xmlschemas/TrackPointExtension/v1">
            <gpxtpx:hr>133</gpxtpx:hr>
          </gpxtpx:TrackPointExtension>
        </extensions>
      </trkpt>
      <trkpt lat="46.13126" lon="6.26772">
        <ele>487.7</ele>
        <time>2021-03-02T12:16:42Z</time>
        <extensions>
          <gpxtpx:TrackPointExtension xmlns:gpxtpx="http://www.garmin.com/xmlschemas/TrackPointExtension/v1">
            <gpxtpx:hr>134</gpxtpx:hr>
          </gpxtpx:TrackPointExtension>
        </extensions>
      </trkpt>
      <trkpt lat="46.1312" lon="6.26772">
        <ele>487.8</ele>
        <time>2021-03-02T12:16:43Z</time>
        <extensions>
          <gpxtpx:TrackPointExtension xmlns:gpxtpx="http://www.garmin.com/xmlschemas/TrackPointExtension/v1">
            <gpxtpx:hr>134</gpxtpx:hr>
          </gpxtpx:TrackPointExtension>
        </extensions>
      </trkpt>
      <trkpt lat="46.13114" lon="6.2677">
        <ele>488</ele>
        <time>2021-03-02T12:16:44Z</time>
        <extensions>
          <gpxtpx:TrackPointExtension xmlns:gpxtpx="http://www.garmin.com/xmlschemas/TrackPointExtension/v1">
            <gpxtpx:hr>134</gpxtpx:hr>
          </gpxtpx:TrackPointExtension>
        </extensions>
      </trkpt>
      <trkpt lat="46.13108" lon="6.26769">
        <ele>488.1</ele>
        <time>2021-03-02T12:16:45Z</time>
        <extensions>
          <gpxtpx:TrackPointExtension xmlns:gpxtpx="http://www.garmin.com/xmlschemas/TrackPointExtension/v1">
            <gpxtpx:hr>135</gpxtpx:hr>
          </gpxtpx:TrackPointExtension>
        </extensions>
      </trkpt>
      <trkpt lat="46.13103" lon="6.26767">
        <ele>488.3</ele>
        <time>2021-03-02T12:16:46Z</time>
        <extensions>
          <gpxtpx:TrackPointExtension xmlns:gpxtpx="http://www.garmin.com/xmlschemas/TrackPointExtension/v1">
            <gpxtpx:hr>135</gpxtpx:hr>
          </gpxtpx:TrackPointExtension>
        </extensions>
      </trkpt>
      <trkpt lat="46.13097" lon="6.26765">
        <ele>488.4</ele>
        <time>2021-03-02T12:16:47Z</time>
        <extensions>
          <gpxtpx:TrackPointExtension xmlns:gpxtpx="http://www.garmin.com/xmlschemas/TrackPointExtension/v1">
            <gpxtpx:hr>135</gpxtpx:hr>
          </gpxtpx:TrackPointExtension>
        </extensions>
      </trkpt>
      <trkpt lat="46.13091" lon="6.26763">
        <ele>488.6</ele>
        <time>2021-03-02T12:16:48Z</time>
        <extensions>
          <gpxtpx:TrackPointExtension xmlns:gpxtpx="http://www.garmin.com/xmlschemas/TrackPointExtension/v1">
            <gpxtpx:hr>135</gpxtpx:hr>
          </gpxtpx:TrackPointExtension>
        </extensions>
      </trkpt>
      <trkpt lat="46.13085" lon="6.2676">
        <ele>488.8</ele>
        <time>2021-03-02T12:16:49Z</time>
        <extensions>
          <gpxtpx:TrackPointExtension xmlns:gpxtpx="http://www.garmin.com/xmlschemas/TrackPointExtension/v1">
            <gpxtpx:hr>135</gpxtpx:hr>
          </gpxtpx:TrackPointExtension>
        </extensions>
      </trkpt>
      <trkpt lat="46.1308" lon="6.26757">
        <ele>488.9</ele>
        <time>2021-03-02T12:16:50Z</time>
        <extensions>
          <gpxtpx:TrackPointExtension xmlns:gpxtpx="http://www.garmin.com/xmlschemas/TrackPointExtension/v1">
            <gpxtpx:hr>136</gpxtpx:hr>
          </gpxtpx:TrackPointExtension>
        </extensions>
      </trkpt>
      <trkpt lat="46.13074" lon="6.26754">
        <ele>489.1</ele>
        <time>2021-03-02T12:16:51Z</time>
        <extensions>
          <gpxtpx:TrackPointExtension xmlns:gpxtpx="http://www.garmin.com/xmlschemas/TrackPointExtension/v1">
            <gpxtpx:hr>136</gpxtpx:hr>
          </gpxtpx:TrackPointExtension>
        </extensions>
      </trkpt>
      <trkpt lat="46.13069" lon="6.2675">
        <ele>489.3</ele>
        <time>2021-03-02T12:16:52Z</time>
        <extensions>
          <gpxtpx:TrackPointExtension xmlns:gpxtpx="http://www.garmin.com/xmlschemas/TrackPointExtension/v1">
            <gpxtpx:hr>136</gpxtpx:hr>
          </gpxtpx:TrackPointExtension>
        </extensions>
      </trkpt>
      <trkpt lat="46.13064" lon="6.26746">
        <ele>489.5</ele>
        <time>2021-03-02T12:16:53Z</time>
        <extensions>
          <gpxtpx:TrackPointExtension xmlns:gpxtpx="http://www.garmin.com/xmlschemas/TrackPointExtension/v1">
            <gpxtpx:hr>137</gpxtpx:hr>
          </gpxtpx:TrackPointExtension>
        </extensions>
      </trkpt>
      <trkpt lat="46.13059" lon="6.26742">
        <ele>489.8</ele>
        <time>2021-03-02T12:16:54Z</time>
        <extensions>
          <gpxtpx:TrackPointExtension xmlns:gpxtpx="http://www.garmin.com/xmlschemas/TrackPointExtension/v1">
            <gpxtpx:hr>137</gpxtpx:hr>
          </gpxtpx:TrackPointExtension>
        </extensions>
      </trkpt>
      <trkpt lat="46.13053" lon="6.26738">
        <ele>489.8</ele>
        <time>2021-03-02T12:16:55Z</time>
        <extensions>
          <gpxtpx:TrackPointExtension xmlns:gpxtpx="http://www.garmin.com/xmlschemas/TrackPointExtension/v1">
            <gpxtpx:hr>137</gpxtpx:hr>
          </gpxtpx:TrackPointExtension>
        </extensions>
      </trkpt>
      <trkpt lat="46.13048" lon="6.26733">
        <ele>489.8</ele>
        <time>2021-03-02T12:16:56Z</time>
        <extensions>
          <gpxtpx:TrackPointExtension xmlns:gpxtpx="http://www.garmin.com/xmlschemas/TrackPointExtension/v1">
            <gpxtpx:hr>137</gpxtpx:hr>
          </gpxtpx:TrackPointExtension>
        </extensions>
      </trkpt>
      <trkpt lat="46.13043" lon="6.26729">
        <ele>489.7</ele>
        <time>2021-03-02T12:16:57Z</time>
        <extensions>
          <gpxtpx:TrackPointExtension xmlns:gpxtpx="http://www.garmin.com/xmlschemas/TrackPointExtension/v1">
            <gpxtpx:hr>138</gpxtpx:hr>
          </gpxtpx:TrackPointExtension>
        </extensions>
      </trkpt>
      <trkpt lat="46.13038" lon="6.26724">
        <ele>489.7</ele>
        <time>2021-03-02T12:16:58Z</time>
        <extensions>
          <gpxtpx:TrackPointExtension xmlns:gpxtpx="http://www.garmin.com/xmlschemas/TrackPointExtension/v1">
            <gpxtpx:hr>138</gpxtpx:hr>
          </gpxtpx:TrackPointExtension>
        </extensions>
      </trkpt>
      <trkpt lat="46.13033" lon="6.2672">
        <ele>489.8</ele>
        <time>2021-03-02T12:16:59Z</time>
        <extensions>
          <gpxtpx:TrackPointExtension xmlns:gpxtpx="http://www.garmin.com/xmlschemas/TrackPointExtension/v1">
            <gpxtpx:hr>138</gpxtpx:hr>
          </gpxtpx:TrackPointExtension>
        </extensions>
      </trkpt>
      <trkpt lat="46.13028" lon="6.26716">
        <ele>490.2</ele>
        <time>2021-03-02T12:17:00Z</time>
        <extensions>
          <gpxtpx:TrackPointExtension xmlns:gpxtpx="http://www.garmin.com/xmlschemas/TrackPointExtension/v1">
            <gpxtpx:hr>138</gpxtpx:hr>
          </gpxtpx:TrackPointExtension>
        </extensions>
      </trkpt>
      <trkpt lat="46.13023" lon="6.26711">
        <ele>490.6</ele>
        <time>2021-03-02T12:17:01Z</time>
        <extensions>
          <gpxtpx:TrackPointExtension xmlns:gpxtpx="http://www.garmin.com/xmlschemas/TrackPointExtension/v1">
            <gpxtpx:hr>139</gpxtpx:hr>
          </gpxtpx:TrackPointExtension>
        </extensions>
      </trkpt>
      <trkpt lat="46.13017" lon="6.26707">
        <ele>491</ele>
        <time>2021-03-02T12:17:02Z</time>
        <extensions>
          <gpxtpx:TrackPointExtension xmlns:gpxtpx="http://www.garmin.com/xmlschemas/TrackPointExtension/v1">
            <gpxtpx:hr>139</gpxtpx:hr>
          </gpxtpx:TrackPointExtension>
        </extensions>
      </trkpt>
      <trkpt lat="46.13012" lon="6.26703">
        <ele>491.4</ele>
        <time>2021-03-02T12:17:03Z</time>
        <extensions>
          <gpxtpx:TrackPointExtension xmlns:gpxtpx="http://www.garmin.com/xmlschemas/TrackPointExtension/v1">
            <gpxtpx:hr>139</gpxtpx:hr>
          </gpxtpx:TrackPointExtension>
        </extensions>
      </trkpt>
      <trkpt lat="46.13007" lon="6.26699">
        <ele>491.8</ele>
        <time>2021-03-02T12:17:04Z</time>
        <extensions>
          <gpxtpx:TrackPointExtension xmlns:gpxtpx="http://www.garmin.com/xmlschemas/TrackPointExtension/v1">
            <gpxtpx:hr>139</gpxtpx:hr>
          </gpxtpx:TrackPointExtension>
        </extensions>
      </trkpt>
      <trkpt lat="46.13001" lon="6.26696">
        <ele>492.2</ele>
        <time>2021-03-02T12:17:05Z</time>
        <extensions>
          <gpxtpx:TrackPointExtension xmlns:gpxtpx="http://www.garmin.com/xmlschemas/TrackPointExtension/v1">
            <gpxtpx:hr>139</gpxtpx:hr>
          </gpxtpx:TrackPointExtension>
        </extensions>
      </trkpt>
      <trkpt lat="46.12996" lon="6.26692">
        <ele>492</ele>
        <time>2021-03-02T12:17:06Z</time>
        <extensions>
          <gpxtpx:TrackPointExtension xmlns:gpxtpx="http://www.garmin.com/xmlschemas/TrackPointExtension/v1">
            <gpxtpx:hr>139</gpxtpx:hr>
          </gpxtpx:TrackPointExtension>
        </extensions>
      </trkpt>
      <trkpt lat="46.12991" lon="6.26689">
        <ele>492.3</ele>
        <time>2021-03-02T12:17:07Z</time>
        <extensions>
          <gpxtpx:TrackPointExtension xmlns:gpxtpx="http://www.garmin.com/xmlschemas/TrackPointExtension/v1">
            <gpxtpx:hr>139</gpxtpx:hr>
          </gpxtpx:TrackPointExtension>
        </extensions>
      </trkpt>
      <trkpt lat="46.12986" lon="6.26686">
        <ele>492.5</ele>
        <time>2021-03-02T12:17:08Z</time>
        <extensions>
          <gpxtpx:TrackPointExtension xmlns:gpxtpx="http://www.garmin.com/xmlschemas/TrackPointExtension/v1">
            <gpxtpx:hr>139</gpxtpx:hr>
          </gpxtpx:TrackPointExtension>
        </extensions>
      </trkpt>
      <trkpt lat="46.12981" lon="6.26683">
        <ele>492.7</ele>
        <time>2021-03-02T12:17:09Z</time>
        <extensions>
          <gpxtpx:TrackPointExtension xmlns:gpxtpx="http://www.garmin.com/xmlschemas/TrackPointExtension/v1">
            <gpxtpx:hr>140</gpxtpx:hr>
          </gpxtpx:TrackPointExtension>
        </extensions>
      </trkpt>
      <trkpt lat="46.12976" lon="6.2668">
        <ele>492.9</ele>
        <time>2021-03-02T12:17:10Z</time>
        <extensions>
          <gpxtpx:TrackPointExtension xmlns:gpxtpx="http://www.garmin.com/xmlschemas/TrackPointExtension/v1">
            <gpxtpx:hr>140</gpxtpx:hr>
          </gpxtpx:TrackPointExtension>
        </extensions>
      </trkpt>
      <trkpt lat="46.12971" lon="6.26677">
        <ele>493.1</ele>
        <time>2021-03-02T12:17:11Z</time>
        <extensions>
          <gpxtpx:TrackPointExtension xmlns:gpxtpx="http://www.garmin.com/xmlschemas/TrackPointExtension/v1">
            <gpxtpx:hr>140</gpxtpx:hr>
          </gpxtpx:TrackPointExtension>
        </extensions>
      </trkpt>
      <trkpt lat="46.12966" lon="6.26675">
        <ele>493.4</ele>
        <time>2021-03-02T12:17:12Z</time>
        <extensions>
          <gpxtpx:TrackPointExtension xmlns:gpxtpx="http://www.garmin.com/xmlschemas/TrackPointExtension/v1">
            <gpxtpx:hr>140</gpxtpx:hr>
          </gpxtpx:TrackPointExtension>
        </extensions>
      </trkpt>
      <trkpt lat="46.12961" lon="6.26673">
        <ele>493.6</ele>
        <time>2021-03-02T12:17:13Z</time>
        <extensions>
          <gpxtpx:TrackPointExtension xmlns:gpxtpx="http://www.garmin.com/xmlschemas/TrackPointExtension/v1">
            <gpxtpx:hr>141</gpxtpx:hr>
          </gpxtpx:TrackPointExtension>
        </extensions>
      </trkpt>
      <trkpt lat="46.12956" lon="6.26671">
        <ele>493.8</ele>
        <time>2021-03-02T12:17:14Z</time>
        <extensions>
          <gpxtpx:TrackPointExtension xmlns:gpxtpx="http://www.garmin.com/xmlschemas/TrackPointExtension/v1">
            <gpxtpx:hr>141</gpxtpx:hr>
          </gpxtpx:TrackPointExtension>
        </extensions>
      </trkpt>
      <trkpt lat="46.12952" lon="6.26669">
        <ele>494.1</ele>
        <time>2021-03-02T12:17:15Z</time>
        <extensions>
          <gpxtpx:TrackPointExtension xmlns:gpxtpx="http://www.garmin.com/xmlschemas/TrackPointExtension/v1">
            <gpxtpx:hr>141</gpxtpx:hr>
          </gpxtpx:TrackPointExtension>
        </extensions>
      </trkpt>
      <trkpt lat="46.12947" lon="6.26667">
        <ele>494.4</ele>
        <time>2021-03-02T12:17:16Z</time>
        <extensions>
          <gpxtpx:TrackPointExtension xmlns:gpxtpx="http://www.garmin.com/xmlschemas/TrackPointExtension/v1">
            <gpxtpx:hr>141</gpxtpx:hr>
          </gpxtpx:TrackPointExtension>
        </extensions>
      </trkpt>
      <trkpt lat="46.12942" lon="6.26665">
        <ele>494.6</ele>
        <time>2021-03-02T12:17:17Z</time>
        <extensions>
          <gpxtpx:TrackPointExtension xmlns:gpxtpx="http://www.garmin.com/xmlschemas/TrackPointExtension/v1">
            <gpxtpx:hr>141</gpxtpx:hr>
          </gpxtpx:TrackPointExtension>
        </extensions>
      </trkpt>
      <trkpt lat="46.12938" lon="6.26663">
        <ele>494.9</ele>
        <time>2021-03-02T12:17:18Z</time>
        <extensions>
          <gpxtpx:TrackPointExtension xmlns:gpxtpx="http://www.garmin.com/xmlschemas/TrackPointExtension/v1">
            <gpxtpx:hr>142</gpxtpx:hr>
          </gpxtpx:TrackPointExtension>
        </extensions>
      </trkpt>
      <trkpt lat="46.12933" lon="6.26662">
        <ele>495.2</ele>
        <time>2021-03-02T12:17:19Z</time>
        <extensions>
          <gpxtpx:TrackPointExtension xmlns:gpxtpx="http://www.garmin.com/xmlschemas/TrackPointExtension/v1">
            <gpxtpx:hr>142</gpxtpx:hr>
          </gpxtpx:TrackPointExtension>
        </extensions>
      </trkpt>
      <trkpt lat="46.12928" lon="6.26661">
        <ele>495.5</ele>
        <time>2021-03-02T12:17:20Z</time>
        <extensions>
          <gpxtpx:TrackPointExtension xmlns:gpxtpx="http://www.garmin.com/xmlschemas/TrackPointExtension/v1">
            <gpxtpx:hr>142</gpxtpx:hr>
          </gpxtpx:TrackPointExtension>
        </extensions>
      </trkpt>
      <trkpt lat="46.12924" lon="6.2666">
        <ele>495.8</ele>
        <time>2021-03-02T12:17:21Z</time>
        <extensions>
          <gpxtpx:TrackPointExtension xmlns:gpxtpx="http://www.garmin.com/xmlschemas/TrackPointExtension/v1">
            <gpxtpx:hr>143</gpxtpx:hr>
          </gpxtpx:TrackPointExtension>
        </extensions>
      </trkpt>
      <trkpt lat="46.12919" lon="6.26659">
        <ele>496.1</ele>
        <time>2021-03-02T12:17:22Z</time>
        <extensions>
          <gpxtpx:TrackPointExtension xmlns:gpxtpx="http://www.garmin.com/xmlschemas/TrackPointExtension/v1">
            <gpxtpx:hr>143</gpxtpx:hr>
          </gpxtpx:TrackPointExtension>
        </extensions>
      </trkpt>
      <trkpt lat="46.12914" lon="6.26659">
        <ele>496.4</ele>
        <time>2021-03-02T12:17:23Z</time>
        <extensions>
          <gpxtpx:TrackPointExtension xmlns:gpxtpx="http://www.garmin.com/xmlschemas/TrackPointExtension/v1">
            <gpxtpx:hr>143</gpxtpx:hr>
          </gpxtpx:TrackPointExtension>
        </extensions>
      </trkpt>
      <trkpt lat="46.1291" lon="6.26659">
        <ele>496.6</ele>
        <time>2021-03-02T12:17:24Z</time>
        <extensions>
          <gpxtpx:TrackPointExtension xmlns:gpxtpx="http://www.garmin.com/xmlschemas/TrackPointExtension/v1">
            <gpxtpx:hr>143</gpxtpx:hr>
          </gpxtpx:TrackPointExtension>
        </extensions>
      </trkpt>
      <trkpt lat="46.12905" lon="6.26659">
        <ele>496.9</ele>
        <time>2021-03-02T12:17:25Z</time>
        <extensions>
          <gpxtpx:TrackPointExtension xmlns:gpxtpx="http://www.garmin.com/xmlschemas/TrackPointExtension/v1">
            <gpxtpx:hr>144</gpxtpx:hr>
          </gpxtpx:TrackPointExtension>
        </extensions>
      </trkpt>
      <trkpt lat="46.12901" lon="6.26659">
        <ele>497.2</ele>
        <time>2021-03-02T12:17:26Z</time>
        <extensions>
          <gpxtpx:TrackPointExtension xmlns:gpxtpx="http://www.garmin.com/xmlschemas/TrackPointExtension/v1">
            <gpxtpx:hr>144</gpxtpx:hr>
          </gpxtpx:TrackPointExtension>
        </extensions>
      </trkpt>
      <trkpt lat="46.12896" lon="6.26659">
        <ele>497.4</ele>
        <time>2021-03-02T12:17:27Z</time>
        <extensions>
          <gpxtpx:TrackPointExtension xmlns:gpxtpx="http://www.garmin.com/xmlschemas/TrackPointExtension/v1">
            <gpxtpx:hr>144</gpxtpx:hr>
          </gpxtpx:TrackPointExtension>
        </extensions>
      </trkpt>
      <trkpt lat="46.12892" lon="6.26659">
        <ele>497.7</ele>
        <time>2021-03-02T12:17:28Z</time>
        <extensions>
          <gpxtpx:TrackPointExtension xmlns:gpxtpx="http://www.garmin.com/xmlschemas/TrackPointExtension/v1">
            <gpxtpx:hr>145</gpxtpx:hr>
          </gpxtpx:TrackPointExtension>
        </extensions>
      </trkpt>
      <trkpt lat="46.12888" lon="6.2666">
        <ele>497.9</ele>
        <time>2021-03-02T12:17:29Z</time>
        <extensions>
          <gpxtpx:TrackPointExtension xmlns:gpxtpx="http://www.garmin.com/xmlschemas/TrackPointExtension/v1">
            <gpxtpx:hr>145</gpxtpx:hr>
          </gpxtpx:TrackPointExtension>
        </extensions>
      </trkpt>
      <trkpt lat="46.12883" lon="6.2666">
        <ele>498.2</ele>
        <time>2021-03-02T12:17:30Z</time>
        <extensions>
          <gpxtpx:TrackPointExtension xmlns:gpxtpx="http://www.garmin.com/xmlschemas/TrackPointExtension/v1">
            <gpxtpx:hr>146</gpxtpx:hr>
          </gpxtpx:TrackPointExtension>
        </extensions>
      </trkpt>
      <trkpt lat="46.12879" lon="6.26661">
        <ele>498.4</ele>
        <time>2021-03-02T12:17:31Z</time>
        <extensions>
          <gpxtpx:TrackPointExtension xmlns:gpxtpx="http://www.garmin.com/xmlschemas/TrackPointExtension/v1">
            <gpxtpx:hr>146</gpxtpx:hr>
          </gpxtpx:TrackPointExtension>
        </extensions>
      </trkpt>
      <trkpt lat="46.12875" lon="6.26661">
        <ele>498.7</ele>
        <time>2021-03-02T12:17:32Z</time>
        <extensions>
          <gpxtpx:TrackPointExtension xmlns:gpxtpx="http://www.garmin.com/xmlschemas/TrackPointExtension/v1">
            <gpxtpx:hr>146</gpxtpx:hr>
          </gpxtpx:TrackPointExtension>
        </extensions>
      </trkpt>
      <trkpt lat="46.1287" lon="6.26662">
        <ele>498.9</ele>
        <time>2021-03-02T12:17:33Z</time>
        <extensions>
          <gpxtpx:TrackPointExtension xmlns:gpxtpx="http://www.garmin.com/xmlschemas/TrackPointExtension/v1">
            <gpxtpx:hr>147</gpxtpx:hr>
          </gpxtpx:TrackPointExtension>
        </extensions>
      </trkpt>
      <trkpt lat="46.12866" lon="6.26663">
        <ele>499.1</ele>
        <time>2021-03-02T12:17:34Z</time>
        <extensions>
          <gpxtpx:TrackPointExtension xmlns:gpxtpx="http://www.garmin.com/xmlschemas/TrackPointExtension/v1">
            <gpxtpx:hr>147</gpxtpx:hr>
          </gpxtpx:TrackPointExtension>
        </extensions>
      </trkpt>
      <trkpt lat="46.12862" lon="6.26663">
        <ele>499.4</ele>
        <time>2021-03-02T12:17:35Z</time>
        <extensions>
          <gpxtpx:TrackPointExtension xmlns:gpxtpx="http://www.garmin.com/xmlschemas/TrackPointExtension/v1">
            <gpxtpx:hr>147</gpxtpx:hr>
          </gpxtpx:TrackPointExtension>
        </extensions>
      </trkpt>
      <trkpt lat="46.12857" lon="6.26664">
        <ele>499.6</ele>
        <time>2021-03-02T12:17:36Z</time>
        <extensions>
          <gpxtpx:TrackPointExtension xmlns:gpxtpx="http://www.garmin.com/xmlschemas/TrackPointExtension/v1">
            <gpxtpx:hr>148</gpxtpx:hr>
          </gpxtpx:TrackPointExtension>
        </extensions>
      </trkpt>
      <trkpt lat="46.12853" lon="6.26664">
        <ele>499.7</ele>
        <time>2021-03-02T12:17:37Z</time>
        <extensions>
          <gpxtpx:TrackPointExtension xmlns:gpxtpx="http://www.garmin.com/xmlschemas/TrackPointExtension/v1">
            <gpxtpx:hr>148</gpxtpx:hr>
          </gpxtpx:TrackPointExtension>
        </extensions>
      </trkpt>
      <trkpt lat="46.12849" lon="6.26665">
        <ele>499.9</ele>
        <time>2021-03-02T12:17:38Z</time>
        <extensions>
          <gpxtpx:TrackPointExtension xmlns:gpxtpx="http://www.garmin.com/xmlschemas/TrackPointExtension/v1">
            <gpxtpx:hr>148</gpxtpx:hr>
          </gpxtpx:TrackPointExtension>
        </extensions>
      </trkpt>
      <trkpt lat="46.12844" lon="6.26666">
        <ele>500.1</ele>
        <time>2021-03-02T12:17:39Z</time>
        <extensions>
          <gpxtpx:TrackPointExtension xmlns:gpxtpx="http://www.garmin.com/xmlschemas/TrackPointExtension/v1">
            <gpxtpx:hr>149</gpxtpx:hr>
          </gpxtpx:TrackPointExtension>
        </extensions>
      </trkpt>
      <trkpt lat="46.1284" lon="6.26666">
        <ele>500.2</ele>
        <time>2021-03-02T12:17:40Z</time>
        <extensions>
          <gpxtpx:TrackPointExtension xmlns:gpxtpx="http://www.garmin.com/xmlschemas/TrackPointExtension/v1">
            <gpxtpx:hr>149</gpxtpx:hr>
          </gpxtpx:TrackPointExtension>
        </extensions>
      </trkpt>
      <trkpt lat="46.12836" lon="6.26667">
        <ele>500.4</ele>
        <time>2021-03-02T12:17:41Z</time>
        <extensions>
          <gpxtpx:TrackPointExtension xmlns:gpxtpx="http://www.garmin.com/xmlschemas/TrackPointExtension/v1">
            <gpxtpx:hr>149</gpxtpx:hr>
          </gpxtpx:TrackPointExtension>
        </extensions>
      </trkpt>
      <trkpt lat="46.12832" lon="6.26667">
        <ele>500.6</ele>
        <time>2021-03-02T12:17:42Z</time>
        <extensions>
          <gpxtpx:TrackPointExtension xmlns:gpxtpx="http://www.garmin.com/xmlschemas/TrackPointExtension/v1">
            <gpxtpx:hr>150</gpxtpx:hr>
          </gpxtpx:TrackPointExtension>
        </extensions>
      </trkpt>
      <trkpt lat="46.12827" lon="6.26667">
        <ele>500.8</ele>
        <time>2021-03-02T12:17:43Z</time>
        <extensions>
          <gpxtpx:TrackPointExtension xmlns:gpxtpx="http://www.garmin.com/xmlschemas/TrackPointExtension/v1">
            <gpxtpx:hr>150</gpxtpx:hr>
          </gpxtpx:TrackPointExtension>
        </extensions>
      </trkpt>
      <trkpt lat="46.12823" lon="6.26667">
        <ele>500.9</ele>
        <time>2021-03-02T12:17:44Z</time>
        <extensions>
          <gpxtpx:TrackPointExtension xmlns:gpxtpx="http://www.garmin.com/xmlschemas/TrackPointExtension/v1">
            <gpxtpx:hr>151</gpxtpx:hr>
          </gpxtpx:TrackPointExtension>
        </extensions>
      </trkpt>
      <trkpt lat="46.12818" lon="6.26666">
        <ele>501.1</ele>
        <time>2021-03-02T12:17:45Z</time>
        <extensions>
          <gpxtpx:TrackPointExtension xmlns:gpxtpx="http://www.garmin.com/xmlschemas/TrackPointExtension/v1">
            <gpxtpx:hr>151</gpxtpx:hr>
          </gpxtpx:TrackPointExtension>
        </extensions>
      </trkpt>
      <trkpt lat="46.12814" lon="6.26665">
        <ele>501.2</ele>
        <time>2021-03-02T12:17:46Z</time>
        <extensions>
          <gpxtpx:TrackPointExtension xmlns:gpxtpx="http://www.garmin.com/xmlschemas/TrackPointExtension/v1">
            <gpxtpx:hr>151</gpxtpx:hr>
          </gpxtpx:TrackPointExtension>
        </extensions>
      </trkpt>
      <trkpt lat="46.12809" lon="6.26664">
        <ele>501.4</ele>
        <time>2021-03-02T12:17:47Z</time>
        <extensions>
          <gpxtpx:TrackPointExtension xmlns:gpxtpx="http://www.garmin.com/xmlschemas/TrackPointExtension/v1">
            <gpxtpx:hr>152</gpxtpx:hr>
          </gpxtpx:TrackPointExtension>
        </extensions>
      </trkpt>
      <trkpt lat="46.12805" lon="6.26662">
        <ele>501.5</ele>
        <time>2021-03-02T12:17:48Z</time>
        <extensions>
          <gpxtpx:TrackPointExtension xmlns:gpxtpx="http://www.garmin.com/xmlschemas/TrackPointExtension/v1">
            <gpxtpx:hr>152</gpxtpx:hr>
          </gpxtpx:TrackPointExtension>
        </extensions>
      </trkpt>
      <trkpt lat="46.128" lon="6.26661">
        <ele>501.6</ele>
        <time>2021-03-02T12:17:49Z</time>
        <extensions>
          <gpxtpx:TrackPointExtension xmlns:gpxtpx="http://www.garmin.com/xmlschemas/TrackPointExtension/v1">
            <gpxtpx:hr>152</gpxtpx:hr>
          </gpxtpx:TrackPointExtension>
        </extensions>
      </trkpt>
      <trkpt lat="46.12795" lon="6.26659">
        <ele>501.9</ele>
        <time>2021-03-02T12:17:50Z</time>
        <extensions>
          <gpxtpx:TrackPointExtension xmlns:gpxtpx="http://www.garmin.com/xmlschemas/TrackPointExtension/v1">
            <gpxtpx:hr>153</gpxtpx:hr>
          </gpxtpx:TrackPointExtension>
        </extensions>
      </trkpt>
      <trkpt lat="46.1279" lon="6.26657">
        <ele>502.1</ele>
        <time>2021-03-02T12:17:51Z</time>
        <extensions>
          <gpxtpx:TrackPointExtension xmlns:gpxtpx="http://www.garmin.com/xmlschemas/TrackPointExtension/v1">
            <gpxtpx:hr>153</gpxtpx:hr>
          </gpxtpx:TrackPointExtension>
        </extensions>
      </trkpt>
      <trkpt lat="46.12785" lon="6.26655">
        <ele>502.4</ele>
        <time>2021-03-02T12:17:52Z</time>
        <extensions>
          <gpxtpx:TrackPointExtension xmlns:gpxtpx="http://www.garmin.com/xmlschemas/TrackPointExtension/v1">
            <gpxtpx:hr>153</gpxtpx:hr>
          </gpxtpx:TrackPointExtension>
        </extensions>
      </trkpt>
      <trkpt lat="46.1278" lon="6.26653">
        <ele>502.7</ele>
        <time>2021-03-02T12:17:53Z</time>
        <extensions>
          <gpxtpx:TrackPointExtension xmlns:gpxtpx="http://www.garmin.com/xmlschemas/TrackPointExtension/v1">
            <gpxtpx:hr>153</gpxtpx:hr>
          </gpxtpx:TrackPointExtension>
        </extensions>
      </trkpt>
      <trkpt lat="46.12775" lon="6.26651">
        <ele>503</ele>
        <time>2021-03-02T12:17:54Z</time>
        <extensions>
          <gpxtpx:TrackPointExtension xmlns:gpxtpx="http://www.garmin.com/xmlschemas/TrackPointExtension/v1">
            <gpxtpx:hr>153</gpxtpx:hr>
          </gpxtpx:TrackPointExtension>
        </extensions>
      </trkpt>
      <trkpt lat="46.1277" lon="6.26649">
        <ele>503.3</ele>
        <time>2021-03-02T12:17:55Z</time>
        <extensions>
          <gpxtpx:TrackPointExtension xmlns:gpxtpx="http://www.garmin.com/xmlschemas/TrackPointExtension/v1">
            <gpxtpx:hr>153</gpxtpx:hr>
          </gpxtpx:TrackPointExtension>
        </extensions>
      </trkpt>
      <trkpt lat="46.12765" lon="6.26646">
        <ele>503.6</ele>
        <time>2021-03-02T12:17:56Z</time>
        <extensions>
          <gpxtpx:TrackPointExtension xmlns:gpxtpx="http://www.garmin.com/xmlschemas/TrackPointExtension/v1">
            <gpxtpx:hr>154</gpxtpx:hr>
          </gpxtpx:TrackPointExtension>
        </extensions>
      </trkpt>
      <trkpt lat="46.1276" lon="6.26644">
        <ele>503.9</ele>
        <time>2021-03-02T12:17:57Z</time>
        <extensions>
          <gpxtpx:TrackPointExtension xmlns:gpxtpx="http://www.garmin.com/xmlschemas/TrackPointExtension/v1">
            <gpxtpx:hr>154</gpxtpx:hr>
          </gpxtpx:TrackPointExtension>
        </extensions>
      </trkpt>
      <trkpt lat="46.12755" lon="6.26642">
        <ele>504.1</ele>
        <time>2021-03-02T12:17:58Z</time>
        <extensions>
          <gpxtpx:TrackPointExtension xmlns:gpxtpx="http://www.garmin.com/xmlschemas/TrackPointExtension/v1">
            <gpxtpx:hr>154</gpxtpx:hr>
          </gpxtpx:TrackPointExtension>
        </extensions>
      </trkpt>
      <trkpt lat="46.1275" lon="6.2664">
        <ele>504.2</ele>
        <time>2021-03-02T12:17:59Z</time>
        <extensions>
          <gpxtpx:TrackPointExtension xmlns:gpxtpx="http://www.garmin.com/xmlschemas/TrackPointExtension/v1">
            <gpxtpx:hr>154</gpxtpx:hr>
          </gpxtpx:TrackPointExtension>
        </extensions>
      </trkpt>
      <trkpt lat="46.12745" lon="6.26638">
        <ele>504.3</ele>
        <time>2021-03-02T12:18:00Z</time>
        <extensions>
          <gpxtpx:TrackPointExtension xmlns:gpxtpx="http://www.garmin.com/xmlschemas/TrackPointExtension/v1">
            <gpxtpx:hr>155</gpxtpx:hr>
          </gpxtpx:TrackPointExtension>
        </extensions>
      </trkpt>
      <trkpt lat="46.1274" lon="6.26636">
        <ele>504.4</ele>
        <time>2021-03-02T12:18:01Z</time>
        <extensions>
          <gpxtpx:TrackPointExtension xmlns:gpxtpx="http://www.garmin.com/xmlschemas/TrackPointExtension/v1">
            <gpxtpx:hr>155</gpxtpx:hr>
          </gpxtpx:TrackPointExtension>
        </extensions>
      </trkpt>
      <trkpt lat="46.12735" lon="6.26634">
        <ele>504.5</ele>
        <time>2021-03-02T12:18:02Z</time>
        <extensions>
          <gpxtpx:TrackPointExtension xmlns:gpxtpx="http://www.garmin.com/xmlschemas/TrackPointExtension/v1">
            <gpxtpx:hr>155</gpxtpx:hr>
          </gpxtpx:TrackPointExtension>
        </extensions>
      </trkpt>
      <trkpt lat="46.1273" lon="6.26632">
        <ele>504.6</ele>
        <time>2021-03-02T12:18:03Z</time>
        <extensions>
          <gpxtpx:TrackPointExtension xmlns:gpxtpx="http://www.garmin.com/xmlschemas/TrackPointExtension/v1">
            <gpxtpx:hr>155</gpxtpx:hr>
          </gpxtpx:TrackPointExtension>
        </extensions>
      </trkpt>
      <trkpt lat="46.12725" lon="6.26631">
        <ele>504.7</ele>
        <time>2021-03-02T12:18:04Z</time>
        <extensions>
          <gpxtpx:TrackPointExtension xmlns:gpxtpx="http://www.garmin.com/xmlschemas/TrackPointExtension/v1">
            <gpxtpx:hr>155</gpxtpx:hr>
          </gpxtpx:TrackPointExtension>
        </extensions>
      </trkpt>
      <trkpt lat="46.1272" lon="6.26628">
        <ele>504.8</ele>
        <time>2021-03-02T12:18:05Z</time>
        <extensions>
          <gpxtpx:TrackPointExtension xmlns:gpxtpx="http://www.garmin.com/xmlschemas/TrackPointExtension/v1">
            <gpxtpx:hr>155</gpxtpx:hr>
          </gpxtpx:TrackPointExtension>
        </extensions>
      </trkpt>
      <trkpt lat="46.12715" lon="6.26627">
        <ele>504.9</ele>
        <time>2021-03-02T12:18:06Z</time>
        <extensions>
          <gpxtpx:TrackPointExtension xmlns:gpxtpx="http://www.garmin.com/xmlschemas/TrackPointExtension/v1">
            <gpxtpx:hr>155</gpxtpx:hr>
          </gpxtpx:TrackPointExtension>
        </extensions>
      </trkpt>
      <trkpt lat="46.1271" lon="6.26625">
        <ele>505.1</ele>
        <time>2021-03-02T12:18:07Z</time>
        <extensions>
          <gpxtpx:TrackPointExtension xmlns:gpxtpx="http://www.garmin.com/xmlschemas/TrackPointExtension/v1">
            <gpxtpx:hr>155</gpxtpx:hr>
          </gpxtpx:TrackPointExtension>
        </extensions>
      </trkpt>
      <trkpt lat="46.12705" lon="6.26624">
        <ele>505.3</ele>
        <time>2021-03-02T12:18:08Z</time>
        <extensions>
          <gpxtpx:TrackPointExtension xmlns:gpxtpx="http://www.garmin.com/xmlschemas/TrackPointExtension/v1">
            <gpxtpx:hr>155</gpxtpx:hr>
          </gpxtpx:TrackPointExtension>
        </extensions>
      </trkpt>
      <trkpt lat="46.12701" lon="6.26623">
        <ele>505.5</ele>
        <time>2021-03-02T12:18:09Z</time>
        <extensions>
          <gpxtpx:TrackPointExtension xmlns:gpxtpx="http://www.garmin.com/xmlschemas/TrackPointExtension/v1">
            <gpxtpx:hr>154</gpxtpx:hr>
          </gpxtpx:TrackPointExtension>
        </extensions>
      </trkpt>
      <trkpt lat="46.12696" lon="6.26622">
        <ele>505.7</ele>
        <time>2021-03-02T12:18:10Z</time>
        <extensions>
          <gpxtpx:TrackPointExtension xmlns:gpxtpx="http://www.garmin.com/xmlschemas/TrackPointExtension/v1">
            <gpxtpx:hr>154</gpxtpx:hr>
          </gpxtpx:TrackPointExtension>
        </extensions>
      </trkpt>
      <trkpt lat="46.12691" lon="6.26621">
        <ele>505.9</ele>
        <time>2021-03-02T12:18:11Z</time>
        <extensions>
          <gpxtpx:TrackPointExtension xmlns:gpxtpx="http://www.garmin.com/xmlschemas/TrackPointExtension/v1">
            <gpxtpx:hr>154</gpxtpx:hr>
          </gpxtpx:TrackPointExtension>
        </extensions>
      </trkpt>
      <trkpt lat="46.12687" lon="6.2662">
        <ele>506.1</ele>
        <time>2021-03-02T12:18:12Z</time>
        <extensions>
          <gpxtpx:TrackPointExtension xmlns:gpxtpx="http://www.garmin.com/xmlschemas/TrackPointExtension/v1">
            <gpxtpx:hr>153</gpxtpx:hr>
          </gpxtpx:TrackPointExtension>
        </extensions>
      </trkpt>
      <trkpt lat="46.12682" lon="6.26619">
        <ele>506.4</ele>
        <time>2021-03-02T12:18:13Z</time>
        <extensions>
          <gpxtpx:TrackPointExtension xmlns:gpxtpx="http://www.garmin.com/xmlschemas/TrackPointExtension/v1">
            <gpxtpx:hr>153</gpxtpx:hr>
          </gpxtpx:TrackPointExtension>
        </extensions>
      </trkpt>
      <trkpt lat="46.12677" lon="6.26619">
        <ele>506.6</ele>
        <time>2021-03-02T12:18:14Z</time>
        <extensions>
          <gpxtpx:TrackPointExtension xmlns:gpxtpx="http://www.garmin.com/xmlschemas/TrackPointExtension/v1">
            <gpxtpx:hr>153</gpxtpx:hr>
          </gpxtpx:TrackPointExtension>
        </extensions>
      </trkpt>
      <trkpt lat="46.12672" lon="6.26618">
        <ele>506.9</ele>
        <time>2021-03-02T12:18:15Z</time>
        <extensions>
          <gpxtpx:TrackPointExtension xmlns:gpxtpx="http://www.garmin.com/xmlschemas/TrackPointExtension/v1">
            <gpxtpx:hr>153</gpxtpx:hr>
          </gpxtpx:TrackPointExtension>
        </extensions>
      </trkpt>
      <trkpt lat="46.12667" lon="6.26618">
        <ele>507.3</ele>
        <time>2021-03-02T12:18:16Z</time>
        <extensions>
          <gpxtpx:TrackPointExtension xmlns:gpxtpx="http://www.garmin.com/xmlschemas/TrackPointExtension/v1">
            <gpxtpx:hr>152</gpxtpx:hr>
          </gpxtpx:TrackPointExtension>
        </extensions>
      </trkpt>
      <trkpt lat="46.12663" lon="6.26617">
        <ele>507.7</ele>
        <time>2021-03-02T12:18:17Z</time>
        <extensions>
          <gpxtpx:TrackPointExtension xmlns:gpxtpx="http://www.garmin.com/xmlschemas/TrackPointExtension/v1">
            <gpxtpx:hr>152</gpxtpx:hr>
          </gpxtpx:TrackPointExtension>
        </extensions>
      </trkpt>
      <trkpt lat="46.12658" lon="6.26618">
        <ele>508.1</ele>
        <time>2021-03-02T12:18:18Z</time>
        <extensions>
          <gpxtpx:TrackPointExtension xmlns:gpxtpx="http://www.garmin.com/xmlschemas/TrackPointExtension/v1">
            <gpxtpx:hr>152</gpxtpx:hr>
          </gpxtpx:TrackPointExtension>
        </extensions>
      </trkpt>
      <trkpt lat="46.12653" lon="6.26617">
        <ele>508.5</ele>
        <time>2021-03-02T12:18:19Z</time>
        <extensions>
          <gpxtpx:TrackPointExtension xmlns:gpxtpx="http://www.garmin.com/xmlschemas/TrackPointExtension/v1">
            <gpxtpx:hr>152</gpxtpx:hr>
          </gpxtpx:TrackPointExtension>
        </extensions>
      </trkpt>
      <trkpt lat="46.12649" lon="6.26617">
        <ele>508.9</ele>
        <time>2021-03-02T12:18:20Z</time>
        <extensions>
          <gpxtpx:TrackPointExtension xmlns:gpxtpx="http://www.garmin.com/xmlschemas/TrackPointExtension/v1">
            <gpxtpx:hr>152</gpxtpx:hr>
          </gpxtpx:TrackPointExtension>
        </extensions>
      </trkpt>
      <trkpt lat="46.12644" lon="6.26617">
        <ele>509.3</ele>
        <time>2021-03-02T12:18:21Z</time>
        <extensions>
          <gpxtpx:TrackPointExtension xmlns:gpxtpx="http://www.garmin.com/xmlschemas/TrackPointExtension/v1">
            <gpxtpx:hr>152</gpxtpx:hr>
          </gpxtpx:TrackPointExtension>
        </extensions>
      </trkpt>
      <trkpt lat="46.1264" lon="6.26617">
        <ele>509.7</ele>
        <time>2021-03-02T12:18:22Z</time>
        <extensions>
          <gpxtpx:TrackPointExtension xmlns:gpxtpx="http://www.garmin.com/xmlschemas/TrackPointExtension/v1">
            <gpxtpx:hr>152</gpxtpx:hr>
          </gpxtpx:TrackPointExtension>
        </extensions>
      </trkpt>
      <trkpt lat="46.12635" lon="6.26617">
        <ele>510</ele>
        <time>2021-03-02T12:18:23Z</time>
        <extensions>
          <gpxtpx:TrackPointExtension xmlns:gpxtpx="http://www.garmin.com/xmlschemas/TrackPointExtension/v1">
            <gpxtpx:hr>152</gpxtpx:hr>
          </gpxtpx:TrackPointExtension>
        </extensions>
      </trkpt>
      <trkpt lat="46.1263" lon="6.26617">
        <ele>510.1</ele>
        <time>2021-03-02T12:18:24Z</time>
        <extensions>
          <gpxtpx:TrackPointExtension xmlns:gpxtpx="http://www.garmin.com/xmlschemas/TrackPointExtension/v1">
            <gpxtpx:hr>152</gpxtpx:hr>
          </gpxtpx:TrackPointExtension>
        </extensions>
      </trkpt>
      <trkpt lat="46.12626" lon="6.26617">
        <ele>510.4</ele>
        <time>2021-03-02T12:18:25Z</time>
        <extensions>
          <gpxtpx:TrackPointExtension xmlns:gpxtpx="http://www.garmin.com/xmlschemas/TrackPointExtension/v1">
            <gpxtpx:hr>152</gpxtpx:hr>
          </gpxtpx:TrackPointExtension>
        </extensions>
      </trkpt>
      <trkpt lat="46.12621" lon="6.26617">
        <ele>510.6</ele>
        <time>2021-03-02T12:18:26Z</time>
        <extensions>
          <gpxtpx:TrackPointExtension xmlns:gpxtpx="http://www.garmin.com/xmlschemas/TrackPointExtension/v1">
            <gpxtpx:hr>152</gpxtpx:hr>
          </gpxtpx:TrackPointExtension>
        </extensions>
      </trkpt>
      <trkpt lat="46.12616" lon="6.26617">
        <ele>510.8</ele>
        <time>2021-03-02T12:18:27Z</time>
        <extensions>
          <gpxtpx:TrackPointExtension xmlns:gpxtpx="http://www.garmin.com/xmlschemas/TrackPointExtension/v1">
            <gpxtpx:hr>152</gpxtpx:hr>
          </gpxtpx:TrackPointExtension>
        </extensions>
      </trkpt>
      <trkpt lat="46.12612" lon="6.26615">
        <ele>511</ele>
        <time>2021-03-02T12:18:28Z</time>
        <extensions>
          <gpxtpx:TrackPointExtension xmlns:gpxtpx="http://www.garmin.com/xmlschemas/TrackPointExtension/v1">
            <gpxtpx:hr>152</gpxtpx:hr>
          </gpxtpx:TrackPointExtension>
        </extensions>
      </trkpt>
      <trkpt lat="46.12607" lon="6.26616">
        <ele>511.1</ele>
        <time>2021-03-02T12:18:29Z</time>
        <extensions>
          <gpxtpx:TrackPointExtension xmlns:gpxtpx="http://www.garmin.com/xmlschemas/TrackPointExtension/v1">
            <gpxtpx:hr>152</gpxtpx:hr>
          </gpxtpx:TrackPointExtension>
        </extensions>
      </trkpt>
      <trkpt lat="46.12602" lon="6.26616">
        <ele>511.2</ele>
        <time>2021-03-02T12:18:30Z</time>
        <extensions>
          <gpxtpx:TrackPointExtension xmlns:gpxtpx="http://www.garmin.com/xmlschemas/TrackPointExtension/v1">
            <gpxtpx:hr>152</gpxtpx:hr>
          </gpxtpx:TrackPointExtension>
        </extensions>
      </trkpt>
      <trkpt lat="46.12598" lon="6.26616">
        <ele>511.3</ele>
        <time>2021-03-02T12:18:31Z</time>
        <extensions>
          <gpxtpx:TrackPointExtension xmlns:gpxtpx="http://www.garmin.com/xmlschemas/TrackPointExtension/v1">
            <gpxtpx:hr>152</gpxtpx:hr>
          </gpxtpx:TrackPointExtension>
        </extensions>
      </trkpt>
      <trkpt lat="46.12593" lon="6.26617">
        <ele>511.4</ele>
        <time>2021-03-02T12:18:32Z</time>
        <extensions>
          <gpxtpx:TrackPointExtension xmlns:gpxtpx="http://www.garmin.com/xmlschemas/TrackPointExtension/v1">
            <gpxtpx:hr>152</gpxtpx:hr>
          </gpxtpx:TrackPointExtension>
        </extensions>
      </trkpt>
      <trkpt lat="46.12589" lon="6.26618">
        <ele>511.4</ele>
        <time>2021-03-02T12:18:33Z</time>
        <extensions>
          <gpxtpx:TrackPointExtension xmlns:gpxtpx="http://www.garmin.com/xmlschemas/TrackPointExtension/v1">
            <gpxtpx:hr>152</gpxtpx:hr>
          </gpxtpx:TrackPointExtension>
        </extensions>
      </trkpt>
      <trkpt lat="46.12584" lon="6.26619">
        <ele>511.5</ele>
        <time>2021-03-02T12:18:34Z</time>
        <extensions>
          <gpxtpx:TrackPointExtension xmlns:gpxtpx="http://www.garmin.com/xmlschemas/TrackPointExtension/v1">
            <gpxtpx:hr>152</gpxtpx:hr>
          </gpxtpx:TrackPointExtension>
        </extensions>
      </trkpt>
      <trkpt lat="46.12581" lon="6.26621">
        <ele>511.6</ele>
        <time>2021-03-02T12:18:35Z</time>
        <extensions>
          <gpxtpx:TrackPointExtension xmlns:gpxtpx="http://www.garmin.com/xmlschemas/TrackPointExtension/v1">
            <gpxtpx:hr>152</gpxtpx:hr>
          </gpxtpx:TrackPointExtension>
        </extensions>
      </trkpt>
      <trkpt lat="46.12577" lon="6.26623">
        <ele>511.7</ele>
        <time>2021-03-02T12:18:36Z</time>
        <extensions>
          <gpxtpx:TrackPointExtension xmlns:gpxtpx="http://www.garmin.com/xmlschemas/TrackPointExtension/v1">
            <gpxtpx:hr>152</gpxtpx:hr>
          </gpxtpx:TrackPointExtension>
        </extensions>
      </trkpt>
      <trkpt lat="46.12572" lon="6.26624">
        <ele>511.9</ele>
        <time>2021-03-02T12:18:37Z</time>
        <extensions>
          <gpxtpx:TrackPointExtension xmlns:gpxtpx="http://www.garmin.com/xmlschemas/TrackPointExtension/v1">
            <gpxtpx:hr>151</gpxtpx:hr>
          </gpxtpx:TrackPointExtension>
        </extensions>
      </trkpt>
      <trkpt lat="46.12568" lon="6.26626">
        <ele>512.1</ele>
        <time>2021-03-02T12:18:38Z</time>
        <extensions>
          <gpxtpx:TrackPointExtension xmlns:gpxtpx="http://www.garmin.com/xmlschemas/TrackPointExtension/v1">
            <gpxtpx:hr>151</gpxtpx:hr>
          </gpxtpx:TrackPointExtension>
        </extensions>
      </trkpt>
      <trkpt lat="46.12565" lon="6.26629">
        <ele>512.2</ele>
        <time>2021-03-02T12:18:39Z</time>
        <extensions>
          <gpxtpx:TrackPointExtension xmlns:gpxtpx="http://www.garmin.com/xmlschemas/TrackPointExtension/v1">
            <gpxtpx:hr>151</gpxtpx:hr>
          </gpxtpx:TrackPointExtension>
        </extensions>
      </trkpt>
      <trkpt lat="46.12561" lon="6.26631">
        <ele>512.4</ele>
        <time>2021-03-02T12:18:40Z</time>
        <extensions>
          <gpxtpx:TrackPointExtension xmlns:gpxtpx="http://www.garmin.com/xmlschemas/TrackPointExtension/v1">
            <gpxtpx:hr>151</gpxtpx:hr>
          </gpxtpx:TrackPointExtension>
        </extensions>
      </trkpt>
      <trkpt lat="46.12557" lon="6.26634">
        <ele>512.6</ele>
        <time>2021-03-02T12:18:41Z</time>
        <extensions>
          <gpxtpx:TrackPointExtension xmlns:gpxtpx="http://www.garmin.com/xmlschemas/TrackPointExtension/v1">
            <gpxtpx:hr>151</gpxtpx:hr>
          </gpxtpx:TrackPointExtension>
        </extensions>
      </trkpt>
      <trkpt lat="46.12553" lon="6.26636">
        <ele>512.8</ele>
        <time>2021-03-02T12:18:42Z</time>
        <extensions>
          <gpxtpx:TrackPointExtension xmlns:gpxtpx="http://www.garmin.com/xmlschemas/TrackPointExtension/v1">
            <gpxtpx:hr>151</gpxtpx:hr>
          </gpxtpx:TrackPointExtension>
        </extensions>
      </trkpt>
      <trkpt lat="46.12549" lon="6.26639">
        <ele>512.9</ele>
        <time>2021-03-02T12:18:43Z</time>
        <extensions>
          <gpxtpx:TrackPointExtension xmlns:gpxtpx="http://www.garmin.com/xmlschemas/TrackPointExtension/v1">
            <gpxtpx:hr>151</gpxtpx:hr>
          </gpxtpx:TrackPointExtension>
        </extensions>
      </trkpt>
      <trkpt lat="46.12545" lon="6.26642">
        <ele>513.1</ele>
        <time>2021-03-02T12:18:44Z</time>
        <extensions>
          <gpxtpx:TrackPointExtension xmlns:gpxtpx="http://www.garmin.com/xmlschemas/TrackPointExtension/v1">
            <gpxtpx:hr>151</gpxtpx:hr>
          </gpxtpx:TrackPointExtension>
        </extensions>
      </trkpt>
      <trkpt lat="46.12542" lon="6.26645">
        <ele>513.2</ele>
        <time>2021-03-02T12:18:45Z</time>
        <extensions>
          <gpxtpx:TrackPointExtension xmlns:gpxtpx="http://www.garmin.com/xmlschemas/TrackPointExtension/v1">
            <gpxtpx:hr>151</gpxtpx:hr>
          </gpxtpx:TrackPointExtension>
        </extensions>
      </trkpt>
      <trkpt lat="46.12538" lon="6.26648">
        <ele>513.4</ele>
        <time>2021-03-02T12:18:46Z</time>
        <extensions>
          <gpxtpx:TrackPointExtension xmlns:gpxtpx="http://www.garmin.com/xmlschemas/TrackPointExtension/v1">
            <gpxtpx:hr>151</gpxtpx:hr>
          </gpxtpx:TrackPointExtension>
        </extensions>
      </trkpt>
      <trkpt lat="46.12534" lon="6.26652">
        <ele>513.5</ele>
        <time>2021-03-02T12:18:47Z</time>
        <extensions>
          <gpxtpx:TrackPointExtension xmlns:gpxtpx="http://www.garmin.com/xmlschemas/TrackPointExtension/v1">
            <gpxtpx:hr>150</gpxtpx:hr>
          </gpxtpx:TrackPointExtension>
        </extensions>
      </trkpt>
      <trkpt lat="46.12531" lon="6.26656">
        <ele>513.6</ele>
        <time>2021-03-02T12:18:48Z</time>
        <extensions>
          <gpxtpx:TrackPointExtension xmlns:gpxtpx="http://www.garmin.com/xmlschemas/TrackPointExtension/v1">
            <gpxtpx:hr>150</gpxtpx:hr>
          </gpxtpx:TrackPointExtension>
        </extensions>
      </trkpt>
      <trkpt lat="46.12527" lon="6.26659">
        <ele>513.8</ele>
        <time>2021-03-02T12:18:49Z</time>
        <extensions>
          <gpxtpx:TrackPointExtension xmlns:gpxtpx="http://www.garmin.com/xmlschemas/TrackPointExtension/v1">
            <gpxtpx:hr>150</gpxtpx:hr>
          </gpxtpx:TrackPointExtension>
        </extensions>
      </trkpt>
      <trkpt lat="46.12523" lon="6.26663">
        <ele>513.9</ele>
        <time>2021-03-02T12:18:50Z</time>
        <extensions>
          <gpxtpx:TrackPointExtension xmlns:gpxtpx="http://www.garmin.com/xmlschemas/TrackPointExtension/v1">
            <gpxtpx:hr>150</gpxtpx:hr>
          </gpxtpx:TrackPointExtension>
        </extensions>
      </trkpt>
      <trkpt lat="46.12519" lon="6.26667">
        <ele>514</ele>
        <time>2021-03-02T12:18:51Z</time>
        <extensions>
          <gpxtpx:TrackPointExtension xmlns:gpxtpx="http://www.garmin.com/xmlschemas/TrackPointExtension/v1">
            <gpxtpx:hr>151</gpxtpx:hr>
          </gpxtpx:TrackPointExtension>
        </extensions>
      </trkpt>
      <trkpt lat="46.12516" lon="6.26671">
        <ele>514.2</ele>
        <time>2021-03-02T12:18:52Z</time>
        <extensions>
          <gpxtpx:TrackPointExtension xmlns:gpxtpx="http://www.garmin.com/xmlschemas/TrackPointExtension/v1">
            <gpxtpx:hr>151</gpxtpx:hr>
          </gpxtpx:TrackPointExtension>
        </extensions>
      </trkpt>
      <trkpt lat="46.12512" lon="6.26675">
        <ele>514.3</ele>
        <time>2021-03-02T12:18:53Z</time>
        <extensions>
          <gpxtpx:TrackPointExtension xmlns:gpxtpx="http://www.garmin.com/xmlschemas/TrackPointExtension/v1">
            <gpxtpx:hr>151</gpxtpx:hr>
          </gpxtpx:TrackPointExtension>
        </extensions>
      </trkpt>
      <trkpt lat="46.12508" lon="6.26679">
        <ele>514.4</ele>
        <time>2021-03-02T12:18:54Z</time>
        <extensions>
          <gpxtpx:TrackPointExtension xmlns:gpxtpx="http://www.garmin.com/xmlschemas/TrackPointExtension/v1">
            <gpxtpx:hr>151</gpxtpx:hr>
          </gpxtpx:TrackPointExtension>
        </extensions>
      </trkpt>
      <trkpt lat="46.12504" lon="6.26683">
        <ele>514.5</ele>
        <time>2021-03-02T12:18:55Z</time>
        <extensions>
          <gpxtpx:TrackPointExtension xmlns:gpxtpx="http://www.garmin.com/xmlschemas/TrackPointExtension/v1">
            <gpxtpx:hr>151</gpxtpx:hr>
          </gpxtpx:TrackPointExtension>
        </extensions>
      </trkpt>
      <trkpt lat="46.125" lon="6.26687">
        <ele>514.6</ele>
        <time>2021-03-02T12:18:56Z</time>
        <extensions>
          <gpxtpx:TrackPointExtension xmlns:gpxtpx="http://www.garmin.com/xmlschemas/TrackPointExtension/v1">
            <gpxtpx:hr>151</gpxtpx:hr>
          </gpxtpx:TrackPointExtension>
        </extensions>
      </trkpt>
      <trkpt lat="46.12496" lon="6.26691">
        <ele>514.7</ele>
        <time>2021-03-02T12:18:57Z</time>
        <extensions>
          <gpxtpx:TrackPointExtension xmlns:gpxtpx="http://www.garmin.com/xmlschemas/TrackPointExtension/v1">
            <gpxtpx:hr>151</gpxtpx:hr>
          </gpxtpx:TrackPointExtension>
        </extensions>
      </trkpt>
      <trkpt lat="46.12492" lon="6.26695">
        <ele>514.8</ele>
        <time>2021-03-02T12:18:58Z</time>
        <extensions>
          <gpxtpx:TrackPointExtension xmlns:gpxtpx="http://www.garmin.com/xmlschemas/TrackPointExtension/v1">
            <gpxtpx:hr>151</gpxtpx:hr>
          </gpxtpx:TrackPointExtension>
        </extensions>
      </trkpt>
      <trkpt lat="46.12488" lon="6.267">
        <ele>514.9</ele>
        <time>2021-03-02T12:18:59Z</time>
        <extensions>
          <gpxtpx:TrackPointExtension xmlns:gpxtpx="http://www.garmin.com/xmlschemas/TrackPointExtension/v1">
            <gpxtpx:hr>151</gpxtpx:hr>
          </gpxtpx:TrackPointExtension>
        </extensions>
      </trkpt>
      <trkpt lat="46.12484" lon="6.26704">
        <ele>515</ele>
        <time>2021-03-02T12:19:00Z</time>
        <extensions>
          <gpxtpx:TrackPointExtension xmlns:gpxtpx="http://www.garmin.com/xmlschemas/TrackPointExtension/v1">
            <gpxtpx:hr>151</gpxtpx:hr>
          </gpxtpx:TrackPointExtension>
        </extensions>
      </trkpt>
      <trkpt lat="46.1248" lon="6.26708">
        <ele>515.1</ele>
        <time>2021-03-02T12:19:01Z</time>
        <extensions>
          <gpxtpx:TrackPointExtension xmlns:gpxtpx="http://www.garmin.com/xmlschemas/TrackPointExtension/v1">
            <gpxtpx:hr>151</gpxtpx:hr>
          </gpxtpx:TrackPointExtension>
        </extensions>
      </trkpt>
      <trkpt lat="46.12476" lon="6.26712">
        <ele>515.1</ele>
        <time>2021-03-02T12:19:02Z</time>
        <extensions>
          <gpxtpx:TrackPointExtension xmlns:gpxtpx="http://www.garmin.com/xmlschemas/TrackPointExtension/v1">
            <gpxtpx:hr>151</gpxtpx:hr>
          </gpxtpx:TrackPointExtension>
        </extensions>
      </trkpt>
      <trkpt lat="46.12471" lon="6.26717">
        <ele>515.2</ele>
        <time>2021-03-02T12:19:03Z</time>
        <extensions>
          <gpxtpx:TrackPointExtension xmlns:gpxtpx="http://www.garmin.com/xmlschemas/TrackPointExtension/v1">
            <gpxtpx:hr>151</gpxtpx:hr>
          </gpxtpx:TrackPointExtension>
        </extensions>
      </trkpt>
      <trkpt lat="46.12467" lon="6.26721">
        <ele>515.3</ele>
        <time>2021-03-02T12:19:04Z</time>
        <extensions>
          <gpxtpx:TrackPointExtension xmlns:gpxtpx="http://www.garmin.com/xmlschemas/TrackPointExtension/v1">
            <gpxtpx:hr>150</gpxtpx:hr>
          </gpxtpx:TrackPointExtension>
        </extensions>
      </trkpt>
      <trkpt lat="46.12463" lon="6.26725">
        <ele>515.4</ele>
        <time>2021-03-02T12:19:05Z</time>
        <extensions>
          <gpxtpx:TrackPointExtension xmlns:gpxtpx="http://www.garmin.com/xmlschemas/TrackPointExtension/v1">
            <gpxtpx:hr>150</gpxtpx:hr>
          </gpxtpx:TrackPointExtension>
        </extensions>
      </trkpt>
      <trkpt lat="46.12459" lon="6.2673">
        <ele>515.5</ele>
        <time>2021-03-02T12:19:06Z</time>
        <extensions>
          <gpxtpx:TrackPointExtension xmlns:gpxtpx="http://www.garmin.com/xmlschemas/TrackPointExtension/v1">
            <gpxtpx:hr>150</gpxtpx:hr>
          </gpxtpx:TrackPointExtension>
        </extensions>
      </trkpt>
      <trkpt lat="46.12455" lon="6.26734">
        <ele>515.6</ele>
        <time>2021-03-02T12:19:07Z</time>
        <extensions>
          <gpxtpx:TrackPointExtension xmlns:gpxtpx="http://www.garmin.com/xmlschemas/TrackPointExtension/v1">
            <gpxtpx:hr>150</gpxtpx:hr>
          </gpxtpx:TrackPointExtension>
        </extensions>
      </trkpt>
      <trkpt lat="46.1245" lon="6.26738">
        <ele>515.6</ele>
        <time>2021-03-02T12:19:08Z</time>
        <extensions>
          <gpxtpx:TrackPointExtension xmlns:gpxtpx="http://www.garmin.com/xmlschemas/TrackPointExtension/v1">
            <gpxtpx:hr>149</gpxtpx:hr>
          </gpxtpx:TrackPointExtension>
        </extensions>
      </trkpt>
      <trkpt lat="46.12446" lon="6.26742">
        <ele>515.7</ele>
        <time>2021-03-02T12:19:09Z</time>
        <extensions>
          <gpxtpx:TrackPointExtension xmlns:gpxtpx="http://www.garmin.com/xmlschemas/TrackPointExtension/v1">
            <gpxtpx:hr>149</gpxtpx:hr>
          </gpxtpx:TrackPointExtension>
        </extensions>
      </trkpt>
      <trkpt lat="46.12442" lon="6.26747">
        <ele>515.8</ele>
        <time>2021-03-02T12:19:10Z</time>
        <extensions>
          <gpxtpx:TrackPointExtension xmlns:gpxtpx="http://www.garmin.com/xmlschemas/TrackPointExtension/v1">
            <gpxtpx:hr>149</gpxtpx:hr>
          </gpxtpx:TrackPointExtension>
        </extensions>
      </trkpt>
      <trkpt lat="46.12437" lon="6.26751">
        <ele>515.8</ele>
        <time>2021-03-02T12:19:11Z</time>
        <extensions>
          <gpxtpx:TrackPointExtension xmlns:gpxtpx="http://www.garmin.com/xmlschemas/TrackPointExtension/v1">
            <gpxtpx:hr>148</gpxtpx:hr>
          </gpxtpx:TrackPointExtension>
        </extensions>
      </trkpt>
      <trkpt lat="46.12433" lon="6.26756">
        <ele>515.9</ele>
        <time>2021-03-02T12:19:12Z</time>
        <extensions>
          <gpxtpx:TrackPointExtension xmlns:gpxtpx="http://www.garmin.com/xmlschemas/TrackPointExtension/v1">
            <gpxtpx:hr>148</gpxtpx:hr>
          </gpxtpx:TrackPointExtension>
        </extensions>
      </trkpt>
      <trkpt lat="46.12428" lon="6.2676">
        <ele>515.9</ele>
        <time>2021-03-02T12:19:13Z</time>
        <extensions>
          <gpxtpx:TrackPointExtension xmlns:gpxtpx="http://www.garmin.com/xmlschemas/TrackPointExtension/v1">
            <gpxtpx:hr>148</gpxtpx:hr>
          </gpxtpx:TrackPointExtension>
        </extensions>
      </trkpt>
      <trkpt lat="46.12424" lon="6.26765">
        <ele>516</ele>
        <time>2021-03-02T12:19:14Z</time>
        <extensions>
          <gpxtpx:TrackPointExtension xmlns:gpxtpx="http://www.garmin.com/xmlschemas/TrackPointExtension/v1">
            <gpxtpx:hr>147</gpxtpx:hr>
          </gpxtpx:TrackPointExtension>
        </extensions>
      </trkpt>
      <trkpt lat="46.12419" lon="6.2677">
        <ele>516</ele>
        <time>2021-03-02T12:19:15Z</time>
        <extensions>
          <gpxtpx:TrackPointExtension xmlns:gpxtpx="http://www.garmin.com/xmlschemas/TrackPointExtension/v1">
            <gpxtpx:hr>147</gpxtpx:hr>
          </gpxtpx:TrackPointExtension>
        </extensions>
      </trkpt>
      <trkpt lat="46.12415" lon="6.26775">
        <ele>516.1</ele>
        <time>2021-03-02T12:19:16Z</time>
        <extensions>
          <gpxtpx:TrackPointExtension xmlns:gpxtpx="http://www.garmin.com/xmlschemas/TrackPointExtension/v1">
            <gpxtpx:hr>146</gpxtpx:hr>
          </gpxtpx:TrackPointExtension>
        </extensions>
      </trkpt>
      <trkpt lat="46.1241" lon="6.26779">
        <ele>516.1</ele>
        <time>2021-03-02T12:19:17Z</time>
        <extensions>
          <gpxtpx:TrackPointExtension xmlns:gpxtpx="http://www.garmin.com/xmlschemas/TrackPointExtension/v1">
            <gpxtpx:hr>146</gpxtpx:hr>
          </gpxtpx:TrackPointExtension>
        </extensions>
      </trkpt>
      <trkpt lat="46.12406" lon="6.26784">
        <ele>516.2</ele>
        <time>2021-03-02T12:19:18Z</time>
        <extensions>
          <gpxtpx:TrackPointExtension xmlns:gpxtpx="http://www.garmin.com/xmlschemas/TrackPointExtension/v1">
            <gpxtpx:hr>146</gpxtpx:hr>
          </gpxtpx:TrackPointExtension>
        </extensions>
      </trkpt>
      <trkpt lat="46.12401" lon="6.26789">
        <ele>516.2</ele>
        <time>2021-03-02T12:19:19Z</time>
        <extensions>
          <gpxtpx:TrackPointExtension xmlns:gpxtpx="http://www.garmin.com/xmlschemas/TrackPointExtension/v1">
            <gpxtpx:hr>146</gpxtpx:hr>
          </gpxtpx:TrackPointExtension>
        </extensions>
      </trkpt>
      <trkpt lat="46.12396" lon="6.26793">
        <ele>516.3</ele>
        <time>2021-03-02T12:19:20Z</time>
        <extensions>
          <gpxtpx:TrackPointExtension xmlns:gpxtpx="http://www.garmin.com/xmlschemas/TrackPointExtension/v1">
            <gpxtpx:hr>145</gpxtpx:hr>
          </gpxtpx:TrackPointExtension>
        </extensions>
      </trkpt>
      <trkpt lat="46.12392" lon="6.26798">
        <ele>516.3</ele>
        <time>2021-03-02T12:19:21Z</time>
        <extensions>
          <gpxtpx:TrackPointExtension xmlns:gpxtpx="http://www.garmin.com/xmlschemas/TrackPointExtension/v1">
            <gpxtpx:hr>145</gpxtpx:hr>
          </gpxtpx:TrackPointExtension>
        </extensions>
      </trkpt>
      <trkpt lat="46.12387" lon="6.26803">
        <ele>516.4</ele>
        <time>2021-03-02T12:19:22Z</time>
        <extensions>
          <gpxtpx:TrackPointExtension xmlns:gpxtpx="http://www.garmin.com/xmlschemas/TrackPointExtension/v1">
            <gpxtpx:hr>145</gpxtpx:hr>
          </gpxtpx:TrackPointExtension>
        </extensions>
      </trkpt>
      <trkpt lat="46.12382" lon="6.26808">
        <ele>516.5</ele>
        <time>2021-03-02T12:19:23Z</time>
        <extensions>
          <gpxtpx:TrackPointExtension xmlns:gpxtpx="http://www.garmin.com/xmlschemas/TrackPointExtension/v1">
            <gpxtpx:hr>144</gpxtpx:hr>
          </gpxtpx:TrackPointExtension>
        </extensions>
      </trkpt>
      <trkpt lat="46.12378" lon="6.26812">
        <ele>516.6</ele>
        <time>2021-03-02T12:19:24Z</time>
        <extensions>
          <gpxtpx:TrackPointExtension xmlns:gpxtpx="http://www.garmin.com/xmlschemas/TrackPointExtension/v1">
            <gpxtpx:hr>144</gpxtpx:hr>
          </gpxtpx:TrackPointExtension>
        </extensions>
      </trkpt>
      <trkpt lat="46.12373" lon="6.26816">
        <ele>516.8</ele>
        <time>2021-03-02T12:19:25Z</time>
        <extensions>
          <gpxtpx:TrackPointExtension xmlns:gpxtpx="http://www.garmin.com/xmlschemas/TrackPointExtension/v1">
            <gpxtpx:hr>144</gpxtpx:hr>
          </gpxtpx:TrackPointExtension>
        </extensions>
      </trkpt>
      <trkpt lat="46.12368" lon="6.2682">
        <ele>516.9</ele>
        <time>2021-03-02T12:19:26Z</time>
        <extensions>
          <gpxtpx:TrackPointExtension xmlns:gpxtpx="http://www.garmin.com/xmlschemas/TrackPointExtension/v1">
            <gpxtpx:hr>143</gpxtpx:hr>
          </gpxtpx:TrackPointExtension>
        </extensions>
      </trkpt>
      <trkpt lat="46.12363" lon="6.26824">
        <ele>517.1</ele>
        <time>2021-03-02T12:19:27Z</time>
        <extensions>
          <gpxtpx:TrackPointExtension xmlns:gpxtpx="http://www.garmin.com/xmlschemas/TrackPointExtension/v1">
            <gpxtpx:hr>143</gpxtpx:hr>
          </gpxtpx:TrackPointExtension>
        </extensions>
      </trkpt>
      <trkpt lat="46.12358" lon="6.26828">
        <ele>517.3</ele>
        <time>2021-03-02T12:19:28Z</time>
        <extensions>
          <gpxtpx:TrackPointExtension xmlns:gpxtpx="http://www.garmin.com/xmlschemas/TrackPointExtension/v1">
            <gpxtpx:hr>143</gpxtpx:hr>
          </gpxtpx:TrackPointExtension>
        </extensions>
      </trkpt>
      <trkpt lat="46.12353" lon="6.26831">
        <ele>517.5</ele>
        <time>2021-03-02T12:19:29Z</time>
        <extensions>
          <gpxtpx:TrackPointExtension xmlns:gpxtpx="http://www.garmin.com/xmlschemas/TrackPointExtension/v1">
            <gpxtpx:hr>142</gpxtpx:hr>
          </gpxtpx:TrackPointExtension>
        </extensions>
      </trkpt>
      <trkpt lat="46.12347" lon="6.26833">
        <ele>517.7</ele>
        <time>2021-03-02T12:19:30Z</time>
        <extensions>
          <gpxtpx:TrackPointExtension xmlns:gpxtpx="http://www.garmin.com/xmlschemas/TrackPointExtension/v1">
            <gpxtpx:hr>142</gpxtpx:hr>
          </gpxtpx:TrackPointExtension>
        </extensions>
      </trkpt>
      <trkpt lat="46.12342" lon="6.26836">
        <ele>517.9</ele>
        <time>2021-03-02T12:19:31Z</time>
        <extensions>
          <gpxtpx:TrackPointExtension xmlns:gpxtpx="http://www.garmin.com/xmlschemas/TrackPointExtension/v1">
            <gpxtpx:hr>141</gpxtpx:hr>
          </gpxtpx:TrackPointExtension>
        </extensions>
      </trkpt>
      <trkpt lat="46.12337" lon="6.26838">
        <ele>518.1</ele>
        <time>2021-03-02T12:19:32Z</time>
        <extensions>
          <gpxtpx:TrackPointExtension xmlns:gpxtpx="http://www.garmin.com/xmlschemas/TrackPointExtension/v1">
            <gpxtpx:hr>141</gpxtpx:hr>
          </gpxtpx:TrackPointExtension>
        </extensions>
      </trkpt>
      <trkpt lat="46.12331" lon="6.26839">
        <ele>518.4</ele>
        <time>2021-03-02T12:19:33Z</time>
        <extensions>
          <gpxtpx:TrackPointExtension xmlns:gpxtpx="http://www.garmin.com/xmlschemas/TrackPointExtension/v1">
            <gpxtpx:hr>141</gpxtpx:hr>
          </gpxtpx:TrackPointExtension>
        </extensions>
      </trkpt>
      <trkpt lat="46.12326" lon="6.2684">
        <ele>518.6</ele>
        <time>2021-03-02T12:19:34Z</time>
        <extensions>
          <gpxtpx:TrackPointExtension xmlns:gpxtpx="http://www.garmin.com/xmlschemas/TrackPointExtension/v1">
            <gpxtpx:hr>141</gpxtpx:hr>
          </gpxtpx:TrackPointExtension>
        </extensions>
      </trkpt>
      <trkpt lat="46.12321" lon="6.26841">
        <ele>518.9</ele>
        <time>2021-03-02T12:19:35Z</time>
        <extensions>
          <gpxtpx:TrackPointExtension xmlns:gpxtpx="http://www.garmin.com/xmlschemas/TrackPointExtension/v1">
            <gpxtpx:hr>141</gpxtpx:hr>
          </gpxtpx:TrackPointExtension>
        </extensions>
      </trkpt>
      <trkpt lat="46.12316" lon="6.26842">
        <ele>519.2</ele>
        <time>2021-03-02T12:19:36Z</time>
        <extensions>
          <gpxtpx:TrackPointExtension xmlns:gpxtpx="http://www.garmin.com/xmlschemas/TrackPointExtension/v1">
            <gpxtpx:hr>141</gpxtpx:hr>
          </gpxtpx:TrackPointExtension>
        </extensions>
      </trkpt>
      <trkpt lat="46.12311" lon="6.26842">
        <ele>519.4</ele>
        <time>2021-03-02T12:19:37Z</time>
        <extensions>
          <gpxtpx:TrackPointExtension xmlns:gpxtpx="http://www.garmin.com/xmlschemas/TrackPointExtension/v1">
            <gpxtpx:hr>141</gpxtpx:hr>
          </gpxtpx:TrackPointExtension>
        </extensions>
      </trkpt>
      <trkpt lat="46.12307" lon="6.26843">
        <ele>519.7</ele>
        <time>2021-03-02T12:19:38Z</time>
        <extensions>
          <gpxtpx:TrackPointExtension xmlns:gpxtpx="http://www.garmin.com/xmlschemas/TrackPointExtension/v1">
            <gpxtpx:hr>142</gpxtpx:hr>
          </gpxtpx:TrackPointExtension>
        </extensions>
      </trkpt>
      <trkpt lat="46.12302" lon="6.26843">
        <ele>520</ele>
        <time>2021-03-02T12:19:39Z</time>
        <extensions>
          <gpxtpx:TrackPointExtension xmlns:gpxtpx="http://www.garmin.com/xmlschemas/TrackPointExtension/v1">
            <gpxtpx:hr>142</gpxtpx:hr>
          </gpxtpx:TrackPointExtension>
        </extensions>
      </trkpt>
      <trkpt lat="46.12297" lon="6.26843">
        <ele>520.3</ele>
        <time>2021-03-02T12:19:40Z</time>
        <extensions>
          <gpxtpx:TrackPointExtension xmlns:gpxtpx="http://www.garmin.com/xmlschemas/TrackPointExtension/v1">
            <gpxtpx:hr>142</gpxtpx:hr>
          </gpxtpx:TrackPointExtension>
        </extensions>
      </trkpt>
      <trkpt lat="46.12293" lon="6.26843">
        <ele>520.5</ele>
        <time>2021-03-02T12:19:41Z</time>
        <extensions>
          <gpxtpx:TrackPointExtension xmlns:gpxtpx="http://www.garmin.com/xmlschemas/TrackPointExtension/v1">
            <gpxtpx:hr>142</gpxtpx:hr>
          </gpxtpx:TrackPointExtension>
        </extensions>
      </trkpt>
      <trkpt lat="46.12288" lon="6.26844">
        <ele>520.8</ele>
        <time>2021-03-02T12:19:42Z</time>
        <extensions>
          <gpxtpx:TrackPointExtension xmlns:gpxtpx="http://www.garmin.com/xmlschemas/TrackPointExtension/v1">
            <gpxtpx:hr>143</gpxtpx:hr>
          </gpxtpx:TrackPointExtension>
        </extensions>
      </trkpt>
      <trkpt lat="46.12283" lon="6.26844">
        <ele>521.1</ele>
        <time>2021-03-02T12:19:43Z</time>
        <extensions>
          <gpxtpx:TrackPointExtension xmlns:gpxtpx="http://www.garmin.com/xmlschemas/TrackPointExtension/v1">
            <gpxtpx:hr>143</gpxtpx:hr>
          </gpxtpx:TrackPointExtension>
        </extensions>
      </trkpt>
      <trkpt lat="46.12279" lon="6.26844">
        <ele>521.3</ele>
        <time>2021-03-02T12:19:44Z</time>
        <extensions>
          <gpxtpx:TrackPointExtension xmlns:gpxtpx="http://www.garmin.com/xmlschemas/TrackPointExtension/v1">
            <gpxtpx:hr>143</gpxtpx:hr>
          </gpxtpx:TrackPointExtension>
        </extensions>
      </trkpt>
      <trkpt lat="46.12274" lon="6.26844">
        <ele>521.6</ele>
        <time>2021-03-02T12:19:45Z</time>
        <extensions>
          <gpxtpx:TrackPointExtension xmlns:gpxtpx="http://www.garmin.com/xmlschemas/TrackPointExtension/v1">
            <gpxtpx:hr>143</gpxtpx:hr>
          </gpxtpx:TrackPointExtension>
        </extensions>
      </trkpt>
      <trkpt lat="46.1227" lon="6.26845">
        <ele>521.9</ele>
        <time>2021-03-02T12:19:46Z</time>
        <extensions>
          <gpxtpx:TrackPointExtension xmlns:gpxtpx="http://www.garmin.com/xmlschemas/TrackPointExtension/v1">
            <gpxtpx:hr>143</gpxtpx:hr>
          </gpxtpx:TrackPointExtension>
        </extensions>
      </trkpt>
      <trkpt lat="46.12265" lon="6.26845">
        <ele>522.1</ele>
        <time>2021-03-02T12:19:47Z</time>
        <extensions>
          <gpxtpx:TrackPointExtension xmlns:gpxtpx="http://www.garmin.com/xmlschemas/TrackPointExtension/v1">
            <gpxtpx:hr>143</gpxtpx:hr>
          </gpxtpx:TrackPointExtension>
        </extensions>
      </trkpt>
      <trkpt lat="46.12261" lon="6.26845">
        <ele>522.4</ele>
        <time>2021-03-02T12:19:48Z</time>
        <extensions>
          <gpxtpx:TrackPointExtension xmlns:gpxtpx="http://www.garmin.com/xmlschemas/TrackPointExtension/v1">
            <gpxtpx:hr>143</gpxtpx:hr>
          </gpxtpx:TrackPointExtension>
        </extensions>
      </trkpt>
      <trkpt lat="46.12257" lon="6.26846">
        <ele>522.7</ele>
        <time>2021-03-02T12:19:49Z</time>
        <extensions>
          <gpxtpx:TrackPointExtension xmlns:gpxtpx="http://www.garmin.com/xmlschemas/TrackPointExtension/v1">
            <gpxtpx:hr>143</gpxtpx:hr>
          </gpxtpx:TrackPointExtension>
        </extensions>
      </trkpt>
      <trkpt lat="46.12252" lon="6.26846">
        <ele>522.9</ele>
        <time>2021-03-02T12:19:50Z</time>
        <extensions>
          <gpxtpx:TrackPointExtension xmlns:gpxtpx="http://www.garmin.com/xmlschemas/TrackPointExtension/v1">
            <gpxtpx:hr>143</gpxtpx:hr>
          </gpxtpx:TrackPointExtension>
        </extensions>
      </trkpt>
      <trkpt lat="46.12248" lon="6.26847">
        <ele>523.2</ele>
        <time>2021-03-02T12:19:51Z</time>
        <extensions>
          <gpxtpx:TrackPointExtension xmlns:gpxtpx="http://www.garmin.com/xmlschemas/TrackPointExtension/v1">
            <gpxtpx:hr>143</gpxtpx:hr>
          </gpxtpx:TrackPointExtension>
        </extensions>
      </trkpt>
      <trkpt lat="46.12244" lon="6.26848">
        <ele>523.4</ele>
        <time>2021-03-02T12:19:52Z</time>
        <extensions>
          <gpxtpx:TrackPointExtension xmlns:gpxtpx="http://www.garmin.com/xmlschemas/TrackPointExtension/v1">
            <gpxtpx:hr>144</gpxtpx:hr>
          </gpxtpx:TrackPointExtension>
        </extensions>
      </trkpt>
      <trkpt lat="46.1224" lon="6.26849">
        <ele>523.7</ele>
        <time>2021-03-02T12:19:53Z</time>
        <extensions>
          <gpxtpx:TrackPointExtension xmlns:gpxtpx="http://www.garmin.com/xmlschemas/TrackPointExtension/v1">
            <gpxtpx:hr>144</gpxtpx:hr>
          </gpxtpx:TrackPointExtension>
        </extensions>
      </trkpt>
      <trkpt lat="46.12236" lon="6.2685">
        <ele>523.9</ele>
        <time>2021-03-02T12:19:54Z</time>
        <extensions>
          <gpxtpx:TrackPointExtension xmlns:gpxtpx="http://www.garmin.com/xmlschemas/TrackPointExtension/v1">
            <gpxtpx:hr>143</gpxtpx:hr>
          </gpxtpx:TrackPointExtension>
        </extensions>
      </trkpt>
      <trkpt lat="46.12232" lon="6.26851">
        <ele>524.2</ele>
        <time>2021-03-02T12:19:55Z</time>
        <extensions>
          <gpxtpx:TrackPointExtension xmlns:gpxtpx="http://www.garmin.com/xmlschemas/TrackPointExtension/v1">
            <gpxtpx:hr>143</gpxtpx:hr>
          </gpxtpx:TrackPointExtension>
        </extensions>
      </trkpt>
      <trkpt lat="46.12228" lon="6.26852">
        <ele>524.4</ele>
        <time>2021-03-02T12:19:56Z</time>
        <extensions>
          <gpxtpx:TrackPointExtension xmlns:gpxtpx="http://www.garmin.com/xmlschemas/TrackPointExtension/v1">
            <gpxtpx:hr>143</gpxtpx:hr>
          </gpxtpx:TrackPointExtension>
        </extensions>
      </trkpt>
      <trkpt lat="46.12224" lon="6.26854">
        <ele>524.6</ele>
        <time>2021-03-02T12:19:57Z</time>
        <extensions>
          <gpxtpx:TrackPointExtension xmlns:gpxtpx="http://www.garmin.com/xmlschemas/TrackPointExtension/v1">
            <gpxtpx:hr>143</gpxtpx:hr>
          </gpxtpx:TrackPointExtension>
        </extensions>
      </trkpt>
      <trkpt lat="46.1222" lon="6.26856">
        <ele>524.8</ele>
        <time>2021-03-02T12:19:58Z</time>
        <extensions>
          <gpxtpx:TrackPointExtension xmlns:gpxtpx="http://www.garmin.com/xmlschemas/TrackPointExtension/v1">
            <gpxtpx:hr>143</gpxtpx:hr>
          </gpxtpx:TrackPointExtension>
        </extensions>
      </trkpt>
      <trkpt lat="46.12216" lon="6.26857">
        <ele>525.1</ele>
        <time>2021-03-02T12:19:59Z</time>
        <extensions>
          <gpxtpx:TrackPointExtension xmlns:gpxtpx="http://www.garmin.com/xmlschemas/TrackPointExtension/v1">
            <gpxtpx:hr>143</gpxtpx:hr>
          </gpxtpx:TrackPointExtension>
        </extensions>
      </trkpt>
      <trkpt lat="46.12212" lon="6.26859">
        <ele>525.3</ele>
        <time>2021-03-02T12:20:00Z</time>
        <extensions>
          <gpxtpx:TrackPointExtension xmlns:gpxtpx="http://www.garmin.com/xmlschemas/TrackPointExtension/v1">
            <gpxtpx:hr>142</gpxtpx:hr>
          </gpxtpx:TrackPointExtension>
        </extensions>
      </trkpt>
      <trkpt lat="46.12209" lon="6.26861">
        <ele>525.4</ele>
        <time>2021-03-02T12:20:01Z</time>
        <extensions>
          <gpxtpx:TrackPointExtension xmlns:gpxtpx="http://www.garmin.com/xmlschemas/TrackPointExtension/v1">
            <gpxtpx:hr>142</gpxtpx:hr>
          </gpxtpx:TrackPointExtension>
        </extensions>
      </trkpt>
      <trkpt lat="46.12205" lon="6.26863">
        <ele>525.6</ele>
        <time>2021-03-02T12:20:02Z</time>
        <extensions>
          <gpxtpx:TrackPointExtension xmlns:gpxtpx="http://www.garmin.com/xmlschemas/TrackPointExtension/v1">
            <gpxtpx:hr>142</gpxtpx:hr>
          </gpxtpx:TrackPointExtension>
        </extensions>
      </trkpt>
      <trkpt lat="46.12201" lon="6.26865">
        <ele>525.8</ele>
        <time>2021-03-02T12:20:03Z</time>
        <extensions>
          <gpxtpx:TrackPointExtension xmlns:gpxtpx="http://www.garmin.com/xmlschemas/TrackPointExtension/v1">
            <gpxtpx:hr>143</gpxtpx:hr>
          </gpxtpx:TrackPointExtension>
        </extensions>
      </trkpt>
      <trkpt lat="46.12197" lon="6.26867">
        <ele>526</ele>
        <time>2021-03-02T12:20:04Z</time>
        <extensions>
          <gpxtpx:TrackPointExtension xmlns:gpxtpx="http://www.garmin.com/xmlschemas/TrackPointExtension/v1">
            <gpxtpx:hr>143</gpxtpx:hr>
          </gpxtpx:TrackPointExtension>
        </extensions>
      </trkpt>
      <trkpt lat="46.12193" lon="6.26869">
        <ele>526.2</ele>
        <time>2021-03-02T12:20:05Z</time>
        <extensions>
          <gpxtpx:TrackPointExtension xmlns:gpxtpx="http://www.garmin.com/xmlschemas/TrackPointExtension/v1">
            <gpxtpx:hr>143</gpxtpx:hr>
          </gpxtpx:TrackPointExtension>
        </extensions>
      </trkpt>
      <trkpt lat="46.12189" lon="6.26871">
        <ele>526.3</ele>
        <time>2021-03-02T12:20:06Z</time>
        <extensions>
          <gpxtpx:TrackPointExtension xmlns:gpxtpx="http://www.garmin.com/xmlschemas/TrackPointExtension/v1">
            <gpxtpx:hr>144</gpxtpx:hr>
          </gpxtpx:TrackPointExtension>
        </extensions>
      </trkpt>
      <trkpt lat="46.12185" lon="6.26873">
        <ele>526.5</ele>
        <time>2021-03-02T12:20:07Z</time>
        <extensions>
          <gpxtpx:TrackPointExtension xmlns:gpxtpx="http://www.garmin.com/xmlschemas/TrackPointExtension/v1">
            <gpxtpx:hr>144</gpxtpx:hr>
          </gpxtpx:TrackPointExtension>
        </extensions>
      </trkpt>
      <trkpt lat="46.12181" lon="6.26875">
        <ele>526.6</ele>
        <time>2021-03-02T12:20:08Z</time>
        <extensions>
          <gpxtpx:TrackPointExtension xmlns:gpxtpx="http://www.garmin.com/xmlschemas/TrackPointExtension/v1">
            <gpxtpx:hr>144</gpxtpx:hr>
          </gpxtpx:TrackPointExtension>
        </extensions>
      </trkpt>
      <trkpt lat="46.12177" lon="6.26878">
        <ele>526.7</ele>
        <time>2021-03-02T12:20:09Z</time>
        <extensions>
          <gpxtpx:TrackPointExtension xmlns:gpxtpx="http://www.garmin.com/xmlschemas/TrackPointExtension/v1">
            <gpxtpx:hr>144</gpxtpx:hr>
          </gpxtpx:TrackPointExtension>
        </extensions>
      </trkpt>
      <trkpt lat="46.12173" lon="6.2688">
        <ele>526.9</ele>
        <time>2021-03-02T12:20:10Z</time>
        <extensions>
          <gpxtpx:TrackPointExtension xmlns:gpxtpx="http://www.garmin.com/xmlschemas/TrackPointExtension/v1">
            <gpxtpx:hr>145</gpxtpx:hr>
          </gpxtpx:TrackPointExtension>
        </extensions>
      </trkpt>
      <trkpt lat="46.12169" lon="6.26882">
        <ele>527</ele>
        <time>2021-03-02T12:20:11Z</time>
        <extensions>
          <gpxtpx:TrackPointExtension xmlns:gpxtpx="http://www.garmin.com/xmlschemas/TrackPointExtension/v1">
            <gpxtpx:hr>145</gpxtpx:hr>
          </gpxtpx:TrackPointExtension>
        </extensions>
      </trkpt>
      <trkpt lat="46.12165" lon="6.26885">
        <ele>527.1</ele>
        <time>2021-03-02T12:20:12Z</time>
        <extensions>
          <gpxtpx:TrackPointExtension xmlns:gpxtpx="http://www.garmin.com/xmlschemas/TrackPointExtension/v1">
            <gpxtpx:hr>145</gpxtpx:hr>
          </gpxtpx:TrackPointExtension>
        </extensions>
      </trkpt>
      <trkpt lat="46.12161" lon="6.26887">
        <ele>527.2</ele>
        <time>2021-03-02T12:20:13Z</time>
        <extensions>
          <gpxtpx:TrackPointExtension xmlns:gpxtpx="http://www.garmin.com/xmlschemas/TrackPointExtension/v1">
            <gpxtpx:hr>145</gpxtpx:hr>
          </gpxtpx:TrackPointExtension>
        </extensions>
      </trkpt>
      <trkpt lat="46.12157" lon="6.2689">
        <ele>527.3</ele>
        <time>2021-03-02T12:20:14Z</time>
        <extensions>
          <gpxtpx:TrackPointExtension xmlns:gpxtpx="http://www.garmin.com/xmlschemas/TrackPointExtension/v1">
            <gpxtpx:hr>145</gpxtpx:hr>
          </gpxtpx:TrackPointExtension>
        </extensions>
      </trkpt>
      <trkpt lat="46.12152" lon="6.26892">
        <ele>527.4</ele>
        <time>2021-03-02T12:20:15Z</time>
        <extensions>
          <gpxtpx:TrackPointExtension xmlns:gpxtpx="http://www.garmin.com/xmlschemas/TrackPointExtension/v1">
            <gpxtpx:hr>146</gpxtpx:hr>
          </gpxtpx:TrackPointExtension>
        </extensions>
      </trkpt>
      <trkpt lat="46.12148" lon="6.26895">
        <ele>527.5</ele>
        <time>2021-03-02T12:20:16Z</time>
        <extensions>
          <gpxtpx:TrackPointExtension xmlns:gpxtpx="http://www.garmin.com/xmlschemas/TrackPointExtension/v1">
            <gpxtpx:hr>146</gpxtpx:hr>
          </gpxtpx:TrackPointExtension>
        </extensions>
      </trkpt>
      <trkpt lat="46.12144" lon="6.26898">
        <ele>527.6</ele>
        <time>2021-03-02T12:20:17Z</time>
        <extensions>
          <gpxtpx:TrackPointExtension xmlns:gpxtpx="http://www.garmin.com/xmlschemas/TrackPointExtension/v1">
            <gpxtpx:hr>146</gpxtpx:hr>
          </gpxtpx:TrackPointExtension>
        </extensions>
      </trkpt>
      <trkpt lat="46.1214" lon="6.26901">
        <ele>527.7</ele>
        <time>2021-03-02T12:20:18Z</time>
        <extensions>
          <gpxtpx:TrackPointExtension xmlns:gpxtpx="http://www.garmin.com/xmlschemas/TrackPointExtension/v1">
            <gpxtpx:hr>146</gpxtpx:hr>
          </gpxtpx:TrackPointExtension>
        </extensions>
      </trkpt>
      <trkpt lat="46.12136" lon="6.26904">
        <ele>527.8</ele>
        <time>2021-03-02T12:20:19Z</time>
        <extensions>
          <gpxtpx:TrackPointExtension xmlns:gpxtpx="http://www.garmin.com/xmlschemas/TrackPointExtension/v1">
            <gpxtpx:hr>146</gpxtpx:hr>
          </gpxtpx:TrackPointExtension>
        </extensions>
      </trkpt>
      <trkpt lat="46.12131" lon="6.26907">
        <ele>527.9</ele>
        <time>2021-03-02T12:20:20Z</time>
        <extensions>
          <gpxtpx:TrackPointExtension xmlns:gpxtpx="http://www.garmin.com/xmlschemas/TrackPointExtension/v1">
            <gpxtpx:hr>146</gpxtpx:hr>
          </gpxtpx:TrackPointExtension>
        </extensions>
      </trkpt>
      <trkpt lat="46.12127" lon="6.2691">
        <ele>527.9</ele>
        <time>2021-03-02T12:20:21Z</time>
        <extensions>
          <gpxtpx:TrackPointExtension xmlns:gpxtpx="http://www.garmin.com/xmlschemas/TrackPointExtension/v1">
            <gpxtpx:hr>146</gpxtpx:hr>
          </gpxtpx:TrackPointExtension>
        </extensions>
      </trkpt>
      <trkpt lat="46.12123" lon="6.26912">
        <ele>528</ele>
        <time>2021-03-02T12:20:22Z</time>
        <extensions>
          <gpxtpx:TrackPointExtension xmlns:gpxtpx="http://www.garmin.com/xmlschemas/TrackPointExtension/v1">
            <gpxtpx:hr>146</gpxtpx:hr>
          </gpxtpx:TrackPointExtension>
        </extensions>
      </trkpt>
      <trkpt lat="46.12118" lon="6.26913">
        <ele>528</ele>
        <time>2021-03-02T12:20:23Z</time>
        <extensions>
          <gpxtpx:TrackPointExtension xmlns:gpxtpx="http://www.garmin.com/xmlschemas/TrackPointExtension/v1">
            <gpxtpx:hr>146</gpxtpx:hr>
          </gpxtpx:TrackPointExtension>
        </extensions>
      </trkpt>
      <trkpt lat="46.12113" lon="6.26912">
        <ele>528</ele>
        <time>2021-03-02T12:20:24Z</time>
        <extensions>
          <gpxtpx:TrackPointExtension xmlns:gpxtpx="http://www.garmin.com/xmlschemas/TrackPointExtension/v1">
            <gpxtpx:hr>146</gpxtpx:hr>
          </gpxtpx:TrackPointExtension>
        </extensions>
      </trkpt>
      <trkpt lat="46.12109" lon="6.26909">
        <ele>528</ele>
        <time>2021-03-02T12:20:25Z</time>
        <extensions>
          <gpxtpx:TrackPointExtension xmlns:gpxtpx="http://www.garmin.com/xmlschemas/TrackPointExtension/v1">
            <gpxtpx:hr>146</gpxtpx:hr>
          </gpxtpx:TrackPointExtension>
        </extensions>
      </trkpt>
      <trkpt lat="46.12105" lon="6.26906">
        <ele>528</ele>
        <time>2021-03-02T12:20:26Z</time>
        <extensions>
          <gpxtpx:TrackPointExtension xmlns:gpxtpx="http://www.garmin.com/xmlschemas/TrackPointExtension/v1">
            <gpxtpx:hr>147</gpxtpx:hr>
          </gpxtpx:TrackPointExtension>
        </extensions>
      </trkpt>
      <trkpt lat="46.12101" lon="6.26903">
        <ele>528</ele>
        <time>2021-03-02T12:20:27Z</time>
        <extensions>
          <gpxtpx:TrackPointExtension xmlns:gpxtpx="http://www.garmin.com/xmlschemas/TrackPointExtension/v1">
            <gpxtpx:hr>147</gpxtpx:hr>
          </gpxtpx:TrackPointExtension>
        </extensions>
      </trkpt>
      <trkpt lat="46.12096" lon="6.26901">
        <ele>528</ele>
        <time>2021-03-02T12:20:28Z</time>
        <extensions>
          <gpxtpx:TrackPointExtension xmlns:gpxtpx="http://www.garmin.com/xmlschemas/TrackPointExtension/v1">
            <gpxtpx:hr>147</gpxtpx:hr>
          </gpxtpx:TrackPointExtension>
        </extensions>
      </trkpt>
      <trkpt lat="46.12091" lon="6.26901">
        <ele>527.9</ele>
        <time>2021-03-02T12:20:29Z</time>
        <extensions>
          <gpxtpx:TrackPointExtension xmlns:gpxtpx="http://www.garmin.com/xmlschemas/TrackPointExtension/v1">
            <gpxtpx:hr>147</gpxtpx:hr>
          </gpxtpx:TrackPointExtension>
        </extensions>
      </trkpt>
      <trkpt lat="46.12085" lon="6.26901">
        <ele>527.8</ele>
        <time>2021-03-02T12:20:30Z</time>
        <extensions>
          <gpxtpx:TrackPointExtension xmlns:gpxtpx="http://www.garmin.com/xmlschemas/TrackPointExtension/v1">
            <gpxtpx:hr>147</gpxtpx:hr>
          </gpxtpx:TrackPointExtension>
        </extensions>
      </trkpt>
      <trkpt lat="46.1208" lon="6.26901">
        <ele>527.6</ele>
        <time>2021-03-02T12:20:31Z</time>
        <extensions>
          <gpxtpx:TrackPointExtension xmlns:gpxtpx="http://www.garmin.com/xmlschemas/TrackPointExtension/v1">
            <gpxtpx:hr>148</gpxtpx:hr>
          </gpxtpx:TrackPointExtension>
        </extensions>
      </trkpt>
      <trkpt lat="46.12075" lon="6.269">
        <ele>527.4</ele>
        <time>2021-03-02T12:20:32Z</time>
        <extensions>
          <gpxtpx:TrackPointExtension xmlns:gpxtpx="http://www.garmin.com/xmlschemas/TrackPointExtension/v1">
            <gpxtpx:hr>147</gpxtpx:hr>
          </gpxtpx:TrackPointExtension>
        </extensions>
      </trkpt>
      <trkpt lat="46.12069" lon="6.26899">
        <ele>526.8</ele>
        <time>2021-03-02T12:20:33Z</time>
        <extensions>
          <gpxtpx:TrackPointExtension xmlns:gpxtpx="http://www.garmin.com/xmlschemas/TrackPointExtension/v1">
            <gpxtpx:hr>146</gpxtpx:hr>
          </gpxtpx:TrackPointExtension>
        </extensions>
      </trkpt>
      <trkpt lat="46.12064" lon="6.26897">
        <ele>526.6</ele>
        <time>2021-03-02T12:20:34Z</time>
        <extensions>
          <gpxtpx:TrackPointExtension xmlns:gpxtpx="http://www.garmin.com/xmlschemas/TrackPointExtension/v1">
            <gpxtpx:hr>146</gpxtpx:hr>
          </gpxtpx:TrackPointExtension>
        </extensions>
      </trkpt>
      <trkpt lat="46.12058" lon="6.26894">
        <ele>526.4</ele>
        <time>2021-03-02T12:20:35Z</time>
        <extensions>
          <gpxtpx:TrackPointExtension xmlns:gpxtpx="http://www.garmin.com/xmlschemas/TrackPointExtension/v1">
            <gpxtpx:hr>145</gpxtpx:hr>
          </gpxtpx:TrackPointExtension>
        </extensions>
      </trkpt>
      <trkpt lat="46.12052" lon="6.26892">
        <ele>526.2</ele>
        <time>2021-03-02T12:20:36Z</time>
        <extensions>
          <gpxtpx:TrackPointExtension xmlns:gpxtpx="http://www.garmin.com/xmlschemas/TrackPointExtension/v1">
            <gpxtpx:hr>145</gpxtpx:hr>
          </gpxtpx:TrackPointExtension>
        </extensions>
      </trkpt>
      <trkpt lat="46.12046" lon="6.26889">
        <ele>525.9</ele>
        <time>2021-03-02T12:20:37Z</time>
        <extensions>
          <gpxtpx:TrackPointExtension xmlns:gpxtpx="http://www.garmin.com/xmlschemas/TrackPointExtension/v1">
            <gpxtpx:hr>144</gpxtpx:hr>
          </gpxtpx:TrackPointExtension>
        </extensions>
      </trkpt>
      <trkpt lat="46.1204" lon="6.26885">
        <ele>525.7</ele>
        <time>2021-03-02T12:20:38Z</time>
        <extensions>
          <gpxtpx:TrackPointExtension xmlns:gpxtpx="http://www.garmin.com/xmlschemas/TrackPointExtension/v1">
            <gpxtpx:hr>143</gpxtpx:hr>
          </gpxtpx:TrackPointExtension>
        </extensions>
      </trkpt>
      <trkpt lat="46.12034" lon="6.2688">
        <ele>525.5</ele>
        <time>2021-03-02T12:20:39Z</time>
        <extensions>
          <gpxtpx:TrackPointExtension xmlns:gpxtpx="http://www.garmin.com/xmlschemas/TrackPointExtension/v1">
            <gpxtpx:hr>142</gpxtpx:hr>
          </gpxtpx:TrackPointExtension>
        </extensions>
      </trkpt>
      <trkpt lat="46.12028" lon="6.26875">
        <ele>525.3</ele>
        <time>2021-03-02T12:20:40Z</time>
        <extensions>
          <gpxtpx:TrackPointExtension xmlns:gpxtpx="http://www.garmin.com/xmlschemas/TrackPointExtension/v1">
            <gpxtpx:hr>141</gpxtpx:hr>
          </gpxtpx:TrackPointExtension>
        </extensions>
      </trkpt>
      <trkpt lat="46.12022" lon="6.26869">
        <ele>525.2</ele>
        <time>2021-03-02T12:20:41Z</time>
        <extensions>
          <gpxtpx:TrackPointExtension xmlns:gpxtpx="http://www.garmin.com/xmlschemas/TrackPointExtension/v1">
            <gpxtpx:hr>140</gpxtpx:hr>
          </gpxtpx:TrackPointExtension>
        </extensions>
      </trkpt>
      <trkpt lat="46.12016" lon="6.26863">
        <ele>525.1</ele>
        <time>2021-03-02T12:20:42Z</time>
        <extensions>
          <gpxtpx:TrackPointExtension xmlns:gpxtpx="http://www.garmin.com/xmlschemas/TrackPointExtension/v1">
            <gpxtpx:hr>139</gpxtpx:hr>
          </gpxtpx:TrackPointExtension>
        </extensions>
      </trkpt>
      <trkpt lat="46.1201" lon="6.26857">
        <ele>525</ele>
        <time>2021-03-02T12:20:43Z</time>
        <extensions>
          <gpxtpx:TrackPointExtension xmlns:gpxtpx="http://www.garmin.com/xmlschemas/TrackPointExtension/v1">
            <gpxtpx:hr>138</gpxtpx:hr>
          </gpxtpx:TrackPointExtension>
        </extensions>
      </trkpt>
      <trkpt lat="46.12004" lon="6.2685">
        <ele>524.9</ele>
        <time>2021-03-02T12:20:44Z</time>
        <extensions>
          <gpxtpx:TrackPointExtension xmlns:gpxtpx="http://www.garmin.com/xmlschemas/TrackPointExtension/v1">
            <gpxtpx:hr>137</gpxtpx:hr>
          </gpxtpx:TrackPointExtension>
        </extensions>
      </trkpt>
      <trkpt lat="46.11998" lon="6.26844">
        <ele>524.8</ele>
        <time>2021-03-02T12:20:45Z</time>
        <extensions>
          <gpxtpx:TrackPointExtension xmlns:gpxtpx="http://www.garmin.com/xmlschemas/TrackPointExtension/v1">
            <gpxtpx:hr>137</gpxtpx:hr>
          </gpxtpx:TrackPointExtension>
        </extensions>
      </trkpt>
      <trkpt lat="46.11993" lon="6.26838">
        <ele>524.7</ele>
        <time>2021-03-02T12:20:46Z</time>
        <extensions>
          <gpxtpx:TrackPointExtension xmlns:gpxtpx="http://www.garmin.com/xmlschemas/TrackPointExtension/v1">
            <gpxtpx:hr>137</gpxtpx:hr>
          </gpxtpx:TrackPointExtension>
        </extensions>
      </trkpt>
      <trkpt lat="46.11987" lon="6.26832">
        <ele>524.6</ele>
        <time>2021-03-02T12:20:47Z</time>
        <extensions>
          <gpxtpx:TrackPointExtension xmlns:gpxtpx="http://www.garmin.com/xmlschemas/TrackPointExtension/v1">
            <gpxtpx:hr>136</gpxtpx:hr>
          </gpxtpx:TrackPointExtension>
        </extensions>
      </trkpt>
      <trkpt lat="46.11981" lon="6.26826">
        <ele>524.5</ele>
        <time>2021-03-02T12:20:48Z</time>
        <extensions>
          <gpxtpx:TrackPointExtension xmlns:gpxtpx="http://www.garmin.com/xmlschemas/TrackPointExtension/v1">
            <gpxtpx:hr>136</gpxtpx:hr>
          </gpxtpx:TrackPointExtension>
        </extensions>
      </trkpt>
      <trkpt lat="46.11975" lon="6.2682">
        <ele>524.5</ele>
        <time>2021-03-02T12:20:49Z</time>
        <extensions>
          <gpxtpx:TrackPointExtension xmlns:gpxtpx="http://www.garmin.com/xmlschemas/TrackPointExtension/v1">
            <gpxtpx:hr>135</gpxtpx:hr>
          </gpxtpx:TrackPointExtension>
        </extensions>
      </trkpt>
      <trkpt lat="46.11969" lon="6.26814">
        <ele>524.4</ele>
        <time>2021-03-02T12:20:50Z</time>
        <extensions>
          <gpxtpx:TrackPointExtension xmlns:gpxtpx="http://www.garmin.com/xmlschemas/TrackPointExtension/v1">
            <gpxtpx:hr>135</gpxtpx:hr>
          </gpxtpx:TrackPointExtension>
        </extensions>
      </trkpt>
      <trkpt lat="46.11963" lon="6.26808">
        <ele>524.4</ele>
        <time>2021-03-02T12:20:51Z</time>
        <extensions>
          <gpxtpx:TrackPointExtension xmlns:gpxtpx="http://www.garmin.com/xmlschemas/TrackPointExtension/v1">
            <gpxtpx:hr>135</gpxtpx:hr>
          </gpxtpx:TrackPointExtension>
        </extensions>
      </trkpt>
      <trkpt lat="46.11957" lon="6.26802">
        <ele>524.4</ele>
        <time>2021-03-02T12:20:52Z</time>
        <extensions>
          <gpxtpx:TrackPointExtension xmlns:gpxtpx="http://www.garmin.com/xmlschemas/TrackPointExtension/v1">
            <gpxtpx:hr>135</gpxtpx:hr>
          </gpxtpx:TrackPointExtension>
        </extensions>
      </trkpt>
      <trkpt lat="46.11951" lon="6.26796">
        <ele>524.5</ele>
        <time>2021-03-02T12:20:53Z</time>
        <extensions>
          <gpxtpx:TrackPointExtension xmlns:gpxtpx="http://www.garmin.com/xmlschemas/TrackPointExtension/v1">
            <gpxtpx:hr>134</gpxtpx:hr>
          </gpxtpx:TrackPointExtension>
        </extensions>
      </trkpt>
      <trkpt lat="46.11945" lon="6.2679">
        <ele>524.5</ele>
        <time>2021-03-02T12:20:54Z</time>
        <extensions>
          <gpxtpx:TrackPointExtension xmlns:gpxtpx="http://www.garmin.com/xmlschemas/TrackPointExtension/v1">
            <gpxtpx:hr>134</gpxtpx:hr>
          </gpxtpx:TrackPointExtension>
        </extensions>
      </trkpt>
      <trkpt lat="46.11939" lon="6.26784">
        <ele>524.6</ele>
        <time>2021-03-02T12:20:55Z</time>
        <extensions>
          <gpxtpx:TrackPointExtension xmlns:gpxtpx="http://www.garmin.com/xmlschemas/TrackPointExtension/v1">
            <gpxtpx:hr>134</gpxtpx:hr>
          </gpxtpx:TrackPointExtension>
        </extensions>
      </trkpt>
      <trkpt lat="46.11934" lon="6.26778">
        <ele>524.6</ele>
        <time>2021-03-02T12:20:56Z</time>
        <extensions>
          <gpxtpx:TrackPointExtension xmlns:gpxtpx="http://www.garmin.com/xmlschemas/TrackPointExtension/v1">
            <gpxtpx:hr>134</gpxtpx:hr>
          </gpxtpx:TrackPointExtension>
        </extensions>
      </trkpt>
      <trkpt lat="46.11929" lon="6.26773">
        <ele>524.7</ele>
        <time>2021-03-02T12:20:57Z</time>
        <extensions>
          <gpxtpx:TrackPointExtension xmlns:gpxtpx="http://www.garmin.com/xmlschemas/TrackPointExtension/v1">
            <gpxtpx:hr>133</gpxtpx:hr>
          </gpxtpx:TrackPointExtension>
        </extensions>
      </trkpt>
      <trkpt lat="46.11923" lon="6.26768">
        <ele>524.7</ele>
        <time>2021-03-02T12:20:58Z</time>
        <extensions>
          <gpxtpx:TrackPointExtension xmlns:gpxtpx="http://www.garmin.com/xmlschemas/TrackPointExtension/v1">
            <gpxtpx:hr>133</gpxtpx:hr>
          </gpxtpx:TrackPointExtension>
        </extensions>
      </trkpt>
      <trkpt lat="46.11918" lon="6.26762">
        <ele>524.8</ele>
        <time>2021-03-02T12:20:59Z</time>
        <extensions>
          <gpxtpx:TrackPointExtension xmlns:gpxtpx="http://www.garmin.com/xmlschemas/TrackPointExtension/v1">
            <gpxtpx:hr>133</gpxtpx:hr>
          </gpxtpx:TrackPointExtension>
        </extensions>
      </trkpt>
      <trkpt lat="46.11913" lon="6.26757">
        <ele>524.8</ele>
        <time>2021-03-02T12:21:00Z</time>
        <extensions>
          <gpxtpx:TrackPointExtension xmlns:gpxtpx="http://www.garmin.com/xmlschemas/TrackPointExtension/v1">
            <gpxtpx:hr>132</gpxtpx:hr>
          </gpxtpx:TrackPointExtension>
        </extensions>
      </trkpt>
      <trkpt lat="46.11908" lon="6.26752">
        <ele>524.9</ele>
        <time>2021-03-02T12:21:01Z</time>
        <extensions>
          <gpxtpx:TrackPointExtension xmlns:gpxtpx="http://www.garmin.com/xmlschemas/TrackPointExtension/v1">
            <gpxtpx:hr>132</gpxtpx:hr>
          </gpxtpx:TrackPointExtension>
        </extensions>
      </trkpt>
      <trkpt lat="46.11903" lon="6.26747">
        <ele>525</ele>
        <time>2021-03-02T12:21:02Z</time>
        <extensions>
          <gpxtpx:TrackPointExtension xmlns:gpxtpx="http://www.garmin.com/xmlschemas/TrackPointExtension/v1">
            <gpxtpx:hr>131</gpxtpx:hr>
          </gpxtpx:TrackPointExtension>
        </extensions>
      </trkpt>
      <trkpt lat="46.11899" lon="6.26742">
        <ele>525.1</ele>
        <time>2021-03-02T12:21:03Z</time>
        <extensions>
          <gpxtpx:TrackPointExtension xmlns:gpxtpx="http://www.garmin.com/xmlschemas/TrackPointExtension/v1">
            <gpxtpx:hr>130</gpxtpx:hr>
          </gpxtpx:TrackPointExtension>
        </extensions>
      </trkpt>
      <trkpt lat="46.11894" lon="6.26737">
        <ele>525.2</ele>
        <time>2021-03-02T12:21:04Z</time>
        <extensions>
          <gpxtpx:TrackPointExtension xmlns:gpxtpx="http://www.garmin.com/xmlschemas/TrackPointExtension/v1">
            <gpxtpx:hr>129</gpxtpx:hr>
          </gpxtpx:TrackPointExtension>
        </extensions>
      </trkpt>
      <trkpt lat="46.11889" lon="6.26732">
        <ele>525.3</ele>
        <time>2021-03-02T12:21:05Z</time>
        <extensions>
          <gpxtpx:TrackPointExtension xmlns:gpxtpx="http://www.garmin.com/xmlschemas/TrackPointExtension/v1">
            <gpxtpx:hr>128</gpxtpx:hr>
          </gpxtpx:TrackPointExtension>
        </extensions>
      </trkpt>
      <trkpt lat="46.11884" lon="6.26727">
        <ele>525.4</ele>
        <time>2021-03-02T12:21:06Z</time>
        <extensions>
          <gpxtpx:TrackPointExtension xmlns:gpxtpx="http://www.garmin.com/xmlschemas/TrackPointExtension/v1">
            <gpxtpx:hr>128</gpxtpx:hr>
          </gpxtpx:TrackPointExtension>
        </extensions>
      </trkpt>
      <trkpt lat="46.11879" lon="6.26722">
        <ele>525.6</ele>
        <time>2021-03-02T12:21:07Z</time>
        <extensions>
          <gpxtpx:TrackPointExtension xmlns:gpxtpx="http://www.garmin.com/xmlschemas/TrackPointExtension/v1">
            <gpxtpx:hr>129</gpxtpx:hr>
          </gpxtpx:TrackPointExtension>
        </extensions>
      </trkpt>
      <trkpt lat="46.11874" lon="6.26717">
        <ele>525.7</ele>
        <time>2021-03-02T12:21:08Z</time>
        <extensions>
          <gpxtpx:TrackPointExtension xmlns:gpxtpx="http://www.garmin.com/xmlschemas/TrackPointExtension/v1">
            <gpxtpx:hr>129</gpxtpx:hr>
          </gpxtpx:TrackPointExtension>
        </extensions>
      </trkpt>
      <trkpt lat="46.11869" lon="6.26712">
        <ele>525.9</ele>
        <time>2021-03-02T12:21:09Z</time>
        <extensions>
          <gpxtpx:TrackPointExtension xmlns:gpxtpx="http://www.garmin.com/xmlschemas/TrackPointExtension/v1">
            <gpxtpx:hr>129</gpxtpx:hr>
          </gpxtpx:TrackPointExtension>
        </extensions>
      </trkpt>
      <trkpt lat="46.11864" lon="6.26707">
        <ele>526.1</ele>
        <time>2021-03-02T12:21:10Z</time>
        <extensions>
          <gpxtpx:TrackPointExtension xmlns:gpxtpx="http://www.garmin.com/xmlschemas/TrackPointExtension/v1">
            <gpxtpx:hr>129</gpxtpx:hr>
          </gpxtpx:TrackPointExtension>
        </extensions>
      </trkpt>
      <trkpt lat="46.11859" lon="6.26702">
        <ele>526.3</ele>
        <time>2021-03-02T12:21:11Z</time>
        <extensions>
          <gpxtpx:TrackPointExtension xmlns:gpxtpx="http://www.garmin.com/xmlschemas/TrackPointExtension/v1">
            <gpxtpx:hr>129</gpxtpx:hr>
          </gpxtpx:TrackPointExtension>
        </extensions>
      </trkpt>
      <trkpt lat="46.11854" lon="6.26697">
        <ele>526.5</ele>
        <time>2021-03-02T12:21:12Z</time>
        <extensions>
          <gpxtpx:TrackPointExtension xmlns:gpxtpx="http://www.garmin.com/xmlschemas/TrackPointExtension/v1">
            <gpxtpx:hr>129</gpxtpx:hr>
          </gpxtpx:TrackPointExtension>
        </extensions>
      </trkpt>
      <trkpt lat="46.1185" lon="6.26692">
        <ele>526.7</ele>
        <time>2021-03-02T12:21:13Z</time>
        <extensions>
          <gpxtpx:TrackPointExtension xmlns:gpxtpx="http://www.garmin.com/xmlschemas/TrackPointExtension/v1">
            <gpxtpx:hr>129</gpxtpx:hr>
          </gpxtpx:TrackPointExtension>
        </extensions>
      </trkpt>
      <trkpt lat="46.11845" lon="6.26687">
        <ele>526.9</ele>
        <time>2021-03-02T12:21:14Z</time>
        <extensions>
          <gpxtpx:TrackPointExtension xmlns:gpxtpx="http://www.garmin.com/xmlschemas/TrackPointExtension/v1">
            <gpxtpx:hr>128</gpxtpx:hr>
          </gpxtpx:TrackPointExtension>
        </extensions>
      </trkpt>
      <trkpt lat="46.1184" lon="6.26683">
        <ele>527.2</ele>
        <time>2021-03-02T12:21:15Z</time>
        <extensions>
          <gpxtpx:TrackPointExtension xmlns:gpxtpx="http://www.garmin.com/xmlschemas/TrackPointExtension/v1">
            <gpxtpx:hr>128</gpxtpx:hr>
          </gpxtpx:TrackPointExtension>
        </extensions>
      </trkpt>
      <trkpt lat="46.11836" lon="6.26678">
        <ele>527.4</ele>
        <time>2021-03-02T12:21:16Z</time>
        <extensions>
          <gpxtpx:TrackPointExtension xmlns:gpxtpx="http://www.garmin.com/xmlschemas/TrackPointExtension/v1">
            <gpxtpx:hr>127</gpxtpx:hr>
          </gpxtpx:TrackPointExtension>
        </extensions>
      </trkpt>
      <trkpt lat="46.11832" lon="6.26674">
        <ele>527.6</ele>
        <time>2021-03-02T12:21:17Z</time>
        <extensions>
          <gpxtpx:TrackPointExtension xmlns:gpxtpx="http://www.garmin.com/xmlschemas/TrackPointExtension/v1">
            <gpxtpx:hr>126</gpxtpx:hr>
          </gpxtpx:TrackPointExtension>
        </extensions>
      </trkpt>
      <trkpt lat="46.11827" lon="6.26669">
        <ele>527.8</ele>
        <time>2021-03-02T12:21:18Z</time>
        <extensions>
          <gpxtpx:TrackPointExtension xmlns:gpxtpx="http://www.garmin.com/xmlschemas/TrackPointExtension/v1">
            <gpxtpx:hr>125</gpxtpx:hr>
          </gpxtpx:TrackPointExtension>
        </extensions>
      </trkpt>
      <trkpt lat="46.11823" lon="6.26665">
        <ele>528.1</ele>
        <time>2021-03-02T12:21:19Z</time>
        <extensions>
          <gpxtpx:TrackPointExtension xmlns:gpxtpx="http://www.garmin.com/xmlschemas/TrackPointExtension/v1">
            <gpxtpx:hr>125</gpxtpx:hr>
          </gpxtpx:TrackPointExtension>
        </extensions>
      </trkpt>
      <trkpt lat="46.11819" lon="6.26661">
        <ele>528.3</ele>
        <time>2021-03-02T12:21:20Z</time>
        <extensions>
          <gpxtpx:TrackPointExtension xmlns:gpxtpx="http://www.garmin.com/xmlschemas/TrackPointExtension/v1">
            <gpxtpx:hr>125</gpxtpx:hr>
          </gpxtpx:TrackPointExtension>
        </extensions>
      </trkpt>
      <trkpt lat="46.11814" lon="6.26656">
        <ele>528.5</ele>
        <time>2021-03-02T12:21:21Z</time>
        <extensions>
          <gpxtpx:TrackPointExtension xmlns:gpxtpx="http://www.garmin.com/xmlschemas/TrackPointExtension/v1">
            <gpxtpx:hr>125</gpxtpx:hr>
          </gpxtpx:TrackPointExtension>
        </extensions>
      </trkpt>
      <trkpt lat="46.1181" lon="6.26652">
        <ele>528.7</ele>
        <time>2021-03-02T12:21:22Z</time>
        <extensions>
          <gpxtpx:TrackPointExtension xmlns:gpxtpx="http://www.garmin.com/xmlschemas/TrackPointExtension/v1">
            <gpxtpx:hr>125</gpxtpx:hr>
          </gpxtpx:TrackPointExtension>
        </extensions>
      </trkpt>
      <trkpt lat="46.11806" lon="6.26648">
        <ele>529</ele>
        <time>2021-03-02T12:21:23Z</time>
        <extensions>
          <gpxtpx:TrackPointExtension xmlns:gpxtpx="http://www.garmin.com/xmlschemas/TrackPointExtension/v1">
            <gpxtpx:hr>125</gpxtpx:hr>
          </gpxtpx:TrackPointExtension>
        </extensions>
      </trkpt>
      <trkpt lat="46.11803" lon="6.26643">
        <ele>529.2</ele>
        <time>2021-03-02T12:21:24Z</time>
        <extensions>
          <gpxtpx:TrackPointExtension xmlns:gpxtpx="http://www.garmin.com/xmlschemas/TrackPointExtension/v1">
            <gpxtpx:hr>126</gpxtpx:hr>
          </gpxtpx:TrackPointExtension>
        </extensions>
      </trkpt>
      <trkpt lat="46.11799" lon="6.26639">
        <ele>529.4</ele>
        <time>2021-03-02T12:21:25Z</time>
        <extensions>
          <gpxtpx:TrackPointExtension xmlns:gpxtpx="http://www.garmin.com/xmlschemas/TrackPointExtension/v1">
            <gpxtpx:hr>126</gpxtpx:hr>
          </gpxtpx:TrackPointExtension>
        </extensions>
      </trkpt>
      <trkpt lat="46.11796" lon="6.26634">
        <ele>529.6</ele>
        <time>2021-03-02T12:21:26Z</time>
        <extensions>
          <gpxtpx:TrackPointExtension xmlns:gpxtpx="http://www.garmin.com/xmlschemas/TrackPointExtension/v1">
            <gpxtpx:hr>126</gpxtpx:hr>
          </gpxtpx:TrackPointExtension>
        </extensions>
      </trkpt>
      <trkpt lat="46.11793" lon="6.2663">
        <ele>529.8</ele>
        <time>2021-03-02T12:21:27Z</time>
        <extensions>
          <gpxtpx:TrackPointExtension xmlns:gpxtpx="http://www.garmin.com/xmlschemas/TrackPointExtension/v1">
            <gpxtpx:hr>126</gpxtpx:hr>
          </gpxtpx:TrackPointExtension>
        </extensions>
      </trkpt>
      <trkpt lat="46.11789" lon="6.26625">
        <ele>530</ele>
        <time>2021-03-02T12:21:28Z</time>
        <extensions>
          <gpxtpx:TrackPointExtension xmlns:gpxtpx="http://www.garmin.com/xmlschemas/TrackPointExtension/v1">
            <gpxtpx:hr>127</gpxtpx:hr>
          </gpxtpx:TrackPointExtension>
        </extensions>
      </trkpt>
      <trkpt lat="46.11787" lon="6.2662">
        <ele>530.1</ele>
        <time>2021-03-02T12:21:29Z</time>
        <extensions>
          <gpxtpx:TrackPointExtension xmlns:gpxtpx="http://www.garmin.com/xmlschemas/TrackPointExtension/v1">
            <gpxtpx:hr>127</gpxtpx:hr>
          </gpxtpx:TrackPointExtension>
        </extensions>
      </trkpt>
      <trkpt lat="46.11784" lon="6.26615">
        <ele>530.3</ele>
        <time>2021-03-02T12:21:30Z</time>
        <extensions>
          <gpxtpx:TrackPointExtension xmlns:gpxtpx="http://www.garmin.com/xmlschemas/TrackPointExtension/v1">
            <gpxtpx:hr>128</gpxtpx:hr>
          </gpxtpx:TrackPointExtension>
        </extensions>
      </trkpt>
      <trkpt lat="46.11781" lon="6.2661">
        <ele>530.5</ele>
        <time>2021-03-02T12:21:31Z</time>
        <extensions>
          <gpxtpx:TrackPointExtension xmlns:gpxtpx="http://www.garmin.com/xmlschemas/TrackPointExtension/v1">
            <gpxtpx:hr>128</gpxtpx:hr>
          </gpxtpx:TrackPointExtension>
        </extensions>
      </trkpt>
      <trkpt lat="46.11779" lon="6.26604">
        <ele>530.7</ele>
        <time>2021-03-02T12:21:32Z</time>
        <extensions>
          <gpxtpx:TrackPointExtension xmlns:gpxtpx="http://www.garmin.com/xmlschemas/TrackPointExtension/v1">
            <gpxtpx:hr>128</gpxtpx:hr>
          </gpxtpx:TrackPointExtension>
        </extensions>
      </trkpt>
      <trkpt lat="46.11776" lon="6.266">
        <ele>531.1</ele>
        <time>2021-03-02T12:21:33Z</time>
        <extensions>
          <gpxtpx:TrackPointExtension xmlns:gpxtpx="http://www.garmin.com/xmlschemas/TrackPointExtension/v1">
            <gpxtpx:hr>129</gpxtpx:hr>
          </gpxtpx:TrackPointExtension>
        </extensions>
      </trkpt>
      <trkpt lat="46.11772" lon="6.26597">
        <ele>531.6</ele>
        <time>2021-03-02T12:21:34Z</time>
        <extensions>
          <gpxtpx:TrackPointExtension xmlns:gpxtpx="http://www.garmin.com/xmlschemas/TrackPointExtension/v1">
            <gpxtpx:hr>129</gpxtpx:hr>
          </gpxtpx:TrackPointExtension>
        </extensions>
      </trkpt>
      <trkpt lat="46.11768" lon="6.26596">
        <ele>532.2</ele>
        <time>2021-03-02T12:21:35Z</time>
        <extensions>
          <gpxtpx:TrackPointExtension xmlns:gpxtpx="http://www.garmin.com/xmlschemas/TrackPointExtension/v1">
            <gpxtpx:hr>130</gpxtpx:hr>
          </gpxtpx:TrackPointExtension>
        </extensions>
      </trkpt>
      <trkpt lat="46.11764" lon="6.26597">
        <ele>532.9</ele>
        <time>2021-03-02T12:21:36Z</time>
        <extensions>
          <gpxtpx:TrackPointExtension xmlns:gpxtpx="http://www.garmin.com/xmlschemas/TrackPointExtension/v1">
            <gpxtpx:hr>130</gpxtpx:hr>
          </gpxtpx:TrackPointExtension>
        </extensions>
      </trkpt>
      <trkpt lat="46.1176" lon="6.26597">
        <ele>532.9</ele>
        <time>2021-03-02T12:21:37Z</time>
        <extensions>
          <gpxtpx:TrackPointExtension xmlns:gpxtpx="http://www.garmin.com/xmlschemas/TrackPointExtension/v1">
            <gpxtpx:hr>130</gpxtpx:hr>
          </gpxtpx:TrackPointExtension>
        </extensions>
      </trkpt>
      <trkpt lat="46.11756" lon="6.26596">
        <ele>533.1</ele>
        <time>2021-03-02T12:21:38Z</time>
        <extensions>
          <gpxtpx:TrackPointExtension xmlns:gpxtpx="http://www.garmin.com/xmlschemas/TrackPointExtension/v1">
            <gpxtpx:hr>131</gpxtpx:hr>
          </gpxtpx:TrackPointExtension>
        </extensions>
      </trkpt>
      <trkpt lat="46.11752" lon="6.26594">
        <ele>533.2</ele>
        <time>2021-03-02T12:21:39Z</time>
        <extensions>
          <gpxtpx:TrackPointExtension xmlns:gpxtpx="http://www.garmin.com/xmlschemas/TrackPointExtension/v1">
            <gpxtpx:hr>131</gpxtpx:hr>
          </gpxtpx:TrackPointExtension>
        </extensions>
      </trkpt>
      <trkpt lat="46.11748" lon="6.26591">
        <ele>533.4</ele>
        <time>2021-03-02T12:21:40Z</time>
        <extensions>
          <gpxtpx:TrackPointExtension xmlns:gpxtpx="http://www.garmin.com/xmlschemas/TrackPointExtension/v1">
            <gpxtpx:hr>131</gpxtpx:hr>
          </gpxtpx:TrackPointExtension>
        </extensions>
      </trkpt>
      <trkpt lat="46.11745" lon="6.26587">
        <ele>533.7</ele>
        <time>2021-03-02T12:21:41Z</time>
        <extensions>
          <gpxtpx:TrackPointExtension xmlns:gpxtpx="http://www.garmin.com/xmlschemas/TrackPointExtension/v1">
            <gpxtpx:hr>132</gpxtpx:hr>
          </gpxtpx:TrackPointExtension>
        </extensions>
      </trkpt>
      <trkpt lat="46.11743" lon="6.26585">
        <ele>533.9</ele>
        <time>2021-03-02T12:21:42Z</time>
        <extensions>
          <gpxtpx:TrackPointExtension xmlns:gpxtpx="http://www.garmin.com/xmlschemas/TrackPointExtension/v1">
            <gpxtpx:hr>132</gpxtpx:hr>
          </gpxtpx:TrackPointExtension>
        </extensions>
      </trkpt>
      <trkpt lat="46.1174" lon="6.26582">
        <ele>534</ele>
        <time>2021-03-02T12:21:43Z</time>
        <extensions>
          <gpxtpx:TrackPointExtension xmlns:gpxtpx="http://www.garmin.com/xmlschemas/TrackPointExtension/v1">
            <gpxtpx:hr>132</gpxtpx:hr>
          </gpxtpx:TrackPointExtension>
        </extensions>
      </trkpt>
      <trkpt lat="46.11738" lon="6.26579">
        <ele>534.2</ele>
        <time>2021-03-02T12:21:44Z</time>
        <extensions>
          <gpxtpx:TrackPointExtension xmlns:gpxtpx="http://www.garmin.com/xmlschemas/TrackPointExtension/v1">
            <gpxtpx:hr>132</gpxtpx:hr>
          </gpxtpx:TrackPointExtension>
        </extensions>
      </trkpt>
      <trkpt lat="46.11737" lon="6.26576">
        <ele>534.4</ele>
        <time>2021-03-02T12:21:45Z</time>
        <extensions>
          <gpxtpx:TrackPointExtension xmlns:gpxtpx="http://www.garmin.com/xmlschemas/TrackPointExtension/v1">
            <gpxtpx:hr>132</gpxtpx:hr>
          </gpxtpx:TrackPointExtension>
        </extensions>
      </trkpt>
      <trkpt lat="46.11735" lon="6.26573">
        <ele>534.5</ele>
        <time>2021-03-02T12:21:46Z</time>
        <extensions>
          <gpxtpx:TrackPointExtension xmlns:gpxtpx="http://www.garmin.com/xmlschemas/TrackPointExtension/v1">
            <gpxtpx:hr>132</gpxtpx:hr>
          </gpxtpx:TrackPointExtension>
        </extensions>
      </trkpt>
      <trkpt lat="46.11734" lon="6.26571">
        <ele>534.6</ele>
        <time>2021-03-02T12:21:47Z</time>
        <extensions>
          <gpxtpx:TrackPointExtension xmlns:gpxtpx="http://www.garmin.com/xmlschemas/TrackPointExtension/v1">
            <gpxtpx:hr>133</gpxtpx:hr>
          </gpxtpx:TrackPointExtension>
        </extensions>
      </trkpt>
      <trkpt lat="46.11733" lon="6.26569">
        <ele>534.7</ele>
        <time>2021-03-02T12:21:48Z</time>
        <extensions>
          <gpxtpx:TrackPointExtension xmlns:gpxtpx="http://www.garmin.com/xmlschemas/TrackPointExtension/v1">
            <gpxtpx:hr>133</gpxtpx:hr>
          </gpxtpx:TrackPointExtension>
        </extensions>
      </trkpt>
      <trkpt lat="46.11732" lon="6.26566">
        <ele>534.9</ele>
        <time>2021-03-02T12:21:49Z</time>
        <extensions>
          <gpxtpx:TrackPointExtension xmlns:gpxtpx="http://www.garmin.com/xmlschemas/TrackPointExtension/v1">
            <gpxtpx:hr>133</gpxtpx:hr>
          </gpxtpx:TrackPointExtension>
        </extensions>
      </trkpt>
      <trkpt lat="46.1173" lon="6.26564">
        <ele>535</ele>
        <time>2021-03-02T12:21:50Z</time>
        <extensions>
          <gpxtpx:TrackPointExtension xmlns:gpxtpx="http://www.garmin.com/xmlschemas/TrackPointExtension/v1">
            <gpxtpx:hr>133</gpxtpx:hr>
          </gpxtpx:TrackPointExtension>
        </extensions>
      </trkpt>
      <trkpt lat="46.11729" lon="6.26562">
        <ele>535.1</ele>
        <time>2021-03-02T12:21:51Z</time>
        <extensions>
          <gpxtpx:TrackPointExtension xmlns:gpxtpx="http://www.garmin.com/xmlschemas/TrackPointExtension/v1">
            <gpxtpx:hr>134</gpxtpx:hr>
          </gpxtpx:TrackPointExtension>
        </extensions>
      </trkpt>
      <trkpt lat="46.11728" lon="6.26559">
        <ele>535.2</ele>
        <time>2021-03-02T12:21:52Z</time>
        <extensions>
          <gpxtpx:TrackPointExtension xmlns:gpxtpx="http://www.garmin.com/xmlschemas/TrackPointExtension/v1">
            <gpxtpx:hr>134</gpxtpx:hr>
          </gpxtpx:TrackPointExtension>
        </extensions>
      </trkpt>
      <trkpt lat="46.11726" lon="6.26556">
        <ele>535.3</ele>
        <time>2021-03-02T12:21:53Z</time>
        <extensions>
          <gpxtpx:TrackPointExtension xmlns:gpxtpx="http://www.garmin.com/xmlschemas/TrackPointExtension/v1">
            <gpxtpx:hr>134</gpxtpx:hr>
          </gpxtpx:TrackPointExtension>
        </extensions>
      </trkpt>
      <trkpt lat="46.11725" lon="6.26554">
        <ele>535.4</ele>
        <time>2021-03-02T12:21:54Z</time>
        <extensions>
          <gpxtpx:TrackPointExtension xmlns:gpxtpx="http://www.garmin.com/xmlschemas/TrackPointExtension/v1">
            <gpxtpx:hr>134</gpxtpx:hr>
          </gpxtpx:TrackPointExtension>
        </extensions>
      </trkpt>
      <trkpt lat="46.11724" lon="6.26551">
        <ele>535.6</ele>
        <time>2021-03-02T12:21:55Z</time>
        <extensions>
          <gpxtpx:TrackPointExtension xmlns:gpxtpx="http://www.garmin.com/xmlschemas/TrackPointExtension/v1">
            <gpxtpx:hr>133</gpxtpx:hr>
          </gpxtpx:TrackPointExtension>
        </extensions>
      </trkpt>
      <trkpt lat="46.11723" lon="6.26548">
        <ele>535.7</ele>
        <time>2021-03-02T12:21:56Z</time>
        <extensions>
          <gpxtpx:TrackPointExtension xmlns:gpxtpx="http://www.garmin.com/xmlschemas/TrackPointExtension/v1">
            <gpxtpx:hr>133</gpxtpx:hr>
          </gpxtpx:TrackPointExtension>
        </extensions>
      </trkpt>
      <trkpt lat="46.11722" lon="6.26546">
        <ele>535.8</ele>
        <time>2021-03-02T12:21:57Z</time>
        <extensions>
          <gpxtpx:TrackPointExtension xmlns:gpxtpx="http://www.garmin.com/xmlschemas/TrackPointExtension/v1">
            <gpxtpx:hr>133</gpxtpx:hr>
          </gpxtpx:TrackPointExtension>
        </extensions>
      </trkpt>
      <trkpt lat="46.11721" lon="6.26543">
        <ele>535.9</ele>
        <time>2021-03-02T12:21:58Z</time>
        <extensions>
          <gpxtpx:TrackPointExtension xmlns:gpxtpx="http://www.garmin.com/xmlschemas/TrackPointExtension/v1">
            <gpxtpx:hr>132</gpxtpx:hr>
          </gpxtpx:TrackPointExtension>
        </extensions>
      </trkpt>
      <trkpt lat="46.1172" lon="6.26539">
        <ele>536.1</ele>
        <time>2021-03-02T12:21:59Z</time>
        <extensions>
          <gpxtpx:TrackPointExtension xmlns:gpxtpx="http://www.garmin.com/xmlschemas/TrackPointExtension/v1">
            <gpxtpx:hr>132</gpxtpx:hr>
          </gpxtpx:TrackPointExtension>
        </extensions>
      </trkpt>
      <trkpt lat="46.11719" lon="6.26536">
        <ele>536.2</ele>
        <time>2021-03-02T12:22:00Z</time>
        <extensions>
          <gpxtpx:TrackPointExtension xmlns:gpxtpx="http://www.garmin.com/xmlschemas/TrackPointExtension/v1">
            <gpxtpx:hr>132</gpxtpx:hr>
          </gpxtpx:TrackPointExtension>
        </extensions>
      </trkpt>
      <trkpt lat="46.11717" lon="6.26532">
        <ele>536.4</ele>
        <time>2021-03-02T12:22:01Z</time>
        <extensions>
          <gpxtpx:TrackPointExtension xmlns:gpxtpx="http://www.garmin.com/xmlschemas/TrackPointExtension/v1">
            <gpxtpx:hr>131</gpxtpx:hr>
          </gpxtpx:TrackPointExtension>
        </extensions>
      </trkpt>
      <trkpt lat="46.11716" lon="6.26527">
        <ele>536.5</ele>
        <time>2021-03-02T12:22:02Z</time>
        <extensions>
          <gpxtpx:TrackPointExtension xmlns:gpxtpx="http://www.garmin.com/xmlschemas/TrackPointExtension/v1">
            <gpxtpx:hr>131</gpxtpx:hr>
          </gpxtpx:TrackPointExtension>
        </extensions>
      </trkpt>
      <trkpt lat="46.11715" lon="6.26523">
        <ele>536.7</ele>
        <time>2021-03-02T12:22:03Z</time>
        <extensions>
          <gpxtpx:TrackPointExtension xmlns:gpxtpx="http://www.garmin.com/xmlschemas/TrackPointExtension/v1">
            <gpxtpx:hr>131</gpxtpx:hr>
          </gpxtpx:TrackPointExtension>
        </extensions>
      </trkpt>
      <trkpt lat="46.11713" lon="6.26519">
        <ele>536.8</ele>
        <time>2021-03-02T12:22:04Z</time>
        <extensions>
          <gpxtpx:TrackPointExtension xmlns:gpxtpx="http://www.garmin.com/xmlschemas/TrackPointExtension/v1">
            <gpxtpx:hr>131</gpxtpx:hr>
          </gpxtpx:TrackPointExtension>
        </extensions>
      </trkpt>
      <trkpt lat="46.11712" lon="6.26514">
        <ele>537</ele>
        <time>2021-03-02T12:22:05Z</time>
        <extensions>
          <gpxtpx:TrackPointExtension xmlns:gpxtpx="http://www.garmin.com/xmlschemas/TrackPointExtension/v1">
            <gpxtpx:hr>131</gpxtpx:hr>
          </gpxtpx:TrackPointExtension>
        </extensions>
      </trkpt>
      <trkpt lat="46.11711" lon="6.2651">
        <ele>537.1</ele>
        <time>2021-03-02T12:22:06Z</time>
        <extensions>
          <gpxtpx:TrackPointExtension xmlns:gpxtpx="http://www.garmin.com/xmlschemas/TrackPointExtension/v1">
            <gpxtpx:hr>131</gpxtpx:hr>
          </gpxtpx:TrackPointExtension>
        </extensions>
      </trkpt>
      <trkpt lat="46.1171" lon="6.26506">
        <ele>537.2</ele>
        <time>2021-03-02T12:22:07Z</time>
        <extensions>
          <gpxtpx:TrackPointExtension xmlns:gpxtpx="http://www.garmin.com/xmlschemas/TrackPointExtension/v1">
            <gpxtpx:hr>131</gpxtpx:hr>
          </gpxtpx:TrackPointExtension>
        </extensions>
      </trkpt>
      <trkpt lat="46.11708" lon="6.26502">
        <ele>537.4</ele>
        <time>2021-03-02T12:22:08Z</time>
        <extensions>
          <gpxtpx:TrackPointExtension xmlns:gpxtpx="http://www.garmin.com/xmlschemas/TrackPointExtension/v1">
            <gpxtpx:hr>131</gpxtpx:hr>
          </gpxtpx:TrackPointExtension>
        </extensions>
      </trkpt>
      <trkpt lat="46.11706" lon="6.26499">
        <ele>537.4</ele>
        <time>2021-03-02T12:22:09Z</time>
        <extensions>
          <gpxtpx:TrackPointExtension xmlns:gpxtpx="http://www.garmin.com/xmlschemas/TrackPointExtension/v1">
            <gpxtpx:hr>131</gpxtpx:hr>
          </gpxtpx:TrackPointExtension>
        </extensions>
      </trkpt>
      <trkpt lat="46.11705" lon="6.26496">
        <ele>537.5</ele>
        <time>2021-03-02T12:22:10Z</time>
        <extensions>
          <gpxtpx:TrackPointExtension xmlns:gpxtpx="http://www.garmin.com/xmlschemas/TrackPointExtension/v1">
            <gpxtpx:hr>131</gpxtpx:hr>
          </gpxtpx:TrackPointExtension>
        </extensions>
      </trkpt>
      <trkpt lat="46.11705" lon="6.26493">
        <ele>537.5</ele>
        <time>2021-03-02T12:22:11Z</time>
        <extensions>
          <gpxtpx:TrackPointExtension xmlns:gpxtpx="http://www.garmin.com/xmlschemas/TrackPointExtension/v1">
            <gpxtpx:hr>131</gpxtpx:hr>
          </gpxtpx:TrackPointExtension>
        </extensions>
      </trkpt>
      <trkpt lat="46.11704" lon="6.26491">
        <ele>537.5</ele>
        <time>2021-03-02T12:22:12Z</time>
        <extensions>
          <gpxtpx:TrackPointExtension xmlns:gpxtpx="http://www.garmin.com/xmlschemas/TrackPointExtension/v1">
            <gpxtpx:hr>131</gpxtpx:hr>
          </gpxtpx:TrackPointExtension>
        </extensions>
      </trkpt>
      <trkpt lat="46.11703" lon="6.26491">
        <ele>537.5</ele>
        <time>2021-03-02T12:22:13Z</time>
        <extensions>
          <gpxtpx:TrackPointExtension xmlns:gpxtpx="http://www.garmin.com/xmlschemas/TrackPointExtension/v1">
            <gpxtpx:hr>131</gpxtpx:hr>
          </gpxtpx:TrackPointExtension>
        </extensions>
      </trkpt>
      <trkpt lat="46.11702" lon="6.26491">
        <ele>537.5</ele>
        <time>2021-03-02T12:22:14Z</time>
        <extensions>
          <gpxtpx:TrackPointExtension xmlns:gpxtpx="http://www.garmin.com/xmlschemas/TrackPointExtension/v1">
            <gpxtpx:hr>131</gpxtpx:hr>
          </gpxtpx:TrackPointExtension>
        </extensions>
      </trkpt>
      <trkpt lat="46.11702" lon="6.26493">
        <ele>537.6</ele>
        <time>2021-03-02T12:22:15Z</time>
        <extensions>
          <gpxtpx:TrackPointExtension xmlns:gpxtpx="http://www.garmin.com/xmlschemas/TrackPointExtension/v1">
            <gpxtpx:hr>131</gpxtpx:hr>
          </gpxtpx:TrackPointExtension>
        </extensions>
      </trkpt>
      <trkpt lat="46.11702" lon="6.26496">
        <ele>537.6</ele>
        <time>2021-03-02T12:22:16Z</time>
        <extensions>
          <gpxtpx:TrackPointExtension xmlns:gpxtpx="http://www.garmin.com/xmlschemas/TrackPointExtension/v1">
            <gpxtpx:hr>131</gpxtpx:hr>
          </gpxtpx:TrackPointExtension>
        </extensions>
      </trkpt>
      <trkpt lat="46.11703" lon="6.265">
        <ele>537.6</ele>
        <time>2021-03-02T12:22:17Z</time>
        <extensions>
          <gpxtpx:TrackPointExtension xmlns:gpxtpx="http://www.garmin.com/xmlschemas/TrackPointExtension/v1">
            <gpxtpx:hr>130</gpxtpx:hr>
          </gpxtpx:TrackPointExtension>
        </extensions>
      </trkpt>
      <trkpt lat="46.11703" lon="6.26504">
        <ele>537.5</ele>
        <time>2021-03-02T12:22:18Z</time>
        <extensions>
          <gpxtpx:TrackPointExtension xmlns:gpxtpx="http://www.garmin.com/xmlschemas/TrackPointExtension/v1">
            <gpxtpx:hr>129</gpxtpx:hr>
          </gpxtpx:TrackPointExtension>
        </extensions>
      </trkpt>
      <trkpt lat="46.11703" lon="6.26508">
        <ele>537.2</ele>
        <time>2021-03-02T12:22:19Z</time>
        <extensions>
          <gpxtpx:TrackPointExtension xmlns:gpxtpx="http://www.garmin.com/xmlschemas/TrackPointExtension/v1">
            <gpxtpx:hr>128</gpxtpx:hr>
          </gpxtpx:TrackPointExtension>
        </extensions>
      </trkpt>
      <trkpt lat="46.11701" lon="6.26513">
        <ele>537.2</ele>
        <time>2021-03-02T12:22:20Z</time>
        <extensions>
          <gpxtpx:TrackPointExtension xmlns:gpxtpx="http://www.garmin.com/xmlschemas/TrackPointExtension/v1">
            <gpxtpx:hr>127</gpxtpx:hr>
          </gpxtpx:TrackPointExtension>
        </extensions>
      </trkpt>
      <trkpt lat="46.11699" lon="6.26517">
        <ele>537.1</ele>
        <time>2021-03-02T12:22:21Z</time>
        <extensions>
          <gpxtpx:TrackPointExtension xmlns:gpxtpx="http://www.garmin.com/xmlschemas/TrackPointExtension/v1">
            <gpxtpx:hr>127</gpxtpx:hr>
          </gpxtpx:TrackPointExtension>
        </extensions>
      </trkpt>
      <trkpt lat="46.11697" lon="6.26522">
        <ele>537.1</ele>
        <time>2021-03-02T12:22:22Z</time>
        <extensions>
          <gpxtpx:TrackPointExtension xmlns:gpxtpx="http://www.garmin.com/xmlschemas/TrackPointExtension/v1">
            <gpxtpx:hr>126</gpxtpx:hr>
          </gpxtpx:TrackPointExtension>
        </extensions>
      </trkpt>
      <trkpt lat="46.11694" lon="6.26526">
        <ele>537</ele>
        <time>2021-03-02T12:22:23Z</time>
        <extensions>
          <gpxtpx:TrackPointExtension xmlns:gpxtpx="http://www.garmin.com/xmlschemas/TrackPointExtension/v1">
            <gpxtpx:hr>126</gpxtpx:hr>
          </gpxtpx:TrackPointExtension>
        </extensions>
      </trkpt>
      <trkpt lat="46.11691" lon="6.26529">
        <ele>537.1</ele>
        <time>2021-03-02T12:22:24Z</time>
        <extensions>
          <gpxtpx:TrackPointExtension xmlns:gpxtpx="http://www.garmin.com/xmlschemas/TrackPointExtension/v1">
            <gpxtpx:hr>125</gpxtpx:hr>
          </gpxtpx:TrackPointExtension>
        </extensions>
      </trkpt>
      <trkpt lat="46.11688" lon="6.26532">
        <ele>537.2</ele>
        <time>2021-03-02T12:22:25Z</time>
        <extensions>
          <gpxtpx:TrackPointExtension xmlns:gpxtpx="http://www.garmin.com/xmlschemas/TrackPointExtension/v1">
            <gpxtpx:hr>125</gpxtpx:hr>
          </gpxtpx:TrackPointExtension>
        </extensions>
      </trkpt>
      <trkpt lat="46.11686" lon="6.26536">
        <ele>537.3</ele>
        <time>2021-03-02T12:22:26Z</time>
        <extensions>
          <gpxtpx:TrackPointExtension xmlns:gpxtpx="http://www.garmin.com/xmlschemas/TrackPointExtension/v1">
            <gpxtpx:hr>124</gpxtpx:hr>
          </gpxtpx:TrackPointExtension>
        </extensions>
      </trkpt>
      <trkpt lat="46.11684" lon="6.26541">
        <ele>537.5</ele>
        <time>2021-03-02T12:22:27Z</time>
        <extensions>
          <gpxtpx:TrackPointExtension xmlns:gpxtpx="http://www.garmin.com/xmlschemas/TrackPointExtension/v1">
            <gpxtpx:hr>124</gpxtpx:hr>
          </gpxtpx:TrackPointExtension>
        </extensions>
      </trkpt>
      <trkpt lat="46.11681" lon="6.26545">
        <ele>537.6</ele>
        <time>2021-03-02T12:22:28Z</time>
        <extensions>
          <gpxtpx:TrackPointExtension xmlns:gpxtpx="http://www.garmin.com/xmlschemas/TrackPointExtension/v1">
            <gpxtpx:hr>123</gpxtpx:hr>
          </gpxtpx:TrackPointExtension>
        </extensions>
      </trkpt>
      <trkpt lat="46.11679" lon="6.26549">
        <ele>537.8</ele>
        <time>2021-03-02T12:22:29Z</time>
        <extensions>
          <gpxtpx:TrackPointExtension xmlns:gpxtpx="http://www.garmin.com/xmlschemas/TrackPointExtension/v1">
            <gpxtpx:hr>123</gpxtpx:hr>
          </gpxtpx:TrackPointExtension>
        </extensions>
      </trkpt>
      <trkpt lat="46.11677" lon="6.26554">
        <ele>538</ele>
        <time>2021-03-02T12:22:30Z</time>
        <extensions>
          <gpxtpx:TrackPointExtension xmlns:gpxtpx="http://www.garmin.com/xmlschemas/TrackPointExtension/v1">
            <gpxtpx:hr>122</gpxtpx:hr>
          </gpxtpx:TrackPointExtension>
        </extensions>
      </trkpt>
      <trkpt lat="46.11674" lon="6.26558">
        <ele>538.2</ele>
        <time>2021-03-02T12:22:31Z</time>
        <extensions>
          <gpxtpx:TrackPointExtension xmlns:gpxtpx="http://www.garmin.com/xmlschemas/TrackPointExtension/v1">
            <gpxtpx:hr>122</gpxtpx:hr>
          </gpxtpx:TrackPointExtension>
        </extensions>
      </trkpt>
      <trkpt lat="46.11672" lon="6.26563">
        <ele>538.5</ele>
        <time>2021-03-02T12:22:32Z</time>
        <extensions>
          <gpxtpx:TrackPointExtension xmlns:gpxtpx="http://www.garmin.com/xmlschemas/TrackPointExtension/v1">
            <gpxtpx:hr>121</gpxtpx:hr>
          </gpxtpx:TrackPointExtension>
        </extensions>
      </trkpt>
      <trkpt lat="46.11669" lon="6.26569">
        <ele>538.7</ele>
        <time>2021-03-02T12:22:33Z</time>
        <extensions>
          <gpxtpx:TrackPointExtension xmlns:gpxtpx="http://www.garmin.com/xmlschemas/TrackPointExtension/v1">
            <gpxtpx:hr>121</gpxtpx:hr>
          </gpxtpx:TrackPointExtension>
        </extensions>
      </trkpt>
      <trkpt lat="46.11667" lon="6.26573">
        <ele>539</ele>
        <time>2021-03-02T12:22:34Z</time>
        <extensions>
          <gpxtpx:TrackPointExtension xmlns:gpxtpx="http://www.garmin.com/xmlschemas/TrackPointExtension/v1">
            <gpxtpx:hr>121</gpxtpx:hr>
          </gpxtpx:TrackPointExtension>
        </extensions>
      </trkpt>
      <trkpt lat="46.11663" lon="6.26578">
        <ele>539.3</ele>
        <time>2021-03-02T12:22:35Z</time>
        <extensions>
          <gpxtpx:TrackPointExtension xmlns:gpxtpx="http://www.garmin.com/xmlschemas/TrackPointExtension/v1">
            <gpxtpx:hr>121</gpxtpx:hr>
          </gpxtpx:TrackPointExtension>
        </extensions>
      </trkpt>
      <trkpt lat="46.1166" lon="6.26583">
        <ele>539.5</ele>
        <time>2021-03-02T12:22:36Z</time>
        <extensions>
          <gpxtpx:TrackPointExtension xmlns:gpxtpx="http://www.garmin.com/xmlschemas/TrackPointExtension/v1">
            <gpxtpx:hr>121</gpxtpx:hr>
          </gpxtpx:TrackPointExtension>
        </extensions>
      </trkpt>
      <trkpt lat="46.11657" lon="6.26587">
        <ele>539.8</ele>
        <time>2021-03-02T12:22:37Z</time>
        <extensions>
          <gpxtpx:TrackPointExtension xmlns:gpxtpx="http://www.garmin.com/xmlschemas/TrackPointExtension/v1">
            <gpxtpx:hr>121</gpxtpx:hr>
          </gpxtpx:TrackPointExtension>
        </extensions>
      </trkpt>
      <trkpt lat="46.11653" lon="6.26591">
        <ele>540.1</ele>
        <time>2021-03-02T12:22:38Z</time>
        <extensions>
          <gpxtpx:TrackPointExtension xmlns:gpxtpx="http://www.garmin.com/xmlschemas/TrackPointExtension/v1">
            <gpxtpx:hr>121</gpxtpx:hr>
          </gpxtpx:TrackPointExtension>
        </extensions>
      </trkpt>
      <trkpt lat="46.1165" lon="6.26594">
        <ele>540.3</ele>
        <time>2021-03-02T12:22:39Z</time>
        <extensions>
          <gpxtpx:TrackPointExtension xmlns:gpxtpx="http://www.garmin.com/xmlschemas/TrackPointExtension/v1">
            <gpxtpx:hr>121</gpxtpx:hr>
          </gpxtpx:TrackPointExtension>
        </extensions>
      </trkpt>
      <trkpt lat="46.11646" lon="6.26597">
        <ele>540.6</ele>
        <time>2021-03-02T12:22:40Z</time>
        <extensions>
          <gpxtpx:TrackPointExtension xmlns:gpxtpx="http://www.garmin.com/xmlschemas/TrackPointExtension/v1">
            <gpxtpx:hr>121</gpxtpx:hr>
          </gpxtpx:TrackPointExtension>
        </extensions>
      </trkpt>
      <trkpt lat="46.11642" lon="6.266">
        <ele>541</ele>
        <time>2021-03-02T12:22:41Z</time>
        <extensions>
          <gpxtpx:TrackPointExtension xmlns:gpxtpx="http://www.garmin.com/xmlschemas/TrackPointExtension/v1">
            <gpxtpx:hr>121</gpxtpx:hr>
          </gpxtpx:TrackPointExtension>
        </extensions>
      </trkpt>
      <trkpt lat="46.11638" lon="6.26603">
        <ele>541.3</ele>
        <time>2021-03-02T12:22:42Z</time>
        <extensions>
          <gpxtpx:TrackPointExtension xmlns:gpxtpx="http://www.garmin.com/xmlschemas/TrackPointExtension/v1">
            <gpxtpx:hr>122</gpxtpx:hr>
          </gpxtpx:TrackPointExtension>
        </extensions>
      </trkpt>
      <trkpt lat="46.11634" lon="6.26605">
        <ele>541.6</ele>
        <time>2021-03-02T12:22:43Z</time>
        <extensions>
          <gpxtpx:TrackPointExtension xmlns:gpxtpx="http://www.garmin.com/xmlschemas/TrackPointExtension/v1">
            <gpxtpx:hr>122</gpxtpx:hr>
          </gpxtpx:TrackPointExtension>
        </extensions>
      </trkpt>
      <trkpt lat="46.1163" lon="6.26606">
        <ele>541.9</ele>
        <time>2021-03-02T12:22:44Z</time>
        <extensions>
          <gpxtpx:TrackPointExtension xmlns:gpxtpx="http://www.garmin.com/xmlschemas/TrackPointExtension/v1">
            <gpxtpx:hr>122</gpxtpx:hr>
          </gpxtpx:TrackPointExtension>
        </extensions>
      </trkpt>
      <trkpt lat="46.11626" lon="6.26608">
        <ele>542.2</ele>
        <time>2021-03-02T12:22:45Z</time>
        <extensions>
          <gpxtpx:TrackPointExtension xmlns:gpxtpx="http://www.garmin.com/xmlschemas/TrackPointExtension/v1">
            <gpxtpx:hr>122</gpxtpx:hr>
          </gpxtpx:TrackPointExtension>
        </extensions>
      </trkpt>
      <trkpt lat="46.11623" lon="6.26608">
        <ele>542.4</ele>
        <time>2021-03-02T12:22:46Z</time>
        <extensions>
          <gpxtpx:TrackPointExtension xmlns:gpxtpx="http://www.garmin.com/xmlschemas/TrackPointExtension/v1">
            <gpxtpx:hr>123</gpxtpx:hr>
          </gpxtpx:TrackPointExtension>
        </extensions>
      </trkpt>
      <trkpt lat="46.11619" lon="6.26609">
        <ele>542.6</ele>
        <time>2021-03-02T12:22:47Z</time>
        <extensions>
          <gpxtpx:TrackPointExtension xmlns:gpxtpx="http://www.garmin.com/xmlschemas/TrackPointExtension/v1">
            <gpxtpx:hr>123</gpxtpx:hr>
          </gpxtpx:TrackPointExtension>
        </extensions>
      </trkpt>
      <trkpt lat="46.11615" lon="6.26609">
        <ele>542.8</ele>
        <time>2021-03-02T12:22:48Z</time>
        <extensions>
          <gpxtpx:TrackPointExtension xmlns:gpxtpx="http://www.garmin.com/xmlschemas/TrackPointExtension/v1">
            <gpxtpx:hr>124</gpxtpx:hr>
          </gpxtpx:TrackPointExtension>
        </extensions>
      </trkpt>
      <trkpt lat="46.11611" lon="6.26609">
        <ele>542.8</ele>
        <time>2021-03-02T12:22:49Z</time>
        <extensions>
          <gpxtpx:TrackPointExtension xmlns:gpxtpx="http://www.garmin.com/xmlschemas/TrackPointExtension/v1">
            <gpxtpx:hr>124</gpxtpx:hr>
          </gpxtpx:TrackPointExtension>
        </extensions>
      </trkpt>
      <trkpt lat="46.11608" lon="6.26609">
        <ele>543</ele>
        <time>2021-03-02T12:22:50Z</time>
        <extensions>
          <gpxtpx:TrackPointExtension xmlns:gpxtpx="http://www.garmin.com/xmlschemas/TrackPointExtension/v1">
            <gpxtpx:hr>125</gpxtpx:hr>
          </gpxtpx:TrackPointExtension>
        </extensions>
      </trkpt>
      <trkpt lat="46.11604" lon="6.26609">
        <ele>543.2</ele>
        <time>2021-03-02T12:22:51Z</time>
        <extensions>
          <gpxtpx:TrackPointExtension xmlns:gpxtpx="http://www.garmin.com/xmlschemas/TrackPointExtension/v1">
            <gpxtpx:hr>125</gpxtpx:hr>
          </gpxtpx:TrackPointExtension>
        </extensions>
      </trkpt>
      <trkpt lat="46.116" lon="6.26609">
        <ele>543.4</ele>
        <time>2021-03-02T12:22:52Z</time>
        <extensions>
          <gpxtpx:TrackPointExtension xmlns:gpxtpx="http://www.garmin.com/xmlschemas/TrackPointExtension/v1">
            <gpxtpx:hr>126</gpxtpx:hr>
          </gpxtpx:TrackPointExtension>
        </extensions>
      </trkpt>
      <trkpt lat="46.11596" lon="6.26608">
        <ele>543.5</ele>
        <time>2021-03-02T12:22:53Z</time>
        <extensions>
          <gpxtpx:TrackPointExtension xmlns:gpxtpx="http://www.garmin.com/xmlschemas/TrackPointExtension/v1">
            <gpxtpx:hr>126</gpxtpx:hr>
          </gpxtpx:TrackPointExtension>
        </extensions>
      </trkpt>
      <trkpt lat="46.11592" lon="6.26607">
        <ele>543.7</ele>
        <time>2021-03-02T12:22:54Z</time>
        <extensions>
          <gpxtpx:TrackPointExtension xmlns:gpxtpx="http://www.garmin.com/xmlschemas/TrackPointExtension/v1">
            <gpxtpx:hr>127</gpxtpx:hr>
          </gpxtpx:TrackPointExtension>
        </extensions>
      </trkpt>
      <trkpt lat="46.11588" lon="6.26605">
        <ele>543.9</ele>
        <time>2021-03-02T12:22:55Z</time>
        <extensions>
          <gpxtpx:TrackPointExtension xmlns:gpxtpx="http://www.garmin.com/xmlschemas/TrackPointExtension/v1">
            <gpxtpx:hr>127</gpxtpx:hr>
          </gpxtpx:TrackPointExtension>
        </extensions>
      </trkpt>
      <trkpt lat="46.11584" lon="6.26603">
        <ele>544.1</ele>
        <time>2021-03-02T12:22:56Z</time>
        <extensions>
          <gpxtpx:TrackPointExtension xmlns:gpxtpx="http://www.garmin.com/xmlschemas/TrackPointExtension/v1">
            <gpxtpx:hr>128</gpxtpx:hr>
          </gpxtpx:TrackPointExtension>
        </extensions>
      </trkpt>
      <trkpt lat="46.1158" lon="6.266">
        <ele>544.3</ele>
        <time>2021-03-02T12:22:57Z</time>
        <extensions>
          <gpxtpx:TrackPointExtension xmlns:gpxtpx="http://www.garmin.com/xmlschemas/TrackPointExtension/v1">
            <gpxtpx:hr>128</gpxtpx:hr>
          </gpxtpx:TrackPointExtension>
        </extensions>
      </trkpt>
      <trkpt lat="46.11576" lon="6.26597">
        <ele>544.4</ele>
        <time>2021-03-02T12:22:58Z</time>
        <extensions>
          <gpxtpx:TrackPointExtension xmlns:gpxtpx="http://www.garmin.com/xmlschemas/TrackPointExtension/v1">
            <gpxtpx:hr>129</gpxtpx:hr>
          </gpxtpx:TrackPointExtension>
        </extensions>
      </trkpt>
      <trkpt lat="46.11573" lon="6.26595">
        <ele>544.6</ele>
        <time>2021-03-02T12:22:59Z</time>
        <extensions>
          <gpxtpx:TrackPointExtension xmlns:gpxtpx="http://www.garmin.com/xmlschemas/TrackPointExtension/v1">
            <gpxtpx:hr>129</gpxtpx:hr>
          </gpxtpx:TrackPointExtension>
        </extensions>
      </trkpt>
      <trkpt lat="46.1157" lon="6.26591">
        <ele>544.8</ele>
        <time>2021-03-02T12:23:00Z</time>
        <extensions>
          <gpxtpx:TrackPointExtension xmlns:gpxtpx="http://www.garmin.com/xmlschemas/TrackPointExtension/v1">
            <gpxtpx:hr>130</gpxtpx:hr>
          </gpxtpx:TrackPointExtension>
        </extensions>
      </trkpt>
      <trkpt lat="46.11567" lon="6.26587">
        <ele>544.9</ele>
        <time>2021-03-02T12:23:01Z</time>
        <extensions>
          <gpxtpx:TrackPointExtension xmlns:gpxtpx="http://www.garmin.com/xmlschemas/TrackPointExtension/v1">
            <gpxtpx:hr>130</gpxtpx:hr>
          </gpxtpx:TrackPointExtension>
        </extensions>
      </trkpt>
      <trkpt lat="46.11565" lon="6.26583">
        <ele>545.1</ele>
        <time>2021-03-02T12:23:02Z</time>
        <extensions>
          <gpxtpx:TrackPointExtension xmlns:gpxtpx="http://www.garmin.com/xmlschemas/TrackPointExtension/v1">
            <gpxtpx:hr>131</gpxtpx:hr>
          </gpxtpx:TrackPointExtension>
        </extensions>
      </trkpt>
      <trkpt lat="46.11562" lon="6.26579">
        <ele>545.2</ele>
        <time>2021-03-02T12:23:03Z</time>
        <extensions>
          <gpxtpx:TrackPointExtension xmlns:gpxtpx="http://www.garmin.com/xmlschemas/TrackPointExtension/v1">
            <gpxtpx:hr>132</gpxtpx:hr>
          </gpxtpx:TrackPointExtension>
        </extensions>
      </trkpt>
      <trkpt lat="46.11559" lon="6.26575">
        <ele>545.4</ele>
        <time>2021-03-02T12:23:04Z</time>
        <extensions>
          <gpxtpx:TrackPointExtension xmlns:gpxtpx="http://www.garmin.com/xmlschemas/TrackPointExtension/v1">
            <gpxtpx:hr>132</gpxtpx:hr>
          </gpxtpx:TrackPointExtension>
        </extensions>
      </trkpt>
      <trkpt lat="46.11557" lon="6.26571">
        <ele>545.6</ele>
        <time>2021-03-02T12:23:05Z</time>
        <extensions>
          <gpxtpx:TrackPointExtension xmlns:gpxtpx="http://www.garmin.com/xmlschemas/TrackPointExtension/v1">
            <gpxtpx:hr>133</gpxtpx:hr>
          </gpxtpx:TrackPointExtension>
        </extensions>
      </trkpt>
      <trkpt lat="46.11555" lon="6.26568">
        <ele>545.7</ele>
        <time>2021-03-02T12:23:06Z</time>
        <extensions>
          <gpxtpx:TrackPointExtension xmlns:gpxtpx="http://www.garmin.com/xmlschemas/TrackPointExtension/v1">
            <gpxtpx:hr>133</gpxtpx:hr>
          </gpxtpx:TrackPointExtension>
        </extensions>
      </trkpt>
      <trkpt lat="46.11553" lon="6.26563">
        <ele>545.9</ele>
        <time>2021-03-02T12:23:07Z</time>
        <extensions>
          <gpxtpx:TrackPointExtension xmlns:gpxtpx="http://www.garmin.com/xmlschemas/TrackPointExtension/v1">
            <gpxtpx:hr>134</gpxtpx:hr>
          </gpxtpx:TrackPointExtension>
        </extensions>
      </trkpt>
      <trkpt lat="46.1155" lon="6.2656">
        <ele>546.1</ele>
        <time>2021-03-02T12:23:08Z</time>
        <extensions>
          <gpxtpx:TrackPointExtension xmlns:gpxtpx="http://www.garmin.com/xmlschemas/TrackPointExtension/v1">
            <gpxtpx:hr>134</gpxtpx:hr>
          </gpxtpx:TrackPointExtension>
        </extensions>
      </trkpt>
      <trkpt lat="46.11547" lon="6.26556">
        <ele>546.3</ele>
        <time>2021-03-02T12:23:09Z</time>
        <extensions>
          <gpxtpx:TrackPointExtension xmlns:gpxtpx="http://www.garmin.com/xmlschemas/TrackPointExtension/v1">
            <gpxtpx:hr>135</gpxtpx:hr>
          </gpxtpx:TrackPointExtension>
        </extensions>
      </trkpt>
      <trkpt lat="46.11545" lon="6.26552">
        <ele>546.5</ele>
        <time>2021-03-02T12:23:10Z</time>
        <extensions>
          <gpxtpx:TrackPointExtension xmlns:gpxtpx="http://www.garmin.com/xmlschemas/TrackPointExtension/v1">
            <gpxtpx:hr>135</gpxtpx:hr>
          </gpxtpx:TrackPointExtension>
        </extensions>
      </trkpt>
      <trkpt lat="46.11543" lon="6.26548">
        <ele>546.7</ele>
        <time>2021-03-02T12:23:11Z</time>
        <extensions>
          <gpxtpx:TrackPointExtension xmlns:gpxtpx="http://www.garmin.com/xmlschemas/TrackPointExtension/v1">
            <gpxtpx:hr>135</gpxtpx:hr>
          </gpxtpx:TrackPointExtension>
        </extensions>
      </trkpt>
      <trkpt lat="46.11541" lon="6.26544">
        <ele>546.9</ele>
        <time>2021-03-02T12:23:12Z</time>
        <extensions>
          <gpxtpx:TrackPointExtension xmlns:gpxtpx="http://www.garmin.com/xmlschemas/TrackPointExtension/v1">
            <gpxtpx:hr>136</gpxtpx:hr>
          </gpxtpx:TrackPointExtension>
        </extensions>
      </trkpt>
      <trkpt lat="46.11538" lon="6.2654">
        <ele>547.1</ele>
        <time>2021-03-02T12:23:13Z</time>
        <extensions>
          <gpxtpx:TrackPointExtension xmlns:gpxtpx="http://www.garmin.com/xmlschemas/TrackPointExtension/v1">
            <gpxtpx:hr>136</gpxtpx:hr>
          </gpxtpx:TrackPointExtension>
        </extensions>
      </trkpt>
      <trkpt lat="46.11536" lon="6.26537">
        <ele>547.4</ele>
        <time>2021-03-02T12:23:14Z</time>
        <extensions>
          <gpxtpx:TrackPointExtension xmlns:gpxtpx="http://www.garmin.com/xmlschemas/TrackPointExtension/v1">
            <gpxtpx:hr>136</gpxtpx:hr>
          </gpxtpx:TrackPointExtension>
        </extensions>
      </trkpt>
      <trkpt lat="46.11534" lon="6.26533">
        <ele>547.6</ele>
        <time>2021-03-02T12:23:15Z</time>
        <extensions>
          <gpxtpx:TrackPointExtension xmlns:gpxtpx="http://www.garmin.com/xmlschemas/TrackPointExtension/v1">
            <gpxtpx:hr>136</gpxtpx:hr>
          </gpxtpx:TrackPointExtension>
        </extensions>
      </trkpt>
      <trkpt lat="46.11531" lon="6.2653">
        <ele>547.8</ele>
        <time>2021-03-02T12:23:16Z</time>
        <extensions>
          <gpxtpx:TrackPointExtension xmlns:gpxtpx="http://www.garmin.com/xmlschemas/TrackPointExtension/v1">
            <gpxtpx:hr>137</gpxtpx:hr>
          </gpxtpx:TrackPointExtension>
        </extensions>
      </trkpt>
      <trkpt lat="46.11529" lon="6.26526">
        <ele>548</ele>
        <time>2021-03-02T12:23:17Z</time>
        <extensions>
          <gpxtpx:TrackPointExtension xmlns:gpxtpx="http://www.garmin.com/xmlschemas/TrackPointExtension/v1">
            <gpxtpx:hr>137</gpxtpx:hr>
          </gpxtpx:TrackPointExtension>
        </extensions>
      </trkpt>
      <trkpt lat="46.11526" lon="6.26523">
        <ele>548.3</ele>
        <time>2021-03-02T12:23:18Z</time>
        <extensions>
          <gpxtpx:TrackPointExtension xmlns:gpxtpx="http://www.garmin.com/xmlschemas/TrackPointExtension/v1">
            <gpxtpx:hr>138</gpxtpx:hr>
          </gpxtpx:TrackPointExtension>
        </extensions>
      </trkpt>
      <trkpt lat="46.11524" lon="6.26519">
        <ele>548.5</ele>
        <time>2021-03-02T12:23:19Z</time>
        <extensions>
          <gpxtpx:TrackPointExtension xmlns:gpxtpx="http://www.garmin.com/xmlschemas/TrackPointExtension/v1">
            <gpxtpx:hr>138</gpxtpx:hr>
          </gpxtpx:TrackPointExtension>
        </extensions>
      </trkpt>
      <trkpt lat="46.11522" lon="6.26516">
        <ele>548.8</ele>
        <time>2021-03-02T12:23:20Z</time>
        <extensions>
          <gpxtpx:TrackPointExtension xmlns:gpxtpx="http://www.garmin.com/xmlschemas/TrackPointExtension/v1">
            <gpxtpx:hr>138</gpxtpx:hr>
          </gpxtpx:TrackPointExtension>
        </extensions>
      </trkpt>
      <trkpt lat="46.11519" lon="6.26512">
        <ele>549.1</ele>
        <time>2021-03-02T12:23:21Z</time>
        <extensions>
          <gpxtpx:TrackPointExtension xmlns:gpxtpx="http://www.garmin.com/xmlschemas/TrackPointExtension/v1">
            <gpxtpx:hr>138</gpxtpx:hr>
          </gpxtpx:TrackPointExtension>
        </extensions>
      </trkpt>
      <trkpt lat="46.11517" lon="6.26509">
        <ele>549.4</ele>
        <time>2021-03-02T12:23:22Z</time>
        <extensions>
          <gpxtpx:TrackPointExtension xmlns:gpxtpx="http://www.garmin.com/xmlschemas/TrackPointExtension/v1">
            <gpxtpx:hr>139</gpxtpx:hr>
          </gpxtpx:TrackPointExtension>
        </extensions>
      </trkpt>
      <trkpt lat="46.11514" lon="6.26506">
        <ele>549.7</ele>
        <time>2021-03-02T12:23:23Z</time>
        <extensions>
          <gpxtpx:TrackPointExtension xmlns:gpxtpx="http://www.garmin.com/xmlschemas/TrackPointExtension/v1">
            <gpxtpx:hr>139</gpxtpx:hr>
          </gpxtpx:TrackPointExtension>
        </extensions>
      </trkpt>
      <trkpt lat="46.11512" lon="6.26503">
        <ele>549.9</ele>
        <time>2021-03-02T12:23:24Z</time>
        <extensions>
          <gpxtpx:TrackPointExtension xmlns:gpxtpx="http://www.garmin.com/xmlschemas/TrackPointExtension/v1">
            <gpxtpx:hr>140</gpxtpx:hr>
          </gpxtpx:TrackPointExtension>
        </extensions>
      </trkpt>
      <trkpt lat="46.1151" lon="6.265">
        <ele>550.2</ele>
        <time>2021-03-02T12:23:25Z</time>
        <extensions>
          <gpxtpx:TrackPointExtension xmlns:gpxtpx="http://www.garmin.com/xmlschemas/TrackPointExtension/v1">
            <gpxtpx:hr>140</gpxtpx:hr>
          </gpxtpx:TrackPointExtension>
        </extensions>
      </trkpt>
      <trkpt lat="46.11507" lon="6.26497">
        <ele>550.5</ele>
        <time>2021-03-02T12:23:26Z</time>
        <extensions>
          <gpxtpx:TrackPointExtension xmlns:gpxtpx="http://www.garmin.com/xmlschemas/TrackPointExtension/v1">
            <gpxtpx:hr>140</gpxtpx:hr>
          </gpxtpx:TrackPointExtension>
        </extensions>
      </trkpt>
      <trkpt lat="46.11505" lon="6.26495">
        <ele>550.8</ele>
        <time>2021-03-02T12:23:27Z</time>
        <extensions>
          <gpxtpx:TrackPointExtension xmlns:gpxtpx="http://www.garmin.com/xmlschemas/TrackPointExtension/v1">
            <gpxtpx:hr>141</gpxtpx:hr>
          </gpxtpx:TrackPointExtension>
        </extensions>
      </trkpt>
      <trkpt lat="46.11502" lon="6.26493">
        <ele>551.1</ele>
        <time>2021-03-02T12:23:28Z</time>
        <extensions>
          <gpxtpx:TrackPointExtension xmlns:gpxtpx="http://www.garmin.com/xmlschemas/TrackPointExtension/v1">
            <gpxtpx:hr>141</gpxtpx:hr>
          </gpxtpx:TrackPointExtension>
        </extensions>
      </trkpt>
      <trkpt lat="46.115" lon="6.26491">
        <ele>551.4</ele>
        <time>2021-03-02T12:23:29Z</time>
        <extensions>
          <gpxtpx:TrackPointExtension xmlns:gpxtpx="http://www.garmin.com/xmlschemas/TrackPointExtension/v1">
            <gpxtpx:hr>142</gpxtpx:hr>
          </gpxtpx:TrackPointExtension>
        </extensions>
      </trkpt>
      <trkpt lat="46.11497" lon="6.26489">
        <ele>551.7</ele>
        <time>2021-03-02T12:23:30Z</time>
        <extensions>
          <gpxtpx:TrackPointExtension xmlns:gpxtpx="http://www.garmin.com/xmlschemas/TrackPointExtension/v1">
            <gpxtpx:hr>142</gpxtpx:hr>
          </gpxtpx:TrackPointExtension>
        </extensions>
      </trkpt>
      <trkpt lat="46.11495" lon="6.26488">
        <ele>552</ele>
        <time>2021-03-02T12:23:31Z</time>
        <extensions>
          <gpxtpx:TrackPointExtension xmlns:gpxtpx="http://www.garmin.com/xmlschemas/TrackPointExtension/v1">
            <gpxtpx:hr>143</gpxtpx:hr>
          </gpxtpx:TrackPointExtension>
        </extensions>
      </trkpt>
      <trkpt lat="46.11492" lon="6.26486">
        <ele>552.3</ele>
        <time>2021-03-02T12:23:32Z</time>
        <extensions>
          <gpxtpx:TrackPointExtension xmlns:gpxtpx="http://www.garmin.com/xmlschemas/TrackPointExtension/v1">
            <gpxtpx:hr>143</gpxtpx:hr>
          </gpxtpx:TrackPointExtension>
        </extensions>
      </trkpt>
      <trkpt lat="46.1149" lon="6.26485">
        <ele>552.6</ele>
        <time>2021-03-02T12:23:33Z</time>
        <extensions>
          <gpxtpx:TrackPointExtension xmlns:gpxtpx="http://www.garmin.com/xmlschemas/TrackPointExtension/v1">
            <gpxtpx:hr>143</gpxtpx:hr>
          </gpxtpx:TrackPointExtension>
        </extensions>
      </trkpt>
      <trkpt lat="46.11487" lon="6.26483">
        <ele>552.9</ele>
        <time>2021-03-02T12:23:34Z</time>
        <extensions>
          <gpxtpx:TrackPointExtension xmlns:gpxtpx="http://www.garmin.com/xmlschemas/TrackPointExtension/v1">
            <gpxtpx:hr>143</gpxtpx:hr>
          </gpxtpx:TrackPointExtension>
        </extensions>
      </trkpt>
      <trkpt lat="46.11485" lon="6.26481">
        <ele>553.3</ele>
        <time>2021-03-02T12:23:35Z</time>
        <extensions>
          <gpxtpx:TrackPointExtension xmlns:gpxtpx="http://www.garmin.com/xmlschemas/TrackPointExtension/v1">
            <gpxtpx:hr>144</gpxtpx:hr>
          </gpxtpx:TrackPointExtension>
        </extensions>
      </trkpt>
      <trkpt lat="46.11483" lon="6.2648">
        <ele>553.5</ele>
        <time>2021-03-02T12:23:36Z</time>
        <extensions>
          <gpxtpx:TrackPointExtension xmlns:gpxtpx="http://www.garmin.com/xmlschemas/TrackPointExtension/v1">
            <gpxtpx:hr>144</gpxtpx:hr>
          </gpxtpx:TrackPointExtension>
        </extensions>
      </trkpt>
      <trkpt lat="46.1148" lon="6.26478">
        <ele>553.9</ele>
        <time>2021-03-02T12:23:37Z</time>
        <extensions>
          <gpxtpx:TrackPointExtension xmlns:gpxtpx="http://www.garmin.com/xmlschemas/TrackPointExtension/v1">
            <gpxtpx:hr>144</gpxtpx:hr>
          </gpxtpx:TrackPointExtension>
        </extensions>
      </trkpt>
      <trkpt lat="46.11478" lon="6.26476">
        <ele>554.2</ele>
        <time>2021-03-02T12:23:38Z</time>
        <extensions>
          <gpxtpx:TrackPointExtension xmlns:gpxtpx="http://www.garmin.com/xmlschemas/TrackPointExtension/v1">
            <gpxtpx:hr>144</gpxtpx:hr>
          </gpxtpx:TrackPointExtension>
        </extensions>
      </trkpt>
      <trkpt lat="46.11476" lon="6.26473">
        <ele>554.5</ele>
        <time>2021-03-02T12:23:39Z</time>
        <extensions>
          <gpxtpx:TrackPointExtension xmlns:gpxtpx="http://www.garmin.com/xmlschemas/TrackPointExtension/v1">
            <gpxtpx:hr>144</gpxtpx:hr>
          </gpxtpx:TrackPointExtension>
        </extensions>
      </trkpt>
      <trkpt lat="46.11474" lon="6.26471">
        <ele>554.8</ele>
        <time>2021-03-02T12:23:40Z</time>
        <extensions>
          <gpxtpx:TrackPointExtension xmlns:gpxtpx="http://www.garmin.com/xmlschemas/TrackPointExtension/v1">
            <gpxtpx:hr>144</gpxtpx:hr>
          </gpxtpx:TrackPointExtension>
        </extensions>
      </trkpt>
      <trkpt lat="46.11472" lon="6.26469">
        <ele>555.1</ele>
        <time>2021-03-02T12:23:41Z</time>
        <extensions>
          <gpxtpx:TrackPointExtension xmlns:gpxtpx="http://www.garmin.com/xmlschemas/TrackPointExtension/v1">
            <gpxtpx:hr>145</gpxtpx:hr>
          </gpxtpx:TrackPointExtension>
        </extensions>
      </trkpt>
      <trkpt lat="46.1147" lon="6.26466">
        <ele>555.5</ele>
        <time>2021-03-02T12:23:42Z</time>
        <extensions>
          <gpxtpx:TrackPointExtension xmlns:gpxtpx="http://www.garmin.com/xmlschemas/TrackPointExtension/v1">
            <gpxtpx:hr>145</gpxtpx:hr>
          </gpxtpx:TrackPointExtension>
        </extensions>
      </trkpt>
      <trkpt lat="46.11468" lon="6.26464">
        <ele>555.8</ele>
        <time>2021-03-02T12:23:43Z</time>
        <extensions>
          <gpxtpx:TrackPointExtension xmlns:gpxtpx="http://www.garmin.com/xmlschemas/TrackPointExtension/v1">
            <gpxtpx:hr>144</gpxtpx:hr>
          </gpxtpx:TrackPointExtension>
        </extensions>
      </trkpt>
      <trkpt lat="46.11466" lon="6.26461">
        <ele>556.2</ele>
        <time>2021-03-02T12:23:44Z</time>
        <extensions>
          <gpxtpx:TrackPointExtension xmlns:gpxtpx="http://www.garmin.com/xmlschemas/TrackPointExtension/v1">
            <gpxtpx:hr>145</gpxtpx:hr>
          </gpxtpx:TrackPointExtension>
        </extensions>
      </trkpt>
      <trkpt lat="46.11464" lon="6.26459">
        <ele>556.5</ele>
        <time>2021-03-02T12:23:45Z</time>
        <extensions>
          <gpxtpx:TrackPointExtension xmlns:gpxtpx="http://www.garmin.com/xmlschemas/TrackPointExtension/v1">
            <gpxtpx:hr>145</gpxtpx:hr>
          </gpxtpx:TrackPointExtension>
        </extensions>
      </trkpt>
      <trkpt lat="46.11462" lon="6.26456">
        <ele>556.8</ele>
        <time>2021-03-02T12:23:46Z</time>
        <extensions>
          <gpxtpx:TrackPointExtension xmlns:gpxtpx="http://www.garmin.com/xmlschemas/TrackPointExtension/v1">
            <gpxtpx:hr>145</gpxtpx:hr>
          </gpxtpx:TrackPointExtension>
        </extensions>
      </trkpt>
      <trkpt lat="46.1146" lon="6.26454">
        <ele>557.2</ele>
        <time>2021-03-02T12:23:47Z</time>
        <extensions>
          <gpxtpx:TrackPointExtension xmlns:gpxtpx="http://www.garmin.com/xmlschemas/TrackPointExtension/v1">
            <gpxtpx:hr>145</gpxtpx:hr>
          </gpxtpx:TrackPointExtension>
        </extensions>
      </trkpt>
      <trkpt lat="46.11459" lon="6.26452">
        <ele>557.6</ele>
        <time>2021-03-02T12:23:48Z</time>
        <extensions>
          <gpxtpx:TrackPointExtension xmlns:gpxtpx="http://www.garmin.com/xmlschemas/TrackPointExtension/v1">
            <gpxtpx:hr>145</gpxtpx:hr>
          </gpxtpx:TrackPointExtension>
        </extensions>
      </trkpt>
      <trkpt lat="46.11457" lon="6.26449">
        <ele>557.9</ele>
        <time>2021-03-02T12:23:49Z</time>
        <extensions>
          <gpxtpx:TrackPointExtension xmlns:gpxtpx="http://www.garmin.com/xmlschemas/TrackPointExtension/v1">
            <gpxtpx:hr>145</gpxtpx:hr>
          </gpxtpx:TrackPointExtension>
        </extensions>
      </trkpt>
      <trkpt lat="46.11455" lon="6.26447">
        <ele>558.2</ele>
        <time>2021-03-02T12:23:50Z</time>
        <extensions>
          <gpxtpx:TrackPointExtension xmlns:gpxtpx="http://www.garmin.com/xmlschemas/TrackPointExtension/v1">
            <gpxtpx:hr>145</gpxtpx:hr>
          </gpxtpx:TrackPointExtension>
        </extensions>
      </trkpt>
      <trkpt lat="46.11453" lon="6.26445">
        <ele>558.6</ele>
        <time>2021-03-02T12:23:51Z</time>
        <extensions>
          <gpxtpx:TrackPointExtension xmlns:gpxtpx="http://www.garmin.com/xmlschemas/TrackPointExtension/v1">
            <gpxtpx:hr>145</gpxtpx:hr>
          </gpxtpx:TrackPointExtension>
        </extensions>
      </trkpt>
      <trkpt lat="46.11451" lon="6.26443">
        <ele>558.9</ele>
        <time>2021-03-02T12:23:52Z</time>
        <extensions>
          <gpxtpx:TrackPointExtension xmlns:gpxtpx="http://www.garmin.com/xmlschemas/TrackPointExtension/v1">
            <gpxtpx:hr>145</gpxtpx:hr>
          </gpxtpx:TrackPointExtension>
        </extensions>
      </trkpt>
      <trkpt lat="46.11449" lon="6.26441">
        <ele>559.3</ele>
        <time>2021-03-02T12:23:53Z</time>
        <extensions>
          <gpxtpx:TrackPointExtension xmlns:gpxtpx="http://www.garmin.com/xmlschemas/TrackPointExtension/v1">
            <gpxtpx:hr>146</gpxtpx:hr>
          </gpxtpx:TrackPointExtension>
        </extensions>
      </trkpt>
      <trkpt lat="46.11448" lon="6.26439">
        <ele>559.6</ele>
        <time>2021-03-02T12:23:54Z</time>
        <extensions>
          <gpxtpx:TrackPointExtension xmlns:gpxtpx="http://www.garmin.com/xmlschemas/TrackPointExtension/v1">
            <gpxtpx:hr>146</gpxtpx:hr>
          </gpxtpx:TrackPointExtension>
        </extensions>
      </trkpt>
      <trkpt lat="46.11446" lon="6.26438">
        <ele>559.8</ele>
        <time>2021-03-02T12:23:55Z</time>
        <extensions>
          <gpxtpx:TrackPointExtension xmlns:gpxtpx="http://www.garmin.com/xmlschemas/TrackPointExtension/v1">
            <gpxtpx:hr>147</gpxtpx:hr>
          </gpxtpx:TrackPointExtension>
        </extensions>
      </trkpt>
      <trkpt lat="46.11445" lon="6.26436">
        <ele>560</ele>
        <time>2021-03-02T12:23:56Z</time>
        <extensions>
          <gpxtpx:TrackPointExtension xmlns:gpxtpx="http://www.garmin.com/xmlschemas/TrackPointExtension/v1">
            <gpxtpx:hr>147</gpxtpx:hr>
          </gpxtpx:TrackPointExtension>
        </extensions>
      </trkpt>
      <trkpt lat="46.11444" lon="6.26435">
        <ele>560.2</ele>
        <time>2021-03-02T12:23:57Z</time>
        <extensions>
          <gpxtpx:TrackPointExtension xmlns:gpxtpx="http://www.garmin.com/xmlschemas/TrackPointExtension/v1">
            <gpxtpx:hr>148</gpxtpx:hr>
          </gpxtpx:TrackPointExtension>
        </extensions>
      </trkpt>
      <trkpt lat="46.11442" lon="6.26434">
        <ele>560.5</ele>
        <time>2021-03-02T12:23:58Z</time>
        <extensions>
          <gpxtpx:TrackPointExtension xmlns:gpxtpx="http://www.garmin.com/xmlschemas/TrackPointExtension/v1">
            <gpxtpx:hr>148</gpxtpx:hr>
          </gpxtpx:TrackPointExtension>
        </extensions>
      </trkpt>
      <trkpt lat="46.11441" lon="6.26432">
        <ele>560.8</ele>
        <time>2021-03-02T12:23:59Z</time>
        <extensions>
          <gpxtpx:TrackPointExtension xmlns:gpxtpx="http://www.garmin.com/xmlschemas/TrackPointExtension/v1">
            <gpxtpx:hr>148</gpxtpx:hr>
          </gpxtpx:TrackPointExtension>
        </extensions>
      </trkpt>
      <trkpt lat="46.11439" lon="6.2643">
        <ele>561.1</ele>
        <time>2021-03-02T12:24:00Z</time>
        <extensions>
          <gpxtpx:TrackPointExtension xmlns:gpxtpx="http://www.garmin.com/xmlschemas/TrackPointExtension/v1">
            <gpxtpx:hr>148</gpxtpx:hr>
          </gpxtpx:TrackPointExtension>
        </extensions>
      </trkpt>
      <trkpt lat="46.11437" lon="6.26428">
        <ele>561.4</ele>
        <time>2021-03-02T12:24:01Z</time>
        <extensions>
          <gpxtpx:TrackPointExtension xmlns:gpxtpx="http://www.garmin.com/xmlschemas/TrackPointExtension/v1">
            <gpxtpx:hr>148</gpxtpx:hr>
          </gpxtpx:TrackPointExtension>
        </extensions>
      </trkpt>
      <trkpt lat="46.11435" lon="6.26428">
        <ele>561.6</ele>
        <time>2021-03-02T12:24:02Z</time>
        <extensions>
          <gpxtpx:TrackPointExtension xmlns:gpxtpx="http://www.garmin.com/xmlschemas/TrackPointExtension/v1">
            <gpxtpx:hr>148</gpxtpx:hr>
          </gpxtpx:TrackPointExtension>
        </extensions>
      </trkpt>
      <trkpt lat="46.11433" lon="6.26426">
        <ele>561.9</ele>
        <time>2021-03-02T12:24:03Z</time>
        <extensions>
          <gpxtpx:TrackPointExtension xmlns:gpxtpx="http://www.garmin.com/xmlschemas/TrackPointExtension/v1">
            <gpxtpx:hr>148</gpxtpx:hr>
          </gpxtpx:TrackPointExtension>
        </extensions>
      </trkpt>
      <trkpt lat="46.11432" lon="6.26424">
        <ele>562.1</ele>
        <time>2021-03-02T12:24:04Z</time>
        <extensions>
          <gpxtpx:TrackPointExtension xmlns:gpxtpx="http://www.garmin.com/xmlschemas/TrackPointExtension/v1">
            <gpxtpx:hr>148</gpxtpx:hr>
          </gpxtpx:TrackPointExtension>
        </extensions>
      </trkpt>
      <trkpt lat="46.1143" lon="6.26423">
        <ele>562.4</ele>
        <time>2021-03-02T12:24:05Z</time>
        <extensions>
          <gpxtpx:TrackPointExtension xmlns:gpxtpx="http://www.garmin.com/xmlschemas/TrackPointExtension/v1">
            <gpxtpx:hr>148</gpxtpx:hr>
          </gpxtpx:TrackPointExtension>
        </extensions>
      </trkpt>
      <trkpt lat="46.11428" lon="6.26421">
        <ele>562.7</ele>
        <time>2021-03-02T12:24:06Z</time>
        <extensions>
          <gpxtpx:TrackPointExtension xmlns:gpxtpx="http://www.garmin.com/xmlschemas/TrackPointExtension/v1">
            <gpxtpx:hr>147</gpxtpx:hr>
          </gpxtpx:TrackPointExtension>
        </extensions>
      </trkpt>
      <trkpt lat="46.11426" lon="6.26419">
        <ele>562.9</ele>
        <time>2021-03-02T12:24:07Z</time>
        <extensions>
          <gpxtpx:TrackPointExtension xmlns:gpxtpx="http://www.garmin.com/xmlschemas/TrackPointExtension/v1">
            <gpxtpx:hr>147</gpxtpx:hr>
          </gpxtpx:TrackPointExtension>
        </extensions>
      </trkpt>
      <trkpt lat="46.11424" lon="6.26418">
        <ele>563.2</ele>
        <time>2021-03-02T12:24:08Z</time>
        <extensions>
          <gpxtpx:TrackPointExtension xmlns:gpxtpx="http://www.garmin.com/xmlschemas/TrackPointExtension/v1">
            <gpxtpx:hr>146</gpxtpx:hr>
          </gpxtpx:TrackPointExtension>
        </extensions>
      </trkpt>
      <trkpt lat="46.11422" lon="6.26416">
        <ele>563.4</ele>
        <time>2021-03-02T12:24:09Z</time>
        <extensions>
          <gpxtpx:TrackPointExtension xmlns:gpxtpx="http://www.garmin.com/xmlschemas/TrackPointExtension/v1">
            <gpxtpx:hr>146</gpxtpx:hr>
          </gpxtpx:TrackPointExtension>
        </extensions>
      </trkpt>
      <trkpt lat="46.11419" lon="6.26415">
        <ele>563.7</ele>
        <time>2021-03-02T12:24:10Z</time>
        <extensions>
          <gpxtpx:TrackPointExtension xmlns:gpxtpx="http://www.garmin.com/xmlschemas/TrackPointExtension/v1">
            <gpxtpx:hr>146</gpxtpx:hr>
          </gpxtpx:TrackPointExtension>
        </extensions>
      </trkpt>
      <trkpt lat="46.11416" lon="6.26413">
        <ele>563.9</ele>
        <time>2021-03-02T12:24:11Z</time>
        <extensions>
          <gpxtpx:TrackPointExtension xmlns:gpxtpx="http://www.garmin.com/xmlschemas/TrackPointExtension/v1">
            <gpxtpx:hr>146</gpxtpx:hr>
          </gpxtpx:TrackPointExtension>
        </extensions>
      </trkpt>
      <trkpt lat="46.11414" lon="6.26411">
        <ele>564.2</ele>
        <time>2021-03-02T12:24:12Z</time>
        <extensions>
          <gpxtpx:TrackPointExtension xmlns:gpxtpx="http://www.garmin.com/xmlschemas/TrackPointExtension/v1">
            <gpxtpx:hr>147</gpxtpx:hr>
          </gpxtpx:TrackPointExtension>
        </extensions>
      </trkpt>
      <trkpt lat="46.11411" lon="6.26409">
        <ele>564.5</ele>
        <time>2021-03-02T12:24:13Z</time>
        <extensions>
          <gpxtpx:TrackPointExtension xmlns:gpxtpx="http://www.garmin.com/xmlschemas/TrackPointExtension/v1">
            <gpxtpx:hr>147</gpxtpx:hr>
          </gpxtpx:TrackPointExtension>
        </extensions>
      </trkpt>
      <trkpt lat="46.11409" lon="6.26407">
        <ele>564.7</ele>
        <time>2021-03-02T12:24:14Z</time>
        <extensions>
          <gpxtpx:TrackPointExtension xmlns:gpxtpx="http://www.garmin.com/xmlschemas/TrackPointExtension/v1">
            <gpxtpx:hr>147</gpxtpx:hr>
          </gpxtpx:TrackPointExtension>
        </extensions>
      </trkpt>
      <trkpt lat="46.11406" lon="6.26406">
        <ele>565</ele>
        <time>2021-03-02T12:24:15Z</time>
        <extensions>
          <gpxtpx:TrackPointExtension xmlns:gpxtpx="http://www.garmin.com/xmlschemas/TrackPointExtension/v1">
            <gpxtpx:hr>148</gpxtpx:hr>
          </gpxtpx:TrackPointExtension>
        </extensions>
      </trkpt>
      <trkpt lat="46.11404" lon="6.26404">
        <ele>565.2</ele>
        <time>2021-03-02T12:24:16Z</time>
        <extensions>
          <gpxtpx:TrackPointExtension xmlns:gpxtpx="http://www.garmin.com/xmlschemas/TrackPointExtension/v1">
            <gpxtpx:hr>148</gpxtpx:hr>
          </gpxtpx:TrackPointExtension>
        </extensions>
      </trkpt>
      <trkpt lat="46.11401" lon="6.26403">
        <ele>565.5</ele>
        <time>2021-03-02T12:24:17Z</time>
        <extensions>
          <gpxtpx:TrackPointExtension xmlns:gpxtpx="http://www.garmin.com/xmlschemas/TrackPointExtension/v1">
            <gpxtpx:hr>148</gpxtpx:hr>
          </gpxtpx:TrackPointExtension>
        </extensions>
      </trkpt>
      <trkpt lat="46.11399" lon="6.26401">
        <ele>565.7</ele>
        <time>2021-03-02T12:24:18Z</time>
        <extensions>
          <gpxtpx:TrackPointExtension xmlns:gpxtpx="http://www.garmin.com/xmlschemas/TrackPointExtension/v1">
            <gpxtpx:hr>150</gpxtpx:hr>
          </gpxtpx:TrackPointExtension>
        </extensions>
      </trkpt>
      <trkpt lat="46.11396" lon="6.264">
        <ele>566</ele>
        <time>2021-03-02T12:24:19Z</time>
        <extensions>
          <gpxtpx:TrackPointExtension xmlns:gpxtpx="http://www.garmin.com/xmlschemas/TrackPointExtension/v1">
            <gpxtpx:hr>151</gpxtpx:hr>
          </gpxtpx:TrackPointExtension>
        </extensions>
      </trkpt>
      <trkpt lat="46.11394" lon="6.26399">
        <ele>566.2</ele>
        <time>2021-03-02T12:24:20Z</time>
        <extensions>
          <gpxtpx:TrackPointExtension xmlns:gpxtpx="http://www.garmin.com/xmlschemas/TrackPointExtension/v1">
            <gpxtpx:hr>152</gpxtpx:hr>
          </gpxtpx:TrackPointExtension>
        </extensions>
      </trkpt>
      <trkpt lat="46.11391" lon="6.26397">
        <ele>566.5</ele>
        <time>2021-03-02T12:24:21Z</time>
        <extensions>
          <gpxtpx:TrackPointExtension xmlns:gpxtpx="http://www.garmin.com/xmlschemas/TrackPointExtension/v1">
            <gpxtpx:hr>152</gpxtpx:hr>
          </gpxtpx:TrackPointExtension>
        </extensions>
      </trkpt>
      <trkpt lat="46.11389" lon="6.26396">
        <ele>566.8</ele>
        <time>2021-03-02T12:24:22Z</time>
        <extensions>
          <gpxtpx:TrackPointExtension xmlns:gpxtpx="http://www.garmin.com/xmlschemas/TrackPointExtension/v1">
            <gpxtpx:hr>152</gpxtpx:hr>
          </gpxtpx:TrackPointExtension>
        </extensions>
      </trkpt>
      <trkpt lat="46.11386" lon="6.26395">
        <ele>567</ele>
        <time>2021-03-02T12:24:23Z</time>
        <extensions>
          <gpxtpx:TrackPointExtension xmlns:gpxtpx="http://www.garmin.com/xmlschemas/TrackPointExtension/v1">
            <gpxtpx:hr>152</gpxtpx:hr>
          </gpxtpx:TrackPointExtension>
        </extensions>
      </trkpt>
      <trkpt lat="46.11384" lon="6.26394">
        <ele>567.3</ele>
        <time>2021-03-02T12:24:24Z</time>
        <extensions>
          <gpxtpx:TrackPointExtension xmlns:gpxtpx="http://www.garmin.com/xmlschemas/TrackPointExtension/v1">
            <gpxtpx:hr>153</gpxtpx:hr>
          </gpxtpx:TrackPointExtension>
        </extensions>
      </trkpt>
      <trkpt lat="46.11381" lon="6.26393">
        <ele>567.5</ele>
        <time>2021-03-02T12:24:25Z</time>
        <extensions>
          <gpxtpx:TrackPointExtension xmlns:gpxtpx="http://www.garmin.com/xmlschemas/TrackPointExtension/v1">
            <gpxtpx:hr>153</gpxtpx:hr>
          </gpxtpx:TrackPointExtension>
        </extensions>
      </trkpt>
      <trkpt lat="46.11378" lon="6.26392">
        <ele>567.8</ele>
        <time>2021-03-02T12:24:26Z</time>
        <extensions>
          <gpxtpx:TrackPointExtension xmlns:gpxtpx="http://www.garmin.com/xmlschemas/TrackPointExtension/v1">
            <gpxtpx:hr>153</gpxtpx:hr>
          </gpxtpx:TrackPointExtension>
        </extensions>
      </trkpt>
      <trkpt lat="46.11376" lon="6.26391">
        <ele>568</ele>
        <time>2021-03-02T12:24:27Z</time>
        <extensions>
          <gpxtpx:TrackPointExtension xmlns:gpxtpx="http://www.garmin.com/xmlschemas/TrackPointExtension/v1">
            <gpxtpx:hr>153</gpxtpx:hr>
          </gpxtpx:TrackPointExtension>
        </extensions>
      </trkpt>
      <trkpt lat="46.11373" lon="6.2639">
        <ele>568.3</ele>
        <time>2021-03-02T12:24:28Z</time>
        <extensions>
          <gpxtpx:TrackPointExtension xmlns:gpxtpx="http://www.garmin.com/xmlschemas/TrackPointExtension/v1">
            <gpxtpx:hr>153</gpxtpx:hr>
          </gpxtpx:TrackPointExtension>
        </extensions>
      </trkpt>
      <trkpt lat="46.1137" lon="6.26389">
        <ele>568.5</ele>
        <time>2021-03-02T12:24:29Z</time>
        <extensions>
          <gpxtpx:TrackPointExtension xmlns:gpxtpx="http://www.garmin.com/xmlschemas/TrackPointExtension/v1">
            <gpxtpx:hr>154</gpxtpx:hr>
          </gpxtpx:TrackPointExtension>
        </extensions>
      </trkpt>
      <trkpt lat="46.11368" lon="6.26389">
        <ele>568.7</ele>
        <time>2021-03-02T12:24:30Z</time>
        <extensions>
          <gpxtpx:TrackPointExtension xmlns:gpxtpx="http://www.garmin.com/xmlschemas/TrackPointExtension/v1">
            <gpxtpx:hr>154</gpxtpx:hr>
          </gpxtpx:TrackPointExtension>
        </extensions>
      </trkpt>
      <trkpt lat="46.11365" lon="6.26388">
        <ele>569</ele>
        <time>2021-03-02T12:24:31Z</time>
        <extensions>
          <gpxtpx:TrackPointExtension xmlns:gpxtpx="http://www.garmin.com/xmlschemas/TrackPointExtension/v1">
            <gpxtpx:hr>154</gpxtpx:hr>
          </gpxtpx:TrackPointExtension>
        </extensions>
      </trkpt>
      <trkpt lat="46.11362" lon="6.26388">
        <ele>569.2</ele>
        <time>2021-03-02T12:24:32Z</time>
        <extensions>
          <gpxtpx:TrackPointExtension xmlns:gpxtpx="http://www.garmin.com/xmlschemas/TrackPointExtension/v1">
            <gpxtpx:hr>154</gpxtpx:hr>
          </gpxtpx:TrackPointExtension>
        </extensions>
      </trkpt>
      <trkpt lat="46.11359" lon="6.26387">
        <ele>569.5</ele>
        <time>2021-03-02T12:24:33Z</time>
        <extensions>
          <gpxtpx:TrackPointExtension xmlns:gpxtpx="http://www.garmin.com/xmlschemas/TrackPointExtension/v1">
            <gpxtpx:hr>155</gpxtpx:hr>
          </gpxtpx:TrackPointExtension>
        </extensions>
      </trkpt>
      <trkpt lat="46.11357" lon="6.26387">
        <ele>569.7</ele>
        <time>2021-03-02T12:24:34Z</time>
        <extensions>
          <gpxtpx:TrackPointExtension xmlns:gpxtpx="http://www.garmin.com/xmlschemas/TrackPointExtension/v1">
            <gpxtpx:hr>155</gpxtpx:hr>
          </gpxtpx:TrackPointExtension>
        </extensions>
      </trkpt>
      <trkpt lat="46.11354" lon="6.26387">
        <ele>570</ele>
        <time>2021-03-02T12:24:35Z</time>
        <extensions>
          <gpxtpx:TrackPointExtension xmlns:gpxtpx="http://www.garmin.com/xmlschemas/TrackPointExtension/v1">
            <gpxtpx:hr>155</gpxtpx:hr>
          </gpxtpx:TrackPointExtension>
        </extensions>
      </trkpt>
      <trkpt lat="46.11351" lon="6.26387">
        <ele>570.2</ele>
        <time>2021-03-02T12:24:36Z</time>
        <extensions>
          <gpxtpx:TrackPointExtension xmlns:gpxtpx="http://www.garmin.com/xmlschemas/TrackPointExtension/v1">
            <gpxtpx:hr>155</gpxtpx:hr>
          </gpxtpx:TrackPointExtension>
        </extensions>
      </trkpt>
      <trkpt lat="46.11348" lon="6.26387">
        <ele>570.5</ele>
        <time>2021-03-02T12:24:37Z</time>
        <extensions>
          <gpxtpx:TrackPointExtension xmlns:gpxtpx="http://www.garmin.com/xmlschemas/TrackPointExtension/v1">
            <gpxtpx:hr>155</gpxtpx:hr>
          </gpxtpx:TrackPointExtension>
        </extensions>
      </trkpt>
      <trkpt lat="46.11346" lon="6.26387">
        <ele>570.8</ele>
        <time>2021-03-02T12:24:38Z</time>
        <extensions>
          <gpxtpx:TrackPointExtension xmlns:gpxtpx="http://www.garmin.com/xmlschemas/TrackPointExtension/v1">
            <gpxtpx:hr>155</gpxtpx:hr>
          </gpxtpx:TrackPointExtension>
        </extensions>
      </trkpt>
      <trkpt lat="46.11343" lon="6.26387">
        <ele>571.1</ele>
        <time>2021-03-02T12:24:39Z</time>
        <extensions>
          <gpxtpx:TrackPointExtension xmlns:gpxtpx="http://www.garmin.com/xmlschemas/TrackPointExtension/v1">
            <gpxtpx:hr>155</gpxtpx:hr>
          </gpxtpx:TrackPointExtension>
        </extensions>
      </trkpt>
      <trkpt lat="46.1134" lon="6.26388">
        <ele>571.3</ele>
        <time>2021-03-02T12:24:40Z</time>
        <extensions>
          <gpxtpx:TrackPointExtension xmlns:gpxtpx="http://www.garmin.com/xmlschemas/TrackPointExtension/v1">
            <gpxtpx:hr>155</gpxtpx:hr>
          </gpxtpx:TrackPointExtension>
        </extensions>
      </trkpt>
      <trkpt lat="46.11338" lon="6.26388">
        <ele>571.6</ele>
        <time>2021-03-02T12:24:41Z</time>
        <extensions>
          <gpxtpx:TrackPointExtension xmlns:gpxtpx="http://www.garmin.com/xmlschemas/TrackPointExtension/v1">
            <gpxtpx:hr>155</gpxtpx:hr>
          </gpxtpx:TrackPointExtension>
        </extensions>
      </trkpt>
      <trkpt lat="46.11335" lon="6.26388">
        <ele>571.8</ele>
        <time>2021-03-02T12:24:42Z</time>
        <extensions>
          <gpxtpx:TrackPointExtension xmlns:gpxtpx="http://www.garmin.com/xmlschemas/TrackPointExtension/v1">
            <gpxtpx:hr>155</gpxtpx:hr>
          </gpxtpx:TrackPointExtension>
        </extensions>
      </trkpt>
      <trkpt lat="46.11332" lon="6.26387">
        <ele>572</ele>
        <time>2021-03-02T12:24:43Z</time>
        <extensions>
          <gpxtpx:TrackPointExtension xmlns:gpxtpx="http://www.garmin.com/xmlschemas/TrackPointExtension/v1">
            <gpxtpx:hr>155</gpxtpx:hr>
          </gpxtpx:TrackPointExtension>
        </extensions>
      </trkpt>
      <trkpt lat="46.11329" lon="6.26387">
        <ele>572.2</ele>
        <time>2021-03-02T12:24:44Z</time>
        <extensions>
          <gpxtpx:TrackPointExtension xmlns:gpxtpx="http://www.garmin.com/xmlschemas/TrackPointExtension/v1">
            <gpxtpx:hr>155</gpxtpx:hr>
          </gpxtpx:TrackPointExtension>
        </extensions>
      </trkpt>
      <trkpt lat="46.11327" lon="6.26386">
        <ele>572.4</ele>
        <time>2021-03-02T12:24:45Z</time>
        <extensions>
          <gpxtpx:TrackPointExtension xmlns:gpxtpx="http://www.garmin.com/xmlschemas/TrackPointExtension/v1">
            <gpxtpx:hr>155</gpxtpx:hr>
          </gpxtpx:TrackPointExtension>
        </extensions>
      </trkpt>
      <trkpt lat="46.11324" lon="6.26385">
        <ele>572.6</ele>
        <time>2021-03-02T12:24:46Z</time>
        <extensions>
          <gpxtpx:TrackPointExtension xmlns:gpxtpx="http://www.garmin.com/xmlschemas/TrackPointExtension/v1">
            <gpxtpx:hr>155</gpxtpx:hr>
          </gpxtpx:TrackPointExtension>
        </extensions>
      </trkpt>
      <trkpt lat="46.11321" lon="6.26384">
        <ele>572.8</ele>
        <time>2021-03-02T12:24:47Z</time>
        <extensions>
          <gpxtpx:TrackPointExtension xmlns:gpxtpx="http://www.garmin.com/xmlschemas/TrackPointExtension/v1">
            <gpxtpx:hr>155</gpxtpx:hr>
          </gpxtpx:TrackPointExtension>
        </extensions>
      </trkpt>
      <trkpt lat="46.11319" lon="6.26383">
        <ele>573</ele>
        <time>2021-03-02T12:24:48Z</time>
        <extensions>
          <gpxtpx:TrackPointExtension xmlns:gpxtpx="http://www.garmin.com/xmlschemas/TrackPointExtension/v1">
            <gpxtpx:hr>155</gpxtpx:hr>
          </gpxtpx:TrackPointExtension>
        </extensions>
      </trkpt>
      <trkpt lat="46.11316" lon="6.26381">
        <ele>573.2</ele>
        <time>2021-03-02T12:24:49Z</time>
        <extensions>
          <gpxtpx:TrackPointExtension xmlns:gpxtpx="http://www.garmin.com/xmlschemas/TrackPointExtension/v1">
            <gpxtpx:hr>155</gpxtpx:hr>
          </gpxtpx:TrackPointExtension>
        </extensions>
      </trkpt>
      <trkpt lat="46.11314" lon="6.26379">
        <ele>573.4</ele>
        <time>2021-03-02T12:24:50Z</time>
        <extensions>
          <gpxtpx:TrackPointExtension xmlns:gpxtpx="http://www.garmin.com/xmlschemas/TrackPointExtension/v1">
            <gpxtpx:hr>155</gpxtpx:hr>
          </gpxtpx:TrackPointExtension>
        </extensions>
      </trkpt>
      <trkpt lat="46.11311" lon="6.26378">
        <ele>573.6</ele>
        <time>2021-03-02T12:24:51Z</time>
        <extensions>
          <gpxtpx:TrackPointExtension xmlns:gpxtpx="http://www.garmin.com/xmlschemas/TrackPointExtension/v1">
            <gpxtpx:hr>155</gpxtpx:hr>
          </gpxtpx:TrackPointExtension>
        </extensions>
      </trkpt>
      <trkpt lat="46.11309" lon="6.26375">
        <ele>573.8</ele>
        <time>2021-03-02T12:24:52Z</time>
        <extensions>
          <gpxtpx:TrackPointExtension xmlns:gpxtpx="http://www.garmin.com/xmlschemas/TrackPointExtension/v1">
            <gpxtpx:hr>155</gpxtpx:hr>
          </gpxtpx:TrackPointExtension>
        </extensions>
      </trkpt>
      <trkpt lat="46.11306" lon="6.26373">
        <ele>574</ele>
        <time>2021-03-02T12:24:53Z</time>
        <extensions>
          <gpxtpx:TrackPointExtension xmlns:gpxtpx="http://www.garmin.com/xmlschemas/TrackPointExtension/v1">
            <gpxtpx:hr>156</gpxtpx:hr>
          </gpxtpx:TrackPointExtension>
        </extensions>
      </trkpt>
      <trkpt lat="46.11304" lon="6.26371">
        <ele>574.2</ele>
        <time>2021-03-02T12:24:54Z</time>
        <extensions>
          <gpxtpx:TrackPointExtension xmlns:gpxtpx="http://www.garmin.com/xmlschemas/TrackPointExtension/v1">
            <gpxtpx:hr>156</gpxtpx:hr>
          </gpxtpx:TrackPointExtension>
        </extensions>
      </trkpt>
      <trkpt lat="46.11302" lon="6.26369">
        <ele>574.4</ele>
        <time>2021-03-02T12:24:55Z</time>
        <extensions>
          <gpxtpx:TrackPointExtension xmlns:gpxtpx="http://www.garmin.com/xmlschemas/TrackPointExtension/v1">
            <gpxtpx:hr>156</gpxtpx:hr>
          </gpxtpx:TrackPointExtension>
        </extensions>
      </trkpt>
      <trkpt lat="46.11299" lon="6.26366">
        <ele>574.7</ele>
        <time>2021-03-02T12:24:56Z</time>
        <extensions>
          <gpxtpx:TrackPointExtension xmlns:gpxtpx="http://www.garmin.com/xmlschemas/TrackPointExtension/v1">
            <gpxtpx:hr>156</gpxtpx:hr>
          </gpxtpx:TrackPointExtension>
        </extensions>
      </trkpt>
      <trkpt lat="46.11297" lon="6.26364">
        <ele>574.9</ele>
        <time>2021-03-02T12:24:57Z</time>
        <extensions>
          <gpxtpx:TrackPointExtension xmlns:gpxtpx="http://www.garmin.com/xmlschemas/TrackPointExtension/v1">
            <gpxtpx:hr>156</gpxtpx:hr>
          </gpxtpx:TrackPointExtension>
        </extensions>
      </trkpt>
      <trkpt lat="46.11295" lon="6.26362">
        <ele>575.2</ele>
        <time>2021-03-02T12:24:58Z</time>
        <extensions>
          <gpxtpx:TrackPointExtension xmlns:gpxtpx="http://www.garmin.com/xmlschemas/TrackPointExtension/v1">
            <gpxtpx:hr>156</gpxtpx:hr>
          </gpxtpx:TrackPointExtension>
        </extensions>
      </trkpt>
      <trkpt lat="46.11292" lon="6.26359">
        <ele>575.4</ele>
        <time>2021-03-02T12:24:59Z</time>
        <extensions>
          <gpxtpx:TrackPointExtension xmlns:gpxtpx="http://www.garmin.com/xmlschemas/TrackPointExtension/v1">
            <gpxtpx:hr>155</gpxtpx:hr>
          </gpxtpx:TrackPointExtension>
        </extensions>
      </trkpt>
      <trkpt lat="46.1129" lon="6.26357">
        <ele>575.6</ele>
        <time>2021-03-02T12:25:00Z</time>
        <extensions>
          <gpxtpx:TrackPointExtension xmlns:gpxtpx="http://www.garmin.com/xmlschemas/TrackPointExtension/v1">
            <gpxtpx:hr>155</gpxtpx:hr>
          </gpxtpx:TrackPointExtension>
        </extensions>
      </trkpt>
      <trkpt lat="46.11288" lon="6.26354">
        <ele>575.9</ele>
        <time>2021-03-02T12:25:01Z</time>
        <extensions>
          <gpxtpx:TrackPointExtension xmlns:gpxtpx="http://www.garmin.com/xmlschemas/TrackPointExtension/v1">
            <gpxtpx:hr>155</gpxtpx:hr>
          </gpxtpx:TrackPointExtension>
        </extensions>
      </trkpt>
      <trkpt lat="46.11285" lon="6.26352">
        <ele>576.1</ele>
        <time>2021-03-02T12:25:02Z</time>
        <extensions>
          <gpxtpx:TrackPointExtension xmlns:gpxtpx="http://www.garmin.com/xmlschemas/TrackPointExtension/v1">
            <gpxtpx:hr>155</gpxtpx:hr>
          </gpxtpx:TrackPointExtension>
        </extensions>
      </trkpt>
      <trkpt lat="46.11283" lon="6.2635">
        <ele>576.3</ele>
        <time>2021-03-02T12:25:03Z</time>
        <extensions>
          <gpxtpx:TrackPointExtension xmlns:gpxtpx="http://www.garmin.com/xmlschemas/TrackPointExtension/v1">
            <gpxtpx:hr>155</gpxtpx:hr>
          </gpxtpx:TrackPointExtension>
        </extensions>
      </trkpt>
      <trkpt lat="46.11281" lon="6.26347">
        <ele>576.5</ele>
        <time>2021-03-02T12:25:04Z</time>
        <extensions>
          <gpxtpx:TrackPointExtension xmlns:gpxtpx="http://www.garmin.com/xmlschemas/TrackPointExtension/v1">
            <gpxtpx:hr>155</gpxtpx:hr>
          </gpxtpx:TrackPointExtension>
        </extensions>
      </trkpt>
      <trkpt lat="46.11279" lon="6.26344">
        <ele>576.8</ele>
        <time>2021-03-02T12:25:05Z</time>
        <extensions>
          <gpxtpx:TrackPointExtension xmlns:gpxtpx="http://www.garmin.com/xmlschemas/TrackPointExtension/v1">
            <gpxtpx:hr>155</gpxtpx:hr>
          </gpxtpx:TrackPointExtension>
        </extensions>
      </trkpt>
      <trkpt lat="46.11277" lon="6.26342">
        <ele>577</ele>
        <time>2021-03-02T12:25:06Z</time>
        <extensions>
          <gpxtpx:TrackPointExtension xmlns:gpxtpx="http://www.garmin.com/xmlschemas/TrackPointExtension/v1">
            <gpxtpx:hr>155</gpxtpx:hr>
          </gpxtpx:TrackPointExtension>
        </extensions>
      </trkpt>
      <trkpt lat="46.11275" lon="6.26339">
        <ele>577.2</ele>
        <time>2021-03-02T12:25:07Z</time>
        <extensions>
          <gpxtpx:TrackPointExtension xmlns:gpxtpx="http://www.garmin.com/xmlschemas/TrackPointExtension/v1">
            <gpxtpx:hr>155</gpxtpx:hr>
          </gpxtpx:TrackPointExtension>
        </extensions>
      </trkpt>
      <trkpt lat="46.11273" lon="6.26337">
        <ele>577.4</ele>
        <time>2021-03-02T12:25:08Z</time>
        <extensions>
          <gpxtpx:TrackPointExtension xmlns:gpxtpx="http://www.garmin.com/xmlschemas/TrackPointExtension/v1">
            <gpxtpx:hr>155</gpxtpx:hr>
          </gpxtpx:TrackPointExtension>
        </extensions>
      </trkpt>
      <trkpt lat="46.11271" lon="6.26334">
        <ele>577.6</ele>
        <time>2021-03-02T12:25:09Z</time>
        <extensions>
          <gpxtpx:TrackPointExtension xmlns:gpxtpx="http://www.garmin.com/xmlschemas/TrackPointExtension/v1">
            <gpxtpx:hr>155</gpxtpx:hr>
          </gpxtpx:TrackPointExtension>
        </extensions>
      </trkpt>
      <trkpt lat="46.11269" lon="6.26332">
        <ele>577.9</ele>
        <time>2021-03-02T12:25:10Z</time>
        <extensions>
          <gpxtpx:TrackPointExtension xmlns:gpxtpx="http://www.garmin.com/xmlschemas/TrackPointExtension/v1">
            <gpxtpx:hr>155</gpxtpx:hr>
          </gpxtpx:TrackPointExtension>
        </extensions>
      </trkpt>
      <trkpt lat="46.11267" lon="6.2633">
        <ele>578.1</ele>
        <time>2021-03-02T12:25:11Z</time>
        <extensions>
          <gpxtpx:TrackPointExtension xmlns:gpxtpx="http://www.garmin.com/xmlschemas/TrackPointExtension/v1">
            <gpxtpx:hr>155</gpxtpx:hr>
          </gpxtpx:TrackPointExtension>
        </extensions>
      </trkpt>
      <trkpt lat="46.11264" lon="6.26329">
        <ele>578.3</ele>
        <time>2021-03-02T12:25:12Z</time>
        <extensions>
          <gpxtpx:TrackPointExtension xmlns:gpxtpx="http://www.garmin.com/xmlschemas/TrackPointExtension/v1">
            <gpxtpx:hr>155</gpxtpx:hr>
          </gpxtpx:TrackPointExtension>
        </extensions>
      </trkpt>
      <trkpt lat="46.11262" lon="6.26327">
        <ele>578.5</ele>
        <time>2021-03-02T12:25:13Z</time>
        <extensions>
          <gpxtpx:TrackPointExtension xmlns:gpxtpx="http://www.garmin.com/xmlschemas/TrackPointExtension/v1">
            <gpxtpx:hr>155</gpxtpx:hr>
          </gpxtpx:TrackPointExtension>
        </extensions>
      </trkpt>
      <trkpt lat="46.1126" lon="6.26325">
        <ele>578.8</ele>
        <time>2021-03-02T12:25:14Z</time>
        <extensions>
          <gpxtpx:TrackPointExtension xmlns:gpxtpx="http://www.garmin.com/xmlschemas/TrackPointExtension/v1">
            <gpxtpx:hr>155</gpxtpx:hr>
          </gpxtpx:TrackPointExtension>
        </extensions>
      </trkpt>
      <trkpt lat="46.11258" lon="6.26323">
        <ele>579</ele>
        <time>2021-03-02T12:25:15Z</time>
        <extensions>
          <gpxtpx:TrackPointExtension xmlns:gpxtpx="http://www.garmin.com/xmlschemas/TrackPointExtension/v1">
            <gpxtpx:hr>154</gpxtpx:hr>
          </gpxtpx:TrackPointExtension>
        </extensions>
      </trkpt>
      <trkpt lat="46.11256" lon="6.26321">
        <ele>579.3</ele>
        <time>2021-03-02T12:25:16Z</time>
        <extensions>
          <gpxtpx:TrackPointExtension xmlns:gpxtpx="http://www.garmin.com/xmlschemas/TrackPointExtension/v1">
            <gpxtpx:hr>154</gpxtpx:hr>
          </gpxtpx:TrackPointExtension>
        </extensions>
      </trkpt>
      <trkpt lat="46.11253" lon="6.2632">
        <ele>579.6</ele>
        <time>2021-03-02T12:25:17Z</time>
        <extensions>
          <gpxtpx:TrackPointExtension xmlns:gpxtpx="http://www.garmin.com/xmlschemas/TrackPointExtension/v1">
            <gpxtpx:hr>154</gpxtpx:hr>
          </gpxtpx:TrackPointExtension>
        </extensions>
      </trkpt>
      <trkpt lat="46.11252" lon="6.26318">
        <ele>579.8</ele>
        <time>2021-03-02T12:25:18Z</time>
        <extensions>
          <gpxtpx:TrackPointExtension xmlns:gpxtpx="http://www.garmin.com/xmlschemas/TrackPointExtension/v1">
            <gpxtpx:hr>154</gpxtpx:hr>
          </gpxtpx:TrackPointExtension>
        </extensions>
      </trkpt>
      <trkpt lat="46.1125" lon="6.26317">
        <ele>580</ele>
        <time>2021-03-02T12:25:19Z</time>
        <extensions>
          <gpxtpx:TrackPointExtension xmlns:gpxtpx="http://www.garmin.com/xmlschemas/TrackPointExtension/v1">
            <gpxtpx:hr>155</gpxtpx:hr>
          </gpxtpx:TrackPointExtension>
        </extensions>
      </trkpt>
      <trkpt lat="46.11248" lon="6.26316">
        <ele>580.3</ele>
        <time>2021-03-02T12:25:20Z</time>
        <extensions>
          <gpxtpx:TrackPointExtension xmlns:gpxtpx="http://www.garmin.com/xmlschemas/TrackPointExtension/v1">
            <gpxtpx:hr>155</gpxtpx:hr>
          </gpxtpx:TrackPointExtension>
        </extensions>
      </trkpt>
      <trkpt lat="46.11246" lon="6.26314">
        <ele>580.5</ele>
        <time>2021-03-02T12:25:21Z</time>
        <extensions>
          <gpxtpx:TrackPointExtension xmlns:gpxtpx="http://www.garmin.com/xmlschemas/TrackPointExtension/v1">
            <gpxtpx:hr>156</gpxtpx:hr>
          </gpxtpx:TrackPointExtension>
        </extensions>
      </trkpt>
      <trkpt lat="46.11244" lon="6.26313">
        <ele>580.8</ele>
        <time>2021-03-02T12:25:22Z</time>
        <extensions>
          <gpxtpx:TrackPointExtension xmlns:gpxtpx="http://www.garmin.com/xmlschemas/TrackPointExtension/v1">
            <gpxtpx:hr>155</gpxtpx:hr>
          </gpxtpx:TrackPointExtension>
        </extensions>
      </trkpt>
      <trkpt lat="46.11242" lon="6.26312">
        <ele>581</ele>
        <time>2021-03-02T12:25:23Z</time>
        <extensions>
          <gpxtpx:TrackPointExtension xmlns:gpxtpx="http://www.garmin.com/xmlschemas/TrackPointExtension/v1">
            <gpxtpx:hr>155</gpxtpx:hr>
          </gpxtpx:TrackPointExtension>
        </extensions>
      </trkpt>
      <trkpt lat="46.1124" lon="6.2631">
        <ele>581.3</ele>
        <time>2021-03-02T12:25:24Z</time>
        <extensions>
          <gpxtpx:TrackPointExtension xmlns:gpxtpx="http://www.garmin.com/xmlschemas/TrackPointExtension/v1">
            <gpxtpx:hr>154</gpxtpx:hr>
          </gpxtpx:TrackPointExtension>
        </extensions>
      </trkpt>
      <trkpt lat="46.11238" lon="6.26309">
        <ele>581.5</ele>
        <time>2021-03-02T12:25:25Z</time>
        <extensions>
          <gpxtpx:TrackPointExtension xmlns:gpxtpx="http://www.garmin.com/xmlschemas/TrackPointExtension/v1">
            <gpxtpx:hr>154</gpxtpx:hr>
          </gpxtpx:TrackPointExtension>
        </extensions>
      </trkpt>
      <trkpt lat="46.11237" lon="6.26307">
        <ele>581.7</ele>
        <time>2021-03-02T12:25:26Z</time>
        <extensions>
          <gpxtpx:TrackPointExtension xmlns:gpxtpx="http://www.garmin.com/xmlschemas/TrackPointExtension/v1">
            <gpxtpx:hr>153</gpxtpx:hr>
          </gpxtpx:TrackPointExtension>
        </extensions>
      </trkpt>
      <trkpt lat="46.11235" lon="6.26306">
        <ele>581.8</ele>
        <time>2021-03-02T12:25:27Z</time>
        <extensions>
          <gpxtpx:TrackPointExtension xmlns:gpxtpx="http://www.garmin.com/xmlschemas/TrackPointExtension/v1">
            <gpxtpx:hr>153</gpxtpx:hr>
          </gpxtpx:TrackPointExtension>
        </extensions>
      </trkpt>
      <trkpt lat="46.11234" lon="6.26305">
        <ele>582</ele>
        <time>2021-03-02T12:25:28Z</time>
        <extensions>
          <gpxtpx:TrackPointExtension xmlns:gpxtpx="http://www.garmin.com/xmlschemas/TrackPointExtension/v1">
            <gpxtpx:hr>152</gpxtpx:hr>
          </gpxtpx:TrackPointExtension>
        </extensions>
      </trkpt>
      <trkpt lat="46.11232" lon="6.26304">
        <ele>582.2</ele>
        <time>2021-03-02T12:25:29Z</time>
        <extensions>
          <gpxtpx:TrackPointExtension xmlns:gpxtpx="http://www.garmin.com/xmlschemas/TrackPointExtension/v1">
            <gpxtpx:hr>152</gpxtpx:hr>
          </gpxtpx:TrackPointExtension>
        </extensions>
      </trkpt>
      <trkpt lat="46.1123" lon="6.26302">
        <ele>582.4</ele>
        <time>2021-03-02T12:25:30Z</time>
        <extensions>
          <gpxtpx:TrackPointExtension xmlns:gpxtpx="http://www.garmin.com/xmlschemas/TrackPointExtension/v1">
            <gpxtpx:hr>152</gpxtpx:hr>
          </gpxtpx:TrackPointExtension>
        </extensions>
      </trkpt>
      <trkpt lat="46.11228" lon="6.26301">
        <ele>582.6</ele>
        <time>2021-03-02T12:25:31Z</time>
        <extensions>
          <gpxtpx:TrackPointExtension xmlns:gpxtpx="http://www.garmin.com/xmlschemas/TrackPointExtension/v1">
            <gpxtpx:hr>151</gpxtpx:hr>
          </gpxtpx:TrackPointExtension>
        </extensions>
      </trkpt>
      <trkpt lat="46.11225" lon="6.26301">
        <ele>582.8</ele>
        <time>2021-03-02T12:25:32Z</time>
        <extensions>
          <gpxtpx:TrackPointExtension xmlns:gpxtpx="http://www.garmin.com/xmlschemas/TrackPointExtension/v1">
            <gpxtpx:hr>151</gpxtpx:hr>
          </gpxtpx:TrackPointExtension>
        </extensions>
      </trkpt>
      <trkpt lat="46.11223" lon="6.26301">
        <ele>583</ele>
        <time>2021-03-02T12:25:33Z</time>
        <extensions>
          <gpxtpx:TrackPointExtension xmlns:gpxtpx="http://www.garmin.com/xmlschemas/TrackPointExtension/v1">
            <gpxtpx:hr>150</gpxtpx:hr>
          </gpxtpx:TrackPointExtension>
        </extensions>
      </trkpt>
      <trkpt lat="46.1122" lon="6.26302">
        <ele>583.2</ele>
        <time>2021-03-02T12:25:34Z</time>
        <extensions>
          <gpxtpx:TrackPointExtension xmlns:gpxtpx="http://www.garmin.com/xmlschemas/TrackPointExtension/v1">
            <gpxtpx:hr>150</gpxtpx:hr>
          </gpxtpx:TrackPointExtension>
        </extensions>
      </trkpt>
      <trkpt lat="46.11217" lon="6.26303">
        <ele>583.4</ele>
        <time>2021-03-02T12:25:35Z</time>
        <extensions>
          <gpxtpx:TrackPointExtension xmlns:gpxtpx="http://www.garmin.com/xmlschemas/TrackPointExtension/v1">
            <gpxtpx:hr>149</gpxtpx:hr>
          </gpxtpx:TrackPointExtension>
        </extensions>
      </trkpt>
      <trkpt lat="46.11214" lon="6.26303">
        <ele>583.6</ele>
        <time>2021-03-02T12:25:36Z</time>
        <extensions>
          <gpxtpx:TrackPointExtension xmlns:gpxtpx="http://www.garmin.com/xmlschemas/TrackPointExtension/v1">
            <gpxtpx:hr>148</gpxtpx:hr>
          </gpxtpx:TrackPointExtension>
        </extensions>
      </trkpt>
      <trkpt lat="46.11211" lon="6.26304">
        <ele>583.8</ele>
        <time>2021-03-02T12:25:37Z</time>
        <extensions>
          <gpxtpx:TrackPointExtension xmlns:gpxtpx="http://www.garmin.com/xmlschemas/TrackPointExtension/v1">
            <gpxtpx:hr>147</gpxtpx:hr>
          </gpxtpx:TrackPointExtension>
        </extensions>
      </trkpt>
      <trkpt lat="46.11208" lon="6.26305">
        <ele>584</ele>
        <time>2021-03-02T12:25:38Z</time>
        <extensions>
          <gpxtpx:TrackPointExtension xmlns:gpxtpx="http://www.garmin.com/xmlschemas/TrackPointExtension/v1">
            <gpxtpx:hr>147</gpxtpx:hr>
          </gpxtpx:TrackPointExtension>
        </extensions>
      </trkpt>
      <trkpt lat="46.11205" lon="6.26306">
        <ele>584.2</ele>
        <time>2021-03-02T12:25:39Z</time>
        <extensions>
          <gpxtpx:TrackPointExtension xmlns:gpxtpx="http://www.garmin.com/xmlschemas/TrackPointExtension/v1">
            <gpxtpx:hr>147</gpxtpx:hr>
          </gpxtpx:TrackPointExtension>
        </extensions>
      </trkpt>
      <trkpt lat="46.11202" lon="6.26307">
        <ele>584.4</ele>
        <time>2021-03-02T12:25:40Z</time>
        <extensions>
          <gpxtpx:TrackPointExtension xmlns:gpxtpx="http://www.garmin.com/xmlschemas/TrackPointExtension/v1">
            <gpxtpx:hr>148</gpxtpx:hr>
          </gpxtpx:TrackPointExtension>
        </extensions>
      </trkpt>
      <trkpt lat="46.11199" lon="6.26307">
        <ele>584.6</ele>
        <time>2021-03-02T12:25:41Z</time>
        <extensions>
          <gpxtpx:TrackPointExtension xmlns:gpxtpx="http://www.garmin.com/xmlschemas/TrackPointExtension/v1">
            <gpxtpx:hr>148</gpxtpx:hr>
          </gpxtpx:TrackPointExtension>
        </extensions>
      </trkpt>
      <trkpt lat="46.11196" lon="6.26308">
        <ele>584.8</ele>
        <time>2021-03-02T12:25:42Z</time>
        <extensions>
          <gpxtpx:TrackPointExtension xmlns:gpxtpx="http://www.garmin.com/xmlschemas/TrackPointExtension/v1">
            <gpxtpx:hr>148</gpxtpx:hr>
          </gpxtpx:TrackPointExtension>
        </extensions>
      </trkpt>
      <trkpt lat="46.11193" lon="6.26309">
        <ele>585</ele>
        <time>2021-03-02T12:25:43Z</time>
        <extensions>
          <gpxtpx:TrackPointExtension xmlns:gpxtpx="http://www.garmin.com/xmlschemas/TrackPointExtension/v1">
            <gpxtpx:hr>148</gpxtpx:hr>
          </gpxtpx:TrackPointExtension>
        </extensions>
      </trkpt>
      <trkpt lat="46.1119" lon="6.2631">
        <ele>585.2</ele>
        <time>2021-03-02T12:25:44Z</time>
        <extensions>
          <gpxtpx:TrackPointExtension xmlns:gpxtpx="http://www.garmin.com/xmlschemas/TrackPointExtension/v1">
            <gpxtpx:hr>148</gpxtpx:hr>
          </gpxtpx:TrackPointExtension>
        </extensions>
      </trkpt>
      <trkpt lat="46.11187" lon="6.26311">
        <ele>585.4</ele>
        <time>2021-03-02T12:25:45Z</time>
        <extensions>
          <gpxtpx:TrackPointExtension xmlns:gpxtpx="http://www.garmin.com/xmlschemas/TrackPointExtension/v1">
            <gpxtpx:hr>149</gpxtpx:hr>
          </gpxtpx:TrackPointExtension>
        </extensions>
      </trkpt>
      <trkpt lat="46.11183" lon="6.26312">
        <ele>585.6</ele>
        <time>2021-03-02T12:25:46Z</time>
        <extensions>
          <gpxtpx:TrackPointExtension xmlns:gpxtpx="http://www.garmin.com/xmlschemas/TrackPointExtension/v1">
            <gpxtpx:hr>149</gpxtpx:hr>
          </gpxtpx:TrackPointExtension>
        </extensions>
      </trkpt>
      <trkpt lat="46.1118" lon="6.26312">
        <ele>585.7</ele>
        <time>2021-03-02T12:25:47Z</time>
        <extensions>
          <gpxtpx:TrackPointExtension xmlns:gpxtpx="http://www.garmin.com/xmlschemas/TrackPointExtension/v1">
            <gpxtpx:hr>150</gpxtpx:hr>
          </gpxtpx:TrackPointExtension>
        </extensions>
      </trkpt>
      <trkpt lat="46.11177" lon="6.26314">
        <ele>585.7</ele>
        <time>2021-03-02T12:25:48Z</time>
        <extensions>
          <gpxtpx:TrackPointExtension xmlns:gpxtpx="http://www.garmin.com/xmlschemas/TrackPointExtension/v1">
            <gpxtpx:hr>149</gpxtpx:hr>
          </gpxtpx:TrackPointExtension>
        </extensions>
      </trkpt>
      <trkpt lat="46.11173" lon="6.26315">
        <ele>585.8</ele>
        <time>2021-03-02T12:25:49Z</time>
        <extensions>
          <gpxtpx:TrackPointExtension xmlns:gpxtpx="http://www.garmin.com/xmlschemas/TrackPointExtension/v1">
            <gpxtpx:hr>149</gpxtpx:hr>
          </gpxtpx:TrackPointExtension>
        </extensions>
      </trkpt>
      <trkpt lat="46.1117" lon="6.26316">
        <ele>586</ele>
        <time>2021-03-02T12:25:50Z</time>
        <extensions>
          <gpxtpx:TrackPointExtension xmlns:gpxtpx="http://www.garmin.com/xmlschemas/TrackPointExtension/v1">
            <gpxtpx:hr>149</gpxtpx:hr>
          </gpxtpx:TrackPointExtension>
        </extensions>
      </trkpt>
      <trkpt lat="46.11166" lon="6.26317">
        <ele>586.1</ele>
        <time>2021-03-02T12:25:51Z</time>
        <extensions>
          <gpxtpx:TrackPointExtension xmlns:gpxtpx="http://www.garmin.com/xmlschemas/TrackPointExtension/v1">
            <gpxtpx:hr>148</gpxtpx:hr>
          </gpxtpx:TrackPointExtension>
        </extensions>
      </trkpt>
      <trkpt lat="46.11163" lon="6.26318">
        <ele>586.2</ele>
        <time>2021-03-02T12:25:52Z</time>
        <extensions>
          <gpxtpx:TrackPointExtension xmlns:gpxtpx="http://www.garmin.com/xmlschemas/TrackPointExtension/v1">
            <gpxtpx:hr>148</gpxtpx:hr>
          </gpxtpx:TrackPointExtension>
        </extensions>
      </trkpt>
      <trkpt lat="46.11159" lon="6.26319">
        <ele>586.3</ele>
        <time>2021-03-02T12:25:53Z</time>
        <extensions>
          <gpxtpx:TrackPointExtension xmlns:gpxtpx="http://www.garmin.com/xmlschemas/TrackPointExtension/v1">
            <gpxtpx:hr>148</gpxtpx:hr>
          </gpxtpx:TrackPointExtension>
        </extensions>
      </trkpt>
      <trkpt lat="46.11156" lon="6.26321">
        <ele>586.4</ele>
        <time>2021-03-02T12:25:54Z</time>
        <extensions>
          <gpxtpx:TrackPointExtension xmlns:gpxtpx="http://www.garmin.com/xmlschemas/TrackPointExtension/v1">
            <gpxtpx:hr>148</gpxtpx:hr>
          </gpxtpx:TrackPointExtension>
        </extensions>
      </trkpt>
      <trkpt lat="46.11153" lon="6.26322">
        <ele>586.5</ele>
        <time>2021-03-02T12:25:55Z</time>
        <extensions>
          <gpxtpx:TrackPointExtension xmlns:gpxtpx="http://www.garmin.com/xmlschemas/TrackPointExtension/v1">
            <gpxtpx:hr>148</gpxtpx:hr>
          </gpxtpx:TrackPointExtension>
        </extensions>
      </trkpt>
      <trkpt lat="46.11149" lon="6.26324">
        <ele>586.6</ele>
        <time>2021-03-02T12:25:56Z</time>
        <extensions>
          <gpxtpx:TrackPointExtension xmlns:gpxtpx="http://www.garmin.com/xmlschemas/TrackPointExtension/v1">
            <gpxtpx:hr>148</gpxtpx:hr>
          </gpxtpx:TrackPointExtension>
        </extensions>
      </trkpt>
      <trkpt lat="46.11146" lon="6.26326">
        <ele>586.7</ele>
        <time>2021-03-02T12:25:57Z</time>
        <extensions>
          <gpxtpx:TrackPointExtension xmlns:gpxtpx="http://www.garmin.com/xmlschemas/TrackPointExtension/v1">
            <gpxtpx:hr>148</gpxtpx:hr>
          </gpxtpx:TrackPointExtension>
        </extensions>
      </trkpt>
      <trkpt lat="46.11142" lon="6.26329">
        <ele>586.9</ele>
        <time>2021-03-02T12:25:58Z</time>
        <extensions>
          <gpxtpx:TrackPointExtension xmlns:gpxtpx="http://www.garmin.com/xmlschemas/TrackPointExtension/v1">
            <gpxtpx:hr>148</gpxtpx:hr>
          </gpxtpx:TrackPointExtension>
        </extensions>
      </trkpt>
      <trkpt lat="46.11139" lon="6.26332">
        <ele>587</ele>
        <time>2021-03-02T12:25:59Z</time>
        <extensions>
          <gpxtpx:TrackPointExtension xmlns:gpxtpx="http://www.garmin.com/xmlschemas/TrackPointExtension/v1">
            <gpxtpx:hr>148</gpxtpx:hr>
          </gpxtpx:TrackPointExtension>
        </extensions>
      </trkpt>
      <trkpt lat="46.11135" lon="6.26335">
        <ele>587.1</ele>
        <time>2021-03-02T12:26:00Z</time>
        <extensions>
          <gpxtpx:TrackPointExtension xmlns:gpxtpx="http://www.garmin.com/xmlschemas/TrackPointExtension/v1">
            <gpxtpx:hr>148</gpxtpx:hr>
          </gpxtpx:TrackPointExtension>
        </extensions>
      </trkpt>
      <trkpt lat="46.11132" lon="6.26338">
        <ele>587.3</ele>
        <time>2021-03-02T12:26:01Z</time>
        <extensions>
          <gpxtpx:TrackPointExtension xmlns:gpxtpx="http://www.garmin.com/xmlschemas/TrackPointExtension/v1">
            <gpxtpx:hr>148</gpxtpx:hr>
          </gpxtpx:TrackPointExtension>
        </extensions>
      </trkpt>
      <trkpt lat="46.11129" lon="6.26341">
        <ele>587.4</ele>
        <time>2021-03-02T12:26:02Z</time>
        <extensions>
          <gpxtpx:TrackPointExtension xmlns:gpxtpx="http://www.garmin.com/xmlschemas/TrackPointExtension/v1">
            <gpxtpx:hr>148</gpxtpx:hr>
          </gpxtpx:TrackPointExtension>
        </extensions>
      </trkpt>
      <trkpt lat="46.11125" lon="6.26345">
        <ele>587.6</ele>
        <time>2021-03-02T12:26:03Z</time>
        <extensions>
          <gpxtpx:TrackPointExtension xmlns:gpxtpx="http://www.garmin.com/xmlschemas/TrackPointExtension/v1">
            <gpxtpx:hr>148</gpxtpx:hr>
          </gpxtpx:TrackPointExtension>
        </extensions>
      </trkpt>
      <trkpt lat="46.11122" lon="6.26348">
        <ele>587.7</ele>
        <time>2021-03-02T12:26:04Z</time>
        <extensions>
          <gpxtpx:TrackPointExtension xmlns:gpxtpx="http://www.garmin.com/xmlschemas/TrackPointExtension/v1">
            <gpxtpx:hr>147</gpxtpx:hr>
          </gpxtpx:TrackPointExtension>
        </extensions>
      </trkpt>
      <trkpt lat="46.11118" lon="6.26351">
        <ele>587.8</ele>
        <time>2021-03-02T12:26:05Z</time>
        <extensions>
          <gpxtpx:TrackPointExtension xmlns:gpxtpx="http://www.garmin.com/xmlschemas/TrackPointExtension/v1">
            <gpxtpx:hr>147</gpxtpx:hr>
          </gpxtpx:TrackPointExtension>
        </extensions>
      </trkpt>
      <trkpt lat="46.11114" lon="6.26355">
        <ele>588</ele>
        <time>2021-03-02T12:26:06Z</time>
        <extensions>
          <gpxtpx:TrackPointExtension xmlns:gpxtpx="http://www.garmin.com/xmlschemas/TrackPointExtension/v1">
            <gpxtpx:hr>147</gpxtpx:hr>
          </gpxtpx:TrackPointExtension>
        </extensions>
      </trkpt>
      <trkpt lat="46.11111" lon="6.26358">
        <ele>588.1</ele>
        <time>2021-03-02T12:26:07Z</time>
        <extensions>
          <gpxtpx:TrackPointExtension xmlns:gpxtpx="http://www.garmin.com/xmlschemas/TrackPointExtension/v1">
            <gpxtpx:hr>147</gpxtpx:hr>
          </gpxtpx:TrackPointExtension>
        </extensions>
      </trkpt>
      <trkpt lat="46.11107" lon="6.26361">
        <ele>588.3</ele>
        <time>2021-03-02T12:26:08Z</time>
        <extensions>
          <gpxtpx:TrackPointExtension xmlns:gpxtpx="http://www.garmin.com/xmlschemas/TrackPointExtension/v1">
            <gpxtpx:hr>147</gpxtpx:hr>
          </gpxtpx:TrackPointExtension>
        </extensions>
      </trkpt>
      <trkpt lat="46.11103" lon="6.26364">
        <ele>588.4</ele>
        <time>2021-03-02T12:26:09Z</time>
        <extensions>
          <gpxtpx:TrackPointExtension xmlns:gpxtpx="http://www.garmin.com/xmlschemas/TrackPointExtension/v1">
            <gpxtpx:hr>147</gpxtpx:hr>
          </gpxtpx:TrackPointExtension>
        </extensions>
      </trkpt>
      <trkpt lat="46.11099" lon="6.26367">
        <ele>588.6</ele>
        <time>2021-03-02T12:26:10Z</time>
        <extensions>
          <gpxtpx:TrackPointExtension xmlns:gpxtpx="http://www.garmin.com/xmlschemas/TrackPointExtension/v1">
            <gpxtpx:hr>147</gpxtpx:hr>
          </gpxtpx:TrackPointExtension>
        </extensions>
      </trkpt>
      <trkpt lat="46.11095" lon="6.2637">
        <ele>588.7</ele>
        <time>2021-03-02T12:26:11Z</time>
        <extensions>
          <gpxtpx:TrackPointExtension xmlns:gpxtpx="http://www.garmin.com/xmlschemas/TrackPointExtension/v1">
            <gpxtpx:hr>147</gpxtpx:hr>
          </gpxtpx:TrackPointExtension>
        </extensions>
      </trkpt>
      <trkpt lat="46.1109" lon="6.26373">
        <ele>588.9</ele>
        <time>2021-03-02T12:26:12Z</time>
        <extensions>
          <gpxtpx:TrackPointExtension xmlns:gpxtpx="http://www.garmin.com/xmlschemas/TrackPointExtension/v1">
            <gpxtpx:hr>147</gpxtpx:hr>
          </gpxtpx:TrackPointExtension>
        </extensions>
      </trkpt>
      <trkpt lat="46.11087" lon="6.26376">
        <ele>589.1</ele>
        <time>2021-03-02T12:26:13Z</time>
        <extensions>
          <gpxtpx:TrackPointExtension xmlns:gpxtpx="http://www.garmin.com/xmlschemas/TrackPointExtension/v1">
            <gpxtpx:hr>147</gpxtpx:hr>
          </gpxtpx:TrackPointExtension>
        </extensions>
      </trkpt>
      <trkpt lat="46.11082" lon="6.26378">
        <ele>589.2</ele>
        <time>2021-03-02T12:26:14Z</time>
        <extensions>
          <gpxtpx:TrackPointExtension xmlns:gpxtpx="http://www.garmin.com/xmlschemas/TrackPointExtension/v1">
            <gpxtpx:hr>147</gpxtpx:hr>
          </gpxtpx:TrackPointExtension>
        </extensions>
      </trkpt>
      <trkpt lat="46.11078" lon="6.26381">
        <ele>589.4</ele>
        <time>2021-03-02T12:26:15Z</time>
        <extensions>
          <gpxtpx:TrackPointExtension xmlns:gpxtpx="http://www.garmin.com/xmlschemas/TrackPointExtension/v1">
            <gpxtpx:hr>147</gpxtpx:hr>
          </gpxtpx:TrackPointExtension>
        </extensions>
      </trkpt>
      <trkpt lat="46.11074" lon="6.26383">
        <ele>589.6</ele>
        <time>2021-03-02T12:26:16Z</time>
        <extensions>
          <gpxtpx:TrackPointExtension xmlns:gpxtpx="http://www.garmin.com/xmlschemas/TrackPointExtension/v1">
            <gpxtpx:hr>147</gpxtpx:hr>
          </gpxtpx:TrackPointExtension>
        </extensions>
      </trkpt>
      <trkpt lat="46.1107" lon="6.26385">
        <ele>589.7</ele>
        <time>2021-03-02T12:26:17Z</time>
        <extensions>
          <gpxtpx:TrackPointExtension xmlns:gpxtpx="http://www.garmin.com/xmlschemas/TrackPointExtension/v1">
            <gpxtpx:hr>147</gpxtpx:hr>
          </gpxtpx:TrackPointExtension>
        </extensions>
      </trkpt>
      <trkpt lat="46.11066" lon="6.26388">
        <ele>589.9</ele>
        <time>2021-03-02T12:26:18Z</time>
        <extensions>
          <gpxtpx:TrackPointExtension xmlns:gpxtpx="http://www.garmin.com/xmlschemas/TrackPointExtension/v1">
            <gpxtpx:hr>147</gpxtpx:hr>
          </gpxtpx:TrackPointExtension>
        </extensions>
      </trkpt>
      <trkpt lat="46.11062" lon="6.2639">
        <ele>590.1</ele>
        <time>2021-03-02T12:26:19Z</time>
        <extensions>
          <gpxtpx:TrackPointExtension xmlns:gpxtpx="http://www.garmin.com/xmlschemas/TrackPointExtension/v1">
            <gpxtpx:hr>147</gpxtpx:hr>
          </gpxtpx:TrackPointExtension>
        </extensions>
      </trkpt>
      <trkpt lat="46.11058" lon="6.26392">
        <ele>590.3</ele>
        <time>2021-03-02T12:26:20Z</time>
        <extensions>
          <gpxtpx:TrackPointExtension xmlns:gpxtpx="http://www.garmin.com/xmlschemas/TrackPointExtension/v1">
            <gpxtpx:hr>147</gpxtpx:hr>
          </gpxtpx:TrackPointExtension>
        </extensions>
      </trkpt>
      <trkpt lat="46.11054" lon="6.26394">
        <ele>590.4</ele>
        <time>2021-03-02T12:26:21Z</time>
        <extensions>
          <gpxtpx:TrackPointExtension xmlns:gpxtpx="http://www.garmin.com/xmlschemas/TrackPointExtension/v1">
            <gpxtpx:hr>147</gpxtpx:hr>
          </gpxtpx:TrackPointExtension>
        </extensions>
      </trkpt>
      <trkpt lat="46.1105" lon="6.26397">
        <ele>590.6</ele>
        <time>2021-03-02T12:26:22Z</time>
        <extensions>
          <gpxtpx:TrackPointExtension xmlns:gpxtpx="http://www.garmin.com/xmlschemas/TrackPointExtension/v1">
            <gpxtpx:hr>146</gpxtpx:hr>
          </gpxtpx:TrackPointExtension>
        </extensions>
      </trkpt>
      <trkpt lat="46.11046" lon="6.26399">
        <ele>590.7</ele>
        <time>2021-03-02T12:26:23Z</time>
        <extensions>
          <gpxtpx:TrackPointExtension xmlns:gpxtpx="http://www.garmin.com/xmlschemas/TrackPointExtension/v1">
            <gpxtpx:hr>146</gpxtpx:hr>
          </gpxtpx:TrackPointExtension>
        </extensions>
      </trkpt>
      <trkpt lat="46.11042" lon="6.26401">
        <ele>590.9</ele>
        <time>2021-03-02T12:26:24Z</time>
        <extensions>
          <gpxtpx:TrackPointExtension xmlns:gpxtpx="http://www.garmin.com/xmlschemas/TrackPointExtension/v1">
            <gpxtpx:hr>146</gpxtpx:hr>
          </gpxtpx:TrackPointExtension>
        </extensions>
      </trkpt>
      <trkpt lat="46.11038" lon="6.26403">
        <ele>591</ele>
        <time>2021-03-02T12:26:25Z</time>
        <extensions>
          <gpxtpx:TrackPointExtension xmlns:gpxtpx="http://www.garmin.com/xmlschemas/TrackPointExtension/v1">
            <gpxtpx:hr>146</gpxtpx:hr>
          </gpxtpx:TrackPointExtension>
        </extensions>
      </trkpt>
      <trkpt lat="46.11034" lon="6.26405">
        <ele>591.2</ele>
        <time>2021-03-02T12:26:26Z</time>
        <extensions>
          <gpxtpx:TrackPointExtension xmlns:gpxtpx="http://www.garmin.com/xmlschemas/TrackPointExtension/v1">
            <gpxtpx:hr>146</gpxtpx:hr>
          </gpxtpx:TrackPointExtension>
        </extensions>
      </trkpt>
      <trkpt lat="46.1103" lon="6.26407">
        <ele>591.3</ele>
        <time>2021-03-02T12:26:27Z</time>
        <extensions>
          <gpxtpx:TrackPointExtension xmlns:gpxtpx="http://www.garmin.com/xmlschemas/TrackPointExtension/v1">
            <gpxtpx:hr>146</gpxtpx:hr>
          </gpxtpx:TrackPointExtension>
        </extensions>
      </trkpt>
      <trkpt lat="46.11026" lon="6.26408">
        <ele>591.5</ele>
        <time>2021-03-02T12:26:28Z</time>
        <extensions>
          <gpxtpx:TrackPointExtension xmlns:gpxtpx="http://www.garmin.com/xmlschemas/TrackPointExtension/v1">
            <gpxtpx:hr>146</gpxtpx:hr>
          </gpxtpx:TrackPointExtension>
        </extensions>
      </trkpt>
      <trkpt lat="46.11022" lon="6.2641">
        <ele>591.6</ele>
        <time>2021-03-02T12:26:29Z</time>
        <extensions>
          <gpxtpx:TrackPointExtension xmlns:gpxtpx="http://www.garmin.com/xmlschemas/TrackPointExtension/v1">
            <gpxtpx:hr>145</gpxtpx:hr>
          </gpxtpx:TrackPointExtension>
        </extensions>
      </trkpt>
      <trkpt lat="46.11018" lon="6.26411">
        <ele>591.8</ele>
        <time>2021-03-02T12:26:30Z</time>
        <extensions>
          <gpxtpx:TrackPointExtension xmlns:gpxtpx="http://www.garmin.com/xmlschemas/TrackPointExtension/v1">
            <gpxtpx:hr>144</gpxtpx:hr>
          </gpxtpx:TrackPointExtension>
        </extensions>
      </trkpt>
      <trkpt lat="46.11014" lon="6.26412">
        <ele>592</ele>
        <time>2021-03-02T12:26:31Z</time>
        <extensions>
          <gpxtpx:TrackPointExtension xmlns:gpxtpx="http://www.garmin.com/xmlschemas/TrackPointExtension/v1">
            <gpxtpx:hr>144</gpxtpx:hr>
          </gpxtpx:TrackPointExtension>
        </extensions>
      </trkpt>
      <trkpt lat="46.11009" lon="6.26414">
        <ele>592.2</ele>
        <time>2021-03-02T12:26:32Z</time>
        <extensions>
          <gpxtpx:TrackPointExtension xmlns:gpxtpx="http://www.garmin.com/xmlschemas/TrackPointExtension/v1">
            <gpxtpx:hr>143</gpxtpx:hr>
          </gpxtpx:TrackPointExtension>
        </extensions>
      </trkpt>
      <trkpt lat="46.11005" lon="6.26415">
        <ele>592.3</ele>
        <time>2021-03-02T12:26:33Z</time>
        <extensions>
          <gpxtpx:TrackPointExtension xmlns:gpxtpx="http://www.garmin.com/xmlschemas/TrackPointExtension/v1">
            <gpxtpx:hr>142</gpxtpx:hr>
          </gpxtpx:TrackPointExtension>
        </extensions>
      </trkpt>
      <trkpt lat="46.11001" lon="6.26416">
        <ele>592.5</ele>
        <time>2021-03-02T12:26:34Z</time>
        <extensions>
          <gpxtpx:TrackPointExtension xmlns:gpxtpx="http://www.garmin.com/xmlschemas/TrackPointExtension/v1">
            <gpxtpx:hr>141</gpxtpx:hr>
          </gpxtpx:TrackPointExtension>
        </extensions>
      </trkpt>
      <trkpt lat="46.10997" lon="6.26417">
        <ele>592.7</ele>
        <time>2021-03-02T12:26:35Z</time>
        <extensions>
          <gpxtpx:TrackPointExtension xmlns:gpxtpx="http://www.garmin.com/xmlschemas/TrackPointExtension/v1">
            <gpxtpx:hr>141</gpxtpx:hr>
          </gpxtpx:TrackPointExtension>
        </extensions>
      </trkpt>
      <trkpt lat="46.10993" lon="6.26417">
        <ele>592.8</ele>
        <time>2021-03-02T12:26:36Z</time>
        <extensions>
          <gpxtpx:TrackPointExtension xmlns:gpxtpx="http://www.garmin.com/xmlschemas/TrackPointExtension/v1">
            <gpxtpx:hr>140</gpxtpx:hr>
          </gpxtpx:TrackPointExtension>
        </extensions>
      </trkpt>
      <trkpt lat="46.10989" lon="6.26418">
        <ele>593</ele>
        <time>2021-03-02T12:26:37Z</time>
        <extensions>
          <gpxtpx:TrackPointExtension xmlns:gpxtpx="http://www.garmin.com/xmlschemas/TrackPointExtension/v1">
            <gpxtpx:hr>140</gpxtpx:hr>
          </gpxtpx:TrackPointExtension>
        </extensions>
      </trkpt>
      <trkpt lat="46.10985" lon="6.26419">
        <ele>593.2</ele>
        <time>2021-03-02T12:26:38Z</time>
        <extensions>
          <gpxtpx:TrackPointExtension xmlns:gpxtpx="http://www.garmin.com/xmlschemas/TrackPointExtension/v1">
            <gpxtpx:hr>140</gpxtpx:hr>
          </gpxtpx:TrackPointExtension>
        </extensions>
      </trkpt>
      <trkpt lat="46.1098" lon="6.2642">
        <ele>593.3</ele>
        <time>2021-03-02T12:26:39Z</time>
        <extensions>
          <gpxtpx:TrackPointExtension xmlns:gpxtpx="http://www.garmin.com/xmlschemas/TrackPointExtension/v1">
            <gpxtpx:hr>140</gpxtpx:hr>
          </gpxtpx:TrackPointExtension>
        </extensions>
      </trkpt>
      <trkpt lat="46.10976" lon="6.26421">
        <ele>593.5</ele>
        <time>2021-03-02T12:26:40Z</time>
        <extensions>
          <gpxtpx:TrackPointExtension xmlns:gpxtpx="http://www.garmin.com/xmlschemas/TrackPointExtension/v1">
            <gpxtpx:hr>139</gpxtpx:hr>
          </gpxtpx:TrackPointExtension>
        </extensions>
      </trkpt>
      <trkpt lat="46.10972" lon="6.26422">
        <ele>593.6</ele>
        <time>2021-03-02T12:26:41Z</time>
        <extensions>
          <gpxtpx:TrackPointExtension xmlns:gpxtpx="http://www.garmin.com/xmlschemas/TrackPointExtension/v1">
            <gpxtpx:hr>139</gpxtpx:hr>
          </gpxtpx:TrackPointExtension>
        </extensions>
      </trkpt>
      <trkpt lat="46.10967" lon="6.26423">
        <ele>593.8</ele>
        <time>2021-03-02T12:26:42Z</time>
        <extensions>
          <gpxtpx:TrackPointExtension xmlns:gpxtpx="http://www.garmin.com/xmlschemas/TrackPointExtension/v1">
            <gpxtpx:hr>139</gpxtpx:hr>
          </gpxtpx:TrackPointExtension>
        </extensions>
      </trkpt>
      <trkpt lat="46.10963" lon="6.26424">
        <ele>593.9</ele>
        <time>2021-03-02T12:26:43Z</time>
        <extensions>
          <gpxtpx:TrackPointExtension xmlns:gpxtpx="http://www.garmin.com/xmlschemas/TrackPointExtension/v1">
            <gpxtpx:hr>139</gpxtpx:hr>
          </gpxtpx:TrackPointExtension>
        </extensions>
      </trkpt>
      <trkpt lat="46.10958" lon="6.26425">
        <ele>594.1</ele>
        <time>2021-03-02T12:26:44Z</time>
        <extensions>
          <gpxtpx:TrackPointExtension xmlns:gpxtpx="http://www.garmin.com/xmlschemas/TrackPointExtension/v1">
            <gpxtpx:hr>139</gpxtpx:hr>
          </gpxtpx:TrackPointExtension>
        </extensions>
      </trkpt>
      <trkpt lat="46.10953" lon="6.26426">
        <ele>594.2</ele>
        <time>2021-03-02T12:26:45Z</time>
        <extensions>
          <gpxtpx:TrackPointExtension xmlns:gpxtpx="http://www.garmin.com/xmlschemas/TrackPointExtension/v1">
            <gpxtpx:hr>139</gpxtpx:hr>
          </gpxtpx:TrackPointExtension>
        </extensions>
      </trkpt>
      <trkpt lat="46.10949" lon="6.26428">
        <ele>594.3</ele>
        <time>2021-03-02T12:26:46Z</time>
        <extensions>
          <gpxtpx:TrackPointExtension xmlns:gpxtpx="http://www.garmin.com/xmlschemas/TrackPointExtension/v1">
            <gpxtpx:hr>139</gpxtpx:hr>
          </gpxtpx:TrackPointExtension>
        </extensions>
      </trkpt>
      <trkpt lat="46.10944" lon="6.26429">
        <ele>594.4</ele>
        <time>2021-03-02T12:26:47Z</time>
        <extensions>
          <gpxtpx:TrackPointExtension xmlns:gpxtpx="http://www.garmin.com/xmlschemas/TrackPointExtension/v1">
            <gpxtpx:hr>139</gpxtpx:hr>
          </gpxtpx:TrackPointExtension>
        </extensions>
      </trkpt>
      <trkpt lat="46.10939" lon="6.26431">
        <ele>594.5</ele>
        <time>2021-03-02T12:26:48Z</time>
        <extensions>
          <gpxtpx:TrackPointExtension xmlns:gpxtpx="http://www.garmin.com/xmlschemas/TrackPointExtension/v1">
            <gpxtpx:hr>139</gpxtpx:hr>
          </gpxtpx:TrackPointExtension>
        </extensions>
      </trkpt>
      <trkpt lat="46.10934" lon="6.26432">
        <ele>594.5</ele>
        <time>2021-03-02T12:26:49Z</time>
        <extensions>
          <gpxtpx:TrackPointExtension xmlns:gpxtpx="http://www.garmin.com/xmlschemas/TrackPointExtension/v1">
            <gpxtpx:hr>139</gpxtpx:hr>
          </gpxtpx:TrackPointExtension>
        </extensions>
      </trkpt>
      <trkpt lat="46.1093" lon="6.26433">
        <ele>594.6</ele>
        <time>2021-03-02T12:26:50Z</time>
        <extensions>
          <gpxtpx:TrackPointExtension xmlns:gpxtpx="http://www.garmin.com/xmlschemas/TrackPointExtension/v1">
            <gpxtpx:hr>139</gpxtpx:hr>
          </gpxtpx:TrackPointExtension>
        </extensions>
      </trkpt>
      <trkpt lat="46.10925" lon="6.26434">
        <ele>594.7</ele>
        <time>2021-03-02T12:26:51Z</time>
        <extensions>
          <gpxtpx:TrackPointExtension xmlns:gpxtpx="http://www.garmin.com/xmlschemas/TrackPointExtension/v1">
            <gpxtpx:hr>139</gpxtpx:hr>
          </gpxtpx:TrackPointExtension>
        </extensions>
      </trkpt>
      <trkpt lat="46.1092" lon="6.26434">
        <ele>594.8</ele>
        <time>2021-03-02T12:26:52Z</time>
        <extensions>
          <gpxtpx:TrackPointExtension xmlns:gpxtpx="http://www.garmin.com/xmlschemas/TrackPointExtension/v1">
            <gpxtpx:hr>139</gpxtpx:hr>
          </gpxtpx:TrackPointExtension>
        </extensions>
      </trkpt>
      <trkpt lat="46.10915" lon="6.26434">
        <ele>594.9</ele>
        <time>2021-03-02T12:26:53Z</time>
        <extensions>
          <gpxtpx:TrackPointExtension xmlns:gpxtpx="http://www.garmin.com/xmlschemas/TrackPointExtension/v1">
            <gpxtpx:hr>138</gpxtpx:hr>
          </gpxtpx:TrackPointExtension>
        </extensions>
      </trkpt>
      <trkpt lat="46.1091" lon="6.26433">
        <ele>595</ele>
        <time>2021-03-02T12:26:54Z</time>
        <extensions>
          <gpxtpx:TrackPointExtension xmlns:gpxtpx="http://www.garmin.com/xmlschemas/TrackPointExtension/v1">
            <gpxtpx:hr>138</gpxtpx:hr>
          </gpxtpx:TrackPointExtension>
        </extensions>
      </trkpt>
      <trkpt lat="46.10905" lon="6.26432">
        <ele>595.2</ele>
        <time>2021-03-02T12:26:55Z</time>
        <extensions>
          <gpxtpx:TrackPointExtension xmlns:gpxtpx="http://www.garmin.com/xmlschemas/TrackPointExtension/v1">
            <gpxtpx:hr>137</gpxtpx:hr>
          </gpxtpx:TrackPointExtension>
        </extensions>
      </trkpt>
      <trkpt lat="46.10901" lon="6.2643">
        <ele>595.3</ele>
        <time>2021-03-02T12:26:56Z</time>
        <extensions>
          <gpxtpx:TrackPointExtension xmlns:gpxtpx="http://www.garmin.com/xmlschemas/TrackPointExtension/v1">
            <gpxtpx:hr>137</gpxtpx:hr>
          </gpxtpx:TrackPointExtension>
        </extensions>
      </trkpt>
      <trkpt lat="46.10897" lon="6.26429">
        <ele>595.7</ele>
        <time>2021-03-02T12:26:57Z</time>
        <extensions>
          <gpxtpx:TrackPointExtension xmlns:gpxtpx="http://www.garmin.com/xmlschemas/TrackPointExtension/v1">
            <gpxtpx:hr>136</gpxtpx:hr>
          </gpxtpx:TrackPointExtension>
        </extensions>
      </trkpt>
      <trkpt lat="46.10892" lon="6.26428">
        <ele>596</ele>
        <time>2021-03-02T12:26:58Z</time>
        <extensions>
          <gpxtpx:TrackPointExtension xmlns:gpxtpx="http://www.garmin.com/xmlschemas/TrackPointExtension/v1">
            <gpxtpx:hr>136</gpxtpx:hr>
          </gpxtpx:TrackPointExtension>
        </extensions>
      </trkpt>
      <trkpt lat="46.10888" lon="6.26427">
        <ele>596.4</ele>
        <time>2021-03-02T12:26:59Z</time>
        <extensions>
          <gpxtpx:TrackPointExtension xmlns:gpxtpx="http://www.garmin.com/xmlschemas/TrackPointExtension/v1">
            <gpxtpx:hr>136</gpxtpx:hr>
          </gpxtpx:TrackPointExtension>
        </extensions>
      </trkpt>
      <trkpt lat="46.10884" lon="6.26426">
        <ele>596.7</ele>
        <time>2021-03-02T12:27:00Z</time>
        <extensions>
          <gpxtpx:TrackPointExtension xmlns:gpxtpx="http://www.garmin.com/xmlschemas/TrackPointExtension/v1">
            <gpxtpx:hr>135</gpxtpx:hr>
          </gpxtpx:TrackPointExtension>
        </extensions>
      </trkpt>
      <trkpt lat="46.1088" lon="6.26426">
        <ele>597.1</ele>
        <time>2021-03-02T12:27:01Z</time>
        <extensions>
          <gpxtpx:TrackPointExtension xmlns:gpxtpx="http://www.garmin.com/xmlschemas/TrackPointExtension/v1">
            <gpxtpx:hr>135</gpxtpx:hr>
          </gpxtpx:TrackPointExtension>
        </extensions>
      </trkpt>
      <trkpt lat="46.10876" lon="6.26426">
        <ele>597.5</ele>
        <time>2021-03-02T12:27:02Z</time>
        <extensions>
          <gpxtpx:TrackPointExtension xmlns:gpxtpx="http://www.garmin.com/xmlschemas/TrackPointExtension/v1">
            <gpxtpx:hr>135</gpxtpx:hr>
          </gpxtpx:TrackPointExtension>
        </extensions>
      </trkpt>
      <trkpt lat="46.10872" lon="6.26427">
        <ele>597.9</ele>
        <time>2021-03-02T12:27:03Z</time>
        <extensions>
          <gpxtpx:TrackPointExtension xmlns:gpxtpx="http://www.garmin.com/xmlschemas/TrackPointExtension/v1">
            <gpxtpx:hr>135</gpxtpx:hr>
          </gpxtpx:TrackPointExtension>
        </extensions>
      </trkpt>
      <trkpt lat="46.10869" lon="6.26428">
        <ele>598.2</ele>
        <time>2021-03-02T12:27:04Z</time>
        <extensions>
          <gpxtpx:TrackPointExtension xmlns:gpxtpx="http://www.garmin.com/xmlschemas/TrackPointExtension/v1">
            <gpxtpx:hr>135</gpxtpx:hr>
          </gpxtpx:TrackPointExtension>
        </extensions>
      </trkpt>
      <trkpt lat="46.10865" lon="6.2643">
        <ele>598.5</ele>
        <time>2021-03-02T12:27:05Z</time>
        <extensions>
          <gpxtpx:TrackPointExtension xmlns:gpxtpx="http://www.garmin.com/xmlschemas/TrackPointExtension/v1">
            <gpxtpx:hr>135</gpxtpx:hr>
          </gpxtpx:TrackPointExtension>
        </extensions>
      </trkpt>
      <trkpt lat="46.10862" lon="6.26432">
        <ele>598.4</ele>
        <time>2021-03-02T12:27:06Z</time>
        <extensions>
          <gpxtpx:TrackPointExtension xmlns:gpxtpx="http://www.garmin.com/xmlschemas/TrackPointExtension/v1">
            <gpxtpx:hr>135</gpxtpx:hr>
          </gpxtpx:TrackPointExtension>
        </extensions>
      </trkpt>
      <trkpt lat="46.10859" lon="6.26434">
        <ele>598.6</ele>
        <time>2021-03-02T12:27:07Z</time>
        <extensions>
          <gpxtpx:TrackPointExtension xmlns:gpxtpx="http://www.garmin.com/xmlschemas/TrackPointExtension/v1">
            <gpxtpx:hr>135</gpxtpx:hr>
          </gpxtpx:TrackPointExtension>
        </extensions>
      </trkpt>
      <trkpt lat="46.10856" lon="6.26437">
        <ele>598.9</ele>
        <time>2021-03-02T12:27:08Z</time>
        <extensions>
          <gpxtpx:TrackPointExtension xmlns:gpxtpx="http://www.garmin.com/xmlschemas/TrackPointExtension/v1">
            <gpxtpx:hr>135</gpxtpx:hr>
          </gpxtpx:TrackPointExtension>
        </extensions>
      </trkpt>
      <trkpt lat="46.10854" lon="6.2644">
        <ele>599.1</ele>
        <time>2021-03-02T12:27:09Z</time>
        <extensions>
          <gpxtpx:TrackPointExtension xmlns:gpxtpx="http://www.garmin.com/xmlschemas/TrackPointExtension/v1">
            <gpxtpx:hr>135</gpxtpx:hr>
          </gpxtpx:TrackPointExtension>
        </extensions>
      </trkpt>
      <trkpt lat="46.10851" lon="6.26442">
        <ele>599.3</ele>
        <time>2021-03-02T12:27:10Z</time>
        <extensions>
          <gpxtpx:TrackPointExtension xmlns:gpxtpx="http://www.garmin.com/xmlschemas/TrackPointExtension/v1">
            <gpxtpx:hr>135</gpxtpx:hr>
          </gpxtpx:TrackPointExtension>
        </extensions>
      </trkpt>
      <trkpt lat="46.10848" lon="6.26445">
        <ele>599.5</ele>
        <time>2021-03-02T12:27:11Z</time>
        <extensions>
          <gpxtpx:TrackPointExtension xmlns:gpxtpx="http://www.garmin.com/xmlschemas/TrackPointExtension/v1">
            <gpxtpx:hr>135</gpxtpx:hr>
          </gpxtpx:TrackPointExtension>
        </extensions>
      </trkpt>
      <trkpt lat="46.10846" lon="6.26447">
        <ele>599.7</ele>
        <time>2021-03-02T12:27:12Z</time>
        <extensions>
          <gpxtpx:TrackPointExtension xmlns:gpxtpx="http://www.garmin.com/xmlschemas/TrackPointExtension/v1">
            <gpxtpx:hr>135</gpxtpx:hr>
          </gpxtpx:TrackPointExtension>
        </extensions>
      </trkpt>
      <trkpt lat="46.10844" lon="6.2645">
        <ele>599.9</ele>
        <time>2021-03-02T12:27:13Z</time>
        <extensions>
          <gpxtpx:TrackPointExtension xmlns:gpxtpx="http://www.garmin.com/xmlschemas/TrackPointExtension/v1">
            <gpxtpx:hr>136</gpxtpx:hr>
          </gpxtpx:TrackPointExtension>
        </extensions>
      </trkpt>
      <trkpt lat="46.10841" lon="6.26453">
        <ele>600.1</ele>
        <time>2021-03-02T12:27:14Z</time>
        <extensions>
          <gpxtpx:TrackPointExtension xmlns:gpxtpx="http://www.garmin.com/xmlschemas/TrackPointExtension/v1">
            <gpxtpx:hr>136</gpxtpx:hr>
          </gpxtpx:TrackPointExtension>
        </extensions>
      </trkpt>
      <trkpt lat="46.10839" lon="6.26456">
        <ele>600.3</ele>
        <time>2021-03-02T12:27:15Z</time>
        <extensions>
          <gpxtpx:TrackPointExtension xmlns:gpxtpx="http://www.garmin.com/xmlschemas/TrackPointExtension/v1">
            <gpxtpx:hr>136</gpxtpx:hr>
          </gpxtpx:TrackPointExtension>
        </extensions>
      </trkpt>
      <trkpt lat="46.10837" lon="6.26459">
        <ele>600.5</ele>
        <time>2021-03-02T12:27:16Z</time>
        <extensions>
          <gpxtpx:TrackPointExtension xmlns:gpxtpx="http://www.garmin.com/xmlschemas/TrackPointExtension/v1">
            <gpxtpx:hr>136</gpxtpx:hr>
          </gpxtpx:TrackPointExtension>
        </extensions>
      </trkpt>
      <trkpt lat="46.10834" lon="6.26462">
        <ele>600.7</ele>
        <time>2021-03-02T12:27:17Z</time>
        <extensions>
          <gpxtpx:TrackPointExtension xmlns:gpxtpx="http://www.garmin.com/xmlschemas/TrackPointExtension/v1">
            <gpxtpx:hr>137</gpxtpx:hr>
          </gpxtpx:TrackPointExtension>
        </extensions>
      </trkpt>
      <trkpt lat="46.10832" lon="6.26465">
        <ele>600.9</ele>
        <time>2021-03-02T12:27:18Z</time>
        <extensions>
          <gpxtpx:TrackPointExtension xmlns:gpxtpx="http://www.garmin.com/xmlschemas/TrackPointExtension/v1">
            <gpxtpx:hr>137</gpxtpx:hr>
          </gpxtpx:TrackPointExtension>
        </extensions>
      </trkpt>
      <trkpt lat="46.10829" lon="6.26468">
        <ele>601.1</ele>
        <time>2021-03-02T12:27:19Z</time>
        <extensions>
          <gpxtpx:TrackPointExtension xmlns:gpxtpx="http://www.garmin.com/xmlschemas/TrackPointExtension/v1">
            <gpxtpx:hr>137</gpxtpx:hr>
          </gpxtpx:TrackPointExtension>
        </extensions>
      </trkpt>
      <trkpt lat="46.10827" lon="6.26471">
        <ele>601.3</ele>
        <time>2021-03-02T12:27:20Z</time>
        <extensions>
          <gpxtpx:TrackPointExtension xmlns:gpxtpx="http://www.garmin.com/xmlschemas/TrackPointExtension/v1">
            <gpxtpx:hr>137</gpxtpx:hr>
          </gpxtpx:TrackPointExtension>
        </extensions>
      </trkpt>
      <trkpt lat="46.10824" lon="6.26474">
        <ele>601.5</ele>
        <time>2021-03-02T12:27:21Z</time>
        <extensions>
          <gpxtpx:TrackPointExtension xmlns:gpxtpx="http://www.garmin.com/xmlschemas/TrackPointExtension/v1">
            <gpxtpx:hr>138</gpxtpx:hr>
          </gpxtpx:TrackPointExtension>
        </extensions>
      </trkpt>
      <trkpt lat="46.10822" lon="6.26476">
        <ele>601.7</ele>
        <time>2021-03-02T12:27:22Z</time>
        <extensions>
          <gpxtpx:TrackPointExtension xmlns:gpxtpx="http://www.garmin.com/xmlschemas/TrackPointExtension/v1">
            <gpxtpx:hr>138</gpxtpx:hr>
          </gpxtpx:TrackPointExtension>
        </extensions>
      </trkpt>
      <trkpt lat="46.10819" lon="6.26479">
        <ele>601.9</ele>
        <time>2021-03-02T12:27:23Z</time>
        <extensions>
          <gpxtpx:TrackPointExtension xmlns:gpxtpx="http://www.garmin.com/xmlschemas/TrackPointExtension/v1">
            <gpxtpx:hr>139</gpxtpx:hr>
          </gpxtpx:TrackPointExtension>
        </extensions>
      </trkpt>
      <trkpt lat="46.10817" lon="6.26481">
        <ele>602.1</ele>
        <time>2021-03-02T12:27:24Z</time>
        <extensions>
          <gpxtpx:TrackPointExtension xmlns:gpxtpx="http://www.garmin.com/xmlschemas/TrackPointExtension/v1">
            <gpxtpx:hr>139</gpxtpx:hr>
          </gpxtpx:TrackPointExtension>
        </extensions>
      </trkpt>
      <trkpt lat="46.10814" lon="6.26484">
        <ele>602.3</ele>
        <time>2021-03-02T12:27:25Z</time>
        <extensions>
          <gpxtpx:TrackPointExtension xmlns:gpxtpx="http://www.garmin.com/xmlschemas/TrackPointExtension/v1">
            <gpxtpx:hr>140</gpxtpx:hr>
          </gpxtpx:TrackPointExtension>
        </extensions>
      </trkpt>
      <trkpt lat="46.10812" lon="6.26486">
        <ele>602.5</ele>
        <time>2021-03-02T12:27:26Z</time>
        <extensions>
          <gpxtpx:TrackPointExtension xmlns:gpxtpx="http://www.garmin.com/xmlschemas/TrackPointExtension/v1">
            <gpxtpx:hr>140</gpxtpx:hr>
          </gpxtpx:TrackPointExtension>
        </extensions>
      </trkpt>
      <trkpt lat="46.10809" lon="6.26489">
        <ele>602.7</ele>
        <time>2021-03-02T12:27:27Z</time>
        <extensions>
          <gpxtpx:TrackPointExtension xmlns:gpxtpx="http://www.garmin.com/xmlschemas/TrackPointExtension/v1">
            <gpxtpx:hr>141</gpxtpx:hr>
          </gpxtpx:TrackPointExtension>
        </extensions>
      </trkpt>
      <trkpt lat="46.10807" lon="6.26491">
        <ele>602.9</ele>
        <time>2021-03-02T12:27:28Z</time>
        <extensions>
          <gpxtpx:TrackPointExtension xmlns:gpxtpx="http://www.garmin.com/xmlschemas/TrackPointExtension/v1">
            <gpxtpx:hr>141</gpxtpx:hr>
          </gpxtpx:TrackPointExtension>
        </extensions>
      </trkpt>
      <trkpt lat="46.10804" lon="6.26493">
        <ele>603.1</ele>
        <time>2021-03-02T12:27:29Z</time>
        <extensions>
          <gpxtpx:TrackPointExtension xmlns:gpxtpx="http://www.garmin.com/xmlschemas/TrackPointExtension/v1">
            <gpxtpx:hr>141</gpxtpx:hr>
          </gpxtpx:TrackPointExtension>
        </extensions>
      </trkpt>
      <trkpt lat="46.10802" lon="6.26495">
        <ele>603.3</ele>
        <time>2021-03-02T12:27:30Z</time>
        <extensions>
          <gpxtpx:TrackPointExtension xmlns:gpxtpx="http://www.garmin.com/xmlschemas/TrackPointExtension/v1">
            <gpxtpx:hr>142</gpxtpx:hr>
          </gpxtpx:TrackPointExtension>
        </extensions>
      </trkpt>
      <trkpt lat="46.108" lon="6.26497">
        <ele>603.5</ele>
        <time>2021-03-02T12:27:31Z</time>
        <extensions>
          <gpxtpx:TrackPointExtension xmlns:gpxtpx="http://www.garmin.com/xmlschemas/TrackPointExtension/v1">
            <gpxtpx:hr>142</gpxtpx:hr>
          </gpxtpx:TrackPointExtension>
        </extensions>
      </trkpt>
      <trkpt lat="46.10797" lon="6.26499">
        <ele>603.8</ele>
        <time>2021-03-02T12:27:32Z</time>
        <extensions>
          <gpxtpx:TrackPointExtension xmlns:gpxtpx="http://www.garmin.com/xmlschemas/TrackPointExtension/v1">
            <gpxtpx:hr>142</gpxtpx:hr>
          </gpxtpx:TrackPointExtension>
        </extensions>
      </trkpt>
      <trkpt lat="46.10795" lon="6.26501">
        <ele>604</ele>
        <time>2021-03-02T12:27:33Z</time>
        <extensions>
          <gpxtpx:TrackPointExtension xmlns:gpxtpx="http://www.garmin.com/xmlschemas/TrackPointExtension/v1">
            <gpxtpx:hr>142</gpxtpx:hr>
          </gpxtpx:TrackPointExtension>
        </extensions>
      </trkpt>
      <trkpt lat="46.10792" lon="6.26503">
        <ele>604.2</ele>
        <time>2021-03-02T12:27:34Z</time>
        <extensions>
          <gpxtpx:TrackPointExtension xmlns:gpxtpx="http://www.garmin.com/xmlschemas/TrackPointExtension/v1">
            <gpxtpx:hr>142</gpxtpx:hr>
          </gpxtpx:TrackPointExtension>
        </extensions>
      </trkpt>
      <trkpt lat="46.1079" lon="6.26506">
        <ele>604.5</ele>
        <time>2021-03-02T12:27:35Z</time>
        <extensions>
          <gpxtpx:TrackPointExtension xmlns:gpxtpx="http://www.garmin.com/xmlschemas/TrackPointExtension/v1">
            <gpxtpx:hr>142</gpxtpx:hr>
          </gpxtpx:TrackPointExtension>
        </extensions>
      </trkpt>
      <trkpt lat="46.10787" lon="6.26508">
        <ele>604.7</ele>
        <time>2021-03-02T12:27:36Z</time>
        <extensions>
          <gpxtpx:TrackPointExtension xmlns:gpxtpx="http://www.garmin.com/xmlschemas/TrackPointExtension/v1">
            <gpxtpx:hr>142</gpxtpx:hr>
          </gpxtpx:TrackPointExtension>
        </extensions>
      </trkpt>
      <trkpt lat="46.10784" lon="6.2651">
        <ele>605</ele>
        <time>2021-03-02T12:27:37Z</time>
        <extensions>
          <gpxtpx:TrackPointExtension xmlns:gpxtpx="http://www.garmin.com/xmlschemas/TrackPointExtension/v1">
            <gpxtpx:hr>142</gpxtpx:hr>
          </gpxtpx:TrackPointExtension>
        </extensions>
      </trkpt>
      <trkpt lat="46.10782" lon="6.26512">
        <ele>605.2</ele>
        <time>2021-03-02T12:27:38Z</time>
        <extensions>
          <gpxtpx:TrackPointExtension xmlns:gpxtpx="http://www.garmin.com/xmlschemas/TrackPointExtension/v1">
            <gpxtpx:hr>142</gpxtpx:hr>
          </gpxtpx:TrackPointExtension>
        </extensions>
      </trkpt>
      <trkpt lat="46.10779" lon="6.26514">
        <ele>605.5</ele>
        <time>2021-03-02T12:27:39Z</time>
        <extensions>
          <gpxtpx:TrackPointExtension xmlns:gpxtpx="http://www.garmin.com/xmlschemas/TrackPointExtension/v1">
            <gpxtpx:hr>143</gpxtpx:hr>
          </gpxtpx:TrackPointExtension>
        </extensions>
      </trkpt>
      <trkpt lat="46.10777" lon="6.26516">
        <ele>605.7</ele>
        <time>2021-03-02T12:27:40Z</time>
        <extensions>
          <gpxtpx:TrackPointExtension xmlns:gpxtpx="http://www.garmin.com/xmlschemas/TrackPointExtension/v1">
            <gpxtpx:hr>143</gpxtpx:hr>
          </gpxtpx:TrackPointExtension>
        </extensions>
      </trkpt>
      <trkpt lat="46.10774" lon="6.26518">
        <ele>606</ele>
        <time>2021-03-02T12:27:41Z</time>
        <extensions>
          <gpxtpx:TrackPointExtension xmlns:gpxtpx="http://www.garmin.com/xmlschemas/TrackPointExtension/v1">
            <gpxtpx:hr>143</gpxtpx:hr>
          </gpxtpx:TrackPointExtension>
        </extensions>
      </trkpt>
      <trkpt lat="46.10772" lon="6.2652">
        <ele>606.2</ele>
        <time>2021-03-02T12:27:42Z</time>
        <extensions>
          <gpxtpx:TrackPointExtension xmlns:gpxtpx="http://www.garmin.com/xmlschemas/TrackPointExtension/v1">
            <gpxtpx:hr>143</gpxtpx:hr>
          </gpxtpx:TrackPointExtension>
        </extensions>
      </trkpt>
      <trkpt lat="46.10769" lon="6.26522">
        <ele>606.5</ele>
        <time>2021-03-02T12:27:43Z</time>
        <extensions>
          <gpxtpx:TrackPointExtension xmlns:gpxtpx="http://www.garmin.com/xmlschemas/TrackPointExtension/v1">
            <gpxtpx:hr>143</gpxtpx:hr>
          </gpxtpx:TrackPointExtension>
        </extensions>
      </trkpt>
      <trkpt lat="46.10767" lon="6.26524">
        <ele>606.7</ele>
        <time>2021-03-02T12:27:44Z</time>
        <extensions>
          <gpxtpx:TrackPointExtension xmlns:gpxtpx="http://www.garmin.com/xmlschemas/TrackPointExtension/v1">
            <gpxtpx:hr>144</gpxtpx:hr>
          </gpxtpx:TrackPointExtension>
        </extensions>
      </trkpt>
      <trkpt lat="46.10764" lon="6.26526">
        <ele>607</ele>
        <time>2021-03-02T12:27:45Z</time>
        <extensions>
          <gpxtpx:TrackPointExtension xmlns:gpxtpx="http://www.garmin.com/xmlschemas/TrackPointExtension/v1">
            <gpxtpx:hr>144</gpxtpx:hr>
          </gpxtpx:TrackPointExtension>
        </extensions>
      </trkpt>
      <trkpt lat="46.10762" lon="6.26528">
        <ele>607.2</ele>
        <time>2021-03-02T12:27:46Z</time>
        <extensions>
          <gpxtpx:TrackPointExtension xmlns:gpxtpx="http://www.garmin.com/xmlschemas/TrackPointExtension/v1">
            <gpxtpx:hr>144</gpxtpx:hr>
          </gpxtpx:TrackPointExtension>
        </extensions>
      </trkpt>
      <trkpt lat="46.10759" lon="6.26529">
        <ele>607.5</ele>
        <time>2021-03-02T12:27:47Z</time>
        <extensions>
          <gpxtpx:TrackPointExtension xmlns:gpxtpx="http://www.garmin.com/xmlschemas/TrackPointExtension/v1">
            <gpxtpx:hr>144</gpxtpx:hr>
          </gpxtpx:TrackPointExtension>
        </extensions>
      </trkpt>
      <trkpt lat="46.10757" lon="6.26531">
        <ele>607.7</ele>
        <time>2021-03-02T12:27:48Z</time>
        <extensions>
          <gpxtpx:TrackPointExtension xmlns:gpxtpx="http://www.garmin.com/xmlschemas/TrackPointExtension/v1">
            <gpxtpx:hr>145</gpxtpx:hr>
          </gpxtpx:TrackPointExtension>
        </extensions>
      </trkpt>
      <trkpt lat="46.10754" lon="6.26533">
        <ele>608</ele>
        <time>2021-03-02T12:27:49Z</time>
        <extensions>
          <gpxtpx:TrackPointExtension xmlns:gpxtpx="http://www.garmin.com/xmlschemas/TrackPointExtension/v1">
            <gpxtpx:hr>145</gpxtpx:hr>
          </gpxtpx:TrackPointExtension>
        </extensions>
      </trkpt>
      <trkpt lat="46.10752" lon="6.26535">
        <ele>608.2</ele>
        <time>2021-03-02T12:27:50Z</time>
        <extensions>
          <gpxtpx:TrackPointExtension xmlns:gpxtpx="http://www.garmin.com/xmlschemas/TrackPointExtension/v1">
            <gpxtpx:hr>145</gpxtpx:hr>
          </gpxtpx:TrackPointExtension>
        </extensions>
      </trkpt>
      <trkpt lat="46.10749" lon="6.26538">
        <ele>608.5</ele>
        <time>2021-03-02T12:27:51Z</time>
        <extensions>
          <gpxtpx:TrackPointExtension xmlns:gpxtpx="http://www.garmin.com/xmlschemas/TrackPointExtension/v1">
            <gpxtpx:hr>145</gpxtpx:hr>
          </gpxtpx:TrackPointExtension>
        </extensions>
      </trkpt>
      <trkpt lat="46.10747" lon="6.2654">
        <ele>608.7</ele>
        <time>2021-03-02T12:27:52Z</time>
        <extensions>
          <gpxtpx:TrackPointExtension xmlns:gpxtpx="http://www.garmin.com/xmlschemas/TrackPointExtension/v1">
            <gpxtpx:hr>145</gpxtpx:hr>
          </gpxtpx:TrackPointExtension>
        </extensions>
      </trkpt>
      <trkpt lat="46.10745" lon="6.26541">
        <ele>609</ele>
        <time>2021-03-02T12:27:53Z</time>
        <extensions>
          <gpxtpx:TrackPointExtension xmlns:gpxtpx="http://www.garmin.com/xmlschemas/TrackPointExtension/v1">
            <gpxtpx:hr>145</gpxtpx:hr>
          </gpxtpx:TrackPointExtension>
        </extensions>
      </trkpt>
      <trkpt lat="46.10742" lon="6.26543">
        <ele>609.2</ele>
        <time>2021-03-02T12:27:54Z</time>
        <extensions>
          <gpxtpx:TrackPointExtension xmlns:gpxtpx="http://www.garmin.com/xmlschemas/TrackPointExtension/v1">
            <gpxtpx:hr>146</gpxtpx:hr>
          </gpxtpx:TrackPointExtension>
        </extensions>
      </trkpt>
      <trkpt lat="46.1074" lon="6.26545">
        <ele>609.5</ele>
        <time>2021-03-02T12:27:55Z</time>
        <extensions>
          <gpxtpx:TrackPointExtension xmlns:gpxtpx="http://www.garmin.com/xmlschemas/TrackPointExtension/v1">
            <gpxtpx:hr>146</gpxtpx:hr>
          </gpxtpx:TrackPointExtension>
        </extensions>
      </trkpt>
      <trkpt lat="46.10737" lon="6.26547">
        <ele>609.7</ele>
        <time>2021-03-02T12:27:56Z</time>
        <extensions>
          <gpxtpx:TrackPointExtension xmlns:gpxtpx="http://www.garmin.com/xmlschemas/TrackPointExtension/v1">
            <gpxtpx:hr>146</gpxtpx:hr>
          </gpxtpx:TrackPointExtension>
        </extensions>
      </trkpt>
      <trkpt lat="46.10735" lon="6.26549">
        <ele>610</ele>
        <time>2021-03-02T12:27:57Z</time>
        <extensions>
          <gpxtpx:TrackPointExtension xmlns:gpxtpx="http://www.garmin.com/xmlschemas/TrackPointExtension/v1">
            <gpxtpx:hr>146</gpxtpx:hr>
          </gpxtpx:TrackPointExtension>
        </extensions>
      </trkpt>
      <trkpt lat="46.10732" lon="6.26551">
        <ele>610.3</ele>
        <time>2021-03-02T12:27:58Z</time>
        <extensions>
          <gpxtpx:TrackPointExtension xmlns:gpxtpx="http://www.garmin.com/xmlschemas/TrackPointExtension/v1">
            <gpxtpx:hr>146</gpxtpx:hr>
          </gpxtpx:TrackPointExtension>
        </extensions>
      </trkpt>
      <trkpt lat="46.1073" lon="6.26553">
        <ele>610.5</ele>
        <time>2021-03-02T12:27:59Z</time>
        <extensions>
          <gpxtpx:TrackPointExtension xmlns:gpxtpx="http://www.garmin.com/xmlschemas/TrackPointExtension/v1">
            <gpxtpx:hr>146</gpxtpx:hr>
          </gpxtpx:TrackPointExtension>
        </extensions>
      </trkpt>
      <trkpt lat="46.10728" lon="6.26555">
        <ele>610.8</ele>
        <time>2021-03-02T12:28:00Z</time>
        <extensions>
          <gpxtpx:TrackPointExtension xmlns:gpxtpx="http://www.garmin.com/xmlschemas/TrackPointExtension/v1">
            <gpxtpx:hr>146</gpxtpx:hr>
          </gpxtpx:TrackPointExtension>
        </extensions>
      </trkpt>
      <trkpt lat="46.10725" lon="6.26556">
        <ele>611</ele>
        <time>2021-03-02T12:28:01Z</time>
        <extensions>
          <gpxtpx:TrackPointExtension xmlns:gpxtpx="http://www.garmin.com/xmlschemas/TrackPointExtension/v1">
            <gpxtpx:hr>146</gpxtpx:hr>
          </gpxtpx:TrackPointExtension>
        </extensions>
      </trkpt>
      <trkpt lat="46.10723" lon="6.26558">
        <ele>611.3</ele>
        <time>2021-03-02T12:28:02Z</time>
        <extensions>
          <gpxtpx:TrackPointExtension xmlns:gpxtpx="http://www.garmin.com/xmlschemas/TrackPointExtension/v1">
            <gpxtpx:hr>146</gpxtpx:hr>
          </gpxtpx:TrackPointExtension>
        </extensions>
      </trkpt>
      <trkpt lat="46.1072" lon="6.2656">
        <ele>611.5</ele>
        <time>2021-03-02T12:28:03Z</time>
        <extensions>
          <gpxtpx:TrackPointExtension xmlns:gpxtpx="http://www.garmin.com/xmlschemas/TrackPointExtension/v1">
            <gpxtpx:hr>147</gpxtpx:hr>
          </gpxtpx:TrackPointExtension>
        </extensions>
      </trkpt>
      <trkpt lat="46.10718" lon="6.26562">
        <ele>611.8</ele>
        <time>2021-03-02T12:28:04Z</time>
        <extensions>
          <gpxtpx:TrackPointExtension xmlns:gpxtpx="http://www.garmin.com/xmlschemas/TrackPointExtension/v1">
            <gpxtpx:hr>147</gpxtpx:hr>
          </gpxtpx:TrackPointExtension>
        </extensions>
      </trkpt>
      <trkpt lat="46.10715" lon="6.26564">
        <ele>612.1</ele>
        <time>2021-03-02T12:28:05Z</time>
        <extensions>
          <gpxtpx:TrackPointExtension xmlns:gpxtpx="http://www.garmin.com/xmlschemas/TrackPointExtension/v1">
            <gpxtpx:hr>147</gpxtpx:hr>
          </gpxtpx:TrackPointExtension>
        </extensions>
      </trkpt>
      <trkpt lat="46.10713" lon="6.26566">
        <ele>612.3</ele>
        <time>2021-03-02T12:28:06Z</time>
        <extensions>
          <gpxtpx:TrackPointExtension xmlns:gpxtpx="http://www.garmin.com/xmlschemas/TrackPointExtension/v1">
            <gpxtpx:hr>147</gpxtpx:hr>
          </gpxtpx:TrackPointExtension>
        </extensions>
      </trkpt>
      <trkpt lat="46.1071" lon="6.26567">
        <ele>612.6</ele>
        <time>2021-03-02T12:28:07Z</time>
        <extensions>
          <gpxtpx:TrackPointExtension xmlns:gpxtpx="http://www.garmin.com/xmlschemas/TrackPointExtension/v1">
            <gpxtpx:hr>147</gpxtpx:hr>
          </gpxtpx:TrackPointExtension>
        </extensions>
      </trkpt>
      <trkpt lat="46.10708" lon="6.26569">
        <ele>612.8</ele>
        <time>2021-03-02T12:28:08Z</time>
        <extensions>
          <gpxtpx:TrackPointExtension xmlns:gpxtpx="http://www.garmin.com/xmlschemas/TrackPointExtension/v1">
            <gpxtpx:hr>148</gpxtpx:hr>
          </gpxtpx:TrackPointExtension>
        </extensions>
      </trkpt>
      <trkpt lat="46.10705" lon="6.26571">
        <ele>613</ele>
        <time>2021-03-02T12:28:09Z</time>
        <extensions>
          <gpxtpx:TrackPointExtension xmlns:gpxtpx="http://www.garmin.com/xmlschemas/TrackPointExtension/v1">
            <gpxtpx:hr>148</gpxtpx:hr>
          </gpxtpx:TrackPointExtension>
        </extensions>
      </trkpt>
      <trkpt lat="46.10703" lon="6.26573">
        <ele>613.3</ele>
        <time>2021-03-02T12:28:10Z</time>
        <extensions>
          <gpxtpx:TrackPointExtension xmlns:gpxtpx="http://www.garmin.com/xmlschemas/TrackPointExtension/v1">
            <gpxtpx:hr>148</gpxtpx:hr>
          </gpxtpx:TrackPointExtension>
        </extensions>
      </trkpt>
      <trkpt lat="46.10701" lon="6.26575">
        <ele>613.5</ele>
        <time>2021-03-02T12:28:11Z</time>
        <extensions>
          <gpxtpx:TrackPointExtension xmlns:gpxtpx="http://www.garmin.com/xmlschemas/TrackPointExtension/v1">
            <gpxtpx:hr>148</gpxtpx:hr>
          </gpxtpx:TrackPointExtension>
        </extensions>
      </trkpt>
      <trkpt lat="46.10698" lon="6.26577">
        <ele>613.8</ele>
        <time>2021-03-02T12:28:12Z</time>
        <extensions>
          <gpxtpx:TrackPointExtension xmlns:gpxtpx="http://www.garmin.com/xmlschemas/TrackPointExtension/v1">
            <gpxtpx:hr>149</gpxtpx:hr>
          </gpxtpx:TrackPointExtension>
        </extensions>
      </trkpt>
      <trkpt lat="46.10696" lon="6.26578">
        <ele>614</ele>
        <time>2021-03-02T12:28:13Z</time>
        <extensions>
          <gpxtpx:TrackPointExtension xmlns:gpxtpx="http://www.garmin.com/xmlschemas/TrackPointExtension/v1">
            <gpxtpx:hr>149</gpxtpx:hr>
          </gpxtpx:TrackPointExtension>
        </extensions>
      </trkpt>
      <trkpt lat="46.10694" lon="6.2658">
        <ele>614.2</ele>
        <time>2021-03-02T12:28:14Z</time>
        <extensions>
          <gpxtpx:TrackPointExtension xmlns:gpxtpx="http://www.garmin.com/xmlschemas/TrackPointExtension/v1">
            <gpxtpx:hr>149</gpxtpx:hr>
          </gpxtpx:TrackPointExtension>
        </extensions>
      </trkpt>
      <trkpt lat="46.10691" lon="6.26582">
        <ele>614.5</ele>
        <time>2021-03-02T12:28:15Z</time>
        <extensions>
          <gpxtpx:TrackPointExtension xmlns:gpxtpx="http://www.garmin.com/xmlschemas/TrackPointExtension/v1">
            <gpxtpx:hr>149</gpxtpx:hr>
          </gpxtpx:TrackPointExtension>
        </extensions>
      </trkpt>
      <trkpt lat="46.10689" lon="6.26584">
        <ele>614.7</ele>
        <time>2021-03-02T12:28:16Z</time>
        <extensions>
          <gpxtpx:TrackPointExtension xmlns:gpxtpx="http://www.garmin.com/xmlschemas/TrackPointExtension/v1">
            <gpxtpx:hr>149</gpxtpx:hr>
          </gpxtpx:TrackPointExtension>
        </extensions>
      </trkpt>
      <trkpt lat="46.10686" lon="6.26586">
        <ele>615</ele>
        <time>2021-03-02T12:28:17Z</time>
        <extensions>
          <gpxtpx:TrackPointExtension xmlns:gpxtpx="http://www.garmin.com/xmlschemas/TrackPointExtension/v1">
            <gpxtpx:hr>150</gpxtpx:hr>
          </gpxtpx:TrackPointExtension>
        </extensions>
      </trkpt>
      <trkpt lat="46.10684" lon="6.26588">
        <ele>615.2</ele>
        <time>2021-03-02T12:28:18Z</time>
        <extensions>
          <gpxtpx:TrackPointExtension xmlns:gpxtpx="http://www.garmin.com/xmlschemas/TrackPointExtension/v1">
            <gpxtpx:hr>150</gpxtpx:hr>
          </gpxtpx:TrackPointExtension>
        </extensions>
      </trkpt>
      <trkpt lat="46.10682" lon="6.2659">
        <ele>615.5</ele>
        <time>2021-03-02T12:28:19Z</time>
        <extensions>
          <gpxtpx:TrackPointExtension xmlns:gpxtpx="http://www.garmin.com/xmlschemas/TrackPointExtension/v1">
            <gpxtpx:hr>150</gpxtpx:hr>
          </gpxtpx:TrackPointExtension>
        </extensions>
      </trkpt>
      <trkpt lat="46.10679" lon="6.26592">
        <ele>615.7</ele>
        <time>2021-03-02T12:28:20Z</time>
        <extensions>
          <gpxtpx:TrackPointExtension xmlns:gpxtpx="http://www.garmin.com/xmlschemas/TrackPointExtension/v1">
            <gpxtpx:hr>150</gpxtpx:hr>
          </gpxtpx:TrackPointExtension>
        </extensions>
      </trkpt>
      <trkpt lat="46.10677" lon="6.26593">
        <ele>616</ele>
        <time>2021-03-02T12:28:21Z</time>
        <extensions>
          <gpxtpx:TrackPointExtension xmlns:gpxtpx="http://www.garmin.com/xmlschemas/TrackPointExtension/v1">
            <gpxtpx:hr>150</gpxtpx:hr>
          </gpxtpx:TrackPointExtension>
        </extensions>
      </trkpt>
      <trkpt lat="46.10674" lon="6.26595">
        <ele>616.2</ele>
        <time>2021-03-02T12:28:22Z</time>
        <extensions>
          <gpxtpx:TrackPointExtension xmlns:gpxtpx="http://www.garmin.com/xmlschemas/TrackPointExtension/v1">
            <gpxtpx:hr>150</gpxtpx:hr>
          </gpxtpx:TrackPointExtension>
        </extensions>
      </trkpt>
      <trkpt lat="46.10672" lon="6.26597">
        <ele>616.5</ele>
        <time>2021-03-02T12:28:23Z</time>
        <extensions>
          <gpxtpx:TrackPointExtension xmlns:gpxtpx="http://www.garmin.com/xmlschemas/TrackPointExtension/v1">
            <gpxtpx:hr>150</gpxtpx:hr>
          </gpxtpx:TrackPointExtension>
        </extensions>
      </trkpt>
      <trkpt lat="46.1067" lon="6.26599">
        <ele>616.7</ele>
        <time>2021-03-02T12:28:24Z</time>
        <extensions>
          <gpxtpx:TrackPointExtension xmlns:gpxtpx="http://www.garmin.com/xmlschemas/TrackPointExtension/v1">
            <gpxtpx:hr>150</gpxtpx:hr>
          </gpxtpx:TrackPointExtension>
        </extensions>
      </trkpt>
      <trkpt lat="46.10667" lon="6.26601">
        <ele>617</ele>
        <time>2021-03-02T12:28:25Z</time>
        <extensions>
          <gpxtpx:TrackPointExtension xmlns:gpxtpx="http://www.garmin.com/xmlschemas/TrackPointExtension/v1">
            <gpxtpx:hr>150</gpxtpx:hr>
          </gpxtpx:TrackPointExtension>
        </extensions>
      </trkpt>
      <trkpt lat="46.10665" lon="6.26603">
        <ele>617.2</ele>
        <time>2021-03-02T12:28:26Z</time>
        <extensions>
          <gpxtpx:TrackPointExtension xmlns:gpxtpx="http://www.garmin.com/xmlschemas/TrackPointExtension/v1">
            <gpxtpx:hr>150</gpxtpx:hr>
          </gpxtpx:TrackPointExtension>
        </extensions>
      </trkpt>
      <trkpt lat="46.10662" lon="6.26605">
        <ele>617.5</ele>
        <time>2021-03-02T12:28:27Z</time>
        <extensions>
          <gpxtpx:TrackPointExtension xmlns:gpxtpx="http://www.garmin.com/xmlschemas/TrackPointExtension/v1">
            <gpxtpx:hr>150</gpxtpx:hr>
          </gpxtpx:TrackPointExtension>
        </extensions>
      </trkpt>
      <trkpt lat="46.1066" lon="6.26606">
        <ele>617.7</ele>
        <time>2021-03-02T12:28:28Z</time>
        <extensions>
          <gpxtpx:TrackPointExtension xmlns:gpxtpx="http://www.garmin.com/xmlschemas/TrackPointExtension/v1">
            <gpxtpx:hr>150</gpxtpx:hr>
          </gpxtpx:TrackPointExtension>
        </extensions>
      </trkpt>
      <trkpt lat="46.10657" lon="6.26608">
        <ele>618</ele>
        <time>2021-03-02T12:28:29Z</time>
        <extensions>
          <gpxtpx:TrackPointExtension xmlns:gpxtpx="http://www.garmin.com/xmlschemas/TrackPointExtension/v1">
            <gpxtpx:hr>150</gpxtpx:hr>
          </gpxtpx:TrackPointExtension>
        </extensions>
      </trkpt>
      <trkpt lat="46.10655" lon="6.2661">
        <ele>618.2</ele>
        <time>2021-03-02T12:28:30Z</time>
        <extensions>
          <gpxtpx:TrackPointExtension xmlns:gpxtpx="http://www.garmin.com/xmlschemas/TrackPointExtension/v1">
            <gpxtpx:hr>151</gpxtpx:hr>
          </gpxtpx:TrackPointExtension>
        </extensions>
      </trkpt>
      <trkpt lat="46.10652" lon="6.26611">
        <ele>618.5</ele>
        <time>2021-03-02T12:28:31Z</time>
        <extensions>
          <gpxtpx:TrackPointExtension xmlns:gpxtpx="http://www.garmin.com/xmlschemas/TrackPointExtension/v1">
            <gpxtpx:hr>151</gpxtpx:hr>
          </gpxtpx:TrackPointExtension>
        </extensions>
      </trkpt>
      <trkpt lat="46.1065" lon="6.26612">
        <ele>618.7</ele>
        <time>2021-03-02T12:28:32Z</time>
        <extensions>
          <gpxtpx:TrackPointExtension xmlns:gpxtpx="http://www.garmin.com/xmlschemas/TrackPointExtension/v1">
            <gpxtpx:hr>151</gpxtpx:hr>
          </gpxtpx:TrackPointExtension>
        </extensions>
      </trkpt>
      <trkpt lat="46.10647" lon="6.26613">
        <ele>619</ele>
        <time>2021-03-02T12:28:33Z</time>
        <extensions>
          <gpxtpx:TrackPointExtension xmlns:gpxtpx="http://www.garmin.com/xmlschemas/TrackPointExtension/v1">
            <gpxtpx:hr>151</gpxtpx:hr>
          </gpxtpx:TrackPointExtension>
        </extensions>
      </trkpt>
      <trkpt lat="46.10645" lon="6.26614">
        <ele>619.2</ele>
        <time>2021-03-02T12:28:34Z</time>
        <extensions>
          <gpxtpx:TrackPointExtension xmlns:gpxtpx="http://www.garmin.com/xmlschemas/TrackPointExtension/v1">
            <gpxtpx:hr>151</gpxtpx:hr>
          </gpxtpx:TrackPointExtension>
        </extensions>
      </trkpt>
      <trkpt lat="46.10642" lon="6.26616">
        <ele>619.5</ele>
        <time>2021-03-02T12:28:35Z</time>
        <extensions>
          <gpxtpx:TrackPointExtension xmlns:gpxtpx="http://www.garmin.com/xmlschemas/TrackPointExtension/v1">
            <gpxtpx:hr>152</gpxtpx:hr>
          </gpxtpx:TrackPointExtension>
        </extensions>
      </trkpt>
      <trkpt lat="46.1064" lon="6.26617">
        <ele>619.7</ele>
        <time>2021-03-02T12:28:36Z</time>
        <extensions>
          <gpxtpx:TrackPointExtension xmlns:gpxtpx="http://www.garmin.com/xmlschemas/TrackPointExtension/v1">
            <gpxtpx:hr>152</gpxtpx:hr>
          </gpxtpx:TrackPointExtension>
        </extensions>
      </trkpt>
      <trkpt lat="46.10637" lon="6.26617">
        <ele>619.9</ele>
        <time>2021-03-02T12:28:37Z</time>
        <extensions>
          <gpxtpx:TrackPointExtension xmlns:gpxtpx="http://www.garmin.com/xmlschemas/TrackPointExtension/v1">
            <gpxtpx:hr>152</gpxtpx:hr>
          </gpxtpx:TrackPointExtension>
        </extensions>
      </trkpt>
      <trkpt lat="46.10634" lon="6.26618">
        <ele>620.2</ele>
        <time>2021-03-02T12:28:38Z</time>
        <extensions>
          <gpxtpx:TrackPointExtension xmlns:gpxtpx="http://www.garmin.com/xmlschemas/TrackPointExtension/v1">
            <gpxtpx:hr>152</gpxtpx:hr>
          </gpxtpx:TrackPointExtension>
        </extensions>
      </trkpt>
      <trkpt lat="46.10632" lon="6.26618">
        <ele>620.4</ele>
        <time>2021-03-02T12:28:39Z</time>
        <extensions>
          <gpxtpx:TrackPointExtension xmlns:gpxtpx="http://www.garmin.com/xmlschemas/TrackPointExtension/v1">
            <gpxtpx:hr>152</gpxtpx:hr>
          </gpxtpx:TrackPointExtension>
        </extensions>
      </trkpt>
      <trkpt lat="46.10629" lon="6.26619">
        <ele>620.6</ele>
        <time>2021-03-02T12:28:40Z</time>
        <extensions>
          <gpxtpx:TrackPointExtension xmlns:gpxtpx="http://www.garmin.com/xmlschemas/TrackPointExtension/v1">
            <gpxtpx:hr>152</gpxtpx:hr>
          </gpxtpx:TrackPointExtension>
        </extensions>
      </trkpt>
      <trkpt lat="46.10626" lon="6.26619">
        <ele>620.9</ele>
        <time>2021-03-02T12:28:41Z</time>
        <extensions>
          <gpxtpx:TrackPointExtension xmlns:gpxtpx="http://www.garmin.com/xmlschemas/TrackPointExtension/v1">
            <gpxtpx:hr>152</gpxtpx:hr>
          </gpxtpx:TrackPointExtension>
        </extensions>
      </trkpt>
      <trkpt lat="46.10624" lon="6.26619">
        <ele>621.1</ele>
        <time>2021-03-02T12:28:42Z</time>
        <extensions>
          <gpxtpx:TrackPointExtension xmlns:gpxtpx="http://www.garmin.com/xmlschemas/TrackPointExtension/v1">
            <gpxtpx:hr>152</gpxtpx:hr>
          </gpxtpx:TrackPointExtension>
        </extensions>
      </trkpt>
      <trkpt lat="46.10621" lon="6.26619">
        <ele>621.4</ele>
        <time>2021-03-02T12:28:43Z</time>
        <extensions>
          <gpxtpx:TrackPointExtension xmlns:gpxtpx="http://www.garmin.com/xmlschemas/TrackPointExtension/v1">
            <gpxtpx:hr>152</gpxtpx:hr>
          </gpxtpx:TrackPointExtension>
        </extensions>
      </trkpt>
      <trkpt lat="46.10618" lon="6.2662">
        <ele>621.6</ele>
        <time>2021-03-02T12:28:44Z</time>
        <extensions>
          <gpxtpx:TrackPointExtension xmlns:gpxtpx="http://www.garmin.com/xmlschemas/TrackPointExtension/v1">
            <gpxtpx:hr>152</gpxtpx:hr>
          </gpxtpx:TrackPointExtension>
        </extensions>
      </trkpt>
      <trkpt lat="46.10615" lon="6.2662">
        <ele>621.9</ele>
        <time>2021-03-02T12:28:45Z</time>
        <extensions>
          <gpxtpx:TrackPointExtension xmlns:gpxtpx="http://www.garmin.com/xmlschemas/TrackPointExtension/v1">
            <gpxtpx:hr>152</gpxtpx:hr>
          </gpxtpx:TrackPointExtension>
        </extensions>
      </trkpt>
      <trkpt lat="46.10612" lon="6.2662">
        <ele>622.1</ele>
        <time>2021-03-02T12:28:46Z</time>
        <extensions>
          <gpxtpx:TrackPointExtension xmlns:gpxtpx="http://www.garmin.com/xmlschemas/TrackPointExtension/v1">
            <gpxtpx:hr>152</gpxtpx:hr>
          </gpxtpx:TrackPointExtension>
        </extensions>
      </trkpt>
      <trkpt lat="46.1061" lon="6.26621">
        <ele>622.4</ele>
        <time>2021-03-02T12:28:47Z</time>
        <extensions>
          <gpxtpx:TrackPointExtension xmlns:gpxtpx="http://www.garmin.com/xmlschemas/TrackPointExtension/v1">
            <gpxtpx:hr>152</gpxtpx:hr>
          </gpxtpx:TrackPointExtension>
        </extensions>
      </trkpt>
      <trkpt lat="46.10607" lon="6.26621">
        <ele>622.6</ele>
        <time>2021-03-02T12:28:48Z</time>
        <extensions>
          <gpxtpx:TrackPointExtension xmlns:gpxtpx="http://www.garmin.com/xmlschemas/TrackPointExtension/v1">
            <gpxtpx:hr>152</gpxtpx:hr>
          </gpxtpx:TrackPointExtension>
        </extensions>
      </trkpt>
      <trkpt lat="46.10604" lon="6.26621">
        <ele>622.9</ele>
        <time>2021-03-02T12:28:49Z</time>
        <extensions>
          <gpxtpx:TrackPointExtension xmlns:gpxtpx="http://www.garmin.com/xmlschemas/TrackPointExtension/v1">
            <gpxtpx:hr>152</gpxtpx:hr>
          </gpxtpx:TrackPointExtension>
        </extensions>
      </trkpt>
      <trkpt lat="46.10601" lon="6.26621">
        <ele>623.1</ele>
        <time>2021-03-02T12:28:50Z</time>
        <extensions>
          <gpxtpx:TrackPointExtension xmlns:gpxtpx="http://www.garmin.com/xmlschemas/TrackPointExtension/v1">
            <gpxtpx:hr>152</gpxtpx:hr>
          </gpxtpx:TrackPointExtension>
        </extensions>
      </trkpt>
      <trkpt lat="46.10598" lon="6.2662">
        <ele>623.4</ele>
        <time>2021-03-02T12:28:51Z</time>
        <extensions>
          <gpxtpx:TrackPointExtension xmlns:gpxtpx="http://www.garmin.com/xmlschemas/TrackPointExtension/v1">
            <gpxtpx:hr>152</gpxtpx:hr>
          </gpxtpx:TrackPointExtension>
        </extensions>
      </trkpt>
      <trkpt lat="46.10595" lon="6.2662">
        <ele>623.6</ele>
        <time>2021-03-02T12:28:52Z</time>
        <extensions>
          <gpxtpx:TrackPointExtension xmlns:gpxtpx="http://www.garmin.com/xmlschemas/TrackPointExtension/v1">
            <gpxtpx:hr>152</gpxtpx:hr>
          </gpxtpx:TrackPointExtension>
        </extensions>
      </trkpt>
      <trkpt lat="46.10593" lon="6.2662">
        <ele>623.8</ele>
        <time>2021-03-02T12:28:53Z</time>
        <extensions>
          <gpxtpx:TrackPointExtension xmlns:gpxtpx="http://www.garmin.com/xmlschemas/TrackPointExtension/v1">
            <gpxtpx:hr>152</gpxtpx:hr>
          </gpxtpx:TrackPointExtension>
        </extensions>
      </trkpt>
      <trkpt lat="46.1059" lon="6.26619">
        <ele>624.1</ele>
        <time>2021-03-02T12:28:54Z</time>
        <extensions>
          <gpxtpx:TrackPointExtension xmlns:gpxtpx="http://www.garmin.com/xmlschemas/TrackPointExtension/v1">
            <gpxtpx:hr>152</gpxtpx:hr>
          </gpxtpx:TrackPointExtension>
        </extensions>
      </trkpt>
      <trkpt lat="46.10587" lon="6.26619">
        <ele>624.3</ele>
        <time>2021-03-02T12:28:55Z</time>
        <extensions>
          <gpxtpx:TrackPointExtension xmlns:gpxtpx="http://www.garmin.com/xmlschemas/TrackPointExtension/v1">
            <gpxtpx:hr>152</gpxtpx:hr>
          </gpxtpx:TrackPointExtension>
        </extensions>
      </trkpt>
      <trkpt lat="46.10584" lon="6.26618">
        <ele>624.6</ele>
        <time>2021-03-02T12:28:56Z</time>
        <extensions>
          <gpxtpx:TrackPointExtension xmlns:gpxtpx="http://www.garmin.com/xmlschemas/TrackPointExtension/v1">
            <gpxtpx:hr>152</gpxtpx:hr>
          </gpxtpx:TrackPointExtension>
        </extensions>
      </trkpt>
      <trkpt lat="46.10581" lon="6.26618">
        <ele>624.8</ele>
        <time>2021-03-02T12:28:57Z</time>
        <extensions>
          <gpxtpx:TrackPointExtension xmlns:gpxtpx="http://www.garmin.com/xmlschemas/TrackPointExtension/v1">
            <gpxtpx:hr>152</gpxtpx:hr>
          </gpxtpx:TrackPointExtension>
        </extensions>
      </trkpt>
      <trkpt lat="46.10578" lon="6.26617">
        <ele>625.1</ele>
        <time>2021-03-02T12:28:58Z</time>
        <extensions>
          <gpxtpx:TrackPointExtension xmlns:gpxtpx="http://www.garmin.com/xmlschemas/TrackPointExtension/v1">
            <gpxtpx:hr>152</gpxtpx:hr>
          </gpxtpx:TrackPointExtension>
        </extensions>
      </trkpt>
      <trkpt lat="46.10576" lon="6.26616">
        <ele>625.3</ele>
        <time>2021-03-02T12:28:59Z</time>
        <extensions>
          <gpxtpx:TrackPointExtension xmlns:gpxtpx="http://www.garmin.com/xmlschemas/TrackPointExtension/v1">
            <gpxtpx:hr>152</gpxtpx:hr>
          </gpxtpx:TrackPointExtension>
        </extensions>
      </trkpt>
      <trkpt lat="46.10573" lon="6.26615">
        <ele>625.5</ele>
        <time>2021-03-02T12:29:00Z</time>
        <extensions>
          <gpxtpx:TrackPointExtension xmlns:gpxtpx="http://www.garmin.com/xmlschemas/TrackPointExtension/v1">
            <gpxtpx:hr>152</gpxtpx:hr>
          </gpxtpx:TrackPointExtension>
        </extensions>
      </trkpt>
      <trkpt lat="46.1057" lon="6.26615">
        <ele>625.7</ele>
        <time>2021-03-02T12:29:01Z</time>
        <extensions>
          <gpxtpx:TrackPointExtension xmlns:gpxtpx="http://www.garmin.com/xmlschemas/TrackPointExtension/v1">
            <gpxtpx:hr>152</gpxtpx:hr>
          </gpxtpx:TrackPointExtension>
        </extensions>
      </trkpt>
      <trkpt lat="46.10568" lon="6.26614">
        <ele>626</ele>
        <time>2021-03-02T12:29:02Z</time>
        <extensions>
          <gpxtpx:TrackPointExtension xmlns:gpxtpx="http://www.garmin.com/xmlschemas/TrackPointExtension/v1">
            <gpxtpx:hr>152</gpxtpx:hr>
          </gpxtpx:TrackPointExtension>
        </extensions>
      </trkpt>
      <trkpt lat="46.10565" lon="6.26613">
        <ele>626.2</ele>
        <time>2021-03-02T12:29:03Z</time>
        <extensions>
          <gpxtpx:TrackPointExtension xmlns:gpxtpx="http://www.garmin.com/xmlschemas/TrackPointExtension/v1">
            <gpxtpx:hr>152</gpxtpx:hr>
          </gpxtpx:TrackPointExtension>
        </extensions>
      </trkpt>
      <trkpt lat="46.10562" lon="6.26612">
        <ele>626.4</ele>
        <time>2021-03-02T12:29:04Z</time>
        <extensions>
          <gpxtpx:TrackPointExtension xmlns:gpxtpx="http://www.garmin.com/xmlschemas/TrackPointExtension/v1">
            <gpxtpx:hr>152</gpxtpx:hr>
          </gpxtpx:TrackPointExtension>
        </extensions>
      </trkpt>
      <trkpt lat="46.10559" lon="6.26611">
        <ele>626.7</ele>
        <time>2021-03-02T12:29:05Z</time>
        <extensions>
          <gpxtpx:TrackPointExtension xmlns:gpxtpx="http://www.garmin.com/xmlschemas/TrackPointExtension/v1">
            <gpxtpx:hr>152</gpxtpx:hr>
          </gpxtpx:TrackPointExtension>
        </extensions>
      </trkpt>
      <trkpt lat="46.10556" lon="6.26611">
        <ele>626.9</ele>
        <time>2021-03-02T12:29:06Z</time>
        <extensions>
          <gpxtpx:TrackPointExtension xmlns:gpxtpx="http://www.garmin.com/xmlschemas/TrackPointExtension/v1">
            <gpxtpx:hr>151</gpxtpx:hr>
          </gpxtpx:TrackPointExtension>
        </extensions>
      </trkpt>
      <trkpt lat="46.10554" lon="6.2661">
        <ele>627.1</ele>
        <time>2021-03-02T12:29:07Z</time>
        <extensions>
          <gpxtpx:TrackPointExtension xmlns:gpxtpx="http://www.garmin.com/xmlschemas/TrackPointExtension/v1">
            <gpxtpx:hr>151</gpxtpx:hr>
          </gpxtpx:TrackPointExtension>
        </extensions>
      </trkpt>
      <trkpt lat="46.10551" lon="6.26609">
        <ele>627.3</ele>
        <time>2021-03-02T12:29:08Z</time>
        <extensions>
          <gpxtpx:TrackPointExtension xmlns:gpxtpx="http://www.garmin.com/xmlschemas/TrackPointExtension/v1">
            <gpxtpx:hr>151</gpxtpx:hr>
          </gpxtpx:TrackPointExtension>
        </extensions>
      </trkpt>
      <trkpt lat="46.10548" lon="6.26608">
        <ele>627.6</ele>
        <time>2021-03-02T12:29:09Z</time>
        <extensions>
          <gpxtpx:TrackPointExtension xmlns:gpxtpx="http://www.garmin.com/xmlschemas/TrackPointExtension/v1">
            <gpxtpx:hr>151</gpxtpx:hr>
          </gpxtpx:TrackPointExtension>
        </extensions>
      </trkpt>
      <trkpt lat="46.10545" lon="6.26607">
        <ele>627.8</ele>
        <time>2021-03-02T12:29:10Z</time>
        <extensions>
          <gpxtpx:TrackPointExtension xmlns:gpxtpx="http://www.garmin.com/xmlschemas/TrackPointExtension/v1">
            <gpxtpx:hr>151</gpxtpx:hr>
          </gpxtpx:TrackPointExtension>
        </extensions>
      </trkpt>
      <trkpt lat="46.10542" lon="6.26607">
        <ele>628</ele>
        <time>2021-03-02T12:29:11Z</time>
        <extensions>
          <gpxtpx:TrackPointExtension xmlns:gpxtpx="http://www.garmin.com/xmlschemas/TrackPointExtension/v1">
            <gpxtpx:hr>151</gpxtpx:hr>
          </gpxtpx:TrackPointExtension>
        </extensions>
      </trkpt>
      <trkpt lat="46.1054" lon="6.26606">
        <ele>628.3</ele>
        <time>2021-03-02T12:29:12Z</time>
        <extensions>
          <gpxtpx:TrackPointExtension xmlns:gpxtpx="http://www.garmin.com/xmlschemas/TrackPointExtension/v1">
            <gpxtpx:hr>152</gpxtpx:hr>
          </gpxtpx:TrackPointExtension>
        </extensions>
      </trkpt>
      <trkpt lat="46.10537" lon="6.26605">
        <ele>628.5</ele>
        <time>2021-03-02T12:29:13Z</time>
        <extensions>
          <gpxtpx:TrackPointExtension xmlns:gpxtpx="http://www.garmin.com/xmlschemas/TrackPointExtension/v1">
            <gpxtpx:hr>152</gpxtpx:hr>
          </gpxtpx:TrackPointExtension>
        </extensions>
      </trkpt>
      <trkpt lat="46.10534" lon="6.26604">
        <ele>628.7</ele>
        <time>2021-03-02T12:29:14Z</time>
        <extensions>
          <gpxtpx:TrackPointExtension xmlns:gpxtpx="http://www.garmin.com/xmlschemas/TrackPointExtension/v1">
            <gpxtpx:hr>152</gpxtpx:hr>
          </gpxtpx:TrackPointExtension>
        </extensions>
      </trkpt>
      <trkpt lat="46.10532" lon="6.26603">
        <ele>629</ele>
        <time>2021-03-02T12:29:15Z</time>
        <extensions>
          <gpxtpx:TrackPointExtension xmlns:gpxtpx="http://www.garmin.com/xmlschemas/TrackPointExtension/v1">
            <gpxtpx:hr>152</gpxtpx:hr>
          </gpxtpx:TrackPointExtension>
        </extensions>
      </trkpt>
      <trkpt lat="46.10529" lon="6.26602">
        <ele>629.2</ele>
        <time>2021-03-02T12:29:16Z</time>
        <extensions>
          <gpxtpx:TrackPointExtension xmlns:gpxtpx="http://www.garmin.com/xmlschemas/TrackPointExtension/v1">
            <gpxtpx:hr>152</gpxtpx:hr>
          </gpxtpx:TrackPointExtension>
        </extensions>
      </trkpt>
      <trkpt lat="46.10526" lon="6.26601">
        <ele>629.4</ele>
        <time>2021-03-02T12:29:17Z</time>
        <extensions>
          <gpxtpx:TrackPointExtension xmlns:gpxtpx="http://www.garmin.com/xmlschemas/TrackPointExtension/v1">
            <gpxtpx:hr>152</gpxtpx:hr>
          </gpxtpx:TrackPointExtension>
        </extensions>
      </trkpt>
      <trkpt lat="46.10524" lon="6.266">
        <ele>629.7</ele>
        <time>2021-03-02T12:29:18Z</time>
        <extensions>
          <gpxtpx:TrackPointExtension xmlns:gpxtpx="http://www.garmin.com/xmlschemas/TrackPointExtension/v1">
            <gpxtpx:hr>152</gpxtpx:hr>
          </gpxtpx:TrackPointExtension>
        </extensions>
      </trkpt>
      <trkpt lat="46.10521" lon="6.26599">
        <ele>629.9</ele>
        <time>2021-03-02T12:29:19Z</time>
        <extensions>
          <gpxtpx:TrackPointExtension xmlns:gpxtpx="http://www.garmin.com/xmlschemas/TrackPointExtension/v1">
            <gpxtpx:hr>152</gpxtpx:hr>
          </gpxtpx:TrackPointExtension>
        </extensions>
      </trkpt>
      <trkpt lat="46.10518" lon="6.26598">
        <ele>630.2</ele>
        <time>2021-03-02T12:29:20Z</time>
        <extensions>
          <gpxtpx:TrackPointExtension xmlns:gpxtpx="http://www.garmin.com/xmlschemas/TrackPointExtension/v1">
            <gpxtpx:hr>152</gpxtpx:hr>
          </gpxtpx:TrackPointExtension>
        </extensions>
      </trkpt>
      <trkpt lat="46.10516" lon="6.26598">
        <ele>630.4</ele>
        <time>2021-03-02T12:29:21Z</time>
        <extensions>
          <gpxtpx:TrackPointExtension xmlns:gpxtpx="http://www.garmin.com/xmlschemas/TrackPointExtension/v1">
            <gpxtpx:hr>152</gpxtpx:hr>
          </gpxtpx:TrackPointExtension>
        </extensions>
      </trkpt>
      <trkpt lat="46.10513" lon="6.26597">
        <ele>630.6</ele>
        <time>2021-03-02T12:29:22Z</time>
        <extensions>
          <gpxtpx:TrackPointExtension xmlns:gpxtpx="http://www.garmin.com/xmlschemas/TrackPointExtension/v1">
            <gpxtpx:hr>151</gpxtpx:hr>
          </gpxtpx:TrackPointExtension>
        </extensions>
      </trkpt>
      <trkpt lat="46.1051" lon="6.26596">
        <ele>630.9</ele>
        <time>2021-03-02T12:29:23Z</time>
        <extensions>
          <gpxtpx:TrackPointExtension xmlns:gpxtpx="http://www.garmin.com/xmlschemas/TrackPointExtension/v1">
            <gpxtpx:hr>151</gpxtpx:hr>
          </gpxtpx:TrackPointExtension>
        </extensions>
      </trkpt>
      <trkpt lat="46.10508" lon="6.26595">
        <ele>631.1</ele>
        <time>2021-03-02T12:29:24Z</time>
        <extensions>
          <gpxtpx:TrackPointExtension xmlns:gpxtpx="http://www.garmin.com/xmlschemas/TrackPointExtension/v1">
            <gpxtpx:hr>151</gpxtpx:hr>
          </gpxtpx:TrackPointExtension>
        </extensions>
      </trkpt>
      <trkpt lat="46.10505" lon="6.26594">
        <ele>631.3</ele>
        <time>2021-03-02T12:29:25Z</time>
        <extensions>
          <gpxtpx:TrackPointExtension xmlns:gpxtpx="http://www.garmin.com/xmlschemas/TrackPointExtension/v1">
            <gpxtpx:hr>151</gpxtpx:hr>
          </gpxtpx:TrackPointExtension>
        </extensions>
      </trkpt>
      <trkpt lat="46.10502" lon="6.26593">
        <ele>631.5</ele>
        <time>2021-03-02T12:29:26Z</time>
        <extensions>
          <gpxtpx:TrackPointExtension xmlns:gpxtpx="http://www.garmin.com/xmlschemas/TrackPointExtension/v1">
            <gpxtpx:hr>151</gpxtpx:hr>
          </gpxtpx:TrackPointExtension>
        </extensions>
      </trkpt>
      <trkpt lat="46.105" lon="6.26592">
        <ele>631.8</ele>
        <time>2021-03-02T12:29:27Z</time>
        <extensions>
          <gpxtpx:TrackPointExtension xmlns:gpxtpx="http://www.garmin.com/xmlschemas/TrackPointExtension/v1">
            <gpxtpx:hr>151</gpxtpx:hr>
          </gpxtpx:TrackPointExtension>
        </extensions>
      </trkpt>
      <trkpt lat="46.10497" lon="6.26591">
        <ele>632</ele>
        <time>2021-03-02T12:29:28Z</time>
        <extensions>
          <gpxtpx:TrackPointExtension xmlns:gpxtpx="http://www.garmin.com/xmlschemas/TrackPointExtension/v1">
            <gpxtpx:hr>151</gpxtpx:hr>
          </gpxtpx:TrackPointExtension>
        </extensions>
      </trkpt>
      <trkpt lat="46.10494" lon="6.2659">
        <ele>632.2</ele>
        <time>2021-03-02T12:29:29Z</time>
        <extensions>
          <gpxtpx:TrackPointExtension xmlns:gpxtpx="http://www.garmin.com/xmlschemas/TrackPointExtension/v1">
            <gpxtpx:hr>151</gpxtpx:hr>
          </gpxtpx:TrackPointExtension>
        </extensions>
      </trkpt>
      <trkpt lat="46.10491" lon="6.26589">
        <ele>632.4</ele>
        <time>2021-03-02T12:29:30Z</time>
        <extensions>
          <gpxtpx:TrackPointExtension xmlns:gpxtpx="http://www.garmin.com/xmlschemas/TrackPointExtension/v1">
            <gpxtpx:hr>151</gpxtpx:hr>
          </gpxtpx:TrackPointExtension>
        </extensions>
      </trkpt>
      <trkpt lat="46.10489" lon="6.26588">
        <ele>632.7</ele>
        <time>2021-03-02T12:29:31Z</time>
        <extensions>
          <gpxtpx:TrackPointExtension xmlns:gpxtpx="http://www.garmin.com/xmlschemas/TrackPointExtension/v1">
            <gpxtpx:hr>151</gpxtpx:hr>
          </gpxtpx:TrackPointExtension>
        </extensions>
      </trkpt>
      <trkpt lat="46.10486" lon="6.26587">
        <ele>632.9</ele>
        <time>2021-03-02T12:29:32Z</time>
        <extensions>
          <gpxtpx:TrackPointExtension xmlns:gpxtpx="http://www.garmin.com/xmlschemas/TrackPointExtension/v1">
            <gpxtpx:hr>151</gpxtpx:hr>
          </gpxtpx:TrackPointExtension>
        </extensions>
      </trkpt>
      <trkpt lat="46.10483" lon="6.26587">
        <ele>633.1</ele>
        <time>2021-03-02T12:29:33Z</time>
        <extensions>
          <gpxtpx:TrackPointExtension xmlns:gpxtpx="http://www.garmin.com/xmlschemas/TrackPointExtension/v1">
            <gpxtpx:hr>151</gpxtpx:hr>
          </gpxtpx:TrackPointExtension>
        </extensions>
      </trkpt>
      <trkpt lat="46.1048" lon="6.26586">
        <ele>633.4</ele>
        <time>2021-03-02T12:29:34Z</time>
        <extensions>
          <gpxtpx:TrackPointExtension xmlns:gpxtpx="http://www.garmin.com/xmlschemas/TrackPointExtension/v1">
            <gpxtpx:hr>151</gpxtpx:hr>
          </gpxtpx:TrackPointExtension>
        </extensions>
      </trkpt>
      <trkpt lat="46.10478" lon="6.26585">
        <ele>633.6</ele>
        <time>2021-03-02T12:29:35Z</time>
        <extensions>
          <gpxtpx:TrackPointExtension xmlns:gpxtpx="http://www.garmin.com/xmlschemas/TrackPointExtension/v1">
            <gpxtpx:hr>151</gpxtpx:hr>
          </gpxtpx:TrackPointExtension>
        </extensions>
      </trkpt>
      <trkpt lat="46.10475" lon="6.26584">
        <ele>633.8</ele>
        <time>2021-03-02T12:29:36Z</time>
        <extensions>
          <gpxtpx:TrackPointExtension xmlns:gpxtpx="http://www.garmin.com/xmlschemas/TrackPointExtension/v1">
            <gpxtpx:hr>151</gpxtpx:hr>
          </gpxtpx:TrackPointExtension>
        </extensions>
      </trkpt>
      <trkpt lat="46.10472" lon="6.26583">
        <ele>634</ele>
        <time>2021-03-02T12:29:37Z</time>
        <extensions>
          <gpxtpx:TrackPointExtension xmlns:gpxtpx="http://www.garmin.com/xmlschemas/TrackPointExtension/v1">
            <gpxtpx:hr>151</gpxtpx:hr>
          </gpxtpx:TrackPointExtension>
        </extensions>
      </trkpt>
      <trkpt lat="46.10469" lon="6.26583">
        <ele>634.2</ele>
        <time>2021-03-02T12:29:38Z</time>
        <extensions>
          <gpxtpx:TrackPointExtension xmlns:gpxtpx="http://www.garmin.com/xmlschemas/TrackPointExtension/v1">
            <gpxtpx:hr>150</gpxtpx:hr>
          </gpxtpx:TrackPointExtension>
        </extensions>
      </trkpt>
      <trkpt lat="46.10466" lon="6.26581">
        <ele>634.4</ele>
        <time>2021-03-02T12:29:39Z</time>
        <extensions>
          <gpxtpx:TrackPointExtension xmlns:gpxtpx="http://www.garmin.com/xmlschemas/TrackPointExtension/v1">
            <gpxtpx:hr>150</gpxtpx:hr>
          </gpxtpx:TrackPointExtension>
        </extensions>
      </trkpt>
      <trkpt lat="46.10462" lon="6.2658">
        <ele>634.6</ele>
        <time>2021-03-02T12:29:40Z</time>
        <extensions>
          <gpxtpx:TrackPointExtension xmlns:gpxtpx="http://www.garmin.com/xmlschemas/TrackPointExtension/v1">
            <gpxtpx:hr>150</gpxtpx:hr>
          </gpxtpx:TrackPointExtension>
        </extensions>
      </trkpt>
      <trkpt lat="46.10459" lon="6.26579">
        <ele>634.8</ele>
        <time>2021-03-02T12:29:41Z</time>
        <extensions>
          <gpxtpx:TrackPointExtension xmlns:gpxtpx="http://www.garmin.com/xmlschemas/TrackPointExtension/v1">
            <gpxtpx:hr>150</gpxtpx:hr>
          </gpxtpx:TrackPointExtension>
        </extensions>
      </trkpt>
      <trkpt lat="46.10456" lon="6.26578">
        <ele>635</ele>
        <time>2021-03-02T12:29:42Z</time>
        <extensions>
          <gpxtpx:TrackPointExtension xmlns:gpxtpx="http://www.garmin.com/xmlschemas/TrackPointExtension/v1">
            <gpxtpx:hr>150</gpxtpx:hr>
          </gpxtpx:TrackPointExtension>
        </extensions>
      </trkpt>
      <trkpt lat="46.10453" lon="6.26577">
        <ele>635.2</ele>
        <time>2021-03-02T12:29:43Z</time>
        <extensions>
          <gpxtpx:TrackPointExtension xmlns:gpxtpx="http://www.garmin.com/xmlschemas/TrackPointExtension/v1">
            <gpxtpx:hr>150</gpxtpx:hr>
          </gpxtpx:TrackPointExtension>
        </extensions>
      </trkpt>
      <trkpt lat="46.1045" lon="6.26576">
        <ele>635.4</ele>
        <time>2021-03-02T12:29:44Z</time>
        <extensions>
          <gpxtpx:TrackPointExtension xmlns:gpxtpx="http://www.garmin.com/xmlschemas/TrackPointExtension/v1">
            <gpxtpx:hr>150</gpxtpx:hr>
          </gpxtpx:TrackPointExtension>
        </extensions>
      </trkpt>
      <trkpt lat="46.10446" lon="6.26575">
        <ele>635.5</ele>
        <time>2021-03-02T12:29:45Z</time>
        <extensions>
          <gpxtpx:TrackPointExtension xmlns:gpxtpx="http://www.garmin.com/xmlschemas/TrackPointExtension/v1">
            <gpxtpx:hr>150</gpxtpx:hr>
          </gpxtpx:TrackPointExtension>
        </extensions>
      </trkpt>
      <trkpt lat="46.10443" lon="6.26574">
        <ele>635.7</ele>
        <time>2021-03-02T12:29:46Z</time>
        <extensions>
          <gpxtpx:TrackPointExtension xmlns:gpxtpx="http://www.garmin.com/xmlschemas/TrackPointExtension/v1">
            <gpxtpx:hr>150</gpxtpx:hr>
          </gpxtpx:TrackPointExtension>
        </extensions>
      </trkpt>
      <trkpt lat="46.10439" lon="6.26574">
        <ele>635.9</ele>
        <time>2021-03-02T12:29:47Z</time>
        <extensions>
          <gpxtpx:TrackPointExtension xmlns:gpxtpx="http://www.garmin.com/xmlschemas/TrackPointExtension/v1">
            <gpxtpx:hr>150</gpxtpx:hr>
          </gpxtpx:TrackPointExtension>
        </extensions>
      </trkpt>
      <trkpt lat="46.10436" lon="6.26573">
        <ele>636.1</ele>
        <time>2021-03-02T12:29:48Z</time>
        <extensions>
          <gpxtpx:TrackPointExtension xmlns:gpxtpx="http://www.garmin.com/xmlschemas/TrackPointExtension/v1">
            <gpxtpx:hr>150</gpxtpx:hr>
          </gpxtpx:TrackPointExtension>
        </extensions>
      </trkpt>
      <trkpt lat="46.10432" lon="6.26573">
        <ele>636.2</ele>
        <time>2021-03-02T12:29:49Z</time>
        <extensions>
          <gpxtpx:TrackPointExtension xmlns:gpxtpx="http://www.garmin.com/xmlschemas/TrackPointExtension/v1">
            <gpxtpx:hr>150</gpxtpx:hr>
          </gpxtpx:TrackPointExtension>
        </extensions>
      </trkpt>
      <trkpt lat="46.10429" lon="6.26572">
        <ele>636.4</ele>
        <time>2021-03-02T12:29:50Z</time>
        <extensions>
          <gpxtpx:TrackPointExtension xmlns:gpxtpx="http://www.garmin.com/xmlschemas/TrackPointExtension/v1">
            <gpxtpx:hr>150</gpxtpx:hr>
          </gpxtpx:TrackPointExtension>
        </extensions>
      </trkpt>
      <trkpt lat="46.10425" lon="6.26572">
        <ele>636.6</ele>
        <time>2021-03-02T12:29:51Z</time>
        <extensions>
          <gpxtpx:TrackPointExtension xmlns:gpxtpx="http://www.garmin.com/xmlschemas/TrackPointExtension/v1">
            <gpxtpx:hr>150</gpxtpx:hr>
          </gpxtpx:TrackPointExtension>
        </extensions>
      </trkpt>
      <trkpt lat="46.10422" lon="6.26572">
        <ele>636.7</ele>
        <time>2021-03-02T12:29:52Z</time>
        <extensions>
          <gpxtpx:TrackPointExtension xmlns:gpxtpx="http://www.garmin.com/xmlschemas/TrackPointExtension/v1">
            <gpxtpx:hr>150</gpxtpx:hr>
          </gpxtpx:TrackPointExtension>
        </extensions>
      </trkpt>
      <trkpt lat="46.10418" lon="6.26572">
        <ele>636.9</ele>
        <time>2021-03-02T12:29:53Z</time>
        <extensions>
          <gpxtpx:TrackPointExtension xmlns:gpxtpx="http://www.garmin.com/xmlschemas/TrackPointExtension/v1">
            <gpxtpx:hr>150</gpxtpx:hr>
          </gpxtpx:TrackPointExtension>
        </extensions>
      </trkpt>
      <trkpt lat="46.10414" lon="6.26572">
        <ele>637</ele>
        <time>2021-03-02T12:29:54Z</time>
        <extensions>
          <gpxtpx:TrackPointExtension xmlns:gpxtpx="http://www.garmin.com/xmlschemas/TrackPointExtension/v1">
            <gpxtpx:hr>150</gpxtpx:hr>
          </gpxtpx:TrackPointExtension>
        </extensions>
      </trkpt>
      <trkpt lat="46.10411" lon="6.26572">
        <ele>637.2</ele>
        <time>2021-03-02T12:29:55Z</time>
        <extensions>
          <gpxtpx:TrackPointExtension xmlns:gpxtpx="http://www.garmin.com/xmlschemas/TrackPointExtension/v1">
            <gpxtpx:hr>150</gpxtpx:hr>
          </gpxtpx:TrackPointExtension>
        </extensions>
      </trkpt>
      <trkpt lat="46.10407" lon="6.26573">
        <ele>637.4</ele>
        <time>2021-03-02T12:29:56Z</time>
        <extensions>
          <gpxtpx:TrackPointExtension xmlns:gpxtpx="http://www.garmin.com/xmlschemas/TrackPointExtension/v1">
            <gpxtpx:hr>150</gpxtpx:hr>
          </gpxtpx:TrackPointExtension>
        </extensions>
      </trkpt>
      <trkpt lat="46.10403" lon="6.26573">
        <ele>637.5</ele>
        <time>2021-03-02T12:29:57Z</time>
        <extensions>
          <gpxtpx:TrackPointExtension xmlns:gpxtpx="http://www.garmin.com/xmlschemas/TrackPointExtension/v1">
            <gpxtpx:hr>150</gpxtpx:hr>
          </gpxtpx:TrackPointExtension>
        </extensions>
      </trkpt>
      <trkpt lat="46.10399" lon="6.26574">
        <ele>637.7</ele>
        <time>2021-03-02T12:29:58Z</time>
        <extensions>
          <gpxtpx:TrackPointExtension xmlns:gpxtpx="http://www.garmin.com/xmlschemas/TrackPointExtension/v1">
            <gpxtpx:hr>149</gpxtpx:hr>
          </gpxtpx:TrackPointExtension>
        </extensions>
      </trkpt>
      <trkpt lat="46.10396" lon="6.26574">
        <ele>637.9</ele>
        <time>2021-03-02T12:29:59Z</time>
        <extensions>
          <gpxtpx:TrackPointExtension xmlns:gpxtpx="http://www.garmin.com/xmlschemas/TrackPointExtension/v1">
            <gpxtpx:hr>149</gpxtpx:hr>
          </gpxtpx:TrackPointExtension>
        </extensions>
      </trkpt>
      <trkpt lat="46.10392" lon="6.26576">
        <ele>638</ele>
        <time>2021-03-02T12:30:00Z</time>
        <extensions>
          <gpxtpx:TrackPointExtension xmlns:gpxtpx="http://www.garmin.com/xmlschemas/TrackPointExtension/v1">
            <gpxtpx:hr>149</gpxtpx:hr>
          </gpxtpx:TrackPointExtension>
        </extensions>
      </trkpt>
      <trkpt lat="46.10388" lon="6.26577">
        <ele>638.2</ele>
        <time>2021-03-02T12:30:01Z</time>
        <extensions>
          <gpxtpx:TrackPointExtension xmlns:gpxtpx="http://www.garmin.com/xmlschemas/TrackPointExtension/v1">
            <gpxtpx:hr>149</gpxtpx:hr>
          </gpxtpx:TrackPointExtension>
        </extensions>
      </trkpt>
      <trkpt lat="46.10385" lon="6.26578">
        <ele>638.3</ele>
        <time>2021-03-02T12:30:02Z</time>
        <extensions>
          <gpxtpx:TrackPointExtension xmlns:gpxtpx="http://www.garmin.com/xmlschemas/TrackPointExtension/v1">
            <gpxtpx:hr>148</gpxtpx:hr>
          </gpxtpx:TrackPointExtension>
        </extensions>
      </trkpt>
      <trkpt lat="46.10381" lon="6.26579">
        <ele>638.5</ele>
        <time>2021-03-02T12:30:03Z</time>
        <extensions>
          <gpxtpx:TrackPointExtension xmlns:gpxtpx="http://www.garmin.com/xmlschemas/TrackPointExtension/v1">
            <gpxtpx:hr>148</gpxtpx:hr>
          </gpxtpx:TrackPointExtension>
        </extensions>
      </trkpt>
      <trkpt lat="46.10377" lon="6.2658">
        <ele>638.7</ele>
        <time>2021-03-02T12:30:04Z</time>
        <extensions>
          <gpxtpx:TrackPointExtension xmlns:gpxtpx="http://www.garmin.com/xmlschemas/TrackPointExtension/v1">
            <gpxtpx:hr>148</gpxtpx:hr>
          </gpxtpx:TrackPointExtension>
        </extensions>
      </trkpt>
      <trkpt lat="46.10374" lon="6.2658">
        <ele>638.8</ele>
        <time>2021-03-02T12:30:05Z</time>
        <extensions>
          <gpxtpx:TrackPointExtension xmlns:gpxtpx="http://www.garmin.com/xmlschemas/TrackPointExtension/v1">
            <gpxtpx:hr>147</gpxtpx:hr>
          </gpxtpx:TrackPointExtension>
        </extensions>
      </trkpt>
      <trkpt lat="46.1037" lon="6.26581">
        <ele>639</ele>
        <time>2021-03-02T12:30:06Z</time>
        <extensions>
          <gpxtpx:TrackPointExtension xmlns:gpxtpx="http://www.garmin.com/xmlschemas/TrackPointExtension/v1">
            <gpxtpx:hr>147</gpxtpx:hr>
          </gpxtpx:TrackPointExtension>
        </extensions>
      </trkpt>
      <trkpt lat="46.10366" lon="6.26582">
        <ele>639.1</ele>
        <time>2021-03-02T12:30:07Z</time>
        <extensions>
          <gpxtpx:TrackPointExtension xmlns:gpxtpx="http://www.garmin.com/xmlschemas/TrackPointExtension/v1">
            <gpxtpx:hr>146</gpxtpx:hr>
          </gpxtpx:TrackPointExtension>
        </extensions>
      </trkpt>
      <trkpt lat="46.10362" lon="6.26584">
        <ele>639.3</ele>
        <time>2021-03-02T12:30:08Z</time>
        <extensions>
          <gpxtpx:TrackPointExtension xmlns:gpxtpx="http://www.garmin.com/xmlschemas/TrackPointExtension/v1">
            <gpxtpx:hr>145</gpxtpx:hr>
          </gpxtpx:TrackPointExtension>
        </extensions>
      </trkpt>
      <trkpt lat="46.10358" lon="6.26585">
        <ele>639.5</ele>
        <time>2021-03-02T12:30:09Z</time>
        <extensions>
          <gpxtpx:TrackPointExtension xmlns:gpxtpx="http://www.garmin.com/xmlschemas/TrackPointExtension/v1">
            <gpxtpx:hr>145</gpxtpx:hr>
          </gpxtpx:TrackPointExtension>
        </extensions>
      </trkpt>
      <trkpt lat="46.10354" lon="6.26586">
        <ele>639.6</ele>
        <time>2021-03-02T12:30:10Z</time>
        <extensions>
          <gpxtpx:TrackPointExtension xmlns:gpxtpx="http://www.garmin.com/xmlschemas/TrackPointExtension/v1">
            <gpxtpx:hr>145</gpxtpx:hr>
          </gpxtpx:TrackPointExtension>
        </extensions>
      </trkpt>
      <trkpt lat="46.10351" lon="6.26587">
        <ele>639.8</ele>
        <time>2021-03-02T12:30:11Z</time>
        <extensions>
          <gpxtpx:TrackPointExtension xmlns:gpxtpx="http://www.garmin.com/xmlschemas/TrackPointExtension/v1">
            <gpxtpx:hr>145</gpxtpx:hr>
          </gpxtpx:TrackPointExtension>
        </extensions>
      </trkpt>
      <trkpt lat="46.10347" lon="6.26587">
        <ele>640</ele>
        <time>2021-03-02T12:30:12Z</time>
        <extensions>
          <gpxtpx:TrackPointExtension xmlns:gpxtpx="http://www.garmin.com/xmlschemas/TrackPointExtension/v1">
            <gpxtpx:hr>145</gpxtpx:hr>
          </gpxtpx:TrackPointExtension>
        </extensions>
      </trkpt>
      <trkpt lat="46.10343" lon="6.26587">
        <ele>640.1</ele>
        <time>2021-03-02T12:30:13Z</time>
        <extensions>
          <gpxtpx:TrackPointExtension xmlns:gpxtpx="http://www.garmin.com/xmlschemas/TrackPointExtension/v1">
            <gpxtpx:hr>145</gpxtpx:hr>
          </gpxtpx:TrackPointExtension>
        </extensions>
      </trkpt>
      <trkpt lat="46.1034" lon="6.26586">
        <ele>640.3</ele>
        <time>2021-03-02T12:30:14Z</time>
        <extensions>
          <gpxtpx:TrackPointExtension xmlns:gpxtpx="http://www.garmin.com/xmlschemas/TrackPointExtension/v1">
            <gpxtpx:hr>144</gpxtpx:hr>
          </gpxtpx:TrackPointExtension>
        </extensions>
      </trkpt>
      <trkpt lat="46.10336" lon="6.26584">
        <ele>640.5</ele>
        <time>2021-03-02T12:30:15Z</time>
        <extensions>
          <gpxtpx:TrackPointExtension xmlns:gpxtpx="http://www.garmin.com/xmlschemas/TrackPointExtension/v1">
            <gpxtpx:hr>144</gpxtpx:hr>
          </gpxtpx:TrackPointExtension>
        </extensions>
      </trkpt>
      <trkpt lat="46.10333" lon="6.26581">
        <ele>640.7</ele>
        <time>2021-03-02T12:30:16Z</time>
        <extensions>
          <gpxtpx:TrackPointExtension xmlns:gpxtpx="http://www.garmin.com/xmlschemas/TrackPointExtension/v1">
            <gpxtpx:hr>144</gpxtpx:hr>
          </gpxtpx:TrackPointExtension>
        </extensions>
      </trkpt>
      <trkpt lat="46.1033" lon="6.26577">
        <ele>640.8</ele>
        <time>2021-03-02T12:30:17Z</time>
        <extensions>
          <gpxtpx:TrackPointExtension xmlns:gpxtpx="http://www.garmin.com/xmlschemas/TrackPointExtension/v1">
            <gpxtpx:hr>144</gpxtpx:hr>
          </gpxtpx:TrackPointExtension>
        </extensions>
      </trkpt>
      <trkpt lat="46.10328" lon="6.26573">
        <ele>641</ele>
        <time>2021-03-02T12:30:18Z</time>
        <extensions>
          <gpxtpx:TrackPointExtension xmlns:gpxtpx="http://www.garmin.com/xmlschemas/TrackPointExtension/v1">
            <gpxtpx:hr>144</gpxtpx:hr>
          </gpxtpx:TrackPointExtension>
        </extensions>
      </trkpt>
      <trkpt lat="46.10327" lon="6.26569">
        <ele>641.1</ele>
        <time>2021-03-02T12:30:19Z</time>
        <extensions>
          <gpxtpx:TrackPointExtension xmlns:gpxtpx="http://www.garmin.com/xmlschemas/TrackPointExtension/v1">
            <gpxtpx:hr>144</gpxtpx:hr>
          </gpxtpx:TrackPointExtension>
        </extensions>
      </trkpt>
      <trkpt lat="46.10326" lon="6.26564">
        <ele>641.5</ele>
        <time>2021-03-02T12:30:20Z</time>
        <extensions>
          <gpxtpx:TrackPointExtension xmlns:gpxtpx="http://www.garmin.com/xmlschemas/TrackPointExtension/v1">
            <gpxtpx:hr>144</gpxtpx:hr>
          </gpxtpx:TrackPointExtension>
        </extensions>
      </trkpt>
      <trkpt lat="46.10325" lon="6.26558">
        <ele>641.7</ele>
        <time>2021-03-02T12:30:21Z</time>
        <extensions>
          <gpxtpx:TrackPointExtension xmlns:gpxtpx="http://www.garmin.com/xmlschemas/TrackPointExtension/v1">
            <gpxtpx:hr>143</gpxtpx:hr>
          </gpxtpx:TrackPointExtension>
        </extensions>
      </trkpt>
      <trkpt lat="46.10326" lon="6.26553">
        <ele>641.9</ele>
        <time>2021-03-02T12:30:22Z</time>
        <extensions>
          <gpxtpx:TrackPointExtension xmlns:gpxtpx="http://www.garmin.com/xmlschemas/TrackPointExtension/v1">
            <gpxtpx:hr>143</gpxtpx:hr>
          </gpxtpx:TrackPointExtension>
        </extensions>
      </trkpt>
      <trkpt lat="46.10326" lon="6.26548">
        <ele>642.1</ele>
        <time>2021-03-02T12:30:23Z</time>
        <extensions>
          <gpxtpx:TrackPointExtension xmlns:gpxtpx="http://www.garmin.com/xmlschemas/TrackPointExtension/v1">
            <gpxtpx:hr>143</gpxtpx:hr>
          </gpxtpx:TrackPointExtension>
        </extensions>
      </trkpt>
      <trkpt lat="46.10327" lon="6.26543">
        <ele>642.3</ele>
        <time>2021-03-02T12:30:24Z</time>
        <extensions>
          <gpxtpx:TrackPointExtension xmlns:gpxtpx="http://www.garmin.com/xmlschemas/TrackPointExtension/v1">
            <gpxtpx:hr>143</gpxtpx:hr>
          </gpxtpx:TrackPointExtension>
        </extensions>
      </trkpt>
      <trkpt lat="46.10329" lon="6.26538">
        <ele>642.5</ele>
        <time>2021-03-02T12:30:25Z</time>
        <extensions>
          <gpxtpx:TrackPointExtension xmlns:gpxtpx="http://www.garmin.com/xmlschemas/TrackPointExtension/v1">
            <gpxtpx:hr>143</gpxtpx:hr>
          </gpxtpx:TrackPointExtension>
        </extensions>
      </trkpt>
      <trkpt lat="46.1033" lon="6.26533">
        <ele>642.7</ele>
        <time>2021-03-02T12:30:26Z</time>
        <extensions>
          <gpxtpx:TrackPointExtension xmlns:gpxtpx="http://www.garmin.com/xmlschemas/TrackPointExtension/v1">
            <gpxtpx:hr>143</gpxtpx:hr>
          </gpxtpx:TrackPointExtension>
        </extensions>
      </trkpt>
      <trkpt lat="46.10332" lon="6.26529">
        <ele>642.9</ele>
        <time>2021-03-02T12:30:27Z</time>
        <extensions>
          <gpxtpx:TrackPointExtension xmlns:gpxtpx="http://www.garmin.com/xmlschemas/TrackPointExtension/v1">
            <gpxtpx:hr>143</gpxtpx:hr>
          </gpxtpx:TrackPointExtension>
        </extensions>
      </trkpt>
      <trkpt lat="46.10334" lon="6.26524">
        <ele>643.1</ele>
        <time>2021-03-02T12:30:28Z</time>
        <extensions>
          <gpxtpx:TrackPointExtension xmlns:gpxtpx="http://www.garmin.com/xmlschemas/TrackPointExtension/v1">
            <gpxtpx:hr>143</gpxtpx:hr>
          </gpxtpx:TrackPointExtension>
        </extensions>
      </trkpt>
      <trkpt lat="46.10335" lon="6.26519">
        <ele>643.3</ele>
        <time>2021-03-02T12:30:29Z</time>
        <extensions>
          <gpxtpx:TrackPointExtension xmlns:gpxtpx="http://www.garmin.com/xmlschemas/TrackPointExtension/v1">
            <gpxtpx:hr>142</gpxtpx:hr>
          </gpxtpx:TrackPointExtension>
        </extensions>
      </trkpt>
      <trkpt lat="46.10337" lon="6.26514">
        <ele>643.5</ele>
        <time>2021-03-02T12:30:30Z</time>
        <extensions>
          <gpxtpx:TrackPointExtension xmlns:gpxtpx="http://www.garmin.com/xmlschemas/TrackPointExtension/v1">
            <gpxtpx:hr>142</gpxtpx:hr>
          </gpxtpx:TrackPointExtension>
        </extensions>
      </trkpt>
      <trkpt lat="46.10339" lon="6.26509">
        <ele>643.7</ele>
        <time>2021-03-02T12:30:31Z</time>
        <extensions>
          <gpxtpx:TrackPointExtension xmlns:gpxtpx="http://www.garmin.com/xmlschemas/TrackPointExtension/v1">
            <gpxtpx:hr>142</gpxtpx:hr>
          </gpxtpx:TrackPointExtension>
        </extensions>
      </trkpt>
      <trkpt lat="46.10342" lon="6.26505">
        <ele>643.9</ele>
        <time>2021-03-02T12:30:32Z</time>
        <extensions>
          <gpxtpx:TrackPointExtension xmlns:gpxtpx="http://www.garmin.com/xmlschemas/TrackPointExtension/v1">
            <gpxtpx:hr>142</gpxtpx:hr>
          </gpxtpx:TrackPointExtension>
        </extensions>
      </trkpt>
      <trkpt lat="46.10344" lon="6.26501">
        <ele>644.1</ele>
        <time>2021-03-02T12:30:33Z</time>
        <extensions>
          <gpxtpx:TrackPointExtension xmlns:gpxtpx="http://www.garmin.com/xmlschemas/TrackPointExtension/v1">
            <gpxtpx:hr>142</gpxtpx:hr>
          </gpxtpx:TrackPointExtension>
        </extensions>
      </trkpt>
      <trkpt lat="46.10346" lon="6.26496">
        <ele>644.3</ele>
        <time>2021-03-02T12:30:34Z</time>
        <extensions>
          <gpxtpx:TrackPointExtension xmlns:gpxtpx="http://www.garmin.com/xmlschemas/TrackPointExtension/v1">
            <gpxtpx:hr>142</gpxtpx:hr>
          </gpxtpx:TrackPointExtension>
        </extensions>
      </trkpt>
      <trkpt lat="46.10349" lon="6.26492">
        <ele>644.6</ele>
        <time>2021-03-02T12:30:35Z</time>
        <extensions>
          <gpxtpx:TrackPointExtension xmlns:gpxtpx="http://www.garmin.com/xmlschemas/TrackPointExtension/v1">
            <gpxtpx:hr>142</gpxtpx:hr>
          </gpxtpx:TrackPointExtension>
        </extensions>
      </trkpt>
      <trkpt lat="46.10351" lon="6.26488">
        <ele>644.8</ele>
        <time>2021-03-02T12:30:36Z</time>
        <extensions>
          <gpxtpx:TrackPointExtension xmlns:gpxtpx="http://www.garmin.com/xmlschemas/TrackPointExtension/v1">
            <gpxtpx:hr>143</gpxtpx:hr>
          </gpxtpx:TrackPointExtension>
        </extensions>
      </trkpt>
      <trkpt lat="46.10354" lon="6.26485">
        <ele>645</ele>
        <time>2021-03-02T12:30:37Z</time>
        <extensions>
          <gpxtpx:TrackPointExtension xmlns:gpxtpx="http://www.garmin.com/xmlschemas/TrackPointExtension/v1">
            <gpxtpx:hr>143</gpxtpx:hr>
          </gpxtpx:TrackPointExtension>
        </extensions>
      </trkpt>
      <trkpt lat="46.10357" lon="6.26482">
        <ele>645.2</ele>
        <time>2021-03-02T12:30:38Z</time>
        <extensions>
          <gpxtpx:TrackPointExtension xmlns:gpxtpx="http://www.garmin.com/xmlschemas/TrackPointExtension/v1">
            <gpxtpx:hr>143</gpxtpx:hr>
          </gpxtpx:TrackPointExtension>
        </extensions>
      </trkpt>
      <trkpt lat="46.1036" lon="6.26479">
        <ele>645.4</ele>
        <time>2021-03-02T12:30:39Z</time>
        <extensions>
          <gpxtpx:TrackPointExtension xmlns:gpxtpx="http://www.garmin.com/xmlschemas/TrackPointExtension/v1">
            <gpxtpx:hr>143</gpxtpx:hr>
          </gpxtpx:TrackPointExtension>
        </extensions>
      </trkpt>
      <trkpt lat="46.10363" lon="6.26476">
        <ele>645.6</ele>
        <time>2021-03-02T12:30:40Z</time>
        <extensions>
          <gpxtpx:TrackPointExtension xmlns:gpxtpx="http://www.garmin.com/xmlschemas/TrackPointExtension/v1">
            <gpxtpx:hr>143</gpxtpx:hr>
          </gpxtpx:TrackPointExtension>
        </extensions>
      </trkpt>
      <trkpt lat="46.10366" lon="6.26474">
        <ele>645.8</ele>
        <time>2021-03-02T12:30:41Z</time>
        <extensions>
          <gpxtpx:TrackPointExtension xmlns:gpxtpx="http://www.garmin.com/xmlschemas/TrackPointExtension/v1">
            <gpxtpx:hr>143</gpxtpx:hr>
          </gpxtpx:TrackPointExtension>
        </extensions>
      </trkpt>
      <trkpt lat="46.10369" lon="6.26472">
        <ele>646</ele>
        <time>2021-03-02T12:30:42Z</time>
        <extensions>
          <gpxtpx:TrackPointExtension xmlns:gpxtpx="http://www.garmin.com/xmlschemas/TrackPointExtension/v1">
            <gpxtpx:hr>143</gpxtpx:hr>
          </gpxtpx:TrackPointExtension>
        </extensions>
      </trkpt>
      <trkpt lat="46.10372" lon="6.26469">
        <ele>646.2</ele>
        <time>2021-03-02T12:30:43Z</time>
        <extensions>
          <gpxtpx:TrackPointExtension xmlns:gpxtpx="http://www.garmin.com/xmlschemas/TrackPointExtension/v1">
            <gpxtpx:hr>143</gpxtpx:hr>
          </gpxtpx:TrackPointExtension>
        </extensions>
      </trkpt>
      <trkpt lat="46.10376" lon="6.26468">
        <ele>646.5</ele>
        <time>2021-03-02T12:30:44Z</time>
        <extensions>
          <gpxtpx:TrackPointExtension xmlns:gpxtpx="http://www.garmin.com/xmlschemas/TrackPointExtension/v1">
            <gpxtpx:hr>143</gpxtpx:hr>
          </gpxtpx:TrackPointExtension>
        </extensions>
      </trkpt>
      <trkpt lat="46.10379" lon="6.26466">
        <ele>646.7</ele>
        <time>2021-03-02T12:30:45Z</time>
        <extensions>
          <gpxtpx:TrackPointExtension xmlns:gpxtpx="http://www.garmin.com/xmlschemas/TrackPointExtension/v1">
            <gpxtpx:hr>143</gpxtpx:hr>
          </gpxtpx:TrackPointExtension>
        </extensions>
      </trkpt>
      <trkpt lat="46.10382" lon="6.26464">
        <ele>646.9</ele>
        <time>2021-03-02T12:30:46Z</time>
        <extensions>
          <gpxtpx:TrackPointExtension xmlns:gpxtpx="http://www.garmin.com/xmlschemas/TrackPointExtension/v1">
            <gpxtpx:hr>142</gpxtpx:hr>
          </gpxtpx:TrackPointExtension>
        </extensions>
      </trkpt>
      <trkpt lat="46.10386" lon="6.26463">
        <ele>647.2</ele>
        <time>2021-03-02T12:30:47Z</time>
        <extensions>
          <gpxtpx:TrackPointExtension xmlns:gpxtpx="http://www.garmin.com/xmlschemas/TrackPointExtension/v1">
            <gpxtpx:hr>142</gpxtpx:hr>
          </gpxtpx:TrackPointExtension>
        </extensions>
      </trkpt>
      <trkpt lat="46.10389" lon="6.26461">
        <ele>647.4</ele>
        <time>2021-03-02T12:30:48Z</time>
        <extensions>
          <gpxtpx:TrackPointExtension xmlns:gpxtpx="http://www.garmin.com/xmlschemas/TrackPointExtension/v1">
            <gpxtpx:hr>142</gpxtpx:hr>
          </gpxtpx:TrackPointExtension>
        </extensions>
      </trkpt>
      <trkpt lat="46.10392" lon="6.26459">
        <ele>647.6</ele>
        <time>2021-03-02T12:30:49Z</time>
        <extensions>
          <gpxtpx:TrackPointExtension xmlns:gpxtpx="http://www.garmin.com/xmlschemas/TrackPointExtension/v1">
            <gpxtpx:hr>142</gpxtpx:hr>
          </gpxtpx:TrackPointExtension>
        </extensions>
      </trkpt>
      <trkpt lat="46.10396" lon="6.26457">
        <ele>647.9</ele>
        <time>2021-03-02T12:30:50Z</time>
        <extensions>
          <gpxtpx:TrackPointExtension xmlns:gpxtpx="http://www.garmin.com/xmlschemas/TrackPointExtension/v1">
            <gpxtpx:hr>142</gpxtpx:hr>
          </gpxtpx:TrackPointExtension>
        </extensions>
      </trkpt>
      <trkpt lat="46.10399" lon="6.26455">
        <ele>648.1</ele>
        <time>2021-03-02T12:30:51Z</time>
        <extensions>
          <gpxtpx:TrackPointExtension xmlns:gpxtpx="http://www.garmin.com/xmlschemas/TrackPointExtension/v1">
            <gpxtpx:hr>142</gpxtpx:hr>
          </gpxtpx:TrackPointExtension>
        </extensions>
      </trkpt>
      <trkpt lat="46.10402" lon="6.26453">
        <ele>648.4</ele>
        <time>2021-03-02T12:30:52Z</time>
        <extensions>
          <gpxtpx:TrackPointExtension xmlns:gpxtpx="http://www.garmin.com/xmlschemas/TrackPointExtension/v1">
            <gpxtpx:hr>142</gpxtpx:hr>
          </gpxtpx:TrackPointExtension>
        </extensions>
      </trkpt>
      <trkpt lat="46.10405" lon="6.2645">
        <ele>648.6</ele>
        <time>2021-03-02T12:30:53Z</time>
        <extensions>
          <gpxtpx:TrackPointExtension xmlns:gpxtpx="http://www.garmin.com/xmlschemas/TrackPointExtension/v1">
            <gpxtpx:hr>142</gpxtpx:hr>
          </gpxtpx:TrackPointExtension>
        </extensions>
      </trkpt>
      <trkpt lat="46.10408" lon="6.26447">
        <ele>648.9</ele>
        <time>2021-03-02T12:30:54Z</time>
        <extensions>
          <gpxtpx:TrackPointExtension xmlns:gpxtpx="http://www.garmin.com/xmlschemas/TrackPointExtension/v1">
            <gpxtpx:hr>142</gpxtpx:hr>
          </gpxtpx:TrackPointExtension>
        </extensions>
      </trkpt>
      <trkpt lat="46.10411" lon="6.26443">
        <ele>649.1</ele>
        <time>2021-03-02T12:30:55Z</time>
        <extensions>
          <gpxtpx:TrackPointExtension xmlns:gpxtpx="http://www.garmin.com/xmlschemas/TrackPointExtension/v1">
            <gpxtpx:hr>142</gpxtpx:hr>
          </gpxtpx:TrackPointExtension>
        </extensions>
      </trkpt>
      <trkpt lat="46.10414" lon="6.2644">
        <ele>649.4</ele>
        <time>2021-03-02T12:30:56Z</time>
        <extensions>
          <gpxtpx:TrackPointExtension xmlns:gpxtpx="http://www.garmin.com/xmlschemas/TrackPointExtension/v1">
            <gpxtpx:hr>141</gpxtpx:hr>
          </gpxtpx:TrackPointExtension>
        </extensions>
      </trkpt>
      <trkpt lat="46.10417" lon="6.26436">
        <ele>649.7</ele>
        <time>2021-03-02T12:30:57Z</time>
        <extensions>
          <gpxtpx:TrackPointExtension xmlns:gpxtpx="http://www.garmin.com/xmlschemas/TrackPointExtension/v1">
            <gpxtpx:hr>141</gpxtpx:hr>
          </gpxtpx:TrackPointExtension>
        </extensions>
      </trkpt>
      <trkpt lat="46.10419" lon="6.26432">
        <ele>649.9</ele>
        <time>2021-03-02T12:30:58Z</time>
        <extensions>
          <gpxtpx:TrackPointExtension xmlns:gpxtpx="http://www.garmin.com/xmlschemas/TrackPointExtension/v1">
            <gpxtpx:hr>141</gpxtpx:hr>
          </gpxtpx:TrackPointExtension>
        </extensions>
      </trkpt>
      <trkpt lat="46.10422" lon="6.26428">
        <ele>650.2</ele>
        <time>2021-03-02T12:30:59Z</time>
        <extensions>
          <gpxtpx:TrackPointExtension xmlns:gpxtpx="http://www.garmin.com/xmlschemas/TrackPointExtension/v1">
            <gpxtpx:hr>141</gpxtpx:hr>
          </gpxtpx:TrackPointExtension>
        </extensions>
      </trkpt>
      <trkpt lat="46.10424" lon="6.26424">
        <ele>650.6</ele>
        <time>2021-03-02T12:31:00Z</time>
        <extensions>
          <gpxtpx:TrackPointExtension xmlns:gpxtpx="http://www.garmin.com/xmlschemas/TrackPointExtension/v1">
            <gpxtpx:hr>141</gpxtpx:hr>
          </gpxtpx:TrackPointExtension>
        </extensions>
      </trkpt>
      <trkpt lat="46.10426" lon="6.2642">
        <ele>650.9</ele>
        <time>2021-03-02T12:31:01Z</time>
        <extensions>
          <gpxtpx:TrackPointExtension xmlns:gpxtpx="http://www.garmin.com/xmlschemas/TrackPointExtension/v1">
            <gpxtpx:hr>141</gpxtpx:hr>
          </gpxtpx:TrackPointExtension>
        </extensions>
      </trkpt>
      <trkpt lat="46.10426" lon="6.26415">
        <ele>651.2</ele>
        <time>2021-03-02T12:31:02Z</time>
        <extensions>
          <gpxtpx:TrackPointExtension xmlns:gpxtpx="http://www.garmin.com/xmlschemas/TrackPointExtension/v1">
            <gpxtpx:hr>141</gpxtpx:hr>
          </gpxtpx:TrackPointExtension>
        </extensions>
      </trkpt>
      <trkpt lat="46.10424" lon="6.26411">
        <ele>651.4</ele>
        <time>2021-03-02T12:31:03Z</time>
        <extensions>
          <gpxtpx:TrackPointExtension xmlns:gpxtpx="http://www.garmin.com/xmlschemas/TrackPointExtension/v1">
            <gpxtpx:hr>141</gpxtpx:hr>
          </gpxtpx:TrackPointExtension>
        </extensions>
      </trkpt>
      <trkpt lat="46.10422" lon="6.26409">
        <ele>651.6</ele>
        <time>2021-03-02T12:31:04Z</time>
        <extensions>
          <gpxtpx:TrackPointExtension xmlns:gpxtpx="http://www.garmin.com/xmlschemas/TrackPointExtension/v1">
            <gpxtpx:hr>142</gpxtpx:hr>
          </gpxtpx:TrackPointExtension>
        </extensions>
      </trkpt>
      <trkpt lat="46.10419" lon="6.26409">
        <ele>651.8</ele>
        <time>2021-03-02T12:31:05Z</time>
        <extensions>
          <gpxtpx:TrackPointExtension xmlns:gpxtpx="http://www.garmin.com/xmlschemas/TrackPointExtension/v1">
            <gpxtpx:hr>142</gpxtpx:hr>
          </gpxtpx:TrackPointExtension>
        </extensions>
      </trkpt>
      <trkpt lat="46.10416" lon="6.26409">
        <ele>652</ele>
        <time>2021-03-02T12:31:06Z</time>
        <extensions>
          <gpxtpx:TrackPointExtension xmlns:gpxtpx="http://www.garmin.com/xmlschemas/TrackPointExtension/v1">
            <gpxtpx:hr>142</gpxtpx:hr>
          </gpxtpx:TrackPointExtension>
        </extensions>
      </trkpt>
      <trkpt lat="46.10413" lon="6.26409">
        <ele>652.1</ele>
        <time>2021-03-02T12:31:07Z</time>
        <extensions>
          <gpxtpx:TrackPointExtension xmlns:gpxtpx="http://www.garmin.com/xmlschemas/TrackPointExtension/v1">
            <gpxtpx:hr>142</gpxtpx:hr>
          </gpxtpx:TrackPointExtension>
        </extensions>
      </trkpt>
      <trkpt lat="46.1041" lon="6.2641">
        <ele>652.2</ele>
        <time>2021-03-02T12:31:08Z</time>
        <extensions>
          <gpxtpx:TrackPointExtension xmlns:gpxtpx="http://www.garmin.com/xmlschemas/TrackPointExtension/v1">
            <gpxtpx:hr>143</gpxtpx:hr>
          </gpxtpx:TrackPointExtension>
        </extensions>
      </trkpt>
      <trkpt lat="46.10407" lon="6.2641">
        <ele>652.3</ele>
        <time>2021-03-02T12:31:09Z</time>
        <extensions>
          <gpxtpx:TrackPointExtension xmlns:gpxtpx="http://www.garmin.com/xmlschemas/TrackPointExtension/v1">
            <gpxtpx:hr>143</gpxtpx:hr>
          </gpxtpx:TrackPointExtension>
        </extensions>
      </trkpt>
      <trkpt lat="46.10404" lon="6.2641">
        <ele>652.4</ele>
        <time>2021-03-02T12:31:10Z</time>
        <extensions>
          <gpxtpx:TrackPointExtension xmlns:gpxtpx="http://www.garmin.com/xmlschemas/TrackPointExtension/v1">
            <gpxtpx:hr>143</gpxtpx:hr>
          </gpxtpx:TrackPointExtension>
        </extensions>
      </trkpt>
      <trkpt lat="46.10402" lon="6.2641">
        <ele>652.6</ele>
        <time>2021-03-02T12:31:11Z</time>
        <extensions>
          <gpxtpx:TrackPointExtension xmlns:gpxtpx="http://www.garmin.com/xmlschemas/TrackPointExtension/v1">
            <gpxtpx:hr>143</gpxtpx:hr>
          </gpxtpx:TrackPointExtension>
        </extensions>
      </trkpt>
      <trkpt lat="46.10399" lon="6.2641">
        <ele>652.7</ele>
        <time>2021-03-02T12:31:12Z</time>
        <extensions>
          <gpxtpx:TrackPointExtension xmlns:gpxtpx="http://www.garmin.com/xmlschemas/TrackPointExtension/v1">
            <gpxtpx:hr>143</gpxtpx:hr>
          </gpxtpx:TrackPointExtension>
        </extensions>
      </trkpt>
      <trkpt lat="46.10396" lon="6.2641">
        <ele>652.8</ele>
        <time>2021-03-02T12:31:13Z</time>
        <extensions>
          <gpxtpx:TrackPointExtension xmlns:gpxtpx="http://www.garmin.com/xmlschemas/TrackPointExtension/v1">
            <gpxtpx:hr>142</gpxtpx:hr>
          </gpxtpx:TrackPointExtension>
        </extensions>
      </trkpt>
      <trkpt lat="46.10393" lon="6.26409">
        <ele>652.9</ele>
        <time>2021-03-02T12:31:14Z</time>
        <extensions>
          <gpxtpx:TrackPointExtension xmlns:gpxtpx="http://www.garmin.com/xmlschemas/TrackPointExtension/v1">
            <gpxtpx:hr>142</gpxtpx:hr>
          </gpxtpx:TrackPointExtension>
        </extensions>
      </trkpt>
      <trkpt lat="46.1039" lon="6.26409">
        <ele>653</ele>
        <time>2021-03-02T12:31:15Z</time>
        <extensions>
          <gpxtpx:TrackPointExtension xmlns:gpxtpx="http://www.garmin.com/xmlschemas/TrackPointExtension/v1">
            <gpxtpx:hr>142</gpxtpx:hr>
          </gpxtpx:TrackPointExtension>
        </extensions>
      </trkpt>
      <trkpt lat="46.10387" lon="6.26409">
        <ele>653.1</ele>
        <time>2021-03-02T12:31:16Z</time>
        <extensions>
          <gpxtpx:TrackPointExtension xmlns:gpxtpx="http://www.garmin.com/xmlschemas/TrackPointExtension/v1">
            <gpxtpx:hr>142</gpxtpx:hr>
          </gpxtpx:TrackPointExtension>
        </extensions>
      </trkpt>
      <trkpt lat="46.10384" lon="6.26409">
        <ele>653.2</ele>
        <time>2021-03-02T12:31:17Z</time>
        <extensions>
          <gpxtpx:TrackPointExtension xmlns:gpxtpx="http://www.garmin.com/xmlschemas/TrackPointExtension/v1">
            <gpxtpx:hr>142</gpxtpx:hr>
          </gpxtpx:TrackPointExtension>
        </extensions>
      </trkpt>
      <trkpt lat="46.10381" lon="6.26409">
        <ele>653.3</ele>
        <time>2021-03-02T12:31:18Z</time>
        <extensions>
          <gpxtpx:TrackPointExtension xmlns:gpxtpx="http://www.garmin.com/xmlschemas/TrackPointExtension/v1">
            <gpxtpx:hr>142</gpxtpx:hr>
          </gpxtpx:TrackPointExtension>
        </extensions>
      </trkpt>
      <trkpt lat="46.10378" lon="6.26409">
        <ele>653.4</ele>
        <time>2021-03-02T12:31:19Z</time>
        <extensions>
          <gpxtpx:TrackPointExtension xmlns:gpxtpx="http://www.garmin.com/xmlschemas/TrackPointExtension/v1">
            <gpxtpx:hr>142</gpxtpx:hr>
          </gpxtpx:TrackPointExtension>
        </extensions>
      </trkpt>
      <trkpt lat="46.10375" lon="6.26409">
        <ele>653.5</ele>
        <time>2021-03-02T12:31:20Z</time>
        <extensions>
          <gpxtpx:TrackPointExtension xmlns:gpxtpx="http://www.garmin.com/xmlschemas/TrackPointExtension/v1">
            <gpxtpx:hr>143</gpxtpx:hr>
          </gpxtpx:TrackPointExtension>
        </extensions>
      </trkpt>
      <trkpt lat="46.10372" lon="6.26409">
        <ele>653.5</ele>
        <time>2021-03-02T12:31:21Z</time>
        <extensions>
          <gpxtpx:TrackPointExtension xmlns:gpxtpx="http://www.garmin.com/xmlschemas/TrackPointExtension/v1">
            <gpxtpx:hr>143</gpxtpx:hr>
          </gpxtpx:TrackPointExtension>
        </extensions>
      </trkpt>
      <trkpt lat="46.10369" lon="6.2641">
        <ele>653.5</ele>
        <time>2021-03-02T12:31:22Z</time>
        <extensions>
          <gpxtpx:TrackPointExtension xmlns:gpxtpx="http://www.garmin.com/xmlschemas/TrackPointExtension/v1">
            <gpxtpx:hr>143</gpxtpx:hr>
          </gpxtpx:TrackPointExtension>
        </extensions>
      </trkpt>
      <trkpt lat="46.10366" lon="6.2641">
        <ele>653.6</ele>
        <time>2021-03-02T12:31:23Z</time>
        <extensions>
          <gpxtpx:TrackPointExtension xmlns:gpxtpx="http://www.garmin.com/xmlschemas/TrackPointExtension/v1">
            <gpxtpx:hr>144</gpxtpx:hr>
          </gpxtpx:TrackPointExtension>
        </extensions>
      </trkpt>
      <trkpt lat="46.10363" lon="6.26411">
        <ele>653.6</ele>
        <time>2021-03-02T12:31:24Z</time>
        <extensions>
          <gpxtpx:TrackPointExtension xmlns:gpxtpx="http://www.garmin.com/xmlschemas/TrackPointExtension/v1">
            <gpxtpx:hr>144</gpxtpx:hr>
          </gpxtpx:TrackPointExtension>
        </extensions>
      </trkpt>
      <trkpt lat="46.1036" lon="6.26411">
        <ele>653.7</ele>
        <time>2021-03-02T12:31:25Z</time>
        <extensions>
          <gpxtpx:TrackPointExtension xmlns:gpxtpx="http://www.garmin.com/xmlschemas/TrackPointExtension/v1">
            <gpxtpx:hr>144</gpxtpx:hr>
          </gpxtpx:TrackPointExtension>
        </extensions>
      </trkpt>
      <trkpt lat="46.10357" lon="6.26411">
        <ele>653.7</ele>
        <time>2021-03-02T12:31:26Z</time>
        <extensions>
          <gpxtpx:TrackPointExtension xmlns:gpxtpx="http://www.garmin.com/xmlschemas/TrackPointExtension/v1">
            <gpxtpx:hr>144</gpxtpx:hr>
          </gpxtpx:TrackPointExtension>
        </extensions>
      </trkpt>
      <trkpt lat="46.10355" lon="6.26412">
        <ele>653.8</ele>
        <time>2021-03-02T12:31:27Z</time>
        <extensions>
          <gpxtpx:TrackPointExtension xmlns:gpxtpx="http://www.garmin.com/xmlschemas/TrackPointExtension/v1">
            <gpxtpx:hr>144</gpxtpx:hr>
          </gpxtpx:TrackPointExtension>
        </extensions>
      </trkpt>
      <trkpt lat="46.10352" lon="6.26413">
        <ele>653.8</ele>
        <time>2021-03-02T12:31:28Z</time>
        <extensions>
          <gpxtpx:TrackPointExtension xmlns:gpxtpx="http://www.garmin.com/xmlschemas/TrackPointExtension/v1">
            <gpxtpx:hr>144</gpxtpx:hr>
          </gpxtpx:TrackPointExtension>
        </extensions>
      </trkpt>
      <trkpt lat="46.1035" lon="6.26413">
        <ele>653.9</ele>
        <time>2021-03-02T12:31:29Z</time>
        <extensions>
          <gpxtpx:TrackPointExtension xmlns:gpxtpx="http://www.garmin.com/xmlschemas/TrackPointExtension/v1">
            <gpxtpx:hr>144</gpxtpx:hr>
          </gpxtpx:TrackPointExtension>
        </extensions>
      </trkpt>
      <trkpt lat="46.10348" lon="6.26413">
        <ele>654</ele>
        <time>2021-03-02T12:31:30Z</time>
        <extensions>
          <gpxtpx:TrackPointExtension xmlns:gpxtpx="http://www.garmin.com/xmlschemas/TrackPointExtension/v1">
            <gpxtpx:hr>145</gpxtpx:hr>
          </gpxtpx:TrackPointExtension>
        </extensions>
      </trkpt>
      <trkpt lat="46.10346" lon="6.26414">
        <ele>654.1</ele>
        <time>2021-03-02T12:31:31Z</time>
        <extensions>
          <gpxtpx:TrackPointExtension xmlns:gpxtpx="http://www.garmin.com/xmlschemas/TrackPointExtension/v1">
            <gpxtpx:hr>145</gpxtpx:hr>
          </gpxtpx:TrackPointExtension>
        </extensions>
      </trkpt>
      <trkpt lat="46.10344" lon="6.26415">
        <ele>654.2</ele>
        <time>2021-03-02T12:31:32Z</time>
        <extensions>
          <gpxtpx:TrackPointExtension xmlns:gpxtpx="http://www.garmin.com/xmlschemas/TrackPointExtension/v1">
            <gpxtpx:hr>145</gpxtpx:hr>
          </gpxtpx:TrackPointExtension>
        </extensions>
      </trkpt>
      <trkpt lat="46.10341" lon="6.26416">
        <ele>654.3</ele>
        <time>2021-03-02T12:31:33Z</time>
        <extensions>
          <gpxtpx:TrackPointExtension xmlns:gpxtpx="http://www.garmin.com/xmlschemas/TrackPointExtension/v1">
            <gpxtpx:hr>145</gpxtpx:hr>
          </gpxtpx:TrackPointExtension>
        </extensions>
      </trkpt>
      <trkpt lat="46.10339" lon="6.26416">
        <ele>654.4</ele>
        <time>2021-03-02T12:31:34Z</time>
        <extensions>
          <gpxtpx:TrackPointExtension xmlns:gpxtpx="http://www.garmin.com/xmlschemas/TrackPointExtension/v1">
            <gpxtpx:hr>145</gpxtpx:hr>
          </gpxtpx:TrackPointExtension>
        </extensions>
      </trkpt>
      <trkpt lat="46.10337" lon="6.26418">
        <ele>654.5</ele>
        <time>2021-03-02T12:31:35Z</time>
        <extensions>
          <gpxtpx:TrackPointExtension xmlns:gpxtpx="http://www.garmin.com/xmlschemas/TrackPointExtension/v1">
            <gpxtpx:hr>146</gpxtpx:hr>
          </gpxtpx:TrackPointExtension>
        </extensions>
      </trkpt>
      <trkpt lat="46.10335" lon="6.26418">
        <ele>654.6</ele>
        <time>2021-03-02T12:31:36Z</time>
        <extensions>
          <gpxtpx:TrackPointExtension xmlns:gpxtpx="http://www.garmin.com/xmlschemas/TrackPointExtension/v1">
            <gpxtpx:hr>146</gpxtpx:hr>
          </gpxtpx:TrackPointExtension>
        </extensions>
      </trkpt>
      <trkpt lat="46.10332" lon="6.26419">
        <ele>654.8</ele>
        <time>2021-03-02T12:31:37Z</time>
        <extensions>
          <gpxtpx:TrackPointExtension xmlns:gpxtpx="http://www.garmin.com/xmlschemas/TrackPointExtension/v1">
            <gpxtpx:hr>147</gpxtpx:hr>
          </gpxtpx:TrackPointExtension>
        </extensions>
      </trkpt>
      <trkpt lat="46.10329" lon="6.26419">
        <ele>654.9</ele>
        <time>2021-03-02T12:31:38Z</time>
        <extensions>
          <gpxtpx:TrackPointExtension xmlns:gpxtpx="http://www.garmin.com/xmlschemas/TrackPointExtension/v1">
            <gpxtpx:hr>147</gpxtpx:hr>
          </gpxtpx:TrackPointExtension>
        </extensions>
      </trkpt>
      <trkpt lat="46.10326" lon="6.2642">
        <ele>655.1</ele>
        <time>2021-03-02T12:31:39Z</time>
        <extensions>
          <gpxtpx:TrackPointExtension xmlns:gpxtpx="http://www.garmin.com/xmlschemas/TrackPointExtension/v1">
            <gpxtpx:hr>147</gpxtpx:hr>
          </gpxtpx:TrackPointExtension>
        </extensions>
      </trkpt>
      <trkpt lat="46.10323" lon="6.2642">
        <ele>655.3</ele>
        <time>2021-03-02T12:31:40Z</time>
        <extensions>
          <gpxtpx:TrackPointExtension xmlns:gpxtpx="http://www.garmin.com/xmlschemas/TrackPointExtension/v1">
            <gpxtpx:hr>147</gpxtpx:hr>
          </gpxtpx:TrackPointExtension>
        </extensions>
      </trkpt>
      <trkpt lat="46.1032" lon="6.26421">
        <ele>655.5</ele>
        <time>2021-03-02T12:31:41Z</time>
        <extensions>
          <gpxtpx:TrackPointExtension xmlns:gpxtpx="http://www.garmin.com/xmlschemas/TrackPointExtension/v1">
            <gpxtpx:hr>147</gpxtpx:hr>
          </gpxtpx:TrackPointExtension>
        </extensions>
      </trkpt>
      <trkpt lat="46.10317" lon="6.26422">
        <ele>655.7</ele>
        <time>2021-03-02T12:31:42Z</time>
        <extensions>
          <gpxtpx:TrackPointExtension xmlns:gpxtpx="http://www.garmin.com/xmlschemas/TrackPointExtension/v1">
            <gpxtpx:hr>148</gpxtpx:hr>
          </gpxtpx:TrackPointExtension>
        </extensions>
      </trkpt>
      <trkpt lat="46.10315" lon="6.26422">
        <ele>655.9</ele>
        <time>2021-03-02T12:31:43Z</time>
        <extensions>
          <gpxtpx:TrackPointExtension xmlns:gpxtpx="http://www.garmin.com/xmlschemas/TrackPointExtension/v1">
            <gpxtpx:hr>148</gpxtpx:hr>
          </gpxtpx:TrackPointExtension>
        </extensions>
      </trkpt>
      <trkpt lat="46.10312" lon="6.26423">
        <ele>656.1</ele>
        <time>2021-03-02T12:31:44Z</time>
        <extensions>
          <gpxtpx:TrackPointExtension xmlns:gpxtpx="http://www.garmin.com/xmlschemas/TrackPointExtension/v1">
            <gpxtpx:hr>149</gpxtpx:hr>
          </gpxtpx:TrackPointExtension>
        </extensions>
      </trkpt>
      <trkpt lat="46.10309" lon="6.26424">
        <ele>656.3</ele>
        <time>2021-03-02T12:31:45Z</time>
        <extensions>
          <gpxtpx:TrackPointExtension xmlns:gpxtpx="http://www.garmin.com/xmlschemas/TrackPointExtension/v1">
            <gpxtpx:hr>149</gpxtpx:hr>
          </gpxtpx:TrackPointExtension>
        </extensions>
      </trkpt>
      <trkpt lat="46.10307" lon="6.26425">
        <ele>656.4</ele>
        <time>2021-03-02T12:31:46Z</time>
        <extensions>
          <gpxtpx:TrackPointExtension xmlns:gpxtpx="http://www.garmin.com/xmlschemas/TrackPointExtension/v1">
            <gpxtpx:hr>149</gpxtpx:hr>
          </gpxtpx:TrackPointExtension>
        </extensions>
      </trkpt>
      <trkpt lat="46.10304" lon="6.26425">
        <ele>656.7</ele>
        <time>2021-03-02T12:31:47Z</time>
        <extensions>
          <gpxtpx:TrackPointExtension xmlns:gpxtpx="http://www.garmin.com/xmlschemas/TrackPointExtension/v1">
            <gpxtpx:hr>150</gpxtpx:hr>
          </gpxtpx:TrackPointExtension>
        </extensions>
      </trkpt>
      <trkpt lat="46.10301" lon="6.26426">
        <ele>656.9</ele>
        <time>2021-03-02T12:31:48Z</time>
        <extensions>
          <gpxtpx:TrackPointExtension xmlns:gpxtpx="http://www.garmin.com/xmlschemas/TrackPointExtension/v1">
            <gpxtpx:hr>150</gpxtpx:hr>
          </gpxtpx:TrackPointExtension>
        </extensions>
      </trkpt>
      <trkpt lat="46.10298" lon="6.26426">
        <ele>657.1</ele>
        <time>2021-03-02T12:31:49Z</time>
        <extensions>
          <gpxtpx:TrackPointExtension xmlns:gpxtpx="http://www.garmin.com/xmlschemas/TrackPointExtension/v1">
            <gpxtpx:hr>150</gpxtpx:hr>
          </gpxtpx:TrackPointExtension>
        </extensions>
      </trkpt>
      <trkpt lat="46.10296" lon="6.26426">
        <ele>657.3</ele>
        <time>2021-03-02T12:31:50Z</time>
        <extensions>
          <gpxtpx:TrackPointExtension xmlns:gpxtpx="http://www.garmin.com/xmlschemas/TrackPointExtension/v1">
            <gpxtpx:hr>150</gpxtpx:hr>
          </gpxtpx:TrackPointExtension>
        </extensions>
      </trkpt>
      <trkpt lat="46.10293" lon="6.26427">
        <ele>657.5</ele>
        <time>2021-03-02T12:31:51Z</time>
        <extensions>
          <gpxtpx:TrackPointExtension xmlns:gpxtpx="http://www.garmin.com/xmlschemas/TrackPointExtension/v1">
            <gpxtpx:hr>150</gpxtpx:hr>
          </gpxtpx:TrackPointExtension>
        </extensions>
      </trkpt>
      <trkpt lat="46.1029" lon="6.26427">
        <ele>657.7</ele>
        <time>2021-03-02T12:31:52Z</time>
        <extensions>
          <gpxtpx:TrackPointExtension xmlns:gpxtpx="http://www.garmin.com/xmlschemas/TrackPointExtension/v1">
            <gpxtpx:hr>151</gpxtpx:hr>
          </gpxtpx:TrackPointExtension>
        </extensions>
      </trkpt>
      <trkpt lat="46.10287" lon="6.26427">
        <ele>657.9</ele>
        <time>2021-03-02T12:31:53Z</time>
        <extensions>
          <gpxtpx:TrackPointExtension xmlns:gpxtpx="http://www.garmin.com/xmlschemas/TrackPointExtension/v1">
            <gpxtpx:hr>151</gpxtpx:hr>
          </gpxtpx:TrackPointExtension>
        </extensions>
      </trkpt>
      <trkpt lat="46.10284" lon="6.26427">
        <ele>658.1</ele>
        <time>2021-03-02T12:31:54Z</time>
        <extensions>
          <gpxtpx:TrackPointExtension xmlns:gpxtpx="http://www.garmin.com/xmlschemas/TrackPointExtension/v1">
            <gpxtpx:hr>151</gpxtpx:hr>
          </gpxtpx:TrackPointExtension>
        </extensions>
      </trkpt>
      <trkpt lat="46.10282" lon="6.26427">
        <ele>658.3</ele>
        <time>2021-03-02T12:31:55Z</time>
        <extensions>
          <gpxtpx:TrackPointExtension xmlns:gpxtpx="http://www.garmin.com/xmlschemas/TrackPointExtension/v1">
            <gpxtpx:hr>151</gpxtpx:hr>
          </gpxtpx:TrackPointExtension>
        </extensions>
      </trkpt>
      <trkpt lat="46.10279" lon="6.26428">
        <ele>658.5</ele>
        <time>2021-03-02T12:31:56Z</time>
        <extensions>
          <gpxtpx:TrackPointExtension xmlns:gpxtpx="http://www.garmin.com/xmlschemas/TrackPointExtension/v1">
            <gpxtpx:hr>151</gpxtpx:hr>
          </gpxtpx:TrackPointExtension>
        </extensions>
      </trkpt>
      <trkpt lat="46.10277" lon="6.26428">
        <ele>658.7</ele>
        <time>2021-03-02T12:31:57Z</time>
        <extensions>
          <gpxtpx:TrackPointExtension xmlns:gpxtpx="http://www.garmin.com/xmlschemas/TrackPointExtension/v1">
            <gpxtpx:hr>151</gpxtpx:hr>
          </gpxtpx:TrackPointExtension>
        </extensions>
      </trkpt>
      <trkpt lat="46.10275" lon="6.26429">
        <ele>658.8</ele>
        <time>2021-03-02T12:31:58Z</time>
        <extensions>
          <gpxtpx:TrackPointExtension xmlns:gpxtpx="http://www.garmin.com/xmlschemas/TrackPointExtension/v1">
            <gpxtpx:hr>151</gpxtpx:hr>
          </gpxtpx:TrackPointExtension>
        </extensions>
      </trkpt>
      <trkpt lat="46.10272" lon="6.26428">
        <ele>659</ele>
        <time>2021-03-02T12:31:59Z</time>
        <extensions>
          <gpxtpx:TrackPointExtension xmlns:gpxtpx="http://www.garmin.com/xmlschemas/TrackPointExtension/v1">
            <gpxtpx:hr>151</gpxtpx:hr>
          </gpxtpx:TrackPointExtension>
        </extensions>
      </trkpt>
      <trkpt lat="46.1027" lon="6.26429">
        <ele>659.2</ele>
        <time>2021-03-02T12:32:00Z</time>
        <extensions>
          <gpxtpx:TrackPointExtension xmlns:gpxtpx="http://www.garmin.com/xmlschemas/TrackPointExtension/v1">
            <gpxtpx:hr>151</gpxtpx:hr>
          </gpxtpx:TrackPointExtension>
        </extensions>
      </trkpt>
      <trkpt lat="46.10267" lon="6.26429">
        <ele>659.4</ele>
        <time>2021-03-02T12:32:01Z</time>
        <extensions>
          <gpxtpx:TrackPointExtension xmlns:gpxtpx="http://www.garmin.com/xmlschemas/TrackPointExtension/v1">
            <gpxtpx:hr>152</gpxtpx:hr>
          </gpxtpx:TrackPointExtension>
        </extensions>
      </trkpt>
      <trkpt lat="46.10265" lon="6.26429">
        <ele>659.6</ele>
        <time>2021-03-02T12:32:02Z</time>
        <extensions>
          <gpxtpx:TrackPointExtension xmlns:gpxtpx="http://www.garmin.com/xmlschemas/TrackPointExtension/v1">
            <gpxtpx:hr>152</gpxtpx:hr>
          </gpxtpx:TrackPointExtension>
        </extensions>
      </trkpt>
      <trkpt lat="46.10263" lon="6.2643">
        <ele>659.8</ele>
        <time>2021-03-02T12:32:03Z</time>
        <extensions>
          <gpxtpx:TrackPointExtension xmlns:gpxtpx="http://www.garmin.com/xmlschemas/TrackPointExtension/v1">
            <gpxtpx:hr>152</gpxtpx:hr>
          </gpxtpx:TrackPointExtension>
        </extensions>
      </trkpt>
      <trkpt lat="46.1026" lon="6.26431">
        <ele>660</ele>
        <time>2021-03-02T12:32:04Z</time>
        <extensions>
          <gpxtpx:TrackPointExtension xmlns:gpxtpx="http://www.garmin.com/xmlschemas/TrackPointExtension/v1">
            <gpxtpx:hr>152</gpxtpx:hr>
          </gpxtpx:TrackPointExtension>
        </extensions>
      </trkpt>
      <trkpt lat="46.10258" lon="6.26431">
        <ele>660.2</ele>
        <time>2021-03-02T12:32:05Z</time>
        <extensions>
          <gpxtpx:TrackPointExtension xmlns:gpxtpx="http://www.garmin.com/xmlschemas/TrackPointExtension/v1">
            <gpxtpx:hr>152</gpxtpx:hr>
          </gpxtpx:TrackPointExtension>
        </extensions>
      </trkpt>
      <trkpt lat="46.10255" lon="6.26431">
        <ele>660.4</ele>
        <time>2021-03-02T12:32:06Z</time>
        <extensions>
          <gpxtpx:TrackPointExtension xmlns:gpxtpx="http://www.garmin.com/xmlschemas/TrackPointExtension/v1">
            <gpxtpx:hr>152</gpxtpx:hr>
          </gpxtpx:TrackPointExtension>
        </extensions>
      </trkpt>
      <trkpt lat="46.10253" lon="6.26432">
        <ele>660.6</ele>
        <time>2021-03-02T12:32:07Z</time>
        <extensions>
          <gpxtpx:TrackPointExtension xmlns:gpxtpx="http://www.garmin.com/xmlschemas/TrackPointExtension/v1">
            <gpxtpx:hr>152</gpxtpx:hr>
          </gpxtpx:TrackPointExtension>
        </extensions>
      </trkpt>
      <trkpt lat="46.1025" lon="6.26432">
        <ele>660.9</ele>
        <time>2021-03-02T12:32:08Z</time>
        <extensions>
          <gpxtpx:TrackPointExtension xmlns:gpxtpx="http://www.garmin.com/xmlschemas/TrackPointExtension/v1">
            <gpxtpx:hr>152</gpxtpx:hr>
          </gpxtpx:TrackPointExtension>
        </extensions>
      </trkpt>
      <trkpt lat="46.10247" lon="6.26432">
        <ele>661.1</ele>
        <time>2021-03-02T12:32:09Z</time>
        <extensions>
          <gpxtpx:TrackPointExtension xmlns:gpxtpx="http://www.garmin.com/xmlschemas/TrackPointExtension/v1">
            <gpxtpx:hr>152</gpxtpx:hr>
          </gpxtpx:TrackPointExtension>
        </extensions>
      </trkpt>
      <trkpt lat="46.10245" lon="6.26432">
        <ele>661.3</ele>
        <time>2021-03-02T12:32:10Z</time>
        <extensions>
          <gpxtpx:TrackPointExtension xmlns:gpxtpx="http://www.garmin.com/xmlschemas/TrackPointExtension/v1">
            <gpxtpx:hr>152</gpxtpx:hr>
          </gpxtpx:TrackPointExtension>
        </extensions>
      </trkpt>
      <trkpt lat="46.10242" lon="6.26432">
        <ele>661.5</ele>
        <time>2021-03-02T12:32:11Z</time>
        <extensions>
          <gpxtpx:TrackPointExtension xmlns:gpxtpx="http://www.garmin.com/xmlschemas/TrackPointExtension/v1">
            <gpxtpx:hr>152</gpxtpx:hr>
          </gpxtpx:TrackPointExtension>
        </extensions>
      </trkpt>
      <trkpt lat="46.10239" lon="6.26432">
        <ele>661.8</ele>
        <time>2021-03-02T12:32:12Z</time>
        <extensions>
          <gpxtpx:TrackPointExtension xmlns:gpxtpx="http://www.garmin.com/xmlschemas/TrackPointExtension/v1">
            <gpxtpx:hr>152</gpxtpx:hr>
          </gpxtpx:TrackPointExtension>
        </extensions>
      </trkpt>
      <trkpt lat="46.10236" lon="6.26433">
        <ele>662</ele>
        <time>2021-03-02T12:32:13Z</time>
        <extensions>
          <gpxtpx:TrackPointExtension xmlns:gpxtpx="http://www.garmin.com/xmlschemas/TrackPointExtension/v1">
            <gpxtpx:hr>152</gpxtpx:hr>
          </gpxtpx:TrackPointExtension>
        </extensions>
      </trkpt>
      <trkpt lat="46.10233" lon="6.26433">
        <ele>662.2</ele>
        <time>2021-03-02T12:32:14Z</time>
        <extensions>
          <gpxtpx:TrackPointExtension xmlns:gpxtpx="http://www.garmin.com/xmlschemas/TrackPointExtension/v1">
            <gpxtpx:hr>152</gpxtpx:hr>
          </gpxtpx:TrackPointExtension>
        </extensions>
      </trkpt>
      <trkpt lat="46.10231" lon="6.26432">
        <ele>662.5</ele>
        <time>2021-03-02T12:32:15Z</time>
        <extensions>
          <gpxtpx:TrackPointExtension xmlns:gpxtpx="http://www.garmin.com/xmlschemas/TrackPointExtension/v1">
            <gpxtpx:hr>152</gpxtpx:hr>
          </gpxtpx:TrackPointExtension>
        </extensions>
      </trkpt>
      <trkpt lat="46.10228" lon="6.26433">
        <ele>662.7</ele>
        <time>2021-03-02T12:32:16Z</time>
        <extensions>
          <gpxtpx:TrackPointExtension xmlns:gpxtpx="http://www.garmin.com/xmlschemas/TrackPointExtension/v1">
            <gpxtpx:hr>152</gpxtpx:hr>
          </gpxtpx:TrackPointExtension>
        </extensions>
      </trkpt>
      <trkpt lat="46.10225" lon="6.26432">
        <ele>663</ele>
        <time>2021-03-02T12:32:17Z</time>
        <extensions>
          <gpxtpx:TrackPointExtension xmlns:gpxtpx="http://www.garmin.com/xmlschemas/TrackPointExtension/v1">
            <gpxtpx:hr>152</gpxtpx:hr>
          </gpxtpx:TrackPointExtension>
        </extensions>
      </trkpt>
      <trkpt lat="46.10222" lon="6.26432">
        <ele>663.3</ele>
        <time>2021-03-02T12:32:18Z</time>
        <extensions>
          <gpxtpx:TrackPointExtension xmlns:gpxtpx="http://www.garmin.com/xmlschemas/TrackPointExtension/v1">
            <gpxtpx:hr>152</gpxtpx:hr>
          </gpxtpx:TrackPointExtension>
        </extensions>
      </trkpt>
      <trkpt lat="46.10219" lon="6.26432">
        <ele>663.5</ele>
        <time>2021-03-02T12:32:19Z</time>
        <extensions>
          <gpxtpx:TrackPointExtension xmlns:gpxtpx="http://www.garmin.com/xmlschemas/TrackPointExtension/v1">
            <gpxtpx:hr>152</gpxtpx:hr>
          </gpxtpx:TrackPointExtension>
        </extensions>
      </trkpt>
      <trkpt lat="46.10216" lon="6.26432">
        <ele>663.7</ele>
        <time>2021-03-02T12:32:20Z</time>
        <extensions>
          <gpxtpx:TrackPointExtension xmlns:gpxtpx="http://www.garmin.com/xmlschemas/TrackPointExtension/v1">
            <gpxtpx:hr>152</gpxtpx:hr>
          </gpxtpx:TrackPointExtension>
        </extensions>
      </trkpt>
      <trkpt lat="46.10213" lon="6.26432">
        <ele>664</ele>
        <time>2021-03-02T12:32:21Z</time>
        <extensions>
          <gpxtpx:TrackPointExtension xmlns:gpxtpx="http://www.garmin.com/xmlschemas/TrackPointExtension/v1">
            <gpxtpx:hr>152</gpxtpx:hr>
          </gpxtpx:TrackPointExtension>
        </extensions>
      </trkpt>
      <trkpt lat="46.1021" lon="6.26431">
        <ele>664.2</ele>
        <time>2021-03-02T12:32:22Z</time>
        <extensions>
          <gpxtpx:TrackPointExtension xmlns:gpxtpx="http://www.garmin.com/xmlschemas/TrackPointExtension/v1">
            <gpxtpx:hr>151</gpxtpx:hr>
          </gpxtpx:TrackPointExtension>
        </extensions>
      </trkpt>
      <trkpt lat="46.10207" lon="6.26431">
        <ele>664.5</ele>
        <time>2021-03-02T12:32:23Z</time>
        <extensions>
          <gpxtpx:TrackPointExtension xmlns:gpxtpx="http://www.garmin.com/xmlschemas/TrackPointExtension/v1">
            <gpxtpx:hr>151</gpxtpx:hr>
          </gpxtpx:TrackPointExtension>
        </extensions>
      </trkpt>
      <trkpt lat="46.10204" lon="6.26432">
        <ele>664.7</ele>
        <time>2021-03-02T12:32:24Z</time>
        <extensions>
          <gpxtpx:TrackPointExtension xmlns:gpxtpx="http://www.garmin.com/xmlschemas/TrackPointExtension/v1">
            <gpxtpx:hr>151</gpxtpx:hr>
          </gpxtpx:TrackPointExtension>
        </extensions>
      </trkpt>
      <trkpt lat="46.10201" lon="6.26432">
        <ele>665</ele>
        <time>2021-03-02T12:32:25Z</time>
        <extensions>
          <gpxtpx:TrackPointExtension xmlns:gpxtpx="http://www.garmin.com/xmlschemas/TrackPointExtension/v1">
            <gpxtpx:hr>151</gpxtpx:hr>
          </gpxtpx:TrackPointExtension>
        </extensions>
      </trkpt>
      <trkpt lat="46.10199" lon="6.26432">
        <ele>665.2</ele>
        <time>2021-03-02T12:32:26Z</time>
        <extensions>
          <gpxtpx:TrackPointExtension xmlns:gpxtpx="http://www.garmin.com/xmlschemas/TrackPointExtension/v1">
            <gpxtpx:hr>150</gpxtpx:hr>
          </gpxtpx:TrackPointExtension>
        </extensions>
      </trkpt>
      <trkpt lat="46.10196" lon="6.26432">
        <ele>665.4</ele>
        <time>2021-03-02T12:32:27Z</time>
        <extensions>
          <gpxtpx:TrackPointExtension xmlns:gpxtpx="http://www.garmin.com/xmlschemas/TrackPointExtension/v1">
            <gpxtpx:hr>150</gpxtpx:hr>
          </gpxtpx:TrackPointExtension>
        </extensions>
      </trkpt>
      <trkpt lat="46.10193" lon="6.26432">
        <ele>665.6</ele>
        <time>2021-03-02T12:32:28Z</time>
        <extensions>
          <gpxtpx:TrackPointExtension xmlns:gpxtpx="http://www.garmin.com/xmlschemas/TrackPointExtension/v1">
            <gpxtpx:hr>150</gpxtpx:hr>
          </gpxtpx:TrackPointExtension>
        </extensions>
      </trkpt>
      <trkpt lat="46.10191" lon="6.26432">
        <ele>665.8</ele>
        <time>2021-03-02T12:32:29Z</time>
        <extensions>
          <gpxtpx:TrackPointExtension xmlns:gpxtpx="http://www.garmin.com/xmlschemas/TrackPointExtension/v1">
            <gpxtpx:hr>150</gpxtpx:hr>
          </gpxtpx:TrackPointExtension>
        </extensions>
      </trkpt>
      <trkpt lat="46.10188" lon="6.26433">
        <ele>666</ele>
        <time>2021-03-02T12:32:30Z</time>
        <extensions>
          <gpxtpx:TrackPointExtension xmlns:gpxtpx="http://www.garmin.com/xmlschemas/TrackPointExtension/v1">
            <gpxtpx:hr>150</gpxtpx:hr>
          </gpxtpx:TrackPointExtension>
        </extensions>
      </trkpt>
      <trkpt lat="46.10186" lon="6.26433">
        <ele>666.2</ele>
        <time>2021-03-02T12:32:31Z</time>
        <extensions>
          <gpxtpx:TrackPointExtension xmlns:gpxtpx="http://www.garmin.com/xmlschemas/TrackPointExtension/v1">
            <gpxtpx:hr>150</gpxtpx:hr>
          </gpxtpx:TrackPointExtension>
        </extensions>
      </trkpt>
      <trkpt lat="46.10183" lon="6.26434">
        <ele>666.4</ele>
        <time>2021-03-02T12:32:32Z</time>
        <extensions>
          <gpxtpx:TrackPointExtension xmlns:gpxtpx="http://www.garmin.com/xmlschemas/TrackPointExtension/v1">
            <gpxtpx:hr>150</gpxtpx:hr>
          </gpxtpx:TrackPointExtension>
        </extensions>
      </trkpt>
      <trkpt lat="46.10181" lon="6.26435">
        <ele>666.6</ele>
        <time>2021-03-02T12:32:33Z</time>
        <extensions>
          <gpxtpx:TrackPointExtension xmlns:gpxtpx="http://www.garmin.com/xmlschemas/TrackPointExtension/v1">
            <gpxtpx:hr>149</gpxtpx:hr>
          </gpxtpx:TrackPointExtension>
        </extensions>
      </trkpt>
      <trkpt lat="46.10178" lon="6.26435">
        <ele>666.8</ele>
        <time>2021-03-02T12:32:34Z</time>
        <extensions>
          <gpxtpx:TrackPointExtension xmlns:gpxtpx="http://www.garmin.com/xmlschemas/TrackPointExtension/v1">
            <gpxtpx:hr>149</gpxtpx:hr>
          </gpxtpx:TrackPointExtension>
        </extensions>
      </trkpt>
      <trkpt lat="46.10176" lon="6.26436">
        <ele>667</ele>
        <time>2021-03-02T12:32:35Z</time>
        <extensions>
          <gpxtpx:TrackPointExtension xmlns:gpxtpx="http://www.garmin.com/xmlschemas/TrackPointExtension/v1">
            <gpxtpx:hr>149</gpxtpx:hr>
          </gpxtpx:TrackPointExtension>
        </extensions>
      </trkpt>
      <trkpt lat="46.10173" lon="6.26437">
        <ele>667.3</ele>
        <time>2021-03-02T12:32:36Z</time>
        <extensions>
          <gpxtpx:TrackPointExtension xmlns:gpxtpx="http://www.garmin.com/xmlschemas/TrackPointExtension/v1">
            <gpxtpx:hr>150</gpxtpx:hr>
          </gpxtpx:TrackPointExtension>
        </extensions>
      </trkpt>
      <trkpt lat="46.1017" lon="6.26438">
        <ele>667.5</ele>
        <time>2021-03-02T12:32:37Z</time>
        <extensions>
          <gpxtpx:TrackPointExtension xmlns:gpxtpx="http://www.garmin.com/xmlschemas/TrackPointExtension/v1">
            <gpxtpx:hr>150</gpxtpx:hr>
          </gpxtpx:TrackPointExtension>
        </extensions>
      </trkpt>
      <trkpt lat="46.10168" lon="6.26439">
        <ele>667.7</ele>
        <time>2021-03-02T12:32:38Z</time>
        <extensions>
          <gpxtpx:TrackPointExtension xmlns:gpxtpx="http://www.garmin.com/xmlschemas/TrackPointExtension/v1">
            <gpxtpx:hr>150</gpxtpx:hr>
          </gpxtpx:TrackPointExtension>
        </extensions>
      </trkpt>
      <trkpt lat="46.10165" lon="6.2644">
        <ele>667.9</ele>
        <time>2021-03-02T12:32:39Z</time>
        <extensions>
          <gpxtpx:TrackPointExtension xmlns:gpxtpx="http://www.garmin.com/xmlschemas/TrackPointExtension/v1">
            <gpxtpx:hr>150</gpxtpx:hr>
          </gpxtpx:TrackPointExtension>
        </extensions>
      </trkpt>
      <trkpt lat="46.10163" lon="6.26442">
        <ele>668.1</ele>
        <time>2021-03-02T12:32:40Z</time>
        <extensions>
          <gpxtpx:TrackPointExtension xmlns:gpxtpx="http://www.garmin.com/xmlschemas/TrackPointExtension/v1">
            <gpxtpx:hr>150</gpxtpx:hr>
          </gpxtpx:TrackPointExtension>
        </extensions>
      </trkpt>
      <trkpt lat="46.1016" lon="6.26442">
        <ele>668.3</ele>
        <time>2021-03-02T12:32:41Z</time>
        <extensions>
          <gpxtpx:TrackPointExtension xmlns:gpxtpx="http://www.garmin.com/xmlschemas/TrackPointExtension/v1">
            <gpxtpx:hr>150</gpxtpx:hr>
          </gpxtpx:TrackPointExtension>
        </extensions>
      </trkpt>
      <trkpt lat="46.10158" lon="6.26443">
        <ele>668.5</ele>
        <time>2021-03-02T12:32:42Z</time>
        <extensions>
          <gpxtpx:TrackPointExtension xmlns:gpxtpx="http://www.garmin.com/xmlschemas/TrackPointExtension/v1">
            <gpxtpx:hr>150</gpxtpx:hr>
          </gpxtpx:TrackPointExtension>
        </extensions>
      </trkpt>
      <trkpt lat="46.10155" lon="6.26445">
        <ele>668.7</ele>
        <time>2021-03-02T12:32:43Z</time>
        <extensions>
          <gpxtpx:TrackPointExtension xmlns:gpxtpx="http://www.garmin.com/xmlschemas/TrackPointExtension/v1">
            <gpxtpx:hr>150</gpxtpx:hr>
          </gpxtpx:TrackPointExtension>
        </extensions>
      </trkpt>
      <trkpt lat="46.10153" lon="6.26446">
        <ele>668.9</ele>
        <time>2021-03-02T12:32:44Z</time>
        <extensions>
          <gpxtpx:TrackPointExtension xmlns:gpxtpx="http://www.garmin.com/xmlschemas/TrackPointExtension/v1">
            <gpxtpx:hr>150</gpxtpx:hr>
          </gpxtpx:TrackPointExtension>
        </extensions>
      </trkpt>
      <trkpt lat="46.1015" lon="6.26448">
        <ele>669.2</ele>
        <time>2021-03-02T12:32:45Z</time>
        <extensions>
          <gpxtpx:TrackPointExtension xmlns:gpxtpx="http://www.garmin.com/xmlschemas/TrackPointExtension/v1">
            <gpxtpx:hr>150</gpxtpx:hr>
          </gpxtpx:TrackPointExtension>
        </extensions>
      </trkpt>
      <trkpt lat="46.10148" lon="6.26449">
        <ele>669.4</ele>
        <time>2021-03-02T12:32:46Z</time>
        <extensions>
          <gpxtpx:TrackPointExtension xmlns:gpxtpx="http://www.garmin.com/xmlschemas/TrackPointExtension/v1">
            <gpxtpx:hr>151</gpxtpx:hr>
          </gpxtpx:TrackPointExtension>
        </extensions>
      </trkpt>
      <trkpt lat="46.10145" lon="6.26451">
        <ele>669.6</ele>
        <time>2021-03-02T12:32:47Z</time>
        <extensions>
          <gpxtpx:TrackPointExtension xmlns:gpxtpx="http://www.garmin.com/xmlschemas/TrackPointExtension/v1">
            <gpxtpx:hr>151</gpxtpx:hr>
          </gpxtpx:TrackPointExtension>
        </extensions>
      </trkpt>
      <trkpt lat="46.10142" lon="6.26452">
        <ele>669.9</ele>
        <time>2021-03-02T12:32:48Z</time>
        <extensions>
          <gpxtpx:TrackPointExtension xmlns:gpxtpx="http://www.garmin.com/xmlschemas/TrackPointExtension/v1">
            <gpxtpx:hr>151</gpxtpx:hr>
          </gpxtpx:TrackPointExtension>
        </extensions>
      </trkpt>
      <trkpt lat="46.1014" lon="6.26453">
        <ele>670.1</ele>
        <time>2021-03-02T12:32:49Z</time>
        <extensions>
          <gpxtpx:TrackPointExtension xmlns:gpxtpx="http://www.garmin.com/xmlschemas/TrackPointExtension/v1">
            <gpxtpx:hr>151</gpxtpx:hr>
          </gpxtpx:TrackPointExtension>
        </extensions>
      </trkpt>
      <trkpt lat="46.10137" lon="6.26455">
        <ele>670.4</ele>
        <time>2021-03-02T12:32:50Z</time>
        <extensions>
          <gpxtpx:TrackPointExtension xmlns:gpxtpx="http://www.garmin.com/xmlschemas/TrackPointExtension/v1">
            <gpxtpx:hr>151</gpxtpx:hr>
          </gpxtpx:TrackPointExtension>
        </extensions>
      </trkpt>
      <trkpt lat="46.10135" lon="6.26457">
        <ele>670.6</ele>
        <time>2021-03-02T12:32:51Z</time>
        <extensions>
          <gpxtpx:TrackPointExtension xmlns:gpxtpx="http://www.garmin.com/xmlschemas/TrackPointExtension/v1">
            <gpxtpx:hr>151</gpxtpx:hr>
          </gpxtpx:TrackPointExtension>
        </extensions>
      </trkpt>
      <trkpt lat="46.10132" lon="6.26458">
        <ele>670.9</ele>
        <time>2021-03-02T12:32:52Z</time>
        <extensions>
          <gpxtpx:TrackPointExtension xmlns:gpxtpx="http://www.garmin.com/xmlschemas/TrackPointExtension/v1">
            <gpxtpx:hr>151</gpxtpx:hr>
          </gpxtpx:TrackPointExtension>
        </extensions>
      </trkpt>
      <trkpt lat="46.1013" lon="6.2646">
        <ele>671.1</ele>
        <time>2021-03-02T12:32:53Z</time>
        <extensions>
          <gpxtpx:TrackPointExtension xmlns:gpxtpx="http://www.garmin.com/xmlschemas/TrackPointExtension/v1">
            <gpxtpx:hr>151</gpxtpx:hr>
          </gpxtpx:TrackPointExtension>
        </extensions>
      </trkpt>
      <trkpt lat="46.10127" lon="6.26462">
        <ele>671.4</ele>
        <time>2021-03-02T12:32:54Z</time>
        <extensions>
          <gpxtpx:TrackPointExtension xmlns:gpxtpx="http://www.garmin.com/xmlschemas/TrackPointExtension/v1">
            <gpxtpx:hr>151</gpxtpx:hr>
          </gpxtpx:TrackPointExtension>
        </extensions>
      </trkpt>
      <trkpt lat="46.10125" lon="6.26464">
        <ele>671.6</ele>
        <time>2021-03-02T12:32:55Z</time>
        <extensions>
          <gpxtpx:TrackPointExtension xmlns:gpxtpx="http://www.garmin.com/xmlschemas/TrackPointExtension/v1">
            <gpxtpx:hr>152</gpxtpx:hr>
          </gpxtpx:TrackPointExtension>
        </extensions>
      </trkpt>
      <trkpt lat="46.10122" lon="6.26465">
        <ele>671.9</ele>
        <time>2021-03-02T12:32:56Z</time>
        <extensions>
          <gpxtpx:TrackPointExtension xmlns:gpxtpx="http://www.garmin.com/xmlschemas/TrackPointExtension/v1">
            <gpxtpx:hr>151</gpxtpx:hr>
          </gpxtpx:TrackPointExtension>
        </extensions>
      </trkpt>
      <trkpt lat="46.1012" lon="6.26467">
        <ele>672.1</ele>
        <time>2021-03-02T12:32:57Z</time>
        <extensions>
          <gpxtpx:TrackPointExtension xmlns:gpxtpx="http://www.garmin.com/xmlschemas/TrackPointExtension/v1">
            <gpxtpx:hr>151</gpxtpx:hr>
          </gpxtpx:TrackPointExtension>
        </extensions>
      </trkpt>
      <trkpt lat="46.10117" lon="6.26469">
        <ele>672.4</ele>
        <time>2021-03-02T12:32:58Z</time>
        <extensions>
          <gpxtpx:TrackPointExtension xmlns:gpxtpx="http://www.garmin.com/xmlschemas/TrackPointExtension/v1">
            <gpxtpx:hr>151</gpxtpx:hr>
          </gpxtpx:TrackPointExtension>
        </extensions>
      </trkpt>
      <trkpt lat="46.10114" lon="6.2647">
        <ele>672.6</ele>
        <time>2021-03-02T12:32:59Z</time>
        <extensions>
          <gpxtpx:TrackPointExtension xmlns:gpxtpx="http://www.garmin.com/xmlschemas/TrackPointExtension/v1">
            <gpxtpx:hr>151</gpxtpx:hr>
          </gpxtpx:TrackPointExtension>
        </extensions>
      </trkpt>
      <trkpt lat="46.10112" lon="6.26471">
        <ele>672.9</ele>
        <time>2021-03-02T12:33:00Z</time>
        <extensions>
          <gpxtpx:TrackPointExtension xmlns:gpxtpx="http://www.garmin.com/xmlschemas/TrackPointExtension/v1">
            <gpxtpx:hr>151</gpxtpx:hr>
          </gpxtpx:TrackPointExtension>
        </extensions>
      </trkpt>
      <trkpt lat="46.10109" lon="6.26473">
        <ele>673.2</ele>
        <time>2021-03-02T12:33:01Z</time>
        <extensions>
          <gpxtpx:TrackPointExtension xmlns:gpxtpx="http://www.garmin.com/xmlschemas/TrackPointExtension/v1">
            <gpxtpx:hr>151</gpxtpx:hr>
          </gpxtpx:TrackPointExtension>
        </extensions>
      </trkpt>
      <trkpt lat="46.10107" lon="6.26474">
        <ele>673.4</ele>
        <time>2021-03-02T12:33:02Z</time>
        <extensions>
          <gpxtpx:TrackPointExtension xmlns:gpxtpx="http://www.garmin.com/xmlschemas/TrackPointExtension/v1">
            <gpxtpx:hr>151</gpxtpx:hr>
          </gpxtpx:TrackPointExtension>
        </extensions>
      </trkpt>
      <trkpt lat="46.10104" lon="6.26475">
        <ele>673.7</ele>
        <time>2021-03-02T12:33:03Z</time>
        <extensions>
          <gpxtpx:TrackPointExtension xmlns:gpxtpx="http://www.garmin.com/xmlschemas/TrackPointExtension/v1">
            <gpxtpx:hr>151</gpxtpx:hr>
          </gpxtpx:TrackPointExtension>
        </extensions>
      </trkpt>
      <trkpt lat="46.10101" lon="6.26476">
        <ele>674</ele>
        <time>2021-03-02T12:33:04Z</time>
        <extensions>
          <gpxtpx:TrackPointExtension xmlns:gpxtpx="http://www.garmin.com/xmlschemas/TrackPointExtension/v1">
            <gpxtpx:hr>151</gpxtpx:hr>
          </gpxtpx:TrackPointExtension>
        </extensions>
      </trkpt>
      <trkpt lat="46.10098" lon="6.26477">
        <ele>674.3</ele>
        <time>2021-03-02T12:33:05Z</time>
        <extensions>
          <gpxtpx:TrackPointExtension xmlns:gpxtpx="http://www.garmin.com/xmlschemas/TrackPointExtension/v1">
            <gpxtpx:hr>150</gpxtpx:hr>
          </gpxtpx:TrackPointExtension>
        </extensions>
      </trkpt>
      <trkpt lat="46.10095" lon="6.26478">
        <ele>674.5</ele>
        <time>2021-03-02T12:33:06Z</time>
        <extensions>
          <gpxtpx:TrackPointExtension xmlns:gpxtpx="http://www.garmin.com/xmlschemas/TrackPointExtension/v1">
            <gpxtpx:hr>150</gpxtpx:hr>
          </gpxtpx:TrackPointExtension>
        </extensions>
      </trkpt>
      <trkpt lat="46.10092" lon="6.26479">
        <ele>674.8</ele>
        <time>2021-03-02T12:33:07Z</time>
        <extensions>
          <gpxtpx:TrackPointExtension xmlns:gpxtpx="http://www.garmin.com/xmlschemas/TrackPointExtension/v1">
            <gpxtpx:hr>150</gpxtpx:hr>
          </gpxtpx:TrackPointExtension>
        </extensions>
      </trkpt>
      <trkpt lat="46.1009" lon="6.2648">
        <ele>675.1</ele>
        <time>2021-03-02T12:33:08Z</time>
        <extensions>
          <gpxtpx:TrackPointExtension xmlns:gpxtpx="http://www.garmin.com/xmlschemas/TrackPointExtension/v1">
            <gpxtpx:hr>150</gpxtpx:hr>
          </gpxtpx:TrackPointExtension>
        </extensions>
      </trkpt>
      <trkpt lat="46.10087" lon="6.26481">
        <ele>675.4</ele>
        <time>2021-03-02T12:33:09Z</time>
        <extensions>
          <gpxtpx:TrackPointExtension xmlns:gpxtpx="http://www.garmin.com/xmlschemas/TrackPointExtension/v1">
            <gpxtpx:hr>150</gpxtpx:hr>
          </gpxtpx:TrackPointExtension>
        </extensions>
      </trkpt>
      <trkpt lat="46.10084" lon="6.26482">
        <ele>675.6</ele>
        <time>2021-03-02T12:33:10Z</time>
        <extensions>
          <gpxtpx:TrackPointExtension xmlns:gpxtpx="http://www.garmin.com/xmlschemas/TrackPointExtension/v1">
            <gpxtpx:hr>150</gpxtpx:hr>
          </gpxtpx:TrackPointExtension>
        </extensions>
      </trkpt>
      <trkpt lat="46.10082" lon="6.26482">
        <ele>675.9</ele>
        <time>2021-03-02T12:33:11Z</time>
        <extensions>
          <gpxtpx:TrackPointExtension xmlns:gpxtpx="http://www.garmin.com/xmlschemas/TrackPointExtension/v1">
            <gpxtpx:hr>149</gpxtpx:hr>
          </gpxtpx:TrackPointExtension>
        </extensions>
      </trkpt>
      <trkpt lat="46.10079" lon="6.26483">
        <ele>676.2</ele>
        <time>2021-03-02T12:33:12Z</time>
        <extensions>
          <gpxtpx:TrackPointExtension xmlns:gpxtpx="http://www.garmin.com/xmlschemas/TrackPointExtension/v1">
            <gpxtpx:hr>149</gpxtpx:hr>
          </gpxtpx:TrackPointExtension>
        </extensions>
      </trkpt>
      <trkpt lat="46.10076" lon="6.26483">
        <ele>676.5</ele>
        <time>2021-03-02T12:33:13Z</time>
        <extensions>
          <gpxtpx:TrackPointExtension xmlns:gpxtpx="http://www.garmin.com/xmlschemas/TrackPointExtension/v1">
            <gpxtpx:hr>149</gpxtpx:hr>
          </gpxtpx:TrackPointExtension>
        </extensions>
      </trkpt>
      <trkpt lat="46.10073" lon="6.26483">
        <ele>676.7</ele>
        <time>2021-03-02T12:33:14Z</time>
        <extensions>
          <gpxtpx:TrackPointExtension xmlns:gpxtpx="http://www.garmin.com/xmlschemas/TrackPointExtension/v1">
            <gpxtpx:hr>149</gpxtpx:hr>
          </gpxtpx:TrackPointExtension>
        </extensions>
      </trkpt>
      <trkpt lat="46.10071" lon="6.26484">
        <ele>677</ele>
        <time>2021-03-02T12:33:15Z</time>
        <extensions>
          <gpxtpx:TrackPointExtension xmlns:gpxtpx="http://www.garmin.com/xmlschemas/TrackPointExtension/v1">
            <gpxtpx:hr>149</gpxtpx:hr>
          </gpxtpx:TrackPointExtension>
        </extensions>
      </trkpt>
      <trkpt lat="46.10068" lon="6.26484">
        <ele>677.2</ele>
        <time>2021-03-02T12:33:16Z</time>
        <extensions>
          <gpxtpx:TrackPointExtension xmlns:gpxtpx="http://www.garmin.com/xmlschemas/TrackPointExtension/v1">
            <gpxtpx:hr>148</gpxtpx:hr>
          </gpxtpx:TrackPointExtension>
        </extensions>
      </trkpt>
      <trkpt lat="46.10066" lon="6.26484">
        <ele>677.5</ele>
        <time>2021-03-02T12:33:17Z</time>
        <extensions>
          <gpxtpx:TrackPointExtension xmlns:gpxtpx="http://www.garmin.com/xmlschemas/TrackPointExtension/v1">
            <gpxtpx:hr>148</gpxtpx:hr>
          </gpxtpx:TrackPointExtension>
        </extensions>
      </trkpt>
      <trkpt lat="46.10063" lon="6.26484">
        <ele>677.7</ele>
        <time>2021-03-02T12:33:18Z</time>
        <extensions>
          <gpxtpx:TrackPointExtension xmlns:gpxtpx="http://www.garmin.com/xmlschemas/TrackPointExtension/v1">
            <gpxtpx:hr>148</gpxtpx:hr>
          </gpxtpx:TrackPointExtension>
        </extensions>
      </trkpt>
      <trkpt lat="46.1006" lon="6.26484">
        <ele>677.9</ele>
        <time>2021-03-02T12:33:19Z</time>
        <extensions>
          <gpxtpx:TrackPointExtension xmlns:gpxtpx="http://www.garmin.com/xmlschemas/TrackPointExtension/v1">
            <gpxtpx:hr>148</gpxtpx:hr>
          </gpxtpx:TrackPointExtension>
        </extensions>
      </trkpt>
      <trkpt lat="46.10058" lon="6.26484">
        <ele>678.2</ele>
        <time>2021-03-02T12:33:20Z</time>
        <extensions>
          <gpxtpx:TrackPointExtension xmlns:gpxtpx="http://www.garmin.com/xmlschemas/TrackPointExtension/v1">
            <gpxtpx:hr>147</gpxtpx:hr>
          </gpxtpx:TrackPointExtension>
        </extensions>
      </trkpt>
      <trkpt lat="46.10055" lon="6.26484">
        <ele>678.4</ele>
        <time>2021-03-02T12:33:21Z</time>
        <extensions>
          <gpxtpx:TrackPointExtension xmlns:gpxtpx="http://www.garmin.com/xmlschemas/TrackPointExtension/v1">
            <gpxtpx:hr>147</gpxtpx:hr>
          </gpxtpx:TrackPointExtension>
        </extensions>
      </trkpt>
      <trkpt lat="46.10052" lon="6.26484">
        <ele>678.6</ele>
        <time>2021-03-02T12:33:22Z</time>
        <extensions>
          <gpxtpx:TrackPointExtension xmlns:gpxtpx="http://www.garmin.com/xmlschemas/TrackPointExtension/v1">
            <gpxtpx:hr>147</gpxtpx:hr>
          </gpxtpx:TrackPointExtension>
        </extensions>
      </trkpt>
      <trkpt lat="46.1005" lon="6.26484">
        <ele>678.9</ele>
        <time>2021-03-02T12:33:23Z</time>
        <extensions>
          <gpxtpx:TrackPointExtension xmlns:gpxtpx="http://www.garmin.com/xmlschemas/TrackPointExtension/v1">
            <gpxtpx:hr>147</gpxtpx:hr>
          </gpxtpx:TrackPointExtension>
        </extensions>
      </trkpt>
      <trkpt lat="46.10047" lon="6.26484">
        <ele>679.1</ele>
        <time>2021-03-02T12:33:24Z</time>
        <extensions>
          <gpxtpx:TrackPointExtension xmlns:gpxtpx="http://www.garmin.com/xmlschemas/TrackPointExtension/v1">
            <gpxtpx:hr>147</gpxtpx:hr>
          </gpxtpx:TrackPointExtension>
        </extensions>
      </trkpt>
      <trkpt lat="46.10044" lon="6.26484">
        <ele>679.3</ele>
        <time>2021-03-02T12:33:25Z</time>
        <extensions>
          <gpxtpx:TrackPointExtension xmlns:gpxtpx="http://www.garmin.com/xmlschemas/TrackPointExtension/v1">
            <gpxtpx:hr>147</gpxtpx:hr>
          </gpxtpx:TrackPointExtension>
        </extensions>
      </trkpt>
      <trkpt lat="46.10042" lon="6.26483">
        <ele>679.5</ele>
        <time>2021-03-02T12:33:26Z</time>
        <extensions>
          <gpxtpx:TrackPointExtension xmlns:gpxtpx="http://www.garmin.com/xmlschemas/TrackPointExtension/v1">
            <gpxtpx:hr>147</gpxtpx:hr>
          </gpxtpx:TrackPointExtension>
        </extensions>
      </trkpt>
      <trkpt lat="46.10039" lon="6.26482">
        <ele>679.7</ele>
        <time>2021-03-02T12:33:27Z</time>
        <extensions>
          <gpxtpx:TrackPointExtension xmlns:gpxtpx="http://www.garmin.com/xmlschemas/TrackPointExtension/v1">
            <gpxtpx:hr>147</gpxtpx:hr>
          </gpxtpx:TrackPointExtension>
        </extensions>
      </trkpt>
      <trkpt lat="46.10037" lon="6.26482">
        <ele>679.9</ele>
        <time>2021-03-02T12:33:28Z</time>
        <extensions>
          <gpxtpx:TrackPointExtension xmlns:gpxtpx="http://www.garmin.com/xmlschemas/TrackPointExtension/v1">
            <gpxtpx:hr>147</gpxtpx:hr>
          </gpxtpx:TrackPointExtension>
        </extensions>
      </trkpt>
      <trkpt lat="46.10034" lon="6.26482">
        <ele>680.1</ele>
        <time>2021-03-02T12:33:29Z</time>
        <extensions>
          <gpxtpx:TrackPointExtension xmlns:gpxtpx="http://www.garmin.com/xmlschemas/TrackPointExtension/v1">
            <gpxtpx:hr>147</gpxtpx:hr>
          </gpxtpx:TrackPointExtension>
        </extensions>
      </trkpt>
      <trkpt lat="46.10031" lon="6.26481">
        <ele>680.3</ele>
        <time>2021-03-02T12:33:30Z</time>
        <extensions>
          <gpxtpx:TrackPointExtension xmlns:gpxtpx="http://www.garmin.com/xmlschemas/TrackPointExtension/v1">
            <gpxtpx:hr>147</gpxtpx:hr>
          </gpxtpx:TrackPointExtension>
        </extensions>
      </trkpt>
      <trkpt lat="46.10029" lon="6.26481">
        <ele>680.5</ele>
        <time>2021-03-02T12:33:31Z</time>
        <extensions>
          <gpxtpx:TrackPointExtension xmlns:gpxtpx="http://www.garmin.com/xmlschemas/TrackPointExtension/v1">
            <gpxtpx:hr>146</gpxtpx:hr>
          </gpxtpx:TrackPointExtension>
        </extensions>
      </trkpt>
      <trkpt lat="46.10026" lon="6.2648">
        <ele>680.7</ele>
        <time>2021-03-02T12:33:32Z</time>
        <extensions>
          <gpxtpx:TrackPointExtension xmlns:gpxtpx="http://www.garmin.com/xmlschemas/TrackPointExtension/v1">
            <gpxtpx:hr>146</gpxtpx:hr>
          </gpxtpx:TrackPointExtension>
        </extensions>
      </trkpt>
      <trkpt lat="46.10023" lon="6.26479">
        <ele>680.9</ele>
        <time>2021-03-02T12:33:33Z</time>
        <extensions>
          <gpxtpx:TrackPointExtension xmlns:gpxtpx="http://www.garmin.com/xmlschemas/TrackPointExtension/v1">
            <gpxtpx:hr>146</gpxtpx:hr>
          </gpxtpx:TrackPointExtension>
        </extensions>
      </trkpt>
      <trkpt lat="46.10021" lon="6.26479">
        <ele>681.1</ele>
        <time>2021-03-02T12:33:34Z</time>
        <extensions>
          <gpxtpx:TrackPointExtension xmlns:gpxtpx="http://www.garmin.com/xmlschemas/TrackPointExtension/v1">
            <gpxtpx:hr>146</gpxtpx:hr>
          </gpxtpx:TrackPointExtension>
        </extensions>
      </trkpt>
      <trkpt lat="46.10018" lon="6.26478">
        <ele>681.3</ele>
        <time>2021-03-02T12:33:35Z</time>
        <extensions>
          <gpxtpx:TrackPointExtension xmlns:gpxtpx="http://www.garmin.com/xmlschemas/TrackPointExtension/v1">
            <gpxtpx:hr>146</gpxtpx:hr>
          </gpxtpx:TrackPointExtension>
        </extensions>
      </trkpt>
      <trkpt lat="46.10015" lon="6.26478">
        <ele>681.5</ele>
        <time>2021-03-02T12:33:36Z</time>
        <extensions>
          <gpxtpx:TrackPointExtension xmlns:gpxtpx="http://www.garmin.com/xmlschemas/TrackPointExtension/v1">
            <gpxtpx:hr>146</gpxtpx:hr>
          </gpxtpx:TrackPointExtension>
        </extensions>
      </trkpt>
      <trkpt lat="46.10012" lon="6.26477">
        <ele>681.7</ele>
        <time>2021-03-02T12:33:37Z</time>
        <extensions>
          <gpxtpx:TrackPointExtension xmlns:gpxtpx="http://www.garmin.com/xmlschemas/TrackPointExtension/v1">
            <gpxtpx:hr>146</gpxtpx:hr>
          </gpxtpx:TrackPointExtension>
        </extensions>
      </trkpt>
      <trkpt lat="46.1001" lon="6.26476">
        <ele>681.8</ele>
        <time>2021-03-02T12:33:38Z</time>
        <extensions>
          <gpxtpx:TrackPointExtension xmlns:gpxtpx="http://www.garmin.com/xmlschemas/TrackPointExtension/v1">
            <gpxtpx:hr>146</gpxtpx:hr>
          </gpxtpx:TrackPointExtension>
        </extensions>
      </trkpt>
      <trkpt lat="46.10007" lon="6.26476">
        <ele>682</ele>
        <time>2021-03-02T12:33:39Z</time>
        <extensions>
          <gpxtpx:TrackPointExtension xmlns:gpxtpx="http://www.garmin.com/xmlschemas/TrackPointExtension/v1">
            <gpxtpx:hr>146</gpxtpx:hr>
          </gpxtpx:TrackPointExtension>
        </extensions>
      </trkpt>
      <trkpt lat="46.10004" lon="6.26475">
        <ele>682.3</ele>
        <time>2021-03-02T12:33:40Z</time>
        <extensions>
          <gpxtpx:TrackPointExtension xmlns:gpxtpx="http://www.garmin.com/xmlschemas/TrackPointExtension/v1">
            <gpxtpx:hr>146</gpxtpx:hr>
          </gpxtpx:TrackPointExtension>
        </extensions>
      </trkpt>
      <trkpt lat="46.10002" lon="6.26474">
        <ele>682.5</ele>
        <time>2021-03-02T12:33:41Z</time>
        <extensions>
          <gpxtpx:TrackPointExtension xmlns:gpxtpx="http://www.garmin.com/xmlschemas/TrackPointExtension/v1">
            <gpxtpx:hr>146</gpxtpx:hr>
          </gpxtpx:TrackPointExtension>
        </extensions>
      </trkpt>
      <trkpt lat="46.09999" lon="6.26474">
        <ele>682.7</ele>
        <time>2021-03-02T12:33:42Z</time>
        <extensions>
          <gpxtpx:TrackPointExtension xmlns:gpxtpx="http://www.garmin.com/xmlschemas/TrackPointExtension/v1">
            <gpxtpx:hr>146</gpxtpx:hr>
          </gpxtpx:TrackPointExtension>
        </extensions>
      </trkpt>
      <trkpt lat="46.09996" lon="6.26473">
        <ele>682.9</ele>
        <time>2021-03-02T12:33:43Z</time>
        <extensions>
          <gpxtpx:TrackPointExtension xmlns:gpxtpx="http://www.garmin.com/xmlschemas/TrackPointExtension/v1">
            <gpxtpx:hr>146</gpxtpx:hr>
          </gpxtpx:TrackPointExtension>
        </extensions>
      </trkpt>
      <trkpt lat="46.09994" lon="6.26472">
        <ele>683.1</ele>
        <time>2021-03-02T12:33:44Z</time>
        <extensions>
          <gpxtpx:TrackPointExtension xmlns:gpxtpx="http://www.garmin.com/xmlschemas/TrackPointExtension/v1">
            <gpxtpx:hr>146</gpxtpx:hr>
          </gpxtpx:TrackPointExtension>
        </extensions>
      </trkpt>
      <trkpt lat="46.09991" lon="6.26471">
        <ele>683.3</ele>
        <time>2021-03-02T12:33:45Z</time>
        <extensions>
          <gpxtpx:TrackPointExtension xmlns:gpxtpx="http://www.garmin.com/xmlschemas/TrackPointExtension/v1">
            <gpxtpx:hr>146</gpxtpx:hr>
          </gpxtpx:TrackPointExtension>
        </extensions>
      </trkpt>
      <trkpt lat="46.09988" lon="6.26471">
        <ele>683.6</ele>
        <time>2021-03-02T12:33:46Z</time>
        <extensions>
          <gpxtpx:TrackPointExtension xmlns:gpxtpx="http://www.garmin.com/xmlschemas/TrackPointExtension/v1">
            <gpxtpx:hr>146</gpxtpx:hr>
          </gpxtpx:TrackPointExtension>
        </extensions>
      </trkpt>
      <trkpt lat="46.09985" lon="6.2647">
        <ele>683.8</ele>
        <time>2021-03-02T12:33:47Z</time>
        <extensions>
          <gpxtpx:TrackPointExtension xmlns:gpxtpx="http://www.garmin.com/xmlschemas/TrackPointExtension/v1">
            <gpxtpx:hr>146</gpxtpx:hr>
          </gpxtpx:TrackPointExtension>
        </extensions>
      </trkpt>
      <trkpt lat="46.09983" lon="6.26468">
        <ele>684</ele>
        <time>2021-03-02T12:33:48Z</time>
        <extensions>
          <gpxtpx:TrackPointExtension xmlns:gpxtpx="http://www.garmin.com/xmlschemas/TrackPointExtension/v1">
            <gpxtpx:hr>146</gpxtpx:hr>
          </gpxtpx:TrackPointExtension>
        </extensions>
      </trkpt>
      <trkpt lat="46.0998" lon="6.26467">
        <ele>684.3</ele>
        <time>2021-03-02T12:33:49Z</time>
        <extensions>
          <gpxtpx:TrackPointExtension xmlns:gpxtpx="http://www.garmin.com/xmlschemas/TrackPointExtension/v1">
            <gpxtpx:hr>146</gpxtpx:hr>
          </gpxtpx:TrackPointExtension>
        </extensions>
      </trkpt>
      <trkpt lat="46.09977" lon="6.26466">
        <ele>684.5</ele>
        <time>2021-03-02T12:33:50Z</time>
        <extensions>
          <gpxtpx:TrackPointExtension xmlns:gpxtpx="http://www.garmin.com/xmlschemas/TrackPointExtension/v1">
            <gpxtpx:hr>147</gpxtpx:hr>
          </gpxtpx:TrackPointExtension>
        </extensions>
      </trkpt>
      <trkpt lat="46.09975" lon="6.26465">
        <ele>684.7</ele>
        <time>2021-03-02T12:33:51Z</time>
        <extensions>
          <gpxtpx:TrackPointExtension xmlns:gpxtpx="http://www.garmin.com/xmlschemas/TrackPointExtension/v1">
            <gpxtpx:hr>147</gpxtpx:hr>
          </gpxtpx:TrackPointExtension>
        </extensions>
      </trkpt>
      <trkpt lat="46.09972" lon="6.26464">
        <ele>685</ele>
        <time>2021-03-02T12:33:52Z</time>
        <extensions>
          <gpxtpx:TrackPointExtension xmlns:gpxtpx="http://www.garmin.com/xmlschemas/TrackPointExtension/v1">
            <gpxtpx:hr>147</gpxtpx:hr>
          </gpxtpx:TrackPointExtension>
        </extensions>
      </trkpt>
      <trkpt lat="46.09969" lon="6.26462">
        <ele>685.2</ele>
        <time>2021-03-02T12:33:53Z</time>
        <extensions>
          <gpxtpx:TrackPointExtension xmlns:gpxtpx="http://www.garmin.com/xmlschemas/TrackPointExtension/v1">
            <gpxtpx:hr>147</gpxtpx:hr>
          </gpxtpx:TrackPointExtension>
        </extensions>
      </trkpt>
      <trkpt lat="46.09966" lon="6.26461">
        <ele>685.4</ele>
        <time>2021-03-02T12:33:54Z</time>
        <extensions>
          <gpxtpx:TrackPointExtension xmlns:gpxtpx="http://www.garmin.com/xmlschemas/TrackPointExtension/v1">
            <gpxtpx:hr>148</gpxtpx:hr>
          </gpxtpx:TrackPointExtension>
        </extensions>
      </trkpt>
      <trkpt lat="46.09964" lon="6.2646">
        <ele>685.7</ele>
        <time>2021-03-02T12:33:55Z</time>
        <extensions>
          <gpxtpx:TrackPointExtension xmlns:gpxtpx="http://www.garmin.com/xmlschemas/TrackPointExtension/v1">
            <gpxtpx:hr>148</gpxtpx:hr>
          </gpxtpx:TrackPointExtension>
        </extensions>
      </trkpt>
      <trkpt lat="46.09961" lon="6.26458">
        <ele>685.9</ele>
        <time>2021-03-02T12:33:56Z</time>
        <extensions>
          <gpxtpx:TrackPointExtension xmlns:gpxtpx="http://www.garmin.com/xmlschemas/TrackPointExtension/v1">
            <gpxtpx:hr>148</gpxtpx:hr>
          </gpxtpx:TrackPointExtension>
        </extensions>
      </trkpt>
      <trkpt lat="46.09958" lon="6.26457">
        <ele>686.1</ele>
        <time>2021-03-02T12:33:57Z</time>
        <extensions>
          <gpxtpx:TrackPointExtension xmlns:gpxtpx="http://www.garmin.com/xmlschemas/TrackPointExtension/v1">
            <gpxtpx:hr>148</gpxtpx:hr>
          </gpxtpx:TrackPointExtension>
        </extensions>
      </trkpt>
      <trkpt lat="46.09955" lon="6.26455">
        <ele>686.3</ele>
        <time>2021-03-02T12:33:58Z</time>
        <extensions>
          <gpxtpx:TrackPointExtension xmlns:gpxtpx="http://www.garmin.com/xmlschemas/TrackPointExtension/v1">
            <gpxtpx:hr>148</gpxtpx:hr>
          </gpxtpx:TrackPointExtension>
        </extensions>
      </trkpt>
      <trkpt lat="46.09953" lon="6.26453">
        <ele>686.5</ele>
        <time>2021-03-02T12:33:59Z</time>
        <extensions>
          <gpxtpx:TrackPointExtension xmlns:gpxtpx="http://www.garmin.com/xmlschemas/TrackPointExtension/v1">
            <gpxtpx:hr>148</gpxtpx:hr>
          </gpxtpx:TrackPointExtension>
        </extensions>
      </trkpt>
      <trkpt lat="46.0995" lon="6.26452">
        <ele>686.7</ele>
        <time>2021-03-02T12:34:00Z</time>
        <extensions>
          <gpxtpx:TrackPointExtension xmlns:gpxtpx="http://www.garmin.com/xmlschemas/TrackPointExtension/v1">
            <gpxtpx:hr>148</gpxtpx:hr>
          </gpxtpx:TrackPointExtension>
        </extensions>
      </trkpt>
      <trkpt lat="46.09947" lon="6.2645">
        <ele>686.9</ele>
        <time>2021-03-02T12:34:01Z</time>
        <extensions>
          <gpxtpx:TrackPointExtension xmlns:gpxtpx="http://www.garmin.com/xmlschemas/TrackPointExtension/v1">
            <gpxtpx:hr>148</gpxtpx:hr>
          </gpxtpx:TrackPointExtension>
        </extensions>
      </trkpt>
      <trkpt lat="46.09944" lon="6.26449">
        <ele>687.1</ele>
        <time>2021-03-02T12:34:02Z</time>
        <extensions>
          <gpxtpx:TrackPointExtension xmlns:gpxtpx="http://www.garmin.com/xmlschemas/TrackPointExtension/v1">
            <gpxtpx:hr>148</gpxtpx:hr>
          </gpxtpx:TrackPointExtension>
        </extensions>
      </trkpt>
      <trkpt lat="46.09942" lon="6.26447">
        <ele>687.3</ele>
        <time>2021-03-02T12:34:03Z</time>
        <extensions>
          <gpxtpx:TrackPointExtension xmlns:gpxtpx="http://www.garmin.com/xmlschemas/TrackPointExtension/v1">
            <gpxtpx:hr>148</gpxtpx:hr>
          </gpxtpx:TrackPointExtension>
        </extensions>
      </trkpt>
      <trkpt lat="46.09939" lon="6.26446">
        <ele>687.5</ele>
        <time>2021-03-02T12:34:04Z</time>
        <extensions>
          <gpxtpx:TrackPointExtension xmlns:gpxtpx="http://www.garmin.com/xmlschemas/TrackPointExtension/v1">
            <gpxtpx:hr>148</gpxtpx:hr>
          </gpxtpx:TrackPointExtension>
        </extensions>
      </trkpt>
      <trkpt lat="46.09936" lon="6.26444">
        <ele>687.6</ele>
        <time>2021-03-02T12:34:05Z</time>
        <extensions>
          <gpxtpx:TrackPointExtension xmlns:gpxtpx="http://www.garmin.com/xmlschemas/TrackPointExtension/v1">
            <gpxtpx:hr>148</gpxtpx:hr>
          </gpxtpx:TrackPointExtension>
        </extensions>
      </trkpt>
      <trkpt lat="46.09933" lon="6.26442">
        <ele>687.8</ele>
        <time>2021-03-02T12:34:06Z</time>
        <extensions>
          <gpxtpx:TrackPointExtension xmlns:gpxtpx="http://www.garmin.com/xmlschemas/TrackPointExtension/v1">
            <gpxtpx:hr>147</gpxtpx:hr>
          </gpxtpx:TrackPointExtension>
        </extensions>
      </trkpt>
      <trkpt lat="46.0993" lon="6.26441">
        <ele>688</ele>
        <time>2021-03-02T12:34:07Z</time>
        <extensions>
          <gpxtpx:TrackPointExtension xmlns:gpxtpx="http://www.garmin.com/xmlschemas/TrackPointExtension/v1">
            <gpxtpx:hr>147</gpxtpx:hr>
          </gpxtpx:TrackPointExtension>
        </extensions>
      </trkpt>
      <trkpt lat="46.09928" lon="6.2644">
        <ele>688.1</ele>
        <time>2021-03-02T12:34:08Z</time>
        <extensions>
          <gpxtpx:TrackPointExtension xmlns:gpxtpx="http://www.garmin.com/xmlschemas/TrackPointExtension/v1">
            <gpxtpx:hr>147</gpxtpx:hr>
          </gpxtpx:TrackPointExtension>
        </extensions>
      </trkpt>
      <trkpt lat="46.09925" lon="6.26438">
        <ele>688.3</ele>
        <time>2021-03-02T12:34:09Z</time>
        <extensions>
          <gpxtpx:TrackPointExtension xmlns:gpxtpx="http://www.garmin.com/xmlschemas/TrackPointExtension/v1">
            <gpxtpx:hr>147</gpxtpx:hr>
          </gpxtpx:TrackPointExtension>
        </extensions>
      </trkpt>
      <trkpt lat="46.09922" lon="6.26437">
        <ele>688.4</ele>
        <time>2021-03-02T12:34:10Z</time>
        <extensions>
          <gpxtpx:TrackPointExtension xmlns:gpxtpx="http://www.garmin.com/xmlschemas/TrackPointExtension/v1">
            <gpxtpx:hr>147</gpxtpx:hr>
          </gpxtpx:TrackPointExtension>
        </extensions>
      </trkpt>
      <trkpt lat="46.09919" lon="6.26435">
        <ele>688.6</ele>
        <time>2021-03-02T12:34:11Z</time>
        <extensions>
          <gpxtpx:TrackPointExtension xmlns:gpxtpx="http://www.garmin.com/xmlschemas/TrackPointExtension/v1">
            <gpxtpx:hr>147</gpxtpx:hr>
          </gpxtpx:TrackPointExtension>
        </extensions>
      </trkpt>
      <trkpt lat="46.09917" lon="6.26434">
        <ele>688.7</ele>
        <time>2021-03-02T12:34:12Z</time>
        <extensions>
          <gpxtpx:TrackPointExtension xmlns:gpxtpx="http://www.garmin.com/xmlschemas/TrackPointExtension/v1">
            <gpxtpx:hr>147</gpxtpx:hr>
          </gpxtpx:TrackPointExtension>
        </extensions>
      </trkpt>
      <trkpt lat="46.09914" lon="6.26432">
        <ele>688.9</ele>
        <time>2021-03-02T12:34:13Z</time>
        <extensions>
          <gpxtpx:TrackPointExtension xmlns:gpxtpx="http://www.garmin.com/xmlschemas/TrackPointExtension/v1">
            <gpxtpx:hr>147</gpxtpx:hr>
          </gpxtpx:TrackPointExtension>
        </extensions>
      </trkpt>
      <trkpt lat="46.09911" lon="6.2643">
        <ele>689</ele>
        <time>2021-03-02T12:34:14Z</time>
        <extensions>
          <gpxtpx:TrackPointExtension xmlns:gpxtpx="http://www.garmin.com/xmlschemas/TrackPointExtension/v1">
            <gpxtpx:hr>147</gpxtpx:hr>
          </gpxtpx:TrackPointExtension>
        </extensions>
      </trkpt>
      <trkpt lat="46.09908" lon="6.26429">
        <ele>689.2</ele>
        <time>2021-03-02T12:34:15Z</time>
        <extensions>
          <gpxtpx:TrackPointExtension xmlns:gpxtpx="http://www.garmin.com/xmlschemas/TrackPointExtension/v1">
            <gpxtpx:hr>147</gpxtpx:hr>
          </gpxtpx:TrackPointExtension>
        </extensions>
      </trkpt>
      <trkpt lat="46.09905" lon="6.26427">
        <ele>689.4</ele>
        <time>2021-03-02T12:34:16Z</time>
        <extensions>
          <gpxtpx:TrackPointExtension xmlns:gpxtpx="http://www.garmin.com/xmlschemas/TrackPointExtension/v1">
            <gpxtpx:hr>147</gpxtpx:hr>
          </gpxtpx:TrackPointExtension>
        </extensions>
      </trkpt>
      <trkpt lat="46.09903" lon="6.26426">
        <ele>689.6</ele>
        <time>2021-03-02T12:34:17Z</time>
        <extensions>
          <gpxtpx:TrackPointExtension xmlns:gpxtpx="http://www.garmin.com/xmlschemas/TrackPointExtension/v1">
            <gpxtpx:hr>147</gpxtpx:hr>
          </gpxtpx:TrackPointExtension>
        </extensions>
      </trkpt>
      <trkpt lat="46.099" lon="6.26424">
        <ele>689.8</ele>
        <time>2021-03-02T12:34:18Z</time>
        <extensions>
          <gpxtpx:TrackPointExtension xmlns:gpxtpx="http://www.garmin.com/xmlschemas/TrackPointExtension/v1">
            <gpxtpx:hr>146</gpxtpx:hr>
          </gpxtpx:TrackPointExtension>
        </extensions>
      </trkpt>
      <trkpt lat="46.09897" lon="6.26422">
        <ele>690</ele>
        <time>2021-03-02T12:34:19Z</time>
        <extensions>
          <gpxtpx:TrackPointExtension xmlns:gpxtpx="http://www.garmin.com/xmlschemas/TrackPointExtension/v1">
            <gpxtpx:hr>146</gpxtpx:hr>
          </gpxtpx:TrackPointExtension>
        </extensions>
      </trkpt>
      <trkpt lat="46.09894" lon="6.2642">
        <ele>690.2</ele>
        <time>2021-03-02T12:34:20Z</time>
        <extensions>
          <gpxtpx:TrackPointExtension xmlns:gpxtpx="http://www.garmin.com/xmlschemas/TrackPointExtension/v1">
            <gpxtpx:hr>146</gpxtpx:hr>
          </gpxtpx:TrackPointExtension>
        </extensions>
      </trkpt>
      <trkpt lat="46.09891" lon="6.26419">
        <ele>690.4</ele>
        <time>2021-03-02T12:34:21Z</time>
        <extensions>
          <gpxtpx:TrackPointExtension xmlns:gpxtpx="http://www.garmin.com/xmlschemas/TrackPointExtension/v1">
            <gpxtpx:hr>145</gpxtpx:hr>
          </gpxtpx:TrackPointExtension>
        </extensions>
      </trkpt>
      <trkpt lat="46.09888" lon="6.26417">
        <ele>690.6</ele>
        <time>2021-03-02T12:34:22Z</time>
        <extensions>
          <gpxtpx:TrackPointExtension xmlns:gpxtpx="http://www.garmin.com/xmlschemas/TrackPointExtension/v1">
            <gpxtpx:hr>145</gpxtpx:hr>
          </gpxtpx:TrackPointExtension>
        </extensions>
      </trkpt>
      <trkpt lat="46.09885" lon="6.26415">
        <ele>690.8</ele>
        <time>2021-03-02T12:34:23Z</time>
        <extensions>
          <gpxtpx:TrackPointExtension xmlns:gpxtpx="http://www.garmin.com/xmlschemas/TrackPointExtension/v1">
            <gpxtpx:hr>145</gpxtpx:hr>
          </gpxtpx:TrackPointExtension>
        </extensions>
      </trkpt>
      <trkpt lat="46.09882" lon="6.26414">
        <ele>691</ele>
        <time>2021-03-02T12:34:24Z</time>
        <extensions>
          <gpxtpx:TrackPointExtension xmlns:gpxtpx="http://www.garmin.com/xmlschemas/TrackPointExtension/v1">
            <gpxtpx:hr>146</gpxtpx:hr>
          </gpxtpx:TrackPointExtension>
        </extensions>
      </trkpt>
      <trkpt lat="46.09879" lon="6.26412">
        <ele>691.3</ele>
        <time>2021-03-02T12:34:25Z</time>
        <extensions>
          <gpxtpx:TrackPointExtension xmlns:gpxtpx="http://www.garmin.com/xmlschemas/TrackPointExtension/v1">
            <gpxtpx:hr>146</gpxtpx:hr>
          </gpxtpx:TrackPointExtension>
        </extensions>
      </trkpt>
      <trkpt lat="46.09876" lon="6.26411">
        <ele>691.5</ele>
        <time>2021-03-02T12:34:26Z</time>
        <extensions>
          <gpxtpx:TrackPointExtension xmlns:gpxtpx="http://www.garmin.com/xmlschemas/TrackPointExtension/v1">
            <gpxtpx:hr>146</gpxtpx:hr>
          </gpxtpx:TrackPointExtension>
        </extensions>
      </trkpt>
      <trkpt lat="46.09873" lon="6.26409">
        <ele>691.7</ele>
        <time>2021-03-02T12:34:27Z</time>
        <extensions>
          <gpxtpx:TrackPointExtension xmlns:gpxtpx="http://www.garmin.com/xmlschemas/TrackPointExtension/v1">
            <gpxtpx:hr>146</gpxtpx:hr>
          </gpxtpx:TrackPointExtension>
        </extensions>
      </trkpt>
      <trkpt lat="46.0987" lon="6.26408">
        <ele>692</ele>
        <time>2021-03-02T12:34:28Z</time>
        <extensions>
          <gpxtpx:TrackPointExtension xmlns:gpxtpx="http://www.garmin.com/xmlschemas/TrackPointExtension/v1">
            <gpxtpx:hr>146</gpxtpx:hr>
          </gpxtpx:TrackPointExtension>
        </extensions>
      </trkpt>
      <trkpt lat="46.09867" lon="6.26406">
        <ele>692.2</ele>
        <time>2021-03-02T12:34:29Z</time>
        <extensions>
          <gpxtpx:TrackPointExtension xmlns:gpxtpx="http://www.garmin.com/xmlschemas/TrackPointExtension/v1">
            <gpxtpx:hr>147</gpxtpx:hr>
          </gpxtpx:TrackPointExtension>
        </extensions>
      </trkpt>
      <trkpt lat="46.09863" lon="6.26404">
        <ele>692.5</ele>
        <time>2021-03-02T12:34:30Z</time>
        <extensions>
          <gpxtpx:TrackPointExtension xmlns:gpxtpx="http://www.garmin.com/xmlschemas/TrackPointExtension/v1">
            <gpxtpx:hr>147</gpxtpx:hr>
          </gpxtpx:TrackPointExtension>
        </extensions>
      </trkpt>
      <trkpt lat="46.0986" lon="6.26402">
        <ele>692.7</ele>
        <time>2021-03-02T12:34:31Z</time>
        <extensions>
          <gpxtpx:TrackPointExtension xmlns:gpxtpx="http://www.garmin.com/xmlschemas/TrackPointExtension/v1">
            <gpxtpx:hr>147</gpxtpx:hr>
          </gpxtpx:TrackPointExtension>
        </extensions>
      </trkpt>
      <trkpt lat="46.09857" lon="6.264">
        <ele>692.9</ele>
        <time>2021-03-02T12:34:32Z</time>
        <extensions>
          <gpxtpx:TrackPointExtension xmlns:gpxtpx="http://www.garmin.com/xmlschemas/TrackPointExtension/v1">
            <gpxtpx:hr>146</gpxtpx:hr>
          </gpxtpx:TrackPointExtension>
        </extensions>
      </trkpt>
      <trkpt lat="46.09854" lon="6.26398">
        <ele>693.2</ele>
        <time>2021-03-02T12:34:33Z</time>
        <extensions>
          <gpxtpx:TrackPointExtension xmlns:gpxtpx="http://www.garmin.com/xmlschemas/TrackPointExtension/v1">
            <gpxtpx:hr>146</gpxtpx:hr>
          </gpxtpx:TrackPointExtension>
        </extensions>
      </trkpt>
      <trkpt lat="46.09851" lon="6.26397">
        <ele>693.4</ele>
        <time>2021-03-02T12:34:34Z</time>
        <extensions>
          <gpxtpx:TrackPointExtension xmlns:gpxtpx="http://www.garmin.com/xmlschemas/TrackPointExtension/v1">
            <gpxtpx:hr>146</gpxtpx:hr>
          </gpxtpx:TrackPointExtension>
        </extensions>
      </trkpt>
      <trkpt lat="46.09848" lon="6.26395">
        <ele>693.7</ele>
        <time>2021-03-02T12:34:35Z</time>
        <extensions>
          <gpxtpx:TrackPointExtension xmlns:gpxtpx="http://www.garmin.com/xmlschemas/TrackPointExtension/v1">
            <gpxtpx:hr>146</gpxtpx:hr>
          </gpxtpx:TrackPointExtension>
        </extensions>
      </trkpt>
      <trkpt lat="46.09845" lon="6.26393">
        <ele>693.9</ele>
        <time>2021-03-02T12:34:36Z</time>
        <extensions>
          <gpxtpx:TrackPointExtension xmlns:gpxtpx="http://www.garmin.com/xmlschemas/TrackPointExtension/v1">
            <gpxtpx:hr>145</gpxtpx:hr>
          </gpxtpx:TrackPointExtension>
        </extensions>
      </trkpt>
      <trkpt lat="46.09842" lon="6.2639">
        <ele>694.2</ele>
        <time>2021-03-02T12:34:37Z</time>
        <extensions>
          <gpxtpx:TrackPointExtension xmlns:gpxtpx="http://www.garmin.com/xmlschemas/TrackPointExtension/v1">
            <gpxtpx:hr>145</gpxtpx:hr>
          </gpxtpx:TrackPointExtension>
        </extensions>
      </trkpt>
      <trkpt lat="46.09839" lon="6.26388">
        <ele>694.4</ele>
        <time>2021-03-02T12:34:38Z</time>
        <extensions>
          <gpxtpx:TrackPointExtension xmlns:gpxtpx="http://www.garmin.com/xmlschemas/TrackPointExtension/v1">
            <gpxtpx:hr>144</gpxtpx:hr>
          </gpxtpx:TrackPointExtension>
        </extensions>
      </trkpt>
      <trkpt lat="46.09836" lon="6.26386">
        <ele>694.7</ele>
        <time>2021-03-02T12:34:39Z</time>
        <extensions>
          <gpxtpx:TrackPointExtension xmlns:gpxtpx="http://www.garmin.com/xmlschemas/TrackPointExtension/v1">
            <gpxtpx:hr>144</gpxtpx:hr>
          </gpxtpx:TrackPointExtension>
        </extensions>
      </trkpt>
      <trkpt lat="46.09833" lon="6.26383">
        <ele>694.9</ele>
        <time>2021-03-02T12:34:40Z</time>
        <extensions>
          <gpxtpx:TrackPointExtension xmlns:gpxtpx="http://www.garmin.com/xmlschemas/TrackPointExtension/v1">
            <gpxtpx:hr>144</gpxtpx:hr>
          </gpxtpx:TrackPointExtension>
        </extensions>
      </trkpt>
      <trkpt lat="46.0983" lon="6.26381">
        <ele>695.1</ele>
        <time>2021-03-02T12:34:41Z</time>
        <extensions>
          <gpxtpx:TrackPointExtension xmlns:gpxtpx="http://www.garmin.com/xmlschemas/TrackPointExtension/v1">
            <gpxtpx:hr>143</gpxtpx:hr>
          </gpxtpx:TrackPointExtension>
        </extensions>
      </trkpt>
      <trkpt lat="46.09827" lon="6.26378">
        <ele>695.3</ele>
        <time>2021-03-02T12:34:42Z</time>
        <extensions>
          <gpxtpx:TrackPointExtension xmlns:gpxtpx="http://www.garmin.com/xmlschemas/TrackPointExtension/v1">
            <gpxtpx:hr>143</gpxtpx:hr>
          </gpxtpx:TrackPointExtension>
        </extensions>
      </trkpt>
      <trkpt lat="46.09824" lon="6.26376">
        <ele>695.5</ele>
        <time>2021-03-02T12:34:43Z</time>
        <extensions>
          <gpxtpx:TrackPointExtension xmlns:gpxtpx="http://www.garmin.com/xmlschemas/TrackPointExtension/v1">
            <gpxtpx:hr>143</gpxtpx:hr>
          </gpxtpx:TrackPointExtension>
        </extensions>
      </trkpt>
      <trkpt lat="46.09821" lon="6.26374">
        <ele>695.7</ele>
        <time>2021-03-02T12:34:44Z</time>
        <extensions>
          <gpxtpx:TrackPointExtension xmlns:gpxtpx="http://www.garmin.com/xmlschemas/TrackPointExtension/v1">
            <gpxtpx:hr>142</gpxtpx:hr>
          </gpxtpx:TrackPointExtension>
        </extensions>
      </trkpt>
      <trkpt lat="46.09818" lon="6.26371">
        <ele>695.9</ele>
        <time>2021-03-02T12:34:45Z</time>
        <extensions>
          <gpxtpx:TrackPointExtension xmlns:gpxtpx="http://www.garmin.com/xmlschemas/TrackPointExtension/v1">
            <gpxtpx:hr>142</gpxtpx:hr>
          </gpxtpx:TrackPointExtension>
        </extensions>
      </trkpt>
      <trkpt lat="46.09815" lon="6.26368">
        <ele>696.2</ele>
        <time>2021-03-02T12:34:46Z</time>
        <extensions>
          <gpxtpx:TrackPointExtension xmlns:gpxtpx="http://www.garmin.com/xmlschemas/TrackPointExtension/v1">
            <gpxtpx:hr>142</gpxtpx:hr>
          </gpxtpx:TrackPointExtension>
        </extensions>
      </trkpt>
      <trkpt lat="46.09813" lon="6.26366">
        <ele>696.4</ele>
        <time>2021-03-02T12:34:47Z</time>
        <extensions>
          <gpxtpx:TrackPointExtension xmlns:gpxtpx="http://www.garmin.com/xmlschemas/TrackPointExtension/v1">
            <gpxtpx:hr>142</gpxtpx:hr>
          </gpxtpx:TrackPointExtension>
        </extensions>
      </trkpt>
      <trkpt lat="46.0981" lon="6.26363">
        <ele>696.6</ele>
        <time>2021-03-02T12:34:48Z</time>
        <extensions>
          <gpxtpx:TrackPointExtension xmlns:gpxtpx="http://www.garmin.com/xmlschemas/TrackPointExtension/v1">
            <gpxtpx:hr>142</gpxtpx:hr>
          </gpxtpx:TrackPointExtension>
        </extensions>
      </trkpt>
      <trkpt lat="46.09807" lon="6.26361">
        <ele>696.9</ele>
        <time>2021-03-02T12:34:49Z</time>
        <extensions>
          <gpxtpx:TrackPointExtension xmlns:gpxtpx="http://www.garmin.com/xmlschemas/TrackPointExtension/v1">
            <gpxtpx:hr>141</gpxtpx:hr>
          </gpxtpx:TrackPointExtension>
        </extensions>
      </trkpt>
      <trkpt lat="46.09805" lon="6.26359">
        <ele>697.1</ele>
        <time>2021-03-02T12:34:50Z</time>
        <extensions>
          <gpxtpx:TrackPointExtension xmlns:gpxtpx="http://www.garmin.com/xmlschemas/TrackPointExtension/v1">
            <gpxtpx:hr>141</gpxtpx:hr>
          </gpxtpx:TrackPointExtension>
        </extensions>
      </trkpt>
      <trkpt lat="46.09802" lon="6.26356">
        <ele>697.4</ele>
        <time>2021-03-02T12:34:51Z</time>
        <extensions>
          <gpxtpx:TrackPointExtension xmlns:gpxtpx="http://www.garmin.com/xmlschemas/TrackPointExtension/v1">
            <gpxtpx:hr>141</gpxtpx:hr>
          </gpxtpx:TrackPointExtension>
        </extensions>
      </trkpt>
      <trkpt lat="46.09799" lon="6.26354">
        <ele>697.7</ele>
        <time>2021-03-02T12:34:52Z</time>
        <extensions>
          <gpxtpx:TrackPointExtension xmlns:gpxtpx="http://www.garmin.com/xmlschemas/TrackPointExtension/v1">
            <gpxtpx:hr>141</gpxtpx:hr>
          </gpxtpx:TrackPointExtension>
        </extensions>
      </trkpt>
      <trkpt lat="46.09796" lon="6.26352">
        <ele>698</ele>
        <time>2021-03-02T12:34:53Z</time>
        <extensions>
          <gpxtpx:TrackPointExtension xmlns:gpxtpx="http://www.garmin.com/xmlschemas/TrackPointExtension/v1">
            <gpxtpx:hr>141</gpxtpx:hr>
          </gpxtpx:TrackPointExtension>
        </extensions>
      </trkpt>
      <trkpt lat="46.09794" lon="6.26349">
        <ele>698.3</ele>
        <time>2021-03-02T12:34:54Z</time>
        <extensions>
          <gpxtpx:TrackPointExtension xmlns:gpxtpx="http://www.garmin.com/xmlschemas/TrackPointExtension/v1">
            <gpxtpx:hr>141</gpxtpx:hr>
          </gpxtpx:TrackPointExtension>
        </extensions>
      </trkpt>
      <trkpt lat="46.09791" lon="6.26347">
        <ele>698.6</ele>
        <time>2021-03-02T12:34:55Z</time>
        <extensions>
          <gpxtpx:TrackPointExtension xmlns:gpxtpx="http://www.garmin.com/xmlschemas/TrackPointExtension/v1">
            <gpxtpx:hr>141</gpxtpx:hr>
          </gpxtpx:TrackPointExtension>
        </extensions>
      </trkpt>
      <trkpt lat="46.09788" lon="6.26344">
        <ele>698.9</ele>
        <time>2021-03-02T12:34:56Z</time>
        <extensions>
          <gpxtpx:TrackPointExtension xmlns:gpxtpx="http://www.garmin.com/xmlschemas/TrackPointExtension/v1">
            <gpxtpx:hr>141</gpxtpx:hr>
          </gpxtpx:TrackPointExtension>
        </extensions>
      </trkpt>
      <trkpt lat="46.09786" lon="6.26342">
        <ele>699.2</ele>
        <time>2021-03-02T12:34:57Z</time>
        <extensions>
          <gpxtpx:TrackPointExtension xmlns:gpxtpx="http://www.garmin.com/xmlschemas/TrackPointExtension/v1">
            <gpxtpx:hr>141</gpxtpx:hr>
          </gpxtpx:TrackPointExtension>
        </extensions>
      </trkpt>
      <trkpt lat="46.09783" lon="6.26339">
        <ele>699.5</ele>
        <time>2021-03-02T12:34:58Z</time>
        <extensions>
          <gpxtpx:TrackPointExtension xmlns:gpxtpx="http://www.garmin.com/xmlschemas/TrackPointExtension/v1">
            <gpxtpx:hr>141</gpxtpx:hr>
          </gpxtpx:TrackPointExtension>
        </extensions>
      </trkpt>
      <trkpt lat="46.09781" lon="6.26337">
        <ele>699.8</ele>
        <time>2021-03-02T12:34:59Z</time>
        <extensions>
          <gpxtpx:TrackPointExtension xmlns:gpxtpx="http://www.garmin.com/xmlschemas/TrackPointExtension/v1">
            <gpxtpx:hr>141</gpxtpx:hr>
          </gpxtpx:TrackPointExtension>
        </extensions>
      </trkpt>
      <trkpt lat="46.09778" lon="6.26335">
        <ele>700.1</ele>
        <time>2021-03-02T12:35:00Z</time>
        <extensions>
          <gpxtpx:TrackPointExtension xmlns:gpxtpx="http://www.garmin.com/xmlschemas/TrackPointExtension/v1">
            <gpxtpx:hr>141</gpxtpx:hr>
          </gpxtpx:TrackPointExtension>
        </extensions>
      </trkpt>
      <trkpt lat="46.09776" lon="6.26332">
        <ele>700.3</ele>
        <time>2021-03-02T12:35:01Z</time>
        <extensions>
          <gpxtpx:TrackPointExtension xmlns:gpxtpx="http://www.garmin.com/xmlschemas/TrackPointExtension/v1">
            <gpxtpx:hr>141</gpxtpx:hr>
          </gpxtpx:TrackPointExtension>
        </extensions>
      </trkpt>
      <trkpt lat="46.09774" lon="6.2633">
        <ele>700.6</ele>
        <time>2021-03-02T12:35:02Z</time>
        <extensions>
          <gpxtpx:TrackPointExtension xmlns:gpxtpx="http://www.garmin.com/xmlschemas/TrackPointExtension/v1">
            <gpxtpx:hr>141</gpxtpx:hr>
          </gpxtpx:TrackPointExtension>
        </extensions>
      </trkpt>
      <trkpt lat="46.09771" lon="6.26328">
        <ele>700.9</ele>
        <time>2021-03-02T12:35:03Z</time>
        <extensions>
          <gpxtpx:TrackPointExtension xmlns:gpxtpx="http://www.garmin.com/xmlschemas/TrackPointExtension/v1">
            <gpxtpx:hr>141</gpxtpx:hr>
          </gpxtpx:TrackPointExtension>
        </extensions>
      </trkpt>
      <trkpt lat="46.09769" lon="6.26326">
        <ele>701.2</ele>
        <time>2021-03-02T12:35:04Z</time>
        <extensions>
          <gpxtpx:TrackPointExtension xmlns:gpxtpx="http://www.garmin.com/xmlschemas/TrackPointExtension/v1">
            <gpxtpx:hr>141</gpxtpx:hr>
          </gpxtpx:TrackPointExtension>
        </extensions>
      </trkpt>
      <trkpt lat="46.09767" lon="6.26323">
        <ele>701.4</ele>
        <time>2021-03-02T12:35:05Z</time>
        <extensions>
          <gpxtpx:TrackPointExtension xmlns:gpxtpx="http://www.garmin.com/xmlschemas/TrackPointExtension/v1">
            <gpxtpx:hr>141</gpxtpx:hr>
          </gpxtpx:TrackPointExtension>
        </extensions>
      </trkpt>
      <trkpt lat="46.09764" lon="6.26321">
        <ele>701.7</ele>
        <time>2021-03-02T12:35:06Z</time>
        <extensions>
          <gpxtpx:TrackPointExtension xmlns:gpxtpx="http://www.garmin.com/xmlschemas/TrackPointExtension/v1">
            <gpxtpx:hr>141</gpxtpx:hr>
          </gpxtpx:TrackPointExtension>
        </extensions>
      </trkpt>
      <trkpt lat="46.09762" lon="6.26319">
        <ele>701.9</ele>
        <time>2021-03-02T12:35:07Z</time>
        <extensions>
          <gpxtpx:TrackPointExtension xmlns:gpxtpx="http://www.garmin.com/xmlschemas/TrackPointExtension/v1">
            <gpxtpx:hr>141</gpxtpx:hr>
          </gpxtpx:TrackPointExtension>
        </extensions>
      </trkpt>
      <trkpt lat="46.0976" lon="6.26317">
        <ele>702.2</ele>
        <time>2021-03-02T12:35:08Z</time>
        <extensions>
          <gpxtpx:TrackPointExtension xmlns:gpxtpx="http://www.garmin.com/xmlschemas/TrackPointExtension/v1">
            <gpxtpx:hr>141</gpxtpx:hr>
          </gpxtpx:TrackPointExtension>
        </extensions>
      </trkpt>
      <trkpt lat="46.09757" lon="6.26315">
        <ele>702.4</ele>
        <time>2021-03-02T12:35:09Z</time>
        <extensions>
          <gpxtpx:TrackPointExtension xmlns:gpxtpx="http://www.garmin.com/xmlschemas/TrackPointExtension/v1">
            <gpxtpx:hr>141</gpxtpx:hr>
          </gpxtpx:TrackPointExtension>
        </extensions>
      </trkpt>
      <trkpt lat="46.09755" lon="6.26312">
        <ele>702.7</ele>
        <time>2021-03-02T12:35:10Z</time>
        <extensions>
          <gpxtpx:TrackPointExtension xmlns:gpxtpx="http://www.garmin.com/xmlschemas/TrackPointExtension/v1">
            <gpxtpx:hr>142</gpxtpx:hr>
          </gpxtpx:TrackPointExtension>
        </extensions>
      </trkpt>
      <trkpt lat="46.09753" lon="6.2631">
        <ele>702.9</ele>
        <time>2021-03-02T12:35:11Z</time>
        <extensions>
          <gpxtpx:TrackPointExtension xmlns:gpxtpx="http://www.garmin.com/xmlschemas/TrackPointExtension/v1">
            <gpxtpx:hr>142</gpxtpx:hr>
          </gpxtpx:TrackPointExtension>
        </extensions>
      </trkpt>
      <trkpt lat="46.09751" lon="6.26308">
        <ele>703.2</ele>
        <time>2021-03-02T12:35:12Z</time>
        <extensions>
          <gpxtpx:TrackPointExtension xmlns:gpxtpx="http://www.garmin.com/xmlschemas/TrackPointExtension/v1">
            <gpxtpx:hr>142</gpxtpx:hr>
          </gpxtpx:TrackPointExtension>
        </extensions>
      </trkpt>
      <trkpt lat="46.09748" lon="6.26306">
        <ele>703.4</ele>
        <time>2021-03-02T12:35:13Z</time>
        <extensions>
          <gpxtpx:TrackPointExtension xmlns:gpxtpx="http://www.garmin.com/xmlschemas/TrackPointExtension/v1">
            <gpxtpx:hr>142</gpxtpx:hr>
          </gpxtpx:TrackPointExtension>
        </extensions>
      </trkpt>
      <trkpt lat="46.09746" lon="6.26304">
        <ele>703.6</ele>
        <time>2021-03-02T12:35:14Z</time>
        <extensions>
          <gpxtpx:TrackPointExtension xmlns:gpxtpx="http://www.garmin.com/xmlschemas/TrackPointExtension/v1">
            <gpxtpx:hr>142</gpxtpx:hr>
          </gpxtpx:TrackPointExtension>
        </extensions>
      </trkpt>
      <trkpt lat="46.09744" lon="6.26302">
        <ele>703.9</ele>
        <time>2021-03-02T12:35:15Z</time>
        <extensions>
          <gpxtpx:TrackPointExtension xmlns:gpxtpx="http://www.garmin.com/xmlschemas/TrackPointExtension/v1">
            <gpxtpx:hr>142</gpxtpx:hr>
          </gpxtpx:TrackPointExtension>
        </extensions>
      </trkpt>
      <trkpt lat="46.09742" lon="6.263">
        <ele>704.1</ele>
        <time>2021-03-02T12:35:16Z</time>
        <extensions>
          <gpxtpx:TrackPointExtension xmlns:gpxtpx="http://www.garmin.com/xmlschemas/TrackPointExtension/v1">
            <gpxtpx:hr>142</gpxtpx:hr>
          </gpxtpx:TrackPointExtension>
        </extensions>
      </trkpt>
      <trkpt lat="46.09739" lon="6.26298">
        <ele>704.3</ele>
        <time>2021-03-02T12:35:17Z</time>
        <extensions>
          <gpxtpx:TrackPointExtension xmlns:gpxtpx="http://www.garmin.com/xmlschemas/TrackPointExtension/v1">
            <gpxtpx:hr>142</gpxtpx:hr>
          </gpxtpx:TrackPointExtension>
        </extensions>
      </trkpt>
      <trkpt lat="46.09737" lon="6.26296">
        <ele>704.6</ele>
        <time>2021-03-02T12:35:18Z</time>
        <extensions>
          <gpxtpx:TrackPointExtension xmlns:gpxtpx="http://www.garmin.com/xmlschemas/TrackPointExtension/v1">
            <gpxtpx:hr>143</gpxtpx:hr>
          </gpxtpx:TrackPointExtension>
        </extensions>
      </trkpt>
      <trkpt lat="46.09735" lon="6.26294">
        <ele>704.8</ele>
        <time>2021-03-02T12:35:19Z</time>
        <extensions>
          <gpxtpx:TrackPointExtension xmlns:gpxtpx="http://www.garmin.com/xmlschemas/TrackPointExtension/v1">
            <gpxtpx:hr>143</gpxtpx:hr>
          </gpxtpx:TrackPointExtension>
        </extensions>
      </trkpt>
      <trkpt lat="46.09732" lon="6.26292">
        <ele>705.1</ele>
        <time>2021-03-02T12:35:20Z</time>
        <extensions>
          <gpxtpx:TrackPointExtension xmlns:gpxtpx="http://www.garmin.com/xmlschemas/TrackPointExtension/v1">
            <gpxtpx:hr>143</gpxtpx:hr>
          </gpxtpx:TrackPointExtension>
        </extensions>
      </trkpt>
      <trkpt lat="46.0973" lon="6.2629">
        <ele>705.3</ele>
        <time>2021-03-02T12:35:21Z</time>
        <extensions>
          <gpxtpx:TrackPointExtension xmlns:gpxtpx="http://www.garmin.com/xmlschemas/TrackPointExtension/v1">
            <gpxtpx:hr>143</gpxtpx:hr>
          </gpxtpx:TrackPointExtension>
        </extensions>
      </trkpt>
      <trkpt lat="46.09727" lon="6.26288">
        <ele>705.5</ele>
        <time>2021-03-02T12:35:22Z</time>
        <extensions>
          <gpxtpx:TrackPointExtension xmlns:gpxtpx="http://www.garmin.com/xmlschemas/TrackPointExtension/v1">
            <gpxtpx:hr>143</gpxtpx:hr>
          </gpxtpx:TrackPointExtension>
        </extensions>
      </trkpt>
      <trkpt lat="46.09725" lon="6.26286">
        <ele>705.7</ele>
        <time>2021-03-02T12:35:23Z</time>
        <extensions>
          <gpxtpx:TrackPointExtension xmlns:gpxtpx="http://www.garmin.com/xmlschemas/TrackPointExtension/v1">
            <gpxtpx:hr>144</gpxtpx:hr>
          </gpxtpx:TrackPointExtension>
        </extensions>
      </trkpt>
      <trkpt lat="46.09723" lon="6.26283">
        <ele>705.9</ele>
        <time>2021-03-02T12:35:24Z</time>
        <extensions>
          <gpxtpx:TrackPointExtension xmlns:gpxtpx="http://www.garmin.com/xmlschemas/TrackPointExtension/v1">
            <gpxtpx:hr>144</gpxtpx:hr>
          </gpxtpx:TrackPointExtension>
        </extensions>
      </trkpt>
      <trkpt lat="46.0972" lon="6.26281">
        <ele>706.2</ele>
        <time>2021-03-02T12:35:25Z</time>
        <extensions>
          <gpxtpx:TrackPointExtension xmlns:gpxtpx="http://www.garmin.com/xmlschemas/TrackPointExtension/v1">
            <gpxtpx:hr>144</gpxtpx:hr>
          </gpxtpx:TrackPointExtension>
        </extensions>
      </trkpt>
      <trkpt lat="46.09718" lon="6.26279">
        <ele>706.4</ele>
        <time>2021-03-02T12:35:26Z</time>
        <extensions>
          <gpxtpx:TrackPointExtension xmlns:gpxtpx="http://www.garmin.com/xmlschemas/TrackPointExtension/v1">
            <gpxtpx:hr>144</gpxtpx:hr>
          </gpxtpx:TrackPointExtension>
        </extensions>
      </trkpt>
      <trkpt lat="46.09715" lon="6.26277">
        <ele>706.6</ele>
        <time>2021-03-02T12:35:27Z</time>
        <extensions>
          <gpxtpx:TrackPointExtension xmlns:gpxtpx="http://www.garmin.com/xmlschemas/TrackPointExtension/v1">
            <gpxtpx:hr>144</gpxtpx:hr>
          </gpxtpx:TrackPointExtension>
        </extensions>
      </trkpt>
      <trkpt lat="46.09713" lon="6.26274">
        <ele>706.8</ele>
        <time>2021-03-02T12:35:28Z</time>
        <extensions>
          <gpxtpx:TrackPointExtension xmlns:gpxtpx="http://www.garmin.com/xmlschemas/TrackPointExtension/v1">
            <gpxtpx:hr>144</gpxtpx:hr>
          </gpxtpx:TrackPointExtension>
        </extensions>
      </trkpt>
      <trkpt lat="46.0971" lon="6.26272">
        <ele>707.1</ele>
        <time>2021-03-02T12:35:29Z</time>
        <extensions>
          <gpxtpx:TrackPointExtension xmlns:gpxtpx="http://www.garmin.com/xmlschemas/TrackPointExtension/v1">
            <gpxtpx:hr>144</gpxtpx:hr>
          </gpxtpx:TrackPointExtension>
        </extensions>
      </trkpt>
      <trkpt lat="46.09708" lon="6.2627">
        <ele>707.3</ele>
        <time>2021-03-02T12:35:30Z</time>
        <extensions>
          <gpxtpx:TrackPointExtension xmlns:gpxtpx="http://www.garmin.com/xmlschemas/TrackPointExtension/v1">
            <gpxtpx:hr>144</gpxtpx:hr>
          </gpxtpx:TrackPointExtension>
        </extensions>
      </trkpt>
      <trkpt lat="46.09706" lon="6.26267">
        <ele>707.5</ele>
        <time>2021-03-02T12:35:31Z</time>
        <extensions>
          <gpxtpx:TrackPointExtension xmlns:gpxtpx="http://www.garmin.com/xmlschemas/TrackPointExtension/v1">
            <gpxtpx:hr>144</gpxtpx:hr>
          </gpxtpx:TrackPointExtension>
        </extensions>
      </trkpt>
      <trkpt lat="46.09703" lon="6.26265">
        <ele>707.8</ele>
        <time>2021-03-02T12:35:32Z</time>
        <extensions>
          <gpxtpx:TrackPointExtension xmlns:gpxtpx="http://www.garmin.com/xmlschemas/TrackPointExtension/v1">
            <gpxtpx:hr>143</gpxtpx:hr>
          </gpxtpx:TrackPointExtension>
        </extensions>
      </trkpt>
      <trkpt lat="46.09701" lon="6.26262">
        <ele>708</ele>
        <time>2021-03-02T12:35:33Z</time>
        <extensions>
          <gpxtpx:TrackPointExtension xmlns:gpxtpx="http://www.garmin.com/xmlschemas/TrackPointExtension/v1">
            <gpxtpx:hr>143</gpxtpx:hr>
          </gpxtpx:TrackPointExtension>
        </extensions>
      </trkpt>
      <trkpt lat="46.09699" lon="6.2626">
        <ele>708.2</ele>
        <time>2021-03-02T12:35:34Z</time>
        <extensions>
          <gpxtpx:TrackPointExtension xmlns:gpxtpx="http://www.garmin.com/xmlschemas/TrackPointExtension/v1">
            <gpxtpx:hr>143</gpxtpx:hr>
          </gpxtpx:TrackPointExtension>
        </extensions>
      </trkpt>
      <trkpt lat="46.09696" lon="6.26258">
        <ele>708.4</ele>
        <time>2021-03-02T12:35:35Z</time>
        <extensions>
          <gpxtpx:TrackPointExtension xmlns:gpxtpx="http://www.garmin.com/xmlschemas/TrackPointExtension/v1">
            <gpxtpx:hr>143</gpxtpx:hr>
          </gpxtpx:TrackPointExtension>
        </extensions>
      </trkpt>
      <trkpt lat="46.09694" lon="6.26255">
        <ele>708.7</ele>
        <time>2021-03-02T12:35:36Z</time>
        <extensions>
          <gpxtpx:TrackPointExtension xmlns:gpxtpx="http://www.garmin.com/xmlschemas/TrackPointExtension/v1">
            <gpxtpx:hr>144</gpxtpx:hr>
          </gpxtpx:TrackPointExtension>
        </extensions>
      </trkpt>
      <trkpt lat="46.09691" lon="6.26253">
        <ele>708.9</ele>
        <time>2021-03-02T12:35:37Z</time>
        <extensions>
          <gpxtpx:TrackPointExtension xmlns:gpxtpx="http://www.garmin.com/xmlschemas/TrackPointExtension/v1">
            <gpxtpx:hr>144</gpxtpx:hr>
          </gpxtpx:TrackPointExtension>
        </extensions>
      </trkpt>
      <trkpt lat="46.09689" lon="6.26251">
        <ele>709.1</ele>
        <time>2021-03-02T12:35:38Z</time>
        <extensions>
          <gpxtpx:TrackPointExtension xmlns:gpxtpx="http://www.garmin.com/xmlschemas/TrackPointExtension/v1">
            <gpxtpx:hr>144</gpxtpx:hr>
          </gpxtpx:TrackPointExtension>
        </extensions>
      </trkpt>
      <trkpt lat="46.09687" lon="6.26248">
        <ele>709.4</ele>
        <time>2021-03-02T12:35:39Z</time>
        <extensions>
          <gpxtpx:TrackPointExtension xmlns:gpxtpx="http://www.garmin.com/xmlschemas/TrackPointExtension/v1">
            <gpxtpx:hr>144</gpxtpx:hr>
          </gpxtpx:TrackPointExtension>
        </extensions>
      </trkpt>
      <trkpt lat="46.09684" lon="6.26246">
        <ele>709.6</ele>
        <time>2021-03-02T12:35:40Z</time>
        <extensions>
          <gpxtpx:TrackPointExtension xmlns:gpxtpx="http://www.garmin.com/xmlschemas/TrackPointExtension/v1">
            <gpxtpx:hr>144</gpxtpx:hr>
          </gpxtpx:TrackPointExtension>
        </extensions>
      </trkpt>
      <trkpt lat="46.09681" lon="6.26244">
        <ele>709.8</ele>
        <time>2021-03-02T12:35:41Z</time>
        <extensions>
          <gpxtpx:TrackPointExtension xmlns:gpxtpx="http://www.garmin.com/xmlschemas/TrackPointExtension/v1">
            <gpxtpx:hr>144</gpxtpx:hr>
          </gpxtpx:TrackPointExtension>
        </extensions>
      </trkpt>
      <trkpt lat="46.09679" lon="6.26242">
        <ele>710</ele>
        <time>2021-03-02T12:35:42Z</time>
        <extensions>
          <gpxtpx:TrackPointExtension xmlns:gpxtpx="http://www.garmin.com/xmlschemas/TrackPointExtension/v1">
            <gpxtpx:hr>145</gpxtpx:hr>
          </gpxtpx:TrackPointExtension>
        </extensions>
      </trkpt>
      <trkpt lat="46.09676" lon="6.2624">
        <ele>710.3</ele>
        <time>2021-03-02T12:35:43Z</time>
        <extensions>
          <gpxtpx:TrackPointExtension xmlns:gpxtpx="http://www.garmin.com/xmlschemas/TrackPointExtension/v1">
            <gpxtpx:hr>145</gpxtpx:hr>
          </gpxtpx:TrackPointExtension>
        </extensions>
      </trkpt>
      <trkpt lat="46.09673" lon="6.26239">
        <ele>710.5</ele>
        <time>2021-03-02T12:35:44Z</time>
        <extensions>
          <gpxtpx:TrackPointExtension xmlns:gpxtpx="http://www.garmin.com/xmlschemas/TrackPointExtension/v1">
            <gpxtpx:hr>145</gpxtpx:hr>
          </gpxtpx:TrackPointExtension>
        </extensions>
      </trkpt>
      <trkpt lat="46.0967" lon="6.26237">
        <ele>710.7</ele>
        <time>2021-03-02T12:35:45Z</time>
        <extensions>
          <gpxtpx:TrackPointExtension xmlns:gpxtpx="http://www.garmin.com/xmlschemas/TrackPointExtension/v1">
            <gpxtpx:hr>145</gpxtpx:hr>
          </gpxtpx:TrackPointExtension>
        </extensions>
      </trkpt>
      <trkpt lat="46.09668" lon="6.26235">
        <ele>710.9</ele>
        <time>2021-03-02T12:35:46Z</time>
        <extensions>
          <gpxtpx:TrackPointExtension xmlns:gpxtpx="http://www.garmin.com/xmlschemas/TrackPointExtension/v1">
            <gpxtpx:hr>145</gpxtpx:hr>
          </gpxtpx:TrackPointExtension>
        </extensions>
      </trkpt>
      <trkpt lat="46.09665" lon="6.26233">
        <ele>711.2</ele>
        <time>2021-03-02T12:35:47Z</time>
        <extensions>
          <gpxtpx:TrackPointExtension xmlns:gpxtpx="http://www.garmin.com/xmlschemas/TrackPointExtension/v1">
            <gpxtpx:hr>145</gpxtpx:hr>
          </gpxtpx:TrackPointExtension>
        </extensions>
      </trkpt>
      <trkpt lat="46.09662" lon="6.26231">
        <ele>711.4</ele>
        <time>2021-03-02T12:35:48Z</time>
        <extensions>
          <gpxtpx:TrackPointExtension xmlns:gpxtpx="http://www.garmin.com/xmlschemas/TrackPointExtension/v1">
            <gpxtpx:hr>145</gpxtpx:hr>
          </gpxtpx:TrackPointExtension>
        </extensions>
      </trkpt>
      <trkpt lat="46.09658" lon="6.2623">
        <ele>711.7</ele>
        <time>2021-03-02T12:35:49Z</time>
        <extensions>
          <gpxtpx:TrackPointExtension xmlns:gpxtpx="http://www.garmin.com/xmlschemas/TrackPointExtension/v1">
            <gpxtpx:hr>145</gpxtpx:hr>
          </gpxtpx:TrackPointExtension>
        </extensions>
      </trkpt>
      <trkpt lat="46.09655" lon="6.26228">
        <ele>711.9</ele>
        <time>2021-03-02T12:35:50Z</time>
        <extensions>
          <gpxtpx:TrackPointExtension xmlns:gpxtpx="http://www.garmin.com/xmlschemas/TrackPointExtension/v1">
            <gpxtpx:hr>145</gpxtpx:hr>
          </gpxtpx:TrackPointExtension>
        </extensions>
      </trkpt>
      <trkpt lat="46.09652" lon="6.26227">
        <ele>712.2</ele>
        <time>2021-03-02T12:35:51Z</time>
        <extensions>
          <gpxtpx:TrackPointExtension xmlns:gpxtpx="http://www.garmin.com/xmlschemas/TrackPointExtension/v1">
            <gpxtpx:hr>145</gpxtpx:hr>
          </gpxtpx:TrackPointExtension>
        </extensions>
      </trkpt>
      <trkpt lat="46.09649" lon="6.26226">
        <ele>712.5</ele>
        <time>2021-03-02T12:35:52Z</time>
        <extensions>
          <gpxtpx:TrackPointExtension xmlns:gpxtpx="http://www.garmin.com/xmlschemas/TrackPointExtension/v1">
            <gpxtpx:hr>145</gpxtpx:hr>
          </gpxtpx:TrackPointExtension>
        </extensions>
      </trkpt>
      <trkpt lat="46.09646" lon="6.26224">
        <ele>712.8</ele>
        <time>2021-03-02T12:35:53Z</time>
        <extensions>
          <gpxtpx:TrackPointExtension xmlns:gpxtpx="http://www.garmin.com/xmlschemas/TrackPointExtension/v1">
            <gpxtpx:hr>145</gpxtpx:hr>
          </gpxtpx:TrackPointExtension>
        </extensions>
      </trkpt>
      <trkpt lat="46.09643" lon="6.26223">
        <ele>713.1</ele>
        <time>2021-03-02T12:35:54Z</time>
        <extensions>
          <gpxtpx:TrackPointExtension xmlns:gpxtpx="http://www.garmin.com/xmlschemas/TrackPointExtension/v1">
            <gpxtpx:hr>145</gpxtpx:hr>
          </gpxtpx:TrackPointExtension>
        </extensions>
      </trkpt>
      <trkpt lat="46.0964" lon="6.26222">
        <ele>713.4</ele>
        <time>2021-03-02T12:35:55Z</time>
        <extensions>
          <gpxtpx:TrackPointExtension xmlns:gpxtpx="http://www.garmin.com/xmlschemas/TrackPointExtension/v1">
            <gpxtpx:hr>145</gpxtpx:hr>
          </gpxtpx:TrackPointExtension>
        </extensions>
      </trkpt>
      <trkpt lat="46.09637" lon="6.26221">
        <ele>713.7</ele>
        <time>2021-03-02T12:35:56Z</time>
        <extensions>
          <gpxtpx:TrackPointExtension xmlns:gpxtpx="http://www.garmin.com/xmlschemas/TrackPointExtension/v1">
            <gpxtpx:hr>145</gpxtpx:hr>
          </gpxtpx:TrackPointExtension>
        </extensions>
      </trkpt>
      <trkpt lat="46.09634" lon="6.2622">
        <ele>714.1</ele>
        <time>2021-03-02T12:35:57Z</time>
        <extensions>
          <gpxtpx:TrackPointExtension xmlns:gpxtpx="http://www.garmin.com/xmlschemas/TrackPointExtension/v1">
            <gpxtpx:hr>145</gpxtpx:hr>
          </gpxtpx:TrackPointExtension>
        </extensions>
      </trkpt>
      <trkpt lat="46.09631" lon="6.26219">
        <ele>714.4</ele>
        <time>2021-03-02T12:35:58Z</time>
        <extensions>
          <gpxtpx:TrackPointExtension xmlns:gpxtpx="http://www.garmin.com/xmlschemas/TrackPointExtension/v1">
            <gpxtpx:hr>145</gpxtpx:hr>
          </gpxtpx:TrackPointExtension>
        </extensions>
      </trkpt>
      <trkpt lat="46.09627" lon="6.26218">
        <ele>714.7</ele>
        <time>2021-03-02T12:35:59Z</time>
        <extensions>
          <gpxtpx:TrackPointExtension xmlns:gpxtpx="http://www.garmin.com/xmlschemas/TrackPointExtension/v1">
            <gpxtpx:hr>145</gpxtpx:hr>
          </gpxtpx:TrackPointExtension>
        </extensions>
      </trkpt>
      <trkpt lat="46.09624" lon="6.26217">
        <ele>715.1</ele>
        <time>2021-03-02T12:36:00Z</time>
        <extensions>
          <gpxtpx:TrackPointExtension xmlns:gpxtpx="http://www.garmin.com/xmlschemas/TrackPointExtension/v1">
            <gpxtpx:hr>145</gpxtpx:hr>
          </gpxtpx:TrackPointExtension>
        </extensions>
      </trkpt>
      <trkpt lat="46.09622" lon="6.26216">
        <ele>715.4</ele>
        <time>2021-03-02T12:36:01Z</time>
        <extensions>
          <gpxtpx:TrackPointExtension xmlns:gpxtpx="http://www.garmin.com/xmlschemas/TrackPointExtension/v1">
            <gpxtpx:hr>145</gpxtpx:hr>
          </gpxtpx:TrackPointExtension>
        </extensions>
      </trkpt>
      <trkpt lat="46.09619" lon="6.26215">
        <ele>715.7</ele>
        <time>2021-03-02T12:36:02Z</time>
        <extensions>
          <gpxtpx:TrackPointExtension xmlns:gpxtpx="http://www.garmin.com/xmlschemas/TrackPointExtension/v1">
            <gpxtpx:hr>144</gpxtpx:hr>
          </gpxtpx:TrackPointExtension>
        </extensions>
      </trkpt>
      <trkpt lat="46.09616" lon="6.26214">
        <ele>716</ele>
        <time>2021-03-02T12:36:03Z</time>
        <extensions>
          <gpxtpx:TrackPointExtension xmlns:gpxtpx="http://www.garmin.com/xmlschemas/TrackPointExtension/v1">
            <gpxtpx:hr>144</gpxtpx:hr>
          </gpxtpx:TrackPointExtension>
        </extensions>
      </trkpt>
      <trkpt lat="46.09613" lon="6.26213">
        <ele>716.4</ele>
        <time>2021-03-02T12:36:04Z</time>
        <extensions>
          <gpxtpx:TrackPointExtension xmlns:gpxtpx="http://www.garmin.com/xmlschemas/TrackPointExtension/v1">
            <gpxtpx:hr>144</gpxtpx:hr>
          </gpxtpx:TrackPointExtension>
        </extensions>
      </trkpt>
      <trkpt lat="46.0961" lon="6.26212">
        <ele>716.7</ele>
        <time>2021-03-02T12:36:05Z</time>
        <extensions>
          <gpxtpx:TrackPointExtension xmlns:gpxtpx="http://www.garmin.com/xmlschemas/TrackPointExtension/v1">
            <gpxtpx:hr>144</gpxtpx:hr>
          </gpxtpx:TrackPointExtension>
        </extensions>
      </trkpt>
      <trkpt lat="46.09608" lon="6.26211">
        <ele>717.1</ele>
        <time>2021-03-02T12:36:06Z</time>
        <extensions>
          <gpxtpx:TrackPointExtension xmlns:gpxtpx="http://www.garmin.com/xmlschemas/TrackPointExtension/v1">
            <gpxtpx:hr>144</gpxtpx:hr>
          </gpxtpx:TrackPointExtension>
        </extensions>
      </trkpt>
      <trkpt lat="46.09605" lon="6.2621">
        <ele>717.4</ele>
        <time>2021-03-02T12:36:07Z</time>
        <extensions>
          <gpxtpx:TrackPointExtension xmlns:gpxtpx="http://www.garmin.com/xmlschemas/TrackPointExtension/v1">
            <gpxtpx:hr>144</gpxtpx:hr>
          </gpxtpx:TrackPointExtension>
        </extensions>
      </trkpt>
      <trkpt lat="46.09602" lon="6.26209">
        <ele>717.8</ele>
        <time>2021-03-02T12:36:08Z</time>
        <extensions>
          <gpxtpx:TrackPointExtension xmlns:gpxtpx="http://www.garmin.com/xmlschemas/TrackPointExtension/v1">
            <gpxtpx:hr>144</gpxtpx:hr>
          </gpxtpx:TrackPointExtension>
        </extensions>
      </trkpt>
      <trkpt lat="46.096" lon="6.26208">
        <ele>718.2</ele>
        <time>2021-03-02T12:36:09Z</time>
        <extensions>
          <gpxtpx:TrackPointExtension xmlns:gpxtpx="http://www.garmin.com/xmlschemas/TrackPointExtension/v1">
            <gpxtpx:hr>144</gpxtpx:hr>
          </gpxtpx:TrackPointExtension>
        </extensions>
      </trkpt>
      <trkpt lat="46.09597" lon="6.26207">
        <ele>718.6</ele>
        <time>2021-03-02T12:36:10Z</time>
        <extensions>
          <gpxtpx:TrackPointExtension xmlns:gpxtpx="http://www.garmin.com/xmlschemas/TrackPointExtension/v1">
            <gpxtpx:hr>144</gpxtpx:hr>
          </gpxtpx:TrackPointExtension>
        </extensions>
      </trkpt>
      <trkpt lat="46.09595" lon="6.26206">
        <ele>719</ele>
        <time>2021-03-02T12:36:11Z</time>
        <extensions>
          <gpxtpx:TrackPointExtension xmlns:gpxtpx="http://www.garmin.com/xmlschemas/TrackPointExtension/v1">
            <gpxtpx:hr>144</gpxtpx:hr>
          </gpxtpx:TrackPointExtension>
        </extensions>
      </trkpt>
      <trkpt lat="46.09592" lon="6.26205">
        <ele>719.4</ele>
        <time>2021-03-02T12:36:12Z</time>
        <extensions>
          <gpxtpx:TrackPointExtension xmlns:gpxtpx="http://www.garmin.com/xmlschemas/TrackPointExtension/v1">
            <gpxtpx:hr>144</gpxtpx:hr>
          </gpxtpx:TrackPointExtension>
        </extensions>
      </trkpt>
      <trkpt lat="46.0959" lon="6.26205">
        <ele>719.7</ele>
        <time>2021-03-02T12:36:13Z</time>
        <extensions>
          <gpxtpx:TrackPointExtension xmlns:gpxtpx="http://www.garmin.com/xmlschemas/TrackPointExtension/v1">
            <gpxtpx:hr>144</gpxtpx:hr>
          </gpxtpx:TrackPointExtension>
        </extensions>
      </trkpt>
      <trkpt lat="46.09587" lon="6.26204">
        <ele>720</ele>
        <time>2021-03-02T12:36:14Z</time>
        <extensions>
          <gpxtpx:TrackPointExtension xmlns:gpxtpx="http://www.garmin.com/xmlschemas/TrackPointExtension/v1">
            <gpxtpx:hr>144</gpxtpx:hr>
          </gpxtpx:TrackPointExtension>
        </extensions>
      </trkpt>
      <trkpt lat="46.09585" lon="6.26203">
        <ele>720.3</ele>
        <time>2021-03-02T12:36:15Z</time>
        <extensions>
          <gpxtpx:TrackPointExtension xmlns:gpxtpx="http://www.garmin.com/xmlschemas/TrackPointExtension/v1">
            <gpxtpx:hr>144</gpxtpx:hr>
          </gpxtpx:TrackPointExtension>
        </extensions>
      </trkpt>
      <trkpt lat="46.09582" lon="6.26202">
        <ele>720.6</ele>
        <time>2021-03-02T12:36:16Z</time>
        <extensions>
          <gpxtpx:TrackPointExtension xmlns:gpxtpx="http://www.garmin.com/xmlschemas/TrackPointExtension/v1">
            <gpxtpx:hr>144</gpxtpx:hr>
          </gpxtpx:TrackPointExtension>
        </extensions>
      </trkpt>
      <trkpt lat="46.09579" lon="6.26201">
        <ele>720.9</ele>
        <time>2021-03-02T12:36:17Z</time>
        <extensions>
          <gpxtpx:TrackPointExtension xmlns:gpxtpx="http://www.garmin.com/xmlschemas/TrackPointExtension/v1">
            <gpxtpx:hr>144</gpxtpx:hr>
          </gpxtpx:TrackPointExtension>
        </extensions>
      </trkpt>
      <trkpt lat="46.09577" lon="6.262">
        <ele>721.3</ele>
        <time>2021-03-02T12:36:18Z</time>
        <extensions>
          <gpxtpx:TrackPointExtension xmlns:gpxtpx="http://www.garmin.com/xmlschemas/TrackPointExtension/v1">
            <gpxtpx:hr>144</gpxtpx:hr>
          </gpxtpx:TrackPointExtension>
        </extensions>
      </trkpt>
      <trkpt lat="46.09574" lon="6.26199">
        <ele>721.6</ele>
        <time>2021-03-02T12:36:19Z</time>
        <extensions>
          <gpxtpx:TrackPointExtension xmlns:gpxtpx="http://www.garmin.com/xmlschemas/TrackPointExtension/v1">
            <gpxtpx:hr>144</gpxtpx:hr>
          </gpxtpx:TrackPointExtension>
        </extensions>
      </trkpt>
      <trkpt lat="46.09572" lon="6.26198">
        <ele>721.9</ele>
        <time>2021-03-02T12:36:20Z</time>
        <extensions>
          <gpxtpx:TrackPointExtension xmlns:gpxtpx="http://www.garmin.com/xmlschemas/TrackPointExtension/v1">
            <gpxtpx:hr>144</gpxtpx:hr>
          </gpxtpx:TrackPointExtension>
        </extensions>
      </trkpt>
      <trkpt lat="46.0957" lon="6.26196">
        <ele>722.2</ele>
        <time>2021-03-02T12:36:21Z</time>
        <extensions>
          <gpxtpx:TrackPointExtension xmlns:gpxtpx="http://www.garmin.com/xmlschemas/TrackPointExtension/v1">
            <gpxtpx:hr>144</gpxtpx:hr>
          </gpxtpx:TrackPointExtension>
        </extensions>
      </trkpt>
      <trkpt lat="46.09567" lon="6.26195">
        <ele>722.5</ele>
        <time>2021-03-02T12:36:22Z</time>
        <extensions>
          <gpxtpx:TrackPointExtension xmlns:gpxtpx="http://www.garmin.com/xmlschemas/TrackPointExtension/v1">
            <gpxtpx:hr>145</gpxtpx:hr>
          </gpxtpx:TrackPointExtension>
        </extensions>
      </trkpt>
      <trkpt lat="46.09565" lon="6.26193">
        <ele>722.8</ele>
        <time>2021-03-02T12:36:23Z</time>
        <extensions>
          <gpxtpx:TrackPointExtension xmlns:gpxtpx="http://www.garmin.com/xmlschemas/TrackPointExtension/v1">
            <gpxtpx:hr>145</gpxtpx:hr>
          </gpxtpx:TrackPointExtension>
        </extensions>
      </trkpt>
      <trkpt lat="46.09563" lon="6.26191">
        <ele>723.1</ele>
        <time>2021-03-02T12:36:24Z</time>
        <extensions>
          <gpxtpx:TrackPointExtension xmlns:gpxtpx="http://www.garmin.com/xmlschemas/TrackPointExtension/v1">
            <gpxtpx:hr>146</gpxtpx:hr>
          </gpxtpx:TrackPointExtension>
        </extensions>
      </trkpt>
      <trkpt lat="46.09561" lon="6.26189">
        <ele>723.5</ele>
        <time>2021-03-02T12:36:25Z</time>
        <extensions>
          <gpxtpx:TrackPointExtension xmlns:gpxtpx="http://www.garmin.com/xmlschemas/TrackPointExtension/v1">
            <gpxtpx:hr>146</gpxtpx:hr>
          </gpxtpx:TrackPointExtension>
        </extensions>
      </trkpt>
      <trkpt lat="46.09559" lon="6.26187">
        <ele>723.7</ele>
        <time>2021-03-02T12:36:26Z</time>
        <extensions>
          <gpxtpx:TrackPointExtension xmlns:gpxtpx="http://www.garmin.com/xmlschemas/TrackPointExtension/v1">
            <gpxtpx:hr>146</gpxtpx:hr>
          </gpxtpx:TrackPointExtension>
        </extensions>
      </trkpt>
      <trkpt lat="46.09557" lon="6.26185">
        <ele>724.1</ele>
        <time>2021-03-02T12:36:27Z</time>
        <extensions>
          <gpxtpx:TrackPointExtension xmlns:gpxtpx="http://www.garmin.com/xmlschemas/TrackPointExtension/v1">
            <gpxtpx:hr>146</gpxtpx:hr>
          </gpxtpx:TrackPointExtension>
        </extensions>
      </trkpt>
      <trkpt lat="46.09555" lon="6.26182">
        <ele>724.3</ele>
        <time>2021-03-02T12:36:28Z</time>
        <extensions>
          <gpxtpx:TrackPointExtension xmlns:gpxtpx="http://www.garmin.com/xmlschemas/TrackPointExtension/v1">
            <gpxtpx:hr>146</gpxtpx:hr>
          </gpxtpx:TrackPointExtension>
        </extensions>
      </trkpt>
      <trkpt lat="46.09554" lon="6.2618">
        <ele>724.6</ele>
        <time>2021-03-02T12:36:29Z</time>
        <extensions>
          <gpxtpx:TrackPointExtension xmlns:gpxtpx="http://www.garmin.com/xmlschemas/TrackPointExtension/v1">
            <gpxtpx:hr>146</gpxtpx:hr>
          </gpxtpx:TrackPointExtension>
        </extensions>
      </trkpt>
      <trkpt lat="46.09552" lon="6.26177">
        <ele>724.9</ele>
        <time>2021-03-02T12:36:30Z</time>
        <extensions>
          <gpxtpx:TrackPointExtension xmlns:gpxtpx="http://www.garmin.com/xmlschemas/TrackPointExtension/v1">
            <gpxtpx:hr>147</gpxtpx:hr>
          </gpxtpx:TrackPointExtension>
        </extensions>
      </trkpt>
      <trkpt lat="46.09551" lon="6.26174">
        <ele>725.2</ele>
        <time>2021-03-02T12:36:31Z</time>
        <extensions>
          <gpxtpx:TrackPointExtension xmlns:gpxtpx="http://www.garmin.com/xmlschemas/TrackPointExtension/v1">
            <gpxtpx:hr>147</gpxtpx:hr>
          </gpxtpx:TrackPointExtension>
        </extensions>
      </trkpt>
      <trkpt lat="46.09549" lon="6.26172">
        <ele>725.5</ele>
        <time>2021-03-02T12:36:32Z</time>
        <extensions>
          <gpxtpx:TrackPointExtension xmlns:gpxtpx="http://www.garmin.com/xmlschemas/TrackPointExtension/v1">
            <gpxtpx:hr>147</gpxtpx:hr>
          </gpxtpx:TrackPointExtension>
        </extensions>
      </trkpt>
      <trkpt lat="46.09547" lon="6.26169">
        <ele>725.8</ele>
        <time>2021-03-02T12:36:33Z</time>
        <extensions>
          <gpxtpx:TrackPointExtension xmlns:gpxtpx="http://www.garmin.com/xmlschemas/TrackPointExtension/v1">
            <gpxtpx:hr>147</gpxtpx:hr>
          </gpxtpx:TrackPointExtension>
        </extensions>
      </trkpt>
      <trkpt lat="46.09546" lon="6.26166">
        <ele>726.1</ele>
        <time>2021-03-02T12:36:34Z</time>
        <extensions>
          <gpxtpx:TrackPointExtension xmlns:gpxtpx="http://www.garmin.com/xmlschemas/TrackPointExtension/v1">
            <gpxtpx:hr>147</gpxtpx:hr>
          </gpxtpx:TrackPointExtension>
        </extensions>
      </trkpt>
      <trkpt lat="46.09545" lon="6.26163">
        <ele>726.3</ele>
        <time>2021-03-02T12:36:35Z</time>
        <extensions>
          <gpxtpx:TrackPointExtension xmlns:gpxtpx="http://www.garmin.com/xmlschemas/TrackPointExtension/v1">
            <gpxtpx:hr>147</gpxtpx:hr>
          </gpxtpx:TrackPointExtension>
        </extensions>
      </trkpt>
      <trkpt lat="46.09544" lon="6.26159">
        <ele>726.6</ele>
        <time>2021-03-02T12:36:36Z</time>
        <extensions>
          <gpxtpx:TrackPointExtension xmlns:gpxtpx="http://www.garmin.com/xmlschemas/TrackPointExtension/v1">
            <gpxtpx:hr>147</gpxtpx:hr>
          </gpxtpx:TrackPointExtension>
        </extensions>
      </trkpt>
      <trkpt lat="46.09543" lon="6.26156">
        <ele>726.9</ele>
        <time>2021-03-02T12:36:37Z</time>
        <extensions>
          <gpxtpx:TrackPointExtension xmlns:gpxtpx="http://www.garmin.com/xmlschemas/TrackPointExtension/v1">
            <gpxtpx:hr>147</gpxtpx:hr>
          </gpxtpx:TrackPointExtension>
        </extensions>
      </trkpt>
      <trkpt lat="46.09542" lon="6.26153">
        <ele>727.2</ele>
        <time>2021-03-02T12:36:38Z</time>
        <extensions>
          <gpxtpx:TrackPointExtension xmlns:gpxtpx="http://www.garmin.com/xmlschemas/TrackPointExtension/v1">
            <gpxtpx:hr>147</gpxtpx:hr>
          </gpxtpx:TrackPointExtension>
        </extensions>
      </trkpt>
      <trkpt lat="46.09541" lon="6.2615">
        <ele>727.4</ele>
        <time>2021-03-02T12:36:39Z</time>
        <extensions>
          <gpxtpx:TrackPointExtension xmlns:gpxtpx="http://www.garmin.com/xmlschemas/TrackPointExtension/v1">
            <gpxtpx:hr>147</gpxtpx:hr>
          </gpxtpx:TrackPointExtension>
        </extensions>
      </trkpt>
      <trkpt lat="46.0954" lon="6.26146">
        <ele>727.7</ele>
        <time>2021-03-02T12:36:40Z</time>
        <extensions>
          <gpxtpx:TrackPointExtension xmlns:gpxtpx="http://www.garmin.com/xmlschemas/TrackPointExtension/v1">
            <gpxtpx:hr>147</gpxtpx:hr>
          </gpxtpx:TrackPointExtension>
        </extensions>
      </trkpt>
      <trkpt lat="46.09539" lon="6.26143">
        <ele>728</ele>
        <time>2021-03-02T12:36:41Z</time>
        <extensions>
          <gpxtpx:TrackPointExtension xmlns:gpxtpx="http://www.garmin.com/xmlschemas/TrackPointExtension/v1">
            <gpxtpx:hr>148</gpxtpx:hr>
          </gpxtpx:TrackPointExtension>
        </extensions>
      </trkpt>
      <trkpt lat="46.09538" lon="6.26139">
        <ele>728.3</ele>
        <time>2021-03-02T12:36:42Z</time>
        <extensions>
          <gpxtpx:TrackPointExtension xmlns:gpxtpx="http://www.garmin.com/xmlschemas/TrackPointExtension/v1">
            <gpxtpx:hr>148</gpxtpx:hr>
          </gpxtpx:TrackPointExtension>
        </extensions>
      </trkpt>
      <trkpt lat="46.09538" lon="6.26136">
        <ele>728.6</ele>
        <time>2021-03-02T12:36:43Z</time>
        <extensions>
          <gpxtpx:TrackPointExtension xmlns:gpxtpx="http://www.garmin.com/xmlschemas/TrackPointExtension/v1">
            <gpxtpx:hr>148</gpxtpx:hr>
          </gpxtpx:TrackPointExtension>
        </extensions>
      </trkpt>
      <trkpt lat="46.09537" lon="6.26132">
        <ele>728.9</ele>
        <time>2021-03-02T12:36:44Z</time>
        <extensions>
          <gpxtpx:TrackPointExtension xmlns:gpxtpx="http://www.garmin.com/xmlschemas/TrackPointExtension/v1">
            <gpxtpx:hr>148</gpxtpx:hr>
          </gpxtpx:TrackPointExtension>
        </extensions>
      </trkpt>
      <trkpt lat="46.09536" lon="6.26128">
        <ele>729.2</ele>
        <time>2021-03-02T12:36:45Z</time>
        <extensions>
          <gpxtpx:TrackPointExtension xmlns:gpxtpx="http://www.garmin.com/xmlschemas/TrackPointExtension/v1">
            <gpxtpx:hr>148</gpxtpx:hr>
          </gpxtpx:TrackPointExtension>
        </extensions>
      </trkpt>
      <trkpt lat="46.09536" lon="6.26125">
        <ele>729.5</ele>
        <time>2021-03-02T12:36:46Z</time>
        <extensions>
          <gpxtpx:TrackPointExtension xmlns:gpxtpx="http://www.garmin.com/xmlschemas/TrackPointExtension/v1">
            <gpxtpx:hr>148</gpxtpx:hr>
          </gpxtpx:TrackPointExtension>
        </extensions>
      </trkpt>
      <trkpt lat="46.09537" lon="6.26121">
        <ele>729.8</ele>
        <time>2021-03-02T12:36:47Z</time>
        <extensions>
          <gpxtpx:TrackPointExtension xmlns:gpxtpx="http://www.garmin.com/xmlschemas/TrackPointExtension/v1">
            <gpxtpx:hr>148</gpxtpx:hr>
          </gpxtpx:TrackPointExtension>
        </extensions>
      </trkpt>
      <trkpt lat="46.09538" lon="6.26118">
        <ele>730.2</ele>
        <time>2021-03-02T12:36:48Z</time>
        <extensions>
          <gpxtpx:TrackPointExtension xmlns:gpxtpx="http://www.garmin.com/xmlschemas/TrackPointExtension/v1">
            <gpxtpx:hr>148</gpxtpx:hr>
          </gpxtpx:TrackPointExtension>
        </extensions>
      </trkpt>
      <trkpt lat="46.09539" lon="6.26116">
        <ele>730.4</ele>
        <time>2021-03-02T12:36:49Z</time>
        <extensions>
          <gpxtpx:TrackPointExtension xmlns:gpxtpx="http://www.garmin.com/xmlschemas/TrackPointExtension/v1">
            <gpxtpx:hr>148</gpxtpx:hr>
          </gpxtpx:TrackPointExtension>
        </extensions>
      </trkpt>
      <trkpt lat="46.0954" lon="6.26114">
        <ele>730.6</ele>
        <time>2021-03-02T12:36:50Z</time>
        <extensions>
          <gpxtpx:TrackPointExtension xmlns:gpxtpx="http://www.garmin.com/xmlschemas/TrackPointExtension/v1">
            <gpxtpx:hr>147</gpxtpx:hr>
          </gpxtpx:TrackPointExtension>
        </extensions>
      </trkpt>
      <trkpt lat="46.09542" lon="6.26113">
        <ele>730.7</ele>
        <time>2021-03-02T12:36:51Z</time>
        <extensions>
          <gpxtpx:TrackPointExtension xmlns:gpxtpx="http://www.garmin.com/xmlschemas/TrackPointExtension/v1">
            <gpxtpx:hr>147</gpxtpx:hr>
          </gpxtpx:TrackPointExtension>
        </extensions>
      </trkpt>
      <trkpt lat="46.09544" lon="6.26111">
        <ele>730.9</ele>
        <time>2021-03-02T12:36:52Z</time>
        <extensions>
          <gpxtpx:TrackPointExtension xmlns:gpxtpx="http://www.garmin.com/xmlschemas/TrackPointExtension/v1">
            <gpxtpx:hr>146</gpxtpx:hr>
          </gpxtpx:TrackPointExtension>
        </extensions>
      </trkpt>
      <trkpt lat="46.09545" lon="6.26111">
        <ele>731</ele>
        <time>2021-03-02T12:36:53Z</time>
        <extensions>
          <gpxtpx:TrackPointExtension xmlns:gpxtpx="http://www.garmin.com/xmlschemas/TrackPointExtension/v1">
            <gpxtpx:hr>146</gpxtpx:hr>
          </gpxtpx:TrackPointExtension>
        </extensions>
      </trkpt>
      <trkpt lat="46.09547" lon="6.2611">
        <ele>731.2</ele>
        <time>2021-03-02T12:36:54Z</time>
        <extensions>
          <gpxtpx:TrackPointExtension xmlns:gpxtpx="http://www.garmin.com/xmlschemas/TrackPointExtension/v1">
            <gpxtpx:hr>145</gpxtpx:hr>
          </gpxtpx:TrackPointExtension>
        </extensions>
      </trkpt>
      <trkpt lat="46.09549" lon="6.2611">
        <ele>731.3</ele>
        <time>2021-03-02T12:36:55Z</time>
        <extensions>
          <gpxtpx:TrackPointExtension xmlns:gpxtpx="http://www.garmin.com/xmlschemas/TrackPointExtension/v1">
            <gpxtpx:hr>145</gpxtpx:hr>
          </gpxtpx:TrackPointExtension>
        </extensions>
      </trkpt>
      <trkpt lat="46.0955" lon="6.2611">
        <ele>731.5</ele>
        <time>2021-03-02T12:36:56Z</time>
        <extensions>
          <gpxtpx:TrackPointExtension xmlns:gpxtpx="http://www.garmin.com/xmlschemas/TrackPointExtension/v1">
            <gpxtpx:hr>145</gpxtpx:hr>
          </gpxtpx:TrackPointExtension>
        </extensions>
      </trkpt>
      <trkpt lat="46.09552" lon="6.26109">
        <ele>731.6</ele>
        <time>2021-03-02T12:36:57Z</time>
        <extensions>
          <gpxtpx:TrackPointExtension xmlns:gpxtpx="http://www.garmin.com/xmlschemas/TrackPointExtension/v1">
            <gpxtpx:hr>145</gpxtpx:hr>
          </gpxtpx:TrackPointExtension>
        </extensions>
      </trkpt>
      <trkpt lat="46.09554" lon="6.26109">
        <ele>731.8</ele>
        <time>2021-03-02T12:36:58Z</time>
        <extensions>
          <gpxtpx:TrackPointExtension xmlns:gpxtpx="http://www.garmin.com/xmlschemas/TrackPointExtension/v1">
            <gpxtpx:hr>144</gpxtpx:hr>
          </gpxtpx:TrackPointExtension>
        </extensions>
      </trkpt>
      <trkpt lat="46.09556" lon="6.26109">
        <ele>732</ele>
        <time>2021-03-02T12:36:59Z</time>
        <extensions>
          <gpxtpx:TrackPointExtension xmlns:gpxtpx="http://www.garmin.com/xmlschemas/TrackPointExtension/v1">
            <gpxtpx:hr>144</gpxtpx:hr>
          </gpxtpx:TrackPointExtension>
        </extensions>
      </trkpt>
      <trkpt lat="46.09558" lon="6.26109">
        <ele>732.1</ele>
        <time>2021-03-02T12:37:00Z</time>
        <extensions>
          <gpxtpx:TrackPointExtension xmlns:gpxtpx="http://www.garmin.com/xmlschemas/TrackPointExtension/v1">
            <gpxtpx:hr>143</gpxtpx:hr>
          </gpxtpx:TrackPointExtension>
        </extensions>
      </trkpt>
      <trkpt lat="46.0956" lon="6.26109">
        <ele>732.3</ele>
        <time>2021-03-02T12:37:01Z</time>
        <extensions>
          <gpxtpx:TrackPointExtension xmlns:gpxtpx="http://www.garmin.com/xmlschemas/TrackPointExtension/v1">
            <gpxtpx:hr>143</gpxtpx:hr>
          </gpxtpx:TrackPointExtension>
        </extensions>
      </trkpt>
      <trkpt lat="46.09563" lon="6.26109">
        <ele>732.5</ele>
        <time>2021-03-02T12:37:02Z</time>
        <extensions>
          <gpxtpx:TrackPointExtension xmlns:gpxtpx="http://www.garmin.com/xmlschemas/TrackPointExtension/v1">
            <gpxtpx:hr>143</gpxtpx:hr>
          </gpxtpx:TrackPointExtension>
        </extensions>
      </trkpt>
      <trkpt lat="46.09565" lon="6.2611">
        <ele>732.8</ele>
        <time>2021-03-02T12:37:03Z</time>
        <extensions>
          <gpxtpx:TrackPointExtension xmlns:gpxtpx="http://www.garmin.com/xmlschemas/TrackPointExtension/v1">
            <gpxtpx:hr>143</gpxtpx:hr>
          </gpxtpx:TrackPointExtension>
        </extensions>
      </trkpt>
      <trkpt lat="46.09568" lon="6.2611">
        <ele>733</ele>
        <time>2021-03-02T12:37:04Z</time>
        <extensions>
          <gpxtpx:TrackPointExtension xmlns:gpxtpx="http://www.garmin.com/xmlschemas/TrackPointExtension/v1">
            <gpxtpx:hr>144</gpxtpx:hr>
          </gpxtpx:TrackPointExtension>
        </extensions>
      </trkpt>
      <trkpt lat="46.0957" lon="6.26111">
        <ele>733.2</ele>
        <time>2021-03-02T12:37:05Z</time>
        <extensions>
          <gpxtpx:TrackPointExtension xmlns:gpxtpx="http://www.garmin.com/xmlschemas/TrackPointExtension/v1">
            <gpxtpx:hr>144</gpxtpx:hr>
          </gpxtpx:TrackPointExtension>
        </extensions>
      </trkpt>
      <trkpt lat="46.09573" lon="6.26111">
        <ele>733.4</ele>
        <time>2021-03-02T12:37:06Z</time>
        <extensions>
          <gpxtpx:TrackPointExtension xmlns:gpxtpx="http://www.garmin.com/xmlschemas/TrackPointExtension/v1">
            <gpxtpx:hr>145</gpxtpx:hr>
          </gpxtpx:TrackPointExtension>
        </extensions>
      </trkpt>
      <trkpt lat="46.09575" lon="6.26112">
        <ele>733.6</ele>
        <time>2021-03-02T12:37:07Z</time>
        <extensions>
          <gpxtpx:TrackPointExtension xmlns:gpxtpx="http://www.garmin.com/xmlschemas/TrackPointExtension/v1">
            <gpxtpx:hr>145</gpxtpx:hr>
          </gpxtpx:TrackPointExtension>
        </extensions>
      </trkpt>
      <trkpt lat="46.09578" lon="6.26112">
        <ele>733.9</ele>
        <time>2021-03-02T12:37:08Z</time>
        <extensions>
          <gpxtpx:TrackPointExtension xmlns:gpxtpx="http://www.garmin.com/xmlschemas/TrackPointExtension/v1">
            <gpxtpx:hr>145</gpxtpx:hr>
          </gpxtpx:TrackPointExtension>
        </extensions>
      </trkpt>
      <trkpt lat="46.0958" lon="6.26112">
        <ele>734.1</ele>
        <time>2021-03-02T12:37:09Z</time>
        <extensions>
          <gpxtpx:TrackPointExtension xmlns:gpxtpx="http://www.garmin.com/xmlschemas/TrackPointExtension/v1">
            <gpxtpx:hr>145</gpxtpx:hr>
          </gpxtpx:TrackPointExtension>
        </extensions>
      </trkpt>
      <trkpt lat="46.09582" lon="6.26112">
        <ele>734.3</ele>
        <time>2021-03-02T12:37:10Z</time>
        <extensions>
          <gpxtpx:TrackPointExtension xmlns:gpxtpx="http://www.garmin.com/xmlschemas/TrackPointExtension/v1">
            <gpxtpx:hr>146</gpxtpx:hr>
          </gpxtpx:TrackPointExtension>
        </extensions>
      </trkpt>
      <trkpt lat="46.09584" lon="6.26112">
        <ele>734.4</ele>
        <time>2021-03-02T12:37:11Z</time>
        <extensions>
          <gpxtpx:TrackPointExtension xmlns:gpxtpx="http://www.garmin.com/xmlschemas/TrackPointExtension/v1">
            <gpxtpx:hr>146</gpxtpx:hr>
          </gpxtpx:TrackPointExtension>
        </extensions>
      </trkpt>
      <trkpt lat="46.09586" lon="6.26112">
        <ele>734.7</ele>
        <time>2021-03-02T12:37:12Z</time>
        <extensions>
          <gpxtpx:TrackPointExtension xmlns:gpxtpx="http://www.garmin.com/xmlschemas/TrackPointExtension/v1">
            <gpxtpx:hr>146</gpxtpx:hr>
          </gpxtpx:TrackPointExtension>
        </extensions>
      </trkpt>
      <trkpt lat="46.09588" lon="6.26113">
        <ele>734.9</ele>
        <time>2021-03-02T12:37:13Z</time>
        <extensions>
          <gpxtpx:TrackPointExtension xmlns:gpxtpx="http://www.garmin.com/xmlschemas/TrackPointExtension/v1">
            <gpxtpx:hr>145</gpxtpx:hr>
          </gpxtpx:TrackPointExtension>
        </extensions>
      </trkpt>
      <trkpt lat="46.09591" lon="6.26113">
        <ele>735.2</ele>
        <time>2021-03-02T12:37:14Z</time>
        <extensions>
          <gpxtpx:TrackPointExtension xmlns:gpxtpx="http://www.garmin.com/xmlschemas/TrackPointExtension/v1">
            <gpxtpx:hr>145</gpxtpx:hr>
          </gpxtpx:TrackPointExtension>
        </extensions>
      </trkpt>
      <trkpt lat="46.09593" lon="6.26113">
        <ele>735.4</ele>
        <time>2021-03-02T12:37:15Z</time>
        <extensions>
          <gpxtpx:TrackPointExtension xmlns:gpxtpx="http://www.garmin.com/xmlschemas/TrackPointExtension/v1">
            <gpxtpx:hr>145</gpxtpx:hr>
          </gpxtpx:TrackPointExtension>
        </extensions>
      </trkpt>
      <trkpt lat="46.09596" lon="6.26113">
        <ele>735.6</ele>
        <time>2021-03-02T12:37:16Z</time>
        <extensions>
          <gpxtpx:TrackPointExtension xmlns:gpxtpx="http://www.garmin.com/xmlschemas/TrackPointExtension/v1">
            <gpxtpx:hr>145</gpxtpx:hr>
          </gpxtpx:TrackPointExtension>
        </extensions>
      </trkpt>
      <trkpt lat="46.09598" lon="6.26113">
        <ele>735.9</ele>
        <time>2021-03-02T12:37:17Z</time>
        <extensions>
          <gpxtpx:TrackPointExtension xmlns:gpxtpx="http://www.garmin.com/xmlschemas/TrackPointExtension/v1">
            <gpxtpx:hr>145</gpxtpx:hr>
          </gpxtpx:TrackPointExtension>
        </extensions>
      </trkpt>
      <trkpt lat="46.09601" lon="6.26113">
        <ele>736.1</ele>
        <time>2021-03-02T12:37:18Z</time>
        <extensions>
          <gpxtpx:TrackPointExtension xmlns:gpxtpx="http://www.garmin.com/xmlschemas/TrackPointExtension/v1">
            <gpxtpx:hr>145</gpxtpx:hr>
          </gpxtpx:TrackPointExtension>
        </extensions>
      </trkpt>
      <trkpt lat="46.09604" lon="6.26112">
        <ele>736.4</ele>
        <time>2021-03-02T12:37:19Z</time>
        <extensions>
          <gpxtpx:TrackPointExtension xmlns:gpxtpx="http://www.garmin.com/xmlschemas/TrackPointExtension/v1">
            <gpxtpx:hr>146</gpxtpx:hr>
          </gpxtpx:TrackPointExtension>
        </extensions>
      </trkpt>
      <trkpt lat="46.09607" lon="6.26112">
        <ele>736.7</ele>
        <time>2021-03-02T12:37:20Z</time>
        <extensions>
          <gpxtpx:TrackPointExtension xmlns:gpxtpx="http://www.garmin.com/xmlschemas/TrackPointExtension/v1">
            <gpxtpx:hr>146</gpxtpx:hr>
          </gpxtpx:TrackPointExtension>
        </extensions>
      </trkpt>
      <trkpt lat="46.09609" lon="6.26111">
        <ele>736.9</ele>
        <time>2021-03-02T12:37:21Z</time>
        <extensions>
          <gpxtpx:TrackPointExtension xmlns:gpxtpx="http://www.garmin.com/xmlschemas/TrackPointExtension/v1">
            <gpxtpx:hr>146</gpxtpx:hr>
          </gpxtpx:TrackPointExtension>
        </extensions>
      </trkpt>
      <trkpt lat="46.09611" lon="6.2611">
        <ele>737.1</ele>
        <time>2021-03-02T12:37:22Z</time>
        <extensions>
          <gpxtpx:TrackPointExtension xmlns:gpxtpx="http://www.garmin.com/xmlschemas/TrackPointExtension/v1">
            <gpxtpx:hr>147</gpxtpx:hr>
          </gpxtpx:TrackPointExtension>
        </extensions>
      </trkpt>
      <trkpt lat="46.09614" lon="6.26109">
        <ele>737.4</ele>
        <time>2021-03-02T12:37:23Z</time>
        <extensions>
          <gpxtpx:TrackPointExtension xmlns:gpxtpx="http://www.garmin.com/xmlschemas/TrackPointExtension/v1">
            <gpxtpx:hr>148</gpxtpx:hr>
          </gpxtpx:TrackPointExtension>
        </extensions>
      </trkpt>
      <trkpt lat="46.09616" lon="6.26108">
        <ele>737.6</ele>
        <time>2021-03-02T12:37:24Z</time>
        <extensions>
          <gpxtpx:TrackPointExtension xmlns:gpxtpx="http://www.garmin.com/xmlschemas/TrackPointExtension/v1">
            <gpxtpx:hr>149</gpxtpx:hr>
          </gpxtpx:TrackPointExtension>
        </extensions>
      </trkpt>
      <trkpt lat="46.09619" lon="6.26107">
        <ele>737.8</ele>
        <time>2021-03-02T12:37:25Z</time>
        <extensions>
          <gpxtpx:TrackPointExtension xmlns:gpxtpx="http://www.garmin.com/xmlschemas/TrackPointExtension/v1">
            <gpxtpx:hr>150</gpxtpx:hr>
          </gpxtpx:TrackPointExtension>
        </extensions>
      </trkpt>
      <trkpt lat="46.09621" lon="6.26106">
        <ele>738</ele>
        <time>2021-03-02T12:37:26Z</time>
        <extensions>
          <gpxtpx:TrackPointExtension xmlns:gpxtpx="http://www.garmin.com/xmlschemas/TrackPointExtension/v1">
            <gpxtpx:hr>151</gpxtpx:hr>
          </gpxtpx:TrackPointExtension>
        </extensions>
      </trkpt>
      <trkpt lat="46.09623" lon="6.26105">
        <ele>738.2</ele>
        <time>2021-03-02T12:37:27Z</time>
        <extensions>
          <gpxtpx:TrackPointExtension xmlns:gpxtpx="http://www.garmin.com/xmlschemas/TrackPointExtension/v1">
            <gpxtpx:hr>151</gpxtpx:hr>
          </gpxtpx:TrackPointExtension>
        </extensions>
      </trkpt>
      <trkpt lat="46.09625" lon="6.26103">
        <ele>738.4</ele>
        <time>2021-03-02T12:37:28Z</time>
        <extensions>
          <gpxtpx:TrackPointExtension xmlns:gpxtpx="http://www.garmin.com/xmlschemas/TrackPointExtension/v1">
            <gpxtpx:hr>152</gpxtpx:hr>
          </gpxtpx:TrackPointExtension>
        </extensions>
      </trkpt>
      <trkpt lat="46.09627" lon="6.26102">
        <ele>738.6</ele>
        <time>2021-03-02T12:37:29Z</time>
        <extensions>
          <gpxtpx:TrackPointExtension xmlns:gpxtpx="http://www.garmin.com/xmlschemas/TrackPointExtension/v1">
            <gpxtpx:hr>152</gpxtpx:hr>
          </gpxtpx:TrackPointExtension>
        </extensions>
      </trkpt>
      <trkpt lat="46.09629" lon="6.261">
        <ele>738.8</ele>
        <time>2021-03-02T12:37:30Z</time>
        <extensions>
          <gpxtpx:TrackPointExtension xmlns:gpxtpx="http://www.garmin.com/xmlschemas/TrackPointExtension/v1">
            <gpxtpx:hr>153</gpxtpx:hr>
          </gpxtpx:TrackPointExtension>
        </extensions>
      </trkpt>
      <trkpt lat="46.09631" lon="6.26099">
        <ele>739</ele>
        <time>2021-03-02T12:37:31Z</time>
        <extensions>
          <gpxtpx:TrackPointExtension xmlns:gpxtpx="http://www.garmin.com/xmlschemas/TrackPointExtension/v1">
            <gpxtpx:hr>153</gpxtpx:hr>
          </gpxtpx:TrackPointExtension>
        </extensions>
      </trkpt>
      <trkpt lat="46.09633" lon="6.26097">
        <ele>739.2</ele>
        <time>2021-03-02T12:37:32Z</time>
        <extensions>
          <gpxtpx:TrackPointExtension xmlns:gpxtpx="http://www.garmin.com/xmlschemas/TrackPointExtension/v1">
            <gpxtpx:hr>153</gpxtpx:hr>
          </gpxtpx:TrackPointExtension>
        </extensions>
      </trkpt>
      <trkpt lat="46.09635" lon="6.26095">
        <ele>739.4</ele>
        <time>2021-03-02T12:37:33Z</time>
        <extensions>
          <gpxtpx:TrackPointExtension xmlns:gpxtpx="http://www.garmin.com/xmlschemas/TrackPointExtension/v1">
            <gpxtpx:hr>153</gpxtpx:hr>
          </gpxtpx:TrackPointExtension>
        </extensions>
      </trkpt>
      <trkpt lat="46.09637" lon="6.26094">
        <ele>739.6</ele>
        <time>2021-03-02T12:37:34Z</time>
        <extensions>
          <gpxtpx:TrackPointExtension xmlns:gpxtpx="http://www.garmin.com/xmlschemas/TrackPointExtension/v1">
            <gpxtpx:hr>153</gpxtpx:hr>
          </gpxtpx:TrackPointExtension>
        </extensions>
      </trkpt>
      <trkpt lat="46.09639" lon="6.26092">
        <ele>739.8</ele>
        <time>2021-03-02T12:37:35Z</time>
        <extensions>
          <gpxtpx:TrackPointExtension xmlns:gpxtpx="http://www.garmin.com/xmlschemas/TrackPointExtension/v1">
            <gpxtpx:hr>154</gpxtpx:hr>
          </gpxtpx:TrackPointExtension>
        </extensions>
      </trkpt>
      <trkpt lat="46.09641" lon="6.2609">
        <ele>740.1</ele>
        <time>2021-03-02T12:37:36Z</time>
        <extensions>
          <gpxtpx:TrackPointExtension xmlns:gpxtpx="http://www.garmin.com/xmlschemas/TrackPointExtension/v1">
            <gpxtpx:hr>153</gpxtpx:hr>
          </gpxtpx:TrackPointExtension>
        </extensions>
      </trkpt>
      <trkpt lat="46.09643" lon="6.26089">
        <ele>740.3</ele>
        <time>2021-03-02T12:37:37Z</time>
        <extensions>
          <gpxtpx:TrackPointExtension xmlns:gpxtpx="http://www.garmin.com/xmlschemas/TrackPointExtension/v1">
            <gpxtpx:hr>153</gpxtpx:hr>
          </gpxtpx:TrackPointExtension>
        </extensions>
      </trkpt>
      <trkpt lat="46.09645" lon="6.26087">
        <ele>740.5</ele>
        <time>2021-03-02T12:37:38Z</time>
        <extensions>
          <gpxtpx:TrackPointExtension xmlns:gpxtpx="http://www.garmin.com/xmlschemas/TrackPointExtension/v1">
            <gpxtpx:hr>153</gpxtpx:hr>
          </gpxtpx:TrackPointExtension>
        </extensions>
      </trkpt>
      <trkpt lat="46.09647" lon="6.26085">
        <ele>740.7</ele>
        <time>2021-03-02T12:37:39Z</time>
        <extensions>
          <gpxtpx:TrackPointExtension xmlns:gpxtpx="http://www.garmin.com/xmlschemas/TrackPointExtension/v1">
            <gpxtpx:hr>153</gpxtpx:hr>
          </gpxtpx:TrackPointExtension>
        </extensions>
      </trkpt>
      <trkpt lat="46.0965" lon="6.26084">
        <ele>740.9</ele>
        <time>2021-03-02T12:37:40Z</time>
        <extensions>
          <gpxtpx:TrackPointExtension xmlns:gpxtpx="http://www.garmin.com/xmlschemas/TrackPointExtension/v1">
            <gpxtpx:hr>153</gpxtpx:hr>
          </gpxtpx:TrackPointExtension>
        </extensions>
      </trkpt>
      <trkpt lat="46.09652" lon="6.26082">
        <ele>741.1</ele>
        <time>2021-03-02T12:37:41Z</time>
        <extensions>
          <gpxtpx:TrackPointExtension xmlns:gpxtpx="http://www.garmin.com/xmlschemas/TrackPointExtension/v1">
            <gpxtpx:hr>153</gpxtpx:hr>
          </gpxtpx:TrackPointExtension>
        </extensions>
      </trkpt>
      <trkpt lat="46.09654" lon="6.2608">
        <ele>741.3</ele>
        <time>2021-03-02T12:37:42Z</time>
        <extensions>
          <gpxtpx:TrackPointExtension xmlns:gpxtpx="http://www.garmin.com/xmlschemas/TrackPointExtension/v1">
            <gpxtpx:hr>153</gpxtpx:hr>
          </gpxtpx:TrackPointExtension>
        </extensions>
      </trkpt>
      <trkpt lat="46.09656" lon="6.26078">
        <ele>741.6</ele>
        <time>2021-03-02T12:37:43Z</time>
        <extensions>
          <gpxtpx:TrackPointExtension xmlns:gpxtpx="http://www.garmin.com/xmlschemas/TrackPointExtension/v1">
            <gpxtpx:hr>153</gpxtpx:hr>
          </gpxtpx:TrackPointExtension>
        </extensions>
      </trkpt>
      <trkpt lat="46.09659" lon="6.26076">
        <ele>741.8</ele>
        <time>2021-03-02T12:37:44Z</time>
        <extensions>
          <gpxtpx:TrackPointExtension xmlns:gpxtpx="http://www.garmin.com/xmlschemas/TrackPointExtension/v1">
            <gpxtpx:hr>152</gpxtpx:hr>
          </gpxtpx:TrackPointExtension>
        </extensions>
      </trkpt>
      <trkpt lat="46.09661" lon="6.26074">
        <ele>742</ele>
        <time>2021-03-02T12:37:45Z</time>
        <extensions>
          <gpxtpx:TrackPointExtension xmlns:gpxtpx="http://www.garmin.com/xmlschemas/TrackPointExtension/v1">
            <gpxtpx:hr>151</gpxtpx:hr>
          </gpxtpx:TrackPointExtension>
        </extensions>
      </trkpt>
      <trkpt lat="46.09663" lon="6.26072">
        <ele>742.2</ele>
        <time>2021-03-02T12:37:46Z</time>
        <extensions>
          <gpxtpx:TrackPointExtension xmlns:gpxtpx="http://www.garmin.com/xmlschemas/TrackPointExtension/v1">
            <gpxtpx:hr>151</gpxtpx:hr>
          </gpxtpx:TrackPointExtension>
        </extensions>
      </trkpt>
      <trkpt lat="46.09665" lon="6.2607">
        <ele>742.4</ele>
        <time>2021-03-02T12:37:47Z</time>
        <extensions>
          <gpxtpx:TrackPointExtension xmlns:gpxtpx="http://www.garmin.com/xmlschemas/TrackPointExtension/v1">
            <gpxtpx:hr>151</gpxtpx:hr>
          </gpxtpx:TrackPointExtension>
        </extensions>
      </trkpt>
      <trkpt lat="46.09667" lon="6.26069">
        <ele>742.7</ele>
        <time>2021-03-02T12:37:48Z</time>
        <extensions>
          <gpxtpx:TrackPointExtension xmlns:gpxtpx="http://www.garmin.com/xmlschemas/TrackPointExtension/v1">
            <gpxtpx:hr>151</gpxtpx:hr>
          </gpxtpx:TrackPointExtension>
        </extensions>
      </trkpt>
      <trkpt lat="46.09669" lon="6.26067">
        <ele>742.9</ele>
        <time>2021-03-02T12:37:49Z</time>
        <extensions>
          <gpxtpx:TrackPointExtension xmlns:gpxtpx="http://www.garmin.com/xmlschemas/TrackPointExtension/v1">
            <gpxtpx:hr>151</gpxtpx:hr>
          </gpxtpx:TrackPointExtension>
        </extensions>
      </trkpt>
      <trkpt lat="46.09672" lon="6.26066">
        <ele>743.1</ele>
        <time>2021-03-02T12:37:50Z</time>
        <extensions>
          <gpxtpx:TrackPointExtension xmlns:gpxtpx="http://www.garmin.com/xmlschemas/TrackPointExtension/v1">
            <gpxtpx:hr>151</gpxtpx:hr>
          </gpxtpx:TrackPointExtension>
        </extensions>
      </trkpt>
      <trkpt lat="46.09674" lon="6.26064">
        <ele>743.3</ele>
        <time>2021-03-02T12:37:51Z</time>
        <extensions>
          <gpxtpx:TrackPointExtension xmlns:gpxtpx="http://www.garmin.com/xmlschemas/TrackPointExtension/v1">
            <gpxtpx:hr>152</gpxtpx:hr>
          </gpxtpx:TrackPointExtension>
        </extensions>
      </trkpt>
      <trkpt lat="46.09677" lon="6.26063">
        <ele>743.5</ele>
        <time>2021-03-02T12:37:52Z</time>
        <extensions>
          <gpxtpx:TrackPointExtension xmlns:gpxtpx="http://www.garmin.com/xmlschemas/TrackPointExtension/v1">
            <gpxtpx:hr>151</gpxtpx:hr>
          </gpxtpx:TrackPointExtension>
        </extensions>
      </trkpt>
      <trkpt lat="46.09679" lon="6.26061">
        <ele>743.7</ele>
        <time>2021-03-02T12:37:53Z</time>
        <extensions>
          <gpxtpx:TrackPointExtension xmlns:gpxtpx="http://www.garmin.com/xmlschemas/TrackPointExtension/v1">
            <gpxtpx:hr>151</gpxtpx:hr>
          </gpxtpx:TrackPointExtension>
        </extensions>
      </trkpt>
      <trkpt lat="46.09682" lon="6.2606">
        <ele>743.9</ele>
        <time>2021-03-02T12:37:54Z</time>
        <extensions>
          <gpxtpx:TrackPointExtension xmlns:gpxtpx="http://www.garmin.com/xmlschemas/TrackPointExtension/v1">
            <gpxtpx:hr>151</gpxtpx:hr>
          </gpxtpx:TrackPointExtension>
        </extensions>
      </trkpt>
      <trkpt lat="46.09684" lon="6.26058">
        <ele>744.2</ele>
        <time>2021-03-02T12:37:55Z</time>
        <extensions>
          <gpxtpx:TrackPointExtension xmlns:gpxtpx="http://www.garmin.com/xmlschemas/TrackPointExtension/v1">
            <gpxtpx:hr>151</gpxtpx:hr>
          </gpxtpx:TrackPointExtension>
        </extensions>
      </trkpt>
      <trkpt lat="46.09687" lon="6.26057">
        <ele>744.4</ele>
        <time>2021-03-02T12:37:56Z</time>
        <extensions>
          <gpxtpx:TrackPointExtension xmlns:gpxtpx="http://www.garmin.com/xmlschemas/TrackPointExtension/v1">
            <gpxtpx:hr>151</gpxtpx:hr>
          </gpxtpx:TrackPointExtension>
        </extensions>
      </trkpt>
      <trkpt lat="46.0969" lon="6.26055">
        <ele>744.6</ele>
        <time>2021-03-02T12:37:57Z</time>
        <extensions>
          <gpxtpx:TrackPointExtension xmlns:gpxtpx="http://www.garmin.com/xmlschemas/TrackPointExtension/v1">
            <gpxtpx:hr>150</gpxtpx:hr>
          </gpxtpx:TrackPointExtension>
        </extensions>
      </trkpt>
      <trkpt lat="46.09692" lon="6.26055">
        <ele>744.8</ele>
        <time>2021-03-02T12:37:58Z</time>
        <extensions>
          <gpxtpx:TrackPointExtension xmlns:gpxtpx="http://www.garmin.com/xmlschemas/TrackPointExtension/v1">
            <gpxtpx:hr>150</gpxtpx:hr>
          </gpxtpx:TrackPointExtension>
        </extensions>
      </trkpt>
      <trkpt lat="46.09695" lon="6.26054">
        <ele>745</ele>
        <time>2021-03-02T12:37:59Z</time>
        <extensions>
          <gpxtpx:TrackPointExtension xmlns:gpxtpx="http://www.garmin.com/xmlschemas/TrackPointExtension/v1">
            <gpxtpx:hr>150</gpxtpx:hr>
          </gpxtpx:TrackPointExtension>
        </extensions>
      </trkpt>
      <trkpt lat="46.09698" lon="6.26053">
        <ele>745.2</ele>
        <time>2021-03-02T12:38:00Z</time>
        <extensions>
          <gpxtpx:TrackPointExtension xmlns:gpxtpx="http://www.garmin.com/xmlschemas/TrackPointExtension/v1">
            <gpxtpx:hr>150</gpxtpx:hr>
          </gpxtpx:TrackPointExtension>
        </extensions>
      </trkpt>
      <trkpt lat="46.09701" lon="6.26053">
        <ele>745.4</ele>
        <time>2021-03-02T12:38:01Z</time>
        <extensions>
          <gpxtpx:TrackPointExtension xmlns:gpxtpx="http://www.garmin.com/xmlschemas/TrackPointExtension/v1">
            <gpxtpx:hr>150</gpxtpx:hr>
          </gpxtpx:TrackPointExtension>
        </extensions>
      </trkpt>
      <trkpt lat="46.09703" lon="6.26052">
        <ele>745.6</ele>
        <time>2021-03-02T12:38:02Z</time>
        <extensions>
          <gpxtpx:TrackPointExtension xmlns:gpxtpx="http://www.garmin.com/xmlschemas/TrackPointExtension/v1">
            <gpxtpx:hr>150</gpxtpx:hr>
          </gpxtpx:TrackPointExtension>
        </extensions>
      </trkpt>
      <trkpt lat="46.09706" lon="6.26051">
        <ele>745.8</ele>
        <time>2021-03-02T12:38:03Z</time>
        <extensions>
          <gpxtpx:TrackPointExtension xmlns:gpxtpx="http://www.garmin.com/xmlschemas/TrackPointExtension/v1">
            <gpxtpx:hr>150</gpxtpx:hr>
          </gpxtpx:TrackPointExtension>
        </extensions>
      </trkpt>
      <trkpt lat="46.09709" lon="6.26051">
        <ele>746</ele>
        <time>2021-03-02T12:38:04Z</time>
        <extensions>
          <gpxtpx:TrackPointExtension xmlns:gpxtpx="http://www.garmin.com/xmlschemas/TrackPointExtension/v1">
            <gpxtpx:hr>149</gpxtpx:hr>
          </gpxtpx:TrackPointExtension>
        </extensions>
      </trkpt>
      <trkpt lat="46.09712" lon="6.2605">
        <ele>746.2</ele>
        <time>2021-03-02T12:38:05Z</time>
        <extensions>
          <gpxtpx:TrackPointExtension xmlns:gpxtpx="http://www.garmin.com/xmlschemas/TrackPointExtension/v1">
            <gpxtpx:hr>149</gpxtpx:hr>
          </gpxtpx:TrackPointExtension>
        </extensions>
      </trkpt>
      <trkpt lat="46.09714" lon="6.26049">
        <ele>746.4</ele>
        <time>2021-03-02T12:38:06Z</time>
        <extensions>
          <gpxtpx:TrackPointExtension xmlns:gpxtpx="http://www.garmin.com/xmlschemas/TrackPointExtension/v1">
            <gpxtpx:hr>149</gpxtpx:hr>
          </gpxtpx:TrackPointExtension>
        </extensions>
      </trkpt>
      <trkpt lat="46.09717" lon="6.26049">
        <ele>746.6</ele>
        <time>2021-03-02T12:38:07Z</time>
        <extensions>
          <gpxtpx:TrackPointExtension xmlns:gpxtpx="http://www.garmin.com/xmlschemas/TrackPointExtension/v1">
            <gpxtpx:hr>149</gpxtpx:hr>
          </gpxtpx:TrackPointExtension>
        </extensions>
      </trkpt>
      <trkpt lat="46.0972" lon="6.26048">
        <ele>746.8</ele>
        <time>2021-03-02T12:38:08Z</time>
        <extensions>
          <gpxtpx:TrackPointExtension xmlns:gpxtpx="http://www.garmin.com/xmlschemas/TrackPointExtension/v1">
            <gpxtpx:hr>149</gpxtpx:hr>
          </gpxtpx:TrackPointExtension>
        </extensions>
      </trkpt>
      <trkpt lat="46.09723" lon="6.26048">
        <ele>747</ele>
        <time>2021-03-02T12:38:09Z</time>
        <extensions>
          <gpxtpx:TrackPointExtension xmlns:gpxtpx="http://www.garmin.com/xmlschemas/TrackPointExtension/v1">
            <gpxtpx:hr>149</gpxtpx:hr>
          </gpxtpx:TrackPointExtension>
        </extensions>
      </trkpt>
      <trkpt lat="46.09725" lon="6.26047">
        <ele>747.2</ele>
        <time>2021-03-02T12:38:10Z</time>
        <extensions>
          <gpxtpx:TrackPointExtension xmlns:gpxtpx="http://www.garmin.com/xmlschemas/TrackPointExtension/v1">
            <gpxtpx:hr>149</gpxtpx:hr>
          </gpxtpx:TrackPointExtension>
        </extensions>
      </trkpt>
      <trkpt lat="46.09728" lon="6.26047">
        <ele>747.4</ele>
        <time>2021-03-02T12:38:11Z</time>
        <extensions>
          <gpxtpx:TrackPointExtension xmlns:gpxtpx="http://www.garmin.com/xmlschemas/TrackPointExtension/v1">
            <gpxtpx:hr>149</gpxtpx:hr>
          </gpxtpx:TrackPointExtension>
        </extensions>
      </trkpt>
      <trkpt lat="46.09731" lon="6.26046">
        <ele>747.5</ele>
        <time>2021-03-02T12:38:12Z</time>
        <extensions>
          <gpxtpx:TrackPointExtension xmlns:gpxtpx="http://www.garmin.com/xmlschemas/TrackPointExtension/v1">
            <gpxtpx:hr>149</gpxtpx:hr>
          </gpxtpx:TrackPointExtension>
        </extensions>
      </trkpt>
      <trkpt lat="46.09734" lon="6.26045">
        <ele>747.7</ele>
        <time>2021-03-02T12:38:13Z</time>
        <extensions>
          <gpxtpx:TrackPointExtension xmlns:gpxtpx="http://www.garmin.com/xmlschemas/TrackPointExtension/v1">
            <gpxtpx:hr>149</gpxtpx:hr>
          </gpxtpx:TrackPointExtension>
        </extensions>
      </trkpt>
      <trkpt lat="46.09736" lon="6.26044">
        <ele>747.9</ele>
        <time>2021-03-02T12:38:14Z</time>
        <extensions>
          <gpxtpx:TrackPointExtension xmlns:gpxtpx="http://www.garmin.com/xmlschemas/TrackPointExtension/v1">
            <gpxtpx:hr>149</gpxtpx:hr>
          </gpxtpx:TrackPointExtension>
        </extensions>
      </trkpt>
      <trkpt lat="46.09739" lon="6.26043">
        <ele>748.1</ele>
        <time>2021-03-02T12:38:15Z</time>
        <extensions>
          <gpxtpx:TrackPointExtension xmlns:gpxtpx="http://www.garmin.com/xmlschemas/TrackPointExtension/v1">
            <gpxtpx:hr>149</gpxtpx:hr>
          </gpxtpx:TrackPointExtension>
        </extensions>
      </trkpt>
      <trkpt lat="46.09742" lon="6.26042">
        <ele>748.3</ele>
        <time>2021-03-02T12:38:16Z</time>
        <extensions>
          <gpxtpx:TrackPointExtension xmlns:gpxtpx="http://www.garmin.com/xmlschemas/TrackPointExtension/v1">
            <gpxtpx:hr>149</gpxtpx:hr>
          </gpxtpx:TrackPointExtension>
        </extensions>
      </trkpt>
      <trkpt lat="46.09745" lon="6.26041">
        <ele>748.5</ele>
        <time>2021-03-02T12:38:17Z</time>
        <extensions>
          <gpxtpx:TrackPointExtension xmlns:gpxtpx="http://www.garmin.com/xmlschemas/TrackPointExtension/v1">
            <gpxtpx:hr>149</gpxtpx:hr>
          </gpxtpx:TrackPointExtension>
        </extensions>
      </trkpt>
      <trkpt lat="46.09747" lon="6.2604">
        <ele>748.7</ele>
        <time>2021-03-02T12:38:18Z</time>
        <extensions>
          <gpxtpx:TrackPointExtension xmlns:gpxtpx="http://www.garmin.com/xmlschemas/TrackPointExtension/v1">
            <gpxtpx:hr>148</gpxtpx:hr>
          </gpxtpx:TrackPointExtension>
        </extensions>
      </trkpt>
      <trkpt lat="46.0975" lon="6.26038">
        <ele>748.9</ele>
        <time>2021-03-02T12:38:19Z</time>
        <extensions>
          <gpxtpx:TrackPointExtension xmlns:gpxtpx="http://www.garmin.com/xmlschemas/TrackPointExtension/v1">
            <gpxtpx:hr>148</gpxtpx:hr>
          </gpxtpx:TrackPointExtension>
        </extensions>
      </trkpt>
      <trkpt lat="46.09752" lon="6.26037">
        <ele>749.1</ele>
        <time>2021-03-02T12:38:20Z</time>
        <extensions>
          <gpxtpx:TrackPointExtension xmlns:gpxtpx="http://www.garmin.com/xmlschemas/TrackPointExtension/v1">
            <gpxtpx:hr>148</gpxtpx:hr>
          </gpxtpx:TrackPointExtension>
        </extensions>
      </trkpt>
      <trkpt lat="46.09755" lon="6.26035">
        <ele>749.3</ele>
        <time>2021-03-02T12:38:21Z</time>
        <extensions>
          <gpxtpx:TrackPointExtension xmlns:gpxtpx="http://www.garmin.com/xmlschemas/TrackPointExtension/v1">
            <gpxtpx:hr>148</gpxtpx:hr>
          </gpxtpx:TrackPointExtension>
        </extensions>
      </trkpt>
      <trkpt lat="46.09757" lon="6.26034">
        <ele>749.5</ele>
        <time>2021-03-02T12:38:22Z</time>
        <extensions>
          <gpxtpx:TrackPointExtension xmlns:gpxtpx="http://www.garmin.com/xmlschemas/TrackPointExtension/v1">
            <gpxtpx:hr>148</gpxtpx:hr>
          </gpxtpx:TrackPointExtension>
        </extensions>
      </trkpt>
      <trkpt lat="46.0976" lon="6.26032">
        <ele>749.7</ele>
        <time>2021-03-02T12:38:23Z</time>
        <extensions>
          <gpxtpx:TrackPointExtension xmlns:gpxtpx="http://www.garmin.com/xmlschemas/TrackPointExtension/v1">
            <gpxtpx:hr>148</gpxtpx:hr>
          </gpxtpx:TrackPointExtension>
        </extensions>
      </trkpt>
      <trkpt lat="46.09762" lon="6.2603">
        <ele>749.9</ele>
        <time>2021-03-02T12:38:24Z</time>
        <extensions>
          <gpxtpx:TrackPointExtension xmlns:gpxtpx="http://www.garmin.com/xmlschemas/TrackPointExtension/v1">
            <gpxtpx:hr>147</gpxtpx:hr>
          </gpxtpx:TrackPointExtension>
        </extensions>
      </trkpt>
      <trkpt lat="46.09764" lon="6.26028">
        <ele>750.1</ele>
        <time>2021-03-02T12:38:25Z</time>
        <extensions>
          <gpxtpx:TrackPointExtension xmlns:gpxtpx="http://www.garmin.com/xmlschemas/TrackPointExtension/v1">
            <gpxtpx:hr>147</gpxtpx:hr>
          </gpxtpx:TrackPointExtension>
        </extensions>
      </trkpt>
      <trkpt lat="46.09766" lon="6.26026">
        <ele>750.4</ele>
        <time>2021-03-02T12:38:26Z</time>
        <extensions>
          <gpxtpx:TrackPointExtension xmlns:gpxtpx="http://www.garmin.com/xmlschemas/TrackPointExtension/v1">
            <gpxtpx:hr>147</gpxtpx:hr>
          </gpxtpx:TrackPointExtension>
        </extensions>
      </trkpt>
      <trkpt lat="46.09768" lon="6.26024">
        <ele>750.6</ele>
        <time>2021-03-02T12:38:27Z</time>
        <extensions>
          <gpxtpx:TrackPointExtension xmlns:gpxtpx="http://www.garmin.com/xmlschemas/TrackPointExtension/v1">
            <gpxtpx:hr>147</gpxtpx:hr>
          </gpxtpx:TrackPointExtension>
        </extensions>
      </trkpt>
      <trkpt lat="46.0977" lon="6.26022">
        <ele>750.8</ele>
        <time>2021-03-02T12:38:28Z</time>
        <extensions>
          <gpxtpx:TrackPointExtension xmlns:gpxtpx="http://www.garmin.com/xmlschemas/TrackPointExtension/v1">
            <gpxtpx:hr>147</gpxtpx:hr>
          </gpxtpx:TrackPointExtension>
        </extensions>
      </trkpt>
      <trkpt lat="46.09772" lon="6.2602">
        <ele>751.1</ele>
        <time>2021-03-02T12:38:29Z</time>
        <extensions>
          <gpxtpx:TrackPointExtension xmlns:gpxtpx="http://www.garmin.com/xmlschemas/TrackPointExtension/v1">
            <gpxtpx:hr>147</gpxtpx:hr>
          </gpxtpx:TrackPointExtension>
        </extensions>
      </trkpt>
      <trkpt lat="46.09775" lon="6.26018">
        <ele>751.4</ele>
        <time>2021-03-02T12:38:30Z</time>
        <extensions>
          <gpxtpx:TrackPointExtension xmlns:gpxtpx="http://www.garmin.com/xmlschemas/TrackPointExtension/v1">
            <gpxtpx:hr>147</gpxtpx:hr>
          </gpxtpx:TrackPointExtension>
        </extensions>
      </trkpt>
      <trkpt lat="46.09777" lon="6.26016">
        <ele>751.7</ele>
        <time>2021-03-02T12:38:31Z</time>
        <extensions>
          <gpxtpx:TrackPointExtension xmlns:gpxtpx="http://www.garmin.com/xmlschemas/TrackPointExtension/v1">
            <gpxtpx:hr>147</gpxtpx:hr>
          </gpxtpx:TrackPointExtension>
        </extensions>
      </trkpt>
      <trkpt lat="46.09779" lon="6.26013">
        <ele>751.9</ele>
        <time>2021-03-02T12:38:32Z</time>
        <extensions>
          <gpxtpx:TrackPointExtension xmlns:gpxtpx="http://www.garmin.com/xmlschemas/TrackPointExtension/v1">
            <gpxtpx:hr>146</gpxtpx:hr>
          </gpxtpx:TrackPointExtension>
        </extensions>
      </trkpt>
      <trkpt lat="46.09781" lon="6.26011">
        <ele>752.2</ele>
        <time>2021-03-02T12:38:33Z</time>
        <extensions>
          <gpxtpx:TrackPointExtension xmlns:gpxtpx="http://www.garmin.com/xmlschemas/TrackPointExtension/v1">
            <gpxtpx:hr>146</gpxtpx:hr>
          </gpxtpx:TrackPointExtension>
        </extensions>
      </trkpt>
      <trkpt lat="46.09783" lon="6.26009">
        <ele>752.4</ele>
        <time>2021-03-02T12:38:34Z</time>
        <extensions>
          <gpxtpx:TrackPointExtension xmlns:gpxtpx="http://www.garmin.com/xmlschemas/TrackPointExtension/v1">
            <gpxtpx:hr>146</gpxtpx:hr>
          </gpxtpx:TrackPointExtension>
        </extensions>
      </trkpt>
      <trkpt lat="46.09784" lon="6.26006">
        <ele>752.7</ele>
        <time>2021-03-02T12:38:35Z</time>
        <extensions>
          <gpxtpx:TrackPointExtension xmlns:gpxtpx="http://www.garmin.com/xmlschemas/TrackPointExtension/v1">
            <gpxtpx:hr>146</gpxtpx:hr>
          </gpxtpx:TrackPointExtension>
        </extensions>
      </trkpt>
      <trkpt lat="46.09786" lon="6.26003">
        <ele>752.9</ele>
        <time>2021-03-02T12:38:36Z</time>
        <extensions>
          <gpxtpx:TrackPointExtension xmlns:gpxtpx="http://www.garmin.com/xmlschemas/TrackPointExtension/v1">
            <gpxtpx:hr>146</gpxtpx:hr>
          </gpxtpx:TrackPointExtension>
        </extensions>
      </trkpt>
      <trkpt lat="46.09788" lon="6.26001">
        <ele>753.2</ele>
        <time>2021-03-02T12:38:37Z</time>
        <extensions>
          <gpxtpx:TrackPointExtension xmlns:gpxtpx="http://www.garmin.com/xmlschemas/TrackPointExtension/v1">
            <gpxtpx:hr>146</gpxtpx:hr>
          </gpxtpx:TrackPointExtension>
        </extensions>
      </trkpt>
      <trkpt lat="46.0979" lon="6.25998">
        <ele>753.5</ele>
        <time>2021-03-02T12:38:38Z</time>
        <extensions>
          <gpxtpx:TrackPointExtension xmlns:gpxtpx="http://www.garmin.com/xmlschemas/TrackPointExtension/v1">
            <gpxtpx:hr>146</gpxtpx:hr>
          </gpxtpx:TrackPointExtension>
        </extensions>
      </trkpt>
      <trkpt lat="46.09792" lon="6.25995">
        <ele>753.7</ele>
        <time>2021-03-02T12:38:39Z</time>
        <extensions>
          <gpxtpx:TrackPointExtension xmlns:gpxtpx="http://www.garmin.com/xmlschemas/TrackPointExtension/v1">
            <gpxtpx:hr>146</gpxtpx:hr>
          </gpxtpx:TrackPointExtension>
        </extensions>
      </trkpt>
      <trkpt lat="46.09794" lon="6.25993">
        <ele>754</ele>
        <time>2021-03-02T12:38:40Z</time>
        <extensions>
          <gpxtpx:TrackPointExtension xmlns:gpxtpx="http://www.garmin.com/xmlschemas/TrackPointExtension/v1">
            <gpxtpx:hr>146</gpxtpx:hr>
          </gpxtpx:TrackPointExtension>
        </extensions>
      </trkpt>
      <trkpt lat="46.09795" lon="6.2599">
        <ele>754.3</ele>
        <time>2021-03-02T12:38:41Z</time>
        <extensions>
          <gpxtpx:TrackPointExtension xmlns:gpxtpx="http://www.garmin.com/xmlschemas/TrackPointExtension/v1">
            <gpxtpx:hr>146</gpxtpx:hr>
          </gpxtpx:TrackPointExtension>
        </extensions>
      </trkpt>
      <trkpt lat="46.09797" lon="6.25987">
        <ele>754.5</ele>
        <time>2021-03-02T12:38:42Z</time>
        <extensions>
          <gpxtpx:TrackPointExtension xmlns:gpxtpx="http://www.garmin.com/xmlschemas/TrackPointExtension/v1">
            <gpxtpx:hr>146</gpxtpx:hr>
          </gpxtpx:TrackPointExtension>
        </extensions>
      </trkpt>
      <trkpt lat="46.09798" lon="6.25984">
        <ele>754.8</ele>
        <time>2021-03-02T12:38:43Z</time>
        <extensions>
          <gpxtpx:TrackPointExtension xmlns:gpxtpx="http://www.garmin.com/xmlschemas/TrackPointExtension/v1">
            <gpxtpx:hr>146</gpxtpx:hr>
          </gpxtpx:TrackPointExtension>
        </extensions>
      </trkpt>
      <trkpt lat="46.098" lon="6.25982">
        <ele>755</ele>
        <time>2021-03-02T12:38:44Z</time>
        <extensions>
          <gpxtpx:TrackPointExtension xmlns:gpxtpx="http://www.garmin.com/xmlschemas/TrackPointExtension/v1">
            <gpxtpx:hr>146</gpxtpx:hr>
          </gpxtpx:TrackPointExtension>
        </extensions>
      </trkpt>
      <trkpt lat="46.09802" lon="6.25979">
        <ele>755.3</ele>
        <time>2021-03-02T12:38:45Z</time>
        <extensions>
          <gpxtpx:TrackPointExtension xmlns:gpxtpx="http://www.garmin.com/xmlschemas/TrackPointExtension/v1">
            <gpxtpx:hr>146</gpxtpx:hr>
          </gpxtpx:TrackPointExtension>
        </extensions>
      </trkpt>
      <trkpt lat="46.09803" lon="6.25977">
        <ele>755.5</ele>
        <time>2021-03-02T12:38:46Z</time>
        <extensions>
          <gpxtpx:TrackPointExtension xmlns:gpxtpx="http://www.garmin.com/xmlschemas/TrackPointExtension/v1">
            <gpxtpx:hr>146</gpxtpx:hr>
          </gpxtpx:TrackPointExtension>
        </extensions>
      </trkpt>
      <trkpt lat="46.09805" lon="6.25974">
        <ele>755.8</ele>
        <time>2021-03-02T12:38:47Z</time>
        <extensions>
          <gpxtpx:TrackPointExtension xmlns:gpxtpx="http://www.garmin.com/xmlschemas/TrackPointExtension/v1">
            <gpxtpx:hr>146</gpxtpx:hr>
          </gpxtpx:TrackPointExtension>
        </extensions>
      </trkpt>
      <trkpt lat="46.09807" lon="6.25971">
        <ele>756</ele>
        <time>2021-03-02T12:38:48Z</time>
        <extensions>
          <gpxtpx:TrackPointExtension xmlns:gpxtpx="http://www.garmin.com/xmlschemas/TrackPointExtension/v1">
            <gpxtpx:hr>146</gpxtpx:hr>
          </gpxtpx:TrackPointExtension>
        </extensions>
      </trkpt>
      <trkpt lat="46.09808" lon="6.25969">
        <ele>756.3</ele>
        <time>2021-03-02T12:38:49Z</time>
        <extensions>
          <gpxtpx:TrackPointExtension xmlns:gpxtpx="http://www.garmin.com/xmlschemas/TrackPointExtension/v1">
            <gpxtpx:hr>147</gpxtpx:hr>
          </gpxtpx:TrackPointExtension>
        </extensions>
      </trkpt>
      <trkpt lat="46.0981" lon="6.25966">
        <ele>756.6</ele>
        <time>2021-03-02T12:38:50Z</time>
        <extensions>
          <gpxtpx:TrackPointExtension xmlns:gpxtpx="http://www.garmin.com/xmlschemas/TrackPointExtension/v1">
            <gpxtpx:hr>147</gpxtpx:hr>
          </gpxtpx:TrackPointExtension>
        </extensions>
      </trkpt>
      <trkpt lat="46.09812" lon="6.25963">
        <ele>756.8</ele>
        <time>2021-03-02T12:38:51Z</time>
        <extensions>
          <gpxtpx:TrackPointExtension xmlns:gpxtpx="http://www.garmin.com/xmlschemas/TrackPointExtension/v1">
            <gpxtpx:hr>147</gpxtpx:hr>
          </gpxtpx:TrackPointExtension>
        </extensions>
      </trkpt>
      <trkpt lat="46.09813" lon="6.2596">
        <ele>757.1</ele>
        <time>2021-03-02T12:38:52Z</time>
        <extensions>
          <gpxtpx:TrackPointExtension xmlns:gpxtpx="http://www.garmin.com/xmlschemas/TrackPointExtension/v1">
            <gpxtpx:hr>147</gpxtpx:hr>
          </gpxtpx:TrackPointExtension>
        </extensions>
      </trkpt>
      <trkpt lat="46.09815" lon="6.25958">
        <ele>757.3</ele>
        <time>2021-03-02T12:38:53Z</time>
        <extensions>
          <gpxtpx:TrackPointExtension xmlns:gpxtpx="http://www.garmin.com/xmlschemas/TrackPointExtension/v1">
            <gpxtpx:hr>147</gpxtpx:hr>
          </gpxtpx:TrackPointExtension>
        </extensions>
      </trkpt>
      <trkpt lat="46.09816" lon="6.25955">
        <ele>757.6</ele>
        <time>2021-03-02T12:38:54Z</time>
        <extensions>
          <gpxtpx:TrackPointExtension xmlns:gpxtpx="http://www.garmin.com/xmlschemas/TrackPointExtension/v1">
            <gpxtpx:hr>146</gpxtpx:hr>
          </gpxtpx:TrackPointExtension>
        </extensions>
      </trkpt>
      <trkpt lat="46.09818" lon="6.25952">
        <ele>757.8</ele>
        <time>2021-03-02T12:38:55Z</time>
        <extensions>
          <gpxtpx:TrackPointExtension xmlns:gpxtpx="http://www.garmin.com/xmlschemas/TrackPointExtension/v1">
            <gpxtpx:hr>146</gpxtpx:hr>
          </gpxtpx:TrackPointExtension>
        </extensions>
      </trkpt>
      <trkpt lat="46.0982" lon="6.2595">
        <ele>758.1</ele>
        <time>2021-03-02T12:38:56Z</time>
        <extensions>
          <gpxtpx:TrackPointExtension xmlns:gpxtpx="http://www.garmin.com/xmlschemas/TrackPointExtension/v1">
            <gpxtpx:hr>146</gpxtpx:hr>
          </gpxtpx:TrackPointExtension>
        </extensions>
      </trkpt>
      <trkpt lat="46.09821" lon="6.25947">
        <ele>758.4</ele>
        <time>2021-03-02T12:38:57Z</time>
        <extensions>
          <gpxtpx:TrackPointExtension xmlns:gpxtpx="http://www.garmin.com/xmlschemas/TrackPointExtension/v1">
            <gpxtpx:hr>146</gpxtpx:hr>
          </gpxtpx:TrackPointExtension>
        </extensions>
      </trkpt>
      <trkpt lat="46.09823" lon="6.25944">
        <ele>758.6</ele>
        <time>2021-03-02T12:38:58Z</time>
        <extensions>
          <gpxtpx:TrackPointExtension xmlns:gpxtpx="http://www.garmin.com/xmlschemas/TrackPointExtension/v1">
            <gpxtpx:hr>145</gpxtpx:hr>
          </gpxtpx:TrackPointExtension>
        </extensions>
      </trkpt>
      <trkpt lat="46.09824" lon="6.25942">
        <ele>758.9</ele>
        <time>2021-03-02T12:38:59Z</time>
        <extensions>
          <gpxtpx:TrackPointExtension xmlns:gpxtpx="http://www.garmin.com/xmlschemas/TrackPointExtension/v1">
            <gpxtpx:hr>145</gpxtpx:hr>
          </gpxtpx:TrackPointExtension>
        </extensions>
      </trkpt>
      <trkpt lat="46.09826" lon="6.25939">
        <ele>759.1</ele>
        <time>2021-03-02T12:39:00Z</time>
        <extensions>
          <gpxtpx:TrackPointExtension xmlns:gpxtpx="http://www.garmin.com/xmlschemas/TrackPointExtension/v1">
            <gpxtpx:hr>145</gpxtpx:hr>
          </gpxtpx:TrackPointExtension>
        </extensions>
      </trkpt>
      <trkpt lat="46.09827" lon="6.25937">
        <ele>759.4</ele>
        <time>2021-03-02T12:39:01Z</time>
        <extensions>
          <gpxtpx:TrackPointExtension xmlns:gpxtpx="http://www.garmin.com/xmlschemas/TrackPointExtension/v1">
            <gpxtpx:hr>146</gpxtpx:hr>
          </gpxtpx:TrackPointExtension>
        </extensions>
      </trkpt>
      <trkpt lat="46.09829" lon="6.25934">
        <ele>759.7</ele>
        <time>2021-03-02T12:39:02Z</time>
        <extensions>
          <gpxtpx:TrackPointExtension xmlns:gpxtpx="http://www.garmin.com/xmlschemas/TrackPointExtension/v1">
            <gpxtpx:hr>146</gpxtpx:hr>
          </gpxtpx:TrackPointExtension>
        </extensions>
      </trkpt>
      <trkpt lat="46.0983" lon="6.25931">
        <ele>759.9</ele>
        <time>2021-03-02T12:39:03Z</time>
        <extensions>
          <gpxtpx:TrackPointExtension xmlns:gpxtpx="http://www.garmin.com/xmlschemas/TrackPointExtension/v1">
            <gpxtpx:hr>146</gpxtpx:hr>
          </gpxtpx:TrackPointExtension>
        </extensions>
      </trkpt>
      <trkpt lat="46.09831" lon="6.25928">
        <ele>760.2</ele>
        <time>2021-03-02T12:39:04Z</time>
        <extensions>
          <gpxtpx:TrackPointExtension xmlns:gpxtpx="http://www.garmin.com/xmlschemas/TrackPointExtension/v1">
            <gpxtpx:hr>146</gpxtpx:hr>
          </gpxtpx:TrackPointExtension>
        </extensions>
      </trkpt>
      <trkpt lat="46.09833" lon="6.25926">
        <ele>760.4</ele>
        <time>2021-03-02T12:39:05Z</time>
        <extensions>
          <gpxtpx:TrackPointExtension xmlns:gpxtpx="http://www.garmin.com/xmlschemas/TrackPointExtension/v1">
            <gpxtpx:hr>146</gpxtpx:hr>
          </gpxtpx:TrackPointExtension>
        </extensions>
      </trkpt>
      <trkpt lat="46.09834" lon="6.25923">
        <ele>760.7</ele>
        <time>2021-03-02T12:39:06Z</time>
        <extensions>
          <gpxtpx:TrackPointExtension xmlns:gpxtpx="http://www.garmin.com/xmlschemas/TrackPointExtension/v1">
            <gpxtpx:hr>146</gpxtpx:hr>
          </gpxtpx:TrackPointExtension>
        </extensions>
      </trkpt>
      <trkpt lat="46.09836" lon="6.2592">
        <ele>761</ele>
        <time>2021-03-02T12:39:07Z</time>
        <extensions>
          <gpxtpx:TrackPointExtension xmlns:gpxtpx="http://www.garmin.com/xmlschemas/TrackPointExtension/v1">
            <gpxtpx:hr>146</gpxtpx:hr>
          </gpxtpx:TrackPointExtension>
        </extensions>
      </trkpt>
      <trkpt lat="46.09837" lon="6.25918">
        <ele>761.2</ele>
        <time>2021-03-02T12:39:08Z</time>
        <extensions>
          <gpxtpx:TrackPointExtension xmlns:gpxtpx="http://www.garmin.com/xmlschemas/TrackPointExtension/v1">
            <gpxtpx:hr>146</gpxtpx:hr>
          </gpxtpx:TrackPointExtension>
        </extensions>
      </trkpt>
      <trkpt lat="46.09838" lon="6.25914">
        <ele>761.5</ele>
        <time>2021-03-02T12:39:09Z</time>
        <extensions>
          <gpxtpx:TrackPointExtension xmlns:gpxtpx="http://www.garmin.com/xmlschemas/TrackPointExtension/v1">
            <gpxtpx:hr>147</gpxtpx:hr>
          </gpxtpx:TrackPointExtension>
        </extensions>
      </trkpt>
      <trkpt lat="46.09838" lon="6.25911">
        <ele>761.7</ele>
        <time>2021-03-02T12:39:10Z</time>
        <extensions>
          <gpxtpx:TrackPointExtension xmlns:gpxtpx="http://www.garmin.com/xmlschemas/TrackPointExtension/v1">
            <gpxtpx:hr>147</gpxtpx:hr>
          </gpxtpx:TrackPointExtension>
        </extensions>
      </trkpt>
      <trkpt lat="46.09839" lon="6.25908">
        <ele>761.9</ele>
        <time>2021-03-02T12:39:11Z</time>
        <extensions>
          <gpxtpx:TrackPointExtension xmlns:gpxtpx="http://www.garmin.com/xmlschemas/TrackPointExtension/v1">
            <gpxtpx:hr>147</gpxtpx:hr>
          </gpxtpx:TrackPointExtension>
        </extensions>
      </trkpt>
      <trkpt lat="46.09839" lon="6.25904">
        <ele>762.2</ele>
        <time>2021-03-02T12:39:12Z</time>
        <extensions>
          <gpxtpx:TrackPointExtension xmlns:gpxtpx="http://www.garmin.com/xmlschemas/TrackPointExtension/v1">
            <gpxtpx:hr>147</gpxtpx:hr>
          </gpxtpx:TrackPointExtension>
        </extensions>
      </trkpt>
      <trkpt lat="46.09839" lon="6.259">
        <ele>762.4</ele>
        <time>2021-03-02T12:39:13Z</time>
        <extensions>
          <gpxtpx:TrackPointExtension xmlns:gpxtpx="http://www.garmin.com/xmlschemas/TrackPointExtension/v1">
            <gpxtpx:hr>147</gpxtpx:hr>
          </gpxtpx:TrackPointExtension>
        </extensions>
      </trkpt>
      <trkpt lat="46.09838" lon="6.25896">
        <ele>762.7</ele>
        <time>2021-03-02T12:39:14Z</time>
        <extensions>
          <gpxtpx:TrackPointExtension xmlns:gpxtpx="http://www.garmin.com/xmlschemas/TrackPointExtension/v1">
            <gpxtpx:hr>147</gpxtpx:hr>
          </gpxtpx:TrackPointExtension>
        </extensions>
      </trkpt>
      <trkpt lat="46.09837" lon="6.25893">
        <ele>762.9</ele>
        <time>2021-03-02T12:39:15Z</time>
        <extensions>
          <gpxtpx:TrackPointExtension xmlns:gpxtpx="http://www.garmin.com/xmlschemas/TrackPointExtension/v1">
            <gpxtpx:hr>147</gpxtpx:hr>
          </gpxtpx:TrackPointExtension>
        </extensions>
      </trkpt>
      <trkpt lat="46.09836" lon="6.25889">
        <ele>763.2</ele>
        <time>2021-03-02T12:39:16Z</time>
        <extensions>
          <gpxtpx:TrackPointExtension xmlns:gpxtpx="http://www.garmin.com/xmlschemas/TrackPointExtension/v1">
            <gpxtpx:hr>148</gpxtpx:hr>
          </gpxtpx:TrackPointExtension>
        </extensions>
      </trkpt>
      <trkpt lat="46.09835" lon="6.25886">
        <ele>763.4</ele>
        <time>2021-03-02T12:39:17Z</time>
        <extensions>
          <gpxtpx:TrackPointExtension xmlns:gpxtpx="http://www.garmin.com/xmlschemas/TrackPointExtension/v1">
            <gpxtpx:hr>148</gpxtpx:hr>
          </gpxtpx:TrackPointExtension>
        </extensions>
      </trkpt>
      <trkpt lat="46.09834" lon="6.25883">
        <ele>763.6</ele>
        <time>2021-03-02T12:39:18Z</time>
        <extensions>
          <gpxtpx:TrackPointExtension xmlns:gpxtpx="http://www.garmin.com/xmlschemas/TrackPointExtension/v1">
            <gpxtpx:hr>148</gpxtpx:hr>
          </gpxtpx:TrackPointExtension>
        </extensions>
      </trkpt>
      <trkpt lat="46.09832" lon="6.25881">
        <ele>763.9</ele>
        <time>2021-03-02T12:39:19Z</time>
        <extensions>
          <gpxtpx:TrackPointExtension xmlns:gpxtpx="http://www.garmin.com/xmlschemas/TrackPointExtension/v1">
            <gpxtpx:hr>148</gpxtpx:hr>
          </gpxtpx:TrackPointExtension>
        </extensions>
      </trkpt>
      <trkpt lat="46.09831" lon="6.25878">
        <ele>764.1</ele>
        <time>2021-03-02T12:39:20Z</time>
        <extensions>
          <gpxtpx:TrackPointExtension xmlns:gpxtpx="http://www.garmin.com/xmlschemas/TrackPointExtension/v1">
            <gpxtpx:hr>148</gpxtpx:hr>
          </gpxtpx:TrackPointExtension>
        </extensions>
      </trkpt>
      <trkpt lat="46.09829" lon="6.25876">
        <ele>764.3</ele>
        <time>2021-03-02T12:39:21Z</time>
        <extensions>
          <gpxtpx:TrackPointExtension xmlns:gpxtpx="http://www.garmin.com/xmlschemas/TrackPointExtension/v1">
            <gpxtpx:hr>148</gpxtpx:hr>
          </gpxtpx:TrackPointExtension>
        </extensions>
      </trkpt>
      <trkpt lat="46.09827" lon="6.25874">
        <ele>764.5</ele>
        <time>2021-03-02T12:39:22Z</time>
        <extensions>
          <gpxtpx:TrackPointExtension xmlns:gpxtpx="http://www.garmin.com/xmlschemas/TrackPointExtension/v1">
            <gpxtpx:hr>149</gpxtpx:hr>
          </gpxtpx:TrackPointExtension>
        </extensions>
      </trkpt>
      <trkpt lat="46.09824" lon="6.25873">
        <ele>764.7</ele>
        <time>2021-03-02T12:39:23Z</time>
        <extensions>
          <gpxtpx:TrackPointExtension xmlns:gpxtpx="http://www.garmin.com/xmlschemas/TrackPointExtension/v1">
            <gpxtpx:hr>149</gpxtpx:hr>
          </gpxtpx:TrackPointExtension>
        </extensions>
      </trkpt>
      <trkpt lat="46.09822" lon="6.25872">
        <ele>764.9</ele>
        <time>2021-03-02T12:39:24Z</time>
        <extensions>
          <gpxtpx:TrackPointExtension xmlns:gpxtpx="http://www.garmin.com/xmlschemas/TrackPointExtension/v1">
            <gpxtpx:hr>149</gpxtpx:hr>
          </gpxtpx:TrackPointExtension>
        </extensions>
      </trkpt>
      <trkpt lat="46.0982" lon="6.25872">
        <ele>765.1</ele>
        <time>2021-03-02T12:39:25Z</time>
        <extensions>
          <gpxtpx:TrackPointExtension xmlns:gpxtpx="http://www.garmin.com/xmlschemas/TrackPointExtension/v1">
            <gpxtpx:hr>150</gpxtpx:hr>
          </gpxtpx:TrackPointExtension>
        </extensions>
      </trkpt>
      <trkpt lat="46.09817" lon="6.25872">
        <ele>765.3</ele>
        <time>2021-03-02T12:39:26Z</time>
        <extensions>
          <gpxtpx:TrackPointExtension xmlns:gpxtpx="http://www.garmin.com/xmlschemas/TrackPointExtension/v1">
            <gpxtpx:hr>150</gpxtpx:hr>
          </gpxtpx:TrackPointExtension>
        </extensions>
      </trkpt>
      <trkpt lat="46.09815" lon="6.25872">
        <ele>765.6</ele>
        <time>2021-03-02T12:39:27Z</time>
        <extensions>
          <gpxtpx:TrackPointExtension xmlns:gpxtpx="http://www.garmin.com/xmlschemas/TrackPointExtension/v1">
            <gpxtpx:hr>150</gpxtpx:hr>
          </gpxtpx:TrackPointExtension>
        </extensions>
      </trkpt>
      <trkpt lat="46.09812" lon="6.25872">
        <ele>765.8</ele>
        <time>2021-03-02T12:39:28Z</time>
        <extensions>
          <gpxtpx:TrackPointExtension xmlns:gpxtpx="http://www.garmin.com/xmlschemas/TrackPointExtension/v1">
            <gpxtpx:hr>150</gpxtpx:hr>
          </gpxtpx:TrackPointExtension>
        </extensions>
      </trkpt>
      <trkpt lat="46.0981" lon="6.25873">
        <ele>766</ele>
        <time>2021-03-02T12:39:29Z</time>
        <extensions>
          <gpxtpx:TrackPointExtension xmlns:gpxtpx="http://www.garmin.com/xmlschemas/TrackPointExtension/v1">
            <gpxtpx:hr>150</gpxtpx:hr>
          </gpxtpx:TrackPointExtension>
        </extensions>
      </trkpt>
      <trkpt lat="46.09807" lon="6.25873">
        <ele>766.3</ele>
        <time>2021-03-02T12:39:30Z</time>
        <extensions>
          <gpxtpx:TrackPointExtension xmlns:gpxtpx="http://www.garmin.com/xmlschemas/TrackPointExtension/v1">
            <gpxtpx:hr>151</gpxtpx:hr>
          </gpxtpx:TrackPointExtension>
        </extensions>
      </trkpt>
      <trkpt lat="46.09805" lon="6.25874">
        <ele>766.5</ele>
        <time>2021-03-02T12:39:31Z</time>
        <extensions>
          <gpxtpx:TrackPointExtension xmlns:gpxtpx="http://www.garmin.com/xmlschemas/TrackPointExtension/v1">
            <gpxtpx:hr>151</gpxtpx:hr>
          </gpxtpx:TrackPointExtension>
        </extensions>
      </trkpt>
      <trkpt lat="46.09802" lon="6.25875">
        <ele>766.8</ele>
        <time>2021-03-02T12:39:32Z</time>
        <extensions>
          <gpxtpx:TrackPointExtension xmlns:gpxtpx="http://www.garmin.com/xmlschemas/TrackPointExtension/v1">
            <gpxtpx:hr>151</gpxtpx:hr>
          </gpxtpx:TrackPointExtension>
        </extensions>
      </trkpt>
      <trkpt lat="46.098" lon="6.25877">
        <ele>767</ele>
        <time>2021-03-02T12:39:33Z</time>
        <extensions>
          <gpxtpx:TrackPointExtension xmlns:gpxtpx="http://www.garmin.com/xmlschemas/TrackPointExtension/v1">
            <gpxtpx:hr>151</gpxtpx:hr>
          </gpxtpx:TrackPointExtension>
        </extensions>
      </trkpt>
      <trkpt lat="46.09797" lon="6.25878">
        <ele>767.3</ele>
        <time>2021-03-02T12:39:34Z</time>
        <extensions>
          <gpxtpx:TrackPointExtension xmlns:gpxtpx="http://www.garmin.com/xmlschemas/TrackPointExtension/v1">
            <gpxtpx:hr>151</gpxtpx:hr>
          </gpxtpx:TrackPointExtension>
        </extensions>
      </trkpt>
      <trkpt lat="46.09795" lon="6.25879">
        <ele>767.5</ele>
        <time>2021-03-02T12:39:35Z</time>
        <extensions>
          <gpxtpx:TrackPointExtension xmlns:gpxtpx="http://www.garmin.com/xmlschemas/TrackPointExtension/v1">
            <gpxtpx:hr>151</gpxtpx:hr>
          </gpxtpx:TrackPointExtension>
        </extensions>
      </trkpt>
      <trkpt lat="46.09793" lon="6.25881">
        <ele>767.8</ele>
        <time>2021-03-02T12:39:36Z</time>
        <extensions>
          <gpxtpx:TrackPointExtension xmlns:gpxtpx="http://www.garmin.com/xmlschemas/TrackPointExtension/v1">
            <gpxtpx:hr>151</gpxtpx:hr>
          </gpxtpx:TrackPointExtension>
        </extensions>
      </trkpt>
      <trkpt lat="46.0979" lon="6.25883">
        <ele>768</ele>
        <time>2021-03-02T12:39:37Z</time>
        <extensions>
          <gpxtpx:TrackPointExtension xmlns:gpxtpx="http://www.garmin.com/xmlschemas/TrackPointExtension/v1">
            <gpxtpx:hr>151</gpxtpx:hr>
          </gpxtpx:TrackPointExtension>
        </extensions>
      </trkpt>
      <trkpt lat="46.09788" lon="6.25884">
        <ele>768.3</ele>
        <time>2021-03-02T12:39:38Z</time>
        <extensions>
          <gpxtpx:TrackPointExtension xmlns:gpxtpx="http://www.garmin.com/xmlschemas/TrackPointExtension/v1">
            <gpxtpx:hr>151</gpxtpx:hr>
          </gpxtpx:TrackPointExtension>
        </extensions>
      </trkpt>
      <trkpt lat="46.09786" lon="6.25885">
        <ele>768.5</ele>
        <time>2021-03-02T12:39:39Z</time>
        <extensions>
          <gpxtpx:TrackPointExtension xmlns:gpxtpx="http://www.garmin.com/xmlschemas/TrackPointExtension/v1">
            <gpxtpx:hr>151</gpxtpx:hr>
          </gpxtpx:TrackPointExtension>
        </extensions>
      </trkpt>
      <trkpt lat="46.09783" lon="6.25887">
        <ele>768.7</ele>
        <time>2021-03-02T12:39:40Z</time>
        <extensions>
          <gpxtpx:TrackPointExtension xmlns:gpxtpx="http://www.garmin.com/xmlschemas/TrackPointExtension/v1">
            <gpxtpx:hr>151</gpxtpx:hr>
          </gpxtpx:TrackPointExtension>
        </extensions>
      </trkpt>
      <trkpt lat="46.09781" lon="6.25888">
        <ele>769</ele>
        <time>2021-03-02T12:39:41Z</time>
        <extensions>
          <gpxtpx:TrackPointExtension xmlns:gpxtpx="http://www.garmin.com/xmlschemas/TrackPointExtension/v1">
            <gpxtpx:hr>151</gpxtpx:hr>
          </gpxtpx:TrackPointExtension>
        </extensions>
      </trkpt>
      <trkpt lat="46.09779" lon="6.2589">
        <ele>769.2</ele>
        <time>2021-03-02T12:39:42Z</time>
        <extensions>
          <gpxtpx:TrackPointExtension xmlns:gpxtpx="http://www.garmin.com/xmlschemas/TrackPointExtension/v1">
            <gpxtpx:hr>150</gpxtpx:hr>
          </gpxtpx:TrackPointExtension>
        </extensions>
      </trkpt>
      <trkpt lat="46.09777" lon="6.25891">
        <ele>769.5</ele>
        <time>2021-03-02T12:39:43Z</time>
        <extensions>
          <gpxtpx:TrackPointExtension xmlns:gpxtpx="http://www.garmin.com/xmlschemas/TrackPointExtension/v1">
            <gpxtpx:hr>150</gpxtpx:hr>
          </gpxtpx:TrackPointExtension>
        </extensions>
      </trkpt>
      <trkpt lat="46.09774" lon="6.25893">
        <ele>769.7</ele>
        <time>2021-03-02T12:39:44Z</time>
        <extensions>
          <gpxtpx:TrackPointExtension xmlns:gpxtpx="http://www.garmin.com/xmlschemas/TrackPointExtension/v1">
            <gpxtpx:hr>150</gpxtpx:hr>
          </gpxtpx:TrackPointExtension>
        </extensions>
      </trkpt>
      <trkpt lat="46.09772" lon="6.25894">
        <ele>769.9</ele>
        <time>2021-03-02T12:39:45Z</time>
        <extensions>
          <gpxtpx:TrackPointExtension xmlns:gpxtpx="http://www.garmin.com/xmlschemas/TrackPointExtension/v1">
            <gpxtpx:hr>150</gpxtpx:hr>
          </gpxtpx:TrackPointExtension>
        </extensions>
      </trkpt>
      <trkpt lat="46.0977" lon="6.25895">
        <ele>770.2</ele>
        <time>2021-03-02T12:39:46Z</time>
        <extensions>
          <gpxtpx:TrackPointExtension xmlns:gpxtpx="http://www.garmin.com/xmlschemas/TrackPointExtension/v1">
            <gpxtpx:hr>150</gpxtpx:hr>
          </gpxtpx:TrackPointExtension>
        </extensions>
      </trkpt>
      <trkpt lat="46.09767" lon="6.25897">
        <ele>770.4</ele>
        <time>2021-03-02T12:39:47Z</time>
        <extensions>
          <gpxtpx:TrackPointExtension xmlns:gpxtpx="http://www.garmin.com/xmlschemas/TrackPointExtension/v1">
            <gpxtpx:hr>151</gpxtpx:hr>
          </gpxtpx:TrackPointExtension>
        </extensions>
      </trkpt>
      <trkpt lat="46.09765" lon="6.25898">
        <ele>770.7</ele>
        <time>2021-03-02T12:39:48Z</time>
        <extensions>
          <gpxtpx:TrackPointExtension xmlns:gpxtpx="http://www.garmin.com/xmlschemas/TrackPointExtension/v1">
            <gpxtpx:hr>151</gpxtpx:hr>
          </gpxtpx:TrackPointExtension>
        </extensions>
      </trkpt>
      <trkpt lat="46.09762" lon="6.25899">
        <ele>770.9</ele>
        <time>2021-03-02T12:39:49Z</time>
        <extensions>
          <gpxtpx:TrackPointExtension xmlns:gpxtpx="http://www.garmin.com/xmlschemas/TrackPointExtension/v1">
            <gpxtpx:hr>151</gpxtpx:hr>
          </gpxtpx:TrackPointExtension>
        </extensions>
      </trkpt>
      <trkpt lat="46.0976" lon="6.259">
        <ele>771.2</ele>
        <time>2021-03-02T12:39:50Z</time>
        <extensions>
          <gpxtpx:TrackPointExtension xmlns:gpxtpx="http://www.garmin.com/xmlschemas/TrackPointExtension/v1">
            <gpxtpx:hr>152</gpxtpx:hr>
          </gpxtpx:TrackPointExtension>
        </extensions>
      </trkpt>
      <trkpt lat="46.09757" lon="6.25901">
        <ele>771.4</ele>
        <time>2021-03-02T12:39:51Z</time>
        <extensions>
          <gpxtpx:TrackPointExtension xmlns:gpxtpx="http://www.garmin.com/xmlschemas/TrackPointExtension/v1">
            <gpxtpx:hr>152</gpxtpx:hr>
          </gpxtpx:TrackPointExtension>
        </extensions>
      </trkpt>
      <trkpt lat="46.09755" lon="6.25902">
        <ele>771.7</ele>
        <time>2021-03-02T12:39:52Z</time>
        <extensions>
          <gpxtpx:TrackPointExtension xmlns:gpxtpx="http://www.garmin.com/xmlschemas/TrackPointExtension/v1">
            <gpxtpx:hr>152</gpxtpx:hr>
          </gpxtpx:TrackPointExtension>
        </extensions>
      </trkpt>
      <trkpt lat="46.09752" lon="6.25902">
        <ele>771.9</ele>
        <time>2021-03-02T12:39:53Z</time>
        <extensions>
          <gpxtpx:TrackPointExtension xmlns:gpxtpx="http://www.garmin.com/xmlschemas/TrackPointExtension/v1">
            <gpxtpx:hr>153</gpxtpx:hr>
          </gpxtpx:TrackPointExtension>
        </extensions>
      </trkpt>
      <trkpt lat="46.0975" lon="6.25903">
        <ele>772.2</ele>
        <time>2021-03-02T12:39:54Z</time>
        <extensions>
          <gpxtpx:TrackPointExtension xmlns:gpxtpx="http://www.garmin.com/xmlschemas/TrackPointExtension/v1">
            <gpxtpx:hr>152</gpxtpx:hr>
          </gpxtpx:TrackPointExtension>
        </extensions>
      </trkpt>
      <trkpt lat="46.09747" lon="6.25903">
        <ele>772.4</ele>
        <time>2021-03-02T12:39:55Z</time>
        <extensions>
          <gpxtpx:TrackPointExtension xmlns:gpxtpx="http://www.garmin.com/xmlschemas/TrackPointExtension/v1">
            <gpxtpx:hr>152</gpxtpx:hr>
          </gpxtpx:TrackPointExtension>
        </extensions>
      </trkpt>
      <trkpt lat="46.09745" lon="6.25903">
        <ele>772.7</ele>
        <time>2021-03-02T12:39:56Z</time>
        <extensions>
          <gpxtpx:TrackPointExtension xmlns:gpxtpx="http://www.garmin.com/xmlschemas/TrackPointExtension/v1">
            <gpxtpx:hr>152</gpxtpx:hr>
          </gpxtpx:TrackPointExtension>
        </extensions>
      </trkpt>
      <trkpt lat="46.09742" lon="6.25903">
        <ele>772.9</ele>
        <time>2021-03-02T12:39:57Z</time>
        <extensions>
          <gpxtpx:TrackPointExtension xmlns:gpxtpx="http://www.garmin.com/xmlschemas/TrackPointExtension/v1">
            <gpxtpx:hr>152</gpxtpx:hr>
          </gpxtpx:TrackPointExtension>
        </extensions>
      </trkpt>
      <trkpt lat="46.0974" lon="6.25902">
        <ele>773.2</ele>
        <time>2021-03-02T12:39:58Z</time>
        <extensions>
          <gpxtpx:TrackPointExtension xmlns:gpxtpx="http://www.garmin.com/xmlschemas/TrackPointExtension/v1">
            <gpxtpx:hr>151</gpxtpx:hr>
          </gpxtpx:TrackPointExtension>
        </extensions>
      </trkpt>
      <trkpt lat="46.09737" lon="6.25901">
        <ele>773.4</ele>
        <time>2021-03-02T12:39:59Z</time>
        <extensions>
          <gpxtpx:TrackPointExtension xmlns:gpxtpx="http://www.garmin.com/xmlschemas/TrackPointExtension/v1">
            <gpxtpx:hr>151</gpxtpx:hr>
          </gpxtpx:TrackPointExtension>
        </extensions>
      </trkpt>
      <trkpt lat="46.09735" lon="6.259">
        <ele>773.7</ele>
        <time>2021-03-02T12:40:00Z</time>
        <extensions>
          <gpxtpx:TrackPointExtension xmlns:gpxtpx="http://www.garmin.com/xmlschemas/TrackPointExtension/v1">
            <gpxtpx:hr>150</gpxtpx:hr>
          </gpxtpx:TrackPointExtension>
        </extensions>
      </trkpt>
      <trkpt lat="46.09733" lon="6.25899">
        <ele>773.9</ele>
        <time>2021-03-02T12:40:01Z</time>
        <extensions>
          <gpxtpx:TrackPointExtension xmlns:gpxtpx="http://www.garmin.com/xmlschemas/TrackPointExtension/v1">
            <gpxtpx:hr>150</gpxtpx:hr>
          </gpxtpx:TrackPointExtension>
        </extensions>
      </trkpt>
      <trkpt lat="46.0973" lon="6.25897">
        <ele>774.1</ele>
        <time>2021-03-02T12:40:02Z</time>
        <extensions>
          <gpxtpx:TrackPointExtension xmlns:gpxtpx="http://www.garmin.com/xmlschemas/TrackPointExtension/v1">
            <gpxtpx:hr>150</gpxtpx:hr>
          </gpxtpx:TrackPointExtension>
        </extensions>
      </trkpt>
      <trkpt lat="46.09728" lon="6.25896">
        <ele>774.4</ele>
        <time>2021-03-02T12:40:03Z</time>
        <extensions>
          <gpxtpx:TrackPointExtension xmlns:gpxtpx="http://www.garmin.com/xmlschemas/TrackPointExtension/v1">
            <gpxtpx:hr>150</gpxtpx:hr>
          </gpxtpx:TrackPointExtension>
        </extensions>
      </trkpt>
      <trkpt lat="46.09726" lon="6.25894">
        <ele>774.7</ele>
        <time>2021-03-02T12:40:04Z</time>
        <extensions>
          <gpxtpx:TrackPointExtension xmlns:gpxtpx="http://www.garmin.com/xmlschemas/TrackPointExtension/v1">
            <gpxtpx:hr>150</gpxtpx:hr>
          </gpxtpx:TrackPointExtension>
        </extensions>
      </trkpt>
      <trkpt lat="46.09724" lon="6.25892">
        <ele>774.9</ele>
        <time>2021-03-02T12:40:05Z</time>
        <extensions>
          <gpxtpx:TrackPointExtension xmlns:gpxtpx="http://www.garmin.com/xmlschemas/TrackPointExtension/v1">
            <gpxtpx:hr>150</gpxtpx:hr>
          </gpxtpx:TrackPointExtension>
        </extensions>
      </trkpt>
      <trkpt lat="46.09722" lon="6.2589">
        <ele>775.2</ele>
        <time>2021-03-02T12:40:06Z</time>
        <extensions>
          <gpxtpx:TrackPointExtension xmlns:gpxtpx="http://www.garmin.com/xmlschemas/TrackPointExtension/v1">
            <gpxtpx:hr>151</gpxtpx:hr>
          </gpxtpx:TrackPointExtension>
        </extensions>
      </trkpt>
      <trkpt lat="46.0972" lon="6.25887">
        <ele>775.4</ele>
        <time>2021-03-02T12:40:07Z</time>
        <extensions>
          <gpxtpx:TrackPointExtension xmlns:gpxtpx="http://www.garmin.com/xmlschemas/TrackPointExtension/v1">
            <gpxtpx:hr>151</gpxtpx:hr>
          </gpxtpx:TrackPointExtension>
        </extensions>
      </trkpt>
      <trkpt lat="46.09718" lon="6.25885">
        <ele>775.7</ele>
        <time>2021-03-02T12:40:08Z</time>
        <extensions>
          <gpxtpx:TrackPointExtension xmlns:gpxtpx="http://www.garmin.com/xmlschemas/TrackPointExtension/v1">
            <gpxtpx:hr>151</gpxtpx:hr>
          </gpxtpx:TrackPointExtension>
        </extensions>
      </trkpt>
      <trkpt lat="46.09716" lon="6.25882">
        <ele>776</ele>
        <time>2021-03-02T12:40:09Z</time>
        <extensions>
          <gpxtpx:TrackPointExtension xmlns:gpxtpx="http://www.garmin.com/xmlschemas/TrackPointExtension/v1">
            <gpxtpx:hr>151</gpxtpx:hr>
          </gpxtpx:TrackPointExtension>
        </extensions>
      </trkpt>
      <trkpt lat="46.09715" lon="6.25879">
        <ele>776.2</ele>
        <time>2021-03-02T12:40:10Z</time>
        <extensions>
          <gpxtpx:TrackPointExtension xmlns:gpxtpx="http://www.garmin.com/xmlschemas/TrackPointExtension/v1">
            <gpxtpx:hr>151</gpxtpx:hr>
          </gpxtpx:TrackPointExtension>
        </extensions>
      </trkpt>
      <trkpt lat="46.09713" lon="6.25877">
        <ele>776.5</ele>
        <time>2021-03-02T12:40:11Z</time>
        <extensions>
          <gpxtpx:TrackPointExtension xmlns:gpxtpx="http://www.garmin.com/xmlschemas/TrackPointExtension/v1">
            <gpxtpx:hr>151</gpxtpx:hr>
          </gpxtpx:TrackPointExtension>
        </extensions>
      </trkpt>
      <trkpt lat="46.09711" lon="6.25874">
        <ele>776.7</ele>
        <time>2021-03-02T12:40:12Z</time>
        <extensions>
          <gpxtpx:TrackPointExtension xmlns:gpxtpx="http://www.garmin.com/xmlschemas/TrackPointExtension/v1">
            <gpxtpx:hr>151</gpxtpx:hr>
          </gpxtpx:TrackPointExtension>
        </extensions>
      </trkpt>
      <trkpt lat="46.0971" lon="6.25871">
        <ele>777</ele>
        <time>2021-03-02T12:40:13Z</time>
        <extensions>
          <gpxtpx:TrackPointExtension xmlns:gpxtpx="http://www.garmin.com/xmlschemas/TrackPointExtension/v1">
            <gpxtpx:hr>152</gpxtpx:hr>
          </gpxtpx:TrackPointExtension>
        </extensions>
      </trkpt>
      <trkpt lat="46.09708" lon="6.25868">
        <ele>777.3</ele>
        <time>2021-03-02T12:40:14Z</time>
        <extensions>
          <gpxtpx:TrackPointExtension xmlns:gpxtpx="http://www.garmin.com/xmlschemas/TrackPointExtension/v1">
            <gpxtpx:hr>152</gpxtpx:hr>
          </gpxtpx:TrackPointExtension>
        </extensions>
      </trkpt>
      <trkpt lat="46.09707" lon="6.25865">
        <ele>777.5</ele>
        <time>2021-03-02T12:40:15Z</time>
        <extensions>
          <gpxtpx:TrackPointExtension xmlns:gpxtpx="http://www.garmin.com/xmlschemas/TrackPointExtension/v1">
            <gpxtpx:hr>151</gpxtpx:hr>
          </gpxtpx:TrackPointExtension>
        </extensions>
      </trkpt>
      <trkpt lat="46.09706" lon="6.25863">
        <ele>777.8</ele>
        <time>2021-03-02T12:40:16Z</time>
        <extensions>
          <gpxtpx:TrackPointExtension xmlns:gpxtpx="http://www.garmin.com/xmlschemas/TrackPointExtension/v1">
            <gpxtpx:hr>151</gpxtpx:hr>
          </gpxtpx:TrackPointExtension>
        </extensions>
      </trkpt>
      <trkpt lat="46.09704" lon="6.2586">
        <ele>778</ele>
        <time>2021-03-02T12:40:17Z</time>
        <extensions>
          <gpxtpx:TrackPointExtension xmlns:gpxtpx="http://www.garmin.com/xmlschemas/TrackPointExtension/v1">
            <gpxtpx:hr>151</gpxtpx:hr>
          </gpxtpx:TrackPointExtension>
        </extensions>
      </trkpt>
      <trkpt lat="46.09703" lon="6.25857">
        <ele>778.3</ele>
        <time>2021-03-02T12:40:18Z</time>
        <extensions>
          <gpxtpx:TrackPointExtension xmlns:gpxtpx="http://www.garmin.com/xmlschemas/TrackPointExtension/v1">
            <gpxtpx:hr>151</gpxtpx:hr>
          </gpxtpx:TrackPointExtension>
        </extensions>
      </trkpt>
      <trkpt lat="46.09701" lon="6.25854">
        <ele>778.6</ele>
        <time>2021-03-02T12:40:19Z</time>
        <extensions>
          <gpxtpx:TrackPointExtension xmlns:gpxtpx="http://www.garmin.com/xmlschemas/TrackPointExtension/v1">
            <gpxtpx:hr>151</gpxtpx:hr>
          </gpxtpx:TrackPointExtension>
        </extensions>
      </trkpt>
      <trkpt lat="46.097" lon="6.25851">
        <ele>778.8</ele>
        <time>2021-03-02T12:40:20Z</time>
        <extensions>
          <gpxtpx:TrackPointExtension xmlns:gpxtpx="http://www.garmin.com/xmlschemas/TrackPointExtension/v1">
            <gpxtpx:hr>151</gpxtpx:hr>
          </gpxtpx:TrackPointExtension>
        </extensions>
      </trkpt>
      <trkpt lat="46.09698" lon="6.25848">
        <ele>779.1</ele>
        <time>2021-03-02T12:40:21Z</time>
        <extensions>
          <gpxtpx:TrackPointExtension xmlns:gpxtpx="http://www.garmin.com/xmlschemas/TrackPointExtension/v1">
            <gpxtpx:hr>151</gpxtpx:hr>
          </gpxtpx:TrackPointExtension>
        </extensions>
      </trkpt>
      <trkpt lat="46.09697" lon="6.25845">
        <ele>779.4</ele>
        <time>2021-03-02T12:40:22Z</time>
        <extensions>
          <gpxtpx:TrackPointExtension xmlns:gpxtpx="http://www.garmin.com/xmlschemas/TrackPointExtension/v1">
            <gpxtpx:hr>151</gpxtpx:hr>
          </gpxtpx:TrackPointExtension>
        </extensions>
      </trkpt>
      <trkpt lat="46.09695" lon="6.25842">
        <ele>779.6</ele>
        <time>2021-03-02T12:40:23Z</time>
        <extensions>
          <gpxtpx:TrackPointExtension xmlns:gpxtpx="http://www.garmin.com/xmlschemas/TrackPointExtension/v1">
            <gpxtpx:hr>152</gpxtpx:hr>
          </gpxtpx:TrackPointExtension>
        </extensions>
      </trkpt>
      <trkpt lat="46.09694" lon="6.25839">
        <ele>779.9</ele>
        <time>2021-03-02T12:40:24Z</time>
        <extensions>
          <gpxtpx:TrackPointExtension xmlns:gpxtpx="http://www.garmin.com/xmlschemas/TrackPointExtension/v1">
            <gpxtpx:hr>152</gpxtpx:hr>
          </gpxtpx:TrackPointExtension>
        </extensions>
      </trkpt>
      <trkpt lat="46.09693" lon="6.25837">
        <ele>780.1</ele>
        <time>2021-03-02T12:40:25Z</time>
        <extensions>
          <gpxtpx:TrackPointExtension xmlns:gpxtpx="http://www.garmin.com/xmlschemas/TrackPointExtension/v1">
            <gpxtpx:hr>152</gpxtpx:hr>
          </gpxtpx:TrackPointExtension>
        </extensions>
      </trkpt>
      <trkpt lat="46.09691" lon="6.25834">
        <ele>780.4</ele>
        <time>2021-03-02T12:40:26Z</time>
        <extensions>
          <gpxtpx:TrackPointExtension xmlns:gpxtpx="http://www.garmin.com/xmlschemas/TrackPointExtension/v1">
            <gpxtpx:hr>152</gpxtpx:hr>
          </gpxtpx:TrackPointExtension>
        </extensions>
      </trkpt>
      <trkpt lat="46.0969" lon="6.25831">
        <ele>780.6</ele>
        <time>2021-03-02T12:40:27Z</time>
        <extensions>
          <gpxtpx:TrackPointExtension xmlns:gpxtpx="http://www.garmin.com/xmlschemas/TrackPointExtension/v1">
            <gpxtpx:hr>152</gpxtpx:hr>
          </gpxtpx:TrackPointExtension>
        </extensions>
      </trkpt>
      <trkpt lat="46.09688" lon="6.25828">
        <ele>780.9</ele>
        <time>2021-03-02T12:40:28Z</time>
        <extensions>
          <gpxtpx:TrackPointExtension xmlns:gpxtpx="http://www.garmin.com/xmlschemas/TrackPointExtension/v1">
            <gpxtpx:hr>153</gpxtpx:hr>
          </gpxtpx:TrackPointExtension>
        </extensions>
      </trkpt>
      <trkpt lat="46.09687" lon="6.25825">
        <ele>781.2</ele>
        <time>2021-03-02T12:40:29Z</time>
        <extensions>
          <gpxtpx:TrackPointExtension xmlns:gpxtpx="http://www.garmin.com/xmlschemas/TrackPointExtension/v1">
            <gpxtpx:hr>153</gpxtpx:hr>
          </gpxtpx:TrackPointExtension>
        </extensions>
      </trkpt>
      <trkpt lat="46.09685" lon="6.25822">
        <ele>781.4</ele>
        <time>2021-03-02T12:40:30Z</time>
        <extensions>
          <gpxtpx:TrackPointExtension xmlns:gpxtpx="http://www.garmin.com/xmlschemas/TrackPointExtension/v1">
            <gpxtpx:hr>153</gpxtpx:hr>
          </gpxtpx:TrackPointExtension>
        </extensions>
      </trkpt>
      <trkpt lat="46.09684" lon="6.25819">
        <ele>781.7</ele>
        <time>2021-03-02T12:40:31Z</time>
        <extensions>
          <gpxtpx:TrackPointExtension xmlns:gpxtpx="http://www.garmin.com/xmlschemas/TrackPointExtension/v1">
            <gpxtpx:hr>153</gpxtpx:hr>
          </gpxtpx:TrackPointExtension>
        </extensions>
      </trkpt>
      <trkpt lat="46.09682" lon="6.25817">
        <ele>781.9</ele>
        <time>2021-03-02T12:40:32Z</time>
        <extensions>
          <gpxtpx:TrackPointExtension xmlns:gpxtpx="http://www.garmin.com/xmlschemas/TrackPointExtension/v1">
            <gpxtpx:hr>154</gpxtpx:hr>
          </gpxtpx:TrackPointExtension>
        </extensions>
      </trkpt>
      <trkpt lat="46.09681" lon="6.25814">
        <ele>782.2</ele>
        <time>2021-03-02T12:40:33Z</time>
        <extensions>
          <gpxtpx:TrackPointExtension xmlns:gpxtpx="http://www.garmin.com/xmlschemas/TrackPointExtension/v1">
            <gpxtpx:hr>154</gpxtpx:hr>
          </gpxtpx:TrackPointExtension>
        </extensions>
      </trkpt>
      <trkpt lat="46.09679" lon="6.25811">
        <ele>782.5</ele>
        <time>2021-03-02T12:40:34Z</time>
        <extensions>
          <gpxtpx:TrackPointExtension xmlns:gpxtpx="http://www.garmin.com/xmlschemas/TrackPointExtension/v1">
            <gpxtpx:hr>154</gpxtpx:hr>
          </gpxtpx:TrackPointExtension>
        </extensions>
      </trkpt>
      <trkpt lat="46.09678" lon="6.25808">
        <ele>782.7</ele>
        <time>2021-03-02T12:40:35Z</time>
        <extensions>
          <gpxtpx:TrackPointExtension xmlns:gpxtpx="http://www.garmin.com/xmlschemas/TrackPointExtension/v1">
            <gpxtpx:hr>154</gpxtpx:hr>
          </gpxtpx:TrackPointExtension>
        </extensions>
      </trkpt>
      <trkpt lat="46.09676" lon="6.25805">
        <ele>783</ele>
        <time>2021-03-02T12:40:36Z</time>
        <extensions>
          <gpxtpx:TrackPointExtension xmlns:gpxtpx="http://www.garmin.com/xmlschemas/TrackPointExtension/v1">
            <gpxtpx:hr>155</gpxtpx:hr>
          </gpxtpx:TrackPointExtension>
        </extensions>
      </trkpt>
      <trkpt lat="46.09675" lon="6.25803">
        <ele>783.3</ele>
        <time>2021-03-02T12:40:37Z</time>
        <extensions>
          <gpxtpx:TrackPointExtension xmlns:gpxtpx="http://www.garmin.com/xmlschemas/TrackPointExtension/v1">
            <gpxtpx:hr>155</gpxtpx:hr>
          </gpxtpx:TrackPointExtension>
        </extensions>
      </trkpt>
      <trkpt lat="46.09673" lon="6.258">
        <ele>783.5</ele>
        <time>2021-03-02T12:40:38Z</time>
        <extensions>
          <gpxtpx:TrackPointExtension xmlns:gpxtpx="http://www.garmin.com/xmlschemas/TrackPointExtension/v1">
            <gpxtpx:hr>155</gpxtpx:hr>
          </gpxtpx:TrackPointExtension>
        </extensions>
      </trkpt>
      <trkpt lat="46.09672" lon="6.25797">
        <ele>783.8</ele>
        <time>2021-03-02T12:40:39Z</time>
        <extensions>
          <gpxtpx:TrackPointExtension xmlns:gpxtpx="http://www.garmin.com/xmlschemas/TrackPointExtension/v1">
            <gpxtpx:hr>155</gpxtpx:hr>
          </gpxtpx:TrackPointExtension>
        </extensions>
      </trkpt>
      <trkpt lat="46.0967" lon="6.25794">
        <ele>784.1</ele>
        <time>2021-03-02T12:40:40Z</time>
        <extensions>
          <gpxtpx:TrackPointExtension xmlns:gpxtpx="http://www.garmin.com/xmlschemas/TrackPointExtension/v1">
            <gpxtpx:hr>155</gpxtpx:hr>
          </gpxtpx:TrackPointExtension>
        </extensions>
      </trkpt>
      <trkpt lat="46.09669" lon="6.25791">
        <ele>784.5</ele>
        <time>2021-03-02T12:40:41Z</time>
        <extensions>
          <gpxtpx:TrackPointExtension xmlns:gpxtpx="http://www.garmin.com/xmlschemas/TrackPointExtension/v1">
            <gpxtpx:hr>156</gpxtpx:hr>
          </gpxtpx:TrackPointExtension>
        </extensions>
      </trkpt>
      <trkpt lat="46.09667" lon="6.25789">
        <ele>784.7</ele>
        <time>2021-03-02T12:40:42Z</time>
        <extensions>
          <gpxtpx:TrackPointExtension xmlns:gpxtpx="http://www.garmin.com/xmlschemas/TrackPointExtension/v1">
            <gpxtpx:hr>156</gpxtpx:hr>
          </gpxtpx:TrackPointExtension>
        </extensions>
      </trkpt>
      <trkpt lat="46.09666" lon="6.25786">
        <ele>785</ele>
        <time>2021-03-02T12:40:43Z</time>
        <extensions>
          <gpxtpx:TrackPointExtension xmlns:gpxtpx="http://www.garmin.com/xmlschemas/TrackPointExtension/v1">
            <gpxtpx:hr>156</gpxtpx:hr>
          </gpxtpx:TrackPointExtension>
        </extensions>
      </trkpt>
      <trkpt lat="46.09664" lon="6.25783">
        <ele>785.3</ele>
        <time>2021-03-02T12:40:44Z</time>
        <extensions>
          <gpxtpx:TrackPointExtension xmlns:gpxtpx="http://www.garmin.com/xmlschemas/TrackPointExtension/v1">
            <gpxtpx:hr>156</gpxtpx:hr>
          </gpxtpx:TrackPointExtension>
        </extensions>
      </trkpt>
      <trkpt lat="46.09663" lon="6.2578">
        <ele>785.6</ele>
        <time>2021-03-02T12:40:45Z</time>
        <extensions>
          <gpxtpx:TrackPointExtension xmlns:gpxtpx="http://www.garmin.com/xmlschemas/TrackPointExtension/v1">
            <gpxtpx:hr>156</gpxtpx:hr>
          </gpxtpx:TrackPointExtension>
        </extensions>
      </trkpt>
      <trkpt lat="46.09661" lon="6.25777">
        <ele>785.8</ele>
        <time>2021-03-02T12:40:46Z</time>
        <extensions>
          <gpxtpx:TrackPointExtension xmlns:gpxtpx="http://www.garmin.com/xmlschemas/TrackPointExtension/v1">
            <gpxtpx:hr>156</gpxtpx:hr>
          </gpxtpx:TrackPointExtension>
        </extensions>
      </trkpt>
      <trkpt lat="46.0966" lon="6.25774">
        <ele>786.1</ele>
        <time>2021-03-02T12:40:47Z</time>
        <extensions>
          <gpxtpx:TrackPointExtension xmlns:gpxtpx="http://www.garmin.com/xmlschemas/TrackPointExtension/v1">
            <gpxtpx:hr>156</gpxtpx:hr>
          </gpxtpx:TrackPointExtension>
        </extensions>
      </trkpt>
      <trkpt lat="46.09658" lon="6.25771">
        <ele>786.4</ele>
        <time>2021-03-02T12:40:48Z</time>
        <extensions>
          <gpxtpx:TrackPointExtension xmlns:gpxtpx="http://www.garmin.com/xmlschemas/TrackPointExtension/v1">
            <gpxtpx:hr>156</gpxtpx:hr>
          </gpxtpx:TrackPointExtension>
        </extensions>
      </trkpt>
      <trkpt lat="46.09657" lon="6.25769">
        <ele>786.7</ele>
        <time>2021-03-02T12:40:49Z</time>
        <extensions>
          <gpxtpx:TrackPointExtension xmlns:gpxtpx="http://www.garmin.com/xmlschemas/TrackPointExtension/v1">
            <gpxtpx:hr>156</gpxtpx:hr>
          </gpxtpx:TrackPointExtension>
        </extensions>
      </trkpt>
      <trkpt lat="46.09655" lon="6.25766">
        <ele>786.9</ele>
        <time>2021-03-02T12:40:50Z</time>
        <extensions>
          <gpxtpx:TrackPointExtension xmlns:gpxtpx="http://www.garmin.com/xmlschemas/TrackPointExtension/v1">
            <gpxtpx:hr>156</gpxtpx:hr>
          </gpxtpx:TrackPointExtension>
        </extensions>
      </trkpt>
      <trkpt lat="46.09654" lon="6.25763">
        <ele>787.2</ele>
        <time>2021-03-02T12:40:51Z</time>
        <extensions>
          <gpxtpx:TrackPointExtension xmlns:gpxtpx="http://www.garmin.com/xmlschemas/TrackPointExtension/v1">
            <gpxtpx:hr>156</gpxtpx:hr>
          </gpxtpx:TrackPointExtension>
        </extensions>
      </trkpt>
      <trkpt lat="46.09652" lon="6.2576">
        <ele>787.5</ele>
        <time>2021-03-02T12:40:52Z</time>
        <extensions>
          <gpxtpx:TrackPointExtension xmlns:gpxtpx="http://www.garmin.com/xmlschemas/TrackPointExtension/v1">
            <gpxtpx:hr>156</gpxtpx:hr>
          </gpxtpx:TrackPointExtension>
        </extensions>
      </trkpt>
      <trkpt lat="46.09651" lon="6.25758">
        <ele>787.8</ele>
        <time>2021-03-02T12:40:53Z</time>
        <extensions>
          <gpxtpx:TrackPointExtension xmlns:gpxtpx="http://www.garmin.com/xmlschemas/TrackPointExtension/v1">
            <gpxtpx:hr>156</gpxtpx:hr>
          </gpxtpx:TrackPointExtension>
        </extensions>
      </trkpt>
      <trkpt lat="46.09649" lon="6.25755">
        <ele>788</ele>
        <time>2021-03-02T12:40:54Z</time>
        <extensions>
          <gpxtpx:TrackPointExtension xmlns:gpxtpx="http://www.garmin.com/xmlschemas/TrackPointExtension/v1">
            <gpxtpx:hr>156</gpxtpx:hr>
          </gpxtpx:TrackPointExtension>
        </extensions>
      </trkpt>
      <trkpt lat="46.09648" lon="6.25752">
        <ele>788.3</ele>
        <time>2021-03-02T12:40:55Z</time>
        <extensions>
          <gpxtpx:TrackPointExtension xmlns:gpxtpx="http://www.garmin.com/xmlschemas/TrackPointExtension/v1">
            <gpxtpx:hr>156</gpxtpx:hr>
          </gpxtpx:TrackPointExtension>
        </extensions>
      </trkpt>
      <trkpt lat="46.09646" lon="6.25749">
        <ele>788.5</ele>
        <time>2021-03-02T12:40:56Z</time>
        <extensions>
          <gpxtpx:TrackPointExtension xmlns:gpxtpx="http://www.garmin.com/xmlschemas/TrackPointExtension/v1">
            <gpxtpx:hr>156</gpxtpx:hr>
          </gpxtpx:TrackPointExtension>
        </extensions>
      </trkpt>
      <trkpt lat="46.09645" lon="6.25746">
        <ele>788.8</ele>
        <time>2021-03-02T12:40:57Z</time>
        <extensions>
          <gpxtpx:TrackPointExtension xmlns:gpxtpx="http://www.garmin.com/xmlschemas/TrackPointExtension/v1">
            <gpxtpx:hr>156</gpxtpx:hr>
          </gpxtpx:TrackPointExtension>
        </extensions>
      </trkpt>
      <trkpt lat="46.09643" lon="6.25744">
        <ele>789.1</ele>
        <time>2021-03-02T12:40:58Z</time>
        <extensions>
          <gpxtpx:TrackPointExtension xmlns:gpxtpx="http://www.garmin.com/xmlschemas/TrackPointExtension/v1">
            <gpxtpx:hr>155</gpxtpx:hr>
          </gpxtpx:TrackPointExtension>
        </extensions>
      </trkpt>
      <trkpt lat="46.09642" lon="6.25741">
        <ele>789.3</ele>
        <time>2021-03-02T12:40:59Z</time>
        <extensions>
          <gpxtpx:TrackPointExtension xmlns:gpxtpx="http://www.garmin.com/xmlschemas/TrackPointExtension/v1">
            <gpxtpx:hr>155</gpxtpx:hr>
          </gpxtpx:TrackPointExtension>
        </extensions>
      </trkpt>
      <trkpt lat="46.0964" lon="6.25738">
        <ele>789.6</ele>
        <time>2021-03-02T12:41:00Z</time>
        <extensions>
          <gpxtpx:TrackPointExtension xmlns:gpxtpx="http://www.garmin.com/xmlschemas/TrackPointExtension/v1">
            <gpxtpx:hr>155</gpxtpx:hr>
          </gpxtpx:TrackPointExtension>
        </extensions>
      </trkpt>
      <trkpt lat="46.09639" lon="6.25735">
        <ele>789.8</ele>
        <time>2021-03-02T12:41:01Z</time>
        <extensions>
          <gpxtpx:TrackPointExtension xmlns:gpxtpx="http://www.garmin.com/xmlschemas/TrackPointExtension/v1">
            <gpxtpx:hr>155</gpxtpx:hr>
          </gpxtpx:TrackPointExtension>
        </extensions>
      </trkpt>
      <trkpt lat="46.09637" lon="6.25732">
        <ele>790.1</ele>
        <time>2021-03-02T12:41:02Z</time>
        <extensions>
          <gpxtpx:TrackPointExtension xmlns:gpxtpx="http://www.garmin.com/xmlschemas/TrackPointExtension/v1">
            <gpxtpx:hr>155</gpxtpx:hr>
          </gpxtpx:TrackPointExtension>
        </extensions>
      </trkpt>
      <trkpt lat="46.09636" lon="6.2573">
        <ele>790.4</ele>
        <time>2021-03-02T12:41:03Z</time>
        <extensions>
          <gpxtpx:TrackPointExtension xmlns:gpxtpx="http://www.garmin.com/xmlschemas/TrackPointExtension/v1">
            <gpxtpx:hr>155</gpxtpx:hr>
          </gpxtpx:TrackPointExtension>
        </extensions>
      </trkpt>
      <trkpt lat="46.09635" lon="6.25727">
        <ele>790.7</ele>
        <time>2021-03-02T12:41:04Z</time>
        <extensions>
          <gpxtpx:TrackPointExtension xmlns:gpxtpx="http://www.garmin.com/xmlschemas/TrackPointExtension/v1">
            <gpxtpx:hr>155</gpxtpx:hr>
          </gpxtpx:TrackPointExtension>
        </extensions>
      </trkpt>
      <trkpt lat="46.09633" lon="6.25724">
        <ele>790.9</ele>
        <time>2021-03-02T12:41:05Z</time>
        <extensions>
          <gpxtpx:TrackPointExtension xmlns:gpxtpx="http://www.garmin.com/xmlschemas/TrackPointExtension/v1">
            <gpxtpx:hr>155</gpxtpx:hr>
          </gpxtpx:TrackPointExtension>
        </extensions>
      </trkpt>
      <trkpt lat="46.09632" lon="6.25721">
        <ele>791.2</ele>
        <time>2021-03-02T12:41:06Z</time>
        <extensions>
          <gpxtpx:TrackPointExtension xmlns:gpxtpx="http://www.garmin.com/xmlschemas/TrackPointExtension/v1">
            <gpxtpx:hr>155</gpxtpx:hr>
          </gpxtpx:TrackPointExtension>
        </extensions>
      </trkpt>
      <trkpt lat="46.09631" lon="6.25718">
        <ele>791.5</ele>
        <time>2021-03-02T12:41:07Z</time>
        <extensions>
          <gpxtpx:TrackPointExtension xmlns:gpxtpx="http://www.garmin.com/xmlschemas/TrackPointExtension/v1">
            <gpxtpx:hr>155</gpxtpx:hr>
          </gpxtpx:TrackPointExtension>
        </extensions>
      </trkpt>
      <trkpt lat="46.09629" lon="6.25716">
        <ele>791.7</ele>
        <time>2021-03-02T12:41:08Z</time>
        <extensions>
          <gpxtpx:TrackPointExtension xmlns:gpxtpx="http://www.garmin.com/xmlschemas/TrackPointExtension/v1">
            <gpxtpx:hr>155</gpxtpx:hr>
          </gpxtpx:TrackPointExtension>
        </extensions>
      </trkpt>
      <trkpt lat="46.09628" lon="6.25713">
        <ele>792</ele>
        <time>2021-03-02T12:41:09Z</time>
        <extensions>
          <gpxtpx:TrackPointExtension xmlns:gpxtpx="http://www.garmin.com/xmlschemas/TrackPointExtension/v1">
            <gpxtpx:hr>155</gpxtpx:hr>
          </gpxtpx:TrackPointExtension>
        </extensions>
      </trkpt>
      <trkpt lat="46.09627" lon="6.2571">
        <ele>792.3</ele>
        <time>2021-03-02T12:41:10Z</time>
        <extensions>
          <gpxtpx:TrackPointExtension xmlns:gpxtpx="http://www.garmin.com/xmlschemas/TrackPointExtension/v1">
            <gpxtpx:hr>155</gpxtpx:hr>
          </gpxtpx:TrackPointExtension>
        </extensions>
      </trkpt>
      <trkpt lat="46.09625" lon="6.25707">
        <ele>792.6</ele>
        <time>2021-03-02T12:41:11Z</time>
        <extensions>
          <gpxtpx:TrackPointExtension xmlns:gpxtpx="http://www.garmin.com/xmlschemas/TrackPointExtension/v1">
            <gpxtpx:hr>155</gpxtpx:hr>
          </gpxtpx:TrackPointExtension>
        </extensions>
      </trkpt>
      <trkpt lat="46.09624" lon="6.25704">
        <ele>792.8</ele>
        <time>2021-03-02T12:41:12Z</time>
        <extensions>
          <gpxtpx:TrackPointExtension xmlns:gpxtpx="http://www.garmin.com/xmlschemas/TrackPointExtension/v1">
            <gpxtpx:hr>155</gpxtpx:hr>
          </gpxtpx:TrackPointExtension>
        </extensions>
      </trkpt>
      <trkpt lat="46.09623" lon="6.25701">
        <ele>793.1</ele>
        <time>2021-03-02T12:41:13Z</time>
        <extensions>
          <gpxtpx:TrackPointExtension xmlns:gpxtpx="http://www.garmin.com/xmlschemas/TrackPointExtension/v1">
            <gpxtpx:hr>155</gpxtpx:hr>
          </gpxtpx:TrackPointExtension>
        </extensions>
      </trkpt>
      <trkpt lat="46.09622" lon="6.25698">
        <ele>793.4</ele>
        <time>2021-03-02T12:41:14Z</time>
        <extensions>
          <gpxtpx:TrackPointExtension xmlns:gpxtpx="http://www.garmin.com/xmlschemas/TrackPointExtension/v1">
            <gpxtpx:hr>155</gpxtpx:hr>
          </gpxtpx:TrackPointExtension>
        </extensions>
      </trkpt>
      <trkpt lat="46.0962" lon="6.25695">
        <ele>793.7</ele>
        <time>2021-03-02T12:41:15Z</time>
        <extensions>
          <gpxtpx:TrackPointExtension xmlns:gpxtpx="http://www.garmin.com/xmlschemas/TrackPointExtension/v1">
            <gpxtpx:hr>155</gpxtpx:hr>
          </gpxtpx:TrackPointExtension>
        </extensions>
      </trkpt>
      <trkpt lat="46.09619" lon="6.25692">
        <ele>793.9</ele>
        <time>2021-03-02T12:41:16Z</time>
        <extensions>
          <gpxtpx:TrackPointExtension xmlns:gpxtpx="http://www.garmin.com/xmlschemas/TrackPointExtension/v1">
            <gpxtpx:hr>155</gpxtpx:hr>
          </gpxtpx:TrackPointExtension>
        </extensions>
      </trkpt>
      <trkpt lat="46.09618" lon="6.25689">
        <ele>794.2</ele>
        <time>2021-03-02T12:41:17Z</time>
        <extensions>
          <gpxtpx:TrackPointExtension xmlns:gpxtpx="http://www.garmin.com/xmlschemas/TrackPointExtension/v1">
            <gpxtpx:hr>155</gpxtpx:hr>
          </gpxtpx:TrackPointExtension>
        </extensions>
      </trkpt>
      <trkpt lat="46.09617" lon="6.25686">
        <ele>794.5</ele>
        <time>2021-03-02T12:41:18Z</time>
        <extensions>
          <gpxtpx:TrackPointExtension xmlns:gpxtpx="http://www.garmin.com/xmlschemas/TrackPointExtension/v1">
            <gpxtpx:hr>155</gpxtpx:hr>
          </gpxtpx:TrackPointExtension>
        </extensions>
      </trkpt>
      <trkpt lat="46.09616" lon="6.25683">
        <ele>794.7</ele>
        <time>2021-03-02T12:41:19Z</time>
        <extensions>
          <gpxtpx:TrackPointExtension xmlns:gpxtpx="http://www.garmin.com/xmlschemas/TrackPointExtension/v1">
            <gpxtpx:hr>155</gpxtpx:hr>
          </gpxtpx:TrackPointExtension>
        </extensions>
      </trkpt>
      <trkpt lat="46.09615" lon="6.2568">
        <ele>795</ele>
        <time>2021-03-02T12:41:20Z</time>
        <extensions>
          <gpxtpx:TrackPointExtension xmlns:gpxtpx="http://www.garmin.com/xmlschemas/TrackPointExtension/v1">
            <gpxtpx:hr>155</gpxtpx:hr>
          </gpxtpx:TrackPointExtension>
        </extensions>
      </trkpt>
      <trkpt lat="46.09614" lon="6.25677">
        <ele>795.3</ele>
        <time>2021-03-02T12:41:21Z</time>
        <extensions>
          <gpxtpx:TrackPointExtension xmlns:gpxtpx="http://www.garmin.com/xmlschemas/TrackPointExtension/v1">
            <gpxtpx:hr>155</gpxtpx:hr>
          </gpxtpx:TrackPointExtension>
        </extensions>
      </trkpt>
      <trkpt lat="46.09613" lon="6.25674">
        <ele>795.5</ele>
        <time>2021-03-02T12:41:22Z</time>
        <extensions>
          <gpxtpx:TrackPointExtension xmlns:gpxtpx="http://www.garmin.com/xmlschemas/TrackPointExtension/v1">
            <gpxtpx:hr>155</gpxtpx:hr>
          </gpxtpx:TrackPointExtension>
        </extensions>
      </trkpt>
      <trkpt lat="46.09612" lon="6.25671">
        <ele>795.8</ele>
        <time>2021-03-02T12:41:23Z</time>
        <extensions>
          <gpxtpx:TrackPointExtension xmlns:gpxtpx="http://www.garmin.com/xmlschemas/TrackPointExtension/v1">
            <gpxtpx:hr>154</gpxtpx:hr>
          </gpxtpx:TrackPointExtension>
        </extensions>
      </trkpt>
      <trkpt lat="46.0961" lon="6.25668">
        <ele>796.1</ele>
        <time>2021-03-02T12:41:24Z</time>
        <extensions>
          <gpxtpx:TrackPointExtension xmlns:gpxtpx="http://www.garmin.com/xmlschemas/TrackPointExtension/v1">
            <gpxtpx:hr>154</gpxtpx:hr>
          </gpxtpx:TrackPointExtension>
        </extensions>
      </trkpt>
      <trkpt lat="46.09609" lon="6.25665">
        <ele>796.3</ele>
        <time>2021-03-02T12:41:25Z</time>
        <extensions>
          <gpxtpx:TrackPointExtension xmlns:gpxtpx="http://www.garmin.com/xmlschemas/TrackPointExtension/v1">
            <gpxtpx:hr>155</gpxtpx:hr>
          </gpxtpx:TrackPointExtension>
        </extensions>
      </trkpt>
      <trkpt lat="46.09608" lon="6.25661">
        <ele>796.6</ele>
        <time>2021-03-02T12:41:26Z</time>
        <extensions>
          <gpxtpx:TrackPointExtension xmlns:gpxtpx="http://www.garmin.com/xmlschemas/TrackPointExtension/v1">
            <gpxtpx:hr>154</gpxtpx:hr>
          </gpxtpx:TrackPointExtension>
        </extensions>
      </trkpt>
      <trkpt lat="46.09607" lon="6.25658">
        <ele>796.9</ele>
        <time>2021-03-02T12:41:27Z</time>
        <extensions>
          <gpxtpx:TrackPointExtension xmlns:gpxtpx="http://www.garmin.com/xmlschemas/TrackPointExtension/v1">
            <gpxtpx:hr>154</gpxtpx:hr>
          </gpxtpx:TrackPointExtension>
        </extensions>
      </trkpt>
      <trkpt lat="46.09606" lon="6.25655">
        <ele>797.2</ele>
        <time>2021-03-02T12:41:28Z</time>
        <extensions>
          <gpxtpx:TrackPointExtension xmlns:gpxtpx="http://www.garmin.com/xmlschemas/TrackPointExtension/v1">
            <gpxtpx:hr>154</gpxtpx:hr>
          </gpxtpx:TrackPointExtension>
        </extensions>
      </trkpt>
      <trkpt lat="46.09605" lon="6.25652">
        <ele>797.4</ele>
        <time>2021-03-02T12:41:29Z</time>
        <extensions>
          <gpxtpx:TrackPointExtension xmlns:gpxtpx="http://www.garmin.com/xmlschemas/TrackPointExtension/v1">
            <gpxtpx:hr>154</gpxtpx:hr>
          </gpxtpx:TrackPointExtension>
        </extensions>
      </trkpt>
      <trkpt lat="46.09604" lon="6.25649">
        <ele>797.7</ele>
        <time>2021-03-02T12:41:30Z</time>
        <extensions>
          <gpxtpx:TrackPointExtension xmlns:gpxtpx="http://www.garmin.com/xmlschemas/TrackPointExtension/v1">
            <gpxtpx:hr>154</gpxtpx:hr>
          </gpxtpx:TrackPointExtension>
        </extensions>
      </trkpt>
      <trkpt lat="46.09603" lon="6.25646">
        <ele>798</ele>
        <time>2021-03-02T12:41:31Z</time>
        <extensions>
          <gpxtpx:TrackPointExtension xmlns:gpxtpx="http://www.garmin.com/xmlschemas/TrackPointExtension/v1">
            <gpxtpx:hr>154</gpxtpx:hr>
          </gpxtpx:TrackPointExtension>
        </extensions>
      </trkpt>
      <trkpt lat="46.09602" lon="6.25643">
        <ele>798.2</ele>
        <time>2021-03-02T12:41:32Z</time>
        <extensions>
          <gpxtpx:TrackPointExtension xmlns:gpxtpx="http://www.garmin.com/xmlschemas/TrackPointExtension/v1">
            <gpxtpx:hr>154</gpxtpx:hr>
          </gpxtpx:TrackPointExtension>
        </extensions>
      </trkpt>
      <trkpt lat="46.09601" lon="6.25639">
        <ele>798.5</ele>
        <time>2021-03-02T12:41:33Z</time>
        <extensions>
          <gpxtpx:TrackPointExtension xmlns:gpxtpx="http://www.garmin.com/xmlschemas/TrackPointExtension/v1">
            <gpxtpx:hr>155</gpxtpx:hr>
          </gpxtpx:TrackPointExtension>
        </extensions>
      </trkpt>
      <trkpt lat="46.096" lon="6.25636">
        <ele>798.8</ele>
        <time>2021-03-02T12:41:34Z</time>
        <extensions>
          <gpxtpx:TrackPointExtension xmlns:gpxtpx="http://www.garmin.com/xmlschemas/TrackPointExtension/v1">
            <gpxtpx:hr>155</gpxtpx:hr>
          </gpxtpx:TrackPointExtension>
        </extensions>
      </trkpt>
      <trkpt lat="46.09599" lon="6.25633">
        <ele>799</ele>
        <time>2021-03-02T12:41:35Z</time>
        <extensions>
          <gpxtpx:TrackPointExtension xmlns:gpxtpx="http://www.garmin.com/xmlschemas/TrackPointExtension/v1">
            <gpxtpx:hr>155</gpxtpx:hr>
          </gpxtpx:TrackPointExtension>
        </extensions>
      </trkpt>
      <trkpt lat="46.09598" lon="6.2563">
        <ele>799.3</ele>
        <time>2021-03-02T12:41:36Z</time>
        <extensions>
          <gpxtpx:TrackPointExtension xmlns:gpxtpx="http://www.garmin.com/xmlschemas/TrackPointExtension/v1">
            <gpxtpx:hr>154</gpxtpx:hr>
          </gpxtpx:TrackPointExtension>
        </extensions>
      </trkpt>
      <trkpt lat="46.09596" lon="6.25627">
        <ele>799.6</ele>
        <time>2021-03-02T12:41:37Z</time>
        <extensions>
          <gpxtpx:TrackPointExtension xmlns:gpxtpx="http://www.garmin.com/xmlschemas/TrackPointExtension/v1">
            <gpxtpx:hr>154</gpxtpx:hr>
          </gpxtpx:TrackPointExtension>
        </extensions>
      </trkpt>
      <trkpt lat="46.09596" lon="6.25624">
        <ele>799.8</ele>
        <time>2021-03-02T12:41:38Z</time>
        <extensions>
          <gpxtpx:TrackPointExtension xmlns:gpxtpx="http://www.garmin.com/xmlschemas/TrackPointExtension/v1">
            <gpxtpx:hr>154</gpxtpx:hr>
          </gpxtpx:TrackPointExtension>
        </extensions>
      </trkpt>
      <trkpt lat="46.09595" lon="6.2562">
        <ele>800.1</ele>
        <time>2021-03-02T12:41:39Z</time>
        <extensions>
          <gpxtpx:TrackPointExtension xmlns:gpxtpx="http://www.garmin.com/xmlschemas/TrackPointExtension/v1">
            <gpxtpx:hr>155</gpxtpx:hr>
          </gpxtpx:TrackPointExtension>
        </extensions>
      </trkpt>
      <trkpt lat="46.09594" lon="6.25617">
        <ele>800.4</ele>
        <time>2021-03-02T12:41:40Z</time>
        <extensions>
          <gpxtpx:TrackPointExtension xmlns:gpxtpx="http://www.garmin.com/xmlschemas/TrackPointExtension/v1">
            <gpxtpx:hr>154</gpxtpx:hr>
          </gpxtpx:TrackPointExtension>
        </extensions>
      </trkpt>
      <trkpt lat="46.09593" lon="6.25614">
        <ele>800.6</ele>
        <time>2021-03-02T12:41:41Z</time>
        <extensions>
          <gpxtpx:TrackPointExtension xmlns:gpxtpx="http://www.garmin.com/xmlschemas/TrackPointExtension/v1">
            <gpxtpx:hr>154</gpxtpx:hr>
          </gpxtpx:TrackPointExtension>
        </extensions>
      </trkpt>
      <trkpt lat="46.09592" lon="6.25611">
        <ele>800.9</ele>
        <time>2021-03-02T12:41:42Z</time>
        <extensions>
          <gpxtpx:TrackPointExtension xmlns:gpxtpx="http://www.garmin.com/xmlschemas/TrackPointExtension/v1">
            <gpxtpx:hr>154</gpxtpx:hr>
          </gpxtpx:TrackPointExtension>
        </extensions>
      </trkpt>
      <trkpt lat="46.09591" lon="6.25608">
        <ele>801.2</ele>
        <time>2021-03-02T12:41:43Z</time>
        <extensions>
          <gpxtpx:TrackPointExtension xmlns:gpxtpx="http://www.garmin.com/xmlschemas/TrackPointExtension/v1">
            <gpxtpx:hr>154</gpxtpx:hr>
          </gpxtpx:TrackPointExtension>
        </extensions>
      </trkpt>
      <trkpt lat="46.0959" lon="6.25605">
        <ele>801.4</ele>
        <time>2021-03-02T12:41:44Z</time>
        <extensions>
          <gpxtpx:TrackPointExtension xmlns:gpxtpx="http://www.garmin.com/xmlschemas/TrackPointExtension/v1">
            <gpxtpx:hr>155</gpxtpx:hr>
          </gpxtpx:TrackPointExtension>
        </extensions>
      </trkpt>
      <trkpt lat="46.09589" lon="6.25602">
        <ele>801.7</ele>
        <time>2021-03-02T12:41:45Z</time>
        <extensions>
          <gpxtpx:TrackPointExtension xmlns:gpxtpx="http://www.garmin.com/xmlschemas/TrackPointExtension/v1">
            <gpxtpx:hr>155</gpxtpx:hr>
          </gpxtpx:TrackPointExtension>
        </extensions>
      </trkpt>
      <trkpt lat="46.09587" lon="6.25598">
        <ele>802</ele>
        <time>2021-03-02T12:41:46Z</time>
        <extensions>
          <gpxtpx:TrackPointExtension xmlns:gpxtpx="http://www.garmin.com/xmlschemas/TrackPointExtension/v1">
            <gpxtpx:hr>154</gpxtpx:hr>
          </gpxtpx:TrackPointExtension>
        </extensions>
      </trkpt>
      <trkpt lat="46.09586" lon="6.25595">
        <ele>802.3</ele>
        <time>2021-03-02T12:41:47Z</time>
        <extensions>
          <gpxtpx:TrackPointExtension xmlns:gpxtpx="http://www.garmin.com/xmlschemas/TrackPointExtension/v1">
            <gpxtpx:hr>154</gpxtpx:hr>
          </gpxtpx:TrackPointExtension>
        </extensions>
      </trkpt>
      <trkpt lat="46.09585" lon="6.25592">
        <ele>802.5</ele>
        <time>2021-03-02T12:41:48Z</time>
        <extensions>
          <gpxtpx:TrackPointExtension xmlns:gpxtpx="http://www.garmin.com/xmlschemas/TrackPointExtension/v1">
            <gpxtpx:hr>154</gpxtpx:hr>
          </gpxtpx:TrackPointExtension>
        </extensions>
      </trkpt>
      <trkpt lat="46.09584" lon="6.25589">
        <ele>802.8</ele>
        <time>2021-03-02T12:41:49Z</time>
        <extensions>
          <gpxtpx:TrackPointExtension xmlns:gpxtpx="http://www.garmin.com/xmlschemas/TrackPointExtension/v1">
            <gpxtpx:hr>154</gpxtpx:hr>
          </gpxtpx:TrackPointExtension>
        </extensions>
      </trkpt>
      <trkpt lat="46.09583" lon="6.25586">
        <ele>803</ele>
        <time>2021-03-02T12:41:50Z</time>
        <extensions>
          <gpxtpx:TrackPointExtension xmlns:gpxtpx="http://www.garmin.com/xmlschemas/TrackPointExtension/v1">
            <gpxtpx:hr>154</gpxtpx:hr>
          </gpxtpx:TrackPointExtension>
        </extensions>
      </trkpt>
      <trkpt lat="46.09582" lon="6.25583">
        <ele>803.3</ele>
        <time>2021-03-02T12:41:51Z</time>
        <extensions>
          <gpxtpx:TrackPointExtension xmlns:gpxtpx="http://www.garmin.com/xmlschemas/TrackPointExtension/v1">
            <gpxtpx:hr>154</gpxtpx:hr>
          </gpxtpx:TrackPointExtension>
        </extensions>
      </trkpt>
      <trkpt lat="46.09581" lon="6.2558">
        <ele>803.6</ele>
        <time>2021-03-02T12:41:52Z</time>
        <extensions>
          <gpxtpx:TrackPointExtension xmlns:gpxtpx="http://www.garmin.com/xmlschemas/TrackPointExtension/v1">
            <gpxtpx:hr>154</gpxtpx:hr>
          </gpxtpx:TrackPointExtension>
        </extensions>
      </trkpt>
      <trkpt lat="46.0958" lon="6.25577">
        <ele>803.8</ele>
        <time>2021-03-02T12:41:53Z</time>
        <extensions>
          <gpxtpx:TrackPointExtension xmlns:gpxtpx="http://www.garmin.com/xmlschemas/TrackPointExtension/v1">
            <gpxtpx:hr>154</gpxtpx:hr>
          </gpxtpx:TrackPointExtension>
        </extensions>
      </trkpt>
      <trkpt lat="46.09579" lon="6.25574">
        <ele>804.1</ele>
        <time>2021-03-02T12:41:54Z</time>
        <extensions>
          <gpxtpx:TrackPointExtension xmlns:gpxtpx="http://www.garmin.com/xmlschemas/TrackPointExtension/v1">
            <gpxtpx:hr>154</gpxtpx:hr>
          </gpxtpx:TrackPointExtension>
        </extensions>
      </trkpt>
      <trkpt lat="46.09578" lon="6.25571">
        <ele>804.4</ele>
        <time>2021-03-02T12:41:55Z</time>
        <extensions>
          <gpxtpx:TrackPointExtension xmlns:gpxtpx="http://www.garmin.com/xmlschemas/TrackPointExtension/v1">
            <gpxtpx:hr>154</gpxtpx:hr>
          </gpxtpx:TrackPointExtension>
        </extensions>
      </trkpt>
      <trkpt lat="46.09577" lon="6.25568">
        <ele>804.6</ele>
        <time>2021-03-02T12:41:56Z</time>
        <extensions>
          <gpxtpx:TrackPointExtension xmlns:gpxtpx="http://www.garmin.com/xmlschemas/TrackPointExtension/v1">
            <gpxtpx:hr>154</gpxtpx:hr>
          </gpxtpx:TrackPointExtension>
        </extensions>
      </trkpt>
      <trkpt lat="46.09575" lon="6.25565">
        <ele>804.9</ele>
        <time>2021-03-02T12:41:57Z</time>
        <extensions>
          <gpxtpx:TrackPointExtension xmlns:gpxtpx="http://www.garmin.com/xmlschemas/TrackPointExtension/v1">
            <gpxtpx:hr>154</gpxtpx:hr>
          </gpxtpx:TrackPointExtension>
        </extensions>
      </trkpt>
      <trkpt lat="46.09574" lon="6.25562">
        <ele>805.2</ele>
        <time>2021-03-02T12:41:58Z</time>
        <extensions>
          <gpxtpx:TrackPointExtension xmlns:gpxtpx="http://www.garmin.com/xmlschemas/TrackPointExtension/v1">
            <gpxtpx:hr>154</gpxtpx:hr>
          </gpxtpx:TrackPointExtension>
        </extensions>
      </trkpt>
      <trkpt lat="46.09573" lon="6.25558">
        <ele>805.4</ele>
        <time>2021-03-02T12:41:59Z</time>
        <extensions>
          <gpxtpx:TrackPointExtension xmlns:gpxtpx="http://www.garmin.com/xmlschemas/TrackPointExtension/v1">
            <gpxtpx:hr>154</gpxtpx:hr>
          </gpxtpx:TrackPointExtension>
        </extensions>
      </trkpt>
      <trkpt lat="46.09572" lon="6.25555">
        <ele>805.7</ele>
        <time>2021-03-02T12:42:00Z</time>
        <extensions>
          <gpxtpx:TrackPointExtension xmlns:gpxtpx="http://www.garmin.com/xmlschemas/TrackPointExtension/v1">
            <gpxtpx:hr>154</gpxtpx:hr>
          </gpxtpx:TrackPointExtension>
        </extensions>
      </trkpt>
      <trkpt lat="46.09571" lon="6.25552">
        <ele>805.9</ele>
        <time>2021-03-02T12:42:01Z</time>
        <extensions>
          <gpxtpx:TrackPointExtension xmlns:gpxtpx="http://www.garmin.com/xmlschemas/TrackPointExtension/v1">
            <gpxtpx:hr>154</gpxtpx:hr>
          </gpxtpx:TrackPointExtension>
        </extensions>
      </trkpt>
      <trkpt lat="46.09569" lon="6.25549">
        <ele>806.2</ele>
        <time>2021-03-02T12:42:02Z</time>
        <extensions>
          <gpxtpx:TrackPointExtension xmlns:gpxtpx="http://www.garmin.com/xmlschemas/TrackPointExtension/v1">
            <gpxtpx:hr>154</gpxtpx:hr>
          </gpxtpx:TrackPointExtension>
        </extensions>
      </trkpt>
      <trkpt lat="46.09568" lon="6.25546">
        <ele>806.5</ele>
        <time>2021-03-02T12:42:03Z</time>
        <extensions>
          <gpxtpx:TrackPointExtension xmlns:gpxtpx="http://www.garmin.com/xmlschemas/TrackPointExtension/v1">
            <gpxtpx:hr>154</gpxtpx:hr>
          </gpxtpx:TrackPointExtension>
        </extensions>
      </trkpt>
      <trkpt lat="46.09567" lon="6.25543">
        <ele>806.7</ele>
        <time>2021-03-02T12:42:04Z</time>
        <extensions>
          <gpxtpx:TrackPointExtension xmlns:gpxtpx="http://www.garmin.com/xmlschemas/TrackPointExtension/v1">
            <gpxtpx:hr>154</gpxtpx:hr>
          </gpxtpx:TrackPointExtension>
        </extensions>
      </trkpt>
      <trkpt lat="46.09566" lon="6.2554">
        <ele>807</ele>
        <time>2021-03-02T12:42:05Z</time>
        <extensions>
          <gpxtpx:TrackPointExtension xmlns:gpxtpx="http://www.garmin.com/xmlschemas/TrackPointExtension/v1">
            <gpxtpx:hr>154</gpxtpx:hr>
          </gpxtpx:TrackPointExtension>
        </extensions>
      </trkpt>
      <trkpt lat="46.09564" lon="6.25537">
        <ele>807.2</ele>
        <time>2021-03-02T12:42:06Z</time>
        <extensions>
          <gpxtpx:TrackPointExtension xmlns:gpxtpx="http://www.garmin.com/xmlschemas/TrackPointExtension/v1">
            <gpxtpx:hr>155</gpxtpx:hr>
          </gpxtpx:TrackPointExtension>
        </extensions>
      </trkpt>
      <trkpt lat="46.09563" lon="6.25534">
        <ele>807.5</ele>
        <time>2021-03-02T12:42:07Z</time>
        <extensions>
          <gpxtpx:TrackPointExtension xmlns:gpxtpx="http://www.garmin.com/xmlschemas/TrackPointExtension/v1">
            <gpxtpx:hr>155</gpxtpx:hr>
          </gpxtpx:TrackPointExtension>
        </extensions>
      </trkpt>
      <trkpt lat="46.09562" lon="6.25531">
        <ele>807.7</ele>
        <time>2021-03-02T12:42:08Z</time>
        <extensions>
          <gpxtpx:TrackPointExtension xmlns:gpxtpx="http://www.garmin.com/xmlschemas/TrackPointExtension/v1">
            <gpxtpx:hr>155</gpxtpx:hr>
          </gpxtpx:TrackPointExtension>
        </extensions>
      </trkpt>
      <trkpt lat="46.09561" lon="6.25528">
        <ele>808</ele>
        <time>2021-03-02T12:42:09Z</time>
        <extensions>
          <gpxtpx:TrackPointExtension xmlns:gpxtpx="http://www.garmin.com/xmlschemas/TrackPointExtension/v1">
            <gpxtpx:hr>155</gpxtpx:hr>
          </gpxtpx:TrackPointExtension>
        </extensions>
      </trkpt>
      <trkpt lat="46.09559" lon="6.25525">
        <ele>808.2</ele>
        <time>2021-03-02T12:42:10Z</time>
        <extensions>
          <gpxtpx:TrackPointExtension xmlns:gpxtpx="http://www.garmin.com/xmlschemas/TrackPointExtension/v1">
            <gpxtpx:hr>155</gpxtpx:hr>
          </gpxtpx:TrackPointExtension>
        </extensions>
      </trkpt>
      <trkpt lat="46.09558" lon="6.25522">
        <ele>808.5</ele>
        <time>2021-03-02T12:42:11Z</time>
        <extensions>
          <gpxtpx:TrackPointExtension xmlns:gpxtpx="http://www.garmin.com/xmlschemas/TrackPointExtension/v1">
            <gpxtpx:hr>155</gpxtpx:hr>
          </gpxtpx:TrackPointExtension>
        </extensions>
      </trkpt>
      <trkpt lat="46.09557" lon="6.25519">
        <ele>808.7</ele>
        <time>2021-03-02T12:42:12Z</time>
        <extensions>
          <gpxtpx:TrackPointExtension xmlns:gpxtpx="http://www.garmin.com/xmlschemas/TrackPointExtension/v1">
            <gpxtpx:hr>155</gpxtpx:hr>
          </gpxtpx:TrackPointExtension>
        </extensions>
      </trkpt>
      <trkpt lat="46.09555" lon="6.25516">
        <ele>809</ele>
        <time>2021-03-02T12:42:13Z</time>
        <extensions>
          <gpxtpx:TrackPointExtension xmlns:gpxtpx="http://www.garmin.com/xmlschemas/TrackPointExtension/v1">
            <gpxtpx:hr>155</gpxtpx:hr>
          </gpxtpx:TrackPointExtension>
        </extensions>
      </trkpt>
      <trkpt lat="46.09554" lon="6.25513">
        <ele>809.2</ele>
        <time>2021-03-02T12:42:14Z</time>
        <extensions>
          <gpxtpx:TrackPointExtension xmlns:gpxtpx="http://www.garmin.com/xmlschemas/TrackPointExtension/v1">
            <gpxtpx:hr>155</gpxtpx:hr>
          </gpxtpx:TrackPointExtension>
        </extensions>
      </trkpt>
      <trkpt lat="46.09553" lon="6.2551">
        <ele>809.4</ele>
        <time>2021-03-02T12:42:15Z</time>
        <extensions>
          <gpxtpx:TrackPointExtension xmlns:gpxtpx="http://www.garmin.com/xmlschemas/TrackPointExtension/v1">
            <gpxtpx:hr>155</gpxtpx:hr>
          </gpxtpx:TrackPointExtension>
        </extensions>
      </trkpt>
      <trkpt lat="46.09551" lon="6.25507">
        <ele>809.7</ele>
        <time>2021-03-02T12:42:16Z</time>
        <extensions>
          <gpxtpx:TrackPointExtension xmlns:gpxtpx="http://www.garmin.com/xmlschemas/TrackPointExtension/v1">
            <gpxtpx:hr>155</gpxtpx:hr>
          </gpxtpx:TrackPointExtension>
        </extensions>
      </trkpt>
      <trkpt lat="46.0955" lon="6.25505">
        <ele>809.9</ele>
        <time>2021-03-02T12:42:17Z</time>
        <extensions>
          <gpxtpx:TrackPointExtension xmlns:gpxtpx="http://www.garmin.com/xmlschemas/TrackPointExtension/v1">
            <gpxtpx:hr>155</gpxtpx:hr>
          </gpxtpx:TrackPointExtension>
        </extensions>
      </trkpt>
      <trkpt lat="46.09549" lon="6.25502">
        <ele>810.2</ele>
        <time>2021-03-02T12:42:18Z</time>
        <extensions>
          <gpxtpx:TrackPointExtension xmlns:gpxtpx="http://www.garmin.com/xmlschemas/TrackPointExtension/v1">
            <gpxtpx:hr>155</gpxtpx:hr>
          </gpxtpx:TrackPointExtension>
        </extensions>
      </trkpt>
      <trkpt lat="46.09547" lon="6.25499">
        <ele>810.4</ele>
        <time>2021-03-02T12:42:19Z</time>
        <extensions>
          <gpxtpx:TrackPointExtension xmlns:gpxtpx="http://www.garmin.com/xmlschemas/TrackPointExtension/v1">
            <gpxtpx:hr>155</gpxtpx:hr>
          </gpxtpx:TrackPointExtension>
        </extensions>
      </trkpt>
      <trkpt lat="46.09546" lon="6.25497">
        <ele>810.7</ele>
        <time>2021-03-02T12:42:20Z</time>
        <extensions>
          <gpxtpx:TrackPointExtension xmlns:gpxtpx="http://www.garmin.com/xmlschemas/TrackPointExtension/v1">
            <gpxtpx:hr>155</gpxtpx:hr>
          </gpxtpx:TrackPointExtension>
        </extensions>
      </trkpt>
      <trkpt lat="46.09544" lon="6.25494">
        <ele>810.9</ele>
        <time>2021-03-02T12:42:21Z</time>
        <extensions>
          <gpxtpx:TrackPointExtension xmlns:gpxtpx="http://www.garmin.com/xmlschemas/TrackPointExtension/v1">
            <gpxtpx:hr>155</gpxtpx:hr>
          </gpxtpx:TrackPointExtension>
        </extensions>
      </trkpt>
      <trkpt lat="46.09543" lon="6.25491">
        <ele>811.2</ele>
        <time>2021-03-02T12:42:22Z</time>
        <extensions>
          <gpxtpx:TrackPointExtension xmlns:gpxtpx="http://www.garmin.com/xmlschemas/TrackPointExtension/v1">
            <gpxtpx:hr>154</gpxtpx:hr>
          </gpxtpx:TrackPointExtension>
        </extensions>
      </trkpt>
      <trkpt lat="46.09542" lon="6.25488">
        <ele>811.5</ele>
        <time>2021-03-02T12:42:23Z</time>
        <extensions>
          <gpxtpx:TrackPointExtension xmlns:gpxtpx="http://www.garmin.com/xmlschemas/TrackPointExtension/v1">
            <gpxtpx:hr>154</gpxtpx:hr>
          </gpxtpx:TrackPointExtension>
        </extensions>
      </trkpt>
      <trkpt lat="46.0954" lon="6.25485">
        <ele>811.7</ele>
        <time>2021-03-02T12:42:24Z</time>
        <extensions>
          <gpxtpx:TrackPointExtension xmlns:gpxtpx="http://www.garmin.com/xmlschemas/TrackPointExtension/v1">
            <gpxtpx:hr>154</gpxtpx:hr>
          </gpxtpx:TrackPointExtension>
        </extensions>
      </trkpt>
      <trkpt lat="46.09539" lon="6.25483">
        <ele>811.9</ele>
        <time>2021-03-02T12:42:25Z</time>
        <extensions>
          <gpxtpx:TrackPointExtension xmlns:gpxtpx="http://www.garmin.com/xmlschemas/TrackPointExtension/v1">
            <gpxtpx:hr>154</gpxtpx:hr>
          </gpxtpx:TrackPointExtension>
        </extensions>
      </trkpt>
      <trkpt lat="46.09537" lon="6.2548">
        <ele>812.2</ele>
        <time>2021-03-02T12:42:26Z</time>
        <extensions>
          <gpxtpx:TrackPointExtension xmlns:gpxtpx="http://www.garmin.com/xmlschemas/TrackPointExtension/v1">
            <gpxtpx:hr>154</gpxtpx:hr>
          </gpxtpx:TrackPointExtension>
        </extensions>
      </trkpt>
      <trkpt lat="46.09536" lon="6.25478">
        <ele>812.4</ele>
        <time>2021-03-02T12:42:27Z</time>
        <extensions>
          <gpxtpx:TrackPointExtension xmlns:gpxtpx="http://www.garmin.com/xmlschemas/TrackPointExtension/v1">
            <gpxtpx:hr>154</gpxtpx:hr>
          </gpxtpx:TrackPointExtension>
        </extensions>
      </trkpt>
      <trkpt lat="46.09534" lon="6.25475">
        <ele>812.7</ele>
        <time>2021-03-02T12:42:28Z</time>
        <extensions>
          <gpxtpx:TrackPointExtension xmlns:gpxtpx="http://www.garmin.com/xmlschemas/TrackPointExtension/v1">
            <gpxtpx:hr>154</gpxtpx:hr>
          </gpxtpx:TrackPointExtension>
        </extensions>
      </trkpt>
      <trkpt lat="46.09532" lon="6.25472">
        <ele>812.9</ele>
        <time>2021-03-02T12:42:29Z</time>
        <extensions>
          <gpxtpx:TrackPointExtension xmlns:gpxtpx="http://www.garmin.com/xmlschemas/TrackPointExtension/v1">
            <gpxtpx:hr>154</gpxtpx:hr>
          </gpxtpx:TrackPointExtension>
        </extensions>
      </trkpt>
      <trkpt lat="46.09531" lon="6.2547">
        <ele>813.2</ele>
        <time>2021-03-02T12:42:30Z</time>
        <extensions>
          <gpxtpx:TrackPointExtension xmlns:gpxtpx="http://www.garmin.com/xmlschemas/TrackPointExtension/v1">
            <gpxtpx:hr>154</gpxtpx:hr>
          </gpxtpx:TrackPointExtension>
        </extensions>
      </trkpt>
      <trkpt lat="46.09529" lon="6.25467">
        <ele>813.4</ele>
        <time>2021-03-02T12:42:31Z</time>
        <extensions>
          <gpxtpx:TrackPointExtension xmlns:gpxtpx="http://www.garmin.com/xmlschemas/TrackPointExtension/v1">
            <gpxtpx:hr>154</gpxtpx:hr>
          </gpxtpx:TrackPointExtension>
        </extensions>
      </trkpt>
      <trkpt lat="46.09527" lon="6.25465">
        <ele>813.7</ele>
        <time>2021-03-02T12:42:32Z</time>
        <extensions>
          <gpxtpx:TrackPointExtension xmlns:gpxtpx="http://www.garmin.com/xmlschemas/TrackPointExtension/v1">
            <gpxtpx:hr>154</gpxtpx:hr>
          </gpxtpx:TrackPointExtension>
        </extensions>
      </trkpt>
      <trkpt lat="46.09526" lon="6.25462">
        <ele>813.9</ele>
        <time>2021-03-02T12:42:33Z</time>
        <extensions>
          <gpxtpx:TrackPointExtension xmlns:gpxtpx="http://www.garmin.com/xmlschemas/TrackPointExtension/v1">
            <gpxtpx:hr>154</gpxtpx:hr>
          </gpxtpx:TrackPointExtension>
        </extensions>
      </trkpt>
      <trkpt lat="46.09524" lon="6.2546">
        <ele>814.1</ele>
        <time>2021-03-02T12:42:34Z</time>
        <extensions>
          <gpxtpx:TrackPointExtension xmlns:gpxtpx="http://www.garmin.com/xmlschemas/TrackPointExtension/v1">
            <gpxtpx:hr>154</gpxtpx:hr>
          </gpxtpx:TrackPointExtension>
        </extensions>
      </trkpt>
      <trkpt lat="46.09522" lon="6.25457">
        <ele>814.4</ele>
        <time>2021-03-02T12:42:35Z</time>
        <extensions>
          <gpxtpx:TrackPointExtension xmlns:gpxtpx="http://www.garmin.com/xmlschemas/TrackPointExtension/v1">
            <gpxtpx:hr>155</gpxtpx:hr>
          </gpxtpx:TrackPointExtension>
        </extensions>
      </trkpt>
      <trkpt lat="46.0952" lon="6.25454">
        <ele>814.6</ele>
        <time>2021-03-02T12:42:36Z</time>
        <extensions>
          <gpxtpx:TrackPointExtension xmlns:gpxtpx="http://www.garmin.com/xmlschemas/TrackPointExtension/v1">
            <gpxtpx:hr>155</gpxtpx:hr>
          </gpxtpx:TrackPointExtension>
        </extensions>
      </trkpt>
      <trkpt lat="46.09519" lon="6.25452">
        <ele>814.9</ele>
        <time>2021-03-02T12:42:37Z</time>
        <extensions>
          <gpxtpx:TrackPointExtension xmlns:gpxtpx="http://www.garmin.com/xmlschemas/TrackPointExtension/v1">
            <gpxtpx:hr>155</gpxtpx:hr>
          </gpxtpx:TrackPointExtension>
        </extensions>
      </trkpt>
      <trkpt lat="46.09517" lon="6.25449">
        <ele>815.1</ele>
        <time>2021-03-02T12:42:38Z</time>
        <extensions>
          <gpxtpx:TrackPointExtension xmlns:gpxtpx="http://www.garmin.com/xmlschemas/TrackPointExtension/v1">
            <gpxtpx:hr>155</gpxtpx:hr>
          </gpxtpx:TrackPointExtension>
        </extensions>
      </trkpt>
      <trkpt lat="46.09515" lon="6.25446">
        <ele>815.3</ele>
        <time>2021-03-02T12:42:39Z</time>
        <extensions>
          <gpxtpx:TrackPointExtension xmlns:gpxtpx="http://www.garmin.com/xmlschemas/TrackPointExtension/v1">
            <gpxtpx:hr>156</gpxtpx:hr>
          </gpxtpx:TrackPointExtension>
        </extensions>
      </trkpt>
      <trkpt lat="46.09513" lon="6.25444">
        <ele>815.5</ele>
        <time>2021-03-02T12:42:40Z</time>
        <extensions>
          <gpxtpx:TrackPointExtension xmlns:gpxtpx="http://www.garmin.com/xmlschemas/TrackPointExtension/v1">
            <gpxtpx:hr>156</gpxtpx:hr>
          </gpxtpx:TrackPointExtension>
        </extensions>
      </trkpt>
      <trkpt lat="46.09511" lon="6.25441">
        <ele>815.8</ele>
        <time>2021-03-02T12:42:41Z</time>
        <extensions>
          <gpxtpx:TrackPointExtension xmlns:gpxtpx="http://www.garmin.com/xmlschemas/TrackPointExtension/v1">
            <gpxtpx:hr>156</gpxtpx:hr>
          </gpxtpx:TrackPointExtension>
        </extensions>
      </trkpt>
      <trkpt lat="46.09509" lon="6.25439">
        <ele>816</ele>
        <time>2021-03-02T12:42:42Z</time>
        <extensions>
          <gpxtpx:TrackPointExtension xmlns:gpxtpx="http://www.garmin.com/xmlschemas/TrackPointExtension/v1">
            <gpxtpx:hr>155</gpxtpx:hr>
          </gpxtpx:TrackPointExtension>
        </extensions>
      </trkpt>
      <trkpt lat="46.09507" lon="6.25436">
        <ele>816.2</ele>
        <time>2021-03-02T12:42:43Z</time>
        <extensions>
          <gpxtpx:TrackPointExtension xmlns:gpxtpx="http://www.garmin.com/xmlschemas/TrackPointExtension/v1">
            <gpxtpx:hr>154</gpxtpx:hr>
          </gpxtpx:TrackPointExtension>
        </extensions>
      </trkpt>
      <trkpt lat="46.09505" lon="6.25433">
        <ele>816.4</ele>
        <time>2021-03-02T12:42:44Z</time>
        <extensions>
          <gpxtpx:TrackPointExtension xmlns:gpxtpx="http://www.garmin.com/xmlschemas/TrackPointExtension/v1">
            <gpxtpx:hr>153</gpxtpx:hr>
          </gpxtpx:TrackPointExtension>
        </extensions>
      </trkpt>
      <trkpt lat="46.09503" lon="6.2543">
        <ele>816.6</ele>
        <time>2021-03-02T12:42:45Z</time>
        <extensions>
          <gpxtpx:TrackPointExtension xmlns:gpxtpx="http://www.garmin.com/xmlschemas/TrackPointExtension/v1">
            <gpxtpx:hr>152</gpxtpx:hr>
          </gpxtpx:TrackPointExtension>
        </extensions>
      </trkpt>
      <trkpt lat="46.09501" lon="6.25428">
        <ele>816.8</ele>
        <time>2021-03-02T12:42:46Z</time>
        <extensions>
          <gpxtpx:TrackPointExtension xmlns:gpxtpx="http://www.garmin.com/xmlschemas/TrackPointExtension/v1">
            <gpxtpx:hr>152</gpxtpx:hr>
          </gpxtpx:TrackPointExtension>
        </extensions>
      </trkpt>
      <trkpt lat="46.09499" lon="6.25425">
        <ele>817</ele>
        <time>2021-03-02T12:42:47Z</time>
        <extensions>
          <gpxtpx:TrackPointExtension xmlns:gpxtpx="http://www.garmin.com/xmlschemas/TrackPointExtension/v1">
            <gpxtpx:hr>153</gpxtpx:hr>
          </gpxtpx:TrackPointExtension>
        </extensions>
      </trkpt>
      <trkpt lat="46.09497" lon="6.25422">
        <ele>817.2</ele>
        <time>2021-03-02T12:42:48Z</time>
        <extensions>
          <gpxtpx:TrackPointExtension xmlns:gpxtpx="http://www.garmin.com/xmlschemas/TrackPointExtension/v1">
            <gpxtpx:hr>153</gpxtpx:hr>
          </gpxtpx:TrackPointExtension>
        </extensions>
      </trkpt>
      <trkpt lat="46.09495" lon="6.2542">
        <ele>817.4</ele>
        <time>2021-03-02T12:42:49Z</time>
        <extensions>
          <gpxtpx:TrackPointExtension xmlns:gpxtpx="http://www.garmin.com/xmlschemas/TrackPointExtension/v1">
            <gpxtpx:hr>153</gpxtpx:hr>
          </gpxtpx:TrackPointExtension>
        </extensions>
      </trkpt>
      <trkpt lat="46.09493" lon="6.25417">
        <ele>817.6</ele>
        <time>2021-03-02T12:42:50Z</time>
        <extensions>
          <gpxtpx:TrackPointExtension xmlns:gpxtpx="http://www.garmin.com/xmlschemas/TrackPointExtension/v1">
            <gpxtpx:hr>154</gpxtpx:hr>
          </gpxtpx:TrackPointExtension>
        </extensions>
      </trkpt>
      <trkpt lat="46.09491" lon="6.25414">
        <ele>817.8</ele>
        <time>2021-03-02T12:42:51Z</time>
        <extensions>
          <gpxtpx:TrackPointExtension xmlns:gpxtpx="http://www.garmin.com/xmlschemas/TrackPointExtension/v1">
            <gpxtpx:hr>154</gpxtpx:hr>
          </gpxtpx:TrackPointExtension>
        </extensions>
      </trkpt>
      <trkpt lat="46.09489" lon="6.25411">
        <ele>818</ele>
        <time>2021-03-02T12:42:52Z</time>
        <extensions>
          <gpxtpx:TrackPointExtension xmlns:gpxtpx="http://www.garmin.com/xmlschemas/TrackPointExtension/v1">
            <gpxtpx:hr>154</gpxtpx:hr>
          </gpxtpx:TrackPointExtension>
        </extensions>
      </trkpt>
      <trkpt lat="46.09487" lon="6.25408">
        <ele>818.2</ele>
        <time>2021-03-02T12:42:53Z</time>
        <extensions>
          <gpxtpx:TrackPointExtension xmlns:gpxtpx="http://www.garmin.com/xmlschemas/TrackPointExtension/v1">
            <gpxtpx:hr>154</gpxtpx:hr>
          </gpxtpx:TrackPointExtension>
        </extensions>
      </trkpt>
      <trkpt lat="46.09485" lon="6.25405">
        <ele>818.4</ele>
        <time>2021-03-02T12:42:54Z</time>
        <extensions>
          <gpxtpx:TrackPointExtension xmlns:gpxtpx="http://www.garmin.com/xmlschemas/TrackPointExtension/v1">
            <gpxtpx:hr>154</gpxtpx:hr>
          </gpxtpx:TrackPointExtension>
        </extensions>
      </trkpt>
      <trkpt lat="46.09482" lon="6.25402">
        <ele>818.5</ele>
        <time>2021-03-02T12:42:55Z</time>
        <extensions>
          <gpxtpx:TrackPointExtension xmlns:gpxtpx="http://www.garmin.com/xmlschemas/TrackPointExtension/v1">
            <gpxtpx:hr>154</gpxtpx:hr>
          </gpxtpx:TrackPointExtension>
        </extensions>
      </trkpt>
      <trkpt lat="46.0948" lon="6.25399">
        <ele>818.7</ele>
        <time>2021-03-02T12:42:56Z</time>
        <extensions>
          <gpxtpx:TrackPointExtension xmlns:gpxtpx="http://www.garmin.com/xmlschemas/TrackPointExtension/v1">
            <gpxtpx:hr>154</gpxtpx:hr>
          </gpxtpx:TrackPointExtension>
        </extensions>
      </trkpt>
      <trkpt lat="46.09478" lon="6.25396">
        <ele>818.9</ele>
        <time>2021-03-02T12:42:57Z</time>
        <extensions>
          <gpxtpx:TrackPointExtension xmlns:gpxtpx="http://www.garmin.com/xmlschemas/TrackPointExtension/v1">
            <gpxtpx:hr>153</gpxtpx:hr>
          </gpxtpx:TrackPointExtension>
        </extensions>
      </trkpt>
      <trkpt lat="46.09476" lon="6.25393">
        <ele>819.1</ele>
        <time>2021-03-02T12:42:58Z</time>
        <extensions>
          <gpxtpx:TrackPointExtension xmlns:gpxtpx="http://www.garmin.com/xmlschemas/TrackPointExtension/v1">
            <gpxtpx:hr>153</gpxtpx:hr>
          </gpxtpx:TrackPointExtension>
        </extensions>
      </trkpt>
      <trkpt lat="46.09474" lon="6.2539">
        <ele>819.3</ele>
        <time>2021-03-02T12:42:59Z</time>
        <extensions>
          <gpxtpx:TrackPointExtension xmlns:gpxtpx="http://www.garmin.com/xmlschemas/TrackPointExtension/v1">
            <gpxtpx:hr>153</gpxtpx:hr>
          </gpxtpx:TrackPointExtension>
        </extensions>
      </trkpt>
      <trkpt lat="46.09471" lon="6.25387">
        <ele>819.5</ele>
        <time>2021-03-02T12:43:00Z</time>
        <extensions>
          <gpxtpx:TrackPointExtension xmlns:gpxtpx="http://www.garmin.com/xmlschemas/TrackPointExtension/v1">
            <gpxtpx:hr>153</gpxtpx:hr>
          </gpxtpx:TrackPointExtension>
        </extensions>
      </trkpt>
      <trkpt lat="46.09469" lon="6.25383">
        <ele>819.7</ele>
        <time>2021-03-02T12:43:01Z</time>
        <extensions>
          <gpxtpx:TrackPointExtension xmlns:gpxtpx="http://www.garmin.com/xmlschemas/TrackPointExtension/v1">
            <gpxtpx:hr>153</gpxtpx:hr>
          </gpxtpx:TrackPointExtension>
        </extensions>
      </trkpt>
      <trkpt lat="46.09467" lon="6.2538">
        <ele>819.9</ele>
        <time>2021-03-02T12:43:02Z</time>
        <extensions>
          <gpxtpx:TrackPointExtension xmlns:gpxtpx="http://www.garmin.com/xmlschemas/TrackPointExtension/v1">
            <gpxtpx:hr>153</gpxtpx:hr>
          </gpxtpx:TrackPointExtension>
        </extensions>
      </trkpt>
      <trkpt lat="46.09464" lon="6.25377">
        <ele>820.1</ele>
        <time>2021-03-02T12:43:03Z</time>
        <extensions>
          <gpxtpx:TrackPointExtension xmlns:gpxtpx="http://www.garmin.com/xmlschemas/TrackPointExtension/v1">
            <gpxtpx:hr>153</gpxtpx:hr>
          </gpxtpx:TrackPointExtension>
        </extensions>
      </trkpt>
      <trkpt lat="46.09462" lon="6.25374">
        <ele>820.3</ele>
        <time>2021-03-02T12:43:04Z</time>
        <extensions>
          <gpxtpx:TrackPointExtension xmlns:gpxtpx="http://www.garmin.com/xmlschemas/TrackPointExtension/v1">
            <gpxtpx:hr>152</gpxtpx:hr>
          </gpxtpx:TrackPointExtension>
        </extensions>
      </trkpt>
      <trkpt lat="46.0946" lon="6.25371">
        <ele>820.5</ele>
        <time>2021-03-02T12:43:05Z</time>
        <extensions>
          <gpxtpx:TrackPointExtension xmlns:gpxtpx="http://www.garmin.com/xmlschemas/TrackPointExtension/v1">
            <gpxtpx:hr>152</gpxtpx:hr>
          </gpxtpx:TrackPointExtension>
        </extensions>
      </trkpt>
      <trkpt lat="46.09457" lon="6.25368">
        <ele>820.8</ele>
        <time>2021-03-02T12:43:06Z</time>
        <extensions>
          <gpxtpx:TrackPointExtension xmlns:gpxtpx="http://www.garmin.com/xmlschemas/TrackPointExtension/v1">
            <gpxtpx:hr>152</gpxtpx:hr>
          </gpxtpx:TrackPointExtension>
        </extensions>
      </trkpt>
      <trkpt lat="46.09455" lon="6.25365">
        <ele>821</ele>
        <time>2021-03-02T12:43:07Z</time>
        <extensions>
          <gpxtpx:TrackPointExtension xmlns:gpxtpx="http://www.garmin.com/xmlschemas/TrackPointExtension/v1">
            <gpxtpx:hr>151</gpxtpx:hr>
          </gpxtpx:TrackPointExtension>
        </extensions>
      </trkpt>
      <trkpt lat="46.09453" lon="6.25361">
        <ele>821.2</ele>
        <time>2021-03-02T12:43:08Z</time>
        <extensions>
          <gpxtpx:TrackPointExtension xmlns:gpxtpx="http://www.garmin.com/xmlschemas/TrackPointExtension/v1">
            <gpxtpx:hr>151</gpxtpx:hr>
          </gpxtpx:TrackPointExtension>
        </extensions>
      </trkpt>
      <trkpt lat="46.0945" lon="6.25358">
        <ele>821.4</ele>
        <time>2021-03-02T12:43:09Z</time>
        <extensions>
          <gpxtpx:TrackPointExtension xmlns:gpxtpx="http://www.garmin.com/xmlschemas/TrackPointExtension/v1">
            <gpxtpx:hr>151</gpxtpx:hr>
          </gpxtpx:TrackPointExtension>
        </extensions>
      </trkpt>
      <trkpt lat="46.09448" lon="6.25356">
        <ele>821.7</ele>
        <time>2021-03-02T12:43:10Z</time>
        <extensions>
          <gpxtpx:TrackPointExtension xmlns:gpxtpx="http://www.garmin.com/xmlschemas/TrackPointExtension/v1">
            <gpxtpx:hr>150</gpxtpx:hr>
          </gpxtpx:TrackPointExtension>
        </extensions>
      </trkpt>
      <trkpt lat="46.09446" lon="6.25353">
        <ele>822</ele>
        <time>2021-03-02T12:43:11Z</time>
        <extensions>
          <gpxtpx:TrackPointExtension xmlns:gpxtpx="http://www.garmin.com/xmlschemas/TrackPointExtension/v1">
            <gpxtpx:hr>150</gpxtpx:hr>
          </gpxtpx:TrackPointExtension>
        </extensions>
      </trkpt>
      <trkpt lat="46.09444" lon="6.2535">
        <ele>822.2</ele>
        <time>2021-03-02T12:43:12Z</time>
        <extensions>
          <gpxtpx:TrackPointExtension xmlns:gpxtpx="http://www.garmin.com/xmlschemas/TrackPointExtension/v1">
            <gpxtpx:hr>150</gpxtpx:hr>
          </gpxtpx:TrackPointExtension>
        </extensions>
      </trkpt>
      <trkpt lat="46.09442" lon="6.25347">
        <ele>822.5</ele>
        <time>2021-03-02T12:43:13Z</time>
        <extensions>
          <gpxtpx:TrackPointExtension xmlns:gpxtpx="http://www.garmin.com/xmlschemas/TrackPointExtension/v1">
            <gpxtpx:hr>150</gpxtpx:hr>
          </gpxtpx:TrackPointExtension>
        </extensions>
      </trkpt>
      <trkpt lat="46.0944" lon="6.25345">
        <ele>822.7</ele>
        <time>2021-03-02T12:43:14Z</time>
        <extensions>
          <gpxtpx:TrackPointExtension xmlns:gpxtpx="http://www.garmin.com/xmlschemas/TrackPointExtension/v1">
            <gpxtpx:hr>150</gpxtpx:hr>
          </gpxtpx:TrackPointExtension>
        </extensions>
      </trkpt>
      <trkpt lat="46.09438" lon="6.25342">
        <ele>823</ele>
        <time>2021-03-02T12:43:15Z</time>
        <extensions>
          <gpxtpx:TrackPointExtension xmlns:gpxtpx="http://www.garmin.com/xmlschemas/TrackPointExtension/v1">
            <gpxtpx:hr>149</gpxtpx:hr>
          </gpxtpx:TrackPointExtension>
        </extensions>
      </trkpt>
      <trkpt lat="46.09436" lon="6.25339">
        <ele>823.2</ele>
        <time>2021-03-02T12:43:16Z</time>
        <extensions>
          <gpxtpx:TrackPointExtension xmlns:gpxtpx="http://www.garmin.com/xmlschemas/TrackPointExtension/v1">
            <gpxtpx:hr>149</gpxtpx:hr>
          </gpxtpx:TrackPointExtension>
        </extensions>
      </trkpt>
      <trkpt lat="46.09434" lon="6.25336">
        <ele>823.5</ele>
        <time>2021-03-02T12:43:17Z</time>
        <extensions>
          <gpxtpx:TrackPointExtension xmlns:gpxtpx="http://www.garmin.com/xmlschemas/TrackPointExtension/v1">
            <gpxtpx:hr>149</gpxtpx:hr>
          </gpxtpx:TrackPointExtension>
        </extensions>
      </trkpt>
      <trkpt lat="46.09432" lon="6.25334">
        <ele>823.7</ele>
        <time>2021-03-02T12:43:18Z</time>
        <extensions>
          <gpxtpx:TrackPointExtension xmlns:gpxtpx="http://www.garmin.com/xmlschemas/TrackPointExtension/v1">
            <gpxtpx:hr>149</gpxtpx:hr>
          </gpxtpx:TrackPointExtension>
        </extensions>
      </trkpt>
      <trkpt lat="46.0943" lon="6.25331">
        <ele>824</ele>
        <time>2021-03-02T12:43:19Z</time>
        <extensions>
          <gpxtpx:TrackPointExtension xmlns:gpxtpx="http://www.garmin.com/xmlschemas/TrackPointExtension/v1">
            <gpxtpx:hr>148</gpxtpx:hr>
          </gpxtpx:TrackPointExtension>
        </extensions>
      </trkpt>
      <trkpt lat="46.09428" lon="6.25329">
        <ele>824.2</ele>
        <time>2021-03-02T12:43:20Z</time>
        <extensions>
          <gpxtpx:TrackPointExtension xmlns:gpxtpx="http://www.garmin.com/xmlschemas/TrackPointExtension/v1">
            <gpxtpx:hr>148</gpxtpx:hr>
          </gpxtpx:TrackPointExtension>
        </extensions>
      </trkpt>
      <trkpt lat="46.09426" lon="6.25327">
        <ele>824.5</ele>
        <time>2021-03-02T12:43:21Z</time>
        <extensions>
          <gpxtpx:TrackPointExtension xmlns:gpxtpx="http://www.garmin.com/xmlschemas/TrackPointExtension/v1">
            <gpxtpx:hr>148</gpxtpx:hr>
          </gpxtpx:TrackPointExtension>
        </extensions>
      </trkpt>
      <trkpt lat="46.09424" lon="6.25324">
        <ele>824.8</ele>
        <time>2021-03-02T12:43:22Z</time>
        <extensions>
          <gpxtpx:TrackPointExtension xmlns:gpxtpx="http://www.garmin.com/xmlschemas/TrackPointExtension/v1">
            <gpxtpx:hr>148</gpxtpx:hr>
          </gpxtpx:TrackPointExtension>
        </extensions>
      </trkpt>
      <trkpt lat="46.09422" lon="6.25322">
        <ele>825.1</ele>
        <time>2021-03-02T12:43:23Z</time>
        <extensions>
          <gpxtpx:TrackPointExtension xmlns:gpxtpx="http://www.garmin.com/xmlschemas/TrackPointExtension/v1">
            <gpxtpx:hr>147</gpxtpx:hr>
          </gpxtpx:TrackPointExtension>
        </extensions>
      </trkpt>
      <trkpt lat="46.09419" lon="6.25319">
        <ele>825.3</ele>
        <time>2021-03-02T12:43:24Z</time>
        <extensions>
          <gpxtpx:TrackPointExtension xmlns:gpxtpx="http://www.garmin.com/xmlschemas/TrackPointExtension/v1">
            <gpxtpx:hr>147</gpxtpx:hr>
          </gpxtpx:TrackPointExtension>
        </extensions>
      </trkpt>
      <trkpt lat="46.09417" lon="6.25317">
        <ele>825.6</ele>
        <time>2021-03-02T12:43:25Z</time>
        <extensions>
          <gpxtpx:TrackPointExtension xmlns:gpxtpx="http://www.garmin.com/xmlschemas/TrackPointExtension/v1">
            <gpxtpx:hr>147</gpxtpx:hr>
          </gpxtpx:TrackPointExtension>
        </extensions>
      </trkpt>
      <trkpt lat="46.09415" lon="6.25314">
        <ele>825.9</ele>
        <time>2021-03-02T12:43:26Z</time>
        <extensions>
          <gpxtpx:TrackPointExtension xmlns:gpxtpx="http://www.garmin.com/xmlschemas/TrackPointExtension/v1">
            <gpxtpx:hr>147</gpxtpx:hr>
          </gpxtpx:TrackPointExtension>
        </extensions>
      </trkpt>
      <trkpt lat="46.09413" lon="6.25312">
        <ele>826.2</ele>
        <time>2021-03-02T12:43:27Z</time>
        <extensions>
          <gpxtpx:TrackPointExtension xmlns:gpxtpx="http://www.garmin.com/xmlschemas/TrackPointExtension/v1">
            <gpxtpx:hr>147</gpxtpx:hr>
          </gpxtpx:TrackPointExtension>
        </extensions>
      </trkpt>
      <trkpt lat="46.09411" lon="6.2531">
        <ele>826.5</ele>
        <time>2021-03-02T12:43:28Z</time>
        <extensions>
          <gpxtpx:TrackPointExtension xmlns:gpxtpx="http://www.garmin.com/xmlschemas/TrackPointExtension/v1">
            <gpxtpx:hr>148</gpxtpx:hr>
          </gpxtpx:TrackPointExtension>
        </extensions>
      </trkpt>
      <trkpt lat="46.09409" lon="6.25307">
        <ele>826.8</ele>
        <time>2021-03-02T12:43:29Z</time>
        <extensions>
          <gpxtpx:TrackPointExtension xmlns:gpxtpx="http://www.garmin.com/xmlschemas/TrackPointExtension/v1">
            <gpxtpx:hr>148</gpxtpx:hr>
          </gpxtpx:TrackPointExtension>
        </extensions>
      </trkpt>
      <trkpt lat="46.09407" lon="6.25305">
        <ele>827.1</ele>
        <time>2021-03-02T12:43:30Z</time>
        <extensions>
          <gpxtpx:TrackPointExtension xmlns:gpxtpx="http://www.garmin.com/xmlschemas/TrackPointExtension/v1">
            <gpxtpx:hr>148</gpxtpx:hr>
          </gpxtpx:TrackPointExtension>
        </extensions>
      </trkpt>
      <trkpt lat="46.09405" lon="6.25303">
        <ele>827.4</ele>
        <time>2021-03-02T12:43:31Z</time>
        <extensions>
          <gpxtpx:TrackPointExtension xmlns:gpxtpx="http://www.garmin.com/xmlschemas/TrackPointExtension/v1">
            <gpxtpx:hr>148</gpxtpx:hr>
          </gpxtpx:TrackPointExtension>
        </extensions>
      </trkpt>
      <trkpt lat="46.09403" lon="6.253">
        <ele>827.7</ele>
        <time>2021-03-02T12:43:32Z</time>
        <extensions>
          <gpxtpx:TrackPointExtension xmlns:gpxtpx="http://www.garmin.com/xmlschemas/TrackPointExtension/v1">
            <gpxtpx:hr>148</gpxtpx:hr>
          </gpxtpx:TrackPointExtension>
        </extensions>
      </trkpt>
      <trkpt lat="46.09401" lon="6.25298">
        <ele>828</ele>
        <time>2021-03-02T12:43:33Z</time>
        <extensions>
          <gpxtpx:TrackPointExtension xmlns:gpxtpx="http://www.garmin.com/xmlschemas/TrackPointExtension/v1">
            <gpxtpx:hr>148</gpxtpx:hr>
          </gpxtpx:TrackPointExtension>
        </extensions>
      </trkpt>
      <trkpt lat="46.09399" lon="6.25295">
        <ele>828.3</ele>
        <time>2021-03-02T12:43:34Z</time>
        <extensions>
          <gpxtpx:TrackPointExtension xmlns:gpxtpx="http://www.garmin.com/xmlschemas/TrackPointExtension/v1">
            <gpxtpx:hr>148</gpxtpx:hr>
          </gpxtpx:TrackPointExtension>
        </extensions>
      </trkpt>
      <trkpt lat="46.09397" lon="6.25293">
        <ele>828.6</ele>
        <time>2021-03-02T12:43:35Z</time>
        <extensions>
          <gpxtpx:TrackPointExtension xmlns:gpxtpx="http://www.garmin.com/xmlschemas/TrackPointExtension/v1">
            <gpxtpx:hr>148</gpxtpx:hr>
          </gpxtpx:TrackPointExtension>
        </extensions>
      </trkpt>
      <trkpt lat="46.09395" lon="6.25291">
        <ele>828.9</ele>
        <time>2021-03-02T12:43:36Z</time>
        <extensions>
          <gpxtpx:TrackPointExtension xmlns:gpxtpx="http://www.garmin.com/xmlschemas/TrackPointExtension/v1">
            <gpxtpx:hr>148</gpxtpx:hr>
          </gpxtpx:TrackPointExtension>
        </extensions>
      </trkpt>
      <trkpt lat="46.09393" lon="6.25288">
        <ele>829.2</ele>
        <time>2021-03-02T12:43:37Z</time>
        <extensions>
          <gpxtpx:TrackPointExtension xmlns:gpxtpx="http://www.garmin.com/xmlschemas/TrackPointExtension/v1">
            <gpxtpx:hr>148</gpxtpx:hr>
          </gpxtpx:TrackPointExtension>
        </extensions>
      </trkpt>
      <trkpt lat="46.09391" lon="6.25286">
        <ele>829.5</ele>
        <time>2021-03-02T12:43:38Z</time>
        <extensions>
          <gpxtpx:TrackPointExtension xmlns:gpxtpx="http://www.garmin.com/xmlschemas/TrackPointExtension/v1">
            <gpxtpx:hr>148</gpxtpx:hr>
          </gpxtpx:TrackPointExtension>
        </extensions>
      </trkpt>
      <trkpt lat="46.09389" lon="6.25284">
        <ele>829.8</ele>
        <time>2021-03-02T12:43:39Z</time>
        <extensions>
          <gpxtpx:TrackPointExtension xmlns:gpxtpx="http://www.garmin.com/xmlschemas/TrackPointExtension/v1">
            <gpxtpx:hr>148</gpxtpx:hr>
          </gpxtpx:TrackPointExtension>
        </extensions>
      </trkpt>
      <trkpt lat="46.09387" lon="6.25282">
        <ele>830.1</ele>
        <time>2021-03-02T12:43:40Z</time>
        <extensions>
          <gpxtpx:TrackPointExtension xmlns:gpxtpx="http://www.garmin.com/xmlschemas/TrackPointExtension/v1">
            <gpxtpx:hr>148</gpxtpx:hr>
          </gpxtpx:TrackPointExtension>
        </extensions>
      </trkpt>
      <trkpt lat="46.09386" lon="6.25279">
        <ele>830.3</ele>
        <time>2021-03-02T12:43:41Z</time>
        <extensions>
          <gpxtpx:TrackPointExtension xmlns:gpxtpx="http://www.garmin.com/xmlschemas/TrackPointExtension/v1">
            <gpxtpx:hr>148</gpxtpx:hr>
          </gpxtpx:TrackPointExtension>
        </extensions>
      </trkpt>
      <trkpt lat="46.09384" lon="6.25277">
        <ele>830.6</ele>
        <time>2021-03-02T12:43:42Z</time>
        <extensions>
          <gpxtpx:TrackPointExtension xmlns:gpxtpx="http://www.garmin.com/xmlschemas/TrackPointExtension/v1">
            <gpxtpx:hr>148</gpxtpx:hr>
          </gpxtpx:TrackPointExtension>
        </extensions>
      </trkpt>
      <trkpt lat="46.09382" lon="6.25274">
        <ele>830.9</ele>
        <time>2021-03-02T12:43:43Z</time>
        <extensions>
          <gpxtpx:TrackPointExtension xmlns:gpxtpx="http://www.garmin.com/xmlschemas/TrackPointExtension/v1">
            <gpxtpx:hr>148</gpxtpx:hr>
          </gpxtpx:TrackPointExtension>
        </extensions>
      </trkpt>
      <trkpt lat="46.0938" lon="6.25272">
        <ele>831.2</ele>
        <time>2021-03-02T12:43:44Z</time>
        <extensions>
          <gpxtpx:TrackPointExtension xmlns:gpxtpx="http://www.garmin.com/xmlschemas/TrackPointExtension/v1">
            <gpxtpx:hr>148</gpxtpx:hr>
          </gpxtpx:TrackPointExtension>
        </extensions>
      </trkpt>
      <trkpt lat="46.09378" lon="6.2527">
        <ele>831.5</ele>
        <time>2021-03-02T12:43:45Z</time>
        <extensions>
          <gpxtpx:TrackPointExtension xmlns:gpxtpx="http://www.garmin.com/xmlschemas/TrackPointExtension/v1">
            <gpxtpx:hr>148</gpxtpx:hr>
          </gpxtpx:TrackPointExtension>
        </extensions>
      </trkpt>
      <trkpt lat="46.09376" lon="6.25267">
        <ele>831.7</ele>
        <time>2021-03-02T12:43:46Z</time>
        <extensions>
          <gpxtpx:TrackPointExtension xmlns:gpxtpx="http://www.garmin.com/xmlschemas/TrackPointExtension/v1">
            <gpxtpx:hr>147</gpxtpx:hr>
          </gpxtpx:TrackPointExtension>
        </extensions>
      </trkpt>
      <trkpt lat="46.09374" lon="6.25265">
        <ele>832</ele>
        <time>2021-03-02T12:43:47Z</time>
        <extensions>
          <gpxtpx:TrackPointExtension xmlns:gpxtpx="http://www.garmin.com/xmlschemas/TrackPointExtension/v1">
            <gpxtpx:hr>147</gpxtpx:hr>
          </gpxtpx:TrackPointExtension>
        </extensions>
      </trkpt>
      <trkpt lat="46.09372" lon="6.25263">
        <ele>832.2</ele>
        <time>2021-03-02T12:43:48Z</time>
        <extensions>
          <gpxtpx:TrackPointExtension xmlns:gpxtpx="http://www.garmin.com/xmlschemas/TrackPointExtension/v1">
            <gpxtpx:hr>147</gpxtpx:hr>
          </gpxtpx:TrackPointExtension>
        </extensions>
      </trkpt>
      <trkpt lat="46.0937" lon="6.25261">
        <ele>832.5</ele>
        <time>2021-03-02T12:43:49Z</time>
        <extensions>
          <gpxtpx:TrackPointExtension xmlns:gpxtpx="http://www.garmin.com/xmlschemas/TrackPointExtension/v1">
            <gpxtpx:hr>147</gpxtpx:hr>
          </gpxtpx:TrackPointExtension>
        </extensions>
      </trkpt>
      <trkpt lat="46.09368" lon="6.25259">
        <ele>832.8</ele>
        <time>2021-03-02T12:43:50Z</time>
        <extensions>
          <gpxtpx:TrackPointExtension xmlns:gpxtpx="http://www.garmin.com/xmlschemas/TrackPointExtension/v1">
            <gpxtpx:hr>148</gpxtpx:hr>
          </gpxtpx:TrackPointExtension>
        </extensions>
      </trkpt>
      <trkpt lat="46.09367" lon="6.25256">
        <ele>833</ele>
        <time>2021-03-02T12:43:51Z</time>
        <extensions>
          <gpxtpx:TrackPointExtension xmlns:gpxtpx="http://www.garmin.com/xmlschemas/TrackPointExtension/v1">
            <gpxtpx:hr>149</gpxtpx:hr>
          </gpxtpx:TrackPointExtension>
        </extensions>
      </trkpt>
      <trkpt lat="46.09365" lon="6.25254">
        <ele>833.2</ele>
        <time>2021-03-02T12:43:52Z</time>
        <extensions>
          <gpxtpx:TrackPointExtension xmlns:gpxtpx="http://www.garmin.com/xmlschemas/TrackPointExtension/v1">
            <gpxtpx:hr>149</gpxtpx:hr>
          </gpxtpx:TrackPointExtension>
        </extensions>
      </trkpt>
      <trkpt lat="46.09363" lon="6.25252">
        <ele>833.5</ele>
        <time>2021-03-02T12:43:53Z</time>
        <extensions>
          <gpxtpx:TrackPointExtension xmlns:gpxtpx="http://www.garmin.com/xmlschemas/TrackPointExtension/v1">
            <gpxtpx:hr>149</gpxtpx:hr>
          </gpxtpx:TrackPointExtension>
        </extensions>
      </trkpt>
      <trkpt lat="46.09361" lon="6.25249">
        <ele>833.8</ele>
        <time>2021-03-02T12:43:54Z</time>
        <extensions>
          <gpxtpx:TrackPointExtension xmlns:gpxtpx="http://www.garmin.com/xmlschemas/TrackPointExtension/v1">
            <gpxtpx:hr>149</gpxtpx:hr>
          </gpxtpx:TrackPointExtension>
        </extensions>
      </trkpt>
      <trkpt lat="46.09359" lon="6.25247">
        <ele>834</ele>
        <time>2021-03-02T12:43:55Z</time>
        <extensions>
          <gpxtpx:TrackPointExtension xmlns:gpxtpx="http://www.garmin.com/xmlschemas/TrackPointExtension/v1">
            <gpxtpx:hr>150</gpxtpx:hr>
          </gpxtpx:TrackPointExtension>
        </extensions>
      </trkpt>
      <trkpt lat="46.09357" lon="6.25245">
        <ele>834.2</ele>
        <time>2021-03-02T12:43:56Z</time>
        <extensions>
          <gpxtpx:TrackPointExtension xmlns:gpxtpx="http://www.garmin.com/xmlschemas/TrackPointExtension/v1">
            <gpxtpx:hr>150</gpxtpx:hr>
          </gpxtpx:TrackPointExtension>
        </extensions>
      </trkpt>
      <trkpt lat="46.09355" lon="6.25242">
        <ele>834.5</ele>
        <time>2021-03-02T12:43:57Z</time>
        <extensions>
          <gpxtpx:TrackPointExtension xmlns:gpxtpx="http://www.garmin.com/xmlschemas/TrackPointExtension/v1">
            <gpxtpx:hr>151</gpxtpx:hr>
          </gpxtpx:TrackPointExtension>
        </extensions>
      </trkpt>
      <trkpt lat="46.09353" lon="6.25239">
        <ele>834.7</ele>
        <time>2021-03-02T12:43:58Z</time>
        <extensions>
          <gpxtpx:TrackPointExtension xmlns:gpxtpx="http://www.garmin.com/xmlschemas/TrackPointExtension/v1">
            <gpxtpx:hr>150</gpxtpx:hr>
          </gpxtpx:TrackPointExtension>
        </extensions>
      </trkpt>
      <trkpt lat="46.09351" lon="6.25236">
        <ele>834.9</ele>
        <time>2021-03-02T12:43:59Z</time>
        <extensions>
          <gpxtpx:TrackPointExtension xmlns:gpxtpx="http://www.garmin.com/xmlschemas/TrackPointExtension/v1">
            <gpxtpx:hr>150</gpxtpx:hr>
          </gpxtpx:TrackPointExtension>
        </extensions>
      </trkpt>
      <trkpt lat="46.09349" lon="6.25234">
        <ele>835.1</ele>
        <time>2021-03-02T12:44:00Z</time>
        <extensions>
          <gpxtpx:TrackPointExtension xmlns:gpxtpx="http://www.garmin.com/xmlschemas/TrackPointExtension/v1">
            <gpxtpx:hr>150</gpxtpx:hr>
          </gpxtpx:TrackPointExtension>
        </extensions>
      </trkpt>
      <trkpt lat="46.09347" lon="6.25231">
        <ele>835.3</ele>
        <time>2021-03-02T12:44:01Z</time>
        <extensions>
          <gpxtpx:TrackPointExtension xmlns:gpxtpx="http://www.garmin.com/xmlschemas/TrackPointExtension/v1">
            <gpxtpx:hr>150</gpxtpx:hr>
          </gpxtpx:TrackPointExtension>
        </extensions>
      </trkpt>
      <trkpt lat="46.09345" lon="6.25228">
        <ele>835.6</ele>
        <time>2021-03-02T12:44:02Z</time>
        <extensions>
          <gpxtpx:TrackPointExtension xmlns:gpxtpx="http://www.garmin.com/xmlschemas/TrackPointExtension/v1">
            <gpxtpx:hr>150</gpxtpx:hr>
          </gpxtpx:TrackPointExtension>
        </extensions>
      </trkpt>
      <trkpt lat="46.09343" lon="6.25225">
        <ele>835.8</ele>
        <time>2021-03-02T12:44:03Z</time>
        <extensions>
          <gpxtpx:TrackPointExtension xmlns:gpxtpx="http://www.garmin.com/xmlschemas/TrackPointExtension/v1">
            <gpxtpx:hr>151</gpxtpx:hr>
          </gpxtpx:TrackPointExtension>
        </extensions>
      </trkpt>
      <trkpt lat="46.09341" lon="6.25222">
        <ele>836</ele>
        <time>2021-03-02T12:44:04Z</time>
        <extensions>
          <gpxtpx:TrackPointExtension xmlns:gpxtpx="http://www.garmin.com/xmlschemas/TrackPointExtension/v1">
            <gpxtpx:hr>151</gpxtpx:hr>
          </gpxtpx:TrackPointExtension>
        </extensions>
      </trkpt>
      <trkpt lat="46.09339" lon="6.25219">
        <ele>836.2</ele>
        <time>2021-03-02T12:44:05Z</time>
        <extensions>
          <gpxtpx:TrackPointExtension xmlns:gpxtpx="http://www.garmin.com/xmlschemas/TrackPointExtension/v1">
            <gpxtpx:hr>151</gpxtpx:hr>
          </gpxtpx:TrackPointExtension>
        </extensions>
      </trkpt>
      <trkpt lat="46.09337" lon="6.25216">
        <ele>836.4</ele>
        <time>2021-03-02T12:44:06Z</time>
        <extensions>
          <gpxtpx:TrackPointExtension xmlns:gpxtpx="http://www.garmin.com/xmlschemas/TrackPointExtension/v1">
            <gpxtpx:hr>151</gpxtpx:hr>
          </gpxtpx:TrackPointExtension>
        </extensions>
      </trkpt>
      <trkpt lat="46.09335" lon="6.25213">
        <ele>836.5</ele>
        <time>2021-03-02T12:44:07Z</time>
        <extensions>
          <gpxtpx:TrackPointExtension xmlns:gpxtpx="http://www.garmin.com/xmlschemas/TrackPointExtension/v1">
            <gpxtpx:hr>151</gpxtpx:hr>
          </gpxtpx:TrackPointExtension>
        </extensions>
      </trkpt>
      <trkpt lat="46.09333" lon="6.2521">
        <ele>836.7</ele>
        <time>2021-03-02T12:44:08Z</time>
        <extensions>
          <gpxtpx:TrackPointExtension xmlns:gpxtpx="http://www.garmin.com/xmlschemas/TrackPointExtension/v1">
            <gpxtpx:hr>151</gpxtpx:hr>
          </gpxtpx:TrackPointExtension>
        </extensions>
      </trkpt>
      <trkpt lat="46.09331" lon="6.25207">
        <ele>836.9</ele>
        <time>2021-03-02T12:44:09Z</time>
        <extensions>
          <gpxtpx:TrackPointExtension xmlns:gpxtpx="http://www.garmin.com/xmlschemas/TrackPointExtension/v1">
            <gpxtpx:hr>151</gpxtpx:hr>
          </gpxtpx:TrackPointExtension>
        </extensions>
      </trkpt>
      <trkpt lat="46.09329" lon="6.25204">
        <ele>837.1</ele>
        <time>2021-03-02T12:44:10Z</time>
        <extensions>
          <gpxtpx:TrackPointExtension xmlns:gpxtpx="http://www.garmin.com/xmlschemas/TrackPointExtension/v1">
            <gpxtpx:hr>151</gpxtpx:hr>
          </gpxtpx:TrackPointExtension>
        </extensions>
      </trkpt>
      <trkpt lat="46.09327" lon="6.25201">
        <ele>837.2</ele>
        <time>2021-03-02T12:44:11Z</time>
        <extensions>
          <gpxtpx:TrackPointExtension xmlns:gpxtpx="http://www.garmin.com/xmlschemas/TrackPointExtension/v1">
            <gpxtpx:hr>151</gpxtpx:hr>
          </gpxtpx:TrackPointExtension>
        </extensions>
      </trkpt>
      <trkpt lat="46.09325" lon="6.25197">
        <ele>837.4</ele>
        <time>2021-03-02T12:44:12Z</time>
        <extensions>
          <gpxtpx:TrackPointExtension xmlns:gpxtpx="http://www.garmin.com/xmlschemas/TrackPointExtension/v1">
            <gpxtpx:hr>151</gpxtpx:hr>
          </gpxtpx:TrackPointExtension>
        </extensions>
      </trkpt>
      <trkpt lat="46.09323" lon="6.25194">
        <ele>837.5</ele>
        <time>2021-03-02T12:44:13Z</time>
        <extensions>
          <gpxtpx:TrackPointExtension xmlns:gpxtpx="http://www.garmin.com/xmlschemas/TrackPointExtension/v1">
            <gpxtpx:hr>151</gpxtpx:hr>
          </gpxtpx:TrackPointExtension>
        </extensions>
      </trkpt>
      <trkpt lat="46.09321" lon="6.25191">
        <ele>837.7</ele>
        <time>2021-03-02T12:44:14Z</time>
        <extensions>
          <gpxtpx:TrackPointExtension xmlns:gpxtpx="http://www.garmin.com/xmlschemas/TrackPointExtension/v1">
            <gpxtpx:hr>151</gpxtpx:hr>
          </gpxtpx:TrackPointExtension>
        </extensions>
      </trkpt>
      <trkpt lat="46.09318" lon="6.25187">
        <ele>837.8</ele>
        <time>2021-03-02T12:44:15Z</time>
        <extensions>
          <gpxtpx:TrackPointExtension xmlns:gpxtpx="http://www.garmin.com/xmlschemas/TrackPointExtension/v1">
            <gpxtpx:hr>150</gpxtpx:hr>
          </gpxtpx:TrackPointExtension>
        </extensions>
      </trkpt>
      <trkpt lat="46.09316" lon="6.25184">
        <ele>838</ele>
        <time>2021-03-02T12:44:16Z</time>
        <extensions>
          <gpxtpx:TrackPointExtension xmlns:gpxtpx="http://www.garmin.com/xmlschemas/TrackPointExtension/v1">
            <gpxtpx:hr>150</gpxtpx:hr>
          </gpxtpx:TrackPointExtension>
        </extensions>
      </trkpt>
      <trkpt lat="46.09314" lon="6.2518">
        <ele>838.1</ele>
        <time>2021-03-02T12:44:17Z</time>
        <extensions>
          <gpxtpx:TrackPointExtension xmlns:gpxtpx="http://www.garmin.com/xmlschemas/TrackPointExtension/v1">
            <gpxtpx:hr>150</gpxtpx:hr>
          </gpxtpx:TrackPointExtension>
        </extensions>
      </trkpt>
      <trkpt lat="46.09312" lon="6.25177">
        <ele>838.2</ele>
        <time>2021-03-02T12:44:18Z</time>
        <extensions>
          <gpxtpx:TrackPointExtension xmlns:gpxtpx="http://www.garmin.com/xmlschemas/TrackPointExtension/v1">
            <gpxtpx:hr>150</gpxtpx:hr>
          </gpxtpx:TrackPointExtension>
        </extensions>
      </trkpt>
      <trkpt lat="46.09309" lon="6.25174">
        <ele>838.4</ele>
        <time>2021-03-02T12:44:19Z</time>
        <extensions>
          <gpxtpx:TrackPointExtension xmlns:gpxtpx="http://www.garmin.com/xmlschemas/TrackPointExtension/v1">
            <gpxtpx:hr>151</gpxtpx:hr>
          </gpxtpx:TrackPointExtension>
        </extensions>
      </trkpt>
      <trkpt lat="46.09307" lon="6.25171">
        <ele>838.5</ele>
        <time>2021-03-02T12:44:20Z</time>
        <extensions>
          <gpxtpx:TrackPointExtension xmlns:gpxtpx="http://www.garmin.com/xmlschemas/TrackPointExtension/v1">
            <gpxtpx:hr>151</gpxtpx:hr>
          </gpxtpx:TrackPointExtension>
        </extensions>
      </trkpt>
      <trkpt lat="46.09305" lon="6.25167">
        <ele>838.6</ele>
        <time>2021-03-02T12:44:21Z</time>
        <extensions>
          <gpxtpx:TrackPointExtension xmlns:gpxtpx="http://www.garmin.com/xmlschemas/TrackPointExtension/v1">
            <gpxtpx:hr>151</gpxtpx:hr>
          </gpxtpx:TrackPointExtension>
        </extensions>
      </trkpt>
      <trkpt lat="46.09302" lon="6.25163">
        <ele>838.8</ele>
        <time>2021-03-02T12:44:22Z</time>
        <extensions>
          <gpxtpx:TrackPointExtension xmlns:gpxtpx="http://www.garmin.com/xmlschemas/TrackPointExtension/v1">
            <gpxtpx:hr>151</gpxtpx:hr>
          </gpxtpx:TrackPointExtension>
        </extensions>
      </trkpt>
      <trkpt lat="46.093" lon="6.2516">
        <ele>838.9</ele>
        <time>2021-03-02T12:44:23Z</time>
        <extensions>
          <gpxtpx:TrackPointExtension xmlns:gpxtpx="http://www.garmin.com/xmlschemas/TrackPointExtension/v1">
            <gpxtpx:hr>151</gpxtpx:hr>
          </gpxtpx:TrackPointExtension>
        </extensions>
      </trkpt>
      <trkpt lat="46.09297" lon="6.25156">
        <ele>839.1</ele>
        <time>2021-03-02T12:44:24Z</time>
        <extensions>
          <gpxtpx:TrackPointExtension xmlns:gpxtpx="http://www.garmin.com/xmlschemas/TrackPointExtension/v1">
            <gpxtpx:hr>151</gpxtpx:hr>
          </gpxtpx:TrackPointExtension>
        </extensions>
      </trkpt>
      <trkpt lat="46.09294" lon="6.25153">
        <ele>839.2</ele>
        <time>2021-03-02T12:44:25Z</time>
        <extensions>
          <gpxtpx:TrackPointExtension xmlns:gpxtpx="http://www.garmin.com/xmlschemas/TrackPointExtension/v1">
            <gpxtpx:hr>151</gpxtpx:hr>
          </gpxtpx:TrackPointExtension>
        </extensions>
      </trkpt>
      <trkpt lat="46.09291" lon="6.2515">
        <ele>839.4</ele>
        <time>2021-03-02T12:44:26Z</time>
        <extensions>
          <gpxtpx:TrackPointExtension xmlns:gpxtpx="http://www.garmin.com/xmlschemas/TrackPointExtension/v1">
            <gpxtpx:hr>151</gpxtpx:hr>
          </gpxtpx:TrackPointExtension>
        </extensions>
      </trkpt>
      <trkpt lat="46.09288" lon="6.25146">
        <ele>839.5</ele>
        <time>2021-03-02T12:44:27Z</time>
        <extensions>
          <gpxtpx:TrackPointExtension xmlns:gpxtpx="http://www.garmin.com/xmlschemas/TrackPointExtension/v1">
            <gpxtpx:hr>151</gpxtpx:hr>
          </gpxtpx:TrackPointExtension>
        </extensions>
      </trkpt>
      <trkpt lat="46.09284" lon="6.25143">
        <ele>839.7</ele>
        <time>2021-03-02T12:44:28Z</time>
        <extensions>
          <gpxtpx:TrackPointExtension xmlns:gpxtpx="http://www.garmin.com/xmlschemas/TrackPointExtension/v1">
            <gpxtpx:hr>151</gpxtpx:hr>
          </gpxtpx:TrackPointExtension>
        </extensions>
      </trkpt>
      <trkpt lat="46.09281" lon="6.2514">
        <ele>839.8</ele>
        <time>2021-03-02T12:44:29Z</time>
        <extensions>
          <gpxtpx:TrackPointExtension xmlns:gpxtpx="http://www.garmin.com/xmlschemas/TrackPointExtension/v1">
            <gpxtpx:hr>151</gpxtpx:hr>
          </gpxtpx:TrackPointExtension>
        </extensions>
      </trkpt>
      <trkpt lat="46.09277" lon="6.25138">
        <ele>839.9</ele>
        <time>2021-03-02T12:44:30Z</time>
        <extensions>
          <gpxtpx:TrackPointExtension xmlns:gpxtpx="http://www.garmin.com/xmlschemas/TrackPointExtension/v1">
            <gpxtpx:hr>150</gpxtpx:hr>
          </gpxtpx:TrackPointExtension>
        </extensions>
      </trkpt>
      <trkpt lat="46.09274" lon="6.25135">
        <ele>840</ele>
        <time>2021-03-02T12:44:31Z</time>
        <extensions>
          <gpxtpx:TrackPointExtension xmlns:gpxtpx="http://www.garmin.com/xmlschemas/TrackPointExtension/v1">
            <gpxtpx:hr>150</gpxtpx:hr>
          </gpxtpx:TrackPointExtension>
        </extensions>
      </trkpt>
      <trkpt lat="46.0927" lon="6.25132">
        <ele>840.2</ele>
        <time>2021-03-02T12:44:32Z</time>
        <extensions>
          <gpxtpx:TrackPointExtension xmlns:gpxtpx="http://www.garmin.com/xmlschemas/TrackPointExtension/v1">
            <gpxtpx:hr>150</gpxtpx:hr>
          </gpxtpx:TrackPointExtension>
        </extensions>
      </trkpt>
      <trkpt lat="46.09267" lon="6.2513">
        <ele>840.3</ele>
        <time>2021-03-02T12:44:33Z</time>
        <extensions>
          <gpxtpx:TrackPointExtension xmlns:gpxtpx="http://www.garmin.com/xmlschemas/TrackPointExtension/v1">
            <gpxtpx:hr>150</gpxtpx:hr>
          </gpxtpx:TrackPointExtension>
        </extensions>
      </trkpt>
      <trkpt lat="46.09263" lon="6.25127">
        <ele>840.5</ele>
        <time>2021-03-02T12:44:34Z</time>
        <extensions>
          <gpxtpx:TrackPointExtension xmlns:gpxtpx="http://www.garmin.com/xmlschemas/TrackPointExtension/v1">
            <gpxtpx:hr>150</gpxtpx:hr>
          </gpxtpx:TrackPointExtension>
        </extensions>
      </trkpt>
      <trkpt lat="46.0926" lon="6.25124">
        <ele>840.6</ele>
        <time>2021-03-02T12:44:35Z</time>
        <extensions>
          <gpxtpx:TrackPointExtension xmlns:gpxtpx="http://www.garmin.com/xmlschemas/TrackPointExtension/v1">
            <gpxtpx:hr>150</gpxtpx:hr>
          </gpxtpx:TrackPointExtension>
        </extensions>
      </trkpt>
      <trkpt lat="46.09256" lon="6.25121">
        <ele>840.8</ele>
        <time>2021-03-02T12:44:36Z</time>
        <extensions>
          <gpxtpx:TrackPointExtension xmlns:gpxtpx="http://www.garmin.com/xmlschemas/TrackPointExtension/v1">
            <gpxtpx:hr>150</gpxtpx:hr>
          </gpxtpx:TrackPointExtension>
        </extensions>
      </trkpt>
      <trkpt lat="46.09253" lon="6.25119">
        <ele>840.9</ele>
        <time>2021-03-02T12:44:37Z</time>
        <extensions>
          <gpxtpx:TrackPointExtension xmlns:gpxtpx="http://www.garmin.com/xmlschemas/TrackPointExtension/v1">
            <gpxtpx:hr>150</gpxtpx:hr>
          </gpxtpx:TrackPointExtension>
        </extensions>
      </trkpt>
      <trkpt lat="46.09249" lon="6.25116">
        <ele>841.1</ele>
        <time>2021-03-02T12:44:38Z</time>
        <extensions>
          <gpxtpx:TrackPointExtension xmlns:gpxtpx="http://www.garmin.com/xmlschemas/TrackPointExtension/v1">
            <gpxtpx:hr>150</gpxtpx:hr>
          </gpxtpx:TrackPointExtension>
        </extensions>
      </trkpt>
      <trkpt lat="46.09246" lon="6.25114">
        <ele>841.3</ele>
        <time>2021-03-02T12:44:39Z</time>
        <extensions>
          <gpxtpx:TrackPointExtension xmlns:gpxtpx="http://www.garmin.com/xmlschemas/TrackPointExtension/v1">
            <gpxtpx:hr>150</gpxtpx:hr>
          </gpxtpx:TrackPointExtension>
        </extensions>
      </trkpt>
      <trkpt lat="46.09242" lon="6.25111">
        <ele>841.5</ele>
        <time>2021-03-02T12:44:40Z</time>
        <extensions>
          <gpxtpx:TrackPointExtension xmlns:gpxtpx="http://www.garmin.com/xmlschemas/TrackPointExtension/v1">
            <gpxtpx:hr>150</gpxtpx:hr>
          </gpxtpx:TrackPointExtension>
        </extensions>
      </trkpt>
      <trkpt lat="46.09239" lon="6.25109">
        <ele>841.7</ele>
        <time>2021-03-02T12:44:41Z</time>
        <extensions>
          <gpxtpx:TrackPointExtension xmlns:gpxtpx="http://www.garmin.com/xmlschemas/TrackPointExtension/v1">
            <gpxtpx:hr>150</gpxtpx:hr>
          </gpxtpx:TrackPointExtension>
        </extensions>
      </trkpt>
      <trkpt lat="46.09235" lon="6.25107">
        <ele>841.9</ele>
        <time>2021-03-02T12:44:42Z</time>
        <extensions>
          <gpxtpx:TrackPointExtension xmlns:gpxtpx="http://www.garmin.com/xmlschemas/TrackPointExtension/v1">
            <gpxtpx:hr>150</gpxtpx:hr>
          </gpxtpx:TrackPointExtension>
        </extensions>
      </trkpt>
      <trkpt lat="46.09232" lon="6.25104">
        <ele>842.1</ele>
        <time>2021-03-02T12:44:43Z</time>
        <extensions>
          <gpxtpx:TrackPointExtension xmlns:gpxtpx="http://www.garmin.com/xmlschemas/TrackPointExtension/v1">
            <gpxtpx:hr>150</gpxtpx:hr>
          </gpxtpx:TrackPointExtension>
        </extensions>
      </trkpt>
      <trkpt lat="46.09229" lon="6.25102">
        <ele>842.3</ele>
        <time>2021-03-02T12:44:44Z</time>
        <extensions>
          <gpxtpx:TrackPointExtension xmlns:gpxtpx="http://www.garmin.com/xmlschemas/TrackPointExtension/v1">
            <gpxtpx:hr>149</gpxtpx:hr>
          </gpxtpx:TrackPointExtension>
        </extensions>
      </trkpt>
      <trkpt lat="46.09225" lon="6.251">
        <ele>842.6</ele>
        <time>2021-03-02T12:44:45Z</time>
        <extensions>
          <gpxtpx:TrackPointExtension xmlns:gpxtpx="http://www.garmin.com/xmlschemas/TrackPointExtension/v1">
            <gpxtpx:hr>149</gpxtpx:hr>
          </gpxtpx:TrackPointExtension>
        </extensions>
      </trkpt>
      <trkpt lat="46.09222" lon="6.25097">
        <ele>842.9</ele>
        <time>2021-03-02T12:44:46Z</time>
        <extensions>
          <gpxtpx:TrackPointExtension xmlns:gpxtpx="http://www.garmin.com/xmlschemas/TrackPointExtension/v1">
            <gpxtpx:hr>149</gpxtpx:hr>
          </gpxtpx:TrackPointExtension>
        </extensions>
      </trkpt>
      <trkpt lat="46.09219" lon="6.25095">
        <ele>843.1</ele>
        <time>2021-03-02T12:44:47Z</time>
        <extensions>
          <gpxtpx:TrackPointExtension xmlns:gpxtpx="http://www.garmin.com/xmlschemas/TrackPointExtension/v1">
            <gpxtpx:hr>148</gpxtpx:hr>
          </gpxtpx:TrackPointExtension>
        </extensions>
      </trkpt>
      <trkpt lat="46.09216" lon="6.25093">
        <ele>843.4</ele>
        <time>2021-03-02T12:44:48Z</time>
        <extensions>
          <gpxtpx:TrackPointExtension xmlns:gpxtpx="http://www.garmin.com/xmlschemas/TrackPointExtension/v1">
            <gpxtpx:hr>148</gpxtpx:hr>
          </gpxtpx:TrackPointExtension>
        </extensions>
      </trkpt>
      <trkpt lat="46.09214" lon="6.25092">
        <ele>843.7</ele>
        <time>2021-03-02T12:44:49Z</time>
        <extensions>
          <gpxtpx:TrackPointExtension xmlns:gpxtpx="http://www.garmin.com/xmlschemas/TrackPointExtension/v1">
            <gpxtpx:hr>148</gpxtpx:hr>
          </gpxtpx:TrackPointExtension>
        </extensions>
      </trkpt>
      <trkpt lat="46.09211" lon="6.2509">
        <ele>844</ele>
        <time>2021-03-02T12:44:50Z</time>
        <extensions>
          <gpxtpx:TrackPointExtension xmlns:gpxtpx="http://www.garmin.com/xmlschemas/TrackPointExtension/v1">
            <gpxtpx:hr>147</gpxtpx:hr>
          </gpxtpx:TrackPointExtension>
        </extensions>
      </trkpt>
      <trkpt lat="46.09208" lon="6.25088">
        <ele>844.3</ele>
        <time>2021-03-02T12:44:51Z</time>
        <extensions>
          <gpxtpx:TrackPointExtension xmlns:gpxtpx="http://www.garmin.com/xmlschemas/TrackPointExtension/v1">
            <gpxtpx:hr>147</gpxtpx:hr>
          </gpxtpx:TrackPointExtension>
        </extensions>
      </trkpt>
      <trkpt lat="46.09205" lon="6.25086">
        <ele>844.6</ele>
        <time>2021-03-02T12:44:52Z</time>
        <extensions>
          <gpxtpx:TrackPointExtension xmlns:gpxtpx="http://www.garmin.com/xmlschemas/TrackPointExtension/v1">
            <gpxtpx:hr>147</gpxtpx:hr>
          </gpxtpx:TrackPointExtension>
        </extensions>
      </trkpt>
      <trkpt lat="46.09203" lon="6.25084">
        <ele>844.9</ele>
        <time>2021-03-02T12:44:53Z</time>
        <extensions>
          <gpxtpx:TrackPointExtension xmlns:gpxtpx="http://www.garmin.com/xmlschemas/TrackPointExtension/v1">
            <gpxtpx:hr>147</gpxtpx:hr>
          </gpxtpx:TrackPointExtension>
        </extensions>
      </trkpt>
      <trkpt lat="46.092" lon="6.25082">
        <ele>845.1</ele>
        <time>2021-03-02T12:44:54Z</time>
        <extensions>
          <gpxtpx:TrackPointExtension xmlns:gpxtpx="http://www.garmin.com/xmlschemas/TrackPointExtension/v1">
            <gpxtpx:hr>146</gpxtpx:hr>
          </gpxtpx:TrackPointExtension>
        </extensions>
      </trkpt>
      <trkpt lat="46.09198" lon="6.2508">
        <ele>845.4</ele>
        <time>2021-03-02T12:44:55Z</time>
        <extensions>
          <gpxtpx:TrackPointExtension xmlns:gpxtpx="http://www.garmin.com/xmlschemas/TrackPointExtension/v1">
            <gpxtpx:hr>146</gpxtpx:hr>
          </gpxtpx:TrackPointExtension>
        </extensions>
      </trkpt>
      <trkpt lat="46.09195" lon="6.25079">
        <ele>845.7</ele>
        <time>2021-03-02T12:44:56Z</time>
        <extensions>
          <gpxtpx:TrackPointExtension xmlns:gpxtpx="http://www.garmin.com/xmlschemas/TrackPointExtension/v1">
            <gpxtpx:hr>146</gpxtpx:hr>
          </gpxtpx:TrackPointExtension>
        </extensions>
      </trkpt>
      <trkpt lat="46.09193" lon="6.25077">
        <ele>846</ele>
        <time>2021-03-02T12:44:57Z</time>
        <extensions>
          <gpxtpx:TrackPointExtension xmlns:gpxtpx="http://www.garmin.com/xmlschemas/TrackPointExtension/v1">
            <gpxtpx:hr>146</gpxtpx:hr>
          </gpxtpx:TrackPointExtension>
        </extensions>
      </trkpt>
      <trkpt lat="46.0919" lon="6.25075">
        <ele>846.3</ele>
        <time>2021-03-02T12:44:58Z</time>
        <extensions>
          <gpxtpx:TrackPointExtension xmlns:gpxtpx="http://www.garmin.com/xmlschemas/TrackPointExtension/v1">
            <gpxtpx:hr>146</gpxtpx:hr>
          </gpxtpx:TrackPointExtension>
        </extensions>
      </trkpt>
      <trkpt lat="46.09188" lon="6.25073">
        <ele>846.6</ele>
        <time>2021-03-02T12:44:59Z</time>
        <extensions>
          <gpxtpx:TrackPointExtension xmlns:gpxtpx="http://www.garmin.com/xmlschemas/TrackPointExtension/v1">
            <gpxtpx:hr>146</gpxtpx:hr>
          </gpxtpx:TrackPointExtension>
        </extensions>
      </trkpt>
      <trkpt lat="46.09185" lon="6.25071">
        <ele>846.9</ele>
        <time>2021-03-02T12:45:00Z</time>
        <extensions>
          <gpxtpx:TrackPointExtension xmlns:gpxtpx="http://www.garmin.com/xmlschemas/TrackPointExtension/v1">
            <gpxtpx:hr>146</gpxtpx:hr>
          </gpxtpx:TrackPointExtension>
        </extensions>
      </trkpt>
      <trkpt lat="46.09183" lon="6.25069">
        <ele>847.1</ele>
        <time>2021-03-02T12:45:01Z</time>
        <extensions>
          <gpxtpx:TrackPointExtension xmlns:gpxtpx="http://www.garmin.com/xmlschemas/TrackPointExtension/v1">
            <gpxtpx:hr>146</gpxtpx:hr>
          </gpxtpx:TrackPointExtension>
        </extensions>
      </trkpt>
      <trkpt lat="46.0918" lon="6.25068">
        <ele>847.4</ele>
        <time>2021-03-02T12:45:02Z</time>
        <extensions>
          <gpxtpx:TrackPointExtension xmlns:gpxtpx="http://www.garmin.com/xmlschemas/TrackPointExtension/v1">
            <gpxtpx:hr>146</gpxtpx:hr>
          </gpxtpx:TrackPointExtension>
        </extensions>
      </trkpt>
      <trkpt lat="46.09178" lon="6.25066">
        <ele>847.7</ele>
        <time>2021-03-02T12:45:03Z</time>
        <extensions>
          <gpxtpx:TrackPointExtension xmlns:gpxtpx="http://www.garmin.com/xmlschemas/TrackPointExtension/v1">
            <gpxtpx:hr>146</gpxtpx:hr>
          </gpxtpx:TrackPointExtension>
        </extensions>
      </trkpt>
      <trkpt lat="46.09175" lon="6.25064">
        <ele>848</ele>
        <time>2021-03-02T12:45:04Z</time>
        <extensions>
          <gpxtpx:TrackPointExtension xmlns:gpxtpx="http://www.garmin.com/xmlschemas/TrackPointExtension/v1">
            <gpxtpx:hr>146</gpxtpx:hr>
          </gpxtpx:TrackPointExtension>
        </extensions>
      </trkpt>
      <trkpt lat="46.09173" lon="6.25062">
        <ele>848.3</ele>
        <time>2021-03-02T12:45:05Z</time>
        <extensions>
          <gpxtpx:TrackPointExtension xmlns:gpxtpx="http://www.garmin.com/xmlschemas/TrackPointExtension/v1">
            <gpxtpx:hr>146</gpxtpx:hr>
          </gpxtpx:TrackPointExtension>
        </extensions>
      </trkpt>
      <trkpt lat="46.09171" lon="6.25061">
        <ele>848.6</ele>
        <time>2021-03-02T12:45:06Z</time>
        <extensions>
          <gpxtpx:TrackPointExtension xmlns:gpxtpx="http://www.garmin.com/xmlschemas/TrackPointExtension/v1">
            <gpxtpx:hr>146</gpxtpx:hr>
          </gpxtpx:TrackPointExtension>
        </extensions>
      </trkpt>
      <trkpt lat="46.09168" lon="6.25059">
        <ele>848.9</ele>
        <time>2021-03-02T12:45:07Z</time>
        <extensions>
          <gpxtpx:TrackPointExtension xmlns:gpxtpx="http://www.garmin.com/xmlschemas/TrackPointExtension/v1">
            <gpxtpx:hr>146</gpxtpx:hr>
          </gpxtpx:TrackPointExtension>
        </extensions>
      </trkpt>
      <trkpt lat="46.09166" lon="6.25057">
        <ele>849.1</ele>
        <time>2021-03-02T12:45:08Z</time>
        <extensions>
          <gpxtpx:TrackPointExtension xmlns:gpxtpx="http://www.garmin.com/xmlschemas/TrackPointExtension/v1">
            <gpxtpx:hr>146</gpxtpx:hr>
          </gpxtpx:TrackPointExtension>
        </extensions>
      </trkpt>
      <trkpt lat="46.09163" lon="6.25055">
        <ele>849.4</ele>
        <time>2021-03-02T12:45:09Z</time>
        <extensions>
          <gpxtpx:TrackPointExtension xmlns:gpxtpx="http://www.garmin.com/xmlschemas/TrackPointExtension/v1">
            <gpxtpx:hr>146</gpxtpx:hr>
          </gpxtpx:TrackPointExtension>
        </extensions>
      </trkpt>
      <trkpt lat="46.09161" lon="6.25053">
        <ele>849.7</ele>
        <time>2021-03-02T12:45:10Z</time>
        <extensions>
          <gpxtpx:TrackPointExtension xmlns:gpxtpx="http://www.garmin.com/xmlschemas/TrackPointExtension/v1">
            <gpxtpx:hr>146</gpxtpx:hr>
          </gpxtpx:TrackPointExtension>
        </extensions>
      </trkpt>
      <trkpt lat="46.09158" lon="6.2505">
        <ele>850</ele>
        <time>2021-03-02T12:45:11Z</time>
        <extensions>
          <gpxtpx:TrackPointExtension xmlns:gpxtpx="http://www.garmin.com/xmlschemas/TrackPointExtension/v1">
            <gpxtpx:hr>145</gpxtpx:hr>
          </gpxtpx:TrackPointExtension>
        </extensions>
      </trkpt>
      <trkpt lat="46.09156" lon="6.25048">
        <ele>850.3</ele>
        <time>2021-03-02T12:45:12Z</time>
        <extensions>
          <gpxtpx:TrackPointExtension xmlns:gpxtpx="http://www.garmin.com/xmlschemas/TrackPointExtension/v1">
            <gpxtpx:hr>145</gpxtpx:hr>
          </gpxtpx:TrackPointExtension>
        </extensions>
      </trkpt>
      <trkpt lat="46.09154" lon="6.25046">
        <ele>850.6</ele>
        <time>2021-03-02T12:45:13Z</time>
        <extensions>
          <gpxtpx:TrackPointExtension xmlns:gpxtpx="http://www.garmin.com/xmlschemas/TrackPointExtension/v1">
            <gpxtpx:hr>145</gpxtpx:hr>
          </gpxtpx:TrackPointExtension>
        </extensions>
      </trkpt>
      <trkpt lat="46.09152" lon="6.25043">
        <ele>850.9</ele>
        <time>2021-03-02T12:45:14Z</time>
        <extensions>
          <gpxtpx:TrackPointExtension xmlns:gpxtpx="http://www.garmin.com/xmlschemas/TrackPointExtension/v1">
            <gpxtpx:hr>146</gpxtpx:hr>
          </gpxtpx:TrackPointExtension>
        </extensions>
      </trkpt>
      <trkpt lat="46.09149" lon="6.25041">
        <ele>851.2</ele>
        <time>2021-03-02T12:45:15Z</time>
        <extensions>
          <gpxtpx:TrackPointExtension xmlns:gpxtpx="http://www.garmin.com/xmlschemas/TrackPointExtension/v1">
            <gpxtpx:hr>146</gpxtpx:hr>
          </gpxtpx:TrackPointExtension>
        </extensions>
      </trkpt>
      <trkpt lat="46.09147" lon="6.25038">
        <ele>851.5</ele>
        <time>2021-03-02T12:45:16Z</time>
        <extensions>
          <gpxtpx:TrackPointExtension xmlns:gpxtpx="http://www.garmin.com/xmlschemas/TrackPointExtension/v1">
            <gpxtpx:hr>146</gpxtpx:hr>
          </gpxtpx:TrackPointExtension>
        </extensions>
      </trkpt>
      <trkpt lat="46.09145" lon="6.25035">
        <ele>851.7</ele>
        <time>2021-03-02T12:45:17Z</time>
        <extensions>
          <gpxtpx:TrackPointExtension xmlns:gpxtpx="http://www.garmin.com/xmlschemas/TrackPointExtension/v1">
            <gpxtpx:hr>146</gpxtpx:hr>
          </gpxtpx:TrackPointExtension>
        </extensions>
      </trkpt>
      <trkpt lat="46.09143" lon="6.25032">
        <ele>852</ele>
        <time>2021-03-02T12:45:18Z</time>
        <extensions>
          <gpxtpx:TrackPointExtension xmlns:gpxtpx="http://www.garmin.com/xmlschemas/TrackPointExtension/v1">
            <gpxtpx:hr>146</gpxtpx:hr>
          </gpxtpx:TrackPointExtension>
        </extensions>
      </trkpt>
      <trkpt lat="46.0914" lon="6.2503">
        <ele>852.2</ele>
        <time>2021-03-02T12:45:19Z</time>
        <extensions>
          <gpxtpx:TrackPointExtension xmlns:gpxtpx="http://www.garmin.com/xmlschemas/TrackPointExtension/v1">
            <gpxtpx:hr>147</gpxtpx:hr>
          </gpxtpx:TrackPointExtension>
        </extensions>
      </trkpt>
      <trkpt lat="46.09138" lon="6.25027">
        <ele>852.5</ele>
        <time>2021-03-02T12:45:20Z</time>
        <extensions>
          <gpxtpx:TrackPointExtension xmlns:gpxtpx="http://www.garmin.com/xmlschemas/TrackPointExtension/v1">
            <gpxtpx:hr>147</gpxtpx:hr>
          </gpxtpx:TrackPointExtension>
        </extensions>
      </trkpt>
      <trkpt lat="46.09136" lon="6.25025">
        <ele>852.7</ele>
        <time>2021-03-02T12:45:21Z</time>
        <extensions>
          <gpxtpx:TrackPointExtension xmlns:gpxtpx="http://www.garmin.com/xmlschemas/TrackPointExtension/v1">
            <gpxtpx:hr>147</gpxtpx:hr>
          </gpxtpx:TrackPointExtension>
        </extensions>
      </trkpt>
      <trkpt lat="46.09134" lon="6.25021">
        <ele>852.9</ele>
        <time>2021-03-02T12:45:22Z</time>
        <extensions>
          <gpxtpx:TrackPointExtension xmlns:gpxtpx="http://www.garmin.com/xmlschemas/TrackPointExtension/v1">
            <gpxtpx:hr>148</gpxtpx:hr>
          </gpxtpx:TrackPointExtension>
        </extensions>
      </trkpt>
      <trkpt lat="46.09132" lon="6.25018">
        <ele>853.1</ele>
        <time>2021-03-02T12:45:23Z</time>
        <extensions>
          <gpxtpx:TrackPointExtension xmlns:gpxtpx="http://www.garmin.com/xmlschemas/TrackPointExtension/v1">
            <gpxtpx:hr>148</gpxtpx:hr>
          </gpxtpx:TrackPointExtension>
        </extensions>
      </trkpt>
      <trkpt lat="46.0913" lon="6.25015">
        <ele>853.3</ele>
        <time>2021-03-02T12:45:24Z</time>
        <extensions>
          <gpxtpx:TrackPointExtension xmlns:gpxtpx="http://www.garmin.com/xmlschemas/TrackPointExtension/v1">
            <gpxtpx:hr>148</gpxtpx:hr>
          </gpxtpx:TrackPointExtension>
        </extensions>
      </trkpt>
      <trkpt lat="46.09128" lon="6.25012">
        <ele>853.5</ele>
        <time>2021-03-02T12:45:25Z</time>
        <extensions>
          <gpxtpx:TrackPointExtension xmlns:gpxtpx="http://www.garmin.com/xmlschemas/TrackPointExtension/v1">
            <gpxtpx:hr>148</gpxtpx:hr>
          </gpxtpx:TrackPointExtension>
        </extensions>
      </trkpt>
      <trkpt lat="46.09125" lon="6.25009">
        <ele>853.7</ele>
        <time>2021-03-02T12:45:26Z</time>
        <extensions>
          <gpxtpx:TrackPointExtension xmlns:gpxtpx="http://www.garmin.com/xmlschemas/TrackPointExtension/v1">
            <gpxtpx:hr>149</gpxtpx:hr>
          </gpxtpx:TrackPointExtension>
        </extensions>
      </trkpt>
      <trkpt lat="46.09123" lon="6.25006">
        <ele>853.9</ele>
        <time>2021-03-02T12:45:27Z</time>
        <extensions>
          <gpxtpx:TrackPointExtension xmlns:gpxtpx="http://www.garmin.com/xmlschemas/TrackPointExtension/v1">
            <gpxtpx:hr>149</gpxtpx:hr>
          </gpxtpx:TrackPointExtension>
        </extensions>
      </trkpt>
      <trkpt lat="46.09121" lon="6.25002">
        <ele>854.1</ele>
        <time>2021-03-02T12:45:28Z</time>
        <extensions>
          <gpxtpx:TrackPointExtension xmlns:gpxtpx="http://www.garmin.com/xmlschemas/TrackPointExtension/v1">
            <gpxtpx:hr>149</gpxtpx:hr>
          </gpxtpx:TrackPointExtension>
        </extensions>
      </trkpt>
      <trkpt lat="46.09119" lon="6.24999">
        <ele>854.3</ele>
        <time>2021-03-02T12:45:29Z</time>
        <extensions>
          <gpxtpx:TrackPointExtension xmlns:gpxtpx="http://www.garmin.com/xmlschemas/TrackPointExtension/v1">
            <gpxtpx:hr>149</gpxtpx:hr>
          </gpxtpx:TrackPointExtension>
        </extensions>
      </trkpt>
      <trkpt lat="46.09117" lon="6.24995">
        <ele>854.5</ele>
        <time>2021-03-02T12:45:30Z</time>
        <extensions>
          <gpxtpx:TrackPointExtension xmlns:gpxtpx="http://www.garmin.com/xmlschemas/TrackPointExtension/v1">
            <gpxtpx:hr>149</gpxtpx:hr>
          </gpxtpx:TrackPointExtension>
        </extensions>
      </trkpt>
      <trkpt lat="46.09115" lon="6.24991">
        <ele>854.7</ele>
        <time>2021-03-02T12:45:31Z</time>
        <extensions>
          <gpxtpx:TrackPointExtension xmlns:gpxtpx="http://www.garmin.com/xmlschemas/TrackPointExtension/v1">
            <gpxtpx:hr>149</gpxtpx:hr>
          </gpxtpx:TrackPointExtension>
        </extensions>
      </trkpt>
      <trkpt lat="46.09112" lon="6.24987">
        <ele>854.9</ele>
        <time>2021-03-02T12:45:32Z</time>
        <extensions>
          <gpxtpx:TrackPointExtension xmlns:gpxtpx="http://www.garmin.com/xmlschemas/TrackPointExtension/v1">
            <gpxtpx:hr>149</gpxtpx:hr>
          </gpxtpx:TrackPointExtension>
        </extensions>
      </trkpt>
      <trkpt lat="46.0911" lon="6.24983">
        <ele>855.1</ele>
        <time>2021-03-02T12:45:33Z</time>
        <extensions>
          <gpxtpx:TrackPointExtension xmlns:gpxtpx="http://www.garmin.com/xmlschemas/TrackPointExtension/v1">
            <gpxtpx:hr>149</gpxtpx:hr>
          </gpxtpx:TrackPointExtension>
        </extensions>
      </trkpt>
      <trkpt lat="46.09108" lon="6.24979">
        <ele>855.3</ele>
        <time>2021-03-02T12:45:34Z</time>
        <extensions>
          <gpxtpx:TrackPointExtension xmlns:gpxtpx="http://www.garmin.com/xmlschemas/TrackPointExtension/v1">
            <gpxtpx:hr>149</gpxtpx:hr>
          </gpxtpx:TrackPointExtension>
        </extensions>
      </trkpt>
      <trkpt lat="46.09106" lon="6.24975">
        <ele>855.5</ele>
        <time>2021-03-02T12:45:35Z</time>
        <extensions>
          <gpxtpx:TrackPointExtension xmlns:gpxtpx="http://www.garmin.com/xmlschemas/TrackPointExtension/v1">
            <gpxtpx:hr>149</gpxtpx:hr>
          </gpxtpx:TrackPointExtension>
        </extensions>
      </trkpt>
      <trkpt lat="46.09105" lon="6.24971">
        <ele>855.6</ele>
        <time>2021-03-02T12:45:36Z</time>
        <extensions>
          <gpxtpx:TrackPointExtension xmlns:gpxtpx="http://www.garmin.com/xmlschemas/TrackPointExtension/v1">
            <gpxtpx:hr>149</gpxtpx:hr>
          </gpxtpx:TrackPointExtension>
        </extensions>
      </trkpt>
      <trkpt lat="46.09103" lon="6.24966">
        <ele>855.8</ele>
        <time>2021-03-02T12:45:37Z</time>
        <extensions>
          <gpxtpx:TrackPointExtension xmlns:gpxtpx="http://www.garmin.com/xmlschemas/TrackPointExtension/v1">
            <gpxtpx:hr>149</gpxtpx:hr>
          </gpxtpx:TrackPointExtension>
        </extensions>
      </trkpt>
      <trkpt lat="46.09101" lon="6.24962">
        <ele>855.9</ele>
        <time>2021-03-02T12:45:38Z</time>
        <extensions>
          <gpxtpx:TrackPointExtension xmlns:gpxtpx="http://www.garmin.com/xmlschemas/TrackPointExtension/v1">
            <gpxtpx:hr>149</gpxtpx:hr>
          </gpxtpx:TrackPointExtension>
        </extensions>
      </trkpt>
      <trkpt lat="46.09099" lon="6.24957">
        <ele>856.1</ele>
        <time>2021-03-02T12:45:39Z</time>
        <extensions>
          <gpxtpx:TrackPointExtension xmlns:gpxtpx="http://www.garmin.com/xmlschemas/TrackPointExtension/v1">
            <gpxtpx:hr>149</gpxtpx:hr>
          </gpxtpx:TrackPointExtension>
        </extensions>
      </trkpt>
      <trkpt lat="46.09098" lon="6.24952">
        <ele>856.2</ele>
        <time>2021-03-02T12:45:40Z</time>
        <extensions>
          <gpxtpx:TrackPointExtension xmlns:gpxtpx="http://www.garmin.com/xmlschemas/TrackPointExtension/v1">
            <gpxtpx:hr>149</gpxtpx:hr>
          </gpxtpx:TrackPointExtension>
        </extensions>
      </trkpt>
      <trkpt lat="46.09096" lon="6.24948">
        <ele>856.3</ele>
        <time>2021-03-02T12:45:41Z</time>
        <extensions>
          <gpxtpx:TrackPointExtension xmlns:gpxtpx="http://www.garmin.com/xmlschemas/TrackPointExtension/v1">
            <gpxtpx:hr>149</gpxtpx:hr>
          </gpxtpx:TrackPointExtension>
        </extensions>
      </trkpt>
      <trkpt lat="46.09095" lon="6.24942">
        <ele>856.3</ele>
        <time>2021-03-02T12:45:42Z</time>
        <extensions>
          <gpxtpx:TrackPointExtension xmlns:gpxtpx="http://www.garmin.com/xmlschemas/TrackPointExtension/v1">
            <gpxtpx:hr>149</gpxtpx:hr>
          </gpxtpx:TrackPointExtension>
        </extensions>
      </trkpt>
      <trkpt lat="46.09093" lon="6.24937">
        <ele>856.4</ele>
        <time>2021-03-02T12:45:43Z</time>
        <extensions>
          <gpxtpx:TrackPointExtension xmlns:gpxtpx="http://www.garmin.com/xmlschemas/TrackPointExtension/v1">
            <gpxtpx:hr>149</gpxtpx:hr>
          </gpxtpx:TrackPointExtension>
        </extensions>
      </trkpt>
      <trkpt lat="46.09092" lon="6.24931">
        <ele>856.5</ele>
        <time>2021-03-02T12:45:44Z</time>
        <extensions>
          <gpxtpx:TrackPointExtension xmlns:gpxtpx="http://www.garmin.com/xmlschemas/TrackPointExtension/v1">
            <gpxtpx:hr>149</gpxtpx:hr>
          </gpxtpx:TrackPointExtension>
        </extensions>
      </trkpt>
      <trkpt lat="46.09091" lon="6.24925">
        <ele>856.6</ele>
        <time>2021-03-02T12:45:45Z</time>
        <extensions>
          <gpxtpx:TrackPointExtension xmlns:gpxtpx="http://www.garmin.com/xmlschemas/TrackPointExtension/v1">
            <gpxtpx:hr>149</gpxtpx:hr>
          </gpxtpx:TrackPointExtension>
        </extensions>
      </trkpt>
      <trkpt lat="46.0909" lon="6.24919">
        <ele>856.7</ele>
        <time>2021-03-02T12:45:46Z</time>
        <extensions>
          <gpxtpx:TrackPointExtension xmlns:gpxtpx="http://www.garmin.com/xmlschemas/TrackPointExtension/v1">
            <gpxtpx:hr>148</gpxtpx:hr>
          </gpxtpx:TrackPointExtension>
        </extensions>
      </trkpt>
      <trkpt lat="46.09088" lon="6.24913">
        <ele>856.8</ele>
        <time>2021-03-02T12:45:47Z</time>
        <extensions>
          <gpxtpx:TrackPointExtension xmlns:gpxtpx="http://www.garmin.com/xmlschemas/TrackPointExtension/v1">
            <gpxtpx:hr>148</gpxtpx:hr>
          </gpxtpx:TrackPointExtension>
        </extensions>
      </trkpt>
      <trkpt lat="46.09087" lon="6.24908">
        <ele>856.8</ele>
        <time>2021-03-02T12:45:48Z</time>
        <extensions>
          <gpxtpx:TrackPointExtension xmlns:gpxtpx="http://www.garmin.com/xmlschemas/TrackPointExtension/v1">
            <gpxtpx:hr>148</gpxtpx:hr>
          </gpxtpx:TrackPointExtension>
        </extensions>
      </trkpt>
      <trkpt lat="46.09085" lon="6.24902">
        <ele>856.8</ele>
        <time>2021-03-02T12:45:49Z</time>
        <extensions>
          <gpxtpx:TrackPointExtension xmlns:gpxtpx="http://www.garmin.com/xmlschemas/TrackPointExtension/v1">
            <gpxtpx:hr>148</gpxtpx:hr>
          </gpxtpx:TrackPointExtension>
        </extensions>
      </trkpt>
      <trkpt lat="46.09084" lon="6.24896">
        <ele>856.9</ele>
        <time>2021-03-02T12:45:50Z</time>
        <extensions>
          <gpxtpx:TrackPointExtension xmlns:gpxtpx="http://www.garmin.com/xmlschemas/TrackPointExtension/v1">
            <gpxtpx:hr>147</gpxtpx:hr>
          </gpxtpx:TrackPointExtension>
        </extensions>
      </trkpt>
      <trkpt lat="46.09082" lon="6.24891">
        <ele>856.9</ele>
        <time>2021-03-02T12:45:51Z</time>
        <extensions>
          <gpxtpx:TrackPointExtension xmlns:gpxtpx="http://www.garmin.com/xmlschemas/TrackPointExtension/v1">
            <gpxtpx:hr>147</gpxtpx:hr>
          </gpxtpx:TrackPointExtension>
        </extensions>
      </trkpt>
      <trkpt lat="46.0908" lon="6.24886">
        <ele>856.9</ele>
        <time>2021-03-02T12:45:52Z</time>
        <extensions>
          <gpxtpx:TrackPointExtension xmlns:gpxtpx="http://www.garmin.com/xmlschemas/TrackPointExtension/v1">
            <gpxtpx:hr>147</gpxtpx:hr>
          </gpxtpx:TrackPointExtension>
        </extensions>
      </trkpt>
      <trkpt lat="46.09078" lon="6.24881">
        <ele>857</ele>
        <time>2021-03-02T12:45:53Z</time>
        <extensions>
          <gpxtpx:TrackPointExtension xmlns:gpxtpx="http://www.garmin.com/xmlschemas/TrackPointExtension/v1">
            <gpxtpx:hr>146</gpxtpx:hr>
          </gpxtpx:TrackPointExtension>
        </extensions>
      </trkpt>
      <trkpt lat="46.09076" lon="6.24876">
        <ele>857</ele>
        <time>2021-03-02T12:45:54Z</time>
        <extensions>
          <gpxtpx:TrackPointExtension xmlns:gpxtpx="http://www.garmin.com/xmlschemas/TrackPointExtension/v1">
            <gpxtpx:hr>146</gpxtpx:hr>
          </gpxtpx:TrackPointExtension>
        </extensions>
      </trkpt>
      <trkpt lat="46.09074" lon="6.24872">
        <ele>857</ele>
        <time>2021-03-02T12:45:55Z</time>
        <extensions>
          <gpxtpx:TrackPointExtension xmlns:gpxtpx="http://www.garmin.com/xmlschemas/TrackPointExtension/v1">
            <gpxtpx:hr>145</gpxtpx:hr>
          </gpxtpx:TrackPointExtension>
        </extensions>
      </trkpt>
      <trkpt lat="46.09072" lon="6.24867">
        <ele>857.1</ele>
        <time>2021-03-02T12:45:56Z</time>
        <extensions>
          <gpxtpx:TrackPointExtension xmlns:gpxtpx="http://www.garmin.com/xmlschemas/TrackPointExtension/v1">
            <gpxtpx:hr>145</gpxtpx:hr>
          </gpxtpx:TrackPointExtension>
        </extensions>
      </trkpt>
      <trkpt lat="46.09069" lon="6.24863">
        <ele>857.2</ele>
        <time>2021-03-02T12:45:57Z</time>
        <extensions>
          <gpxtpx:TrackPointExtension xmlns:gpxtpx="http://www.garmin.com/xmlschemas/TrackPointExtension/v1">
            <gpxtpx:hr>145</gpxtpx:hr>
          </gpxtpx:TrackPointExtension>
        </extensions>
      </trkpt>
      <trkpt lat="46.09067" lon="6.24858">
        <ele>857.2</ele>
        <time>2021-03-02T12:45:58Z</time>
        <extensions>
          <gpxtpx:TrackPointExtension xmlns:gpxtpx="http://www.garmin.com/xmlschemas/TrackPointExtension/v1">
            <gpxtpx:hr>144</gpxtpx:hr>
          </gpxtpx:TrackPointExtension>
        </extensions>
      </trkpt>
      <trkpt lat="46.09065" lon="6.24853">
        <ele>857.3</ele>
        <time>2021-03-02T12:45:59Z</time>
        <extensions>
          <gpxtpx:TrackPointExtension xmlns:gpxtpx="http://www.garmin.com/xmlschemas/TrackPointExtension/v1">
            <gpxtpx:hr>144</gpxtpx:hr>
          </gpxtpx:TrackPointExtension>
        </extensions>
      </trkpt>
      <trkpt lat="46.09062" lon="6.24848">
        <ele>857.4</ele>
        <time>2021-03-02T12:46:00Z</time>
        <extensions>
          <gpxtpx:TrackPointExtension xmlns:gpxtpx="http://www.garmin.com/xmlschemas/TrackPointExtension/v1">
            <gpxtpx:hr>144</gpxtpx:hr>
          </gpxtpx:TrackPointExtension>
        </extensions>
      </trkpt>
      <trkpt lat="46.0906" lon="6.24844">
        <ele>857.5</ele>
        <time>2021-03-02T12:46:01Z</time>
        <extensions>
          <gpxtpx:TrackPointExtension xmlns:gpxtpx="http://www.garmin.com/xmlschemas/TrackPointExtension/v1">
            <gpxtpx:hr>144</gpxtpx:hr>
          </gpxtpx:TrackPointExtension>
        </extensions>
      </trkpt>
      <trkpt lat="46.09058" lon="6.24839">
        <ele>857.5</ele>
        <time>2021-03-02T12:46:02Z</time>
        <extensions>
          <gpxtpx:TrackPointExtension xmlns:gpxtpx="http://www.garmin.com/xmlschemas/TrackPointExtension/v1">
            <gpxtpx:hr>143</gpxtpx:hr>
          </gpxtpx:TrackPointExtension>
        </extensions>
      </trkpt>
      <trkpt lat="46.09056" lon="6.24834">
        <ele>857.7</ele>
        <time>2021-03-02T12:46:03Z</time>
        <extensions>
          <gpxtpx:TrackPointExtension xmlns:gpxtpx="http://www.garmin.com/xmlschemas/TrackPointExtension/v1">
            <gpxtpx:hr>143</gpxtpx:hr>
          </gpxtpx:TrackPointExtension>
        </extensions>
      </trkpt>
      <trkpt lat="46.09053" lon="6.2483">
        <ele>857.8</ele>
        <time>2021-03-02T12:46:04Z</time>
        <extensions>
          <gpxtpx:TrackPointExtension xmlns:gpxtpx="http://www.garmin.com/xmlschemas/TrackPointExtension/v1">
            <gpxtpx:hr>143</gpxtpx:hr>
          </gpxtpx:TrackPointExtension>
        </extensions>
      </trkpt>
      <trkpt lat="46.09051" lon="6.24825">
        <ele>857.9</ele>
        <time>2021-03-02T12:46:05Z</time>
        <extensions>
          <gpxtpx:TrackPointExtension xmlns:gpxtpx="http://www.garmin.com/xmlschemas/TrackPointExtension/v1">
            <gpxtpx:hr>143</gpxtpx:hr>
          </gpxtpx:TrackPointExtension>
        </extensions>
      </trkpt>
      <trkpt lat="46.09049" lon="6.24821">
        <ele>858.1</ele>
        <time>2021-03-02T12:46:06Z</time>
        <extensions>
          <gpxtpx:TrackPointExtension xmlns:gpxtpx="http://www.garmin.com/xmlschemas/TrackPointExtension/v1">
            <gpxtpx:hr>143</gpxtpx:hr>
          </gpxtpx:TrackPointExtension>
        </extensions>
      </trkpt>
      <trkpt lat="46.09047" lon="6.24817">
        <ele>858.2</ele>
        <time>2021-03-02T12:46:07Z</time>
        <extensions>
          <gpxtpx:TrackPointExtension xmlns:gpxtpx="http://www.garmin.com/xmlschemas/TrackPointExtension/v1">
            <gpxtpx:hr>142</gpxtpx:hr>
          </gpxtpx:TrackPointExtension>
        </extensions>
      </trkpt>
      <trkpt lat="46.09045" lon="6.24813">
        <ele>858.3</ele>
        <time>2021-03-02T12:46:08Z</time>
        <extensions>
          <gpxtpx:TrackPointExtension xmlns:gpxtpx="http://www.garmin.com/xmlschemas/TrackPointExtension/v1">
            <gpxtpx:hr>142</gpxtpx:hr>
          </gpxtpx:TrackPointExtension>
        </extensions>
      </trkpt>
      <trkpt lat="46.09043" lon="6.24809">
        <ele>858.5</ele>
        <time>2021-03-02T12:46:09Z</time>
        <extensions>
          <gpxtpx:TrackPointExtension xmlns:gpxtpx="http://www.garmin.com/xmlschemas/TrackPointExtension/v1">
            <gpxtpx:hr>142</gpxtpx:hr>
          </gpxtpx:TrackPointExtension>
        </extensions>
      </trkpt>
      <trkpt lat="46.09041" lon="6.24805">
        <ele>858.6</ele>
        <time>2021-03-02T12:46:10Z</time>
        <extensions>
          <gpxtpx:TrackPointExtension xmlns:gpxtpx="http://www.garmin.com/xmlschemas/TrackPointExtension/v1">
            <gpxtpx:hr>141</gpxtpx:hr>
          </gpxtpx:TrackPointExtension>
        </extensions>
      </trkpt>
      <trkpt lat="46.09039" lon="6.24801">
        <ele>858.8</ele>
        <time>2021-03-02T12:46:11Z</time>
        <extensions>
          <gpxtpx:TrackPointExtension xmlns:gpxtpx="http://www.garmin.com/xmlschemas/TrackPointExtension/v1">
            <gpxtpx:hr>141</gpxtpx:hr>
          </gpxtpx:TrackPointExtension>
        </extensions>
      </trkpt>
      <trkpt lat="46.09037" lon="6.24797">
        <ele>859</ele>
        <time>2021-03-02T12:46:12Z</time>
        <extensions>
          <gpxtpx:TrackPointExtension xmlns:gpxtpx="http://www.garmin.com/xmlschemas/TrackPointExtension/v1">
            <gpxtpx:hr>141</gpxtpx:hr>
          </gpxtpx:TrackPointExtension>
        </extensions>
      </trkpt>
      <trkpt lat="46.09035" lon="6.24793">
        <ele>859.2</ele>
        <time>2021-03-02T12:46:13Z</time>
        <extensions>
          <gpxtpx:TrackPointExtension xmlns:gpxtpx="http://www.garmin.com/xmlschemas/TrackPointExtension/v1">
            <gpxtpx:hr>141</gpxtpx:hr>
          </gpxtpx:TrackPointExtension>
        </extensions>
      </trkpt>
      <trkpt lat="46.09033" lon="6.24789">
        <ele>859.3</ele>
        <time>2021-03-02T12:46:14Z</time>
        <extensions>
          <gpxtpx:TrackPointExtension xmlns:gpxtpx="http://www.garmin.com/xmlschemas/TrackPointExtension/v1">
            <gpxtpx:hr>141</gpxtpx:hr>
          </gpxtpx:TrackPointExtension>
        </extensions>
      </trkpt>
      <trkpt lat="46.09031" lon="6.24785">
        <ele>859.5</ele>
        <time>2021-03-02T12:46:15Z</time>
        <extensions>
          <gpxtpx:TrackPointExtension xmlns:gpxtpx="http://www.garmin.com/xmlschemas/TrackPointExtension/v1">
            <gpxtpx:hr>141</gpxtpx:hr>
          </gpxtpx:TrackPointExtension>
        </extensions>
      </trkpt>
      <trkpt lat="46.09029" lon="6.24781">
        <ele>859.8</ele>
        <time>2021-03-02T12:46:16Z</time>
        <extensions>
          <gpxtpx:TrackPointExtension xmlns:gpxtpx="http://www.garmin.com/xmlschemas/TrackPointExtension/v1">
            <gpxtpx:hr>141</gpxtpx:hr>
          </gpxtpx:TrackPointExtension>
        </extensions>
      </trkpt>
      <trkpt lat="46.09027" lon="6.24778">
        <ele>860</ele>
        <time>2021-03-02T12:46:17Z</time>
        <extensions>
          <gpxtpx:TrackPointExtension xmlns:gpxtpx="http://www.garmin.com/xmlschemas/TrackPointExtension/v1">
            <gpxtpx:hr>141</gpxtpx:hr>
          </gpxtpx:TrackPointExtension>
        </extensions>
      </trkpt>
      <trkpt lat="46.09025" lon="6.24774">
        <ele>860.3</ele>
        <time>2021-03-02T12:46:18Z</time>
        <extensions>
          <gpxtpx:TrackPointExtension xmlns:gpxtpx="http://www.garmin.com/xmlschemas/TrackPointExtension/v1">
            <gpxtpx:hr>141</gpxtpx:hr>
          </gpxtpx:TrackPointExtension>
        </extensions>
      </trkpt>
      <trkpt lat="46.09023" lon="6.2477">
        <ele>860.5</ele>
        <time>2021-03-02T12:46:19Z</time>
        <extensions>
          <gpxtpx:TrackPointExtension xmlns:gpxtpx="http://www.garmin.com/xmlschemas/TrackPointExtension/v1">
            <gpxtpx:hr>141</gpxtpx:hr>
          </gpxtpx:TrackPointExtension>
        </extensions>
      </trkpt>
      <trkpt lat="46.09021" lon="6.24767">
        <ele>860.8</ele>
        <time>2021-03-02T12:46:20Z</time>
        <extensions>
          <gpxtpx:TrackPointExtension xmlns:gpxtpx="http://www.garmin.com/xmlschemas/TrackPointExtension/v1">
            <gpxtpx:hr>141</gpxtpx:hr>
          </gpxtpx:TrackPointExtension>
        </extensions>
      </trkpt>
      <trkpt lat="46.0902" lon="6.24763">
        <ele>861</ele>
        <time>2021-03-02T12:46:21Z</time>
        <extensions>
          <gpxtpx:TrackPointExtension xmlns:gpxtpx="http://www.garmin.com/xmlschemas/TrackPointExtension/v1">
            <gpxtpx:hr>142</gpxtpx:hr>
          </gpxtpx:TrackPointExtension>
        </extensions>
      </trkpt>
      <trkpt lat="46.09018" lon="6.24759">
        <ele>861.3</ele>
        <time>2021-03-02T12:46:22Z</time>
        <extensions>
          <gpxtpx:TrackPointExtension xmlns:gpxtpx="http://www.garmin.com/xmlschemas/TrackPointExtension/v1">
            <gpxtpx:hr>142</gpxtpx:hr>
          </gpxtpx:TrackPointExtension>
        </extensions>
      </trkpt>
      <trkpt lat="46.09016" lon="6.24756">
        <ele>861.6</ele>
        <time>2021-03-02T12:46:23Z</time>
        <extensions>
          <gpxtpx:TrackPointExtension xmlns:gpxtpx="http://www.garmin.com/xmlschemas/TrackPointExtension/v1">
            <gpxtpx:hr>142</gpxtpx:hr>
          </gpxtpx:TrackPointExtension>
        </extensions>
      </trkpt>
      <trkpt lat="46.09015" lon="6.24752">
        <ele>861.9</ele>
        <time>2021-03-02T12:46:24Z</time>
        <extensions>
          <gpxtpx:TrackPointExtension xmlns:gpxtpx="http://www.garmin.com/xmlschemas/TrackPointExtension/v1">
            <gpxtpx:hr>142</gpxtpx:hr>
          </gpxtpx:TrackPointExtension>
        </extensions>
      </trkpt>
      <trkpt lat="46.09013" lon="6.24749">
        <ele>862.1</ele>
        <time>2021-03-02T12:46:25Z</time>
        <extensions>
          <gpxtpx:TrackPointExtension xmlns:gpxtpx="http://www.garmin.com/xmlschemas/TrackPointExtension/v1">
            <gpxtpx:hr>142</gpxtpx:hr>
          </gpxtpx:TrackPointExtension>
        </extensions>
      </trkpt>
      <trkpt lat="46.09011" lon="6.24745">
        <ele>862.4</ele>
        <time>2021-03-02T12:46:26Z</time>
        <extensions>
          <gpxtpx:TrackPointExtension xmlns:gpxtpx="http://www.garmin.com/xmlschemas/TrackPointExtension/v1">
            <gpxtpx:hr>142</gpxtpx:hr>
          </gpxtpx:TrackPointExtension>
        </extensions>
      </trkpt>
      <trkpt lat="46.0901" lon="6.24742">
        <ele>862.7</ele>
        <time>2021-03-02T12:46:27Z</time>
        <extensions>
          <gpxtpx:TrackPointExtension xmlns:gpxtpx="http://www.garmin.com/xmlschemas/TrackPointExtension/v1">
            <gpxtpx:hr>142</gpxtpx:hr>
          </gpxtpx:TrackPointExtension>
        </extensions>
      </trkpt>
      <trkpt lat="46.09008" lon="6.24738">
        <ele>862.9</ele>
        <time>2021-03-02T12:46:28Z</time>
        <extensions>
          <gpxtpx:TrackPointExtension xmlns:gpxtpx="http://www.garmin.com/xmlschemas/TrackPointExtension/v1">
            <gpxtpx:hr>142</gpxtpx:hr>
          </gpxtpx:TrackPointExtension>
        </extensions>
      </trkpt>
      <trkpt lat="46.09007" lon="6.24735">
        <ele>863.2</ele>
        <time>2021-03-02T12:46:29Z</time>
        <extensions>
          <gpxtpx:TrackPointExtension xmlns:gpxtpx="http://www.garmin.com/xmlschemas/TrackPointExtension/v1">
            <gpxtpx:hr>142</gpxtpx:hr>
          </gpxtpx:TrackPointExtension>
        </extensions>
      </trkpt>
      <trkpt lat="46.09005" lon="6.24732">
        <ele>863.5</ele>
        <time>2021-03-02T12:46:30Z</time>
        <extensions>
          <gpxtpx:TrackPointExtension xmlns:gpxtpx="http://www.garmin.com/xmlschemas/TrackPointExtension/v1">
            <gpxtpx:hr>143</gpxtpx:hr>
          </gpxtpx:TrackPointExtension>
        </extensions>
      </trkpt>
      <trkpt lat="46.09004" lon="6.24728">
        <ele>863.7</ele>
        <time>2021-03-02T12:46:31Z</time>
        <extensions>
          <gpxtpx:TrackPointExtension xmlns:gpxtpx="http://www.garmin.com/xmlschemas/TrackPointExtension/v1">
            <gpxtpx:hr>143</gpxtpx:hr>
          </gpxtpx:TrackPointExtension>
        </extensions>
      </trkpt>
      <trkpt lat="46.09002" lon="6.24725">
        <ele>864</ele>
        <time>2021-03-02T12:46:32Z</time>
        <extensions>
          <gpxtpx:TrackPointExtension xmlns:gpxtpx="http://www.garmin.com/xmlschemas/TrackPointExtension/v1">
            <gpxtpx:hr>143</gpxtpx:hr>
          </gpxtpx:TrackPointExtension>
        </extensions>
      </trkpt>
      <trkpt lat="46.09001" lon="6.24722">
        <ele>864.3</ele>
        <time>2021-03-02T12:46:33Z</time>
        <extensions>
          <gpxtpx:TrackPointExtension xmlns:gpxtpx="http://www.garmin.com/xmlschemas/TrackPointExtension/v1">
            <gpxtpx:hr>143</gpxtpx:hr>
          </gpxtpx:TrackPointExtension>
        </extensions>
      </trkpt>
      <trkpt lat="46.08999" lon="6.24719">
        <ele>864.6</ele>
        <time>2021-03-02T12:46:34Z</time>
        <extensions>
          <gpxtpx:TrackPointExtension xmlns:gpxtpx="http://www.garmin.com/xmlschemas/TrackPointExtension/v1">
            <gpxtpx:hr>144</gpxtpx:hr>
          </gpxtpx:TrackPointExtension>
        </extensions>
      </trkpt>
      <trkpt lat="46.08998" lon="6.24715">
        <ele>864.8</ele>
        <time>2021-03-02T12:46:35Z</time>
        <extensions>
          <gpxtpx:TrackPointExtension xmlns:gpxtpx="http://www.garmin.com/xmlschemas/TrackPointExtension/v1">
            <gpxtpx:hr>144</gpxtpx:hr>
          </gpxtpx:TrackPointExtension>
        </extensions>
      </trkpt>
      <trkpt lat="46.08996" lon="6.24712">
        <ele>865.1</ele>
        <time>2021-03-02T12:46:36Z</time>
        <extensions>
          <gpxtpx:TrackPointExtension xmlns:gpxtpx="http://www.garmin.com/xmlschemas/TrackPointExtension/v1">
            <gpxtpx:hr>144</gpxtpx:hr>
          </gpxtpx:TrackPointExtension>
        </extensions>
      </trkpt>
      <trkpt lat="46.08995" lon="6.24709">
        <ele>865.4</ele>
        <time>2021-03-02T12:46:37Z</time>
        <extensions>
          <gpxtpx:TrackPointExtension xmlns:gpxtpx="http://www.garmin.com/xmlschemas/TrackPointExtension/v1">
            <gpxtpx:hr>145</gpxtpx:hr>
          </gpxtpx:TrackPointExtension>
        </extensions>
      </trkpt>
      <trkpt lat="46.08993" lon="6.24706">
        <ele>865.6</ele>
        <time>2021-03-02T12:46:38Z</time>
        <extensions>
          <gpxtpx:TrackPointExtension xmlns:gpxtpx="http://www.garmin.com/xmlschemas/TrackPointExtension/v1">
            <gpxtpx:hr>145</gpxtpx:hr>
          </gpxtpx:TrackPointExtension>
        </extensions>
      </trkpt>
      <trkpt lat="46.08992" lon="6.24703">
        <ele>865.9</ele>
        <time>2021-03-02T12:46:39Z</time>
        <extensions>
          <gpxtpx:TrackPointExtension xmlns:gpxtpx="http://www.garmin.com/xmlschemas/TrackPointExtension/v1">
            <gpxtpx:hr>145</gpxtpx:hr>
          </gpxtpx:TrackPointExtension>
        </extensions>
      </trkpt>
      <trkpt lat="46.0899" lon="6.247">
        <ele>866.2</ele>
        <time>2021-03-02T12:46:40Z</time>
        <extensions>
          <gpxtpx:TrackPointExtension xmlns:gpxtpx="http://www.garmin.com/xmlschemas/TrackPointExtension/v1">
            <gpxtpx:hr>145</gpxtpx:hr>
          </gpxtpx:TrackPointExtension>
        </extensions>
      </trkpt>
      <trkpt lat="46.08988" lon="6.24697">
        <ele>866.5</ele>
        <time>2021-03-02T12:46:41Z</time>
        <extensions>
          <gpxtpx:TrackPointExtension xmlns:gpxtpx="http://www.garmin.com/xmlschemas/TrackPointExtension/v1">
            <gpxtpx:hr>146</gpxtpx:hr>
          </gpxtpx:TrackPointExtension>
        </extensions>
      </trkpt>
      <trkpt lat="46.08986" lon="6.24694">
        <ele>866.8</ele>
        <time>2021-03-02T12:46:42Z</time>
        <extensions>
          <gpxtpx:TrackPointExtension xmlns:gpxtpx="http://www.garmin.com/xmlschemas/TrackPointExtension/v1">
            <gpxtpx:hr>146</gpxtpx:hr>
          </gpxtpx:TrackPointExtension>
        </extensions>
      </trkpt>
      <trkpt lat="46.08983" lon="6.24691">
        <ele>867.1</ele>
        <time>2021-03-02T12:46:43Z</time>
        <extensions>
          <gpxtpx:TrackPointExtension xmlns:gpxtpx="http://www.garmin.com/xmlschemas/TrackPointExtension/v1">
            <gpxtpx:hr>146</gpxtpx:hr>
          </gpxtpx:TrackPointExtension>
        </extensions>
      </trkpt>
      <trkpt lat="46.08981" lon="6.24689">
        <ele>867.4</ele>
        <time>2021-03-02T12:46:44Z</time>
        <extensions>
          <gpxtpx:TrackPointExtension xmlns:gpxtpx="http://www.garmin.com/xmlschemas/TrackPointExtension/v1">
            <gpxtpx:hr>146</gpxtpx:hr>
          </gpxtpx:TrackPointExtension>
        </extensions>
      </trkpt>
      <trkpt lat="46.08978" lon="6.24686">
        <ele>867.6</ele>
        <time>2021-03-02T12:46:45Z</time>
        <extensions>
          <gpxtpx:TrackPointExtension xmlns:gpxtpx="http://www.garmin.com/xmlschemas/TrackPointExtension/v1">
            <gpxtpx:hr>146</gpxtpx:hr>
          </gpxtpx:TrackPointExtension>
        </extensions>
      </trkpt>
      <trkpt lat="46.08976" lon="6.24684">
        <ele>867.9</ele>
        <time>2021-03-02T12:46:46Z</time>
        <extensions>
          <gpxtpx:TrackPointExtension xmlns:gpxtpx="http://www.garmin.com/xmlschemas/TrackPointExtension/v1">
            <gpxtpx:hr>146</gpxtpx:hr>
          </gpxtpx:TrackPointExtension>
        </extensions>
      </trkpt>
      <trkpt lat="46.08973" lon="6.24682">
        <ele>868.2</ele>
        <time>2021-03-02T12:46:47Z</time>
        <extensions>
          <gpxtpx:TrackPointExtension xmlns:gpxtpx="http://www.garmin.com/xmlschemas/TrackPointExtension/v1">
            <gpxtpx:hr>146</gpxtpx:hr>
          </gpxtpx:TrackPointExtension>
        </extensions>
      </trkpt>
      <trkpt lat="46.08971" lon="6.2468">
        <ele>868.4</ele>
        <time>2021-03-02T12:46:48Z</time>
        <extensions>
          <gpxtpx:TrackPointExtension xmlns:gpxtpx="http://www.garmin.com/xmlschemas/TrackPointExtension/v1">
            <gpxtpx:hr>146</gpxtpx:hr>
          </gpxtpx:TrackPointExtension>
        </extensions>
      </trkpt>
      <trkpt lat="46.08968" lon="6.24679">
        <ele>868.7</ele>
        <time>2021-03-02T12:46:49Z</time>
        <extensions>
          <gpxtpx:TrackPointExtension xmlns:gpxtpx="http://www.garmin.com/xmlschemas/TrackPointExtension/v1">
            <gpxtpx:hr>146</gpxtpx:hr>
          </gpxtpx:TrackPointExtension>
        </extensions>
      </trkpt>
      <trkpt lat="46.08965" lon="6.24677">
        <ele>868.9</ele>
        <time>2021-03-02T12:46:50Z</time>
        <extensions>
          <gpxtpx:TrackPointExtension xmlns:gpxtpx="http://www.garmin.com/xmlschemas/TrackPointExtension/v1">
            <gpxtpx:hr>147</gpxtpx:hr>
          </gpxtpx:TrackPointExtension>
        </extensions>
      </trkpt>
      <trkpt lat="46.08963" lon="6.24676">
        <ele>869.1</ele>
        <time>2021-03-02T12:46:51Z</time>
        <extensions>
          <gpxtpx:TrackPointExtension xmlns:gpxtpx="http://www.garmin.com/xmlschemas/TrackPointExtension/v1">
            <gpxtpx:hr>147</gpxtpx:hr>
          </gpxtpx:TrackPointExtension>
        </extensions>
      </trkpt>
      <trkpt lat="46.0896" lon="6.24675">
        <ele>869.3</ele>
        <time>2021-03-02T12:46:52Z</time>
        <extensions>
          <gpxtpx:TrackPointExtension xmlns:gpxtpx="http://www.garmin.com/xmlschemas/TrackPointExtension/v1">
            <gpxtpx:hr>147</gpxtpx:hr>
          </gpxtpx:TrackPointExtension>
        </extensions>
      </trkpt>
      <trkpt lat="46.08957" lon="6.24673">
        <ele>869.6</ele>
        <time>2021-03-02T12:46:53Z</time>
        <extensions>
          <gpxtpx:TrackPointExtension xmlns:gpxtpx="http://www.garmin.com/xmlschemas/TrackPointExtension/v1">
            <gpxtpx:hr>148</gpxtpx:hr>
          </gpxtpx:TrackPointExtension>
        </extensions>
      </trkpt>
      <trkpt lat="46.08954" lon="6.24672">
        <ele>869.8</ele>
        <time>2021-03-02T12:46:54Z</time>
        <extensions>
          <gpxtpx:TrackPointExtension xmlns:gpxtpx="http://www.garmin.com/xmlschemas/TrackPointExtension/v1">
            <gpxtpx:hr>148</gpxtpx:hr>
          </gpxtpx:TrackPointExtension>
        </extensions>
      </trkpt>
      <trkpt lat="46.08951" lon="6.24671">
        <ele>869.9</ele>
        <time>2021-03-02T12:46:55Z</time>
        <extensions>
          <gpxtpx:TrackPointExtension xmlns:gpxtpx="http://www.garmin.com/xmlschemas/TrackPointExtension/v1">
            <gpxtpx:hr>148</gpxtpx:hr>
          </gpxtpx:TrackPointExtension>
        </extensions>
      </trkpt>
      <trkpt lat="46.08948" lon="6.2467">
        <ele>870.1</ele>
        <time>2021-03-02T12:46:56Z</time>
        <extensions>
          <gpxtpx:TrackPointExtension xmlns:gpxtpx="http://www.garmin.com/xmlschemas/TrackPointExtension/v1">
            <gpxtpx:hr>148</gpxtpx:hr>
          </gpxtpx:TrackPointExtension>
        </extensions>
      </trkpt>
      <trkpt lat="46.08945" lon="6.24669">
        <ele>870.3</ele>
        <time>2021-03-02T12:46:57Z</time>
        <extensions>
          <gpxtpx:TrackPointExtension xmlns:gpxtpx="http://www.garmin.com/xmlschemas/TrackPointExtension/v1">
            <gpxtpx:hr>148</gpxtpx:hr>
          </gpxtpx:TrackPointExtension>
        </extensions>
      </trkpt>
      <trkpt lat="46.08942" lon="6.24668">
        <ele>870.5</ele>
        <time>2021-03-02T12:46:58Z</time>
        <extensions>
          <gpxtpx:TrackPointExtension xmlns:gpxtpx="http://www.garmin.com/xmlschemas/TrackPointExtension/v1">
            <gpxtpx:hr>148</gpxtpx:hr>
          </gpxtpx:TrackPointExtension>
        </extensions>
      </trkpt>
      <trkpt lat="46.08938" lon="6.24667">
        <ele>870.7</ele>
        <time>2021-03-02T12:46:59Z</time>
        <extensions>
          <gpxtpx:TrackPointExtension xmlns:gpxtpx="http://www.garmin.com/xmlschemas/TrackPointExtension/v1">
            <gpxtpx:hr>148</gpxtpx:hr>
          </gpxtpx:TrackPointExtension>
        </extensions>
      </trkpt>
      <trkpt lat="46.08935" lon="6.24666">
        <ele>870.9</ele>
        <time>2021-03-02T12:47:00Z</time>
        <extensions>
          <gpxtpx:TrackPointExtension xmlns:gpxtpx="http://www.garmin.com/xmlschemas/TrackPointExtension/v1">
            <gpxtpx:hr>148</gpxtpx:hr>
          </gpxtpx:TrackPointExtension>
        </extensions>
      </trkpt>
      <trkpt lat="46.08932" lon="6.24665">
        <ele>871</ele>
        <time>2021-03-02T12:47:01Z</time>
        <extensions>
          <gpxtpx:TrackPointExtension xmlns:gpxtpx="http://www.garmin.com/xmlschemas/TrackPointExtension/v1">
            <gpxtpx:hr>148</gpxtpx:hr>
          </gpxtpx:TrackPointExtension>
        </extensions>
      </trkpt>
      <trkpt lat="46.08929" lon="6.24664">
        <ele>871.2</ele>
        <time>2021-03-02T12:47:02Z</time>
        <extensions>
          <gpxtpx:TrackPointExtension xmlns:gpxtpx="http://www.garmin.com/xmlschemas/TrackPointExtension/v1">
            <gpxtpx:hr>148</gpxtpx:hr>
          </gpxtpx:TrackPointExtension>
        </extensions>
      </trkpt>
      <trkpt lat="46.08925" lon="6.24663">
        <ele>871.4</ele>
        <time>2021-03-02T12:47:03Z</time>
        <extensions>
          <gpxtpx:TrackPointExtension xmlns:gpxtpx="http://www.garmin.com/xmlschemas/TrackPointExtension/v1">
            <gpxtpx:hr>148</gpxtpx:hr>
          </gpxtpx:TrackPointExtension>
        </extensions>
      </trkpt>
      <trkpt lat="46.08922" lon="6.24662">
        <ele>871.6</ele>
        <time>2021-03-02T12:47:04Z</time>
        <extensions>
          <gpxtpx:TrackPointExtension xmlns:gpxtpx="http://www.garmin.com/xmlschemas/TrackPointExtension/v1">
            <gpxtpx:hr>148</gpxtpx:hr>
          </gpxtpx:TrackPointExtension>
        </extensions>
      </trkpt>
      <trkpt lat="46.08918" lon="6.2466">
        <ele>871.8</ele>
        <time>2021-03-02T12:47:05Z</time>
        <extensions>
          <gpxtpx:TrackPointExtension xmlns:gpxtpx="http://www.garmin.com/xmlschemas/TrackPointExtension/v1">
            <gpxtpx:hr>148</gpxtpx:hr>
          </gpxtpx:TrackPointExtension>
        </extensions>
      </trkpt>
      <trkpt lat="46.08915" lon="6.24659">
        <ele>872</ele>
        <time>2021-03-02T12:47:06Z</time>
        <extensions>
          <gpxtpx:TrackPointExtension xmlns:gpxtpx="http://www.garmin.com/xmlschemas/TrackPointExtension/v1">
            <gpxtpx:hr>148</gpxtpx:hr>
          </gpxtpx:TrackPointExtension>
        </extensions>
      </trkpt>
      <trkpt lat="46.08911" lon="6.24657">
        <ele>872.2</ele>
        <time>2021-03-02T12:47:07Z</time>
        <extensions>
          <gpxtpx:TrackPointExtension xmlns:gpxtpx="http://www.garmin.com/xmlschemas/TrackPointExtension/v1">
            <gpxtpx:hr>148</gpxtpx:hr>
          </gpxtpx:TrackPointExtension>
        </extensions>
      </trkpt>
      <trkpt lat="46.08908" lon="6.24656">
        <ele>872.4</ele>
        <time>2021-03-02T12:47:08Z</time>
        <extensions>
          <gpxtpx:TrackPointExtension xmlns:gpxtpx="http://www.garmin.com/xmlschemas/TrackPointExtension/v1">
            <gpxtpx:hr>148</gpxtpx:hr>
          </gpxtpx:TrackPointExtension>
        </extensions>
      </trkpt>
      <trkpt lat="46.08904" lon="6.24654">
        <ele>872.6</ele>
        <time>2021-03-02T12:47:09Z</time>
        <extensions>
          <gpxtpx:TrackPointExtension xmlns:gpxtpx="http://www.garmin.com/xmlschemas/TrackPointExtension/v1">
            <gpxtpx:hr>148</gpxtpx:hr>
          </gpxtpx:TrackPointExtension>
        </extensions>
      </trkpt>
      <trkpt lat="46.089" lon="6.24652">
        <ele>872.8</ele>
        <time>2021-03-02T12:47:10Z</time>
        <extensions>
          <gpxtpx:TrackPointExtension xmlns:gpxtpx="http://www.garmin.com/xmlschemas/TrackPointExtension/v1">
            <gpxtpx:hr>148</gpxtpx:hr>
          </gpxtpx:TrackPointExtension>
        </extensions>
      </trkpt>
      <trkpt lat="46.08897" lon="6.24651">
        <ele>873</ele>
        <time>2021-03-02T12:47:11Z</time>
        <extensions>
          <gpxtpx:TrackPointExtension xmlns:gpxtpx="http://www.garmin.com/xmlschemas/TrackPointExtension/v1">
            <gpxtpx:hr>148</gpxtpx:hr>
          </gpxtpx:TrackPointExtension>
        </extensions>
      </trkpt>
      <trkpt lat="46.08893" lon="6.24649">
        <ele>873.2</ele>
        <time>2021-03-02T12:47:12Z</time>
        <extensions>
          <gpxtpx:TrackPointExtension xmlns:gpxtpx="http://www.garmin.com/xmlschemas/TrackPointExtension/v1">
            <gpxtpx:hr>148</gpxtpx:hr>
          </gpxtpx:TrackPointExtension>
        </extensions>
      </trkpt>
      <trkpt lat="46.0889" lon="6.24647">
        <ele>873.5</ele>
        <time>2021-03-02T12:47:13Z</time>
        <extensions>
          <gpxtpx:TrackPointExtension xmlns:gpxtpx="http://www.garmin.com/xmlschemas/TrackPointExtension/v1">
            <gpxtpx:hr>148</gpxtpx:hr>
          </gpxtpx:TrackPointExtension>
        </extensions>
      </trkpt>
      <trkpt lat="46.08886" lon="6.24646">
        <ele>873.7</ele>
        <time>2021-03-02T12:47:14Z</time>
        <extensions>
          <gpxtpx:TrackPointExtension xmlns:gpxtpx="http://www.garmin.com/xmlschemas/TrackPointExtension/v1">
            <gpxtpx:hr>148</gpxtpx:hr>
          </gpxtpx:TrackPointExtension>
        </extensions>
      </trkpt>
      <trkpt lat="46.08883" lon="6.24644">
        <ele>874</ele>
        <time>2021-03-02T12:47:15Z</time>
        <extensions>
          <gpxtpx:TrackPointExtension xmlns:gpxtpx="http://www.garmin.com/xmlschemas/TrackPointExtension/v1">
            <gpxtpx:hr>148</gpxtpx:hr>
          </gpxtpx:TrackPointExtension>
        </extensions>
      </trkpt>
      <trkpt lat="46.0888" lon="6.24643">
        <ele>874.2</ele>
        <time>2021-03-02T12:47:16Z</time>
        <extensions>
          <gpxtpx:TrackPointExtension xmlns:gpxtpx="http://www.garmin.com/xmlschemas/TrackPointExtension/v1">
            <gpxtpx:hr>148</gpxtpx:hr>
          </gpxtpx:TrackPointExtension>
        </extensions>
      </trkpt>
      <trkpt lat="46.08877" lon="6.24642">
        <ele>874.4</ele>
        <time>2021-03-02T12:47:17Z</time>
        <extensions>
          <gpxtpx:TrackPointExtension xmlns:gpxtpx="http://www.garmin.com/xmlschemas/TrackPointExtension/v1">
            <gpxtpx:hr>147</gpxtpx:hr>
          </gpxtpx:TrackPointExtension>
        </extensions>
      </trkpt>
      <trkpt lat="46.08874" lon="6.2464">
        <ele>874.7</ele>
        <time>2021-03-02T12:47:18Z</time>
        <extensions>
          <gpxtpx:TrackPointExtension xmlns:gpxtpx="http://www.garmin.com/xmlschemas/TrackPointExtension/v1">
            <gpxtpx:hr>147</gpxtpx:hr>
          </gpxtpx:TrackPointExtension>
        </extensions>
      </trkpt>
      <trkpt lat="46.08871" lon="6.24639">
        <ele>874.9</ele>
        <time>2021-03-02T12:47:19Z</time>
        <extensions>
          <gpxtpx:TrackPointExtension xmlns:gpxtpx="http://www.garmin.com/xmlschemas/TrackPointExtension/v1">
            <gpxtpx:hr>147</gpxtpx:hr>
          </gpxtpx:TrackPointExtension>
        </extensions>
      </trkpt>
      <trkpt lat="46.08868" lon="6.24637">
        <ele>875.2</ele>
        <time>2021-03-02T12:47:20Z</time>
        <extensions>
          <gpxtpx:TrackPointExtension xmlns:gpxtpx="http://www.garmin.com/xmlschemas/TrackPointExtension/v1">
            <gpxtpx:hr>147</gpxtpx:hr>
          </gpxtpx:TrackPointExtension>
        </extensions>
      </trkpt>
      <trkpt lat="46.08865" lon="6.24635">
        <ele>875.4</ele>
        <time>2021-03-02T12:47:21Z</time>
        <extensions>
          <gpxtpx:TrackPointExtension xmlns:gpxtpx="http://www.garmin.com/xmlschemas/TrackPointExtension/v1">
            <gpxtpx:hr>147</gpxtpx:hr>
          </gpxtpx:TrackPointExtension>
        </extensions>
      </trkpt>
      <trkpt lat="46.08862" lon="6.24634">
        <ele>875.7</ele>
        <time>2021-03-02T12:47:22Z</time>
        <extensions>
          <gpxtpx:TrackPointExtension xmlns:gpxtpx="http://www.garmin.com/xmlschemas/TrackPointExtension/v1">
            <gpxtpx:hr>147</gpxtpx:hr>
          </gpxtpx:TrackPointExtension>
        </extensions>
      </trkpt>
      <trkpt lat="46.08859" lon="6.24632">
        <ele>875.9</ele>
        <time>2021-03-02T12:47:23Z</time>
        <extensions>
          <gpxtpx:TrackPointExtension xmlns:gpxtpx="http://www.garmin.com/xmlschemas/TrackPointExtension/v1">
            <gpxtpx:hr>147</gpxtpx:hr>
          </gpxtpx:TrackPointExtension>
        </extensions>
      </trkpt>
      <trkpt lat="46.08856" lon="6.2463">
        <ele>876.2</ele>
        <time>2021-03-02T12:47:24Z</time>
        <extensions>
          <gpxtpx:TrackPointExtension xmlns:gpxtpx="http://www.garmin.com/xmlschemas/TrackPointExtension/v1">
            <gpxtpx:hr>147</gpxtpx:hr>
          </gpxtpx:TrackPointExtension>
        </extensions>
      </trkpt>
      <trkpt lat="46.08853" lon="6.24628">
        <ele>876.5</ele>
        <time>2021-03-02T12:47:25Z</time>
        <extensions>
          <gpxtpx:TrackPointExtension xmlns:gpxtpx="http://www.garmin.com/xmlschemas/TrackPointExtension/v1">
            <gpxtpx:hr>147</gpxtpx:hr>
          </gpxtpx:TrackPointExtension>
        </extensions>
      </trkpt>
      <trkpt lat="46.0885" lon="6.24625">
        <ele>876.7</ele>
        <time>2021-03-02T12:47:26Z</time>
        <extensions>
          <gpxtpx:TrackPointExtension xmlns:gpxtpx="http://www.garmin.com/xmlschemas/TrackPointExtension/v1">
            <gpxtpx:hr>147</gpxtpx:hr>
          </gpxtpx:TrackPointExtension>
        </extensions>
      </trkpt>
      <trkpt lat="46.08847" lon="6.24622">
        <ele>877</ele>
        <time>2021-03-02T12:47:27Z</time>
        <extensions>
          <gpxtpx:TrackPointExtension xmlns:gpxtpx="http://www.garmin.com/xmlschemas/TrackPointExtension/v1">
            <gpxtpx:hr>147</gpxtpx:hr>
          </gpxtpx:TrackPointExtension>
        </extensions>
      </trkpt>
      <trkpt lat="46.08844" lon="6.24619">
        <ele>877.2</ele>
        <time>2021-03-02T12:47:28Z</time>
        <extensions>
          <gpxtpx:TrackPointExtension xmlns:gpxtpx="http://www.garmin.com/xmlschemas/TrackPointExtension/v1">
            <gpxtpx:hr>147</gpxtpx:hr>
          </gpxtpx:TrackPointExtension>
        </extensions>
      </trkpt>
      <trkpt lat="46.08841" lon="6.24616">
        <ele>877.3</ele>
        <time>2021-03-02T12:47:29Z</time>
        <extensions>
          <gpxtpx:TrackPointExtension xmlns:gpxtpx="http://www.garmin.com/xmlschemas/TrackPointExtension/v1">
            <gpxtpx:hr>147</gpxtpx:hr>
          </gpxtpx:TrackPointExtension>
        </extensions>
      </trkpt>
      <trkpt lat="46.08838" lon="6.24612">
        <ele>877.5</ele>
        <time>2021-03-02T12:47:30Z</time>
        <extensions>
          <gpxtpx:TrackPointExtension xmlns:gpxtpx="http://www.garmin.com/xmlschemas/TrackPointExtension/v1">
            <gpxtpx:hr>148</gpxtpx:hr>
          </gpxtpx:TrackPointExtension>
        </extensions>
      </trkpt>
      <trkpt lat="46.08836" lon="6.24609">
        <ele>877.7</ele>
        <time>2021-03-02T12:47:31Z</time>
        <extensions>
          <gpxtpx:TrackPointExtension xmlns:gpxtpx="http://www.garmin.com/xmlschemas/TrackPointExtension/v1">
            <gpxtpx:hr>148</gpxtpx:hr>
          </gpxtpx:TrackPointExtension>
        </extensions>
      </trkpt>
      <trkpt lat="46.08833" lon="6.24605">
        <ele>877.8</ele>
        <time>2021-03-02T12:47:32Z</time>
        <extensions>
          <gpxtpx:TrackPointExtension xmlns:gpxtpx="http://www.garmin.com/xmlschemas/TrackPointExtension/v1">
            <gpxtpx:hr>148</gpxtpx:hr>
          </gpxtpx:TrackPointExtension>
        </extensions>
      </trkpt>
      <trkpt lat="46.0883" lon="6.24602">
        <ele>878</ele>
        <time>2021-03-02T12:47:33Z</time>
        <extensions>
          <gpxtpx:TrackPointExtension xmlns:gpxtpx="http://www.garmin.com/xmlschemas/TrackPointExtension/v1">
            <gpxtpx:hr>148</gpxtpx:hr>
          </gpxtpx:TrackPointExtension>
        </extensions>
      </trkpt>
      <trkpt lat="46.08828" lon="6.24598">
        <ele>878.1</ele>
        <time>2021-03-02T12:47:34Z</time>
        <extensions>
          <gpxtpx:TrackPointExtension xmlns:gpxtpx="http://www.garmin.com/xmlschemas/TrackPointExtension/v1">
            <gpxtpx:hr>148</gpxtpx:hr>
          </gpxtpx:TrackPointExtension>
        </extensions>
      </trkpt>
      <trkpt lat="46.08825" lon="6.24595">
        <ele>878.3</ele>
        <time>2021-03-02T12:47:35Z</time>
        <extensions>
          <gpxtpx:TrackPointExtension xmlns:gpxtpx="http://www.garmin.com/xmlschemas/TrackPointExtension/v1">
            <gpxtpx:hr>149</gpxtpx:hr>
          </gpxtpx:TrackPointExtension>
        </extensions>
      </trkpt>
      <trkpt lat="46.08822" lon="6.24591">
        <ele>878.4</ele>
        <time>2021-03-02T12:47:36Z</time>
        <extensions>
          <gpxtpx:TrackPointExtension xmlns:gpxtpx="http://www.garmin.com/xmlschemas/TrackPointExtension/v1">
            <gpxtpx:hr>148</gpxtpx:hr>
          </gpxtpx:TrackPointExtension>
        </extensions>
      </trkpt>
      <trkpt lat="46.08819" lon="6.24587">
        <ele>878.5</ele>
        <time>2021-03-02T12:47:37Z</time>
        <extensions>
          <gpxtpx:TrackPointExtension xmlns:gpxtpx="http://www.garmin.com/xmlschemas/TrackPointExtension/v1">
            <gpxtpx:hr>148</gpxtpx:hr>
          </gpxtpx:TrackPointExtension>
        </extensions>
      </trkpt>
      <trkpt lat="46.08817" lon="6.24583">
        <ele>878.6</ele>
        <time>2021-03-02T12:47:38Z</time>
        <extensions>
          <gpxtpx:TrackPointExtension xmlns:gpxtpx="http://www.garmin.com/xmlschemas/TrackPointExtension/v1">
            <gpxtpx:hr>148</gpxtpx:hr>
          </gpxtpx:TrackPointExtension>
        </extensions>
      </trkpt>
      <trkpt lat="46.08814" lon="6.24579">
        <ele>878.6</ele>
        <time>2021-03-02T12:47:39Z</time>
        <extensions>
          <gpxtpx:TrackPointExtension xmlns:gpxtpx="http://www.garmin.com/xmlschemas/TrackPointExtension/v1">
            <gpxtpx:hr>148</gpxtpx:hr>
          </gpxtpx:TrackPointExtension>
        </extensions>
      </trkpt>
      <trkpt lat="46.08811" lon="6.24574">
        <ele>878.6</ele>
        <time>2021-03-02T12:47:40Z</time>
        <extensions>
          <gpxtpx:TrackPointExtension xmlns:gpxtpx="http://www.garmin.com/xmlschemas/TrackPointExtension/v1">
            <gpxtpx:hr>148</gpxtpx:hr>
          </gpxtpx:TrackPointExtension>
        </extensions>
      </trkpt>
      <trkpt lat="46.08808" lon="6.2457">
        <ele>878.6</ele>
        <time>2021-03-02T12:47:41Z</time>
        <extensions>
          <gpxtpx:TrackPointExtension xmlns:gpxtpx="http://www.garmin.com/xmlschemas/TrackPointExtension/v1">
            <gpxtpx:hr>147</gpxtpx:hr>
          </gpxtpx:TrackPointExtension>
        </extensions>
      </trkpt>
      <trkpt lat="46.08805" lon="6.24565">
        <ele>878.6</ele>
        <time>2021-03-02T12:47:42Z</time>
        <extensions>
          <gpxtpx:TrackPointExtension xmlns:gpxtpx="http://www.garmin.com/xmlschemas/TrackPointExtension/v1">
            <gpxtpx:hr>147</gpxtpx:hr>
          </gpxtpx:TrackPointExtension>
        </extensions>
      </trkpt>
      <trkpt lat="46.08801" lon="6.2456">
        <ele>878.5</ele>
        <time>2021-03-02T12:47:43Z</time>
        <extensions>
          <gpxtpx:TrackPointExtension xmlns:gpxtpx="http://www.garmin.com/xmlschemas/TrackPointExtension/v1">
            <gpxtpx:hr>147</gpxtpx:hr>
          </gpxtpx:TrackPointExtension>
        </extensions>
      </trkpt>
      <trkpt lat="46.08798" lon="6.24555">
        <ele>878.5</ele>
        <time>2021-03-02T12:47:44Z</time>
        <extensions>
          <gpxtpx:TrackPointExtension xmlns:gpxtpx="http://www.garmin.com/xmlschemas/TrackPointExtension/v1">
            <gpxtpx:hr>146</gpxtpx:hr>
          </gpxtpx:TrackPointExtension>
        </extensions>
      </trkpt>
      <trkpt lat="46.08795" lon="6.2455">
        <ele>878.4</ele>
        <time>2021-03-02T12:47:45Z</time>
        <extensions>
          <gpxtpx:TrackPointExtension xmlns:gpxtpx="http://www.garmin.com/xmlschemas/TrackPointExtension/v1">
            <gpxtpx:hr>146</gpxtpx:hr>
          </gpxtpx:TrackPointExtension>
        </extensions>
      </trkpt>
      <trkpt lat="46.08791" lon="6.24544">
        <ele>878.3</ele>
        <time>2021-03-02T12:47:46Z</time>
        <extensions>
          <gpxtpx:TrackPointExtension xmlns:gpxtpx="http://www.garmin.com/xmlschemas/TrackPointExtension/v1">
            <gpxtpx:hr>146</gpxtpx:hr>
          </gpxtpx:TrackPointExtension>
        </extensions>
      </trkpt>
      <trkpt lat="46.08788" lon="6.24539">
        <ele>878.3</ele>
        <time>2021-03-02T12:47:47Z</time>
        <extensions>
          <gpxtpx:TrackPointExtension xmlns:gpxtpx="http://www.garmin.com/xmlschemas/TrackPointExtension/v1">
            <gpxtpx:hr>146</gpxtpx:hr>
          </gpxtpx:TrackPointExtension>
        </extensions>
      </trkpt>
      <trkpt lat="46.08785" lon="6.24535">
        <ele>878.2</ele>
        <time>2021-03-02T12:47:48Z</time>
        <extensions>
          <gpxtpx:TrackPointExtension xmlns:gpxtpx="http://www.garmin.com/xmlschemas/TrackPointExtension/v1">
            <gpxtpx:hr>146</gpxtpx:hr>
          </gpxtpx:TrackPointExtension>
        </extensions>
      </trkpt>
      <trkpt lat="46.08781" lon="6.2453">
        <ele>878.2</ele>
        <time>2021-03-02T12:47:49Z</time>
        <extensions>
          <gpxtpx:TrackPointExtension xmlns:gpxtpx="http://www.garmin.com/xmlschemas/TrackPointExtension/v1">
            <gpxtpx:hr>145</gpxtpx:hr>
          </gpxtpx:TrackPointExtension>
        </extensions>
      </trkpt>
      <trkpt lat="46.08778" lon="6.24525">
        <ele>878.2</ele>
        <time>2021-03-02T12:47:50Z</time>
        <extensions>
          <gpxtpx:TrackPointExtension xmlns:gpxtpx="http://www.garmin.com/xmlschemas/TrackPointExtension/v1">
            <gpxtpx:hr>145</gpxtpx:hr>
          </gpxtpx:TrackPointExtension>
        </extensions>
      </trkpt>
      <trkpt lat="46.08775" lon="6.2452">
        <ele>878.1</ele>
        <time>2021-03-02T12:47:51Z</time>
        <extensions>
          <gpxtpx:TrackPointExtension xmlns:gpxtpx="http://www.garmin.com/xmlschemas/TrackPointExtension/v1">
            <gpxtpx:hr>145</gpxtpx:hr>
          </gpxtpx:TrackPointExtension>
        </extensions>
      </trkpt>
      <trkpt lat="46.08771" lon="6.24514">
        <ele>878.1</ele>
        <time>2021-03-02T12:47:52Z</time>
        <extensions>
          <gpxtpx:TrackPointExtension xmlns:gpxtpx="http://www.garmin.com/xmlschemas/TrackPointExtension/v1">
            <gpxtpx:hr>145</gpxtpx:hr>
          </gpxtpx:TrackPointExtension>
        </extensions>
      </trkpt>
      <trkpt lat="46.08768" lon="6.24509">
        <ele>878.1</ele>
        <time>2021-03-02T12:47:53Z</time>
        <extensions>
          <gpxtpx:TrackPointExtension xmlns:gpxtpx="http://www.garmin.com/xmlschemas/TrackPointExtension/v1">
            <gpxtpx:hr>145</gpxtpx:hr>
          </gpxtpx:TrackPointExtension>
        </extensions>
      </trkpt>
      <trkpt lat="46.08764" lon="6.24503">
        <ele>878.1</ele>
        <time>2021-03-02T12:47:54Z</time>
        <extensions>
          <gpxtpx:TrackPointExtension xmlns:gpxtpx="http://www.garmin.com/xmlschemas/TrackPointExtension/v1">
            <gpxtpx:hr>144</gpxtpx:hr>
          </gpxtpx:TrackPointExtension>
        </extensions>
      </trkpt>
      <trkpt lat="46.0876" lon="6.24498">
        <ele>878.1</ele>
        <time>2021-03-02T12:47:55Z</time>
        <extensions>
          <gpxtpx:TrackPointExtension xmlns:gpxtpx="http://www.garmin.com/xmlschemas/TrackPointExtension/v1">
            <gpxtpx:hr>144</gpxtpx:hr>
          </gpxtpx:TrackPointExtension>
        </extensions>
      </trkpt>
      <trkpt lat="46.08755" lon="6.24493">
        <ele>878.1</ele>
        <time>2021-03-02T12:47:56Z</time>
        <extensions>
          <gpxtpx:TrackPointExtension xmlns:gpxtpx="http://www.garmin.com/xmlschemas/TrackPointExtension/v1">
            <gpxtpx:hr>144</gpxtpx:hr>
          </gpxtpx:TrackPointExtension>
        </extensions>
      </trkpt>
      <trkpt lat="46.08752" lon="6.24488">
        <ele>878.1</ele>
        <time>2021-03-02T12:47:57Z</time>
        <extensions>
          <gpxtpx:TrackPointExtension xmlns:gpxtpx="http://www.garmin.com/xmlschemas/TrackPointExtension/v1">
            <gpxtpx:hr>143</gpxtpx:hr>
          </gpxtpx:TrackPointExtension>
        </extensions>
      </trkpt>
      <trkpt lat="46.08747" lon="6.24484">
        <ele>878.1</ele>
        <time>2021-03-02T12:47:58Z</time>
        <extensions>
          <gpxtpx:TrackPointExtension xmlns:gpxtpx="http://www.garmin.com/xmlschemas/TrackPointExtension/v1">
            <gpxtpx:hr>143</gpxtpx:hr>
          </gpxtpx:TrackPointExtension>
        </extensions>
      </trkpt>
      <trkpt lat="46.08743" lon="6.2448">
        <ele>878.1</ele>
        <time>2021-03-02T12:47:59Z</time>
        <extensions>
          <gpxtpx:TrackPointExtension xmlns:gpxtpx="http://www.garmin.com/xmlschemas/TrackPointExtension/v1">
            <gpxtpx:hr>143</gpxtpx:hr>
          </gpxtpx:TrackPointExtension>
        </extensions>
      </trkpt>
      <trkpt lat="46.08739" lon="6.24475">
        <ele>878.2</ele>
        <time>2021-03-02T12:48:00Z</time>
        <extensions>
          <gpxtpx:TrackPointExtension xmlns:gpxtpx="http://www.garmin.com/xmlschemas/TrackPointExtension/v1">
            <gpxtpx:hr>142</gpxtpx:hr>
          </gpxtpx:TrackPointExtension>
        </extensions>
      </trkpt>
      <trkpt lat="46.08734" lon="6.24471">
        <ele>878.2</ele>
        <time>2021-03-02T12:48:01Z</time>
        <extensions>
          <gpxtpx:TrackPointExtension xmlns:gpxtpx="http://www.garmin.com/xmlschemas/TrackPointExtension/v1">
            <gpxtpx:hr>142</gpxtpx:hr>
          </gpxtpx:TrackPointExtension>
        </extensions>
      </trkpt>
      <trkpt lat="46.08729" lon="6.24466">
        <ele>878.2</ele>
        <time>2021-03-02T12:48:02Z</time>
        <extensions>
          <gpxtpx:TrackPointExtension xmlns:gpxtpx="http://www.garmin.com/xmlschemas/TrackPointExtension/v1">
            <gpxtpx:hr>142</gpxtpx:hr>
          </gpxtpx:TrackPointExtension>
        </extensions>
      </trkpt>
      <trkpt lat="46.08724" lon="6.24462">
        <ele>878.3</ele>
        <time>2021-03-02T12:48:03Z</time>
        <extensions>
          <gpxtpx:TrackPointExtension xmlns:gpxtpx="http://www.garmin.com/xmlschemas/TrackPointExtension/v1">
            <gpxtpx:hr>142</gpxtpx:hr>
          </gpxtpx:TrackPointExtension>
        </extensions>
      </trkpt>
      <trkpt lat="46.08719" lon="6.24459">
        <ele>878.3</ele>
        <time>2021-03-02T12:48:04Z</time>
        <extensions>
          <gpxtpx:TrackPointExtension xmlns:gpxtpx="http://www.garmin.com/xmlschemas/TrackPointExtension/v1">
            <gpxtpx:hr>141</gpxtpx:hr>
          </gpxtpx:TrackPointExtension>
        </extensions>
      </trkpt>
      <trkpt lat="46.08714" lon="6.24456">
        <ele>878.3</ele>
        <time>2021-03-02T12:48:05Z</time>
        <extensions>
          <gpxtpx:TrackPointExtension xmlns:gpxtpx="http://www.garmin.com/xmlschemas/TrackPointExtension/v1">
            <gpxtpx:hr>141</gpxtpx:hr>
          </gpxtpx:TrackPointExtension>
        </extensions>
      </trkpt>
      <trkpt lat="46.08709" lon="6.24453">
        <ele>878.3</ele>
        <time>2021-03-02T12:48:06Z</time>
        <extensions>
          <gpxtpx:TrackPointExtension xmlns:gpxtpx="http://www.garmin.com/xmlschemas/TrackPointExtension/v1">
            <gpxtpx:hr>141</gpxtpx:hr>
          </gpxtpx:TrackPointExtension>
        </extensions>
      </trkpt>
      <trkpt lat="46.08704" lon="6.24451">
        <ele>878.3</ele>
        <time>2021-03-02T12:48:07Z</time>
        <extensions>
          <gpxtpx:TrackPointExtension xmlns:gpxtpx="http://www.garmin.com/xmlschemas/TrackPointExtension/v1">
            <gpxtpx:hr>141</gpxtpx:hr>
          </gpxtpx:TrackPointExtension>
        </extensions>
      </trkpt>
      <trkpt lat="46.08699" lon="6.2445">
        <ele>878.4</ele>
        <time>2021-03-02T12:48:08Z</time>
        <extensions>
          <gpxtpx:TrackPointExtension xmlns:gpxtpx="http://www.garmin.com/xmlschemas/TrackPointExtension/v1">
            <gpxtpx:hr>140</gpxtpx:hr>
          </gpxtpx:TrackPointExtension>
        </extensions>
      </trkpt>
      <trkpt lat="46.08693" lon="6.24448">
        <ele>878.4</ele>
        <time>2021-03-02T12:48:09Z</time>
        <extensions>
          <gpxtpx:TrackPointExtension xmlns:gpxtpx="http://www.garmin.com/xmlschemas/TrackPointExtension/v1">
            <gpxtpx:hr>140</gpxtpx:hr>
          </gpxtpx:TrackPointExtension>
        </extensions>
      </trkpt>
      <trkpt lat="46.08687" lon="6.24447">
        <ele>878.4</ele>
        <time>2021-03-02T12:48:10Z</time>
        <extensions>
          <gpxtpx:TrackPointExtension xmlns:gpxtpx="http://www.garmin.com/xmlschemas/TrackPointExtension/v1">
            <gpxtpx:hr>140</gpxtpx:hr>
          </gpxtpx:TrackPointExtension>
        </extensions>
      </trkpt>
      <trkpt lat="46.08681" lon="6.24445">
        <ele>878.5</ele>
        <time>2021-03-02T12:48:11Z</time>
        <extensions>
          <gpxtpx:TrackPointExtension xmlns:gpxtpx="http://www.garmin.com/xmlschemas/TrackPointExtension/v1">
            <gpxtpx:hr>139</gpxtpx:hr>
          </gpxtpx:TrackPointExtension>
        </extensions>
      </trkpt>
      <trkpt lat="46.08675" lon="6.24444">
        <ele>878.6</ele>
        <time>2021-03-02T12:48:12Z</time>
        <extensions>
          <gpxtpx:TrackPointExtension xmlns:gpxtpx="http://www.garmin.com/xmlschemas/TrackPointExtension/v1">
            <gpxtpx:hr>138</gpxtpx:hr>
          </gpxtpx:TrackPointExtension>
        </extensions>
      </trkpt>
      <trkpt lat="46.08669" lon="6.24442">
        <ele>878.7</ele>
        <time>2021-03-02T12:48:13Z</time>
        <extensions>
          <gpxtpx:TrackPointExtension xmlns:gpxtpx="http://www.garmin.com/xmlschemas/TrackPointExtension/v1">
            <gpxtpx:hr>138</gpxtpx:hr>
          </gpxtpx:TrackPointExtension>
        </extensions>
      </trkpt>
      <trkpt lat="46.08663" lon="6.24441">
        <ele>878.8</ele>
        <time>2021-03-02T12:48:14Z</time>
        <extensions>
          <gpxtpx:TrackPointExtension xmlns:gpxtpx="http://www.garmin.com/xmlschemas/TrackPointExtension/v1">
            <gpxtpx:hr>137</gpxtpx:hr>
          </gpxtpx:TrackPointExtension>
        </extensions>
      </trkpt>
      <trkpt lat="46.08657" lon="6.2444">
        <ele>878.9</ele>
        <time>2021-03-02T12:48:15Z</time>
        <extensions>
          <gpxtpx:TrackPointExtension xmlns:gpxtpx="http://www.garmin.com/xmlschemas/TrackPointExtension/v1">
            <gpxtpx:hr>137</gpxtpx:hr>
          </gpxtpx:TrackPointExtension>
        </extensions>
      </trkpt>
      <trkpt lat="46.08651" lon="6.24439">
        <ele>879.1</ele>
        <time>2021-03-02T12:48:16Z</time>
        <extensions>
          <gpxtpx:TrackPointExtension xmlns:gpxtpx="http://www.garmin.com/xmlschemas/TrackPointExtension/v1">
            <gpxtpx:hr>136</gpxtpx:hr>
          </gpxtpx:TrackPointExtension>
        </extensions>
      </trkpt>
      <trkpt lat="46.08645" lon="6.24438">
        <ele>879.2</ele>
        <time>2021-03-02T12:48:17Z</time>
        <extensions>
          <gpxtpx:TrackPointExtension xmlns:gpxtpx="http://www.garmin.com/xmlschemas/TrackPointExtension/v1">
            <gpxtpx:hr>136</gpxtpx:hr>
          </gpxtpx:TrackPointExtension>
        </extensions>
      </trkpt>
      <trkpt lat="46.0864" lon="6.24436">
        <ele>879.3</ele>
        <time>2021-03-02T12:48:18Z</time>
        <extensions>
          <gpxtpx:TrackPointExtension xmlns:gpxtpx="http://www.garmin.com/xmlschemas/TrackPointExtension/v1">
            <gpxtpx:hr>135</gpxtpx:hr>
          </gpxtpx:TrackPointExtension>
        </extensions>
      </trkpt>
      <trkpt lat="46.08634" lon="6.24435">
        <ele>879.4</ele>
        <time>2021-03-02T12:48:19Z</time>
        <extensions>
          <gpxtpx:TrackPointExtension xmlns:gpxtpx="http://www.garmin.com/xmlschemas/TrackPointExtension/v1">
            <gpxtpx:hr>135</gpxtpx:hr>
          </gpxtpx:TrackPointExtension>
        </extensions>
      </trkpt>
      <trkpt lat="46.08628" lon="6.24434">
        <ele>879.5</ele>
        <time>2021-03-02T12:48:20Z</time>
        <extensions>
          <gpxtpx:TrackPointExtension xmlns:gpxtpx="http://www.garmin.com/xmlschemas/TrackPointExtension/v1">
            <gpxtpx:hr>134</gpxtpx:hr>
          </gpxtpx:TrackPointExtension>
        </extensions>
      </trkpt>
      <trkpt lat="46.08623" lon="6.24433">
        <ele>879.5</ele>
        <time>2021-03-02T12:48:21Z</time>
        <extensions>
          <gpxtpx:TrackPointExtension xmlns:gpxtpx="http://www.garmin.com/xmlschemas/TrackPointExtension/v1">
            <gpxtpx:hr>134</gpxtpx:hr>
          </gpxtpx:TrackPointExtension>
        </extensions>
      </trkpt>
      <trkpt lat="46.08617" lon="6.24431">
        <ele>879.6</ele>
        <time>2021-03-02T12:48:22Z</time>
        <extensions>
          <gpxtpx:TrackPointExtension xmlns:gpxtpx="http://www.garmin.com/xmlschemas/TrackPointExtension/v1">
            <gpxtpx:hr>133</gpxtpx:hr>
          </gpxtpx:TrackPointExtension>
        </extensions>
      </trkpt>
      <trkpt lat="46.08611" lon="6.24428">
        <ele>879.5</ele>
        <time>2021-03-02T12:48:23Z</time>
        <extensions>
          <gpxtpx:TrackPointExtension xmlns:gpxtpx="http://www.garmin.com/xmlschemas/TrackPointExtension/v1">
            <gpxtpx:hr>133</gpxtpx:hr>
          </gpxtpx:TrackPointExtension>
        </extensions>
      </trkpt>
      <trkpt lat="46.08605" lon="6.24426">
        <ele>879.5</ele>
        <time>2021-03-02T12:48:24Z</time>
        <extensions>
          <gpxtpx:TrackPointExtension xmlns:gpxtpx="http://www.garmin.com/xmlschemas/TrackPointExtension/v1">
            <gpxtpx:hr>133</gpxtpx:hr>
          </gpxtpx:TrackPointExtension>
        </extensions>
      </trkpt>
      <trkpt lat="46.08599" lon="6.24423">
        <ele>879.4</ele>
        <time>2021-03-02T12:48:25Z</time>
        <extensions>
          <gpxtpx:TrackPointExtension xmlns:gpxtpx="http://www.garmin.com/xmlschemas/TrackPointExtension/v1">
            <gpxtpx:hr>133</gpxtpx:hr>
          </gpxtpx:TrackPointExtension>
        </extensions>
      </trkpt>
      <trkpt lat="46.08592" lon="6.2442">
        <ele>879.3</ele>
        <time>2021-03-02T12:48:26Z</time>
        <extensions>
          <gpxtpx:TrackPointExtension xmlns:gpxtpx="http://www.garmin.com/xmlschemas/TrackPointExtension/v1">
            <gpxtpx:hr>133</gpxtpx:hr>
          </gpxtpx:TrackPointExtension>
        </extensions>
      </trkpt>
      <trkpt lat="46.08586" lon="6.24417">
        <ele>879.2</ele>
        <time>2021-03-02T12:48:27Z</time>
        <extensions>
          <gpxtpx:TrackPointExtension xmlns:gpxtpx="http://www.garmin.com/xmlschemas/TrackPointExtension/v1">
            <gpxtpx:hr>133</gpxtpx:hr>
          </gpxtpx:TrackPointExtension>
        </extensions>
      </trkpt>
      <trkpt lat="46.08579" lon="6.24414">
        <ele>879.1</ele>
        <time>2021-03-02T12:48:28Z</time>
        <extensions>
          <gpxtpx:TrackPointExtension xmlns:gpxtpx="http://www.garmin.com/xmlschemas/TrackPointExtension/v1">
            <gpxtpx:hr>133</gpxtpx:hr>
          </gpxtpx:TrackPointExtension>
        </extensions>
      </trkpt>
      <trkpt lat="46.08573" lon="6.24411">
        <ele>879.1</ele>
        <time>2021-03-02T12:48:29Z</time>
        <extensions>
          <gpxtpx:TrackPointExtension xmlns:gpxtpx="http://www.garmin.com/xmlschemas/TrackPointExtension/v1">
            <gpxtpx:hr>134</gpxtpx:hr>
          </gpxtpx:TrackPointExtension>
        </extensions>
      </trkpt>
      <trkpt lat="46.08566" lon="6.24409">
        <ele>879.1</ele>
        <time>2021-03-02T12:48:30Z</time>
        <extensions>
          <gpxtpx:TrackPointExtension xmlns:gpxtpx="http://www.garmin.com/xmlschemas/TrackPointExtension/v1">
            <gpxtpx:hr>134</gpxtpx:hr>
          </gpxtpx:TrackPointExtension>
        </extensions>
      </trkpt>
      <trkpt lat="46.08559" lon="6.24406">
        <ele>879.1</ele>
        <time>2021-03-02T12:48:31Z</time>
        <extensions>
          <gpxtpx:TrackPointExtension xmlns:gpxtpx="http://www.garmin.com/xmlschemas/TrackPointExtension/v1">
            <gpxtpx:hr>135</gpxtpx:hr>
          </gpxtpx:TrackPointExtension>
        </extensions>
      </trkpt>
      <trkpt lat="46.08552" lon="6.24403">
        <ele>879.1</ele>
        <time>2021-03-02T12:48:32Z</time>
        <extensions>
          <gpxtpx:TrackPointExtension xmlns:gpxtpx="http://www.garmin.com/xmlschemas/TrackPointExtension/v1">
            <gpxtpx:hr>135</gpxtpx:hr>
          </gpxtpx:TrackPointExtension>
        </extensions>
      </trkpt>
      <trkpt lat="46.08545" lon="6.244">
        <ele>879</ele>
        <time>2021-03-02T12:48:33Z</time>
        <extensions>
          <gpxtpx:TrackPointExtension xmlns:gpxtpx="http://www.garmin.com/xmlschemas/TrackPointExtension/v1">
            <gpxtpx:hr>135</gpxtpx:hr>
          </gpxtpx:TrackPointExtension>
        </extensions>
      </trkpt>
      <trkpt lat="46.08538" lon="6.24398">
        <ele>879</ele>
        <time>2021-03-02T12:48:34Z</time>
        <extensions>
          <gpxtpx:TrackPointExtension xmlns:gpxtpx="http://www.garmin.com/xmlschemas/TrackPointExtension/v1">
            <gpxtpx:hr>135</gpxtpx:hr>
          </gpxtpx:TrackPointExtension>
        </extensions>
      </trkpt>
      <trkpt lat="46.08532" lon="6.24395">
        <ele>879</ele>
        <time>2021-03-02T12:48:35Z</time>
        <extensions>
          <gpxtpx:TrackPointExtension xmlns:gpxtpx="http://www.garmin.com/xmlschemas/TrackPointExtension/v1">
            <gpxtpx:hr>135</gpxtpx:hr>
          </gpxtpx:TrackPointExtension>
        </extensions>
      </trkpt>
      <trkpt lat="46.08525" lon="6.24392">
        <ele>879</ele>
        <time>2021-03-02T12:48:36Z</time>
        <extensions>
          <gpxtpx:TrackPointExtension xmlns:gpxtpx="http://www.garmin.com/xmlschemas/TrackPointExtension/v1">
            <gpxtpx:hr>135</gpxtpx:hr>
          </gpxtpx:TrackPointExtension>
        </extensions>
      </trkpt>
      <trkpt lat="46.08518" lon="6.24389">
        <ele>879</ele>
        <time>2021-03-02T12:48:37Z</time>
        <extensions>
          <gpxtpx:TrackPointExtension xmlns:gpxtpx="http://www.garmin.com/xmlschemas/TrackPointExtension/v1">
            <gpxtpx:hr>135</gpxtpx:hr>
          </gpxtpx:TrackPointExtension>
        </extensions>
      </trkpt>
      <trkpt lat="46.08511" lon="6.24386">
        <ele>879</ele>
        <time>2021-03-02T12:48:38Z</time>
        <extensions>
          <gpxtpx:TrackPointExtension xmlns:gpxtpx="http://www.garmin.com/xmlschemas/TrackPointExtension/v1">
            <gpxtpx:hr>135</gpxtpx:hr>
          </gpxtpx:TrackPointExtension>
        </extensions>
      </trkpt>
      <trkpt lat="46.08505" lon="6.24383">
        <ele>879</ele>
        <time>2021-03-02T12:48:39Z</time>
        <extensions>
          <gpxtpx:TrackPointExtension xmlns:gpxtpx="http://www.garmin.com/xmlschemas/TrackPointExtension/v1">
            <gpxtpx:hr>135</gpxtpx:hr>
          </gpxtpx:TrackPointExtension>
        </extensions>
      </trkpt>
      <trkpt lat="46.08498" lon="6.2438">
        <ele>879</ele>
        <time>2021-03-02T12:48:40Z</time>
        <extensions>
          <gpxtpx:TrackPointExtension xmlns:gpxtpx="http://www.garmin.com/xmlschemas/TrackPointExtension/v1">
            <gpxtpx:hr>135</gpxtpx:hr>
          </gpxtpx:TrackPointExtension>
        </extensions>
      </trkpt>
      <trkpt lat="46.08491" lon="6.24377">
        <ele>879</ele>
        <time>2021-03-02T12:48:41Z</time>
        <extensions>
          <gpxtpx:TrackPointExtension xmlns:gpxtpx="http://www.garmin.com/xmlschemas/TrackPointExtension/v1">
            <gpxtpx:hr>134</gpxtpx:hr>
          </gpxtpx:TrackPointExtension>
        </extensions>
      </trkpt>
      <trkpt lat="46.08485" lon="6.24373">
        <ele>879</ele>
        <time>2021-03-02T12:48:42Z</time>
        <extensions>
          <gpxtpx:TrackPointExtension xmlns:gpxtpx="http://www.garmin.com/xmlschemas/TrackPointExtension/v1">
            <gpxtpx:hr>134</gpxtpx:hr>
          </gpxtpx:TrackPointExtension>
        </extensions>
      </trkpt>
      <trkpt lat="46.08478" lon="6.24369">
        <ele>879</ele>
        <time>2021-03-02T12:48:43Z</time>
        <extensions>
          <gpxtpx:TrackPointExtension xmlns:gpxtpx="http://www.garmin.com/xmlschemas/TrackPointExtension/v1">
            <gpxtpx:hr>134</gpxtpx:hr>
          </gpxtpx:TrackPointExtension>
        </extensions>
      </trkpt>
      <trkpt lat="46.08472" lon="6.24365">
        <ele>879</ele>
        <time>2021-03-02T12:48:44Z</time>
        <extensions>
          <gpxtpx:TrackPointExtension xmlns:gpxtpx="http://www.garmin.com/xmlschemas/TrackPointExtension/v1">
            <gpxtpx:hr>134</gpxtpx:hr>
          </gpxtpx:TrackPointExtension>
        </extensions>
      </trkpt>
      <trkpt lat="46.08466" lon="6.24361">
        <ele>879.1</ele>
        <time>2021-03-02T12:48:45Z</time>
        <extensions>
          <gpxtpx:TrackPointExtension xmlns:gpxtpx="http://www.garmin.com/xmlschemas/TrackPointExtension/v1">
            <gpxtpx:hr>134</gpxtpx:hr>
          </gpxtpx:TrackPointExtension>
        </extensions>
      </trkpt>
      <trkpt lat="46.08459" lon="6.24358">
        <ele>879.1</ele>
        <time>2021-03-02T12:48:46Z</time>
        <extensions>
          <gpxtpx:TrackPointExtension xmlns:gpxtpx="http://www.garmin.com/xmlschemas/TrackPointExtension/v1">
            <gpxtpx:hr>133</gpxtpx:hr>
          </gpxtpx:TrackPointExtension>
        </extensions>
      </trkpt>
      <trkpt lat="46.08453" lon="6.24354">
        <ele>879.2</ele>
        <time>2021-03-02T12:48:47Z</time>
        <extensions>
          <gpxtpx:TrackPointExtension xmlns:gpxtpx="http://www.garmin.com/xmlschemas/TrackPointExtension/v1">
            <gpxtpx:hr>133</gpxtpx:hr>
          </gpxtpx:TrackPointExtension>
        </extensions>
      </trkpt>
      <trkpt lat="46.08447" lon="6.24351">
        <ele>879.2</ele>
        <time>2021-03-02T12:48:48Z</time>
        <extensions>
          <gpxtpx:TrackPointExtension xmlns:gpxtpx="http://www.garmin.com/xmlschemas/TrackPointExtension/v1">
            <gpxtpx:hr>133</gpxtpx:hr>
          </gpxtpx:TrackPointExtension>
        </extensions>
      </trkpt>
      <trkpt lat="46.0844" lon="6.24349">
        <ele>879.3</ele>
        <time>2021-03-02T12:48:49Z</time>
        <extensions>
          <gpxtpx:TrackPointExtension xmlns:gpxtpx="http://www.garmin.com/xmlschemas/TrackPointExtension/v1">
            <gpxtpx:hr>133</gpxtpx:hr>
          </gpxtpx:TrackPointExtension>
        </extensions>
      </trkpt>
      <trkpt lat="46.08434" lon="6.24348">
        <ele>879.5</ele>
        <time>2021-03-02T12:48:50Z</time>
        <extensions>
          <gpxtpx:TrackPointExtension xmlns:gpxtpx="http://www.garmin.com/xmlschemas/TrackPointExtension/v1">
            <gpxtpx:hr>133</gpxtpx:hr>
          </gpxtpx:TrackPointExtension>
        </extensions>
      </trkpt>
      <trkpt lat="46.08427" lon="6.24347">
        <ele>879.6</ele>
        <time>2021-03-02T12:48:51Z</time>
        <extensions>
          <gpxtpx:TrackPointExtension xmlns:gpxtpx="http://www.garmin.com/xmlschemas/TrackPointExtension/v1">
            <gpxtpx:hr>133</gpxtpx:hr>
          </gpxtpx:TrackPointExtension>
        </extensions>
      </trkpt>
      <trkpt lat="46.08421" lon="6.24347">
        <ele>879.8</ele>
        <time>2021-03-02T12:48:52Z</time>
        <extensions>
          <gpxtpx:TrackPointExtension xmlns:gpxtpx="http://www.garmin.com/xmlschemas/TrackPointExtension/v1">
            <gpxtpx:hr>133</gpxtpx:hr>
          </gpxtpx:TrackPointExtension>
        </extensions>
      </trkpt>
      <trkpt lat="46.08415" lon="6.24347">
        <ele>880.2</ele>
        <time>2021-03-02T12:48:53Z</time>
        <extensions>
          <gpxtpx:TrackPointExtension xmlns:gpxtpx="http://www.garmin.com/xmlschemas/TrackPointExtension/v1">
            <gpxtpx:hr>133</gpxtpx:hr>
          </gpxtpx:TrackPointExtension>
        </extensions>
      </trkpt>
      <trkpt lat="46.08409" lon="6.24347">
        <ele>880.5</ele>
        <time>2021-03-02T12:48:54Z</time>
        <extensions>
          <gpxtpx:TrackPointExtension xmlns:gpxtpx="http://www.garmin.com/xmlschemas/TrackPointExtension/v1">
            <gpxtpx:hr>133</gpxtpx:hr>
          </gpxtpx:TrackPointExtension>
        </extensions>
      </trkpt>
      <trkpt lat="46.08403" lon="6.24346">
        <ele>880.8</ele>
        <time>2021-03-02T12:48:55Z</time>
        <extensions>
          <gpxtpx:TrackPointExtension xmlns:gpxtpx="http://www.garmin.com/xmlschemas/TrackPointExtension/v1">
            <gpxtpx:hr>133</gpxtpx:hr>
          </gpxtpx:TrackPointExtension>
        </extensions>
      </trkpt>
      <trkpt lat="46.08398" lon="6.24346">
        <ele>881.1</ele>
        <time>2021-03-02T12:48:56Z</time>
        <extensions>
          <gpxtpx:TrackPointExtension xmlns:gpxtpx="http://www.garmin.com/xmlschemas/TrackPointExtension/v1">
            <gpxtpx:hr>132</gpxtpx:hr>
          </gpxtpx:TrackPointExtension>
        </extensions>
      </trkpt>
      <trkpt lat="46.08393" lon="6.24346">
        <ele>881.4</ele>
        <time>2021-03-02T12:48:57Z</time>
        <extensions>
          <gpxtpx:TrackPointExtension xmlns:gpxtpx="http://www.garmin.com/xmlschemas/TrackPointExtension/v1">
            <gpxtpx:hr>132</gpxtpx:hr>
          </gpxtpx:TrackPointExtension>
        </extensions>
      </trkpt>
      <trkpt lat="46.08388" lon="6.24346">
        <ele>881.7</ele>
        <time>2021-03-02T12:48:58Z</time>
        <extensions>
          <gpxtpx:TrackPointExtension xmlns:gpxtpx="http://www.garmin.com/xmlschemas/TrackPointExtension/v1">
            <gpxtpx:hr>132</gpxtpx:hr>
          </gpxtpx:TrackPointExtension>
        </extensions>
      </trkpt>
      <trkpt lat="46.08382" lon="6.24346">
        <ele>881.9</ele>
        <time>2021-03-02T12:48:59Z</time>
        <extensions>
          <gpxtpx:TrackPointExtension xmlns:gpxtpx="http://www.garmin.com/xmlschemas/TrackPointExtension/v1">
            <gpxtpx:hr>132</gpxtpx:hr>
          </gpxtpx:TrackPointExtension>
        </extensions>
      </trkpt>
      <trkpt lat="46.08377" lon="6.24346">
        <ele>882.2</ele>
        <time>2021-03-02T12:49:00Z</time>
        <extensions>
          <gpxtpx:TrackPointExtension xmlns:gpxtpx="http://www.garmin.com/xmlschemas/TrackPointExtension/v1">
            <gpxtpx:hr>133</gpxtpx:hr>
          </gpxtpx:TrackPointExtension>
        </extensions>
      </trkpt>
      <trkpt lat="46.08372" lon="6.24345">
        <ele>882.5</ele>
        <time>2021-03-02T12:49:01Z</time>
        <extensions>
          <gpxtpx:TrackPointExtension xmlns:gpxtpx="http://www.garmin.com/xmlschemas/TrackPointExtension/v1">
            <gpxtpx:hr>133</gpxtpx:hr>
          </gpxtpx:TrackPointExtension>
        </extensions>
      </trkpt>
      <trkpt lat="46.08367" lon="6.24345">
        <ele>882.7</ele>
        <time>2021-03-02T12:49:02Z</time>
        <extensions>
          <gpxtpx:TrackPointExtension xmlns:gpxtpx="http://www.garmin.com/xmlschemas/TrackPointExtension/v1">
            <gpxtpx:hr>133</gpxtpx:hr>
          </gpxtpx:TrackPointExtension>
        </extensions>
      </trkpt>
      <trkpt lat="46.08362" lon="6.24345">
        <ele>883</ele>
        <time>2021-03-02T12:49:03Z</time>
        <extensions>
          <gpxtpx:TrackPointExtension xmlns:gpxtpx="http://www.garmin.com/xmlschemas/TrackPointExtension/v1">
            <gpxtpx:hr>133</gpxtpx:hr>
          </gpxtpx:TrackPointExtension>
        </extensions>
      </trkpt>
      <trkpt lat="46.08357" lon="6.24344">
        <ele>883.3</ele>
        <time>2021-03-02T12:49:04Z</time>
        <extensions>
          <gpxtpx:TrackPointExtension xmlns:gpxtpx="http://www.garmin.com/xmlschemas/TrackPointExtension/v1">
            <gpxtpx:hr>133</gpxtpx:hr>
          </gpxtpx:TrackPointExtension>
        </extensions>
      </trkpt>
      <trkpt lat="46.08352" lon="6.24344">
        <ele>883.5</ele>
        <time>2021-03-02T12:49:05Z</time>
        <extensions>
          <gpxtpx:TrackPointExtension xmlns:gpxtpx="http://www.garmin.com/xmlschemas/TrackPointExtension/v1">
            <gpxtpx:hr>133</gpxtpx:hr>
          </gpxtpx:TrackPointExtension>
        </extensions>
      </trkpt>
      <trkpt lat="46.08348" lon="6.24344">
        <ele>883.8</ele>
        <time>2021-03-02T12:49:06Z</time>
        <extensions>
          <gpxtpx:TrackPointExtension xmlns:gpxtpx="http://www.garmin.com/xmlschemas/TrackPointExtension/v1">
            <gpxtpx:hr>133</gpxtpx:hr>
          </gpxtpx:TrackPointExtension>
        </extensions>
      </trkpt>
      <trkpt lat="46.08343" lon="6.24343">
        <ele>884</ele>
        <time>2021-03-02T12:49:07Z</time>
        <extensions>
          <gpxtpx:TrackPointExtension xmlns:gpxtpx="http://www.garmin.com/xmlschemas/TrackPointExtension/v1">
            <gpxtpx:hr>133</gpxtpx:hr>
          </gpxtpx:TrackPointExtension>
        </extensions>
      </trkpt>
      <trkpt lat="46.08338" lon="6.24343">
        <ele>884.3</ele>
        <time>2021-03-02T12:49:08Z</time>
        <extensions>
          <gpxtpx:TrackPointExtension xmlns:gpxtpx="http://www.garmin.com/xmlschemas/TrackPointExtension/v1">
            <gpxtpx:hr>133</gpxtpx:hr>
          </gpxtpx:TrackPointExtension>
        </extensions>
      </trkpt>
      <trkpt lat="46.08334" lon="6.24343">
        <ele>884.6</ele>
        <time>2021-03-02T12:49:09Z</time>
        <extensions>
          <gpxtpx:TrackPointExtension xmlns:gpxtpx="http://www.garmin.com/xmlschemas/TrackPointExtension/v1">
            <gpxtpx:hr>133</gpxtpx:hr>
          </gpxtpx:TrackPointExtension>
        </extensions>
      </trkpt>
      <trkpt lat="46.08329" lon="6.24343">
        <ele>884.9</ele>
        <time>2021-03-02T12:49:10Z</time>
        <extensions>
          <gpxtpx:TrackPointExtension xmlns:gpxtpx="http://www.garmin.com/xmlschemas/TrackPointExtension/v1">
            <gpxtpx:hr>134</gpxtpx:hr>
          </gpxtpx:TrackPointExtension>
        </extensions>
      </trkpt>
      <trkpt lat="46.08325" lon="6.24343">
        <ele>885.1</ele>
        <time>2021-03-02T12:49:11Z</time>
        <extensions>
          <gpxtpx:TrackPointExtension xmlns:gpxtpx="http://www.garmin.com/xmlschemas/TrackPointExtension/v1">
            <gpxtpx:hr>134</gpxtpx:hr>
          </gpxtpx:TrackPointExtension>
        </extensions>
      </trkpt>
      <trkpt lat="46.08321" lon="6.24342">
        <ele>885.4</ele>
        <time>2021-03-02T12:49:12Z</time>
        <extensions>
          <gpxtpx:TrackPointExtension xmlns:gpxtpx="http://www.garmin.com/xmlschemas/TrackPointExtension/v1">
            <gpxtpx:hr>134</gpxtpx:hr>
          </gpxtpx:TrackPointExtension>
        </extensions>
      </trkpt>
      <trkpt lat="46.08317" lon="6.24342">
        <ele>885.7</ele>
        <time>2021-03-02T12:49:13Z</time>
        <extensions>
          <gpxtpx:TrackPointExtension xmlns:gpxtpx="http://www.garmin.com/xmlschemas/TrackPointExtension/v1">
            <gpxtpx:hr>134</gpxtpx:hr>
          </gpxtpx:TrackPointExtension>
        </extensions>
      </trkpt>
      <trkpt lat="46.08313" lon="6.24342">
        <ele>886</ele>
        <time>2021-03-02T12:49:14Z</time>
        <extensions>
          <gpxtpx:TrackPointExtension xmlns:gpxtpx="http://www.garmin.com/xmlschemas/TrackPointExtension/v1">
            <gpxtpx:hr>135</gpxtpx:hr>
          </gpxtpx:TrackPointExtension>
        </extensions>
      </trkpt>
      <trkpt lat="46.08309" lon="6.24342">
        <ele>886.3</ele>
        <time>2021-03-02T12:49:15Z</time>
        <extensions>
          <gpxtpx:TrackPointExtension xmlns:gpxtpx="http://www.garmin.com/xmlschemas/TrackPointExtension/v1">
            <gpxtpx:hr>135</gpxtpx:hr>
          </gpxtpx:TrackPointExtension>
        </extensions>
      </trkpt>
      <trkpt lat="46.08305" lon="6.24341">
        <ele>886.6</ele>
        <time>2021-03-02T12:49:16Z</time>
        <extensions>
          <gpxtpx:TrackPointExtension xmlns:gpxtpx="http://www.garmin.com/xmlschemas/TrackPointExtension/v1">
            <gpxtpx:hr>135</gpxtpx:hr>
          </gpxtpx:TrackPointExtension>
        </extensions>
      </trkpt>
      <trkpt lat="46.08301" lon="6.24341">
        <ele>886.9</ele>
        <time>2021-03-02T12:49:17Z</time>
        <extensions>
          <gpxtpx:TrackPointExtension xmlns:gpxtpx="http://www.garmin.com/xmlschemas/TrackPointExtension/v1">
            <gpxtpx:hr>136</gpxtpx:hr>
          </gpxtpx:TrackPointExtension>
        </extensions>
      </trkpt>
      <trkpt lat="46.08297" lon="6.24341">
        <ele>887.1</ele>
        <time>2021-03-02T12:49:18Z</time>
        <extensions>
          <gpxtpx:TrackPointExtension xmlns:gpxtpx="http://www.garmin.com/xmlschemas/TrackPointExtension/v1">
            <gpxtpx:hr>136</gpxtpx:hr>
          </gpxtpx:TrackPointExtension>
        </extensions>
      </trkpt>
      <trkpt lat="46.08294" lon="6.2434">
        <ele>887.4</ele>
        <time>2021-03-02T12:49:19Z</time>
        <extensions>
          <gpxtpx:TrackPointExtension xmlns:gpxtpx="http://www.garmin.com/xmlschemas/TrackPointExtension/v1">
            <gpxtpx:hr>136</gpxtpx:hr>
          </gpxtpx:TrackPointExtension>
        </extensions>
      </trkpt>
      <trkpt lat="46.0829" lon="6.2434">
        <ele>887.7</ele>
        <time>2021-03-02T12:49:20Z</time>
        <extensions>
          <gpxtpx:TrackPointExtension xmlns:gpxtpx="http://www.garmin.com/xmlschemas/TrackPointExtension/v1">
            <gpxtpx:hr>136</gpxtpx:hr>
          </gpxtpx:TrackPointExtension>
        </extensions>
      </trkpt>
      <trkpt lat="46.08286" lon="6.2434">
        <ele>887.9</ele>
        <time>2021-03-02T12:49:21Z</time>
        <extensions>
          <gpxtpx:TrackPointExtension xmlns:gpxtpx="http://www.garmin.com/xmlschemas/TrackPointExtension/v1">
            <gpxtpx:hr>137</gpxtpx:hr>
          </gpxtpx:TrackPointExtension>
        </extensions>
      </trkpt>
      <trkpt lat="46.08283" lon="6.2434">
        <ele>888.1</ele>
        <time>2021-03-02T12:49:22Z</time>
        <extensions>
          <gpxtpx:TrackPointExtension xmlns:gpxtpx="http://www.garmin.com/xmlschemas/TrackPointExtension/v1">
            <gpxtpx:hr>137</gpxtpx:hr>
          </gpxtpx:TrackPointExtension>
        </extensions>
      </trkpt>
      <trkpt lat="46.08279" lon="6.2434">
        <ele>888.4</ele>
        <time>2021-03-02T12:49:23Z</time>
        <extensions>
          <gpxtpx:TrackPointExtension xmlns:gpxtpx="http://www.garmin.com/xmlschemas/TrackPointExtension/v1">
            <gpxtpx:hr>138</gpxtpx:hr>
          </gpxtpx:TrackPointExtension>
        </extensions>
      </trkpt>
      <trkpt lat="46.08275" lon="6.24339">
        <ele>888.6</ele>
        <time>2021-03-02T12:49:24Z</time>
        <extensions>
          <gpxtpx:TrackPointExtension xmlns:gpxtpx="http://www.garmin.com/xmlschemas/TrackPointExtension/v1">
            <gpxtpx:hr>138</gpxtpx:hr>
          </gpxtpx:TrackPointExtension>
        </extensions>
      </trkpt>
      <trkpt lat="46.08271" lon="6.24339">
        <ele>888.8</ele>
        <time>2021-03-02T12:49:25Z</time>
        <extensions>
          <gpxtpx:TrackPointExtension xmlns:gpxtpx="http://www.garmin.com/xmlschemas/TrackPointExtension/v1">
            <gpxtpx:hr>139</gpxtpx:hr>
          </gpxtpx:TrackPointExtension>
        </extensions>
      </trkpt>
      <trkpt lat="46.08268" lon="6.24339">
        <ele>889</ele>
        <time>2021-03-02T12:49:26Z</time>
        <extensions>
          <gpxtpx:TrackPointExtension xmlns:gpxtpx="http://www.garmin.com/xmlschemas/TrackPointExtension/v1">
            <gpxtpx:hr>139</gpxtpx:hr>
          </gpxtpx:TrackPointExtension>
        </extensions>
      </trkpt>
      <trkpt lat="46.08264" lon="6.24339">
        <ele>889.2</ele>
        <time>2021-03-02T12:49:27Z</time>
        <extensions>
          <gpxtpx:TrackPointExtension xmlns:gpxtpx="http://www.garmin.com/xmlschemas/TrackPointExtension/v1">
            <gpxtpx:hr>139</gpxtpx:hr>
          </gpxtpx:TrackPointExtension>
        </extensions>
      </trkpt>
      <trkpt lat="46.0826" lon="6.24338">
        <ele>889.4</ele>
        <time>2021-03-02T12:49:28Z</time>
        <extensions>
          <gpxtpx:TrackPointExtension xmlns:gpxtpx="http://www.garmin.com/xmlschemas/TrackPointExtension/v1">
            <gpxtpx:hr>139</gpxtpx:hr>
          </gpxtpx:TrackPointExtension>
        </extensions>
      </trkpt>
      <trkpt lat="46.08256" lon="6.24338">
        <ele>889.6</ele>
        <time>2021-03-02T12:49:29Z</time>
        <extensions>
          <gpxtpx:TrackPointExtension xmlns:gpxtpx="http://www.garmin.com/xmlschemas/TrackPointExtension/v1">
            <gpxtpx:hr>140</gpxtpx:hr>
          </gpxtpx:TrackPointExtension>
        </extensions>
      </trkpt>
      <trkpt lat="46.08253" lon="6.24337">
        <ele>889.8</ele>
        <time>2021-03-02T12:49:30Z</time>
        <extensions>
          <gpxtpx:TrackPointExtension xmlns:gpxtpx="http://www.garmin.com/xmlschemas/TrackPointExtension/v1">
            <gpxtpx:hr>140</gpxtpx:hr>
          </gpxtpx:TrackPointExtension>
        </extensions>
      </trkpt>
      <trkpt lat="46.08249" lon="6.24337">
        <ele>890</ele>
        <time>2021-03-02T12:49:31Z</time>
        <extensions>
          <gpxtpx:TrackPointExtension xmlns:gpxtpx="http://www.garmin.com/xmlschemas/TrackPointExtension/v1">
            <gpxtpx:hr>140</gpxtpx:hr>
          </gpxtpx:TrackPointExtension>
        </extensions>
      </trkpt>
      <trkpt lat="46.08245" lon="6.24336">
        <ele>890.1</ele>
        <time>2021-03-02T12:49:32Z</time>
        <extensions>
          <gpxtpx:TrackPointExtension xmlns:gpxtpx="http://www.garmin.com/xmlschemas/TrackPointExtension/v1">
            <gpxtpx:hr>141</gpxtpx:hr>
          </gpxtpx:TrackPointExtension>
        </extensions>
      </trkpt>
      <trkpt lat="46.08241" lon="6.24335">
        <ele>890.3</ele>
        <time>2021-03-02T12:49:33Z</time>
        <extensions>
          <gpxtpx:TrackPointExtension xmlns:gpxtpx="http://www.garmin.com/xmlschemas/TrackPointExtension/v1">
            <gpxtpx:hr>141</gpxtpx:hr>
          </gpxtpx:TrackPointExtension>
        </extensions>
      </trkpt>
      <trkpt lat="46.08237" lon="6.24334">
        <ele>890.5</ele>
        <time>2021-03-02T12:49:34Z</time>
        <extensions>
          <gpxtpx:TrackPointExtension xmlns:gpxtpx="http://www.garmin.com/xmlschemas/TrackPointExtension/v1">
            <gpxtpx:hr>141</gpxtpx:hr>
          </gpxtpx:TrackPointExtension>
        </extensions>
      </trkpt>
      <trkpt lat="46.08234" lon="6.24334">
        <ele>890.6</ele>
        <time>2021-03-02T12:49:35Z</time>
        <extensions>
          <gpxtpx:TrackPointExtension xmlns:gpxtpx="http://www.garmin.com/xmlschemas/TrackPointExtension/v1">
            <gpxtpx:hr>141</gpxtpx:hr>
          </gpxtpx:TrackPointExtension>
        </extensions>
      </trkpt>
      <trkpt lat="46.0823" lon="6.24333">
        <ele>890.8</ele>
        <time>2021-03-02T12:49:36Z</time>
        <extensions>
          <gpxtpx:TrackPointExtension xmlns:gpxtpx="http://www.garmin.com/xmlschemas/TrackPointExtension/v1">
            <gpxtpx:hr>142</gpxtpx:hr>
          </gpxtpx:TrackPointExtension>
        </extensions>
      </trkpt>
      <trkpt lat="46.08226" lon="6.24332">
        <ele>890.9</ele>
        <time>2021-03-02T12:49:37Z</time>
        <extensions>
          <gpxtpx:TrackPointExtension xmlns:gpxtpx="http://www.garmin.com/xmlschemas/TrackPointExtension/v1">
            <gpxtpx:hr>142</gpxtpx:hr>
          </gpxtpx:TrackPointExtension>
        </extensions>
      </trkpt>
      <trkpt lat="46.08222" lon="6.24331">
        <ele>891.1</ele>
        <time>2021-03-02T12:49:38Z</time>
        <extensions>
          <gpxtpx:TrackPointExtension xmlns:gpxtpx="http://www.garmin.com/xmlschemas/TrackPointExtension/v1">
            <gpxtpx:hr>142</gpxtpx:hr>
          </gpxtpx:TrackPointExtension>
        </extensions>
      </trkpt>
      <trkpt lat="46.08218" lon="6.2433">
        <ele>891.2</ele>
        <time>2021-03-02T12:49:39Z</time>
        <extensions>
          <gpxtpx:TrackPointExtension xmlns:gpxtpx="http://www.garmin.com/xmlschemas/TrackPointExtension/v1">
            <gpxtpx:hr>143</gpxtpx:hr>
          </gpxtpx:TrackPointExtension>
        </extensions>
      </trkpt>
      <trkpt lat="46.08214" lon="6.24329">
        <ele>891.4</ele>
        <time>2021-03-02T12:49:40Z</time>
        <extensions>
          <gpxtpx:TrackPointExtension xmlns:gpxtpx="http://www.garmin.com/xmlschemas/TrackPointExtension/v1">
            <gpxtpx:hr>143</gpxtpx:hr>
          </gpxtpx:TrackPointExtension>
        </extensions>
      </trkpt>
      <trkpt lat="46.08211" lon="6.24327">
        <ele>891.5</ele>
        <time>2021-03-02T12:49:41Z</time>
        <extensions>
          <gpxtpx:TrackPointExtension xmlns:gpxtpx="http://www.garmin.com/xmlschemas/TrackPointExtension/v1">
            <gpxtpx:hr>143</gpxtpx:hr>
          </gpxtpx:TrackPointExtension>
        </extensions>
      </trkpt>
      <trkpt lat="46.08207" lon="6.24326">
        <ele>891.6</ele>
        <time>2021-03-02T12:49:42Z</time>
        <extensions>
          <gpxtpx:TrackPointExtension xmlns:gpxtpx="http://www.garmin.com/xmlschemas/TrackPointExtension/v1">
            <gpxtpx:hr>144</gpxtpx:hr>
          </gpxtpx:TrackPointExtension>
        </extensions>
      </trkpt>
      <trkpt lat="46.08203" lon="6.24324">
        <ele>891.7</ele>
        <time>2021-03-02T12:49:43Z</time>
        <extensions>
          <gpxtpx:TrackPointExtension xmlns:gpxtpx="http://www.garmin.com/xmlschemas/TrackPointExtension/v1">
            <gpxtpx:hr>144</gpxtpx:hr>
          </gpxtpx:TrackPointExtension>
        </extensions>
      </trkpt>
      <trkpt lat="46.08199" lon="6.24323">
        <ele>891.9</ele>
        <time>2021-03-02T12:49:44Z</time>
        <extensions>
          <gpxtpx:TrackPointExtension xmlns:gpxtpx="http://www.garmin.com/xmlschemas/TrackPointExtension/v1">
            <gpxtpx:hr>145</gpxtpx:hr>
          </gpxtpx:TrackPointExtension>
        </extensions>
      </trkpt>
      <trkpt lat="46.08195" lon="6.24321">
        <ele>891.9</ele>
        <time>2021-03-02T12:49:45Z</time>
        <extensions>
          <gpxtpx:TrackPointExtension xmlns:gpxtpx="http://www.garmin.com/xmlschemas/TrackPointExtension/v1">
            <gpxtpx:hr>145</gpxtpx:hr>
          </gpxtpx:TrackPointExtension>
        </extensions>
      </trkpt>
      <trkpt lat="46.08191" lon="6.2432">
        <ele>892</ele>
        <time>2021-03-02T12:49:46Z</time>
        <extensions>
          <gpxtpx:TrackPointExtension xmlns:gpxtpx="http://www.garmin.com/xmlschemas/TrackPointExtension/v1">
            <gpxtpx:hr>145</gpxtpx:hr>
          </gpxtpx:TrackPointExtension>
        </extensions>
      </trkpt>
      <trkpt lat="46.08187" lon="6.2432">
        <ele>892.1</ele>
        <time>2021-03-02T12:49:47Z</time>
        <extensions>
          <gpxtpx:TrackPointExtension xmlns:gpxtpx="http://www.garmin.com/xmlschemas/TrackPointExtension/v1">
            <gpxtpx:hr>145</gpxtpx:hr>
          </gpxtpx:TrackPointExtension>
        </extensions>
      </trkpt>
      <trkpt lat="46.08182" lon="6.24319">
        <ele>892.1</ele>
        <time>2021-03-02T12:49:48Z</time>
        <extensions>
          <gpxtpx:TrackPointExtension xmlns:gpxtpx="http://www.garmin.com/xmlschemas/TrackPointExtension/v1">
            <gpxtpx:hr>145</gpxtpx:hr>
          </gpxtpx:TrackPointExtension>
        </extensions>
      </trkpt>
      <trkpt lat="46.08178" lon="6.24318">
        <ele>892.1</ele>
        <time>2021-03-02T12:49:49Z</time>
        <extensions>
          <gpxtpx:TrackPointExtension xmlns:gpxtpx="http://www.garmin.com/xmlschemas/TrackPointExtension/v1">
            <gpxtpx:hr>145</gpxtpx:hr>
          </gpxtpx:TrackPointExtension>
        </extensions>
      </trkpt>
      <trkpt lat="46.08173" lon="6.24317">
        <ele>892.2</ele>
        <time>2021-03-02T12:49:50Z</time>
        <extensions>
          <gpxtpx:TrackPointExtension xmlns:gpxtpx="http://www.garmin.com/xmlschemas/TrackPointExtension/v1">
            <gpxtpx:hr>145</gpxtpx:hr>
          </gpxtpx:TrackPointExtension>
        </extensions>
      </trkpt>
      <trkpt lat="46.08169" lon="6.24316">
        <ele>892.2</ele>
        <time>2021-03-02T12:49:51Z</time>
        <extensions>
          <gpxtpx:TrackPointExtension xmlns:gpxtpx="http://www.garmin.com/xmlschemas/TrackPointExtension/v1">
            <gpxtpx:hr>145</gpxtpx:hr>
          </gpxtpx:TrackPointExtension>
        </extensions>
      </trkpt>
      <trkpt lat="46.08164" lon="6.24315">
        <ele>892.2</ele>
        <time>2021-03-02T12:49:52Z</time>
        <extensions>
          <gpxtpx:TrackPointExtension xmlns:gpxtpx="http://www.garmin.com/xmlschemas/TrackPointExtension/v1">
            <gpxtpx:hr>145</gpxtpx:hr>
          </gpxtpx:TrackPointExtension>
        </extensions>
      </trkpt>
      <trkpt lat="46.0816" lon="6.24315">
        <ele>892.2</ele>
        <time>2021-03-02T12:49:53Z</time>
        <extensions>
          <gpxtpx:TrackPointExtension xmlns:gpxtpx="http://www.garmin.com/xmlschemas/TrackPointExtension/v1">
            <gpxtpx:hr>145</gpxtpx:hr>
          </gpxtpx:TrackPointExtension>
        </extensions>
      </trkpt>
      <trkpt lat="46.08155" lon="6.24314">
        <ele>892.1</ele>
        <time>2021-03-02T12:49:54Z</time>
        <extensions>
          <gpxtpx:TrackPointExtension xmlns:gpxtpx="http://www.garmin.com/xmlschemas/TrackPointExtension/v1">
            <gpxtpx:hr>145</gpxtpx:hr>
          </gpxtpx:TrackPointExtension>
        </extensions>
      </trkpt>
      <trkpt lat="46.0815" lon="6.24313">
        <ele>892.1</ele>
        <time>2021-03-02T12:49:55Z</time>
        <extensions>
          <gpxtpx:TrackPointExtension xmlns:gpxtpx="http://www.garmin.com/xmlschemas/TrackPointExtension/v1">
            <gpxtpx:hr>145</gpxtpx:hr>
          </gpxtpx:TrackPointExtension>
        </extensions>
      </trkpt>
      <trkpt lat="46.08145" lon="6.24312">
        <ele>892.1</ele>
        <time>2021-03-02T12:49:56Z</time>
        <extensions>
          <gpxtpx:TrackPointExtension xmlns:gpxtpx="http://www.garmin.com/xmlschemas/TrackPointExtension/v1">
            <gpxtpx:hr>145</gpxtpx:hr>
          </gpxtpx:TrackPointExtension>
        </extensions>
      </trkpt>
      <trkpt lat="46.08139" lon="6.24311">
        <ele>892.1</ele>
        <time>2021-03-02T12:49:57Z</time>
        <extensions>
          <gpxtpx:TrackPointExtension xmlns:gpxtpx="http://www.garmin.com/xmlschemas/TrackPointExtension/v1">
            <gpxtpx:hr>145</gpxtpx:hr>
          </gpxtpx:TrackPointExtension>
        </extensions>
      </trkpt>
      <trkpt lat="46.08134" lon="6.2431">
        <ele>892.1</ele>
        <time>2021-03-02T12:49:58Z</time>
        <extensions>
          <gpxtpx:TrackPointExtension xmlns:gpxtpx="http://www.garmin.com/xmlschemas/TrackPointExtension/v1">
            <gpxtpx:hr>145</gpxtpx:hr>
          </gpxtpx:TrackPointExtension>
        </extensions>
      </trkpt>
      <trkpt lat="46.08129" lon="6.24309">
        <ele>892.1</ele>
        <time>2021-03-02T12:49:59Z</time>
        <extensions>
          <gpxtpx:TrackPointExtension xmlns:gpxtpx="http://www.garmin.com/xmlschemas/TrackPointExtension/v1">
            <gpxtpx:hr>145</gpxtpx:hr>
          </gpxtpx:TrackPointExtension>
        </extensions>
      </trkpt>
      <trkpt lat="46.08124" lon="6.24308">
        <ele>892.1</ele>
        <time>2021-03-02T12:50:00Z</time>
        <extensions>
          <gpxtpx:TrackPointExtension xmlns:gpxtpx="http://www.garmin.com/xmlschemas/TrackPointExtension/v1">
            <gpxtpx:hr>144</gpxtpx:hr>
          </gpxtpx:TrackPointExtension>
        </extensions>
      </trkpt>
      <trkpt lat="46.08118" lon="6.24307">
        <ele>892.1</ele>
        <time>2021-03-02T12:50:01Z</time>
        <extensions>
          <gpxtpx:TrackPointExtension xmlns:gpxtpx="http://www.garmin.com/xmlschemas/TrackPointExtension/v1">
            <gpxtpx:hr>144</gpxtpx:hr>
          </gpxtpx:TrackPointExtension>
        </extensions>
      </trkpt>
      <trkpt lat="46.08113" lon="6.24306">
        <ele>892.2</ele>
        <time>2021-03-02T12:50:02Z</time>
        <extensions>
          <gpxtpx:TrackPointExtension xmlns:gpxtpx="http://www.garmin.com/xmlschemas/TrackPointExtension/v1">
            <gpxtpx:hr>143</gpxtpx:hr>
          </gpxtpx:TrackPointExtension>
        </extensions>
      </trkpt>
      <trkpt lat="46.08107" lon="6.24304">
        <ele>892.3</ele>
        <time>2021-03-02T12:50:03Z</time>
        <extensions>
          <gpxtpx:TrackPointExtension xmlns:gpxtpx="http://www.garmin.com/xmlschemas/TrackPointExtension/v1">
            <gpxtpx:hr>143</gpxtpx:hr>
          </gpxtpx:TrackPointExtension>
        </extensions>
      </trkpt>
      <trkpt lat="46.08102" lon="6.24303">
        <ele>892.4</ele>
        <time>2021-03-02T12:50:04Z</time>
        <extensions>
          <gpxtpx:TrackPointExtension xmlns:gpxtpx="http://www.garmin.com/xmlschemas/TrackPointExtension/v1">
            <gpxtpx:hr>142</gpxtpx:hr>
          </gpxtpx:TrackPointExtension>
        </extensions>
      </trkpt>
      <trkpt lat="46.08097" lon="6.24302">
        <ele>892.6</ele>
        <time>2021-03-02T12:50:05Z</time>
        <extensions>
          <gpxtpx:TrackPointExtension xmlns:gpxtpx="http://www.garmin.com/xmlschemas/TrackPointExtension/v1">
            <gpxtpx:hr>142</gpxtpx:hr>
          </gpxtpx:TrackPointExtension>
        </extensions>
      </trkpt>
      <trkpt lat="46.08092" lon="6.24302">
        <ele>892.7</ele>
        <time>2021-03-02T12:50:06Z</time>
        <extensions>
          <gpxtpx:TrackPointExtension xmlns:gpxtpx="http://www.garmin.com/xmlschemas/TrackPointExtension/v1">
            <gpxtpx:hr>142</gpxtpx:hr>
          </gpxtpx:TrackPointExtension>
        </extensions>
      </trkpt>
      <trkpt lat="46.08086" lon="6.24301">
        <ele>892.8</ele>
        <time>2021-03-02T12:50:07Z</time>
        <extensions>
          <gpxtpx:TrackPointExtension xmlns:gpxtpx="http://www.garmin.com/xmlschemas/TrackPointExtension/v1">
            <gpxtpx:hr>142</gpxtpx:hr>
          </gpxtpx:TrackPointExtension>
        </extensions>
      </trkpt>
      <trkpt lat="46.08081" lon="6.24301">
        <ele>892.9</ele>
        <time>2021-03-02T12:50:08Z</time>
        <extensions>
          <gpxtpx:TrackPointExtension xmlns:gpxtpx="http://www.garmin.com/xmlschemas/TrackPointExtension/v1">
            <gpxtpx:hr>141</gpxtpx:hr>
          </gpxtpx:TrackPointExtension>
        </extensions>
      </trkpt>
      <trkpt lat="46.08076" lon="6.24301">
        <ele>893.1</ele>
        <time>2021-03-02T12:50:09Z</time>
        <extensions>
          <gpxtpx:TrackPointExtension xmlns:gpxtpx="http://www.garmin.com/xmlschemas/TrackPointExtension/v1">
            <gpxtpx:hr>141</gpxtpx:hr>
          </gpxtpx:TrackPointExtension>
        </extensions>
      </trkpt>
      <trkpt lat="46.08071" lon="6.24301">
        <ele>893.2</ele>
        <time>2021-03-02T12:50:10Z</time>
        <extensions>
          <gpxtpx:TrackPointExtension xmlns:gpxtpx="http://www.garmin.com/xmlschemas/TrackPointExtension/v1">
            <gpxtpx:hr>141</gpxtpx:hr>
          </gpxtpx:TrackPointExtension>
        </extensions>
      </trkpt>
      <trkpt lat="46.08066" lon="6.24301">
        <ele>893.4</ele>
        <time>2021-03-02T12:50:11Z</time>
        <extensions>
          <gpxtpx:TrackPointExtension xmlns:gpxtpx="http://www.garmin.com/xmlschemas/TrackPointExtension/v1">
            <gpxtpx:hr>141</gpxtpx:hr>
          </gpxtpx:TrackPointExtension>
        </extensions>
      </trkpt>
      <trkpt lat="46.0806" lon="6.24302">
        <ele>893.6</ele>
        <time>2021-03-02T12:50:12Z</time>
        <extensions>
          <gpxtpx:TrackPointExtension xmlns:gpxtpx="http://www.garmin.com/xmlschemas/TrackPointExtension/v1">
            <gpxtpx:hr>140</gpxtpx:hr>
          </gpxtpx:TrackPointExtension>
        </extensions>
      </trkpt>
      <trkpt lat="46.08055" lon="6.24302">
        <ele>893.7</ele>
        <time>2021-03-02T12:50:13Z</time>
        <extensions>
          <gpxtpx:TrackPointExtension xmlns:gpxtpx="http://www.garmin.com/xmlschemas/TrackPointExtension/v1">
            <gpxtpx:hr>140</gpxtpx:hr>
          </gpxtpx:TrackPointExtension>
        </extensions>
      </trkpt>
      <trkpt lat="46.08051" lon="6.24303">
        <ele>893.9</ele>
        <time>2021-03-02T12:50:14Z</time>
        <extensions>
          <gpxtpx:TrackPointExtension xmlns:gpxtpx="http://www.garmin.com/xmlschemas/TrackPointExtension/v1">
            <gpxtpx:hr>140</gpxtpx:hr>
          </gpxtpx:TrackPointExtension>
        </extensions>
      </trkpt>
      <trkpt lat="46.08046" lon="6.24303">
        <ele>894.1</ele>
        <time>2021-03-02T12:50:15Z</time>
        <extensions>
          <gpxtpx:TrackPointExtension xmlns:gpxtpx="http://www.garmin.com/xmlschemas/TrackPointExtension/v1">
            <gpxtpx:hr>140</gpxtpx:hr>
          </gpxtpx:TrackPointExtension>
        </extensions>
      </trkpt>
      <trkpt lat="46.08041" lon="6.24304">
        <ele>894.3</ele>
        <time>2021-03-02T12:50:16Z</time>
        <extensions>
          <gpxtpx:TrackPointExtension xmlns:gpxtpx="http://www.garmin.com/xmlschemas/TrackPointExtension/v1">
            <gpxtpx:hr>139</gpxtpx:hr>
          </gpxtpx:TrackPointExtension>
        </extensions>
      </trkpt>
      <trkpt lat="46.08037" lon="6.24304">
        <ele>894.5</ele>
        <time>2021-03-02T12:50:17Z</time>
        <extensions>
          <gpxtpx:TrackPointExtension xmlns:gpxtpx="http://www.garmin.com/xmlschemas/TrackPointExtension/v1">
            <gpxtpx:hr>139</gpxtpx:hr>
          </gpxtpx:TrackPointExtension>
        </extensions>
      </trkpt>
      <trkpt lat="46.08032" lon="6.24305">
        <ele>894.7</ele>
        <time>2021-03-02T12:50:18Z</time>
        <extensions>
          <gpxtpx:TrackPointExtension xmlns:gpxtpx="http://www.garmin.com/xmlschemas/TrackPointExtension/v1">
            <gpxtpx:hr>139</gpxtpx:hr>
          </gpxtpx:TrackPointExtension>
        </extensions>
      </trkpt>
      <trkpt lat="46.08028" lon="6.24306">
        <ele>894.9</ele>
        <time>2021-03-02T12:50:19Z</time>
        <extensions>
          <gpxtpx:TrackPointExtension xmlns:gpxtpx="http://www.garmin.com/xmlschemas/TrackPointExtension/v1">
            <gpxtpx:hr>138</gpxtpx:hr>
          </gpxtpx:TrackPointExtension>
        </extensions>
      </trkpt>
      <trkpt lat="46.08024" lon="6.24306">
        <ele>895.1</ele>
        <time>2021-03-02T12:50:20Z</time>
        <extensions>
          <gpxtpx:TrackPointExtension xmlns:gpxtpx="http://www.garmin.com/xmlschemas/TrackPointExtension/v1">
            <gpxtpx:hr>138</gpxtpx:hr>
          </gpxtpx:TrackPointExtension>
        </extensions>
      </trkpt>
      <trkpt lat="46.0802" lon="6.24307">
        <ele>895.3</ele>
        <time>2021-03-02T12:50:21Z</time>
        <extensions>
          <gpxtpx:TrackPointExtension xmlns:gpxtpx="http://www.garmin.com/xmlschemas/TrackPointExtension/v1">
            <gpxtpx:hr>138</gpxtpx:hr>
          </gpxtpx:TrackPointExtension>
        </extensions>
      </trkpt>
      <trkpt lat="46.08016" lon="6.24309">
        <ele>895.5</ele>
        <time>2021-03-02T12:50:22Z</time>
        <extensions>
          <gpxtpx:TrackPointExtension xmlns:gpxtpx="http://www.garmin.com/xmlschemas/TrackPointExtension/v1">
            <gpxtpx:hr>138</gpxtpx:hr>
          </gpxtpx:TrackPointExtension>
        </extensions>
      </trkpt>
      <trkpt lat="46.08012" lon="6.2431">
        <ele>895.8</ele>
        <time>2021-03-02T12:50:23Z</time>
        <extensions>
          <gpxtpx:TrackPointExtension xmlns:gpxtpx="http://www.garmin.com/xmlschemas/TrackPointExtension/v1">
            <gpxtpx:hr>138</gpxtpx:hr>
          </gpxtpx:TrackPointExtension>
        </extensions>
      </trkpt>
      <trkpt lat="46.08008" lon="6.24311">
        <ele>896</ele>
        <time>2021-03-02T12:50:24Z</time>
        <extensions>
          <gpxtpx:TrackPointExtension xmlns:gpxtpx="http://www.garmin.com/xmlschemas/TrackPointExtension/v1">
            <gpxtpx:hr>138</gpxtpx:hr>
          </gpxtpx:TrackPointExtension>
        </extensions>
      </trkpt>
      <trkpt lat="46.08004" lon="6.24312">
        <ele>896.3</ele>
        <time>2021-03-02T12:50:25Z</time>
        <extensions>
          <gpxtpx:TrackPointExtension xmlns:gpxtpx="http://www.garmin.com/xmlschemas/TrackPointExtension/v1">
            <gpxtpx:hr>138</gpxtpx:hr>
          </gpxtpx:TrackPointExtension>
        </extensions>
      </trkpt>
      <trkpt lat="46.08001" lon="6.24312">
        <ele>896.6</ele>
        <time>2021-03-02T12:50:26Z</time>
        <extensions>
          <gpxtpx:TrackPointExtension xmlns:gpxtpx="http://www.garmin.com/xmlschemas/TrackPointExtension/v1">
            <gpxtpx:hr>138</gpxtpx:hr>
          </gpxtpx:TrackPointExtension>
        </extensions>
      </trkpt>
      <trkpt lat="46.07998" lon="6.24313">
        <ele>896.8</ele>
        <time>2021-03-02T12:50:27Z</time>
        <extensions>
          <gpxtpx:TrackPointExtension xmlns:gpxtpx="http://www.garmin.com/xmlschemas/TrackPointExtension/v1">
            <gpxtpx:hr>137</gpxtpx:hr>
          </gpxtpx:TrackPointExtension>
        </extensions>
      </trkpt>
      <trkpt lat="46.07994" lon="6.24313">
        <ele>897.1</ele>
        <time>2021-03-02T12:50:28Z</time>
        <extensions>
          <gpxtpx:TrackPointExtension xmlns:gpxtpx="http://www.garmin.com/xmlschemas/TrackPointExtension/v1">
            <gpxtpx:hr>137</gpxtpx:hr>
          </gpxtpx:TrackPointExtension>
        </extensions>
      </trkpt>
      <trkpt lat="46.07991" lon="6.24314">
        <ele>897.4</ele>
        <time>2021-03-02T12:50:29Z</time>
        <extensions>
          <gpxtpx:TrackPointExtension xmlns:gpxtpx="http://www.garmin.com/xmlschemas/TrackPointExtension/v1">
            <gpxtpx:hr>138</gpxtpx:hr>
          </gpxtpx:TrackPointExtension>
        </extensions>
      </trkpt>
      <trkpt lat="46.07988" lon="6.24314">
        <ele>897.7</ele>
        <time>2021-03-02T12:50:30Z</time>
        <extensions>
          <gpxtpx:TrackPointExtension xmlns:gpxtpx="http://www.garmin.com/xmlschemas/TrackPointExtension/v1">
            <gpxtpx:hr>137</gpxtpx:hr>
          </gpxtpx:TrackPointExtension>
        </extensions>
      </trkpt>
      <trkpt lat="46.07984" lon="6.24315">
        <ele>898</ele>
        <time>2021-03-02T12:50:31Z</time>
        <extensions>
          <gpxtpx:TrackPointExtension xmlns:gpxtpx="http://www.garmin.com/xmlschemas/TrackPointExtension/v1">
            <gpxtpx:hr>137</gpxtpx:hr>
          </gpxtpx:TrackPointExtension>
        </extensions>
      </trkpt>
      <trkpt lat="46.07981" lon="6.24316">
        <ele>898.3</ele>
        <time>2021-03-02T12:50:32Z</time>
        <extensions>
          <gpxtpx:TrackPointExtension xmlns:gpxtpx="http://www.garmin.com/xmlschemas/TrackPointExtension/v1">
            <gpxtpx:hr>137</gpxtpx:hr>
          </gpxtpx:TrackPointExtension>
        </extensions>
      </trkpt>
      <trkpt lat="46.07978" lon="6.24316">
        <ele>898.6</ele>
        <time>2021-03-02T12:50:33Z</time>
        <extensions>
          <gpxtpx:TrackPointExtension xmlns:gpxtpx="http://www.garmin.com/xmlschemas/TrackPointExtension/v1">
            <gpxtpx:hr>137</gpxtpx:hr>
          </gpxtpx:TrackPointExtension>
        </extensions>
      </trkpt>
      <trkpt lat="46.07975" lon="6.24316">
        <ele>898.8</ele>
        <time>2021-03-02T12:50:34Z</time>
        <extensions>
          <gpxtpx:TrackPointExtension xmlns:gpxtpx="http://www.garmin.com/xmlschemas/TrackPointExtension/v1">
            <gpxtpx:hr>136</gpxtpx:hr>
          </gpxtpx:TrackPointExtension>
        </extensions>
      </trkpt>
      <trkpt lat="46.07973" lon="6.24316">
        <ele>899</ele>
        <time>2021-03-02T12:50:35Z</time>
        <extensions>
          <gpxtpx:TrackPointExtension xmlns:gpxtpx="http://www.garmin.com/xmlschemas/TrackPointExtension/v1">
            <gpxtpx:hr>136</gpxtpx:hr>
          </gpxtpx:TrackPointExtension>
        </extensions>
      </trkpt>
      <trkpt lat="46.0797" lon="6.24316">
        <ele>899.3</ele>
        <time>2021-03-02T12:50:36Z</time>
        <extensions>
          <gpxtpx:TrackPointExtension xmlns:gpxtpx="http://www.garmin.com/xmlschemas/TrackPointExtension/v1">
            <gpxtpx:hr>136</gpxtpx:hr>
          </gpxtpx:TrackPointExtension>
        </extensions>
      </trkpt>
      <trkpt lat="46.07967" lon="6.24317">
        <ele>899.5</ele>
        <time>2021-03-02T12:50:37Z</time>
        <extensions>
          <gpxtpx:TrackPointExtension xmlns:gpxtpx="http://www.garmin.com/xmlschemas/TrackPointExtension/v1">
            <gpxtpx:hr>136</gpxtpx:hr>
          </gpxtpx:TrackPointExtension>
        </extensions>
      </trkpt>
      <trkpt lat="46.07964" lon="6.24317">
        <ele>899.8</ele>
        <time>2021-03-02T12:50:38Z</time>
        <extensions>
          <gpxtpx:TrackPointExtension xmlns:gpxtpx="http://www.garmin.com/xmlschemas/TrackPointExtension/v1">
            <gpxtpx:hr>137</gpxtpx:hr>
          </gpxtpx:TrackPointExtension>
        </extensions>
      </trkpt>
      <trkpt lat="46.07961" lon="6.24318">
        <ele>900.1</ele>
        <time>2021-03-02T12:50:39Z</time>
        <extensions>
          <gpxtpx:TrackPointExtension xmlns:gpxtpx="http://www.garmin.com/xmlschemas/TrackPointExtension/v1">
            <gpxtpx:hr>137</gpxtpx:hr>
          </gpxtpx:TrackPointExtension>
        </extensions>
      </trkpt>
      <trkpt lat="46.07957" lon="6.24318">
        <ele>900.4</ele>
        <time>2021-03-02T12:50:40Z</time>
        <extensions>
          <gpxtpx:TrackPointExtension xmlns:gpxtpx="http://www.garmin.com/xmlschemas/TrackPointExtension/v1">
            <gpxtpx:hr>137</gpxtpx:hr>
          </gpxtpx:TrackPointExtension>
        </extensions>
      </trkpt>
      <trkpt lat="46.07954" lon="6.24319">
        <ele>900.7</ele>
        <time>2021-03-02T12:50:41Z</time>
        <extensions>
          <gpxtpx:TrackPointExtension xmlns:gpxtpx="http://www.garmin.com/xmlschemas/TrackPointExtension/v1">
            <gpxtpx:hr>137</gpxtpx:hr>
          </gpxtpx:TrackPointExtension>
        </extensions>
      </trkpt>
      <trkpt lat="46.0795" lon="6.2432">
        <ele>901</ele>
        <time>2021-03-02T12:50:42Z</time>
        <extensions>
          <gpxtpx:TrackPointExtension xmlns:gpxtpx="http://www.garmin.com/xmlschemas/TrackPointExtension/v1">
            <gpxtpx:hr>137</gpxtpx:hr>
          </gpxtpx:TrackPointExtension>
        </extensions>
      </trkpt>
      <trkpt lat="46.07946" lon="6.2432">
        <ele>901.2</ele>
        <time>2021-03-02T12:50:43Z</time>
        <extensions>
          <gpxtpx:TrackPointExtension xmlns:gpxtpx="http://www.garmin.com/xmlschemas/TrackPointExtension/v1">
            <gpxtpx:hr>138</gpxtpx:hr>
          </gpxtpx:TrackPointExtension>
        </extensions>
      </trkpt>
      <trkpt lat="46.07943" lon="6.24321">
        <ele>901.3</ele>
        <time>2021-03-02T12:50:44Z</time>
        <extensions>
          <gpxtpx:TrackPointExtension xmlns:gpxtpx="http://www.garmin.com/xmlschemas/TrackPointExtension/v1">
            <gpxtpx:hr>137</gpxtpx:hr>
          </gpxtpx:TrackPointExtension>
        </extensions>
      </trkpt>
      <trkpt lat="46.07939" lon="6.24322">
        <ele>901.5</ele>
        <time>2021-03-02T12:50:45Z</time>
        <extensions>
          <gpxtpx:TrackPointExtension xmlns:gpxtpx="http://www.garmin.com/xmlschemas/TrackPointExtension/v1">
            <gpxtpx:hr>137</gpxtpx:hr>
          </gpxtpx:TrackPointExtension>
        </extensions>
      </trkpt>
      <trkpt lat="46.07935" lon="6.24323">
        <ele>901.6</ele>
        <time>2021-03-02T12:50:46Z</time>
        <extensions>
          <gpxtpx:TrackPointExtension xmlns:gpxtpx="http://www.garmin.com/xmlschemas/TrackPointExtension/v1">
            <gpxtpx:hr>137</gpxtpx:hr>
          </gpxtpx:TrackPointExtension>
        </extensions>
      </trkpt>
      <trkpt lat="46.07931" lon="6.24324">
        <ele>901.8</ele>
        <time>2021-03-02T12:50:47Z</time>
        <extensions>
          <gpxtpx:TrackPointExtension xmlns:gpxtpx="http://www.garmin.com/xmlschemas/TrackPointExtension/v1">
            <gpxtpx:hr>137</gpxtpx:hr>
          </gpxtpx:TrackPointExtension>
        </extensions>
      </trkpt>
      <trkpt lat="46.07927" lon="6.24324">
        <ele>901.9</ele>
        <time>2021-03-02T12:50:48Z</time>
        <extensions>
          <gpxtpx:TrackPointExtension xmlns:gpxtpx="http://www.garmin.com/xmlschemas/TrackPointExtension/v1">
            <gpxtpx:hr>137</gpxtpx:hr>
          </gpxtpx:TrackPointExtension>
        </extensions>
      </trkpt>
      <trkpt lat="46.07923" lon="6.24325">
        <ele>902</ele>
        <time>2021-03-02T12:50:49Z</time>
        <extensions>
          <gpxtpx:TrackPointExtension xmlns:gpxtpx="http://www.garmin.com/xmlschemas/TrackPointExtension/v1">
            <gpxtpx:hr>137</gpxtpx:hr>
          </gpxtpx:TrackPointExtension>
        </extensions>
      </trkpt>
      <trkpt lat="46.07919" lon="6.24326">
        <ele>902.1</ele>
        <time>2021-03-02T12:50:50Z</time>
        <extensions>
          <gpxtpx:TrackPointExtension xmlns:gpxtpx="http://www.garmin.com/xmlschemas/TrackPointExtension/v1">
            <gpxtpx:hr>137</gpxtpx:hr>
          </gpxtpx:TrackPointExtension>
        </extensions>
      </trkpt>
      <trkpt lat="46.07915" lon="6.24327">
        <ele>902.2</ele>
        <time>2021-03-02T12:50:51Z</time>
        <extensions>
          <gpxtpx:TrackPointExtension xmlns:gpxtpx="http://www.garmin.com/xmlschemas/TrackPointExtension/v1">
            <gpxtpx:hr>137</gpxtpx:hr>
          </gpxtpx:TrackPointExtension>
        </extensions>
      </trkpt>
      <trkpt lat="46.07911" lon="6.24328">
        <ele>902.3</ele>
        <time>2021-03-02T12:50:52Z</time>
        <extensions>
          <gpxtpx:TrackPointExtension xmlns:gpxtpx="http://www.garmin.com/xmlschemas/TrackPointExtension/v1">
            <gpxtpx:hr>137</gpxtpx:hr>
          </gpxtpx:TrackPointExtension>
        </extensions>
      </trkpt>
      <trkpt lat="46.07907" lon="6.24329">
        <ele>902.4</ele>
        <time>2021-03-02T12:50:53Z</time>
        <extensions>
          <gpxtpx:TrackPointExtension xmlns:gpxtpx="http://www.garmin.com/xmlschemas/TrackPointExtension/v1">
            <gpxtpx:hr>138</gpxtpx:hr>
          </gpxtpx:TrackPointExtension>
        </extensions>
      </trkpt>
      <trkpt lat="46.07902" lon="6.2433">
        <ele>902.5</ele>
        <time>2021-03-02T12:50:54Z</time>
        <extensions>
          <gpxtpx:TrackPointExtension xmlns:gpxtpx="http://www.garmin.com/xmlschemas/TrackPointExtension/v1">
            <gpxtpx:hr>139</gpxtpx:hr>
          </gpxtpx:TrackPointExtension>
        </extensions>
      </trkpt>
      <trkpt lat="46.07898" lon="6.24331">
        <ele>902.5</ele>
        <time>2021-03-02T12:50:55Z</time>
        <extensions>
          <gpxtpx:TrackPointExtension xmlns:gpxtpx="http://www.garmin.com/xmlschemas/TrackPointExtension/v1">
            <gpxtpx:hr>139</gpxtpx:hr>
          </gpxtpx:TrackPointExtension>
        </extensions>
      </trkpt>
      <trkpt lat="46.07894" lon="6.24332">
        <ele>902.6</ele>
        <time>2021-03-02T12:50:56Z</time>
        <extensions>
          <gpxtpx:TrackPointExtension xmlns:gpxtpx="http://www.garmin.com/xmlschemas/TrackPointExtension/v1">
            <gpxtpx:hr>140</gpxtpx:hr>
          </gpxtpx:TrackPointExtension>
        </extensions>
      </trkpt>
      <trkpt lat="46.0789" lon="6.24333">
        <ele>902.6</ele>
        <time>2021-03-02T12:50:57Z</time>
        <extensions>
          <gpxtpx:TrackPointExtension xmlns:gpxtpx="http://www.garmin.com/xmlschemas/TrackPointExtension/v1">
            <gpxtpx:hr>141</gpxtpx:hr>
          </gpxtpx:TrackPointExtension>
        </extensions>
      </trkpt>
      <trkpt lat="46.07885" lon="6.24334">
        <ele>902.6</ele>
        <time>2021-03-02T12:50:58Z</time>
        <extensions>
          <gpxtpx:TrackPointExtension xmlns:gpxtpx="http://www.garmin.com/xmlschemas/TrackPointExtension/v1">
            <gpxtpx:hr>141</gpxtpx:hr>
          </gpxtpx:TrackPointExtension>
        </extensions>
      </trkpt>
      <trkpt lat="46.07881" lon="6.24335">
        <ele>902.6</ele>
        <time>2021-03-02T12:50:59Z</time>
        <extensions>
          <gpxtpx:TrackPointExtension xmlns:gpxtpx="http://www.garmin.com/xmlschemas/TrackPointExtension/v1">
            <gpxtpx:hr>142</gpxtpx:hr>
          </gpxtpx:TrackPointExtension>
        </extensions>
      </trkpt>
      <trkpt lat="46.07877" lon="6.24335">
        <ele>902.7</ele>
        <time>2021-03-02T12:51:00Z</time>
        <extensions>
          <gpxtpx:TrackPointExtension xmlns:gpxtpx="http://www.garmin.com/xmlschemas/TrackPointExtension/v1">
            <gpxtpx:hr>142</gpxtpx:hr>
          </gpxtpx:TrackPointExtension>
        </extensions>
      </trkpt>
      <trkpt lat="46.07872" lon="6.24336">
        <ele>902.7</ele>
        <time>2021-03-02T12:51:01Z</time>
        <extensions>
          <gpxtpx:TrackPointExtension xmlns:gpxtpx="http://www.garmin.com/xmlschemas/TrackPointExtension/v1">
            <gpxtpx:hr>143</gpxtpx:hr>
          </gpxtpx:TrackPointExtension>
        </extensions>
      </trkpt>
      <trkpt lat="46.07868" lon="6.24337">
        <ele>902.7</ele>
        <time>2021-03-02T12:51:02Z</time>
        <extensions>
          <gpxtpx:TrackPointExtension xmlns:gpxtpx="http://www.garmin.com/xmlschemas/TrackPointExtension/v1">
            <gpxtpx:hr>143</gpxtpx:hr>
          </gpxtpx:TrackPointExtension>
        </extensions>
      </trkpt>
      <trkpt lat="46.07863" lon="6.24339">
        <ele>902.7</ele>
        <time>2021-03-02T12:51:03Z</time>
        <extensions>
          <gpxtpx:TrackPointExtension xmlns:gpxtpx="http://www.garmin.com/xmlschemas/TrackPointExtension/v1">
            <gpxtpx:hr>143</gpxtpx:hr>
          </gpxtpx:TrackPointExtension>
        </extensions>
      </trkpt>
      <trkpt lat="46.07859" lon="6.24339">
        <ele>902.7</ele>
        <time>2021-03-02T12:51:04Z</time>
        <extensions>
          <gpxtpx:TrackPointExtension xmlns:gpxtpx="http://www.garmin.com/xmlschemas/TrackPointExtension/v1">
            <gpxtpx:hr>143</gpxtpx:hr>
          </gpxtpx:TrackPointExtension>
        </extensions>
      </trkpt>
      <trkpt lat="46.07854" lon="6.24341">
        <ele>902.7</ele>
        <time>2021-03-02T12:51:05Z</time>
        <extensions>
          <gpxtpx:TrackPointExtension xmlns:gpxtpx="http://www.garmin.com/xmlschemas/TrackPointExtension/v1">
            <gpxtpx:hr>143</gpxtpx:hr>
          </gpxtpx:TrackPointExtension>
        </extensions>
      </trkpt>
      <trkpt lat="46.0785" lon="6.24342">
        <ele>902.6</ele>
        <time>2021-03-02T12:51:06Z</time>
        <extensions>
          <gpxtpx:TrackPointExtension xmlns:gpxtpx="http://www.garmin.com/xmlschemas/TrackPointExtension/v1">
            <gpxtpx:hr>143</gpxtpx:hr>
          </gpxtpx:TrackPointExtension>
        </extensions>
      </trkpt>
      <trkpt lat="46.07845" lon="6.24343">
        <ele>902.6</ele>
        <time>2021-03-02T12:51:07Z</time>
        <extensions>
          <gpxtpx:TrackPointExtension xmlns:gpxtpx="http://www.garmin.com/xmlschemas/TrackPointExtension/v1">
            <gpxtpx:hr>143</gpxtpx:hr>
          </gpxtpx:TrackPointExtension>
        </extensions>
      </trkpt>
      <trkpt lat="46.07841" lon="6.24344">
        <ele>902.5</ele>
        <time>2021-03-02T12:51:08Z</time>
        <extensions>
          <gpxtpx:TrackPointExtension xmlns:gpxtpx="http://www.garmin.com/xmlschemas/TrackPointExtension/v1">
            <gpxtpx:hr>143</gpxtpx:hr>
          </gpxtpx:TrackPointExtension>
        </extensions>
      </trkpt>
      <trkpt lat="46.07836" lon="6.24345">
        <ele>902.3</ele>
        <time>2021-03-02T12:51:09Z</time>
        <extensions>
          <gpxtpx:TrackPointExtension xmlns:gpxtpx="http://www.garmin.com/xmlschemas/TrackPointExtension/v1">
            <gpxtpx:hr>143</gpxtpx:hr>
          </gpxtpx:TrackPointExtension>
        </extensions>
      </trkpt>
      <trkpt lat="46.07831" lon="6.24346">
        <ele>902.2</ele>
        <time>2021-03-02T12:51:10Z</time>
        <extensions>
          <gpxtpx:TrackPointExtension xmlns:gpxtpx="http://www.garmin.com/xmlschemas/TrackPointExtension/v1">
            <gpxtpx:hr>143</gpxtpx:hr>
          </gpxtpx:TrackPointExtension>
        </extensions>
      </trkpt>
      <trkpt lat="46.07827" lon="6.24348">
        <ele>902.1</ele>
        <time>2021-03-02T12:51:11Z</time>
        <extensions>
          <gpxtpx:TrackPointExtension xmlns:gpxtpx="http://www.garmin.com/xmlschemas/TrackPointExtension/v1">
            <gpxtpx:hr>143</gpxtpx:hr>
          </gpxtpx:TrackPointExtension>
        </extensions>
      </trkpt>
      <trkpt lat="46.07822" lon="6.2435">
        <ele>901.9</ele>
        <time>2021-03-02T12:51:12Z</time>
        <extensions>
          <gpxtpx:TrackPointExtension xmlns:gpxtpx="http://www.garmin.com/xmlschemas/TrackPointExtension/v1">
            <gpxtpx:hr>143</gpxtpx:hr>
          </gpxtpx:TrackPointExtension>
        </extensions>
      </trkpt>
      <trkpt lat="46.07817" lon="6.24352">
        <ele>901.6</ele>
        <time>2021-03-02T12:51:13Z</time>
        <extensions>
          <gpxtpx:TrackPointExtension xmlns:gpxtpx="http://www.garmin.com/xmlschemas/TrackPointExtension/v1">
            <gpxtpx:hr>142</gpxtpx:hr>
          </gpxtpx:TrackPointExtension>
        </extensions>
      </trkpt>
      <trkpt lat="46.07811" lon="6.24353">
        <ele>901.3</ele>
        <time>2021-03-02T12:51:14Z</time>
        <extensions>
          <gpxtpx:TrackPointExtension xmlns:gpxtpx="http://www.garmin.com/xmlschemas/TrackPointExtension/v1">
            <gpxtpx:hr>142</gpxtpx:hr>
          </gpxtpx:TrackPointExtension>
        </extensions>
      </trkpt>
      <trkpt lat="46.07804" lon="6.24354">
        <ele>900.8</ele>
        <time>2021-03-02T12:51:15Z</time>
        <extensions>
          <gpxtpx:TrackPointExtension xmlns:gpxtpx="http://www.garmin.com/xmlschemas/TrackPointExtension/v1">
            <gpxtpx:hr>142</gpxtpx:hr>
          </gpxtpx:TrackPointExtension>
        </extensions>
      </trkpt>
      <trkpt lat="46.07797" lon="6.24355">
        <ele>900.2</ele>
        <time>2021-03-02T12:51:16Z</time>
        <extensions>
          <gpxtpx:TrackPointExtension xmlns:gpxtpx="http://www.garmin.com/xmlschemas/TrackPointExtension/v1">
            <gpxtpx:hr>141</gpxtpx:hr>
          </gpxtpx:TrackPointExtension>
        </extensions>
      </trkpt>
      <trkpt lat="46.0779" lon="6.24355">
        <ele>899.4</ele>
        <time>2021-03-02T12:51:17Z</time>
        <extensions>
          <gpxtpx:TrackPointExtension xmlns:gpxtpx="http://www.garmin.com/xmlschemas/TrackPointExtension/v1">
            <gpxtpx:hr>141</gpxtpx:hr>
          </gpxtpx:TrackPointExtension>
        </extensions>
      </trkpt>
      <trkpt lat="46.07782" lon="6.24355">
        <ele>898.6</ele>
        <time>2021-03-02T12:51:18Z</time>
        <extensions>
          <gpxtpx:TrackPointExtension xmlns:gpxtpx="http://www.garmin.com/xmlschemas/TrackPointExtension/v1">
            <gpxtpx:hr>140</gpxtpx:hr>
          </gpxtpx:TrackPointExtension>
        </extensions>
      </trkpt>
      <trkpt lat="46.07773" lon="6.24353">
        <ele>897.7</ele>
        <time>2021-03-02T12:51:19Z</time>
        <extensions>
          <gpxtpx:TrackPointExtension xmlns:gpxtpx="http://www.garmin.com/xmlschemas/TrackPointExtension/v1">
            <gpxtpx:hr>140</gpxtpx:hr>
          </gpxtpx:TrackPointExtension>
        </extensions>
      </trkpt>
      <trkpt lat="46.07764" lon="6.24351">
        <ele>897</ele>
        <time>2021-03-02T12:51:20Z</time>
        <extensions>
          <gpxtpx:TrackPointExtension xmlns:gpxtpx="http://www.garmin.com/xmlschemas/TrackPointExtension/v1">
            <gpxtpx:hr>139</gpxtpx:hr>
          </gpxtpx:TrackPointExtension>
        </extensions>
      </trkpt>
      <trkpt lat="46.07756" lon="6.24349">
        <ele>896.5</ele>
        <time>2021-03-02T12:51:21Z</time>
        <extensions>
          <gpxtpx:TrackPointExtension xmlns:gpxtpx="http://www.garmin.com/xmlschemas/TrackPointExtension/v1">
            <gpxtpx:hr>139</gpxtpx:hr>
          </gpxtpx:TrackPointExtension>
        </extensions>
      </trkpt>
      <trkpt lat="46.07747" lon="6.24347">
        <ele>896.1</ele>
        <time>2021-03-02T12:51:22Z</time>
        <extensions>
          <gpxtpx:TrackPointExtension xmlns:gpxtpx="http://www.garmin.com/xmlschemas/TrackPointExtension/v1">
            <gpxtpx:hr>138</gpxtpx:hr>
          </gpxtpx:TrackPointExtension>
        </extensions>
      </trkpt>
      <trkpt lat="46.07738" lon="6.24345">
        <ele>895.9</ele>
        <time>2021-03-02T12:51:23Z</time>
        <extensions>
          <gpxtpx:TrackPointExtension xmlns:gpxtpx="http://www.garmin.com/xmlschemas/TrackPointExtension/v1">
            <gpxtpx:hr>137</gpxtpx:hr>
          </gpxtpx:TrackPointExtension>
        </extensions>
      </trkpt>
      <trkpt lat="46.0773" lon="6.24343">
        <ele>895.9</ele>
        <time>2021-03-02T12:51:24Z</time>
        <extensions>
          <gpxtpx:TrackPointExtension xmlns:gpxtpx="http://www.garmin.com/xmlschemas/TrackPointExtension/v1">
            <gpxtpx:hr>136</gpxtpx:hr>
          </gpxtpx:TrackPointExtension>
        </extensions>
      </trkpt>
      <trkpt lat="46.07722" lon="6.2434">
        <ele>895.9</ele>
        <time>2021-03-02T12:51:25Z</time>
        <extensions>
          <gpxtpx:TrackPointExtension xmlns:gpxtpx="http://www.garmin.com/xmlschemas/TrackPointExtension/v1">
            <gpxtpx:hr>135</gpxtpx:hr>
          </gpxtpx:TrackPointExtension>
        </extensions>
      </trkpt>
      <trkpt lat="46.07714" lon="6.24336">
        <ele>896.1</ele>
        <time>2021-03-02T12:51:26Z</time>
        <extensions>
          <gpxtpx:TrackPointExtension xmlns:gpxtpx="http://www.garmin.com/xmlschemas/TrackPointExtension/v1">
            <gpxtpx:hr>133</gpxtpx:hr>
          </gpxtpx:TrackPointExtension>
        </extensions>
      </trkpt>
      <trkpt lat="46.07706" lon="6.24333">
        <ele>896.3</ele>
        <time>2021-03-02T12:51:27Z</time>
        <extensions>
          <gpxtpx:TrackPointExtension xmlns:gpxtpx="http://www.garmin.com/xmlschemas/TrackPointExtension/v1">
            <gpxtpx:hr>132</gpxtpx:hr>
          </gpxtpx:TrackPointExtension>
        </extensions>
      </trkpt>
      <trkpt lat="46.07699" lon="6.24331">
        <ele>896.6</ele>
        <time>2021-03-02T12:51:28Z</time>
        <extensions>
          <gpxtpx:TrackPointExtension xmlns:gpxtpx="http://www.garmin.com/xmlschemas/TrackPointExtension/v1">
            <gpxtpx:hr>131</gpxtpx:hr>
          </gpxtpx:TrackPointExtension>
        </extensions>
      </trkpt>
      <trkpt lat="46.07693" lon="6.24328">
        <ele>896.9</ele>
        <time>2021-03-02T12:51:29Z</time>
        <extensions>
          <gpxtpx:TrackPointExtension xmlns:gpxtpx="http://www.garmin.com/xmlschemas/TrackPointExtension/v1">
            <gpxtpx:hr>129</gpxtpx:hr>
          </gpxtpx:TrackPointExtension>
        </extensions>
      </trkpt>
      <trkpt lat="46.07687" lon="6.24324">
        <ele>897.1</ele>
        <time>2021-03-02T12:51:30Z</time>
        <extensions>
          <gpxtpx:TrackPointExtension xmlns:gpxtpx="http://www.garmin.com/xmlschemas/TrackPointExtension/v1">
            <gpxtpx:hr>128</gpxtpx:hr>
          </gpxtpx:TrackPointExtension>
        </extensions>
      </trkpt>
      <trkpt lat="46.07681" lon="6.2432">
        <ele>897.4</ele>
        <time>2021-03-02T12:51:31Z</time>
        <extensions>
          <gpxtpx:TrackPointExtension xmlns:gpxtpx="http://www.garmin.com/xmlschemas/TrackPointExtension/v1">
            <gpxtpx:hr>127</gpxtpx:hr>
          </gpxtpx:TrackPointExtension>
        </extensions>
      </trkpt>
      <trkpt lat="46.07675" lon="6.24314">
        <ele>897.6</ele>
        <time>2021-03-02T12:51:32Z</time>
        <extensions>
          <gpxtpx:TrackPointExtension xmlns:gpxtpx="http://www.garmin.com/xmlschemas/TrackPointExtension/v1">
            <gpxtpx:hr>125</gpxtpx:hr>
          </gpxtpx:TrackPointExtension>
        </extensions>
      </trkpt>
      <trkpt lat="46.07671" lon="6.24308">
        <ele>897.9</ele>
        <time>2021-03-02T12:51:33Z</time>
        <extensions>
          <gpxtpx:TrackPointExtension xmlns:gpxtpx="http://www.garmin.com/xmlschemas/TrackPointExtension/v1">
            <gpxtpx:hr>124</gpxtpx:hr>
          </gpxtpx:TrackPointExtension>
        </extensions>
      </trkpt>
      <trkpt lat="46.07667" lon="6.24301">
        <ele>898.1</ele>
        <time>2021-03-02T12:51:34Z</time>
        <extensions>
          <gpxtpx:TrackPointExtension xmlns:gpxtpx="http://www.garmin.com/xmlschemas/TrackPointExtension/v1">
            <gpxtpx:hr>122</gpxtpx:hr>
          </gpxtpx:TrackPointExtension>
        </extensions>
      </trkpt>
      <trkpt lat="46.07666" lon="6.24294">
        <ele>898.4</ele>
        <time>2021-03-02T12:51:35Z</time>
        <extensions>
          <gpxtpx:TrackPointExtension xmlns:gpxtpx="http://www.garmin.com/xmlschemas/TrackPointExtension/v1">
            <gpxtpx:hr>121</gpxtpx:hr>
          </gpxtpx:TrackPointExtension>
        </extensions>
      </trkpt>
      <trkpt lat="46.07665" lon="6.24286">
        <ele>898.6</ele>
        <time>2021-03-02T12:51:36Z</time>
        <extensions>
          <gpxtpx:TrackPointExtension xmlns:gpxtpx="http://www.garmin.com/xmlschemas/TrackPointExtension/v1">
            <gpxtpx:hr>119</gpxtpx:hr>
          </gpxtpx:TrackPointExtension>
        </extensions>
      </trkpt>
      <trkpt lat="46.07664" lon="6.24278">
        <ele>898.9</ele>
        <time>2021-03-02T12:51:37Z</time>
        <extensions>
          <gpxtpx:TrackPointExtension xmlns:gpxtpx="http://www.garmin.com/xmlschemas/TrackPointExtension/v1">
            <gpxtpx:hr>118</gpxtpx:hr>
          </gpxtpx:TrackPointExtension>
        </extensions>
      </trkpt>
      <trkpt lat="46.07664" lon="6.24271">
        <ele>899.2</ele>
        <time>2021-03-02T12:51:38Z</time>
        <extensions>
          <gpxtpx:TrackPointExtension xmlns:gpxtpx="http://www.garmin.com/xmlschemas/TrackPointExtension/v1">
            <gpxtpx:hr>119</gpxtpx:hr>
          </gpxtpx:TrackPointExtension>
        </extensions>
      </trkpt>
      <trkpt lat="46.07663" lon="6.24263">
        <ele>899.5</ele>
        <time>2021-03-02T12:51:39Z</time>
        <extensions>
          <gpxtpx:TrackPointExtension xmlns:gpxtpx="http://www.garmin.com/xmlschemas/TrackPointExtension/v1">
            <gpxtpx:hr>119</gpxtpx:hr>
          </gpxtpx:TrackPointExtension>
        </extensions>
      </trkpt>
      <trkpt lat="46.07663" lon="6.24256">
        <ele>899.8</ele>
        <time>2021-03-02T12:51:40Z</time>
        <extensions>
          <gpxtpx:TrackPointExtension xmlns:gpxtpx="http://www.garmin.com/xmlschemas/TrackPointExtension/v1">
            <gpxtpx:hr>119</gpxtpx:hr>
          </gpxtpx:TrackPointExtension>
        </extensions>
      </trkpt>
      <trkpt lat="46.07663" lon="6.24249">
        <ele>900.1</ele>
        <time>2021-03-02T12:51:41Z</time>
        <extensions>
          <gpxtpx:TrackPointExtension xmlns:gpxtpx="http://www.garmin.com/xmlschemas/TrackPointExtension/v1">
            <gpxtpx:hr>119</gpxtpx:hr>
          </gpxtpx:TrackPointExtension>
        </extensions>
      </trkpt>
      <trkpt lat="46.07662" lon="6.24242">
        <ele>900.4</ele>
        <time>2021-03-02T12:51:42Z</time>
        <extensions>
          <gpxtpx:TrackPointExtension xmlns:gpxtpx="http://www.garmin.com/xmlschemas/TrackPointExtension/v1">
            <gpxtpx:hr>120</gpxtpx:hr>
          </gpxtpx:TrackPointExtension>
        </extensions>
      </trkpt>
      <trkpt lat="46.07662" lon="6.24236">
        <ele>900.8</ele>
        <time>2021-03-02T12:51:43Z</time>
        <extensions>
          <gpxtpx:TrackPointExtension xmlns:gpxtpx="http://www.garmin.com/xmlschemas/TrackPointExtension/v1">
            <gpxtpx:hr>120</gpxtpx:hr>
          </gpxtpx:TrackPointExtension>
        </extensions>
      </trkpt>
      <trkpt lat="46.07662" lon="6.24229">
        <ele>901.1</ele>
        <time>2021-03-02T12:51:44Z</time>
        <extensions>
          <gpxtpx:TrackPointExtension xmlns:gpxtpx="http://www.garmin.com/xmlschemas/TrackPointExtension/v1">
            <gpxtpx:hr>120</gpxtpx:hr>
          </gpxtpx:TrackPointExtension>
        </extensions>
      </trkpt>
      <trkpt lat="46.07662" lon="6.24223">
        <ele>901.4</ele>
        <time>2021-03-02T12:51:45Z</time>
        <extensions>
          <gpxtpx:TrackPointExtension xmlns:gpxtpx="http://www.garmin.com/xmlschemas/TrackPointExtension/v1">
            <gpxtpx:hr>121</gpxtpx:hr>
          </gpxtpx:TrackPointExtension>
        </extensions>
      </trkpt>
      <trkpt lat="46.07662" lon="6.24217">
        <ele>901.7</ele>
        <time>2021-03-02T12:51:46Z</time>
        <extensions>
          <gpxtpx:TrackPointExtension xmlns:gpxtpx="http://www.garmin.com/xmlschemas/TrackPointExtension/v1">
            <gpxtpx:hr>122</gpxtpx:hr>
          </gpxtpx:TrackPointExtension>
        </extensions>
      </trkpt>
      <trkpt lat="46.07661" lon="6.24212">
        <ele>902</ele>
        <time>2021-03-02T12:51:47Z</time>
        <extensions>
          <gpxtpx:TrackPointExtension xmlns:gpxtpx="http://www.garmin.com/xmlschemas/TrackPointExtension/v1">
            <gpxtpx:hr>122</gpxtpx:hr>
          </gpxtpx:TrackPointExtension>
        </extensions>
      </trkpt>
      <trkpt lat="46.07662" lon="6.24206">
        <ele>902.2</ele>
        <time>2021-03-02T12:51:48Z</time>
        <extensions>
          <gpxtpx:TrackPointExtension xmlns:gpxtpx="http://www.garmin.com/xmlschemas/TrackPointExtension/v1">
            <gpxtpx:hr>123</gpxtpx:hr>
          </gpxtpx:TrackPointExtension>
        </extensions>
      </trkpt>
      <trkpt lat="46.07661" lon="6.24201">
        <ele>902.5</ele>
        <time>2021-03-02T12:51:49Z</time>
        <extensions>
          <gpxtpx:TrackPointExtension xmlns:gpxtpx="http://www.garmin.com/xmlschemas/TrackPointExtension/v1">
            <gpxtpx:hr>123</gpxtpx:hr>
          </gpxtpx:TrackPointExtension>
        </extensions>
      </trkpt>
      <trkpt lat="46.07661" lon="6.24196">
        <ele>902.8</ele>
        <time>2021-03-02T12:51:50Z</time>
        <extensions>
          <gpxtpx:TrackPointExtension xmlns:gpxtpx="http://www.garmin.com/xmlschemas/TrackPointExtension/v1">
            <gpxtpx:hr>123</gpxtpx:hr>
          </gpxtpx:TrackPointExtension>
        </extensions>
      </trkpt>
      <trkpt lat="46.0766" lon="6.2419">
        <ele>903</ele>
        <time>2021-03-02T12:51:51Z</time>
        <extensions>
          <gpxtpx:TrackPointExtension xmlns:gpxtpx="http://www.garmin.com/xmlschemas/TrackPointExtension/v1">
            <gpxtpx:hr>123</gpxtpx:hr>
          </gpxtpx:TrackPointExtension>
        </extensions>
      </trkpt>
      <trkpt lat="46.0766" lon="6.24185">
        <ele>903.3</ele>
        <time>2021-03-02T12:51:52Z</time>
        <extensions>
          <gpxtpx:TrackPointExtension xmlns:gpxtpx="http://www.garmin.com/xmlschemas/TrackPointExtension/v1">
            <gpxtpx:hr>124</gpxtpx:hr>
          </gpxtpx:TrackPointExtension>
        </extensions>
      </trkpt>
      <trkpt lat="46.0766" lon="6.24179">
        <ele>903.6</ele>
        <time>2021-03-02T12:51:53Z</time>
        <extensions>
          <gpxtpx:TrackPointExtension xmlns:gpxtpx="http://www.garmin.com/xmlschemas/TrackPointExtension/v1">
            <gpxtpx:hr>124</gpxtpx:hr>
          </gpxtpx:TrackPointExtension>
        </extensions>
      </trkpt>
      <trkpt lat="46.0766" lon="6.24174">
        <ele>903.9</ele>
        <time>2021-03-02T12:51:54Z</time>
        <extensions>
          <gpxtpx:TrackPointExtension xmlns:gpxtpx="http://www.garmin.com/xmlschemas/TrackPointExtension/v1">
            <gpxtpx:hr>124</gpxtpx:hr>
          </gpxtpx:TrackPointExtension>
        </extensions>
      </trkpt>
      <trkpt lat="46.0766" lon="6.24169">
        <ele>904.2</ele>
        <time>2021-03-02T12:51:55Z</time>
        <extensions>
          <gpxtpx:TrackPointExtension xmlns:gpxtpx="http://www.garmin.com/xmlschemas/TrackPointExtension/v1">
            <gpxtpx:hr>125</gpxtpx:hr>
          </gpxtpx:TrackPointExtension>
        </extensions>
      </trkpt>
      <trkpt lat="46.0766" lon="6.24165">
        <ele>904.5</ele>
        <time>2021-03-02T12:51:56Z</time>
        <extensions>
          <gpxtpx:TrackPointExtension xmlns:gpxtpx="http://www.garmin.com/xmlschemas/TrackPointExtension/v1">
            <gpxtpx:hr>125</gpxtpx:hr>
          </gpxtpx:TrackPointExtension>
        </extensions>
      </trkpt>
      <trkpt lat="46.0766" lon="6.2416">
        <ele>904.7</ele>
        <time>2021-03-02T12:51:57Z</time>
        <extensions>
          <gpxtpx:TrackPointExtension xmlns:gpxtpx="http://www.garmin.com/xmlschemas/TrackPointExtension/v1">
            <gpxtpx:hr>125</gpxtpx:hr>
          </gpxtpx:TrackPointExtension>
        </extensions>
      </trkpt>
      <trkpt lat="46.07659" lon="6.24156">
        <ele>905</ele>
        <time>2021-03-02T12:51:58Z</time>
        <extensions>
          <gpxtpx:TrackPointExtension xmlns:gpxtpx="http://www.garmin.com/xmlschemas/TrackPointExtension/v1">
            <gpxtpx:hr>126</gpxtpx:hr>
          </gpxtpx:TrackPointExtension>
        </extensions>
      </trkpt>
      <trkpt lat="46.07659" lon="6.24152">
        <ele>905.3</ele>
        <time>2021-03-02T12:51:59Z</time>
        <extensions>
          <gpxtpx:TrackPointExtension xmlns:gpxtpx="http://www.garmin.com/xmlschemas/TrackPointExtension/v1">
            <gpxtpx:hr>126</gpxtpx:hr>
          </gpxtpx:TrackPointExtension>
        </extensions>
      </trkpt>
      <trkpt lat="46.07658" lon="6.24148">
        <ele>905.5</ele>
        <time>2021-03-02T12:52:00Z</time>
        <extensions>
          <gpxtpx:TrackPointExtension xmlns:gpxtpx="http://www.garmin.com/xmlschemas/TrackPointExtension/v1">
            <gpxtpx:hr>125</gpxtpx:hr>
          </gpxtpx:TrackPointExtension>
        </extensions>
      </trkpt>
      <trkpt lat="46.07658" lon="6.24144">
        <ele>905.8</ele>
        <time>2021-03-02T12:52:01Z</time>
        <extensions>
          <gpxtpx:TrackPointExtension xmlns:gpxtpx="http://www.garmin.com/xmlschemas/TrackPointExtension/v1">
            <gpxtpx:hr>125</gpxtpx:hr>
          </gpxtpx:TrackPointExtension>
        </extensions>
      </trkpt>
      <trkpt lat="46.07659" lon="6.2414">
        <ele>906</ele>
        <time>2021-03-02T12:52:02Z</time>
        <extensions>
          <gpxtpx:TrackPointExtension xmlns:gpxtpx="http://www.garmin.com/xmlschemas/TrackPointExtension/v1">
            <gpxtpx:hr>125</gpxtpx:hr>
          </gpxtpx:TrackPointExtension>
        </extensions>
      </trkpt>
      <trkpt lat="46.0766" lon="6.24136">
        <ele>906.3</ele>
        <time>2021-03-02T12:52:03Z</time>
        <extensions>
          <gpxtpx:TrackPointExtension xmlns:gpxtpx="http://www.garmin.com/xmlschemas/TrackPointExtension/v1">
            <gpxtpx:hr>125</gpxtpx:hr>
          </gpxtpx:TrackPointExtension>
        </extensions>
      </trkpt>
      <trkpt lat="46.0766" lon="6.24132">
        <ele>906.5</ele>
        <time>2021-03-02T12:52:04Z</time>
        <extensions>
          <gpxtpx:TrackPointExtension xmlns:gpxtpx="http://www.garmin.com/xmlschemas/TrackPointExtension/v1">
            <gpxtpx:hr>126</gpxtpx:hr>
          </gpxtpx:TrackPointExtension>
        </extensions>
      </trkpt>
      <trkpt lat="46.0766" lon="6.24128">
        <ele>906.8</ele>
        <time>2021-03-02T12:52:05Z</time>
        <extensions>
          <gpxtpx:TrackPointExtension xmlns:gpxtpx="http://www.garmin.com/xmlschemas/TrackPointExtension/v1">
            <gpxtpx:hr>126</gpxtpx:hr>
          </gpxtpx:TrackPointExtension>
        </extensions>
      </trkpt>
      <trkpt lat="46.0766" lon="6.24124">
        <ele>907</ele>
        <time>2021-03-02T12:52:06Z</time>
        <extensions>
          <gpxtpx:TrackPointExtension xmlns:gpxtpx="http://www.garmin.com/xmlschemas/TrackPointExtension/v1">
            <gpxtpx:hr>126</gpxtpx:hr>
          </gpxtpx:TrackPointExtension>
        </extensions>
      </trkpt>
      <trkpt lat="46.07661" lon="6.2412">
        <ele>907.2</ele>
        <time>2021-03-02T12:52:07Z</time>
        <extensions>
          <gpxtpx:TrackPointExtension xmlns:gpxtpx="http://www.garmin.com/xmlschemas/TrackPointExtension/v1">
            <gpxtpx:hr>126</gpxtpx:hr>
          </gpxtpx:TrackPointExtension>
        </extensions>
      </trkpt>
      <trkpt lat="46.07661" lon="6.24117">
        <ele>907.4</ele>
        <time>2021-03-02T12:52:08Z</time>
        <extensions>
          <gpxtpx:TrackPointExtension xmlns:gpxtpx="http://www.garmin.com/xmlschemas/TrackPointExtension/v1">
            <gpxtpx:hr>127</gpxtpx:hr>
          </gpxtpx:TrackPointExtension>
        </extensions>
      </trkpt>
      <trkpt lat="46.07661" lon="6.24115">
        <ele>907.6</ele>
        <time>2021-03-02T12:52:09Z</time>
        <extensions>
          <gpxtpx:TrackPointExtension xmlns:gpxtpx="http://www.garmin.com/xmlschemas/TrackPointExtension/v1">
            <gpxtpx:hr>127</gpxtpx:hr>
          </gpxtpx:TrackPointExtension>
        </extensions>
      </trkpt>
      <trkpt lat="46.07661" lon="6.24111">
        <ele>907.8</ele>
        <time>2021-03-02T12:52:10Z</time>
        <extensions>
          <gpxtpx:TrackPointExtension xmlns:gpxtpx="http://www.garmin.com/xmlschemas/TrackPointExtension/v1">
            <gpxtpx:hr>127</gpxtpx:hr>
          </gpxtpx:TrackPointExtension>
        </extensions>
      </trkpt>
      <trkpt lat="46.07661" lon="6.24107">
        <ele>908.1</ele>
        <time>2021-03-02T12:52:11Z</time>
        <extensions>
          <gpxtpx:TrackPointExtension xmlns:gpxtpx="http://www.garmin.com/xmlschemas/TrackPointExtension/v1">
            <gpxtpx:hr>128</gpxtpx:hr>
          </gpxtpx:TrackPointExtension>
        </extensions>
      </trkpt>
      <trkpt lat="46.07661" lon="6.24103">
        <ele>908.3</ele>
        <time>2021-03-02T12:52:12Z</time>
        <extensions>
          <gpxtpx:TrackPointExtension xmlns:gpxtpx="http://www.garmin.com/xmlschemas/TrackPointExtension/v1">
            <gpxtpx:hr>130</gpxtpx:hr>
          </gpxtpx:TrackPointExtension>
        </extensions>
      </trkpt>
      <trkpt lat="46.07662" lon="6.241">
        <ele>908.5</ele>
        <time>2021-03-02T12:52:13Z</time>
        <extensions>
          <gpxtpx:TrackPointExtension xmlns:gpxtpx="http://www.garmin.com/xmlschemas/TrackPointExtension/v1">
            <gpxtpx:hr>131</gpxtpx:hr>
          </gpxtpx:TrackPointExtension>
        </extensions>
      </trkpt>
      <trkpt lat="46.07662" lon="6.24096">
        <ele>908.7</ele>
        <time>2021-03-02T12:52:14Z</time>
        <extensions>
          <gpxtpx:TrackPointExtension xmlns:gpxtpx="http://www.garmin.com/xmlschemas/TrackPointExtension/v1">
            <gpxtpx:hr>132</gpxtpx:hr>
          </gpxtpx:TrackPointExtension>
        </extensions>
      </trkpt>
      <trkpt lat="46.07662" lon="6.24092">
        <ele>908.9</ele>
        <time>2021-03-02T12:52:15Z</time>
        <extensions>
          <gpxtpx:TrackPointExtension xmlns:gpxtpx="http://www.garmin.com/xmlschemas/TrackPointExtension/v1">
            <gpxtpx:hr>132</gpxtpx:hr>
          </gpxtpx:TrackPointExtension>
        </extensions>
      </trkpt>
      <trkpt lat="46.07662" lon="6.24088">
        <ele>909.1</ele>
        <time>2021-03-02T12:52:16Z</time>
        <extensions>
          <gpxtpx:TrackPointExtension xmlns:gpxtpx="http://www.garmin.com/xmlschemas/TrackPointExtension/v1">
            <gpxtpx:hr>133</gpxtpx:hr>
          </gpxtpx:TrackPointExtension>
        </extensions>
      </trkpt>
      <trkpt lat="46.07662" lon="6.24084">
        <ele>909.3</ele>
        <time>2021-03-02T12:52:17Z</time>
        <extensions>
          <gpxtpx:TrackPointExtension xmlns:gpxtpx="http://www.garmin.com/xmlschemas/TrackPointExtension/v1">
            <gpxtpx:hr>133</gpxtpx:hr>
          </gpxtpx:TrackPointExtension>
        </extensions>
      </trkpt>
      <trkpt lat="46.07662" lon="6.2408">
        <ele>909.5</ele>
        <time>2021-03-02T12:52:18Z</time>
        <extensions>
          <gpxtpx:TrackPointExtension xmlns:gpxtpx="http://www.garmin.com/xmlschemas/TrackPointExtension/v1">
            <gpxtpx:hr>134</gpxtpx:hr>
          </gpxtpx:TrackPointExtension>
        </extensions>
      </trkpt>
      <trkpt lat="46.07661" lon="6.24076">
        <ele>909.7</ele>
        <time>2021-03-02T12:52:19Z</time>
        <extensions>
          <gpxtpx:TrackPointExtension xmlns:gpxtpx="http://www.garmin.com/xmlschemas/TrackPointExtension/v1">
            <gpxtpx:hr>134</gpxtpx:hr>
          </gpxtpx:TrackPointExtension>
        </extensions>
      </trkpt>
      <trkpt lat="46.0766" lon="6.24073">
        <ele>909.9</ele>
        <time>2021-03-02T12:52:20Z</time>
        <extensions>
          <gpxtpx:TrackPointExtension xmlns:gpxtpx="http://www.garmin.com/xmlschemas/TrackPointExtension/v1">
            <gpxtpx:hr>135</gpxtpx:hr>
          </gpxtpx:TrackPointExtension>
        </extensions>
      </trkpt>
      <trkpt lat="46.0766" lon="6.2407">
        <ele>910</ele>
        <time>2021-03-02T12:52:21Z</time>
        <extensions>
          <gpxtpx:TrackPointExtension xmlns:gpxtpx="http://www.garmin.com/xmlschemas/TrackPointExtension/v1">
            <gpxtpx:hr>135</gpxtpx:hr>
          </gpxtpx:TrackPointExtension>
        </extensions>
      </trkpt>
      <trkpt lat="46.07658" lon="6.24067">
        <ele>910.2</ele>
        <time>2021-03-02T12:52:22Z</time>
        <extensions>
          <gpxtpx:TrackPointExtension xmlns:gpxtpx="http://www.garmin.com/xmlschemas/TrackPointExtension/v1">
            <gpxtpx:hr>135</gpxtpx:hr>
          </gpxtpx:TrackPointExtension>
        </extensions>
      </trkpt>
      <trkpt lat="46.07657" lon="6.24064">
        <ele>910.4</ele>
        <time>2021-03-02T12:52:23Z</time>
        <extensions>
          <gpxtpx:TrackPointExtension xmlns:gpxtpx="http://www.garmin.com/xmlschemas/TrackPointExtension/v1">
            <gpxtpx:hr>135</gpxtpx:hr>
          </gpxtpx:TrackPointExtension>
        </extensions>
      </trkpt>
      <trkpt lat="46.07655" lon="6.2406">
        <ele>910.6</ele>
        <time>2021-03-02T12:52:24Z</time>
        <extensions>
          <gpxtpx:TrackPointExtension xmlns:gpxtpx="http://www.garmin.com/xmlschemas/TrackPointExtension/v1">
            <gpxtpx:hr>136</gpxtpx:hr>
          </gpxtpx:TrackPointExtension>
        </extensions>
      </trkpt>
      <trkpt lat="46.07653" lon="6.24058">
        <ele>910.8</ele>
        <time>2021-03-02T12:52:25Z</time>
        <extensions>
          <gpxtpx:TrackPointExtension xmlns:gpxtpx="http://www.garmin.com/xmlschemas/TrackPointExtension/v1">
            <gpxtpx:hr>136</gpxtpx:hr>
          </gpxtpx:TrackPointExtension>
        </extensions>
      </trkpt>
      <trkpt lat="46.07651" lon="6.24055">
        <ele>911</ele>
        <time>2021-03-02T12:52:26Z</time>
        <extensions>
          <gpxtpx:TrackPointExtension xmlns:gpxtpx="http://www.garmin.com/xmlschemas/TrackPointExtension/v1">
            <gpxtpx:hr>136</gpxtpx:hr>
          </gpxtpx:TrackPointExtension>
        </extensions>
      </trkpt>
      <trkpt lat="46.07649" lon="6.24052">
        <ele>911.2</ele>
        <time>2021-03-02T12:52:27Z</time>
        <extensions>
          <gpxtpx:TrackPointExtension xmlns:gpxtpx="http://www.garmin.com/xmlschemas/TrackPointExtension/v1">
            <gpxtpx:hr>136</gpxtpx:hr>
          </gpxtpx:TrackPointExtension>
        </extensions>
      </trkpt>
      <trkpt lat="46.07646" lon="6.24048">
        <ele>911.5</ele>
        <time>2021-03-02T12:52:28Z</time>
        <extensions>
          <gpxtpx:TrackPointExtension xmlns:gpxtpx="http://www.garmin.com/xmlschemas/TrackPointExtension/v1">
            <gpxtpx:hr>137</gpxtpx:hr>
          </gpxtpx:TrackPointExtension>
        </extensions>
      </trkpt>
      <trkpt lat="46.07643" lon="6.24044">
        <ele>911.8</ele>
        <time>2021-03-02T12:52:29Z</time>
        <extensions>
          <gpxtpx:TrackPointExtension xmlns:gpxtpx="http://www.garmin.com/xmlschemas/TrackPointExtension/v1">
            <gpxtpx:hr>137</gpxtpx:hr>
          </gpxtpx:TrackPointExtension>
        </extensions>
      </trkpt>
      <trkpt lat="46.0764" lon="6.24041">
        <ele>912</ele>
        <time>2021-03-02T12:52:30Z</time>
        <extensions>
          <gpxtpx:TrackPointExtension xmlns:gpxtpx="http://www.garmin.com/xmlschemas/TrackPointExtension/v1">
            <gpxtpx:hr>138</gpxtpx:hr>
          </gpxtpx:TrackPointExtension>
        </extensions>
      </trkpt>
      <trkpt lat="46.07637" lon="6.24037">
        <ele>912.2</ele>
        <time>2021-03-02T12:52:31Z</time>
        <extensions>
          <gpxtpx:TrackPointExtension xmlns:gpxtpx="http://www.garmin.com/xmlschemas/TrackPointExtension/v1">
            <gpxtpx:hr>138</gpxtpx:hr>
          </gpxtpx:TrackPointExtension>
        </extensions>
      </trkpt>
      <trkpt lat="46.07635" lon="6.24034">
        <ele>912.4</ele>
        <time>2021-03-02T12:52:32Z</time>
        <extensions>
          <gpxtpx:TrackPointExtension xmlns:gpxtpx="http://www.garmin.com/xmlschemas/TrackPointExtension/v1">
            <gpxtpx:hr>138</gpxtpx:hr>
          </gpxtpx:TrackPointExtension>
        </extensions>
      </trkpt>
      <trkpt lat="46.07632" lon="6.24031">
        <ele>912.6</ele>
        <time>2021-03-02T12:52:33Z</time>
        <extensions>
          <gpxtpx:TrackPointExtension xmlns:gpxtpx="http://www.garmin.com/xmlschemas/TrackPointExtension/v1">
            <gpxtpx:hr>138</gpxtpx:hr>
          </gpxtpx:TrackPointExtension>
        </extensions>
      </trkpt>
      <trkpt lat="46.07629" lon="6.24028">
        <ele>912.8</ele>
        <time>2021-03-02T12:52:34Z</time>
        <extensions>
          <gpxtpx:TrackPointExtension xmlns:gpxtpx="http://www.garmin.com/xmlschemas/TrackPointExtension/v1">
            <gpxtpx:hr>139</gpxtpx:hr>
          </gpxtpx:TrackPointExtension>
        </extensions>
      </trkpt>
      <trkpt lat="46.07625" lon="6.24026">
        <ele>913</ele>
        <time>2021-03-02T12:52:35Z</time>
        <extensions>
          <gpxtpx:TrackPointExtension xmlns:gpxtpx="http://www.garmin.com/xmlschemas/TrackPointExtension/v1">
            <gpxtpx:hr>139</gpxtpx:hr>
          </gpxtpx:TrackPointExtension>
        </extensions>
      </trkpt>
      <trkpt lat="46.07621" lon="6.24024">
        <ele>913.2</ele>
        <time>2021-03-02T12:52:36Z</time>
        <extensions>
          <gpxtpx:TrackPointExtension xmlns:gpxtpx="http://www.garmin.com/xmlschemas/TrackPointExtension/v1">
            <gpxtpx:hr>139</gpxtpx:hr>
          </gpxtpx:TrackPointExtension>
        </extensions>
      </trkpt>
      <trkpt lat="46.07618" lon="6.24022">
        <ele>913.4</ele>
        <time>2021-03-02T12:52:37Z</time>
        <extensions>
          <gpxtpx:TrackPointExtension xmlns:gpxtpx="http://www.garmin.com/xmlschemas/TrackPointExtension/v1">
            <gpxtpx:hr>139</gpxtpx:hr>
          </gpxtpx:TrackPointExtension>
        </extensions>
      </trkpt>
      <trkpt lat="46.07614" lon="6.24021">
        <ele>913.6</ele>
        <time>2021-03-02T12:52:38Z</time>
        <extensions>
          <gpxtpx:TrackPointExtension xmlns:gpxtpx="http://www.garmin.com/xmlschemas/TrackPointExtension/v1">
            <gpxtpx:hr>139</gpxtpx:hr>
          </gpxtpx:TrackPointExtension>
        </extensions>
      </trkpt>
      <trkpt lat="46.07611" lon="6.24019">
        <ele>913.8</ele>
        <time>2021-03-02T12:52:39Z</time>
        <extensions>
          <gpxtpx:TrackPointExtension xmlns:gpxtpx="http://www.garmin.com/xmlschemas/TrackPointExtension/v1">
            <gpxtpx:hr>139</gpxtpx:hr>
          </gpxtpx:TrackPointExtension>
        </extensions>
      </trkpt>
      <trkpt lat="46.07607" lon="6.24017">
        <ele>913.9</ele>
        <time>2021-03-02T12:52:40Z</time>
        <extensions>
          <gpxtpx:TrackPointExtension xmlns:gpxtpx="http://www.garmin.com/xmlschemas/TrackPointExtension/v1">
            <gpxtpx:hr>139</gpxtpx:hr>
          </gpxtpx:TrackPointExtension>
        </extensions>
      </trkpt>
      <trkpt lat="46.07603" lon="6.24016">
        <ele>914.1</ele>
        <time>2021-03-02T12:52:41Z</time>
        <extensions>
          <gpxtpx:TrackPointExtension xmlns:gpxtpx="http://www.garmin.com/xmlschemas/TrackPointExtension/v1">
            <gpxtpx:hr>139</gpxtpx:hr>
          </gpxtpx:TrackPointExtension>
        </extensions>
      </trkpt>
      <trkpt lat="46.076" lon="6.24014">
        <ele>914.3</ele>
        <time>2021-03-02T12:52:42Z</time>
        <extensions>
          <gpxtpx:TrackPointExtension xmlns:gpxtpx="http://www.garmin.com/xmlschemas/TrackPointExtension/v1">
            <gpxtpx:hr>140</gpxtpx:hr>
          </gpxtpx:TrackPointExtension>
        </extensions>
      </trkpt>
      <trkpt lat="46.07597" lon="6.24013">
        <ele>914.5</ele>
        <time>2021-03-02T12:52:43Z</time>
        <extensions>
          <gpxtpx:TrackPointExtension xmlns:gpxtpx="http://www.garmin.com/xmlschemas/TrackPointExtension/v1">
            <gpxtpx:hr>140</gpxtpx:hr>
          </gpxtpx:TrackPointExtension>
        </extensions>
      </trkpt>
      <trkpt lat="46.07594" lon="6.24013">
        <ele>914.7</ele>
        <time>2021-03-02T12:52:44Z</time>
        <extensions>
          <gpxtpx:TrackPointExtension xmlns:gpxtpx="http://www.garmin.com/xmlschemas/TrackPointExtension/v1">
            <gpxtpx:hr>140</gpxtpx:hr>
          </gpxtpx:TrackPointExtension>
        </extensions>
      </trkpt>
      <trkpt lat="46.07591" lon="6.24012">
        <ele>914.8</ele>
        <time>2021-03-02T12:52:45Z</time>
        <extensions>
          <gpxtpx:TrackPointExtension xmlns:gpxtpx="http://www.garmin.com/xmlschemas/TrackPointExtension/v1">
            <gpxtpx:hr>140</gpxtpx:hr>
          </gpxtpx:TrackPointExtension>
        </extensions>
      </trkpt>
      <trkpt lat="46.07588" lon="6.24011">
        <ele>915</ele>
        <time>2021-03-02T12:52:46Z</time>
        <extensions>
          <gpxtpx:TrackPointExtension xmlns:gpxtpx="http://www.garmin.com/xmlschemas/TrackPointExtension/v1">
            <gpxtpx:hr>140</gpxtpx:hr>
          </gpxtpx:TrackPointExtension>
        </extensions>
      </trkpt>
      <trkpt lat="46.07586" lon="6.2401">
        <ele>915.1</ele>
        <time>2021-03-02T12:52:47Z</time>
        <extensions>
          <gpxtpx:TrackPointExtension xmlns:gpxtpx="http://www.garmin.com/xmlschemas/TrackPointExtension/v1">
            <gpxtpx:hr>140</gpxtpx:hr>
          </gpxtpx:TrackPointExtension>
        </extensions>
      </trkpt>
      <trkpt lat="46.07583" lon="6.24009">
        <ele>915.3</ele>
        <time>2021-03-02T12:52:48Z</time>
        <extensions>
          <gpxtpx:TrackPointExtension xmlns:gpxtpx="http://www.garmin.com/xmlschemas/TrackPointExtension/v1">
            <gpxtpx:hr>140</gpxtpx:hr>
          </gpxtpx:TrackPointExtension>
        </extensions>
      </trkpt>
      <trkpt lat="46.07581" lon="6.24009">
        <ele>915.5</ele>
        <time>2021-03-02T12:52:49Z</time>
        <extensions>
          <gpxtpx:TrackPointExtension xmlns:gpxtpx="http://www.garmin.com/xmlschemas/TrackPointExtension/v1">
            <gpxtpx:hr>140</gpxtpx:hr>
          </gpxtpx:TrackPointExtension>
        </extensions>
      </trkpt>
      <trkpt lat="46.07579" lon="6.24008">
        <ele>915.7</ele>
        <time>2021-03-02T12:52:50Z</time>
        <extensions>
          <gpxtpx:TrackPointExtension xmlns:gpxtpx="http://www.garmin.com/xmlschemas/TrackPointExtension/v1">
            <gpxtpx:hr>140</gpxtpx:hr>
          </gpxtpx:TrackPointExtension>
        </extensions>
      </trkpt>
      <trkpt lat="46.07576" lon="6.24008">
        <ele>915.9</ele>
        <time>2021-03-02T12:52:51Z</time>
        <extensions>
          <gpxtpx:TrackPointExtension xmlns:gpxtpx="http://www.garmin.com/xmlschemas/TrackPointExtension/v1">
            <gpxtpx:hr>140</gpxtpx:hr>
          </gpxtpx:TrackPointExtension>
        </extensions>
      </trkpt>
      <trkpt lat="46.07573" lon="6.24007">
        <ele>916.1</ele>
        <time>2021-03-02T12:52:52Z</time>
        <extensions>
          <gpxtpx:TrackPointExtension xmlns:gpxtpx="http://www.garmin.com/xmlschemas/TrackPointExtension/v1">
            <gpxtpx:hr>140</gpxtpx:hr>
          </gpxtpx:TrackPointExtension>
        </extensions>
      </trkpt>
      <trkpt lat="46.07571" lon="6.24007">
        <ele>916.2</ele>
        <time>2021-03-02T12:52:53Z</time>
        <extensions>
          <gpxtpx:TrackPointExtension xmlns:gpxtpx="http://www.garmin.com/xmlschemas/TrackPointExtension/v1">
            <gpxtpx:hr>140</gpxtpx:hr>
          </gpxtpx:TrackPointExtension>
        </extensions>
      </trkpt>
      <trkpt lat="46.07569" lon="6.24005">
        <ele>916.4</ele>
        <time>2021-03-02T12:52:54Z</time>
        <extensions>
          <gpxtpx:TrackPointExtension xmlns:gpxtpx="http://www.garmin.com/xmlschemas/TrackPointExtension/v1">
            <gpxtpx:hr>141</gpxtpx:hr>
          </gpxtpx:TrackPointExtension>
        </extensions>
      </trkpt>
      <trkpt lat="46.07566" lon="6.24004">
        <ele>916.7</ele>
        <time>2021-03-02T12:52:55Z</time>
        <extensions>
          <gpxtpx:TrackPointExtension xmlns:gpxtpx="http://www.garmin.com/xmlschemas/TrackPointExtension/v1">
            <gpxtpx:hr>141</gpxtpx:hr>
          </gpxtpx:TrackPointExtension>
        </extensions>
      </trkpt>
      <trkpt lat="46.07563" lon="6.24004">
        <ele>916.9</ele>
        <time>2021-03-02T12:52:56Z</time>
        <extensions>
          <gpxtpx:TrackPointExtension xmlns:gpxtpx="http://www.garmin.com/xmlschemas/TrackPointExtension/v1">
            <gpxtpx:hr>141</gpxtpx:hr>
          </gpxtpx:TrackPointExtension>
        </extensions>
      </trkpt>
      <trkpt lat="46.0756" lon="6.24003">
        <ele>917.1</ele>
        <time>2021-03-02T12:52:57Z</time>
        <extensions>
          <gpxtpx:TrackPointExtension xmlns:gpxtpx="http://www.garmin.com/xmlschemas/TrackPointExtension/v1">
            <gpxtpx:hr>141</gpxtpx:hr>
          </gpxtpx:TrackPointExtension>
        </extensions>
      </trkpt>
      <trkpt lat="46.07557" lon="6.24003">
        <ele>917.4</ele>
        <time>2021-03-02T12:52:58Z</time>
        <extensions>
          <gpxtpx:TrackPointExtension xmlns:gpxtpx="http://www.garmin.com/xmlschemas/TrackPointExtension/v1">
            <gpxtpx:hr>141</gpxtpx:hr>
          </gpxtpx:TrackPointExtension>
        </extensions>
      </trkpt>
      <trkpt lat="46.07554" lon="6.24002">
        <ele>917.6</ele>
        <time>2021-03-02T12:52:59Z</time>
        <extensions>
          <gpxtpx:TrackPointExtension xmlns:gpxtpx="http://www.garmin.com/xmlschemas/TrackPointExtension/v1">
            <gpxtpx:hr>140</gpxtpx:hr>
          </gpxtpx:TrackPointExtension>
        </extensions>
      </trkpt>
      <trkpt lat="46.0755" lon="6.24001">
        <ele>917.8</ele>
        <time>2021-03-02T12:53:00Z</time>
        <extensions>
          <gpxtpx:TrackPointExtension xmlns:gpxtpx="http://www.garmin.com/xmlschemas/TrackPointExtension/v1">
            <gpxtpx:hr>140</gpxtpx:hr>
          </gpxtpx:TrackPointExtension>
        </extensions>
      </trkpt>
      <trkpt lat="46.07547" lon="6.24001">
        <ele>918</ele>
        <time>2021-03-02T12:53:01Z</time>
        <extensions>
          <gpxtpx:TrackPointExtension xmlns:gpxtpx="http://www.garmin.com/xmlschemas/TrackPointExtension/v1">
            <gpxtpx:hr>140</gpxtpx:hr>
          </gpxtpx:TrackPointExtension>
        </extensions>
      </trkpt>
      <trkpt lat="46.07545" lon="6.24002">
        <ele>918.2</ele>
        <time>2021-03-02T12:53:02Z</time>
        <extensions>
          <gpxtpx:TrackPointExtension xmlns:gpxtpx="http://www.garmin.com/xmlschemas/TrackPointExtension/v1">
            <gpxtpx:hr>140</gpxtpx:hr>
          </gpxtpx:TrackPointExtension>
        </extensions>
      </trkpt>
      <trkpt lat="46.07542" lon="6.24001">
        <ele>918.4</ele>
        <time>2021-03-02T12:53:03Z</time>
        <extensions>
          <gpxtpx:TrackPointExtension xmlns:gpxtpx="http://www.garmin.com/xmlschemas/TrackPointExtension/v1">
            <gpxtpx:hr>140</gpxtpx:hr>
          </gpxtpx:TrackPointExtension>
        </extensions>
      </trkpt>
      <trkpt lat="46.07539" lon="6.24001">
        <ele>918.6</ele>
        <time>2021-03-02T12:53:04Z</time>
        <extensions>
          <gpxtpx:TrackPointExtension xmlns:gpxtpx="http://www.garmin.com/xmlschemas/TrackPointExtension/v1">
            <gpxtpx:hr>140</gpxtpx:hr>
          </gpxtpx:TrackPointExtension>
        </extensions>
      </trkpt>
      <trkpt lat="46.07537" lon="6.24001">
        <ele>918.8</ele>
        <time>2021-03-02T12:53:05Z</time>
        <extensions>
          <gpxtpx:TrackPointExtension xmlns:gpxtpx="http://www.garmin.com/xmlschemas/TrackPointExtension/v1">
            <gpxtpx:hr>140</gpxtpx:hr>
          </gpxtpx:TrackPointExtension>
        </extensions>
      </trkpt>
      <trkpt lat="46.07533" lon="6.24">
        <ele>919.1</ele>
        <time>2021-03-02T12:53:06Z</time>
        <extensions>
          <gpxtpx:TrackPointExtension xmlns:gpxtpx="http://www.garmin.com/xmlschemas/TrackPointExtension/v1">
            <gpxtpx:hr>140</gpxtpx:hr>
          </gpxtpx:TrackPointExtension>
        </extensions>
      </trkpt>
      <trkpt lat="46.0753" lon="6.23999">
        <ele>919.4</ele>
        <time>2021-03-02T12:53:07Z</time>
        <extensions>
          <gpxtpx:TrackPointExtension xmlns:gpxtpx="http://www.garmin.com/xmlschemas/TrackPointExtension/v1">
            <gpxtpx:hr>139</gpxtpx:hr>
          </gpxtpx:TrackPointExtension>
        </extensions>
      </trkpt>
      <trkpt lat="46.07527" lon="6.23999">
        <ele>919.6</ele>
        <time>2021-03-02T12:53:08Z</time>
        <extensions>
          <gpxtpx:TrackPointExtension xmlns:gpxtpx="http://www.garmin.com/xmlschemas/TrackPointExtension/v1">
            <gpxtpx:hr>139</gpxtpx:hr>
          </gpxtpx:TrackPointExtension>
        </extensions>
      </trkpt>
      <trkpt lat="46.07525" lon="6.23999">
        <ele>919.9</ele>
        <time>2021-03-02T12:53:09Z</time>
        <extensions>
          <gpxtpx:TrackPointExtension xmlns:gpxtpx="http://www.garmin.com/xmlschemas/TrackPointExtension/v1">
            <gpxtpx:hr>139</gpxtpx:hr>
          </gpxtpx:TrackPointExtension>
        </extensions>
      </trkpt>
      <trkpt lat="46.07522" lon="6.23999">
        <ele>920.1</ele>
        <time>2021-03-02T12:53:10Z</time>
        <extensions>
          <gpxtpx:TrackPointExtension xmlns:gpxtpx="http://www.garmin.com/xmlschemas/TrackPointExtension/v1">
            <gpxtpx:hr>139</gpxtpx:hr>
          </gpxtpx:TrackPointExtension>
        </extensions>
      </trkpt>
      <trkpt lat="46.0752" lon="6.24">
        <ele>920.3</ele>
        <time>2021-03-02T12:53:11Z</time>
        <extensions>
          <gpxtpx:TrackPointExtension xmlns:gpxtpx="http://www.garmin.com/xmlschemas/TrackPointExtension/v1">
            <gpxtpx:hr>139</gpxtpx:hr>
          </gpxtpx:TrackPointExtension>
        </extensions>
      </trkpt>
      <trkpt lat="46.07518" lon="6.24">
        <ele>920.5</ele>
        <time>2021-03-02T12:53:12Z</time>
        <extensions>
          <gpxtpx:TrackPointExtension xmlns:gpxtpx="http://www.garmin.com/xmlschemas/TrackPointExtension/v1">
            <gpxtpx:hr>139</gpxtpx:hr>
          </gpxtpx:TrackPointExtension>
        </extensions>
      </trkpt>
      <trkpt lat="46.07515" lon="6.23999">
        <ele>920.7</ele>
        <time>2021-03-02T12:53:13Z</time>
        <extensions>
          <gpxtpx:TrackPointExtension xmlns:gpxtpx="http://www.garmin.com/xmlschemas/TrackPointExtension/v1">
            <gpxtpx:hr>139</gpxtpx:hr>
          </gpxtpx:TrackPointExtension>
        </extensions>
      </trkpt>
      <trkpt lat="46.07512" lon="6.23998">
        <ele>921.1</ele>
        <time>2021-03-02T12:53:14Z</time>
        <extensions>
          <gpxtpx:TrackPointExtension xmlns:gpxtpx="http://www.garmin.com/xmlschemas/TrackPointExtension/v1">
            <gpxtpx:hr>139</gpxtpx:hr>
          </gpxtpx:TrackPointExtension>
        </extensions>
      </trkpt>
      <trkpt lat="46.07508" lon="6.23997">
        <ele>921.4</ele>
        <time>2021-03-02T12:53:15Z</time>
        <extensions>
          <gpxtpx:TrackPointExtension xmlns:gpxtpx="http://www.garmin.com/xmlschemas/TrackPointExtension/v1">
            <gpxtpx:hr>139</gpxtpx:hr>
          </gpxtpx:TrackPointExtension>
        </extensions>
      </trkpt>
      <trkpt lat="46.07505" lon="6.23996">
        <ele>921.7</ele>
        <time>2021-03-02T12:53:16Z</time>
        <extensions>
          <gpxtpx:TrackPointExtension xmlns:gpxtpx="http://www.garmin.com/xmlschemas/TrackPointExtension/v1">
            <gpxtpx:hr>140</gpxtpx:hr>
          </gpxtpx:TrackPointExtension>
        </extensions>
      </trkpt>
      <trkpt lat="46.07502" lon="6.23996">
        <ele>922.1</ele>
        <time>2021-03-02T12:53:17Z</time>
        <extensions>
          <gpxtpx:TrackPointExtension xmlns:gpxtpx="http://www.garmin.com/xmlschemas/TrackPointExtension/v1">
            <gpxtpx:hr>140</gpxtpx:hr>
          </gpxtpx:TrackPointExtension>
        </extensions>
      </trkpt>
      <trkpt lat="46.07499" lon="6.23995">
        <ele>922.4</ele>
        <time>2021-03-02T12:53:18Z</time>
        <extensions>
          <gpxtpx:TrackPointExtension xmlns:gpxtpx="http://www.garmin.com/xmlschemas/TrackPointExtension/v1">
            <gpxtpx:hr>140</gpxtpx:hr>
          </gpxtpx:TrackPointExtension>
        </extensions>
      </trkpt>
      <trkpt lat="46.07496" lon="6.23995">
        <ele>922.7</ele>
        <time>2021-03-02T12:53:19Z</time>
        <extensions>
          <gpxtpx:TrackPointExtension xmlns:gpxtpx="http://www.garmin.com/xmlschemas/TrackPointExtension/v1">
            <gpxtpx:hr>140</gpxtpx:hr>
          </gpxtpx:TrackPointExtension>
        </extensions>
      </trkpt>
      <trkpt lat="46.07493" lon="6.23995">
        <ele>923</ele>
        <time>2021-03-02T12:53:20Z</time>
        <extensions>
          <gpxtpx:TrackPointExtension xmlns:gpxtpx="http://www.garmin.com/xmlschemas/TrackPointExtension/v1">
            <gpxtpx:hr>140</gpxtpx:hr>
          </gpxtpx:TrackPointExtension>
        </extensions>
      </trkpt>
      <trkpt lat="46.0749" lon="6.23995">
        <ele>923.3</ele>
        <time>2021-03-02T12:53:21Z</time>
        <extensions>
          <gpxtpx:TrackPointExtension xmlns:gpxtpx="http://www.garmin.com/xmlschemas/TrackPointExtension/v1">
            <gpxtpx:hr>141</gpxtpx:hr>
          </gpxtpx:TrackPointExtension>
        </extensions>
      </trkpt>
      <trkpt lat="46.07487" lon="6.23995">
        <ele>923.6</ele>
        <time>2021-03-02T12:53:22Z</time>
        <extensions>
          <gpxtpx:TrackPointExtension xmlns:gpxtpx="http://www.garmin.com/xmlschemas/TrackPointExtension/v1">
            <gpxtpx:hr>141</gpxtpx:hr>
          </gpxtpx:TrackPointExtension>
        </extensions>
      </trkpt>
      <trkpt lat="46.07484" lon="6.23995">
        <ele>923.9</ele>
        <time>2021-03-02T12:53:23Z</time>
        <extensions>
          <gpxtpx:TrackPointExtension xmlns:gpxtpx="http://www.garmin.com/xmlschemas/TrackPointExtension/v1">
            <gpxtpx:hr>141</gpxtpx:hr>
          </gpxtpx:TrackPointExtension>
        </extensions>
      </trkpt>
      <trkpt lat="46.07482" lon="6.23995">
        <ele>924.1</ele>
        <time>2021-03-02T12:53:24Z</time>
        <extensions>
          <gpxtpx:TrackPointExtension xmlns:gpxtpx="http://www.garmin.com/xmlschemas/TrackPointExtension/v1">
            <gpxtpx:hr>142</gpxtpx:hr>
          </gpxtpx:TrackPointExtension>
        </extensions>
      </trkpt>
      <trkpt lat="46.07479" lon="6.23995">
        <ele>924.4</ele>
        <time>2021-03-02T12:53:25Z</time>
        <extensions>
          <gpxtpx:TrackPointExtension xmlns:gpxtpx="http://www.garmin.com/xmlschemas/TrackPointExtension/v1">
            <gpxtpx:hr>142</gpxtpx:hr>
          </gpxtpx:TrackPointExtension>
        </extensions>
      </trkpt>
      <trkpt lat="46.07476" lon="6.23995">
        <ele>924.7</ele>
        <time>2021-03-02T12:53:26Z</time>
        <extensions>
          <gpxtpx:TrackPointExtension xmlns:gpxtpx="http://www.garmin.com/xmlschemas/TrackPointExtension/v1">
            <gpxtpx:hr>142</gpxtpx:hr>
          </gpxtpx:TrackPointExtension>
        </extensions>
      </trkpt>
      <trkpt lat="46.07473" lon="6.23995">
        <ele>925</ele>
        <time>2021-03-02T12:53:27Z</time>
        <extensions>
          <gpxtpx:TrackPointExtension xmlns:gpxtpx="http://www.garmin.com/xmlschemas/TrackPointExtension/v1">
            <gpxtpx:hr>142</gpxtpx:hr>
          </gpxtpx:TrackPointExtension>
        </extensions>
      </trkpt>
      <trkpt lat="46.07471" lon="6.23995">
        <ele>925.2</ele>
        <time>2021-03-02T12:53:28Z</time>
        <extensions>
          <gpxtpx:TrackPointExtension xmlns:gpxtpx="http://www.garmin.com/xmlschemas/TrackPointExtension/v1">
            <gpxtpx:hr>142</gpxtpx:hr>
          </gpxtpx:TrackPointExtension>
        </extensions>
      </trkpt>
      <trkpt lat="46.07468" lon="6.23995">
        <ele>925.5</ele>
        <time>2021-03-02T12:53:29Z</time>
        <extensions>
          <gpxtpx:TrackPointExtension xmlns:gpxtpx="http://www.garmin.com/xmlschemas/TrackPointExtension/v1">
            <gpxtpx:hr>142</gpxtpx:hr>
          </gpxtpx:TrackPointExtension>
        </extensions>
      </trkpt>
      <trkpt lat="46.07466" lon="6.23995">
        <ele>925.7</ele>
        <time>2021-03-02T12:53:30Z</time>
        <extensions>
          <gpxtpx:TrackPointExtension xmlns:gpxtpx="http://www.garmin.com/xmlschemas/TrackPointExtension/v1">
            <gpxtpx:hr>142</gpxtpx:hr>
          </gpxtpx:TrackPointExtension>
        </extensions>
      </trkpt>
      <trkpt lat="46.07463" lon="6.23995">
        <ele>926</ele>
        <time>2021-03-02T12:53:31Z</time>
        <extensions>
          <gpxtpx:TrackPointExtension xmlns:gpxtpx="http://www.garmin.com/xmlschemas/TrackPointExtension/v1">
            <gpxtpx:hr>142</gpxtpx:hr>
          </gpxtpx:TrackPointExtension>
        </extensions>
      </trkpt>
      <trkpt lat="46.0746" lon="6.23995">
        <ele>926.3</ele>
        <time>2021-03-02T12:53:32Z</time>
        <extensions>
          <gpxtpx:TrackPointExtension xmlns:gpxtpx="http://www.garmin.com/xmlschemas/TrackPointExtension/v1">
            <gpxtpx:hr>142</gpxtpx:hr>
          </gpxtpx:TrackPointExtension>
        </extensions>
      </trkpt>
      <trkpt lat="46.07458" lon="6.23995">
        <ele>926.6</ele>
        <time>2021-03-02T12:53:33Z</time>
        <extensions>
          <gpxtpx:TrackPointExtension xmlns:gpxtpx="http://www.garmin.com/xmlschemas/TrackPointExtension/v1">
            <gpxtpx:hr>142</gpxtpx:hr>
          </gpxtpx:TrackPointExtension>
        </extensions>
      </trkpt>
      <trkpt lat="46.07456" lon="6.23995">
        <ele>926.8</ele>
        <time>2021-03-02T12:53:34Z</time>
        <extensions>
          <gpxtpx:TrackPointExtension xmlns:gpxtpx="http://www.garmin.com/xmlschemas/TrackPointExtension/v1">
            <gpxtpx:hr>143</gpxtpx:hr>
          </gpxtpx:TrackPointExtension>
        </extensions>
      </trkpt>
      <trkpt lat="46.07454" lon="6.23996">
        <ele>927</ele>
        <time>2021-03-02T12:53:35Z</time>
        <extensions>
          <gpxtpx:TrackPointExtension xmlns:gpxtpx="http://www.garmin.com/xmlschemas/TrackPointExtension/v1">
            <gpxtpx:hr>143</gpxtpx:hr>
          </gpxtpx:TrackPointExtension>
        </extensions>
      </trkpt>
      <trkpt lat="46.07451" lon="6.23996">
        <ele>927.2</ele>
        <time>2021-03-02T12:53:36Z</time>
        <extensions>
          <gpxtpx:TrackPointExtension xmlns:gpxtpx="http://www.garmin.com/xmlschemas/TrackPointExtension/v1">
            <gpxtpx:hr>143</gpxtpx:hr>
          </gpxtpx:TrackPointExtension>
        </extensions>
      </trkpt>
      <trkpt lat="46.07449" lon="6.23996">
        <ele>927.5</ele>
        <time>2021-03-02T12:53:37Z</time>
        <extensions>
          <gpxtpx:TrackPointExtension xmlns:gpxtpx="http://www.garmin.com/xmlschemas/TrackPointExtension/v1">
            <gpxtpx:hr>143</gpxtpx:hr>
          </gpxtpx:TrackPointExtension>
        </extensions>
      </trkpt>
      <trkpt lat="46.07447" lon="6.23996">
        <ele>927.7</ele>
        <time>2021-03-02T12:53:38Z</time>
        <extensions>
          <gpxtpx:TrackPointExtension xmlns:gpxtpx="http://www.garmin.com/xmlschemas/TrackPointExtension/v1">
            <gpxtpx:hr>144</gpxtpx:hr>
          </gpxtpx:TrackPointExtension>
        </extensions>
      </trkpt>
      <trkpt lat="46.07445" lon="6.23996">
        <ele>928</ele>
        <time>2021-03-02T12:53:39Z</time>
        <extensions>
          <gpxtpx:TrackPointExtension xmlns:gpxtpx="http://www.garmin.com/xmlschemas/TrackPointExtension/v1">
            <gpxtpx:hr>144</gpxtpx:hr>
          </gpxtpx:TrackPointExtension>
        </extensions>
      </trkpt>
      <trkpt lat="46.07442" lon="6.23996">
        <ele>928.3</ele>
        <time>2021-03-02T12:53:40Z</time>
        <extensions>
          <gpxtpx:TrackPointExtension xmlns:gpxtpx="http://www.garmin.com/xmlschemas/TrackPointExtension/v1">
            <gpxtpx:hr>145</gpxtpx:hr>
          </gpxtpx:TrackPointExtension>
        </extensions>
      </trkpt>
      <trkpt lat="46.0744" lon="6.23996">
        <ele>928.6</ele>
        <time>2021-03-02T12:53:41Z</time>
        <extensions>
          <gpxtpx:TrackPointExtension xmlns:gpxtpx="http://www.garmin.com/xmlschemas/TrackPointExtension/v1">
            <gpxtpx:hr>145</gpxtpx:hr>
          </gpxtpx:TrackPointExtension>
        </extensions>
      </trkpt>
      <trkpt lat="46.07437" lon="6.23995">
        <ele>928.8</ele>
        <time>2021-03-02T12:53:42Z</time>
        <extensions>
          <gpxtpx:TrackPointExtension xmlns:gpxtpx="http://www.garmin.com/xmlschemas/TrackPointExtension/v1">
            <gpxtpx:hr>145</gpxtpx:hr>
          </gpxtpx:TrackPointExtension>
        </extensions>
      </trkpt>
      <trkpt lat="46.07435" lon="6.23995">
        <ele>929.1</ele>
        <time>2021-03-02T12:53:43Z</time>
        <extensions>
          <gpxtpx:TrackPointExtension xmlns:gpxtpx="http://www.garmin.com/xmlschemas/TrackPointExtension/v1">
            <gpxtpx:hr>146</gpxtpx:hr>
          </gpxtpx:TrackPointExtension>
        </extensions>
      </trkpt>
      <trkpt lat="46.07432" lon="6.23995">
        <ele>929.4</ele>
        <time>2021-03-02T12:53:44Z</time>
        <extensions>
          <gpxtpx:TrackPointExtension xmlns:gpxtpx="http://www.garmin.com/xmlschemas/TrackPointExtension/v1">
            <gpxtpx:hr>146</gpxtpx:hr>
          </gpxtpx:TrackPointExtension>
        </extensions>
      </trkpt>
      <trkpt lat="46.0743" lon="6.23995">
        <ele>929.6</ele>
        <time>2021-03-02T12:53:45Z</time>
        <extensions>
          <gpxtpx:TrackPointExtension xmlns:gpxtpx="http://www.garmin.com/xmlschemas/TrackPointExtension/v1">
            <gpxtpx:hr>146</gpxtpx:hr>
          </gpxtpx:TrackPointExtension>
        </extensions>
      </trkpt>
      <trkpt lat="46.07428" lon="6.23995">
        <ele>929.9</ele>
        <time>2021-03-02T12:53:46Z</time>
        <extensions>
          <gpxtpx:TrackPointExtension xmlns:gpxtpx="http://www.garmin.com/xmlschemas/TrackPointExtension/v1">
            <gpxtpx:hr>146</gpxtpx:hr>
          </gpxtpx:TrackPointExtension>
        </extensions>
      </trkpt>
      <trkpt lat="46.07426" lon="6.23995">
        <ele>930.1</ele>
        <time>2021-03-02T12:53:47Z</time>
        <extensions>
          <gpxtpx:TrackPointExtension xmlns:gpxtpx="http://www.garmin.com/xmlschemas/TrackPointExtension/v1">
            <gpxtpx:hr>146</gpxtpx:hr>
          </gpxtpx:TrackPointExtension>
        </extensions>
      </trkpt>
      <trkpt lat="46.07423" lon="6.23994">
        <ele>930.4</ele>
        <time>2021-03-02T12:53:48Z</time>
        <extensions>
          <gpxtpx:TrackPointExtension xmlns:gpxtpx="http://www.garmin.com/xmlschemas/TrackPointExtension/v1">
            <gpxtpx:hr>146</gpxtpx:hr>
          </gpxtpx:TrackPointExtension>
        </extensions>
      </trkpt>
      <trkpt lat="46.07421" lon="6.23994">
        <ele>930.6</ele>
        <time>2021-03-02T12:53:49Z</time>
        <extensions>
          <gpxtpx:TrackPointExtension xmlns:gpxtpx="http://www.garmin.com/xmlschemas/TrackPointExtension/v1">
            <gpxtpx:hr>146</gpxtpx:hr>
          </gpxtpx:TrackPointExtension>
        </extensions>
      </trkpt>
      <trkpt lat="46.07419" lon="6.23994">
        <ele>930.9</ele>
        <time>2021-03-02T12:53:50Z</time>
        <extensions>
          <gpxtpx:TrackPointExtension xmlns:gpxtpx="http://www.garmin.com/xmlschemas/TrackPointExtension/v1">
            <gpxtpx:hr>145</gpxtpx:hr>
          </gpxtpx:TrackPointExtension>
        </extensions>
      </trkpt>
      <trkpt lat="46.07416" lon="6.23994">
        <ele>931.1</ele>
        <time>2021-03-02T12:53:51Z</time>
        <extensions>
          <gpxtpx:TrackPointExtension xmlns:gpxtpx="http://www.garmin.com/xmlschemas/TrackPointExtension/v1">
            <gpxtpx:hr>145</gpxtpx:hr>
          </gpxtpx:TrackPointExtension>
        </extensions>
      </trkpt>
      <trkpt lat="46.07414" lon="6.23993">
        <ele>931.4</ele>
        <time>2021-03-02T12:53:52Z</time>
        <extensions>
          <gpxtpx:TrackPointExtension xmlns:gpxtpx="http://www.garmin.com/xmlschemas/TrackPointExtension/v1">
            <gpxtpx:hr>145</gpxtpx:hr>
          </gpxtpx:TrackPointExtension>
        </extensions>
      </trkpt>
      <trkpt lat="46.07412" lon="6.23993">
        <ele>931.7</ele>
        <time>2021-03-02T12:53:53Z</time>
        <extensions>
          <gpxtpx:TrackPointExtension xmlns:gpxtpx="http://www.garmin.com/xmlschemas/TrackPointExtension/v1">
            <gpxtpx:hr>145</gpxtpx:hr>
          </gpxtpx:TrackPointExtension>
        </extensions>
      </trkpt>
      <trkpt lat="46.07409" lon="6.23993">
        <ele>932</ele>
        <time>2021-03-02T12:53:54Z</time>
        <extensions>
          <gpxtpx:TrackPointExtension xmlns:gpxtpx="http://www.garmin.com/xmlschemas/TrackPointExtension/v1">
            <gpxtpx:hr>144</gpxtpx:hr>
          </gpxtpx:TrackPointExtension>
        </extensions>
      </trkpt>
      <trkpt lat="46.07407" lon="6.23993">
        <ele>932.2</ele>
        <time>2021-03-02T12:53:55Z</time>
        <extensions>
          <gpxtpx:TrackPointExtension xmlns:gpxtpx="http://www.garmin.com/xmlschemas/TrackPointExtension/v1">
            <gpxtpx:hr>144</gpxtpx:hr>
          </gpxtpx:TrackPointExtension>
        </extensions>
      </trkpt>
      <trkpt lat="46.07405" lon="6.23992">
        <ele>932.5</ele>
        <time>2021-03-02T12:53:56Z</time>
        <extensions>
          <gpxtpx:TrackPointExtension xmlns:gpxtpx="http://www.garmin.com/xmlschemas/TrackPointExtension/v1">
            <gpxtpx:hr>144</gpxtpx:hr>
          </gpxtpx:TrackPointExtension>
        </extensions>
      </trkpt>
      <trkpt lat="46.07402" lon="6.23992">
        <ele>932.8</ele>
        <time>2021-03-02T12:53:57Z</time>
        <extensions>
          <gpxtpx:TrackPointExtension xmlns:gpxtpx="http://www.garmin.com/xmlschemas/TrackPointExtension/v1">
            <gpxtpx:hr>144</gpxtpx:hr>
          </gpxtpx:TrackPointExtension>
        </extensions>
      </trkpt>
      <trkpt lat="46.074" lon="6.23992">
        <ele>933.1</ele>
        <time>2021-03-02T12:53:58Z</time>
        <extensions>
          <gpxtpx:TrackPointExtension xmlns:gpxtpx="http://www.garmin.com/xmlschemas/TrackPointExtension/v1">
            <gpxtpx:hr>144</gpxtpx:hr>
          </gpxtpx:TrackPointExtension>
        </extensions>
      </trkpt>
      <trkpt lat="46.07397" lon="6.23991">
        <ele>933.3</ele>
        <time>2021-03-02T12:53:59Z</time>
        <extensions>
          <gpxtpx:TrackPointExtension xmlns:gpxtpx="http://www.garmin.com/xmlschemas/TrackPointExtension/v1">
            <gpxtpx:hr>144</gpxtpx:hr>
          </gpxtpx:TrackPointExtension>
        </extensions>
      </trkpt>
      <trkpt lat="46.07395" lon="6.23991">
        <ele>933.6</ele>
        <time>2021-03-02T12:54:00Z</time>
        <extensions>
          <gpxtpx:TrackPointExtension xmlns:gpxtpx="http://www.garmin.com/xmlschemas/TrackPointExtension/v1">
            <gpxtpx:hr>145</gpxtpx:hr>
          </gpxtpx:TrackPointExtension>
        </extensions>
      </trkpt>
      <trkpt lat="46.07392" lon="6.23991">
        <ele>933.9</ele>
        <time>2021-03-02T12:54:01Z</time>
        <extensions>
          <gpxtpx:TrackPointExtension xmlns:gpxtpx="http://www.garmin.com/xmlschemas/TrackPointExtension/v1">
            <gpxtpx:hr>145</gpxtpx:hr>
          </gpxtpx:TrackPointExtension>
        </extensions>
      </trkpt>
      <trkpt lat="46.0739" lon="6.23991">
        <ele>934.1</ele>
        <time>2021-03-02T12:54:02Z</time>
        <extensions>
          <gpxtpx:TrackPointExtension xmlns:gpxtpx="http://www.garmin.com/xmlschemas/TrackPointExtension/v1">
            <gpxtpx:hr>145</gpxtpx:hr>
          </gpxtpx:TrackPointExtension>
        </extensions>
      </trkpt>
      <trkpt lat="46.07388" lon="6.23991">
        <ele>934.4</ele>
        <time>2021-03-02T12:54:03Z</time>
        <extensions>
          <gpxtpx:TrackPointExtension xmlns:gpxtpx="http://www.garmin.com/xmlschemas/TrackPointExtension/v1">
            <gpxtpx:hr>145</gpxtpx:hr>
          </gpxtpx:TrackPointExtension>
        </extensions>
      </trkpt>
      <trkpt lat="46.07385" lon="6.23991">
        <ele>934.6</ele>
        <time>2021-03-02T12:54:04Z</time>
        <extensions>
          <gpxtpx:TrackPointExtension xmlns:gpxtpx="http://www.garmin.com/xmlschemas/TrackPointExtension/v1">
            <gpxtpx:hr>145</gpxtpx:hr>
          </gpxtpx:TrackPointExtension>
        </extensions>
      </trkpt>
      <trkpt lat="46.07383" lon="6.23992">
        <ele>934.9</ele>
        <time>2021-03-02T12:54:05Z</time>
        <extensions>
          <gpxtpx:TrackPointExtension xmlns:gpxtpx="http://www.garmin.com/xmlschemas/TrackPointExtension/v1">
            <gpxtpx:hr>145</gpxtpx:hr>
          </gpxtpx:TrackPointExtension>
        </extensions>
      </trkpt>
      <trkpt lat="46.07381" lon="6.23992">
        <ele>935.1</ele>
        <time>2021-03-02T12:54:06Z</time>
        <extensions>
          <gpxtpx:TrackPointExtension xmlns:gpxtpx="http://www.garmin.com/xmlschemas/TrackPointExtension/v1">
            <gpxtpx:hr>146</gpxtpx:hr>
          </gpxtpx:TrackPointExtension>
        </extensions>
      </trkpt>
      <trkpt lat="46.07378" lon="6.23992">
        <ele>935.4</ele>
        <time>2021-03-02T12:54:07Z</time>
        <extensions>
          <gpxtpx:TrackPointExtension xmlns:gpxtpx="http://www.garmin.com/xmlschemas/TrackPointExtension/v1">
            <gpxtpx:hr>146</gpxtpx:hr>
          </gpxtpx:TrackPointExtension>
        </extensions>
      </trkpt>
      <trkpt lat="46.07376" lon="6.23992">
        <ele>935.6</ele>
        <time>2021-03-02T12:54:08Z</time>
        <extensions>
          <gpxtpx:TrackPointExtension xmlns:gpxtpx="http://www.garmin.com/xmlschemas/TrackPointExtension/v1">
            <gpxtpx:hr>147</gpxtpx:hr>
          </gpxtpx:TrackPointExtension>
        </extensions>
      </trkpt>
      <trkpt lat="46.07373" lon="6.23992">
        <ele>935.9</ele>
        <time>2021-03-02T12:54:09Z</time>
        <extensions>
          <gpxtpx:TrackPointExtension xmlns:gpxtpx="http://www.garmin.com/xmlschemas/TrackPointExtension/v1">
            <gpxtpx:hr>147</gpxtpx:hr>
          </gpxtpx:TrackPointExtension>
        </extensions>
      </trkpt>
      <trkpt lat="46.07371" lon="6.23992">
        <ele>936.1</ele>
        <time>2021-03-02T12:54:10Z</time>
        <extensions>
          <gpxtpx:TrackPointExtension xmlns:gpxtpx="http://www.garmin.com/xmlschemas/TrackPointExtension/v1">
            <gpxtpx:hr>148</gpxtpx:hr>
          </gpxtpx:TrackPointExtension>
        </extensions>
      </trkpt>
      <trkpt lat="46.07368" lon="6.23993">
        <ele>936.4</ele>
        <time>2021-03-02T12:54:11Z</time>
        <extensions>
          <gpxtpx:TrackPointExtension xmlns:gpxtpx="http://www.garmin.com/xmlschemas/TrackPointExtension/v1">
            <gpxtpx:hr>148</gpxtpx:hr>
          </gpxtpx:TrackPointExtension>
        </extensions>
      </trkpt>
      <trkpt lat="46.07366" lon="6.23993">
        <ele>936.7</ele>
        <time>2021-03-02T12:54:12Z</time>
        <extensions>
          <gpxtpx:TrackPointExtension xmlns:gpxtpx="http://www.garmin.com/xmlschemas/TrackPointExtension/v1">
            <gpxtpx:hr>149</gpxtpx:hr>
          </gpxtpx:TrackPointExtension>
        </extensions>
      </trkpt>
      <trkpt lat="46.07364" lon="6.23993">
        <ele>936.9</ele>
        <time>2021-03-02T12:54:13Z</time>
        <extensions>
          <gpxtpx:TrackPointExtension xmlns:gpxtpx="http://www.garmin.com/xmlschemas/TrackPointExtension/v1">
            <gpxtpx:hr>149</gpxtpx:hr>
          </gpxtpx:TrackPointExtension>
        </extensions>
      </trkpt>
      <trkpt lat="46.07361" lon="6.23994">
        <ele>937.2</ele>
        <time>2021-03-02T12:54:14Z</time>
        <extensions>
          <gpxtpx:TrackPointExtension xmlns:gpxtpx="http://www.garmin.com/xmlschemas/TrackPointExtension/v1">
            <gpxtpx:hr>150</gpxtpx:hr>
          </gpxtpx:TrackPointExtension>
        </extensions>
      </trkpt>
      <trkpt lat="46.07359" lon="6.23994">
        <ele>937.5</ele>
        <time>2021-03-02T12:54:15Z</time>
        <extensions>
          <gpxtpx:TrackPointExtension xmlns:gpxtpx="http://www.garmin.com/xmlschemas/TrackPointExtension/v1">
            <gpxtpx:hr>150</gpxtpx:hr>
          </gpxtpx:TrackPointExtension>
        </extensions>
      </trkpt>
      <trkpt lat="46.07356" lon="6.23995">
        <ele>937.7</ele>
        <time>2021-03-02T12:54:16Z</time>
        <extensions>
          <gpxtpx:TrackPointExtension xmlns:gpxtpx="http://www.garmin.com/xmlschemas/TrackPointExtension/v1">
            <gpxtpx:hr>151</gpxtpx:hr>
          </gpxtpx:TrackPointExtension>
        </extensions>
      </trkpt>
      <trkpt lat="46.07354" lon="6.23995">
        <ele>938</ele>
        <time>2021-03-02T12:54:17Z</time>
        <extensions>
          <gpxtpx:TrackPointExtension xmlns:gpxtpx="http://www.garmin.com/xmlschemas/TrackPointExtension/v1">
            <gpxtpx:hr>151</gpxtpx:hr>
          </gpxtpx:TrackPointExtension>
        </extensions>
      </trkpt>
      <trkpt lat="46.07351" lon="6.23996">
        <ele>938.2</ele>
        <time>2021-03-02T12:54:18Z</time>
        <extensions>
          <gpxtpx:TrackPointExtension xmlns:gpxtpx="http://www.garmin.com/xmlschemas/TrackPointExtension/v1">
            <gpxtpx:hr>152</gpxtpx:hr>
          </gpxtpx:TrackPointExtension>
        </extensions>
      </trkpt>
      <trkpt lat="46.07349" lon="6.23998">
        <ele>938.5</ele>
        <time>2021-03-02T12:54:19Z</time>
        <extensions>
          <gpxtpx:TrackPointExtension xmlns:gpxtpx="http://www.garmin.com/xmlschemas/TrackPointExtension/v1">
            <gpxtpx:hr>152</gpxtpx:hr>
          </gpxtpx:TrackPointExtension>
        </extensions>
      </trkpt>
      <trkpt lat="46.07346" lon="6.24">
        <ele>938.7</ele>
        <time>2021-03-02T12:54:20Z</time>
        <extensions>
          <gpxtpx:TrackPointExtension xmlns:gpxtpx="http://www.garmin.com/xmlschemas/TrackPointExtension/v1">
            <gpxtpx:hr>152</gpxtpx:hr>
          </gpxtpx:TrackPointExtension>
        </extensions>
      </trkpt>
      <trkpt lat="46.07344" lon="6.24001">
        <ele>939</ele>
        <time>2021-03-02T12:54:21Z</time>
        <extensions>
          <gpxtpx:TrackPointExtension xmlns:gpxtpx="http://www.garmin.com/xmlschemas/TrackPointExtension/v1">
            <gpxtpx:hr>152</gpxtpx:hr>
          </gpxtpx:TrackPointExtension>
        </extensions>
      </trkpt>
      <trkpt lat="46.07341" lon="6.24003">
        <ele>939.3</ele>
        <time>2021-03-02T12:54:22Z</time>
        <extensions>
          <gpxtpx:TrackPointExtension xmlns:gpxtpx="http://www.garmin.com/xmlschemas/TrackPointExtension/v1">
            <gpxtpx:hr>152</gpxtpx:hr>
          </gpxtpx:TrackPointExtension>
        </extensions>
      </trkpt>
      <trkpt lat="46.07339" lon="6.24006">
        <ele>939.5</ele>
        <time>2021-03-02T12:54:23Z</time>
        <extensions>
          <gpxtpx:TrackPointExtension xmlns:gpxtpx="http://www.garmin.com/xmlschemas/TrackPointExtension/v1">
            <gpxtpx:hr>152</gpxtpx:hr>
          </gpxtpx:TrackPointExtension>
        </extensions>
      </trkpt>
      <trkpt lat="46.07336" lon="6.24008">
        <ele>939.8</ele>
        <time>2021-03-02T12:54:24Z</time>
        <extensions>
          <gpxtpx:TrackPointExtension xmlns:gpxtpx="http://www.garmin.com/xmlschemas/TrackPointExtension/v1">
            <gpxtpx:hr>152</gpxtpx:hr>
          </gpxtpx:TrackPointExtension>
        </extensions>
      </trkpt>
      <trkpt lat="46.07334" lon="6.2401">
        <ele>940</ele>
        <time>2021-03-02T12:54:25Z</time>
        <extensions>
          <gpxtpx:TrackPointExtension xmlns:gpxtpx="http://www.garmin.com/xmlschemas/TrackPointExtension/v1">
            <gpxtpx:hr>151</gpxtpx:hr>
          </gpxtpx:TrackPointExtension>
        </extensions>
      </trkpt>
      <trkpt lat="46.07332" lon="6.24012">
        <ele>940.3</ele>
        <time>2021-03-02T12:54:26Z</time>
        <extensions>
          <gpxtpx:TrackPointExtension xmlns:gpxtpx="http://www.garmin.com/xmlschemas/TrackPointExtension/v1">
            <gpxtpx:hr>151</gpxtpx:hr>
          </gpxtpx:TrackPointExtension>
        </extensions>
      </trkpt>
      <trkpt lat="46.07329" lon="6.24013">
        <ele>940.5</ele>
        <time>2021-03-02T12:54:27Z</time>
        <extensions>
          <gpxtpx:TrackPointExtension xmlns:gpxtpx="http://www.garmin.com/xmlschemas/TrackPointExtension/v1">
            <gpxtpx:hr>151</gpxtpx:hr>
          </gpxtpx:TrackPointExtension>
        </extensions>
      </trkpt>
      <trkpt lat="46.07327" lon="6.24015">
        <ele>940.6</ele>
        <time>2021-03-02T12:54:28Z</time>
        <extensions>
          <gpxtpx:TrackPointExtension xmlns:gpxtpx="http://www.garmin.com/xmlschemas/TrackPointExtension/v1">
            <gpxtpx:hr>151</gpxtpx:hr>
          </gpxtpx:TrackPointExtension>
        </extensions>
      </trkpt>
      <trkpt lat="46.07324" lon="6.24017">
        <ele>940.6</ele>
        <time>2021-03-02T12:54:29Z</time>
        <extensions>
          <gpxtpx:TrackPointExtension xmlns:gpxtpx="http://www.garmin.com/xmlschemas/TrackPointExtension/v1">
            <gpxtpx:hr>151</gpxtpx:hr>
          </gpxtpx:TrackPointExtension>
        </extensions>
      </trkpt>
      <trkpt lat="46.07322" lon="6.24019">
        <ele>940.7</ele>
        <time>2021-03-02T12:54:30Z</time>
        <extensions>
          <gpxtpx:TrackPointExtension xmlns:gpxtpx="http://www.garmin.com/xmlschemas/TrackPointExtension/v1">
            <gpxtpx:hr>151</gpxtpx:hr>
          </gpxtpx:TrackPointExtension>
        </extensions>
      </trkpt>
      <trkpt lat="46.0732" lon="6.2402">
        <ele>940.7</ele>
        <time>2021-03-02T12:54:31Z</time>
        <extensions>
          <gpxtpx:TrackPointExtension xmlns:gpxtpx="http://www.garmin.com/xmlschemas/TrackPointExtension/v1">
            <gpxtpx:hr>150</gpxtpx:hr>
          </gpxtpx:TrackPointExtension>
        </extensions>
      </trkpt>
      <trkpt lat="46.07318" lon="6.24022">
        <ele>940.8</ele>
        <time>2021-03-02T12:54:32Z</time>
        <extensions>
          <gpxtpx:TrackPointExtension xmlns:gpxtpx="http://www.garmin.com/xmlschemas/TrackPointExtension/v1">
            <gpxtpx:hr>150</gpxtpx:hr>
          </gpxtpx:TrackPointExtension>
        </extensions>
      </trkpt>
      <trkpt lat="46.07315" lon="6.24023">
        <ele>940.8</ele>
        <time>2021-03-02T12:54:33Z</time>
        <extensions>
          <gpxtpx:TrackPointExtension xmlns:gpxtpx="http://www.garmin.com/xmlschemas/TrackPointExtension/v1">
            <gpxtpx:hr>150</gpxtpx:hr>
          </gpxtpx:TrackPointExtension>
        </extensions>
      </trkpt>
      <trkpt lat="46.07313" lon="6.24025">
        <ele>940.9</ele>
        <time>2021-03-02T12:54:34Z</time>
        <extensions>
          <gpxtpx:TrackPointExtension xmlns:gpxtpx="http://www.garmin.com/xmlschemas/TrackPointExtension/v1">
            <gpxtpx:hr>150</gpxtpx:hr>
          </gpxtpx:TrackPointExtension>
        </extensions>
      </trkpt>
      <trkpt lat="46.07312" lon="6.24028">
        <ele>940.9</ele>
        <time>2021-03-02T12:54:35Z</time>
        <extensions>
          <gpxtpx:TrackPointExtension xmlns:gpxtpx="http://www.garmin.com/xmlschemas/TrackPointExtension/v1">
            <gpxtpx:hr>150</gpxtpx:hr>
          </gpxtpx:TrackPointExtension>
        </extensions>
      </trkpt>
      <trkpt lat="46.07311" lon="6.24031">
        <ele>941</ele>
        <time>2021-03-02T12:54:36Z</time>
        <extensions>
          <gpxtpx:TrackPointExtension xmlns:gpxtpx="http://www.garmin.com/xmlschemas/TrackPointExtension/v1">
            <gpxtpx:hr>150</gpxtpx:hr>
          </gpxtpx:TrackPointExtension>
        </extensions>
      </trkpt>
      <trkpt lat="46.0731" lon="6.24034">
        <ele>941</ele>
        <time>2021-03-02T12:54:37Z</time>
        <extensions>
          <gpxtpx:TrackPointExtension xmlns:gpxtpx="http://www.garmin.com/xmlschemas/TrackPointExtension/v1">
            <gpxtpx:hr>150</gpxtpx:hr>
          </gpxtpx:TrackPointExtension>
        </extensions>
      </trkpt>
      <trkpt lat="46.07309" lon="6.24036">
        <ele>941.1</ele>
        <time>2021-03-02T12:54:38Z</time>
        <extensions>
          <gpxtpx:TrackPointExtension xmlns:gpxtpx="http://www.garmin.com/xmlschemas/TrackPointExtension/v1">
            <gpxtpx:hr>150</gpxtpx:hr>
          </gpxtpx:TrackPointExtension>
        </extensions>
      </trkpt>
      <trkpt lat="46.07308" lon="6.24038">
        <ele>941.1</ele>
        <time>2021-03-02T12:54:39Z</time>
        <extensions>
          <gpxtpx:TrackPointExtension xmlns:gpxtpx="http://www.garmin.com/xmlschemas/TrackPointExtension/v1">
            <gpxtpx:hr>150</gpxtpx:hr>
          </gpxtpx:TrackPointExtension>
        </extensions>
      </trkpt>
      <trkpt lat="46.07308" lon="6.24039">
        <ele>941.1</ele>
        <time>2021-03-02T12:54:40Z</time>
        <extensions>
          <gpxtpx:TrackPointExtension xmlns:gpxtpx="http://www.garmin.com/xmlschemas/TrackPointExtension/v1">
            <gpxtpx:hr>150</gpxtpx:hr>
          </gpxtpx:TrackPointExtension>
        </extensions>
      </trkpt>
      <trkpt lat="46.07308" lon="6.24039">
        <ele>941.1</ele>
        <time>2021-03-02T12:54:41Z</time>
        <extensions>
          <gpxtpx:TrackPointExtension xmlns:gpxtpx="http://www.garmin.com/xmlschemas/TrackPointExtension/v1">
            <gpxtpx:hr>150</gpxtpx:hr>
          </gpxtpx:TrackPointExtension>
        </extensions>
      </trkpt>
      <trkpt lat="46.07307" lon="6.24039">
        <ele>941.1</ele>
        <time>2021-03-02T12:54:42Z</time>
        <extensions>
          <gpxtpx:TrackPointExtension xmlns:gpxtpx="http://www.garmin.com/xmlschemas/TrackPointExtension/v1">
            <gpxtpx:hr>150</gpxtpx:hr>
          </gpxtpx:TrackPointExtension>
        </extensions>
      </trkpt>
      <trkpt lat="46.07307" lon="6.24039">
        <ele>941.1</ele>
        <time>2021-03-02T12:54:43Z</time>
        <extensions>
          <gpxtpx:TrackPointExtension xmlns:gpxtpx="http://www.garmin.com/xmlschemas/TrackPointExtension/v1">
            <gpxtpx:hr>150</gpxtpx:hr>
          </gpxtpx:TrackPointExtension>
        </extensions>
      </trkpt>
      <trkpt lat="46.07307" lon="6.24039">
        <ele>941.1</ele>
        <time>2021-03-02T12:54:44Z</time>
        <extensions>
          <gpxtpx:TrackPointExtension xmlns:gpxtpx="http://www.garmin.com/xmlschemas/TrackPointExtension/v1">
            <gpxtpx:hr>141</gpxtpx:hr>
          </gpxtpx:TrackPointExtension>
        </extensions>
      </trkpt>
      <trkpt lat="46.07308" lon="6.24036">
        <ele>941.1</ele>
        <time>2021-03-02T12:55:02Z</time>
        <extensions>
          <gpxtpx:TrackPointExtension xmlns:gpxtpx="http://www.garmin.com/xmlschemas/TrackPointExtension/v1">
            <gpxtpx:hr>141</gpxtpx:hr>
          </gpxtpx:TrackPointExtension>
        </extensions>
      </trkpt>
      <trkpt lat="46.07309" lon="6.24036">
        <ele>941.2</ele>
        <time>2021-03-02T12:55:03Z</time>
        <extensions>
          <gpxtpx:TrackPointExtension xmlns:gpxtpx="http://www.garmin.com/xmlschemas/TrackPointExtension/v1">
            <gpxtpx:hr>140</gpxtpx:hr>
          </gpxtpx:TrackPointExtension>
        </extensions>
      </trkpt>
      <trkpt lat="46.0731" lon="6.24036">
        <ele>941.2</ele>
        <time>2021-03-02T12:55:04Z</time>
        <extensions>
          <gpxtpx:TrackPointExtension xmlns:gpxtpx="http://www.garmin.com/xmlschemas/TrackPointExtension/v1">
            <gpxtpx:hr>140</gpxtpx:hr>
          </gpxtpx:TrackPointExtension>
        </extensions>
      </trkpt>
      <trkpt lat="46.07311" lon="6.24036">
        <ele>941.2</ele>
        <time>2021-03-02T12:55:05Z</time>
        <extensions>
          <gpxtpx:TrackPointExtension xmlns:gpxtpx="http://www.garmin.com/xmlschemas/TrackPointExtension/v1">
            <gpxtpx:hr>140</gpxtpx:hr>
          </gpxtpx:TrackPointExtension>
        </extensions>
      </trkpt>
      <trkpt lat="46.07311" lon="6.24037">
        <ele>941.2</ele>
        <time>2021-03-02T12:55:06Z</time>
        <extensions>
          <gpxtpx:TrackPointExtension xmlns:gpxtpx="http://www.garmin.com/xmlschemas/TrackPointExtension/v1">
            <gpxtpx:hr>139</gpxtpx:hr>
          </gpxtpx:TrackPointExtension>
        </extensions>
      </trkpt>
      <trkpt lat="46.07311" lon="6.24037">
        <ele>941.2</ele>
        <time>2021-03-02T12:55:07Z</time>
        <extensions>
          <gpxtpx:TrackPointExtension xmlns:gpxtpx="http://www.garmin.com/xmlschemas/TrackPointExtension/v1">
            <gpxtpx:hr>138</gpxtpx:hr>
          </gpxtpx:TrackPointExtension>
        </extensions>
      </trkpt>
      <trkpt lat="46.07311" lon="6.24037">
        <ele>941.2</ele>
        <time>2021-03-02T12:55:08Z</time>
        <extensions>
          <gpxtpx:TrackPointExtension xmlns:gpxtpx="http://www.garmin.com/xmlschemas/TrackPointExtension/v1">
            <gpxtpx:hr>138</gpxtpx:hr>
          </gpxtpx:TrackPointExtension>
        </extensions>
      </trkpt>
      <trkpt lat="46.07311" lon="6.24037">
        <ele>941.2</ele>
        <time>2021-03-02T12:55:09Z</time>
        <extensions>
          <gpxtpx:TrackPointExtension xmlns:gpxtpx="http://www.garmin.com/xmlschemas/TrackPointExtension/v1">
            <gpxtpx:hr>122</gpxtpx:hr>
          </gpxtpx:TrackPointExtension>
        </extensions>
      </trkpt>
      <trkpt lat="46.0731" lon="6.24037">
        <ele>941.2</ele>
        <time>2021-03-02T12:55:33Z</time>
        <extensions>
          <gpxtpx:TrackPointExtension xmlns:gpxtpx="http://www.garmin.com/xmlschemas/TrackPointExtension/v1">
            <gpxtpx:hr>122</gpxtpx:hr>
          </gpxtpx:TrackPointExtension>
        </extensions>
      </trkpt>
      <trkpt lat="46.07309" lon="6.24037">
        <ele>941.2</ele>
        <time>2021-03-02T12:55:34Z</time>
        <extensions>
          <gpxtpx:TrackPointExtension xmlns:gpxtpx="http://www.garmin.com/xmlschemas/TrackPointExtension/v1">
            <gpxtpx:hr>121</gpxtpx:hr>
          </gpxtpx:TrackPointExtension>
        </extensions>
      </trkpt>
      <trkpt lat="46.07309" lon="6.24037">
        <ele>941.2</ele>
        <time>2021-03-02T12:55:35Z</time>
        <extensions>
          <gpxtpx:TrackPointExtension xmlns:gpxtpx="http://www.garmin.com/xmlschemas/TrackPointExtension/v1">
            <gpxtpx:hr>120</gpxtpx:hr>
          </gpxtpx:TrackPointExtension>
        </extensions>
      </trkpt>
      <trkpt lat="46.07309" lon="6.24037">
        <ele>941.2</ele>
        <time>2021-03-02T12:55:36Z</time>
        <extensions>
          <gpxtpx:TrackPointExtension xmlns:gpxtpx="http://www.garmin.com/xmlschemas/TrackPointExtension/v1">
            <gpxtpx:hr>118</gpxtpx:hr>
          </gpxtpx:TrackPointExtension>
        </extensions>
      </trkpt>
      <trkpt lat="46.07309" lon="6.24037">
        <ele>941.2</ele>
        <time>2021-03-02T12:55:37Z</time>
        <extensions>
          <gpxtpx:TrackPointExtension xmlns:gpxtpx="http://www.garmin.com/xmlschemas/TrackPointExtension/v1">
            <gpxtpx:hr>117</gpxtpx:hr>
          </gpxtpx:TrackPointExtension>
        </extensions>
      </trkpt>
      <trkpt lat="46.07309" lon="6.24037">
        <ele>941.2</ele>
        <time>2021-03-02T12:55:38Z</time>
        <extensions>
          <gpxtpx:TrackPointExtension xmlns:gpxtpx="http://www.garmin.com/xmlschemas/TrackPointExtension/v1">
            <gpxtpx:hr>117</gpxtpx:hr>
          </gpxtpx:TrackPointExtension>
        </extensions>
      </trkpt>
      <trkpt lat="46.07309" lon="6.24037">
        <ele>941.2</ele>
        <time>2021-03-02T12:55:39Z</time>
        <extensions>
          <gpxtpx:TrackPointExtension xmlns:gpxtpx="http://www.garmin.com/xmlschemas/TrackPointExtension/v1">
            <gpxtpx:hr>116</gpxtpx:hr>
          </gpxtpx:TrackPointExtension>
        </extensions>
      </trkpt>
      <trkpt lat="46.07309" lon="6.24035">
        <ele>941.3</ele>
        <time>2021-03-02T12:55:44Z</time>
        <extensions>
          <gpxtpx:TrackPointExtension xmlns:gpxtpx="http://www.garmin.com/xmlschemas/TrackPointExtension/v1">
            <gpxtpx:hr>115</gpxtpx:hr>
          </gpxtpx:TrackPointExtension>
        </extensions>
      </trkpt>
      <trkpt lat="46.07309" lon="6.24035">
        <ele>941.3</ele>
        <time>2021-03-02T12:55:45Z</time>
        <extensions>
          <gpxtpx:TrackPointExtension xmlns:gpxtpx="http://www.garmin.com/xmlschemas/TrackPointExtension/v1">
            <gpxtpx:hr>114</gpxtpx:hr>
          </gpxtpx:TrackPointExtension>
        </extensions>
      </trkpt>
      <trkpt lat="46.07306" lon="6.24036">
        <ele>941.3</ele>
        <time>2021-03-02T12:55:48Z</time>
        <extensions>
          <gpxtpx:TrackPointExtension xmlns:gpxtpx="http://www.garmin.com/xmlschemas/TrackPointExtension/v1">
            <gpxtpx:hr>115</gpxtpx:hr>
          </gpxtpx:TrackPointExtension>
        </extensions>
      </trkpt>
      <trkpt lat="46.07306" lon="6.24036">
        <ele>941.3</ele>
        <time>2021-03-02T12:55:49Z</time>
        <extensions>
          <gpxtpx:TrackPointExtension xmlns:gpxtpx="http://www.garmin.com/xmlschemas/TrackPointExtension/v1">
            <gpxtpx:hr>115</gpxtpx:hr>
          </gpxtpx:TrackPointExtension>
        </extensions>
      </trkpt>
      <trkpt lat="46.07306" lon="6.24036">
        <ele>941.3</ele>
        <time>2021-03-02T12:55:50Z</time>
        <extensions>
          <gpxtpx:TrackPointExtension xmlns:gpxtpx="http://www.garmin.com/xmlschemas/TrackPointExtension/v1">
            <gpxtpx:hr>116</gpxtpx:hr>
          </gpxtpx:TrackPointExtension>
        </extensions>
      </trkpt>
      <trkpt lat="46.07306" lon="6.24036">
        <ele>941.3</ele>
        <time>2021-03-02T12:55:51Z</time>
        <extensions>
          <gpxtpx:TrackPointExtension xmlns:gpxtpx="http://www.garmin.com/xmlschemas/TrackPointExtension/v1">
            <gpxtpx:hr>111</gpxtpx:hr>
          </gpxtpx:TrackPointExtension>
        </extensions>
      </trkpt>
      <trkpt lat="46.07308" lon="6.24034">
        <ele>941.3</ele>
        <time>2021-03-02T12:56:09Z</time>
        <extensions>
          <gpxtpx:TrackPointExtension xmlns:gpxtpx="http://www.garmin.com/xmlschemas/TrackPointExtension/v1">
            <gpxtpx:hr>110</gpxtpx:hr>
          </gpxtpx:TrackPointExtension>
        </extensions>
      </trkpt>
      <trkpt lat="46.07308" lon="6.24033">
        <ele>941.4</ele>
        <time>2021-03-02T12:56:10Z</time>
        <extensions>
          <gpxtpx:TrackPointExtension xmlns:gpxtpx="http://www.garmin.com/xmlschemas/TrackPointExtension/v1">
            <gpxtpx:hr>109</gpxtpx:hr>
          </gpxtpx:TrackPointExtension>
        </extensions>
      </trkpt>
      <trkpt lat="46.07309" lon="6.24031">
        <ele>941.4</ele>
        <time>2021-03-02T12:56:11Z</time>
        <extensions>
          <gpxtpx:TrackPointExtension xmlns:gpxtpx="http://www.garmin.com/xmlschemas/TrackPointExtension/v1">
            <gpxtpx:hr>109</gpxtpx:hr>
          </gpxtpx:TrackPointExtension>
        </extensions>
      </trkpt>
      <trkpt lat="46.0731" lon="6.24029">
        <ele>941.4</ele>
        <time>2021-03-02T12:56:12Z</time>
        <extensions>
          <gpxtpx:TrackPointExtension xmlns:gpxtpx="http://www.garmin.com/xmlschemas/TrackPointExtension/v1">
            <gpxtpx:hr>109</gpxtpx:hr>
          </gpxtpx:TrackPointExtension>
        </extensions>
      </trkpt>
      <trkpt lat="46.0731" lon="6.24026">
        <ele>941.5</ele>
        <time>2021-03-02T12:56:13Z</time>
        <extensions>
          <gpxtpx:TrackPointExtension xmlns:gpxtpx="http://www.garmin.com/xmlschemas/TrackPointExtension/v1">
            <gpxtpx:hr>110</gpxtpx:hr>
          </gpxtpx:TrackPointExtension>
        </extensions>
      </trkpt>
      <trkpt lat="46.07311" lon="6.24024">
        <ele>941.5</ele>
        <time>2021-03-02T12:56:14Z</time>
        <extensions>
          <gpxtpx:TrackPointExtension xmlns:gpxtpx="http://www.garmin.com/xmlschemas/TrackPointExtension/v1">
            <gpxtpx:hr>110</gpxtpx:hr>
          </gpxtpx:TrackPointExtension>
        </extensions>
      </trkpt>
      <trkpt lat="46.0731" lon="6.24021">
        <ele>941.5</ele>
        <time>2021-03-02T12:56:15Z</time>
        <extensions>
          <gpxtpx:TrackPointExtension xmlns:gpxtpx="http://www.garmin.com/xmlschemas/TrackPointExtension/v1">
            <gpxtpx:hr>111</gpxtpx:hr>
          </gpxtpx:TrackPointExtension>
        </extensions>
      </trkpt>
      <trkpt lat="46.07308" lon="6.24019">
        <ele>941.6</ele>
        <time>2021-03-02T12:56:16Z</time>
        <extensions>
          <gpxtpx:TrackPointExtension xmlns:gpxtpx="http://www.garmin.com/xmlschemas/TrackPointExtension/v1">
            <gpxtpx:hr>111</gpxtpx:hr>
          </gpxtpx:TrackPointExtension>
        </extensions>
      </trkpt>
      <trkpt lat="46.07306" lon="6.24018">
        <ele>941.6</ele>
        <time>2021-03-02T12:56:17Z</time>
        <extensions>
          <gpxtpx:TrackPointExtension xmlns:gpxtpx="http://www.garmin.com/xmlschemas/TrackPointExtension/v1">
            <gpxtpx:hr>111</gpxtpx:hr>
          </gpxtpx:TrackPointExtension>
        </extensions>
      </trkpt>
      <trkpt lat="46.07304" lon="6.24018">
        <ele>941.7</ele>
        <time>2021-03-02T12:56:18Z</time>
        <extensions>
          <gpxtpx:TrackPointExtension xmlns:gpxtpx="http://www.garmin.com/xmlschemas/TrackPointExtension/v1">
            <gpxtpx:hr>111</gpxtpx:hr>
          </gpxtpx:TrackPointExtension>
        </extensions>
      </trkpt>
      <trkpt lat="46.07302" lon="6.24017">
        <ele>941.7</ele>
        <time>2021-03-02T12:56:19Z</time>
        <extensions>
          <gpxtpx:TrackPointExtension xmlns:gpxtpx="http://www.garmin.com/xmlschemas/TrackPointExtension/v1">
            <gpxtpx:hr>111</gpxtpx:hr>
          </gpxtpx:TrackPointExtension>
        </extensions>
      </trkpt>
      <trkpt lat="46.073" lon="6.24017">
        <ele>941.7</ele>
        <time>2021-03-02T12:56:20Z</time>
        <extensions>
          <gpxtpx:TrackPointExtension xmlns:gpxtpx="http://www.garmin.com/xmlschemas/TrackPointExtension/v1">
            <gpxtpx:hr>111</gpxtpx:hr>
          </gpxtpx:TrackPointExtension>
        </extensions>
      </trkpt>
      <trkpt lat="46.07297" lon="6.24017">
        <ele>941.8</ele>
        <time>2021-03-02T12:56:21Z</time>
        <extensions>
          <gpxtpx:TrackPointExtension xmlns:gpxtpx="http://www.garmin.com/xmlschemas/TrackPointExtension/v1">
            <gpxtpx:hr>112</gpxtpx:hr>
          </gpxtpx:TrackPointExtension>
        </extensions>
      </trkpt>
      <trkpt lat="46.07295" lon="6.24017">
        <ele>941.8</ele>
        <time>2021-03-02T12:56:22Z</time>
        <extensions>
          <gpxtpx:TrackPointExtension xmlns:gpxtpx="http://www.garmin.com/xmlschemas/TrackPointExtension/v1">
            <gpxtpx:hr>112</gpxtpx:hr>
          </gpxtpx:TrackPointExtension>
        </extensions>
      </trkpt>
      <trkpt lat="46.07293" lon="6.24016">
        <ele>941.8</ele>
        <time>2021-03-02T12:56:23Z</time>
        <extensions>
          <gpxtpx:TrackPointExtension xmlns:gpxtpx="http://www.garmin.com/xmlschemas/TrackPointExtension/v1">
            <gpxtpx:hr>112</gpxtpx:hr>
          </gpxtpx:TrackPointExtension>
        </extensions>
      </trkpt>
      <trkpt lat="46.0729" lon="6.24016">
        <ele>941.9</ele>
        <time>2021-03-02T12:56:24Z</time>
        <extensions>
          <gpxtpx:TrackPointExtension xmlns:gpxtpx="http://www.garmin.com/xmlschemas/TrackPointExtension/v1">
            <gpxtpx:hr>112</gpxtpx:hr>
          </gpxtpx:TrackPointExtension>
        </extensions>
      </trkpt>
      <trkpt lat="46.07287" lon="6.24016">
        <ele>941.9</ele>
        <time>2021-03-02T12:56:25Z</time>
        <extensions>
          <gpxtpx:TrackPointExtension xmlns:gpxtpx="http://www.garmin.com/xmlschemas/TrackPointExtension/v1">
            <gpxtpx:hr>113</gpxtpx:hr>
          </gpxtpx:TrackPointExtension>
        </extensions>
      </trkpt>
      <trkpt lat="46.07283" lon="6.24016">
        <ele>942</ele>
        <time>2021-03-02T12:56:26Z</time>
        <extensions>
          <gpxtpx:TrackPointExtension xmlns:gpxtpx="http://www.garmin.com/xmlschemas/TrackPointExtension/v1">
            <gpxtpx:hr>112</gpxtpx:hr>
          </gpxtpx:TrackPointExtension>
        </extensions>
      </trkpt>
      <trkpt lat="46.0728" lon="6.24015">
        <ele>942</ele>
        <time>2021-03-02T12:56:27Z</time>
        <extensions>
          <gpxtpx:TrackPointExtension xmlns:gpxtpx="http://www.garmin.com/xmlschemas/TrackPointExtension/v1">
            <gpxtpx:hr>112</gpxtpx:hr>
          </gpxtpx:TrackPointExtension>
        </extensions>
      </trkpt>
      <trkpt lat="46.07277" lon="6.24015">
        <ele>942</ele>
        <time>2021-03-02T12:56:28Z</time>
        <extensions>
          <gpxtpx:TrackPointExtension xmlns:gpxtpx="http://www.garmin.com/xmlschemas/TrackPointExtension/v1">
            <gpxtpx:hr>112</gpxtpx:hr>
          </gpxtpx:TrackPointExtension>
        </extensions>
      </trkpt>
      <trkpt lat="46.07273" lon="6.24014">
        <ele>942.1</ele>
        <time>2021-03-02T12:56:29Z</time>
        <extensions>
          <gpxtpx:TrackPointExtension xmlns:gpxtpx="http://www.garmin.com/xmlschemas/TrackPointExtension/v1">
            <gpxtpx:hr>113</gpxtpx:hr>
          </gpxtpx:TrackPointExtension>
        </extensions>
      </trkpt>
      <trkpt lat="46.0727" lon="6.24014">
        <ele>942.1</ele>
        <time>2021-03-02T12:56:30Z</time>
        <extensions>
          <gpxtpx:TrackPointExtension xmlns:gpxtpx="http://www.garmin.com/xmlschemas/TrackPointExtension/v1">
            <gpxtpx:hr>113</gpxtpx:hr>
          </gpxtpx:TrackPointExtension>
        </extensions>
      </trkpt>
      <trkpt lat="46.07266" lon="6.24013">
        <ele>942.1</ele>
        <time>2021-03-02T12:56:31Z</time>
        <extensions>
          <gpxtpx:TrackPointExtension xmlns:gpxtpx="http://www.garmin.com/xmlschemas/TrackPointExtension/v1">
            <gpxtpx:hr>112</gpxtpx:hr>
          </gpxtpx:TrackPointExtension>
        </extensions>
      </trkpt>
      <trkpt lat="46.07263" lon="6.24013">
        <ele>942.2</ele>
        <time>2021-03-02T12:56:32Z</time>
        <extensions>
          <gpxtpx:TrackPointExtension xmlns:gpxtpx="http://www.garmin.com/xmlschemas/TrackPointExtension/v1">
            <gpxtpx:hr>112</gpxtpx:hr>
          </gpxtpx:TrackPointExtension>
        </extensions>
      </trkpt>
      <trkpt lat="46.0726" lon="6.24012">
        <ele>942.2</ele>
        <time>2021-03-02T12:56:33Z</time>
        <extensions>
          <gpxtpx:TrackPointExtension xmlns:gpxtpx="http://www.garmin.com/xmlschemas/TrackPointExtension/v1">
            <gpxtpx:hr>112</gpxtpx:hr>
          </gpxtpx:TrackPointExtension>
        </extensions>
      </trkpt>
      <trkpt lat="46.07256" lon="6.24011">
        <ele>942.3</ele>
        <time>2021-03-02T12:56:34Z</time>
        <extensions>
          <gpxtpx:TrackPointExtension xmlns:gpxtpx="http://www.garmin.com/xmlschemas/TrackPointExtension/v1">
            <gpxtpx:hr>112</gpxtpx:hr>
          </gpxtpx:TrackPointExtension>
        </extensions>
      </trkpt>
      <trkpt lat="46.07253" lon="6.24011">
        <ele>942.3</ele>
        <time>2021-03-02T12:56:35Z</time>
        <extensions>
          <gpxtpx:TrackPointExtension xmlns:gpxtpx="http://www.garmin.com/xmlschemas/TrackPointExtension/v1">
            <gpxtpx:hr>112</gpxtpx:hr>
          </gpxtpx:TrackPointExtension>
        </extensions>
      </trkpt>
      <trkpt lat="46.0725" lon="6.2401">
        <ele>942.3</ele>
        <time>2021-03-02T12:56:36Z</time>
        <extensions>
          <gpxtpx:TrackPointExtension xmlns:gpxtpx="http://www.garmin.com/xmlschemas/TrackPointExtension/v1">
            <gpxtpx:hr>112</gpxtpx:hr>
          </gpxtpx:TrackPointExtension>
        </extensions>
      </trkpt>
      <trkpt lat="46.07247" lon="6.24009">
        <ele>942.4</ele>
        <time>2021-03-02T12:56:37Z</time>
        <extensions>
          <gpxtpx:TrackPointExtension xmlns:gpxtpx="http://www.garmin.com/xmlschemas/TrackPointExtension/v1">
            <gpxtpx:hr>112</gpxtpx:hr>
          </gpxtpx:TrackPointExtension>
        </extensions>
      </trkpt>
      <trkpt lat="46.07243" lon="6.24008">
        <ele>942.4</ele>
        <time>2021-03-02T12:56:38Z</time>
        <extensions>
          <gpxtpx:TrackPointExtension xmlns:gpxtpx="http://www.garmin.com/xmlschemas/TrackPointExtension/v1">
            <gpxtpx:hr>112</gpxtpx:hr>
          </gpxtpx:TrackPointExtension>
        </extensions>
      </trkpt>
      <trkpt lat="46.0724" lon="6.24007">
        <ele>942.5</ele>
        <time>2021-03-02T12:56:39Z</time>
        <extensions>
          <gpxtpx:TrackPointExtension xmlns:gpxtpx="http://www.garmin.com/xmlschemas/TrackPointExtension/v1">
            <gpxtpx:hr>112</gpxtpx:hr>
          </gpxtpx:TrackPointExtension>
        </extensions>
      </trkpt>
      <trkpt lat="46.07236" lon="6.24006">
        <ele>942.5</ele>
        <time>2021-03-02T12:56:40Z</time>
        <extensions>
          <gpxtpx:TrackPointExtension xmlns:gpxtpx="http://www.garmin.com/xmlschemas/TrackPointExtension/v1">
            <gpxtpx:hr>112</gpxtpx:hr>
          </gpxtpx:TrackPointExtension>
        </extensions>
      </trkpt>
      <trkpt lat="46.07233" lon="6.24005">
        <ele>942.6</ele>
        <time>2021-03-02T12:56:41Z</time>
        <extensions>
          <gpxtpx:TrackPointExtension xmlns:gpxtpx="http://www.garmin.com/xmlschemas/TrackPointExtension/v1">
            <gpxtpx:hr>113</gpxtpx:hr>
          </gpxtpx:TrackPointExtension>
        </extensions>
      </trkpt>
      <trkpt lat="46.07229" lon="6.24004">
        <ele>942.6</ele>
        <time>2021-03-02T12:56:42Z</time>
        <extensions>
          <gpxtpx:TrackPointExtension xmlns:gpxtpx="http://www.garmin.com/xmlschemas/TrackPointExtension/v1">
            <gpxtpx:hr>113</gpxtpx:hr>
          </gpxtpx:TrackPointExtension>
        </extensions>
      </trkpt>
      <trkpt lat="46.07226" lon="6.24003">
        <ele>942.7</ele>
        <time>2021-03-02T12:56:43Z</time>
        <extensions>
          <gpxtpx:TrackPointExtension xmlns:gpxtpx="http://www.garmin.com/xmlschemas/TrackPointExtension/v1">
            <gpxtpx:hr>113</gpxtpx:hr>
          </gpxtpx:TrackPointExtension>
        </extensions>
      </trkpt>
      <trkpt lat="46.07222" lon="6.24001">
        <ele>942.8</ele>
        <time>2021-03-02T12:56:44Z</time>
        <extensions>
          <gpxtpx:TrackPointExtension xmlns:gpxtpx="http://www.garmin.com/xmlschemas/TrackPointExtension/v1">
            <gpxtpx:hr>113</gpxtpx:hr>
          </gpxtpx:TrackPointExtension>
        </extensions>
      </trkpt>
      <trkpt lat="46.07219" lon="6.24">
        <ele>942.8</ele>
        <time>2021-03-02T12:56:45Z</time>
        <extensions>
          <gpxtpx:TrackPointExtension xmlns:gpxtpx="http://www.garmin.com/xmlschemas/TrackPointExtension/v1">
            <gpxtpx:hr>112</gpxtpx:hr>
          </gpxtpx:TrackPointExtension>
        </extensions>
      </trkpt>
      <trkpt lat="46.07215" lon="6.23999">
        <ele>942.9</ele>
        <time>2021-03-02T12:56:46Z</time>
        <extensions>
          <gpxtpx:TrackPointExtension xmlns:gpxtpx="http://www.garmin.com/xmlschemas/TrackPointExtension/v1">
            <gpxtpx:hr>112</gpxtpx:hr>
          </gpxtpx:TrackPointExtension>
        </extensions>
      </trkpt>
      <trkpt lat="46.07211" lon="6.23997">
        <ele>943</ele>
        <time>2021-03-02T12:56:47Z</time>
        <extensions>
          <gpxtpx:TrackPointExtension xmlns:gpxtpx="http://www.garmin.com/xmlschemas/TrackPointExtension/v1">
            <gpxtpx:hr>112</gpxtpx:hr>
          </gpxtpx:TrackPointExtension>
        </extensions>
      </trkpt>
      <trkpt lat="46.07207" lon="6.23996">
        <ele>943.1</ele>
        <time>2021-03-02T12:56:48Z</time>
        <extensions>
          <gpxtpx:TrackPointExtension xmlns:gpxtpx="http://www.garmin.com/xmlschemas/TrackPointExtension/v1">
            <gpxtpx:hr>112</gpxtpx:hr>
          </gpxtpx:TrackPointExtension>
        </extensions>
      </trkpt>
      <trkpt lat="46.07203" lon="6.23994">
        <ele>943.1</ele>
        <time>2021-03-02T12:56:49Z</time>
        <extensions>
          <gpxtpx:TrackPointExtension xmlns:gpxtpx="http://www.garmin.com/xmlschemas/TrackPointExtension/v1">
            <gpxtpx:hr>112</gpxtpx:hr>
          </gpxtpx:TrackPointExtension>
        </extensions>
      </trkpt>
      <trkpt lat="46.07199" lon="6.23993">
        <ele>943.2</ele>
        <time>2021-03-02T12:56:50Z</time>
        <extensions>
          <gpxtpx:TrackPointExtension xmlns:gpxtpx="http://www.garmin.com/xmlschemas/TrackPointExtension/v1">
            <gpxtpx:hr>112</gpxtpx:hr>
          </gpxtpx:TrackPointExtension>
        </extensions>
      </trkpt>
      <trkpt lat="46.07196" lon="6.23991">
        <ele>943.3</ele>
        <time>2021-03-02T12:56:51Z</time>
        <extensions>
          <gpxtpx:TrackPointExtension xmlns:gpxtpx="http://www.garmin.com/xmlschemas/TrackPointExtension/v1">
            <gpxtpx:hr>112</gpxtpx:hr>
          </gpxtpx:TrackPointExtension>
        </extensions>
      </trkpt>
      <trkpt lat="46.07192" lon="6.23989">
        <ele>943.3</ele>
        <time>2021-03-02T12:56:52Z</time>
        <extensions>
          <gpxtpx:TrackPointExtension xmlns:gpxtpx="http://www.garmin.com/xmlschemas/TrackPointExtension/v1">
            <gpxtpx:hr>111</gpxtpx:hr>
          </gpxtpx:TrackPointExtension>
        </extensions>
      </trkpt>
      <trkpt lat="46.07188" lon="6.23988">
        <ele>943.4</ele>
        <time>2021-03-02T12:56:53Z</time>
        <extensions>
          <gpxtpx:TrackPointExtension xmlns:gpxtpx="http://www.garmin.com/xmlschemas/TrackPointExtension/v1">
            <gpxtpx:hr>111</gpxtpx:hr>
          </gpxtpx:TrackPointExtension>
        </extensions>
      </trkpt>
      <trkpt lat="46.07184" lon="6.23986">
        <ele>943.4</ele>
        <time>2021-03-02T12:56:54Z</time>
        <extensions>
          <gpxtpx:TrackPointExtension xmlns:gpxtpx="http://www.garmin.com/xmlschemas/TrackPointExtension/v1">
            <gpxtpx:hr>111</gpxtpx:hr>
          </gpxtpx:TrackPointExtension>
        </extensions>
      </trkpt>
      <trkpt lat="46.0718" lon="6.23984">
        <ele>943.5</ele>
        <time>2021-03-02T12:56:55Z</time>
        <extensions>
          <gpxtpx:TrackPointExtension xmlns:gpxtpx="http://www.garmin.com/xmlschemas/TrackPointExtension/v1">
            <gpxtpx:hr>111</gpxtpx:hr>
          </gpxtpx:TrackPointExtension>
        </extensions>
      </trkpt>
      <trkpt lat="46.07176" lon="6.23982">
        <ele>943.6</ele>
        <time>2021-03-02T12:56:56Z</time>
        <extensions>
          <gpxtpx:TrackPointExtension xmlns:gpxtpx="http://www.garmin.com/xmlschemas/TrackPointExtension/v1">
            <gpxtpx:hr>111</gpxtpx:hr>
          </gpxtpx:TrackPointExtension>
        </extensions>
      </trkpt>
      <trkpt lat="46.07173" lon="6.2398">
        <ele>943.7</ele>
        <time>2021-03-02T12:56:57Z</time>
        <extensions>
          <gpxtpx:TrackPointExtension xmlns:gpxtpx="http://www.garmin.com/xmlschemas/TrackPointExtension/v1">
            <gpxtpx:hr>112</gpxtpx:hr>
          </gpxtpx:TrackPointExtension>
        </extensions>
      </trkpt>
      <trkpt lat="46.07169" lon="6.23977">
        <ele>943.8</ele>
        <time>2021-03-02T12:56:58Z</time>
        <extensions>
          <gpxtpx:TrackPointExtension xmlns:gpxtpx="http://www.garmin.com/xmlschemas/TrackPointExtension/v1">
            <gpxtpx:hr>112</gpxtpx:hr>
          </gpxtpx:TrackPointExtension>
        </extensions>
      </trkpt>
      <trkpt lat="46.07165" lon="6.23975">
        <ele>943.9</ele>
        <time>2021-03-02T12:56:59Z</time>
        <extensions>
          <gpxtpx:TrackPointExtension xmlns:gpxtpx="http://www.garmin.com/xmlschemas/TrackPointExtension/v1">
            <gpxtpx:hr>112</gpxtpx:hr>
          </gpxtpx:TrackPointExtension>
        </extensions>
      </trkpt>
      <trkpt lat="46.07162" lon="6.23972">
        <ele>944</ele>
        <time>2021-03-02T12:57:00Z</time>
        <extensions>
          <gpxtpx:TrackPointExtension xmlns:gpxtpx="http://www.garmin.com/xmlschemas/TrackPointExtension/v1">
            <gpxtpx:hr>112</gpxtpx:hr>
          </gpxtpx:TrackPointExtension>
        </extensions>
      </trkpt>
      <trkpt lat="46.07159" lon="6.2397">
        <ele>944.1</ele>
        <time>2021-03-02T12:57:01Z</time>
        <extensions>
          <gpxtpx:TrackPointExtension xmlns:gpxtpx="http://www.garmin.com/xmlschemas/TrackPointExtension/v1">
            <gpxtpx:hr>112</gpxtpx:hr>
          </gpxtpx:TrackPointExtension>
        </extensions>
      </trkpt>
      <trkpt lat="46.07155" lon="6.23968">
        <ele>944.2</ele>
        <time>2021-03-02T12:57:02Z</time>
        <extensions>
          <gpxtpx:TrackPointExtension xmlns:gpxtpx="http://www.garmin.com/xmlschemas/TrackPointExtension/v1">
            <gpxtpx:hr>113</gpxtpx:hr>
          </gpxtpx:TrackPointExtension>
        </extensions>
      </trkpt>
      <trkpt lat="46.07152" lon="6.23965">
        <ele>944.3</ele>
        <time>2021-03-02T12:57:03Z</time>
        <extensions>
          <gpxtpx:TrackPointExtension xmlns:gpxtpx="http://www.garmin.com/xmlschemas/TrackPointExtension/v1">
            <gpxtpx:hr>113</gpxtpx:hr>
          </gpxtpx:TrackPointExtension>
        </extensions>
      </trkpt>
      <trkpt lat="46.0715" lon="6.23963">
        <ele>944.4</ele>
        <time>2021-03-02T12:57:04Z</time>
        <extensions>
          <gpxtpx:TrackPointExtension xmlns:gpxtpx="http://www.garmin.com/xmlschemas/TrackPointExtension/v1">
            <gpxtpx:hr>113</gpxtpx:hr>
          </gpxtpx:TrackPointExtension>
        </extensions>
      </trkpt>
      <trkpt lat="46.07148" lon="6.2396">
        <ele>944.5</ele>
        <time>2021-03-02T12:57:05Z</time>
        <extensions>
          <gpxtpx:TrackPointExtension xmlns:gpxtpx="http://www.garmin.com/xmlschemas/TrackPointExtension/v1">
            <gpxtpx:hr>113</gpxtpx:hr>
          </gpxtpx:TrackPointExtension>
        </extensions>
      </trkpt>
      <trkpt lat="46.07146" lon="6.23957">
        <ele>944.4</ele>
        <time>2021-03-02T12:57:06Z</time>
        <extensions>
          <gpxtpx:TrackPointExtension xmlns:gpxtpx="http://www.garmin.com/xmlschemas/TrackPointExtension/v1">
            <gpxtpx:hr>113</gpxtpx:hr>
          </gpxtpx:TrackPointExtension>
        </extensions>
      </trkpt>
      <trkpt lat="46.07145" lon="6.23954">
        <ele>944.4</ele>
        <time>2021-03-02T12:57:07Z</time>
        <extensions>
          <gpxtpx:TrackPointExtension xmlns:gpxtpx="http://www.garmin.com/xmlschemas/TrackPointExtension/v1">
            <gpxtpx:hr>113</gpxtpx:hr>
          </gpxtpx:TrackPointExtension>
        </extensions>
      </trkpt>
      <trkpt lat="46.07145" lon="6.2395">
        <ele>944.3</ele>
        <time>2021-03-02T12:57:08Z</time>
        <extensions>
          <gpxtpx:TrackPointExtension xmlns:gpxtpx="http://www.garmin.com/xmlschemas/TrackPointExtension/v1">
            <gpxtpx:hr>113</gpxtpx:hr>
          </gpxtpx:TrackPointExtension>
        </extensions>
      </trkpt>
      <trkpt lat="46.07145" lon="6.23945">
        <ele>944.2</ele>
        <time>2021-03-02T12:57:09Z</time>
        <extensions>
          <gpxtpx:TrackPointExtension xmlns:gpxtpx="http://www.garmin.com/xmlschemas/TrackPointExtension/v1">
            <gpxtpx:hr>113</gpxtpx:hr>
          </gpxtpx:TrackPointExtension>
        </extensions>
      </trkpt>
      <trkpt lat="46.07146" lon="6.23941">
        <ele>944.1</ele>
        <time>2021-03-02T12:57:10Z</time>
        <extensions>
          <gpxtpx:TrackPointExtension xmlns:gpxtpx="http://www.garmin.com/xmlschemas/TrackPointExtension/v1">
            <gpxtpx:hr>113</gpxtpx:hr>
          </gpxtpx:TrackPointExtension>
        </extensions>
      </trkpt>
      <trkpt lat="46.07146" lon="6.23935">
        <ele>944</ele>
        <time>2021-03-02T12:57:11Z</time>
        <extensions>
          <gpxtpx:TrackPointExtension xmlns:gpxtpx="http://www.garmin.com/xmlschemas/TrackPointExtension/v1">
            <gpxtpx:hr>113</gpxtpx:hr>
          </gpxtpx:TrackPointExtension>
        </extensions>
      </trkpt>
      <trkpt lat="46.07146" lon="6.2393">
        <ele>943.8</ele>
        <time>2021-03-02T12:57:12Z</time>
        <extensions>
          <gpxtpx:TrackPointExtension xmlns:gpxtpx="http://www.garmin.com/xmlschemas/TrackPointExtension/v1">
            <gpxtpx:hr>113</gpxtpx:hr>
          </gpxtpx:TrackPointExtension>
        </extensions>
      </trkpt>
      <trkpt lat="46.07146" lon="6.23924">
        <ele>943.7</ele>
        <time>2021-03-02T12:57:13Z</time>
        <extensions>
          <gpxtpx:TrackPointExtension xmlns:gpxtpx="http://www.garmin.com/xmlschemas/TrackPointExtension/v1">
            <gpxtpx:hr>113</gpxtpx:hr>
          </gpxtpx:TrackPointExtension>
        </extensions>
      </trkpt>
      <trkpt lat="46.07146" lon="6.23919">
        <ele>943.6</ele>
        <time>2021-03-02T12:57:14Z</time>
        <extensions>
          <gpxtpx:TrackPointExtension xmlns:gpxtpx="http://www.garmin.com/xmlschemas/TrackPointExtension/v1">
            <gpxtpx:hr>114</gpxtpx:hr>
          </gpxtpx:TrackPointExtension>
        </extensions>
      </trkpt>
      <trkpt lat="46.07146" lon="6.23913">
        <ele>943.5</ele>
        <time>2021-03-02T12:57:15Z</time>
        <extensions>
          <gpxtpx:TrackPointExtension xmlns:gpxtpx="http://www.garmin.com/xmlschemas/TrackPointExtension/v1">
            <gpxtpx:hr>114</gpxtpx:hr>
          </gpxtpx:TrackPointExtension>
        </extensions>
      </trkpt>
      <trkpt lat="46.07145" lon="6.23907">
        <ele>943.4</ele>
        <time>2021-03-02T12:57:16Z</time>
        <extensions>
          <gpxtpx:TrackPointExtension xmlns:gpxtpx="http://www.garmin.com/xmlschemas/TrackPointExtension/v1">
            <gpxtpx:hr>114</gpxtpx:hr>
          </gpxtpx:TrackPointExtension>
        </extensions>
      </trkpt>
      <trkpt lat="46.07145" lon="6.23901">
        <ele>943.3</ele>
        <time>2021-03-02T12:57:17Z</time>
        <extensions>
          <gpxtpx:TrackPointExtension xmlns:gpxtpx="http://www.garmin.com/xmlschemas/TrackPointExtension/v1">
            <gpxtpx:hr>114</gpxtpx:hr>
          </gpxtpx:TrackPointExtension>
        </extensions>
      </trkpt>
      <trkpt lat="46.07145" lon="6.23895">
        <ele>943.1</ele>
        <time>2021-03-02T12:57:18Z</time>
        <extensions>
          <gpxtpx:TrackPointExtension xmlns:gpxtpx="http://www.garmin.com/xmlschemas/TrackPointExtension/v1">
            <gpxtpx:hr>115</gpxtpx:hr>
          </gpxtpx:TrackPointExtension>
        </extensions>
      </trkpt>
      <trkpt lat="46.07145" lon="6.23889">
        <ele>943</ele>
        <time>2021-03-02T12:57:19Z</time>
        <extensions>
          <gpxtpx:TrackPointExtension xmlns:gpxtpx="http://www.garmin.com/xmlschemas/TrackPointExtension/v1">
            <gpxtpx:hr>115</gpxtpx:hr>
          </gpxtpx:TrackPointExtension>
        </extensions>
      </trkpt>
      <trkpt lat="46.07145" lon="6.23883">
        <ele>942.9</ele>
        <time>2021-03-02T12:57:20Z</time>
        <extensions>
          <gpxtpx:TrackPointExtension xmlns:gpxtpx="http://www.garmin.com/xmlschemas/TrackPointExtension/v1">
            <gpxtpx:hr>115</gpxtpx:hr>
          </gpxtpx:TrackPointExtension>
        </extensions>
      </trkpt>
      <trkpt lat="46.07145" lon="6.23876">
        <ele>942.8</ele>
        <time>2021-03-02T12:57:21Z</time>
        <extensions>
          <gpxtpx:TrackPointExtension xmlns:gpxtpx="http://www.garmin.com/xmlschemas/TrackPointExtension/v1">
            <gpxtpx:hr>116</gpxtpx:hr>
          </gpxtpx:TrackPointExtension>
        </extensions>
      </trkpt>
      <trkpt lat="46.07146" lon="6.2387">
        <ele>942.7</ele>
        <time>2021-03-02T12:57:22Z</time>
        <extensions>
          <gpxtpx:TrackPointExtension xmlns:gpxtpx="http://www.garmin.com/xmlschemas/TrackPointExtension/v1">
            <gpxtpx:hr>117</gpxtpx:hr>
          </gpxtpx:TrackPointExtension>
        </extensions>
      </trkpt>
      <trkpt lat="46.07146" lon="6.23864">
        <ele>942.5</ele>
        <time>2021-03-02T12:57:23Z</time>
        <extensions>
          <gpxtpx:TrackPointExtension xmlns:gpxtpx="http://www.garmin.com/xmlschemas/TrackPointExtension/v1">
            <gpxtpx:hr>118</gpxtpx:hr>
          </gpxtpx:TrackPointExtension>
        </extensions>
      </trkpt>
      <trkpt lat="46.07147" lon="6.23857">
        <ele>942.4</ele>
        <time>2021-03-02T12:57:24Z</time>
        <extensions>
          <gpxtpx:TrackPointExtension xmlns:gpxtpx="http://www.garmin.com/xmlschemas/TrackPointExtension/v1">
            <gpxtpx:hr>119</gpxtpx:hr>
          </gpxtpx:TrackPointExtension>
        </extensions>
      </trkpt>
      <trkpt lat="46.07147" lon="6.23851">
        <ele>942.2</ele>
        <time>2021-03-02T12:57:25Z</time>
        <extensions>
          <gpxtpx:TrackPointExtension xmlns:gpxtpx="http://www.garmin.com/xmlschemas/TrackPointExtension/v1">
            <gpxtpx:hr>120</gpxtpx:hr>
          </gpxtpx:TrackPointExtension>
        </extensions>
      </trkpt>
      <trkpt lat="46.07147" lon="6.23844">
        <ele>942</ele>
        <time>2021-03-02T12:57:26Z</time>
        <extensions>
          <gpxtpx:TrackPointExtension xmlns:gpxtpx="http://www.garmin.com/xmlschemas/TrackPointExtension/v1">
            <gpxtpx:hr>121</gpxtpx:hr>
          </gpxtpx:TrackPointExtension>
        </extensions>
      </trkpt>
      <trkpt lat="46.07147" lon="6.23836">
        <ele>941.9</ele>
        <time>2021-03-02T12:57:27Z</time>
        <extensions>
          <gpxtpx:TrackPointExtension xmlns:gpxtpx="http://www.garmin.com/xmlschemas/TrackPointExtension/v1">
            <gpxtpx:hr>122</gpxtpx:hr>
          </gpxtpx:TrackPointExtension>
        </extensions>
      </trkpt>
      <trkpt lat="46.07146" lon="6.23829">
        <ele>941.7</ele>
        <time>2021-03-02T12:57:28Z</time>
        <extensions>
          <gpxtpx:TrackPointExtension xmlns:gpxtpx="http://www.garmin.com/xmlschemas/TrackPointExtension/v1">
            <gpxtpx:hr>124</gpxtpx:hr>
          </gpxtpx:TrackPointExtension>
        </extensions>
      </trkpt>
      <trkpt lat="46.07144" lon="6.23822">
        <ele>941.5</ele>
        <time>2021-03-02T12:57:29Z</time>
        <extensions>
          <gpxtpx:TrackPointExtension xmlns:gpxtpx="http://www.garmin.com/xmlschemas/TrackPointExtension/v1">
            <gpxtpx:hr>125</gpxtpx:hr>
          </gpxtpx:TrackPointExtension>
        </extensions>
      </trkpt>
      <trkpt lat="46.07142" lon="6.23814">
        <ele>941.4</ele>
        <time>2021-03-02T12:57:30Z</time>
        <extensions>
          <gpxtpx:TrackPointExtension xmlns:gpxtpx="http://www.garmin.com/xmlschemas/TrackPointExtension/v1">
            <gpxtpx:hr>124</gpxtpx:hr>
          </gpxtpx:TrackPointExtension>
        </extensions>
      </trkpt>
      <trkpt lat="46.07139" lon="6.23807">
        <ele>941.2</ele>
        <time>2021-03-02T12:57:31Z</time>
        <extensions>
          <gpxtpx:TrackPointExtension xmlns:gpxtpx="http://www.garmin.com/xmlschemas/TrackPointExtension/v1">
            <gpxtpx:hr>123</gpxtpx:hr>
          </gpxtpx:TrackPointExtension>
        </extensions>
      </trkpt>
      <trkpt lat="46.07136" lon="6.238">
        <ele>941</ele>
        <time>2021-03-02T12:57:32Z</time>
        <extensions>
          <gpxtpx:TrackPointExtension xmlns:gpxtpx="http://www.garmin.com/xmlschemas/TrackPointExtension/v1">
            <gpxtpx:hr>122</gpxtpx:hr>
          </gpxtpx:TrackPointExtension>
        </extensions>
      </trkpt>
      <trkpt lat="46.07132" lon="6.23793">
        <ele>940.8</ele>
        <time>2021-03-02T12:57:33Z</time>
        <extensions>
          <gpxtpx:TrackPointExtension xmlns:gpxtpx="http://www.garmin.com/xmlschemas/TrackPointExtension/v1">
            <gpxtpx:hr>121</gpxtpx:hr>
          </gpxtpx:TrackPointExtension>
        </extensions>
      </trkpt>
      <trkpt lat="46.07128" lon="6.23786">
        <ele>940.6</ele>
        <time>2021-03-02T12:57:34Z</time>
        <extensions>
          <gpxtpx:TrackPointExtension xmlns:gpxtpx="http://www.garmin.com/xmlschemas/TrackPointExtension/v1">
            <gpxtpx:hr>119</gpxtpx:hr>
          </gpxtpx:TrackPointExtension>
        </extensions>
      </trkpt>
      <trkpt lat="46.07124" lon="6.2378">
        <ele>940.4</ele>
        <time>2021-03-02T12:57:35Z</time>
        <extensions>
          <gpxtpx:TrackPointExtension xmlns:gpxtpx="http://www.garmin.com/xmlschemas/TrackPointExtension/v1">
            <gpxtpx:hr>118</gpxtpx:hr>
          </gpxtpx:TrackPointExtension>
        </extensions>
      </trkpt>
      <trkpt lat="46.0712" lon="6.23774">
        <ele>940.2</ele>
        <time>2021-03-02T12:57:36Z</time>
        <extensions>
          <gpxtpx:TrackPointExtension xmlns:gpxtpx="http://www.garmin.com/xmlschemas/TrackPointExtension/v1">
            <gpxtpx:hr>116</gpxtpx:hr>
          </gpxtpx:TrackPointExtension>
        </extensions>
      </trkpt>
      <trkpt lat="46.07115" lon="6.23769">
        <ele>940</ele>
        <time>2021-03-02T12:57:37Z</time>
        <extensions>
          <gpxtpx:TrackPointExtension xmlns:gpxtpx="http://www.garmin.com/xmlschemas/TrackPointExtension/v1">
            <gpxtpx:hr>115</gpxtpx:hr>
          </gpxtpx:TrackPointExtension>
        </extensions>
      </trkpt>
      <trkpt lat="46.0711" lon="6.23763">
        <ele>939.9</ele>
        <time>2021-03-02T12:57:38Z</time>
        <extensions>
          <gpxtpx:TrackPointExtension xmlns:gpxtpx="http://www.garmin.com/xmlschemas/TrackPointExtension/v1">
            <gpxtpx:hr>112</gpxtpx:hr>
          </gpxtpx:TrackPointExtension>
        </extensions>
      </trkpt>
      <trkpt lat="46.07105" lon="6.23758">
        <ele>939.7</ele>
        <time>2021-03-02T12:57:39Z</time>
        <extensions>
          <gpxtpx:TrackPointExtension xmlns:gpxtpx="http://www.garmin.com/xmlschemas/TrackPointExtension/v1">
            <gpxtpx:hr>109</gpxtpx:hr>
          </gpxtpx:TrackPointExtension>
        </extensions>
      </trkpt>
      <trkpt lat="46.07099" lon="6.23753">
        <ele>939.5</ele>
        <time>2021-03-02T12:57:40Z</time>
        <extensions>
          <gpxtpx:TrackPointExtension xmlns:gpxtpx="http://www.garmin.com/xmlschemas/TrackPointExtension/v1">
            <gpxtpx:hr>108</gpxtpx:hr>
          </gpxtpx:TrackPointExtension>
        </extensions>
      </trkpt>
      <trkpt lat="46.07094" lon="6.23748">
        <ele>939.3</ele>
        <time>2021-03-02T12:57:41Z</time>
        <extensions>
          <gpxtpx:TrackPointExtension xmlns:gpxtpx="http://www.garmin.com/xmlschemas/TrackPointExtension/v1">
            <gpxtpx:hr>106</gpxtpx:hr>
          </gpxtpx:TrackPointExtension>
        </extensions>
      </trkpt>
      <trkpt lat="46.07088" lon="6.23743">
        <ele>939.1</ele>
        <time>2021-03-02T12:57:42Z</time>
        <extensions>
          <gpxtpx:TrackPointExtension xmlns:gpxtpx="http://www.garmin.com/xmlschemas/TrackPointExtension/v1">
            <gpxtpx:hr>105</gpxtpx:hr>
          </gpxtpx:TrackPointExtension>
        </extensions>
      </trkpt>
      <trkpt lat="46.07082" lon="6.23738">
        <ele>938.9</ele>
        <time>2021-03-02T12:57:43Z</time>
        <extensions>
          <gpxtpx:TrackPointExtension xmlns:gpxtpx="http://www.garmin.com/xmlschemas/TrackPointExtension/v1">
            <gpxtpx:hr>105</gpxtpx:hr>
          </gpxtpx:TrackPointExtension>
        </extensions>
      </trkpt>
      <trkpt lat="46.07077" lon="6.23731">
        <ele>938.7</ele>
        <time>2021-03-02T12:57:44Z</time>
        <extensions>
          <gpxtpx:TrackPointExtension xmlns:gpxtpx="http://www.garmin.com/xmlschemas/TrackPointExtension/v1">
            <gpxtpx:hr>104</gpxtpx:hr>
          </gpxtpx:TrackPointExtension>
        </extensions>
      </trkpt>
      <trkpt lat="46.07072" lon="6.23724">
        <ele>938.5</ele>
        <time>2021-03-02T12:57:45Z</time>
        <extensions>
          <gpxtpx:TrackPointExtension xmlns:gpxtpx="http://www.garmin.com/xmlschemas/TrackPointExtension/v1">
            <gpxtpx:hr>104</gpxtpx:hr>
          </gpxtpx:TrackPointExtension>
        </extensions>
      </trkpt>
      <trkpt lat="46.07067" lon="6.23715">
        <ele>938.3</ele>
        <time>2021-03-02T12:57:46Z</time>
        <extensions>
          <gpxtpx:TrackPointExtension xmlns:gpxtpx="http://www.garmin.com/xmlschemas/TrackPointExtension/v1">
            <gpxtpx:hr>103</gpxtpx:hr>
          </gpxtpx:TrackPointExtension>
        </extensions>
      </trkpt>
      <trkpt lat="46.07064" lon="6.23706">
        <ele>938.1</ele>
        <time>2021-03-02T12:57:47Z</time>
        <extensions>
          <gpxtpx:TrackPointExtension xmlns:gpxtpx="http://www.garmin.com/xmlschemas/TrackPointExtension/v1">
            <gpxtpx:hr>103</gpxtpx:hr>
          </gpxtpx:TrackPointExtension>
        </extensions>
      </trkpt>
      <trkpt lat="46.07062" lon="6.23696">
        <ele>937.9</ele>
        <time>2021-03-02T12:57:48Z</time>
        <extensions>
          <gpxtpx:TrackPointExtension xmlns:gpxtpx="http://www.garmin.com/xmlschemas/TrackPointExtension/v1">
            <gpxtpx:hr>103</gpxtpx:hr>
          </gpxtpx:TrackPointExtension>
        </extensions>
      </trkpt>
      <trkpt lat="46.0706" lon="6.23686">
        <ele>937.7</ele>
        <time>2021-03-02T12:57:49Z</time>
        <extensions>
          <gpxtpx:TrackPointExtension xmlns:gpxtpx="http://www.garmin.com/xmlschemas/TrackPointExtension/v1">
            <gpxtpx:hr>102</gpxtpx:hr>
          </gpxtpx:TrackPointExtension>
        </extensions>
      </trkpt>
      <trkpt lat="46.07058" lon="6.23676">
        <ele>937.5</ele>
        <time>2021-03-02T12:57:50Z</time>
        <extensions>
          <gpxtpx:TrackPointExtension xmlns:gpxtpx="http://www.garmin.com/xmlschemas/TrackPointExtension/v1">
            <gpxtpx:hr>103</gpxtpx:hr>
          </gpxtpx:TrackPointExtension>
        </extensions>
      </trkpt>
      <trkpt lat="46.07057" lon="6.23667">
        <ele>937.4</ele>
        <time>2021-03-02T12:57:51Z</time>
        <extensions>
          <gpxtpx:TrackPointExtension xmlns:gpxtpx="http://www.garmin.com/xmlschemas/TrackPointExtension/v1">
            <gpxtpx:hr>104</gpxtpx:hr>
          </gpxtpx:TrackPointExtension>
        </extensions>
      </trkpt>
      <trkpt lat="46.07055" lon="6.23658">
        <ele>937.2</ele>
        <time>2021-03-02T12:57:52Z</time>
        <extensions>
          <gpxtpx:TrackPointExtension xmlns:gpxtpx="http://www.garmin.com/xmlschemas/TrackPointExtension/v1">
            <gpxtpx:hr>104</gpxtpx:hr>
          </gpxtpx:TrackPointExtension>
        </extensions>
      </trkpt>
      <trkpt lat="46.07054" lon="6.23649">
        <ele>937.1</ele>
        <time>2021-03-02T12:57:53Z</time>
        <extensions>
          <gpxtpx:TrackPointExtension xmlns:gpxtpx="http://www.garmin.com/xmlschemas/TrackPointExtension/v1">
            <gpxtpx:hr>104</gpxtpx:hr>
          </gpxtpx:TrackPointExtension>
        </extensions>
      </trkpt>
      <trkpt lat="46.07053" lon="6.23641">
        <ele>936.9</ele>
        <time>2021-03-02T12:57:54Z</time>
        <extensions>
          <gpxtpx:TrackPointExtension xmlns:gpxtpx="http://www.garmin.com/xmlschemas/TrackPointExtension/v1">
            <gpxtpx:hr>105</gpxtpx:hr>
          </gpxtpx:TrackPointExtension>
        </extensions>
      </trkpt>
      <trkpt lat="46.07051" lon="6.23634">
        <ele>936.7</ele>
        <time>2021-03-02T12:57:55Z</time>
        <extensions>
          <gpxtpx:TrackPointExtension xmlns:gpxtpx="http://www.garmin.com/xmlschemas/TrackPointExtension/v1">
            <gpxtpx:hr>105</gpxtpx:hr>
          </gpxtpx:TrackPointExtension>
        </extensions>
      </trkpt>
      <trkpt lat="46.07048" lon="6.23627">
        <ele>936.5</ele>
        <time>2021-03-02T12:57:56Z</time>
        <extensions>
          <gpxtpx:TrackPointExtension xmlns:gpxtpx="http://www.garmin.com/xmlschemas/TrackPointExtension/v1">
            <gpxtpx:hr>105</gpxtpx:hr>
          </gpxtpx:TrackPointExtension>
        </extensions>
      </trkpt>
      <trkpt lat="46.07043" lon="6.23623">
        <ele>936.4</ele>
        <time>2021-03-02T12:57:57Z</time>
        <extensions>
          <gpxtpx:TrackPointExtension xmlns:gpxtpx="http://www.garmin.com/xmlschemas/TrackPointExtension/v1">
            <gpxtpx:hr>105</gpxtpx:hr>
          </gpxtpx:TrackPointExtension>
        </extensions>
      </trkpt>
      <trkpt lat="46.07037" lon="6.2362">
        <ele>936.3</ele>
        <time>2021-03-02T12:57:58Z</time>
        <extensions>
          <gpxtpx:TrackPointExtension xmlns:gpxtpx="http://www.garmin.com/xmlschemas/TrackPointExtension/v1">
            <gpxtpx:hr>106</gpxtpx:hr>
          </gpxtpx:TrackPointExtension>
        </extensions>
      </trkpt>
      <trkpt lat="46.07031" lon="6.23618">
        <ele>936.1</ele>
        <time>2021-03-02T12:57:59Z</time>
        <extensions>
          <gpxtpx:TrackPointExtension xmlns:gpxtpx="http://www.garmin.com/xmlschemas/TrackPointExtension/v1">
            <gpxtpx:hr>107</gpxtpx:hr>
          </gpxtpx:TrackPointExtension>
        </extensions>
      </trkpt>
      <trkpt lat="46.07025" lon="6.23616">
        <ele>936</ele>
        <time>2021-03-02T12:58:00Z</time>
        <extensions>
          <gpxtpx:TrackPointExtension xmlns:gpxtpx="http://www.garmin.com/xmlschemas/TrackPointExtension/v1">
            <gpxtpx:hr>107</gpxtpx:hr>
          </gpxtpx:TrackPointExtension>
        </extensions>
      </trkpt>
      <trkpt lat="46.07018" lon="6.23614">
        <ele>935.9</ele>
        <time>2021-03-02T12:58:01Z</time>
        <extensions>
          <gpxtpx:TrackPointExtension xmlns:gpxtpx="http://www.garmin.com/xmlschemas/TrackPointExtension/v1">
            <gpxtpx:hr>107</gpxtpx:hr>
          </gpxtpx:TrackPointExtension>
        </extensions>
      </trkpt>
      <trkpt lat="46.07012" lon="6.23613">
        <ele>935.8</ele>
        <time>2021-03-02T12:58:02Z</time>
        <extensions>
          <gpxtpx:TrackPointExtension xmlns:gpxtpx="http://www.garmin.com/xmlschemas/TrackPointExtension/v1">
            <gpxtpx:hr>108</gpxtpx:hr>
          </gpxtpx:TrackPointExtension>
        </extensions>
      </trkpt>
      <trkpt lat="46.07005" lon="6.23612">
        <ele>935.8</ele>
        <time>2021-03-02T12:58:03Z</time>
        <extensions>
          <gpxtpx:TrackPointExtension xmlns:gpxtpx="http://www.garmin.com/xmlschemas/TrackPointExtension/v1">
            <gpxtpx:hr>108</gpxtpx:hr>
          </gpxtpx:TrackPointExtension>
        </extensions>
      </trkpt>
      <trkpt lat="46.06998" lon="6.23612">
        <ele>935.7</ele>
        <time>2021-03-02T12:58:04Z</time>
        <extensions>
          <gpxtpx:TrackPointExtension xmlns:gpxtpx="http://www.garmin.com/xmlschemas/TrackPointExtension/v1">
            <gpxtpx:hr>108</gpxtpx:hr>
          </gpxtpx:TrackPointExtension>
        </extensions>
      </trkpt>
      <trkpt lat="46.06992" lon="6.23613">
        <ele>935.6</ele>
        <time>2021-03-02T12:58:05Z</time>
        <extensions>
          <gpxtpx:TrackPointExtension xmlns:gpxtpx="http://www.garmin.com/xmlschemas/TrackPointExtension/v1">
            <gpxtpx:hr>108</gpxtpx:hr>
          </gpxtpx:TrackPointExtension>
        </extensions>
      </trkpt>
      <trkpt lat="46.06986" lon="6.23616">
        <ele>935.5</ele>
        <time>2021-03-02T12:58:06Z</time>
        <extensions>
          <gpxtpx:TrackPointExtension xmlns:gpxtpx="http://www.garmin.com/xmlschemas/TrackPointExtension/v1">
            <gpxtpx:hr>107</gpxtpx:hr>
          </gpxtpx:TrackPointExtension>
        </extensions>
      </trkpt>
      <trkpt lat="46.0698" lon="6.23621">
        <ele>935.5</ele>
        <time>2021-03-02T12:58:07Z</time>
        <extensions>
          <gpxtpx:TrackPointExtension xmlns:gpxtpx="http://www.garmin.com/xmlschemas/TrackPointExtension/v1">
            <gpxtpx:hr>107</gpxtpx:hr>
          </gpxtpx:TrackPointExtension>
        </extensions>
      </trkpt>
      <trkpt lat="46.06975" lon="6.23627">
        <ele>935.4</ele>
        <time>2021-03-02T12:58:08Z</time>
        <extensions>
          <gpxtpx:TrackPointExtension xmlns:gpxtpx="http://www.garmin.com/xmlschemas/TrackPointExtension/v1">
            <gpxtpx:hr>106</gpxtpx:hr>
          </gpxtpx:TrackPointExtension>
        </extensions>
      </trkpt>
      <trkpt lat="46.0697" lon="6.23633">
        <ele>935.3</ele>
        <time>2021-03-02T12:58:09Z</time>
        <extensions>
          <gpxtpx:TrackPointExtension xmlns:gpxtpx="http://www.garmin.com/xmlschemas/TrackPointExtension/v1">
            <gpxtpx:hr>106</gpxtpx:hr>
          </gpxtpx:TrackPointExtension>
        </extensions>
      </trkpt>
      <trkpt lat="46.06965" lon="6.2364">
        <ele>935.3</ele>
        <time>2021-03-02T12:58:10Z</time>
        <extensions>
          <gpxtpx:TrackPointExtension xmlns:gpxtpx="http://www.garmin.com/xmlschemas/TrackPointExtension/v1">
            <gpxtpx:hr>105</gpxtpx:hr>
          </gpxtpx:TrackPointExtension>
        </extensions>
      </trkpt>
      <trkpt lat="46.06961" lon="6.23647">
        <ele>935.2</ele>
        <time>2021-03-02T12:58:11Z</time>
        <extensions>
          <gpxtpx:TrackPointExtension xmlns:gpxtpx="http://www.garmin.com/xmlschemas/TrackPointExtension/v1">
            <gpxtpx:hr>105</gpxtpx:hr>
          </gpxtpx:TrackPointExtension>
        </extensions>
      </trkpt>
      <trkpt lat="46.06957" lon="6.23654">
        <ele>935.2</ele>
        <time>2021-03-02T12:58:12Z</time>
        <extensions>
          <gpxtpx:TrackPointExtension xmlns:gpxtpx="http://www.garmin.com/xmlschemas/TrackPointExtension/v1">
            <gpxtpx:hr>104</gpxtpx:hr>
          </gpxtpx:TrackPointExtension>
        </extensions>
      </trkpt>
      <trkpt lat="46.06954" lon="6.23661">
        <ele>935.2</ele>
        <time>2021-03-02T12:58:13Z</time>
        <extensions>
          <gpxtpx:TrackPointExtension xmlns:gpxtpx="http://www.garmin.com/xmlschemas/TrackPointExtension/v1">
            <gpxtpx:hr>103</gpxtpx:hr>
          </gpxtpx:TrackPointExtension>
        </extensions>
      </trkpt>
      <trkpt lat="46.0695" lon="6.23668">
        <ele>935.2</ele>
        <time>2021-03-02T12:58:14Z</time>
        <extensions>
          <gpxtpx:TrackPointExtension xmlns:gpxtpx="http://www.garmin.com/xmlschemas/TrackPointExtension/v1">
            <gpxtpx:hr>104</gpxtpx:hr>
          </gpxtpx:TrackPointExtension>
        </extensions>
      </trkpt>
      <trkpt lat="46.06946" lon="6.23676">
        <ele>935.2</ele>
        <time>2021-03-02T12:58:15Z</time>
        <extensions>
          <gpxtpx:TrackPointExtension xmlns:gpxtpx="http://www.garmin.com/xmlschemas/TrackPointExtension/v1">
            <gpxtpx:hr>104</gpxtpx:hr>
          </gpxtpx:TrackPointExtension>
        </extensions>
      </trkpt>
      <trkpt lat="46.06942" lon="6.23682">
        <ele>935.2</ele>
        <time>2021-03-02T12:58:16Z</time>
        <extensions>
          <gpxtpx:TrackPointExtension xmlns:gpxtpx="http://www.garmin.com/xmlschemas/TrackPointExtension/v1">
            <gpxtpx:hr>104</gpxtpx:hr>
          </gpxtpx:TrackPointExtension>
        </extensions>
      </trkpt>
      <trkpt lat="46.06938" lon="6.23689">
        <ele>935.2</ele>
        <time>2021-03-02T12:58:17Z</time>
        <extensions>
          <gpxtpx:TrackPointExtension xmlns:gpxtpx="http://www.garmin.com/xmlschemas/TrackPointExtension/v1">
            <gpxtpx:hr>105</gpxtpx:hr>
          </gpxtpx:TrackPointExtension>
        </extensions>
      </trkpt>
      <trkpt lat="46.06934" lon="6.23694">
        <ele>935.2</ele>
        <time>2021-03-02T12:58:18Z</time>
        <extensions>
          <gpxtpx:TrackPointExtension xmlns:gpxtpx="http://www.garmin.com/xmlschemas/TrackPointExtension/v1">
            <gpxtpx:hr>105</gpxtpx:hr>
          </gpxtpx:TrackPointExtension>
        </extensions>
      </trkpt>
      <trkpt lat="46.0693" lon="6.23699">
        <ele>935.2</ele>
        <time>2021-03-02T12:58:19Z</time>
        <extensions>
          <gpxtpx:TrackPointExtension xmlns:gpxtpx="http://www.garmin.com/xmlschemas/TrackPointExtension/v1">
            <gpxtpx:hr>105</gpxtpx:hr>
          </gpxtpx:TrackPointExtension>
        </extensions>
      </trkpt>
      <trkpt lat="46.06926" lon="6.23703">
        <ele>935.2</ele>
        <time>2021-03-02T12:58:20Z</time>
        <extensions>
          <gpxtpx:TrackPointExtension xmlns:gpxtpx="http://www.garmin.com/xmlschemas/TrackPointExtension/v1">
            <gpxtpx:hr>105</gpxtpx:hr>
          </gpxtpx:TrackPointExtension>
        </extensions>
      </trkpt>
      <trkpt lat="46.06923" lon="6.23707">
        <ele>935.2</ele>
        <time>2021-03-02T12:58:21Z</time>
        <extensions>
          <gpxtpx:TrackPointExtension xmlns:gpxtpx="http://www.garmin.com/xmlschemas/TrackPointExtension/v1">
            <gpxtpx:hr>106</gpxtpx:hr>
          </gpxtpx:TrackPointExtension>
        </extensions>
      </trkpt>
      <trkpt lat="46.06922" lon="6.23713">
        <ele>935</ele>
        <time>2021-03-02T12:58:22Z</time>
        <extensions>
          <gpxtpx:TrackPointExtension xmlns:gpxtpx="http://www.garmin.com/xmlschemas/TrackPointExtension/v1">
            <gpxtpx:hr>106</gpxtpx:hr>
          </gpxtpx:TrackPointExtension>
        </extensions>
      </trkpt>
      <trkpt lat="46.06922" lon="6.23721">
        <ele>934.9</ele>
        <time>2021-03-02T12:58:23Z</time>
        <extensions>
          <gpxtpx:TrackPointExtension xmlns:gpxtpx="http://www.garmin.com/xmlschemas/TrackPointExtension/v1">
            <gpxtpx:hr>107</gpxtpx:hr>
          </gpxtpx:TrackPointExtension>
        </extensions>
      </trkpt>
      <trkpt lat="46.06922" lon="6.23729">
        <ele>934.8</ele>
        <time>2021-03-02T12:58:24Z</time>
        <extensions>
          <gpxtpx:TrackPointExtension xmlns:gpxtpx="http://www.garmin.com/xmlschemas/TrackPointExtension/v1">
            <gpxtpx:hr>107</gpxtpx:hr>
          </gpxtpx:TrackPointExtension>
        </extensions>
      </trkpt>
      <trkpt lat="46.06923" lon="6.23737">
        <ele>934.7</ele>
        <time>2021-03-02T12:58:25Z</time>
        <extensions>
          <gpxtpx:TrackPointExtension xmlns:gpxtpx="http://www.garmin.com/xmlschemas/TrackPointExtension/v1">
            <gpxtpx:hr>108</gpxtpx:hr>
          </gpxtpx:TrackPointExtension>
        </extensions>
      </trkpt>
      <trkpt lat="46.06925" lon="6.23746">
        <ele>934.6</ele>
        <time>2021-03-02T12:58:26Z</time>
        <extensions>
          <gpxtpx:TrackPointExtension xmlns:gpxtpx="http://www.garmin.com/xmlschemas/TrackPointExtension/v1">
            <gpxtpx:hr>108</gpxtpx:hr>
          </gpxtpx:TrackPointExtension>
        </extensions>
      </trkpt>
      <trkpt lat="46.06926" lon="6.23754">
        <ele>934.5</ele>
        <time>2021-03-02T12:58:27Z</time>
        <extensions>
          <gpxtpx:TrackPointExtension xmlns:gpxtpx="http://www.garmin.com/xmlschemas/TrackPointExtension/v1">
            <gpxtpx:hr>108</gpxtpx:hr>
          </gpxtpx:TrackPointExtension>
        </extensions>
      </trkpt>
      <trkpt lat="46.06928" lon="6.23763">
        <ele>934.5</ele>
        <time>2021-03-02T12:58:28Z</time>
        <extensions>
          <gpxtpx:TrackPointExtension xmlns:gpxtpx="http://www.garmin.com/xmlschemas/TrackPointExtension/v1">
            <gpxtpx:hr>108</gpxtpx:hr>
          </gpxtpx:TrackPointExtension>
        </extensions>
      </trkpt>
      <trkpt lat="46.0693" lon="6.23771">
        <ele>934.4</ele>
        <time>2021-03-02T12:58:29Z</time>
        <extensions>
          <gpxtpx:TrackPointExtension xmlns:gpxtpx="http://www.garmin.com/xmlschemas/TrackPointExtension/v1">
            <gpxtpx:hr>108</gpxtpx:hr>
          </gpxtpx:TrackPointExtension>
        </extensions>
      </trkpt>
      <trkpt lat="46.06932" lon="6.23779">
        <ele>934.4</ele>
        <time>2021-03-02T12:58:30Z</time>
        <extensions>
          <gpxtpx:TrackPointExtension xmlns:gpxtpx="http://www.garmin.com/xmlschemas/TrackPointExtension/v1">
            <gpxtpx:hr>109</gpxtpx:hr>
          </gpxtpx:TrackPointExtension>
        </extensions>
      </trkpt>
      <trkpt lat="46.06934" lon="6.23787">
        <ele>934.4</ele>
        <time>2021-03-02T12:58:31Z</time>
        <extensions>
          <gpxtpx:TrackPointExtension xmlns:gpxtpx="http://www.garmin.com/xmlschemas/TrackPointExtension/v1">
            <gpxtpx:hr>110</gpxtpx:hr>
          </gpxtpx:TrackPointExtension>
        </extensions>
      </trkpt>
      <trkpt lat="46.06936" lon="6.23794">
        <ele>934.4</ele>
        <time>2021-03-02T12:58:32Z</time>
        <extensions>
          <gpxtpx:TrackPointExtension xmlns:gpxtpx="http://www.garmin.com/xmlschemas/TrackPointExtension/v1">
            <gpxtpx:hr>111</gpxtpx:hr>
          </gpxtpx:TrackPointExtension>
        </extensions>
      </trkpt>
      <trkpt lat="46.06937" lon="6.23802">
        <ele>934.3</ele>
        <time>2021-03-02T12:58:33Z</time>
        <extensions>
          <gpxtpx:TrackPointExtension xmlns:gpxtpx="http://www.garmin.com/xmlschemas/TrackPointExtension/v1">
            <gpxtpx:hr>112</gpxtpx:hr>
          </gpxtpx:TrackPointExtension>
        </extensions>
      </trkpt>
      <trkpt lat="46.06938" lon="6.23809">
        <ele>934.2</ele>
        <time>2021-03-02T12:58:34Z</time>
        <extensions>
          <gpxtpx:TrackPointExtension xmlns:gpxtpx="http://www.garmin.com/xmlschemas/TrackPointExtension/v1">
            <gpxtpx:hr>114</gpxtpx:hr>
          </gpxtpx:TrackPointExtension>
        </extensions>
      </trkpt>
      <trkpt lat="46.06938" lon="6.23817">
        <ele>934.1</ele>
        <time>2021-03-02T12:58:35Z</time>
        <extensions>
          <gpxtpx:TrackPointExtension xmlns:gpxtpx="http://www.garmin.com/xmlschemas/TrackPointExtension/v1">
            <gpxtpx:hr>116</gpxtpx:hr>
          </gpxtpx:TrackPointExtension>
        </extensions>
      </trkpt>
      <trkpt lat="46.06938" lon="6.23824">
        <ele>934.1</ele>
        <time>2021-03-02T12:58:36Z</time>
        <extensions>
          <gpxtpx:TrackPointExtension xmlns:gpxtpx="http://www.garmin.com/xmlschemas/TrackPointExtension/v1">
            <gpxtpx:hr>115</gpxtpx:hr>
          </gpxtpx:TrackPointExtension>
        </extensions>
      </trkpt>
      <trkpt lat="46.06937" lon="6.23832">
        <ele>933.9</ele>
        <time>2021-03-02T12:58:37Z</time>
        <extensions>
          <gpxtpx:TrackPointExtension xmlns:gpxtpx="http://www.garmin.com/xmlschemas/TrackPointExtension/v1">
            <gpxtpx:hr>115</gpxtpx:hr>
          </gpxtpx:TrackPointExtension>
        </extensions>
      </trkpt>
      <trkpt lat="46.06935" lon="6.2384">
        <ele>933.8</ele>
        <time>2021-03-02T12:58:38Z</time>
        <extensions>
          <gpxtpx:TrackPointExtension xmlns:gpxtpx="http://www.garmin.com/xmlschemas/TrackPointExtension/v1">
            <gpxtpx:hr>114</gpxtpx:hr>
          </gpxtpx:TrackPointExtension>
        </extensions>
      </trkpt>
      <trkpt lat="46.06933" lon="6.23848">
        <ele>933.7</ele>
        <time>2021-03-02T12:58:39Z</time>
        <extensions>
          <gpxtpx:TrackPointExtension xmlns:gpxtpx="http://www.garmin.com/xmlschemas/TrackPointExtension/v1">
            <gpxtpx:hr>114</gpxtpx:hr>
          </gpxtpx:TrackPointExtension>
        </extensions>
      </trkpt>
      <trkpt lat="46.0693" lon="6.23855">
        <ele>933.5</ele>
        <time>2021-03-02T12:58:40Z</time>
        <extensions>
          <gpxtpx:TrackPointExtension xmlns:gpxtpx="http://www.garmin.com/xmlschemas/TrackPointExtension/v1">
            <gpxtpx:hr>114</gpxtpx:hr>
          </gpxtpx:TrackPointExtension>
        </extensions>
      </trkpt>
      <trkpt lat="46.06926" lon="6.23862">
        <ele>933.3</ele>
        <time>2021-03-02T12:58:41Z</time>
        <extensions>
          <gpxtpx:TrackPointExtension xmlns:gpxtpx="http://www.garmin.com/xmlschemas/TrackPointExtension/v1">
            <gpxtpx:hr>113</gpxtpx:hr>
          </gpxtpx:TrackPointExtension>
        </extensions>
      </trkpt>
      <trkpt lat="46.06922" lon="6.2387">
        <ele>933.1</ele>
        <time>2021-03-02T12:58:42Z</time>
        <extensions>
          <gpxtpx:TrackPointExtension xmlns:gpxtpx="http://www.garmin.com/xmlschemas/TrackPointExtension/v1">
            <gpxtpx:hr>113</gpxtpx:hr>
          </gpxtpx:TrackPointExtension>
        </extensions>
      </trkpt>
      <trkpt lat="46.06918" lon="6.23877">
        <ele>932.9</ele>
        <time>2021-03-02T12:58:43Z</time>
        <extensions>
          <gpxtpx:TrackPointExtension xmlns:gpxtpx="http://www.garmin.com/xmlschemas/TrackPointExtension/v1">
            <gpxtpx:hr>112</gpxtpx:hr>
          </gpxtpx:TrackPointExtension>
        </extensions>
      </trkpt>
      <trkpt lat="46.06913" lon="6.23883">
        <ele>932.6</ele>
        <time>2021-03-02T12:58:44Z</time>
        <extensions>
          <gpxtpx:TrackPointExtension xmlns:gpxtpx="http://www.garmin.com/xmlschemas/TrackPointExtension/v1">
            <gpxtpx:hr>112</gpxtpx:hr>
          </gpxtpx:TrackPointExtension>
        </extensions>
      </trkpt>
      <trkpt lat="46.06908" lon="6.23889">
        <ele>932.2</ele>
        <time>2021-03-02T12:58:45Z</time>
        <extensions>
          <gpxtpx:TrackPointExtension xmlns:gpxtpx="http://www.garmin.com/xmlschemas/TrackPointExtension/v1">
            <gpxtpx:hr>111</gpxtpx:hr>
          </gpxtpx:TrackPointExtension>
        </extensions>
      </trkpt>
      <trkpt lat="46.06903" lon="6.23895">
        <ele>931.8</ele>
        <time>2021-03-02T12:58:46Z</time>
        <extensions>
          <gpxtpx:TrackPointExtension xmlns:gpxtpx="http://www.garmin.com/xmlschemas/TrackPointExtension/v1">
            <gpxtpx:hr>111</gpxtpx:hr>
          </gpxtpx:TrackPointExtension>
        </extensions>
      </trkpt>
      <trkpt lat="46.06897" lon="6.239">
        <ele>931.2</ele>
        <time>2021-03-02T12:58:47Z</time>
        <extensions>
          <gpxtpx:TrackPointExtension xmlns:gpxtpx="http://www.garmin.com/xmlschemas/TrackPointExtension/v1">
            <gpxtpx:hr>111</gpxtpx:hr>
          </gpxtpx:TrackPointExtension>
        </extensions>
      </trkpt>
      <trkpt lat="46.0689" lon="6.23904">
        <ele>930.6</ele>
        <time>2021-03-02T12:58:48Z</time>
        <extensions>
          <gpxtpx:TrackPointExtension xmlns:gpxtpx="http://www.garmin.com/xmlschemas/TrackPointExtension/v1">
            <gpxtpx:hr>111</gpxtpx:hr>
          </gpxtpx:TrackPointExtension>
        </extensions>
      </trkpt>
      <trkpt lat="46.06881" lon="6.23907">
        <ele>930</ele>
        <time>2021-03-02T12:58:49Z</time>
        <extensions>
          <gpxtpx:TrackPointExtension xmlns:gpxtpx="http://www.garmin.com/xmlschemas/TrackPointExtension/v1">
            <gpxtpx:hr>111</gpxtpx:hr>
          </gpxtpx:TrackPointExtension>
        </extensions>
      </trkpt>
      <trkpt lat="46.06873" lon="6.23909">
        <ele>929.3</ele>
        <time>2021-03-02T12:58:50Z</time>
        <extensions>
          <gpxtpx:TrackPointExtension xmlns:gpxtpx="http://www.garmin.com/xmlschemas/TrackPointExtension/v1">
            <gpxtpx:hr>111</gpxtpx:hr>
          </gpxtpx:TrackPointExtension>
        </extensions>
      </trkpt>
      <trkpt lat="46.06864" lon="6.2391">
        <ele>928.5</ele>
        <time>2021-03-02T12:58:51Z</time>
        <extensions>
          <gpxtpx:TrackPointExtension xmlns:gpxtpx="http://www.garmin.com/xmlschemas/TrackPointExtension/v1">
            <gpxtpx:hr>111</gpxtpx:hr>
          </gpxtpx:TrackPointExtension>
        </extensions>
      </trkpt>
      <trkpt lat="46.06854" lon="6.23911">
        <ele>927.6</ele>
        <time>2021-03-02T12:58:52Z</time>
        <extensions>
          <gpxtpx:TrackPointExtension xmlns:gpxtpx="http://www.garmin.com/xmlschemas/TrackPointExtension/v1">
            <gpxtpx:hr>110</gpxtpx:hr>
          </gpxtpx:TrackPointExtension>
        </extensions>
      </trkpt>
      <trkpt lat="46.06844" lon="6.23911">
        <ele>926.7</ele>
        <time>2021-03-02T12:58:53Z</time>
        <extensions>
          <gpxtpx:TrackPointExtension xmlns:gpxtpx="http://www.garmin.com/xmlschemas/TrackPointExtension/v1">
            <gpxtpx:hr>110</gpxtpx:hr>
          </gpxtpx:TrackPointExtension>
        </extensions>
      </trkpt>
      <trkpt lat="46.06834" lon="6.23911">
        <ele>925.8</ele>
        <time>2021-03-02T12:58:54Z</time>
        <extensions>
          <gpxtpx:TrackPointExtension xmlns:gpxtpx="http://www.garmin.com/xmlschemas/TrackPointExtension/v1">
            <gpxtpx:hr>110</gpxtpx:hr>
          </gpxtpx:TrackPointExtension>
        </extensions>
      </trkpt>
      <trkpt lat="46.06825" lon="6.23912">
        <ele>925</ele>
        <time>2021-03-02T12:58:55Z</time>
        <extensions>
          <gpxtpx:TrackPointExtension xmlns:gpxtpx="http://www.garmin.com/xmlschemas/TrackPointExtension/v1">
            <gpxtpx:hr>110</gpxtpx:hr>
          </gpxtpx:TrackPointExtension>
        </extensions>
      </trkpt>
      <trkpt lat="46.06816" lon="6.23915">
        <ele>924.2</ele>
        <time>2021-03-02T12:58:56Z</time>
        <extensions>
          <gpxtpx:TrackPointExtension xmlns:gpxtpx="http://www.garmin.com/xmlschemas/TrackPointExtension/v1">
            <gpxtpx:hr>110</gpxtpx:hr>
          </gpxtpx:TrackPointExtension>
        </extensions>
      </trkpt>
      <trkpt lat="46.06806" lon="6.23919">
        <ele>923.3</ele>
        <time>2021-03-02T12:58:57Z</time>
        <extensions>
          <gpxtpx:TrackPointExtension xmlns:gpxtpx="http://www.garmin.com/xmlschemas/TrackPointExtension/v1">
            <gpxtpx:hr>110</gpxtpx:hr>
          </gpxtpx:TrackPointExtension>
        </extensions>
      </trkpt>
      <trkpt lat="46.06797" lon="6.23926">
        <ele>922.6</ele>
        <time>2021-03-02T12:58:58Z</time>
        <extensions>
          <gpxtpx:TrackPointExtension xmlns:gpxtpx="http://www.garmin.com/xmlschemas/TrackPointExtension/v1">
            <gpxtpx:hr>109</gpxtpx:hr>
          </gpxtpx:TrackPointExtension>
        </extensions>
      </trkpt>
      <trkpt lat="46.06788" lon="6.23934">
        <ele>922</ele>
        <time>2021-03-02T12:58:59Z</time>
        <extensions>
          <gpxtpx:TrackPointExtension xmlns:gpxtpx="http://www.garmin.com/xmlschemas/TrackPointExtension/v1">
            <gpxtpx:hr>109</gpxtpx:hr>
          </gpxtpx:TrackPointExtension>
        </extensions>
      </trkpt>
      <trkpt lat="46.0678" lon="6.23944">
        <ele>921.5</ele>
        <time>2021-03-02T12:59:00Z</time>
        <extensions>
          <gpxtpx:TrackPointExtension xmlns:gpxtpx="http://www.garmin.com/xmlschemas/TrackPointExtension/v1">
            <gpxtpx:hr>108</gpxtpx:hr>
          </gpxtpx:TrackPointExtension>
        </extensions>
      </trkpt>
      <trkpt lat="46.06773" lon="6.23953">
        <ele>921.1</ele>
        <time>2021-03-02T12:59:01Z</time>
        <extensions>
          <gpxtpx:TrackPointExtension xmlns:gpxtpx="http://www.garmin.com/xmlschemas/TrackPointExtension/v1">
            <gpxtpx:hr>107</gpxtpx:hr>
          </gpxtpx:TrackPointExtension>
        </extensions>
      </trkpt>
      <trkpt lat="46.06766" lon="6.23962">
        <ele>920.8</ele>
        <time>2021-03-02T12:59:02Z</time>
        <extensions>
          <gpxtpx:TrackPointExtension xmlns:gpxtpx="http://www.garmin.com/xmlschemas/TrackPointExtension/v1">
            <gpxtpx:hr>108</gpxtpx:hr>
          </gpxtpx:TrackPointExtension>
        </extensions>
      </trkpt>
      <trkpt lat="46.0676" lon="6.2397">
        <ele>920.4</ele>
        <time>2021-03-02T12:59:03Z</time>
        <extensions>
          <gpxtpx:TrackPointExtension xmlns:gpxtpx="http://www.garmin.com/xmlschemas/TrackPointExtension/v1">
            <gpxtpx:hr>108</gpxtpx:hr>
          </gpxtpx:TrackPointExtension>
        </extensions>
      </trkpt>
      <trkpt lat="46.06754" lon="6.23976">
        <ele>920.1</ele>
        <time>2021-03-02T12:59:04Z</time>
        <extensions>
          <gpxtpx:TrackPointExtension xmlns:gpxtpx="http://www.garmin.com/xmlschemas/TrackPointExtension/v1">
            <gpxtpx:hr>108</gpxtpx:hr>
          </gpxtpx:TrackPointExtension>
        </extensions>
      </trkpt>
      <trkpt lat="46.06747" lon="6.2398">
        <ele>919.8</ele>
        <time>2021-03-02T12:59:05Z</time>
        <extensions>
          <gpxtpx:TrackPointExtension xmlns:gpxtpx="http://www.garmin.com/xmlschemas/TrackPointExtension/v1">
            <gpxtpx:hr>108</gpxtpx:hr>
          </gpxtpx:TrackPointExtension>
        </extensions>
      </trkpt>
      <trkpt lat="46.06739" lon="6.23979">
        <ele>919.3</ele>
        <time>2021-03-02T12:59:06Z</time>
        <extensions>
          <gpxtpx:TrackPointExtension xmlns:gpxtpx="http://www.garmin.com/xmlschemas/TrackPointExtension/v1">
            <gpxtpx:hr>108</gpxtpx:hr>
          </gpxtpx:TrackPointExtension>
        </extensions>
      </trkpt>
      <trkpt lat="46.06731" lon="6.23975">
        <ele>918.8</ele>
        <time>2021-03-02T12:59:07Z</time>
        <extensions>
          <gpxtpx:TrackPointExtension xmlns:gpxtpx="http://www.garmin.com/xmlschemas/TrackPointExtension/v1">
            <gpxtpx:hr>108</gpxtpx:hr>
          </gpxtpx:TrackPointExtension>
        </extensions>
      </trkpt>
      <trkpt lat="46.06723" lon="6.23971">
        <ele>918.4</ele>
        <time>2021-03-02T12:59:08Z</time>
        <extensions>
          <gpxtpx:TrackPointExtension xmlns:gpxtpx="http://www.garmin.com/xmlschemas/TrackPointExtension/v1">
            <gpxtpx:hr>108</gpxtpx:hr>
          </gpxtpx:TrackPointExtension>
        </extensions>
      </trkpt>
      <trkpt lat="46.06715" lon="6.23966">
        <ele>917.9</ele>
        <time>2021-03-02T12:59:09Z</time>
        <extensions>
          <gpxtpx:TrackPointExtension xmlns:gpxtpx="http://www.garmin.com/xmlschemas/TrackPointExtension/v1">
            <gpxtpx:hr>108</gpxtpx:hr>
          </gpxtpx:TrackPointExtension>
        </extensions>
      </trkpt>
      <trkpt lat="46.06707" lon="6.23962">
        <ele>917.5</ele>
        <time>2021-03-02T12:59:10Z</time>
        <extensions>
          <gpxtpx:TrackPointExtension xmlns:gpxtpx="http://www.garmin.com/xmlschemas/TrackPointExtension/v1">
            <gpxtpx:hr>108</gpxtpx:hr>
          </gpxtpx:TrackPointExtension>
        </extensions>
      </trkpt>
      <trkpt lat="46.06699" lon="6.23957">
        <ele>917</ele>
        <time>2021-03-02T12:59:11Z</time>
        <extensions>
          <gpxtpx:TrackPointExtension xmlns:gpxtpx="http://www.garmin.com/xmlschemas/TrackPointExtension/v1">
            <gpxtpx:hr>108</gpxtpx:hr>
          </gpxtpx:TrackPointExtension>
        </extensions>
      </trkpt>
      <trkpt lat="46.0669" lon="6.23952">
        <ele>916.6</ele>
        <time>2021-03-02T12:59:12Z</time>
        <extensions>
          <gpxtpx:TrackPointExtension xmlns:gpxtpx="http://www.garmin.com/xmlschemas/TrackPointExtension/v1">
            <gpxtpx:hr>108</gpxtpx:hr>
          </gpxtpx:TrackPointExtension>
        </extensions>
      </trkpt>
      <trkpt lat="46.06682" lon="6.23947">
        <ele>916.1</ele>
        <time>2021-03-02T12:59:13Z</time>
        <extensions>
          <gpxtpx:TrackPointExtension xmlns:gpxtpx="http://www.garmin.com/xmlschemas/TrackPointExtension/v1">
            <gpxtpx:hr>108</gpxtpx:hr>
          </gpxtpx:TrackPointExtension>
        </extensions>
      </trkpt>
      <trkpt lat="46.06674" lon="6.23941">
        <ele>915.7</ele>
        <time>2021-03-02T12:59:14Z</time>
        <extensions>
          <gpxtpx:TrackPointExtension xmlns:gpxtpx="http://www.garmin.com/xmlschemas/TrackPointExtension/v1">
            <gpxtpx:hr>108</gpxtpx:hr>
          </gpxtpx:TrackPointExtension>
        </extensions>
      </trkpt>
      <trkpt lat="46.06666" lon="6.23935">
        <ele>915.2</ele>
        <time>2021-03-02T12:59:15Z</time>
        <extensions>
          <gpxtpx:TrackPointExtension xmlns:gpxtpx="http://www.garmin.com/xmlschemas/TrackPointExtension/v1">
            <gpxtpx:hr>108</gpxtpx:hr>
          </gpxtpx:TrackPointExtension>
        </extensions>
      </trkpt>
      <trkpt lat="46.06658" lon="6.23929">
        <ele>914.8</ele>
        <time>2021-03-02T12:59:16Z</time>
        <extensions>
          <gpxtpx:TrackPointExtension xmlns:gpxtpx="http://www.garmin.com/xmlschemas/TrackPointExtension/v1">
            <gpxtpx:hr>107</gpxtpx:hr>
          </gpxtpx:TrackPointExtension>
        </extensions>
      </trkpt>
      <trkpt lat="46.0665" lon="6.23923">
        <ele>914.3</ele>
        <time>2021-03-02T12:59:17Z</time>
        <extensions>
          <gpxtpx:TrackPointExtension xmlns:gpxtpx="http://www.garmin.com/xmlschemas/TrackPointExtension/v1">
            <gpxtpx:hr>107</gpxtpx:hr>
          </gpxtpx:TrackPointExtension>
        </extensions>
      </trkpt>
      <trkpt lat="46.06641" lon="6.23917">
        <ele>913.6</ele>
        <time>2021-03-02T12:59:18Z</time>
        <extensions>
          <gpxtpx:TrackPointExtension xmlns:gpxtpx="http://www.garmin.com/xmlschemas/TrackPointExtension/v1">
            <gpxtpx:hr>107</gpxtpx:hr>
          </gpxtpx:TrackPointExtension>
        </extensions>
      </trkpt>
      <trkpt lat="46.06633" lon="6.23911">
        <ele>912.9</ele>
        <time>2021-03-02T12:59:19Z</time>
        <extensions>
          <gpxtpx:TrackPointExtension xmlns:gpxtpx="http://www.garmin.com/xmlschemas/TrackPointExtension/v1">
            <gpxtpx:hr>108</gpxtpx:hr>
          </gpxtpx:TrackPointExtension>
        </extensions>
      </trkpt>
      <trkpt lat="46.06624" lon="6.23905">
        <ele>912.1</ele>
        <time>2021-03-02T12:59:20Z</time>
        <extensions>
          <gpxtpx:TrackPointExtension xmlns:gpxtpx="http://www.garmin.com/xmlschemas/TrackPointExtension/v1">
            <gpxtpx:hr>108</gpxtpx:hr>
          </gpxtpx:TrackPointExtension>
        </extensions>
      </trkpt>
      <trkpt lat="46.06615" lon="6.23898">
        <ele>911.4</ele>
        <time>2021-03-02T12:59:21Z</time>
        <extensions>
          <gpxtpx:TrackPointExtension xmlns:gpxtpx="http://www.garmin.com/xmlschemas/TrackPointExtension/v1">
            <gpxtpx:hr>108</gpxtpx:hr>
          </gpxtpx:TrackPointExtension>
        </extensions>
      </trkpt>
      <trkpt lat="46.06606" lon="6.23891">
        <ele>910.7</ele>
        <time>2021-03-02T12:59:22Z</time>
        <extensions>
          <gpxtpx:TrackPointExtension xmlns:gpxtpx="http://www.garmin.com/xmlschemas/TrackPointExtension/v1">
            <gpxtpx:hr>108</gpxtpx:hr>
          </gpxtpx:TrackPointExtension>
        </extensions>
      </trkpt>
      <trkpt lat="46.06597" lon="6.23883">
        <ele>910</ele>
        <time>2021-03-02T12:59:23Z</time>
        <extensions>
          <gpxtpx:TrackPointExtension xmlns:gpxtpx="http://www.garmin.com/xmlschemas/TrackPointExtension/v1">
            <gpxtpx:hr>109</gpxtpx:hr>
          </gpxtpx:TrackPointExtension>
        </extensions>
      </trkpt>
      <trkpt lat="46.06588" lon="6.23875">
        <ele>909.4</ele>
        <time>2021-03-02T12:59:24Z</time>
        <extensions>
          <gpxtpx:TrackPointExtension xmlns:gpxtpx="http://www.garmin.com/xmlschemas/TrackPointExtension/v1">
            <gpxtpx:hr>109</gpxtpx:hr>
          </gpxtpx:TrackPointExtension>
        </extensions>
      </trkpt>
      <trkpt lat="46.06579" lon="6.23867">
        <ele>908.7</ele>
        <time>2021-03-02T12:59:25Z</time>
        <extensions>
          <gpxtpx:TrackPointExtension xmlns:gpxtpx="http://www.garmin.com/xmlschemas/TrackPointExtension/v1">
            <gpxtpx:hr>109</gpxtpx:hr>
          </gpxtpx:TrackPointExtension>
        </extensions>
      </trkpt>
      <trkpt lat="46.0657" lon="6.23859">
        <ele>908.1</ele>
        <time>2021-03-02T12:59:26Z</time>
        <extensions>
          <gpxtpx:TrackPointExtension xmlns:gpxtpx="http://www.garmin.com/xmlschemas/TrackPointExtension/v1">
            <gpxtpx:hr>109</gpxtpx:hr>
          </gpxtpx:TrackPointExtension>
        </extensions>
      </trkpt>
      <trkpt lat="46.06561" lon="6.23851">
        <ele>907.5</ele>
        <time>2021-03-02T12:59:27Z</time>
        <extensions>
          <gpxtpx:TrackPointExtension xmlns:gpxtpx="http://www.garmin.com/xmlschemas/TrackPointExtension/v1">
            <gpxtpx:hr>109</gpxtpx:hr>
          </gpxtpx:TrackPointExtension>
        </extensions>
      </trkpt>
      <trkpt lat="46.06551" lon="6.23843">
        <ele>907</ele>
        <time>2021-03-02T12:59:28Z</time>
        <extensions>
          <gpxtpx:TrackPointExtension xmlns:gpxtpx="http://www.garmin.com/xmlschemas/TrackPointExtension/v1">
            <gpxtpx:hr>109</gpxtpx:hr>
          </gpxtpx:TrackPointExtension>
        </extensions>
      </trkpt>
      <trkpt lat="46.06542" lon="6.23835">
        <ele>906.5</ele>
        <time>2021-03-02T12:59:29Z</time>
        <extensions>
          <gpxtpx:TrackPointExtension xmlns:gpxtpx="http://www.garmin.com/xmlschemas/TrackPointExtension/v1">
            <gpxtpx:hr>109</gpxtpx:hr>
          </gpxtpx:TrackPointExtension>
        </extensions>
      </trkpt>
      <trkpt lat="46.06532" lon="6.23829">
        <ele>906</ele>
        <time>2021-03-02T12:59:30Z</time>
        <extensions>
          <gpxtpx:TrackPointExtension xmlns:gpxtpx="http://www.garmin.com/xmlschemas/TrackPointExtension/v1">
            <gpxtpx:hr>109</gpxtpx:hr>
          </gpxtpx:TrackPointExtension>
        </extensions>
      </trkpt>
      <trkpt lat="46.06522" lon="6.23824">
        <ele>905.6</ele>
        <time>2021-03-02T12:59:31Z</time>
        <extensions>
          <gpxtpx:TrackPointExtension xmlns:gpxtpx="http://www.garmin.com/xmlschemas/TrackPointExtension/v1">
            <gpxtpx:hr>109</gpxtpx:hr>
          </gpxtpx:TrackPointExtension>
        </extensions>
      </trkpt>
      <trkpt lat="46.06512" lon="6.2382">
        <ele>905.2</ele>
        <time>2021-03-02T12:59:32Z</time>
        <extensions>
          <gpxtpx:TrackPointExtension xmlns:gpxtpx="http://www.garmin.com/xmlschemas/TrackPointExtension/v1">
            <gpxtpx:hr>110</gpxtpx:hr>
          </gpxtpx:TrackPointExtension>
        </extensions>
      </trkpt>
      <trkpt lat="46.06502" lon="6.2382">
        <ele>904.7</ele>
        <time>2021-03-02T12:59:33Z</time>
        <extensions>
          <gpxtpx:TrackPointExtension xmlns:gpxtpx="http://www.garmin.com/xmlschemas/TrackPointExtension/v1">
            <gpxtpx:hr>110</gpxtpx:hr>
          </gpxtpx:TrackPointExtension>
        </extensions>
      </trkpt>
      <trkpt lat="46.06491" lon="6.23823">
        <ele>904.1</ele>
        <time>2021-03-02T12:59:34Z</time>
        <extensions>
          <gpxtpx:TrackPointExtension xmlns:gpxtpx="http://www.garmin.com/xmlschemas/TrackPointExtension/v1">
            <gpxtpx:hr>110</gpxtpx:hr>
          </gpxtpx:TrackPointExtension>
        </extensions>
      </trkpt>
      <trkpt lat="46.06482" lon="6.23829">
        <ele>903.4</ele>
        <time>2021-03-02T12:59:35Z</time>
        <extensions>
          <gpxtpx:TrackPointExtension xmlns:gpxtpx="http://www.garmin.com/xmlschemas/TrackPointExtension/v1">
            <gpxtpx:hr>110</gpxtpx:hr>
          </gpxtpx:TrackPointExtension>
        </extensions>
      </trkpt>
      <trkpt lat="46.06473" lon="6.23835">
        <ele>902.5</ele>
        <time>2021-03-02T12:59:36Z</time>
        <extensions>
          <gpxtpx:TrackPointExtension xmlns:gpxtpx="http://www.garmin.com/xmlschemas/TrackPointExtension/v1">
            <gpxtpx:hr>110</gpxtpx:hr>
          </gpxtpx:TrackPointExtension>
        </extensions>
      </trkpt>
      <trkpt lat="46.06464" lon="6.2384">
        <ele>901.5</ele>
        <time>2021-03-02T12:59:37Z</time>
        <extensions>
          <gpxtpx:TrackPointExtension xmlns:gpxtpx="http://www.garmin.com/xmlschemas/TrackPointExtension/v1">
            <gpxtpx:hr>109</gpxtpx:hr>
          </gpxtpx:TrackPointExtension>
        </extensions>
      </trkpt>
      <trkpt lat="46.06455" lon="6.23843">
        <ele>900.5</ele>
        <time>2021-03-02T12:59:38Z</time>
        <extensions>
          <gpxtpx:TrackPointExtension xmlns:gpxtpx="http://www.garmin.com/xmlschemas/TrackPointExtension/v1">
            <gpxtpx:hr>108</gpxtpx:hr>
          </gpxtpx:TrackPointExtension>
        </extensions>
      </trkpt>
      <trkpt lat="46.06445" lon="6.2384">
        <ele>899.3</ele>
        <time>2021-03-02T12:59:39Z</time>
        <extensions>
          <gpxtpx:TrackPointExtension xmlns:gpxtpx="http://www.garmin.com/xmlschemas/TrackPointExtension/v1">
            <gpxtpx:hr>108</gpxtpx:hr>
          </gpxtpx:TrackPointExtension>
        </extensions>
      </trkpt>
      <trkpt lat="46.06436" lon="6.23833">
        <ele>898.2</ele>
        <time>2021-03-02T12:59:40Z</time>
        <extensions>
          <gpxtpx:TrackPointExtension xmlns:gpxtpx="http://www.garmin.com/xmlschemas/TrackPointExtension/v1">
            <gpxtpx:hr>107</gpxtpx:hr>
          </gpxtpx:TrackPointExtension>
        </extensions>
      </trkpt>
      <trkpt lat="46.06427" lon="6.23826">
        <ele>897.1</ele>
        <time>2021-03-02T12:59:41Z</time>
        <extensions>
          <gpxtpx:TrackPointExtension xmlns:gpxtpx="http://www.garmin.com/xmlschemas/TrackPointExtension/v1">
            <gpxtpx:hr>106</gpxtpx:hr>
          </gpxtpx:TrackPointExtension>
        </extensions>
      </trkpt>
      <trkpt lat="46.06418" lon="6.23818">
        <ele>896</ele>
        <time>2021-03-02T12:59:42Z</time>
        <extensions>
          <gpxtpx:TrackPointExtension xmlns:gpxtpx="http://www.garmin.com/xmlschemas/TrackPointExtension/v1">
            <gpxtpx:hr>106</gpxtpx:hr>
          </gpxtpx:TrackPointExtension>
        </extensions>
      </trkpt>
      <trkpt lat="46.06408" lon="6.23811">
        <ele>895</ele>
        <time>2021-03-02T12:59:43Z</time>
        <extensions>
          <gpxtpx:TrackPointExtension xmlns:gpxtpx="http://www.garmin.com/xmlschemas/TrackPointExtension/v1">
            <gpxtpx:hr>106</gpxtpx:hr>
          </gpxtpx:TrackPointExtension>
        </extensions>
      </trkpt>
      <trkpt lat="46.06397" lon="6.23807">
        <ele>893.9</ele>
        <time>2021-03-02T12:59:44Z</time>
        <extensions>
          <gpxtpx:TrackPointExtension xmlns:gpxtpx="http://www.garmin.com/xmlschemas/TrackPointExtension/v1">
            <gpxtpx:hr>106</gpxtpx:hr>
          </gpxtpx:TrackPointExtension>
        </extensions>
      </trkpt>
      <trkpt lat="46.06386" lon="6.23804">
        <ele>892.9</ele>
        <time>2021-03-02T12:59:45Z</time>
        <extensions>
          <gpxtpx:TrackPointExtension xmlns:gpxtpx="http://www.garmin.com/xmlschemas/TrackPointExtension/v1">
            <gpxtpx:hr>106</gpxtpx:hr>
          </gpxtpx:TrackPointExtension>
        </extensions>
      </trkpt>
      <trkpt lat="46.06375" lon="6.23802">
        <ele>891.8</ele>
        <time>2021-03-02T12:59:46Z</time>
        <extensions>
          <gpxtpx:TrackPointExtension xmlns:gpxtpx="http://www.garmin.com/xmlschemas/TrackPointExtension/v1">
            <gpxtpx:hr>107</gpxtpx:hr>
          </gpxtpx:TrackPointExtension>
        </extensions>
      </trkpt>
      <trkpt lat="46.06364" lon="6.23801">
        <ele>890.8</ele>
        <time>2021-03-02T12:59:47Z</time>
        <extensions>
          <gpxtpx:TrackPointExtension xmlns:gpxtpx="http://www.garmin.com/xmlschemas/TrackPointExtension/v1">
            <gpxtpx:hr>107</gpxtpx:hr>
          </gpxtpx:TrackPointExtension>
        </extensions>
      </trkpt>
      <trkpt lat="46.06354" lon="6.23801">
        <ele>889.8</ele>
        <time>2021-03-02T12:59:48Z</time>
        <extensions>
          <gpxtpx:TrackPointExtension xmlns:gpxtpx="http://www.garmin.com/xmlschemas/TrackPointExtension/v1">
            <gpxtpx:hr>107</gpxtpx:hr>
          </gpxtpx:TrackPointExtension>
        </extensions>
      </trkpt>
      <trkpt lat="46.06346" lon="6.23803">
        <ele>888.8</ele>
        <time>2021-03-02T12:59:49Z</time>
        <extensions>
          <gpxtpx:TrackPointExtension xmlns:gpxtpx="http://www.garmin.com/xmlschemas/TrackPointExtension/v1">
            <gpxtpx:hr>107</gpxtpx:hr>
          </gpxtpx:TrackPointExtension>
        </extensions>
      </trkpt>
      <trkpt lat="46.06338" lon="6.23808">
        <ele>887.8</ele>
        <time>2021-03-02T12:59:50Z</time>
        <extensions>
          <gpxtpx:TrackPointExtension xmlns:gpxtpx="http://www.garmin.com/xmlschemas/TrackPointExtension/v1">
            <gpxtpx:hr>107</gpxtpx:hr>
          </gpxtpx:TrackPointExtension>
        </extensions>
      </trkpt>
      <trkpt lat="46.06331" lon="6.23815">
        <ele>886.8</ele>
        <time>2021-03-02T12:59:51Z</time>
        <extensions>
          <gpxtpx:TrackPointExtension xmlns:gpxtpx="http://www.garmin.com/xmlschemas/TrackPointExtension/v1">
            <gpxtpx:hr>108</gpxtpx:hr>
          </gpxtpx:TrackPointExtension>
        </extensions>
      </trkpt>
      <trkpt lat="46.06325" lon="6.23825">
        <ele>885.8</ele>
        <time>2021-03-02T12:59:52Z</time>
        <extensions>
          <gpxtpx:TrackPointExtension xmlns:gpxtpx="http://www.garmin.com/xmlschemas/TrackPointExtension/v1">
            <gpxtpx:hr>108</gpxtpx:hr>
          </gpxtpx:TrackPointExtension>
        </extensions>
      </trkpt>
      <trkpt lat="46.0632" lon="6.23837">
        <ele>884.6</ele>
        <time>2021-03-02T12:59:53Z</time>
        <extensions>
          <gpxtpx:TrackPointExtension xmlns:gpxtpx="http://www.garmin.com/xmlschemas/TrackPointExtension/v1">
            <gpxtpx:hr>108</gpxtpx:hr>
          </gpxtpx:TrackPointExtension>
        </extensions>
      </trkpt>
      <trkpt lat="46.06315" lon="6.23849">
        <ele>883.5</ele>
        <time>2021-03-02T12:59:54Z</time>
        <extensions>
          <gpxtpx:TrackPointExtension xmlns:gpxtpx="http://www.garmin.com/xmlschemas/TrackPointExtension/v1">
            <gpxtpx:hr>108</gpxtpx:hr>
          </gpxtpx:TrackPointExtension>
        </extensions>
      </trkpt>
      <trkpt lat="46.06309" lon="6.2386">
        <ele>882.4</ele>
        <time>2021-03-02T12:59:55Z</time>
        <extensions>
          <gpxtpx:TrackPointExtension xmlns:gpxtpx="http://www.garmin.com/xmlschemas/TrackPointExtension/v1">
            <gpxtpx:hr>108</gpxtpx:hr>
          </gpxtpx:TrackPointExtension>
        </extensions>
      </trkpt>
      <trkpt lat="46.06302" lon="6.2387">
        <ele>881.2</ele>
        <time>2021-03-02T12:59:56Z</time>
        <extensions>
          <gpxtpx:TrackPointExtension xmlns:gpxtpx="http://www.garmin.com/xmlschemas/TrackPointExtension/v1">
            <gpxtpx:hr>108</gpxtpx:hr>
          </gpxtpx:TrackPointExtension>
        </extensions>
      </trkpt>
      <trkpt lat="46.06294" lon="6.2388">
        <ele>880</ele>
        <time>2021-03-02T12:59:57Z</time>
        <extensions>
          <gpxtpx:TrackPointExtension xmlns:gpxtpx="http://www.garmin.com/xmlschemas/TrackPointExtension/v1">
            <gpxtpx:hr>108</gpxtpx:hr>
          </gpxtpx:TrackPointExtension>
        </extensions>
      </trkpt>
      <trkpt lat="46.06285" lon="6.2389">
        <ele>878.8</ele>
        <time>2021-03-02T12:59:58Z</time>
        <extensions>
          <gpxtpx:TrackPointExtension xmlns:gpxtpx="http://www.garmin.com/xmlschemas/TrackPointExtension/v1">
            <gpxtpx:hr>108</gpxtpx:hr>
          </gpxtpx:TrackPointExtension>
        </extensions>
      </trkpt>
      <trkpt lat="46.06276" lon="6.239">
        <ele>877.7</ele>
        <time>2021-03-02T12:59:59Z</time>
        <extensions>
          <gpxtpx:TrackPointExtension xmlns:gpxtpx="http://www.garmin.com/xmlschemas/TrackPointExtension/v1">
            <gpxtpx:hr>108</gpxtpx:hr>
          </gpxtpx:TrackPointExtension>
        </extensions>
      </trkpt>
      <trkpt lat="46.06267" lon="6.2391">
        <ele>876.9</ele>
        <time>2021-03-02T13:00:00Z</time>
        <extensions>
          <gpxtpx:TrackPointExtension xmlns:gpxtpx="http://www.garmin.com/xmlschemas/TrackPointExtension/v1">
            <gpxtpx:hr>109</gpxtpx:hr>
          </gpxtpx:TrackPointExtension>
        </extensions>
      </trkpt>
      <trkpt lat="46.06259" lon="6.23921">
        <ele>876.1</ele>
        <time>2021-03-02T13:00:01Z</time>
        <extensions>
          <gpxtpx:TrackPointExtension xmlns:gpxtpx="http://www.garmin.com/xmlschemas/TrackPointExtension/v1">
            <gpxtpx:hr>109</gpxtpx:hr>
          </gpxtpx:TrackPointExtension>
        </extensions>
      </trkpt>
      <trkpt lat="46.06251" lon="6.23933">
        <ele>875.2</ele>
        <time>2021-03-02T13:00:02Z</time>
        <extensions>
          <gpxtpx:TrackPointExtension xmlns:gpxtpx="http://www.garmin.com/xmlschemas/TrackPointExtension/v1">
            <gpxtpx:hr>109</gpxtpx:hr>
          </gpxtpx:TrackPointExtension>
        </extensions>
      </trkpt>
      <trkpt lat="46.06243" lon="6.23944">
        <ele>874.3</ele>
        <time>2021-03-02T13:00:03Z</time>
        <extensions>
          <gpxtpx:TrackPointExtension xmlns:gpxtpx="http://www.garmin.com/xmlschemas/TrackPointExtension/v1">
            <gpxtpx:hr>110</gpxtpx:hr>
          </gpxtpx:TrackPointExtension>
        </extensions>
      </trkpt>
      <trkpt lat="46.06236" lon="6.23957">
        <ele>873.3</ele>
        <time>2021-03-02T13:00:04Z</time>
        <extensions>
          <gpxtpx:TrackPointExtension xmlns:gpxtpx="http://www.garmin.com/xmlschemas/TrackPointExtension/v1">
            <gpxtpx:hr>111</gpxtpx:hr>
          </gpxtpx:TrackPointExtension>
        </extensions>
      </trkpt>
      <trkpt lat="46.06228" lon="6.23969">
        <ele>872.2</ele>
        <time>2021-03-02T13:00:05Z</time>
        <extensions>
          <gpxtpx:TrackPointExtension xmlns:gpxtpx="http://www.garmin.com/xmlschemas/TrackPointExtension/v1">
            <gpxtpx:hr>111</gpxtpx:hr>
          </gpxtpx:TrackPointExtension>
        </extensions>
      </trkpt>
      <trkpt lat="46.06219" lon="6.23982">
        <ele>871.2</ele>
        <time>2021-03-02T13:00:06Z</time>
        <extensions>
          <gpxtpx:TrackPointExtension xmlns:gpxtpx="http://www.garmin.com/xmlschemas/TrackPointExtension/v1">
            <gpxtpx:hr>113</gpxtpx:hr>
          </gpxtpx:TrackPointExtension>
        </extensions>
      </trkpt>
      <trkpt lat="46.06211" lon="6.23994">
        <ele>870.4</ele>
        <time>2021-03-02T13:00:07Z</time>
        <extensions>
          <gpxtpx:TrackPointExtension xmlns:gpxtpx="http://www.garmin.com/xmlschemas/TrackPointExtension/v1">
            <gpxtpx:hr>114</gpxtpx:hr>
          </gpxtpx:TrackPointExtension>
        </extensions>
      </trkpt>
      <trkpt lat="46.06203" lon="6.24007">
        <ele>869.7</ele>
        <time>2021-03-02T13:00:08Z</time>
        <extensions>
          <gpxtpx:TrackPointExtension xmlns:gpxtpx="http://www.garmin.com/xmlschemas/TrackPointExtension/v1">
            <gpxtpx:hr>115</gpxtpx:hr>
          </gpxtpx:TrackPointExtension>
        </extensions>
      </trkpt>
      <trkpt lat="46.06195" lon="6.2402">
        <ele>869.1</ele>
        <time>2021-03-02T13:00:09Z</time>
        <extensions>
          <gpxtpx:TrackPointExtension xmlns:gpxtpx="http://www.garmin.com/xmlschemas/TrackPointExtension/v1">
            <gpxtpx:hr>116</gpxtpx:hr>
          </gpxtpx:TrackPointExtension>
        </extensions>
      </trkpt>
      <trkpt lat="46.06187" lon="6.24032">
        <ele>868.7</ele>
        <time>2021-03-02T13:00:10Z</time>
        <extensions>
          <gpxtpx:TrackPointExtension xmlns:gpxtpx="http://www.garmin.com/xmlschemas/TrackPointExtension/v1">
            <gpxtpx:hr>117</gpxtpx:hr>
          </gpxtpx:TrackPointExtension>
        </extensions>
      </trkpt>
      <trkpt lat="46.0618" lon="6.24043">
        <ele>868.3</ele>
        <time>2021-03-02T13:00:11Z</time>
        <extensions>
          <gpxtpx:TrackPointExtension xmlns:gpxtpx="http://www.garmin.com/xmlschemas/TrackPointExtension/v1">
            <gpxtpx:hr>118</gpxtpx:hr>
          </gpxtpx:TrackPointExtension>
        </extensions>
      </trkpt>
      <trkpt lat="46.06173" lon="6.24054">
        <ele>868</ele>
        <time>2021-03-02T13:00:12Z</time>
        <extensions>
          <gpxtpx:TrackPointExtension xmlns:gpxtpx="http://www.garmin.com/xmlschemas/TrackPointExtension/v1">
            <gpxtpx:hr>119</gpxtpx:hr>
          </gpxtpx:TrackPointExtension>
        </extensions>
      </trkpt>
      <trkpt lat="46.06166" lon="6.24063">
        <ele>867.7</ele>
        <time>2021-03-02T13:00:13Z</time>
        <extensions>
          <gpxtpx:TrackPointExtension xmlns:gpxtpx="http://www.garmin.com/xmlschemas/TrackPointExtension/v1">
            <gpxtpx:hr>120</gpxtpx:hr>
          </gpxtpx:TrackPointExtension>
        </extensions>
      </trkpt>
      <trkpt lat="46.0616" lon="6.24072">
        <ele>867.3</ele>
        <time>2021-03-02T13:00:14Z</time>
        <extensions>
          <gpxtpx:TrackPointExtension xmlns:gpxtpx="http://www.garmin.com/xmlschemas/TrackPointExtension/v1">
            <gpxtpx:hr>120</gpxtpx:hr>
          </gpxtpx:TrackPointExtension>
        </extensions>
      </trkpt>
      <trkpt lat="46.06153" lon="6.24078">
        <ele>867</ele>
        <time>2021-03-02T13:00:15Z</time>
        <extensions>
          <gpxtpx:TrackPointExtension xmlns:gpxtpx="http://www.garmin.com/xmlschemas/TrackPointExtension/v1">
            <gpxtpx:hr>120</gpxtpx:hr>
          </gpxtpx:TrackPointExtension>
        </extensions>
      </trkpt>
      <trkpt lat="46.06146" lon="6.24082">
        <ele>866.7</ele>
        <time>2021-03-02T13:00:16Z</time>
        <extensions>
          <gpxtpx:TrackPointExtension xmlns:gpxtpx="http://www.garmin.com/xmlschemas/TrackPointExtension/v1">
            <gpxtpx:hr>120</gpxtpx:hr>
          </gpxtpx:TrackPointExtension>
        </extensions>
      </trkpt>
      <trkpt lat="46.06138" lon="6.24084">
        <ele>866.3</ele>
        <time>2021-03-02T13:00:17Z</time>
        <extensions>
          <gpxtpx:TrackPointExtension xmlns:gpxtpx="http://www.garmin.com/xmlschemas/TrackPointExtension/v1">
            <gpxtpx:hr>121</gpxtpx:hr>
          </gpxtpx:TrackPointExtension>
        </extensions>
      </trkpt>
      <trkpt lat="46.0613" lon="6.24084">
        <ele>865.9</ele>
        <time>2021-03-02T13:00:18Z</time>
        <extensions>
          <gpxtpx:TrackPointExtension xmlns:gpxtpx="http://www.garmin.com/xmlschemas/TrackPointExtension/v1">
            <gpxtpx:hr>121</gpxtpx:hr>
          </gpxtpx:TrackPointExtension>
        </extensions>
      </trkpt>
      <trkpt lat="46.06122" lon="6.24082">
        <ele>865.5</ele>
        <time>2021-03-02T13:00:19Z</time>
        <extensions>
          <gpxtpx:TrackPointExtension xmlns:gpxtpx="http://www.garmin.com/xmlschemas/TrackPointExtension/v1">
            <gpxtpx:hr>121</gpxtpx:hr>
          </gpxtpx:TrackPointExtension>
        </extensions>
      </trkpt>
      <trkpt lat="46.06115" lon="6.24078">
        <ele>865.1</ele>
        <time>2021-03-02T13:00:20Z</time>
        <extensions>
          <gpxtpx:TrackPointExtension xmlns:gpxtpx="http://www.garmin.com/xmlschemas/TrackPointExtension/v1">
            <gpxtpx:hr>120</gpxtpx:hr>
          </gpxtpx:TrackPointExtension>
        </extensions>
      </trkpt>
      <trkpt lat="46.06108" lon="6.24071">
        <ele>864.7</ele>
        <time>2021-03-02T13:00:21Z</time>
        <extensions>
          <gpxtpx:TrackPointExtension xmlns:gpxtpx="http://www.garmin.com/xmlschemas/TrackPointExtension/v1">
            <gpxtpx:hr>120</gpxtpx:hr>
          </gpxtpx:TrackPointExtension>
        </extensions>
      </trkpt>
      <trkpt lat="46.06101" lon="6.24065">
        <ele>864.4</ele>
        <time>2021-03-02T13:00:22Z</time>
        <extensions>
          <gpxtpx:TrackPointExtension xmlns:gpxtpx="http://www.garmin.com/xmlschemas/TrackPointExtension/v1">
            <gpxtpx:hr>120</gpxtpx:hr>
          </gpxtpx:TrackPointExtension>
        </extensions>
      </trkpt>
      <trkpt lat="46.06095" lon="6.24058">
        <ele>863.9</ele>
        <time>2021-03-02T13:00:23Z</time>
        <extensions>
          <gpxtpx:TrackPointExtension xmlns:gpxtpx="http://www.garmin.com/xmlschemas/TrackPointExtension/v1">
            <gpxtpx:hr>120</gpxtpx:hr>
          </gpxtpx:TrackPointExtension>
        </extensions>
      </trkpt>
      <trkpt lat="46.06088" lon="6.24051">
        <ele>863.5</ele>
        <time>2021-03-02T13:00:24Z</time>
        <extensions>
          <gpxtpx:TrackPointExtension xmlns:gpxtpx="http://www.garmin.com/xmlschemas/TrackPointExtension/v1">
            <gpxtpx:hr>120</gpxtpx:hr>
          </gpxtpx:TrackPointExtension>
        </extensions>
      </trkpt>
      <trkpt lat="46.06081" lon="6.24043">
        <ele>863.1</ele>
        <time>2021-03-02T13:00:25Z</time>
        <extensions>
          <gpxtpx:TrackPointExtension xmlns:gpxtpx="http://www.garmin.com/xmlschemas/TrackPointExtension/v1">
            <gpxtpx:hr>120</gpxtpx:hr>
          </gpxtpx:TrackPointExtension>
        </extensions>
      </trkpt>
      <trkpt lat="46.06075" lon="6.24036">
        <ele>862.7</ele>
        <time>2021-03-02T13:00:26Z</time>
        <extensions>
          <gpxtpx:TrackPointExtension xmlns:gpxtpx="http://www.garmin.com/xmlschemas/TrackPointExtension/v1">
            <gpxtpx:hr>120</gpxtpx:hr>
          </gpxtpx:TrackPointExtension>
        </extensions>
      </trkpt>
      <trkpt lat="46.06068" lon="6.24029">
        <ele>862.2</ele>
        <time>2021-03-02T13:00:27Z</time>
        <extensions>
          <gpxtpx:TrackPointExtension xmlns:gpxtpx="http://www.garmin.com/xmlschemas/TrackPointExtension/v1">
            <gpxtpx:hr>119</gpxtpx:hr>
          </gpxtpx:TrackPointExtension>
        </extensions>
      </trkpt>
      <trkpt lat="46.06061" lon="6.24021">
        <ele>861.8</ele>
        <time>2021-03-02T13:00:28Z</time>
        <extensions>
          <gpxtpx:TrackPointExtension xmlns:gpxtpx="http://www.garmin.com/xmlschemas/TrackPointExtension/v1">
            <gpxtpx:hr>120</gpxtpx:hr>
          </gpxtpx:TrackPointExtension>
        </extensions>
      </trkpt>
      <trkpt lat="46.06054" lon="6.24014">
        <ele>861.4</ele>
        <time>2021-03-02T13:00:29Z</time>
        <extensions>
          <gpxtpx:TrackPointExtension xmlns:gpxtpx="http://www.garmin.com/xmlschemas/TrackPointExtension/v1">
            <gpxtpx:hr>120</gpxtpx:hr>
          </gpxtpx:TrackPointExtension>
        </extensions>
      </trkpt>
      <trkpt lat="46.06047" lon="6.24006">
        <ele>860.9</ele>
        <time>2021-03-02T13:00:30Z</time>
        <extensions>
          <gpxtpx:TrackPointExtension xmlns:gpxtpx="http://www.garmin.com/xmlschemas/TrackPointExtension/v1">
            <gpxtpx:hr>120</gpxtpx:hr>
          </gpxtpx:TrackPointExtension>
        </extensions>
      </trkpt>
      <trkpt lat="46.0604" lon="6.23998">
        <ele>860.4</ele>
        <time>2021-03-02T13:00:31Z</time>
        <extensions>
          <gpxtpx:TrackPointExtension xmlns:gpxtpx="http://www.garmin.com/xmlschemas/TrackPointExtension/v1">
            <gpxtpx:hr>120</gpxtpx:hr>
          </gpxtpx:TrackPointExtension>
        </extensions>
      </trkpt>
      <trkpt lat="46.06032" lon="6.2399">
        <ele>859.8</ele>
        <time>2021-03-02T13:00:32Z</time>
        <extensions>
          <gpxtpx:TrackPointExtension xmlns:gpxtpx="http://www.garmin.com/xmlschemas/TrackPointExtension/v1">
            <gpxtpx:hr>120</gpxtpx:hr>
          </gpxtpx:TrackPointExtension>
        </extensions>
      </trkpt>
      <trkpt lat="46.06025" lon="6.23982">
        <ele>859.3</ele>
        <time>2021-03-02T13:00:33Z</time>
        <extensions>
          <gpxtpx:TrackPointExtension xmlns:gpxtpx="http://www.garmin.com/xmlschemas/TrackPointExtension/v1">
            <gpxtpx:hr>120</gpxtpx:hr>
          </gpxtpx:TrackPointExtension>
        </extensions>
      </trkpt>
      <trkpt lat="46.06017" lon="6.23974">
        <ele>858.8</ele>
        <time>2021-03-02T13:00:34Z</time>
        <extensions>
          <gpxtpx:TrackPointExtension xmlns:gpxtpx="http://www.garmin.com/xmlschemas/TrackPointExtension/v1">
            <gpxtpx:hr>120</gpxtpx:hr>
          </gpxtpx:TrackPointExtension>
        </extensions>
      </trkpt>
      <trkpt lat="46.0601" lon="6.23966">
        <ele>858.3</ele>
        <time>2021-03-02T13:00:35Z</time>
        <extensions>
          <gpxtpx:TrackPointExtension xmlns:gpxtpx="http://www.garmin.com/xmlschemas/TrackPointExtension/v1">
            <gpxtpx:hr>120</gpxtpx:hr>
          </gpxtpx:TrackPointExtension>
        </extensions>
      </trkpt>
      <trkpt lat="46.06002" lon="6.23957">
        <ele>857.8</ele>
        <time>2021-03-02T13:00:36Z</time>
        <extensions>
          <gpxtpx:TrackPointExtension xmlns:gpxtpx="http://www.garmin.com/xmlschemas/TrackPointExtension/v1">
            <gpxtpx:hr>120</gpxtpx:hr>
          </gpxtpx:TrackPointExtension>
        </extensions>
      </trkpt>
      <trkpt lat="46.05994" lon="6.23949">
        <ele>857.3</ele>
        <time>2021-03-02T13:00:37Z</time>
        <extensions>
          <gpxtpx:TrackPointExtension xmlns:gpxtpx="http://www.garmin.com/xmlschemas/TrackPointExtension/v1">
            <gpxtpx:hr>120</gpxtpx:hr>
          </gpxtpx:TrackPointExtension>
        </extensions>
      </trkpt>
      <trkpt lat="46.05986" lon="6.2394">
        <ele>856.8</ele>
        <time>2021-03-02T13:00:38Z</time>
        <extensions>
          <gpxtpx:TrackPointExtension xmlns:gpxtpx="http://www.garmin.com/xmlschemas/TrackPointExtension/v1">
            <gpxtpx:hr>120</gpxtpx:hr>
          </gpxtpx:TrackPointExtension>
        </extensions>
      </trkpt>
      <trkpt lat="46.05978" lon="6.23931">
        <ele>856.4</ele>
        <time>2021-03-02T13:00:39Z</time>
        <extensions>
          <gpxtpx:TrackPointExtension xmlns:gpxtpx="http://www.garmin.com/xmlschemas/TrackPointExtension/v1">
            <gpxtpx:hr>120</gpxtpx:hr>
          </gpxtpx:TrackPointExtension>
        </extensions>
      </trkpt>
      <trkpt lat="46.0597" lon="6.23922">
        <ele>856.1</ele>
        <time>2021-03-02T13:00:40Z</time>
        <extensions>
          <gpxtpx:TrackPointExtension xmlns:gpxtpx="http://www.garmin.com/xmlschemas/TrackPointExtension/v1">
            <gpxtpx:hr>120</gpxtpx:hr>
          </gpxtpx:TrackPointExtension>
        </extensions>
      </trkpt>
      <trkpt lat="46.05962" lon="6.23913">
        <ele>856</ele>
        <time>2021-03-02T13:00:41Z</time>
        <extensions>
          <gpxtpx:TrackPointExtension xmlns:gpxtpx="http://www.garmin.com/xmlschemas/TrackPointExtension/v1">
            <gpxtpx:hr>120</gpxtpx:hr>
          </gpxtpx:TrackPointExtension>
        </extensions>
      </trkpt>
      <trkpt lat="46.05955" lon="6.23903">
        <ele>855.9</ele>
        <time>2021-03-02T13:00:42Z</time>
        <extensions>
          <gpxtpx:TrackPointExtension xmlns:gpxtpx="http://www.garmin.com/xmlschemas/TrackPointExtension/v1">
            <gpxtpx:hr>120</gpxtpx:hr>
          </gpxtpx:TrackPointExtension>
        </extensions>
      </trkpt>
      <trkpt lat="46.05948" lon="6.23893">
        <ele>855.8</ele>
        <time>2021-03-02T13:00:43Z</time>
        <extensions>
          <gpxtpx:TrackPointExtension xmlns:gpxtpx="http://www.garmin.com/xmlschemas/TrackPointExtension/v1">
            <gpxtpx:hr>120</gpxtpx:hr>
          </gpxtpx:TrackPointExtension>
        </extensions>
      </trkpt>
      <trkpt lat="46.05942" lon="6.23883">
        <ele>855.7</ele>
        <time>2021-03-02T13:00:44Z</time>
        <extensions>
          <gpxtpx:TrackPointExtension xmlns:gpxtpx="http://www.garmin.com/xmlschemas/TrackPointExtension/v1">
            <gpxtpx:hr>120</gpxtpx:hr>
          </gpxtpx:TrackPointExtension>
        </extensions>
      </trkpt>
      <trkpt lat="46.05937" lon="6.23872">
        <ele>855.5</ele>
        <time>2021-03-02T13:00:45Z</time>
        <extensions>
          <gpxtpx:TrackPointExtension xmlns:gpxtpx="http://www.garmin.com/xmlschemas/TrackPointExtension/v1">
            <gpxtpx:hr>121</gpxtpx:hr>
          </gpxtpx:TrackPointExtension>
        </extensions>
      </trkpt>
      <trkpt lat="46.05931" lon="6.23862">
        <ele>855.3</ele>
        <time>2021-03-02T13:00:46Z</time>
        <extensions>
          <gpxtpx:TrackPointExtension xmlns:gpxtpx="http://www.garmin.com/xmlschemas/TrackPointExtension/v1">
            <gpxtpx:hr>121</gpxtpx:hr>
          </gpxtpx:TrackPointExtension>
        </extensions>
      </trkpt>
      <trkpt lat="46.05926" lon="6.23852">
        <ele>855.2</ele>
        <time>2021-03-02T13:00:47Z</time>
        <extensions>
          <gpxtpx:TrackPointExtension xmlns:gpxtpx="http://www.garmin.com/xmlschemas/TrackPointExtension/v1">
            <gpxtpx:hr>121</gpxtpx:hr>
          </gpxtpx:TrackPointExtension>
        </extensions>
      </trkpt>
      <trkpt lat="46.0592" lon="6.23841">
        <ele>855.1</ele>
        <time>2021-03-02T13:00:48Z</time>
        <extensions>
          <gpxtpx:TrackPointExtension xmlns:gpxtpx="http://www.garmin.com/xmlschemas/TrackPointExtension/v1">
            <gpxtpx:hr>121</gpxtpx:hr>
          </gpxtpx:TrackPointExtension>
        </extensions>
      </trkpt>
      <trkpt lat="46.05915" lon="6.23831">
        <ele>855</ele>
        <time>2021-03-02T13:00:49Z</time>
        <extensions>
          <gpxtpx:TrackPointExtension xmlns:gpxtpx="http://www.garmin.com/xmlschemas/TrackPointExtension/v1">
            <gpxtpx:hr>121</gpxtpx:hr>
          </gpxtpx:TrackPointExtension>
        </extensions>
      </trkpt>
      <trkpt lat="46.0591" lon="6.23821">
        <ele>854.9</ele>
        <time>2021-03-02T13:00:50Z</time>
        <extensions>
          <gpxtpx:TrackPointExtension xmlns:gpxtpx="http://www.garmin.com/xmlschemas/TrackPointExtension/v1">
            <gpxtpx:hr>121</gpxtpx:hr>
          </gpxtpx:TrackPointExtension>
        </extensions>
      </trkpt>
      <trkpt lat="46.05904" lon="6.23811">
        <ele>854.7</ele>
        <time>2021-03-02T13:00:51Z</time>
        <extensions>
          <gpxtpx:TrackPointExtension xmlns:gpxtpx="http://www.garmin.com/xmlschemas/TrackPointExtension/v1">
            <gpxtpx:hr>121</gpxtpx:hr>
          </gpxtpx:TrackPointExtension>
        </extensions>
      </trkpt>
      <trkpt lat="46.05899" lon="6.23801">
        <ele>854.6</ele>
        <time>2021-03-02T13:00:52Z</time>
        <extensions>
          <gpxtpx:TrackPointExtension xmlns:gpxtpx="http://www.garmin.com/xmlschemas/TrackPointExtension/v1">
            <gpxtpx:hr>121</gpxtpx:hr>
          </gpxtpx:TrackPointExtension>
        </extensions>
      </trkpt>
      <trkpt lat="46.05893" lon="6.23791">
        <ele>854.4</ele>
        <time>2021-03-02T13:00:53Z</time>
        <extensions>
          <gpxtpx:TrackPointExtension xmlns:gpxtpx="http://www.garmin.com/xmlschemas/TrackPointExtension/v1">
            <gpxtpx:hr>121</gpxtpx:hr>
          </gpxtpx:TrackPointExtension>
        </extensions>
      </trkpt>
      <trkpt lat="46.05888" lon="6.23781">
        <ele>854.3</ele>
        <time>2021-03-02T13:00:54Z</time>
        <extensions>
          <gpxtpx:TrackPointExtension xmlns:gpxtpx="http://www.garmin.com/xmlschemas/TrackPointExtension/v1">
            <gpxtpx:hr>120</gpxtpx:hr>
          </gpxtpx:TrackPointExtension>
        </extensions>
      </trkpt>
      <trkpt lat="46.05882" lon="6.23771">
        <ele>854.1</ele>
        <time>2021-03-02T13:00:55Z</time>
        <extensions>
          <gpxtpx:TrackPointExtension xmlns:gpxtpx="http://www.garmin.com/xmlschemas/TrackPointExtension/v1">
            <gpxtpx:hr>120</gpxtpx:hr>
          </gpxtpx:TrackPointExtension>
        </extensions>
      </trkpt>
      <trkpt lat="46.05877" lon="6.23761">
        <ele>853.9</ele>
        <time>2021-03-02T13:00:56Z</time>
        <extensions>
          <gpxtpx:TrackPointExtension xmlns:gpxtpx="http://www.garmin.com/xmlschemas/TrackPointExtension/v1">
            <gpxtpx:hr>120</gpxtpx:hr>
          </gpxtpx:TrackPointExtension>
        </extensions>
      </trkpt>
      <trkpt lat="46.05871" lon="6.23751">
        <ele>853.7</ele>
        <time>2021-03-02T13:00:57Z</time>
        <extensions>
          <gpxtpx:TrackPointExtension xmlns:gpxtpx="http://www.garmin.com/xmlschemas/TrackPointExtension/v1">
            <gpxtpx:hr>120</gpxtpx:hr>
          </gpxtpx:TrackPointExtension>
        </extensions>
      </trkpt>
      <trkpt lat="46.05865" lon="6.23742">
        <ele>853.6</ele>
        <time>2021-03-02T13:00:58Z</time>
        <extensions>
          <gpxtpx:TrackPointExtension xmlns:gpxtpx="http://www.garmin.com/xmlschemas/TrackPointExtension/v1">
            <gpxtpx:hr>119</gpxtpx:hr>
          </gpxtpx:TrackPointExtension>
        </extensions>
      </trkpt>
      <trkpt lat="46.0586" lon="6.23733">
        <ele>853.4</ele>
        <time>2021-03-02T13:00:59Z</time>
        <extensions>
          <gpxtpx:TrackPointExtension xmlns:gpxtpx="http://www.garmin.com/xmlschemas/TrackPointExtension/v1">
            <gpxtpx:hr>118</gpxtpx:hr>
          </gpxtpx:TrackPointExtension>
        </extensions>
      </trkpt>
      <trkpt lat="46.05853" lon="6.23725">
        <ele>853.3</ele>
        <time>2021-03-02T13:01:00Z</time>
        <extensions>
          <gpxtpx:TrackPointExtension xmlns:gpxtpx="http://www.garmin.com/xmlschemas/TrackPointExtension/v1">
            <gpxtpx:hr>118</gpxtpx:hr>
          </gpxtpx:TrackPointExtension>
        </extensions>
      </trkpt>
      <trkpt lat="46.05847" lon="6.23718">
        <ele>853.3</ele>
        <time>2021-03-02T13:01:01Z</time>
        <extensions>
          <gpxtpx:TrackPointExtension xmlns:gpxtpx="http://www.garmin.com/xmlschemas/TrackPointExtension/v1">
            <gpxtpx:hr>117</gpxtpx:hr>
          </gpxtpx:TrackPointExtension>
        </extensions>
      </trkpt>
      <trkpt lat="46.05841" lon="6.23712">
        <ele>853.3</ele>
        <time>2021-03-02T13:01:02Z</time>
        <extensions>
          <gpxtpx:TrackPointExtension xmlns:gpxtpx="http://www.garmin.com/xmlschemas/TrackPointExtension/v1">
            <gpxtpx:hr>117</gpxtpx:hr>
          </gpxtpx:TrackPointExtension>
        </extensions>
      </trkpt>
      <trkpt lat="46.05834" lon="6.23706">
        <ele>853.2</ele>
        <time>2021-03-02T13:01:03Z</time>
        <extensions>
          <gpxtpx:TrackPointExtension xmlns:gpxtpx="http://www.garmin.com/xmlschemas/TrackPointExtension/v1">
            <gpxtpx:hr>117</gpxtpx:hr>
          </gpxtpx:TrackPointExtension>
        </extensions>
      </trkpt>
      <trkpt lat="46.05827" lon="6.237">
        <ele>853.1</ele>
        <time>2021-03-02T13:01:04Z</time>
        <extensions>
          <gpxtpx:TrackPointExtension xmlns:gpxtpx="http://www.garmin.com/xmlschemas/TrackPointExtension/v1">
            <gpxtpx:hr>117</gpxtpx:hr>
          </gpxtpx:TrackPointExtension>
        </extensions>
      </trkpt>
      <trkpt lat="46.0582" lon="6.23693">
        <ele>853</ele>
        <time>2021-03-02T13:01:05Z</time>
        <extensions>
          <gpxtpx:TrackPointExtension xmlns:gpxtpx="http://www.garmin.com/xmlschemas/TrackPointExtension/v1">
            <gpxtpx:hr>117</gpxtpx:hr>
          </gpxtpx:TrackPointExtension>
        </extensions>
      </trkpt>
      <trkpt lat="46.05813" lon="6.23685">
        <ele>852.9</ele>
        <time>2021-03-02T13:01:06Z</time>
        <extensions>
          <gpxtpx:TrackPointExtension xmlns:gpxtpx="http://www.garmin.com/xmlschemas/TrackPointExtension/v1">
            <gpxtpx:hr>117</gpxtpx:hr>
          </gpxtpx:TrackPointExtension>
        </extensions>
      </trkpt>
      <trkpt lat="46.05805" lon="6.2368">
        <ele>852.7</ele>
        <time>2021-03-02T13:01:07Z</time>
        <extensions>
          <gpxtpx:TrackPointExtension xmlns:gpxtpx="http://www.garmin.com/xmlschemas/TrackPointExtension/v1">
            <gpxtpx:hr>117</gpxtpx:hr>
          </gpxtpx:TrackPointExtension>
        </extensions>
      </trkpt>
      <trkpt lat="46.05797" lon="6.23675">
        <ele>852.6</ele>
        <time>2021-03-02T13:01:08Z</time>
        <extensions>
          <gpxtpx:TrackPointExtension xmlns:gpxtpx="http://www.garmin.com/xmlschemas/TrackPointExtension/v1">
            <gpxtpx:hr>117</gpxtpx:hr>
          </gpxtpx:TrackPointExtension>
        </extensions>
      </trkpt>
      <trkpt lat="46.05789" lon="6.2367">
        <ele>852.5</ele>
        <time>2021-03-02T13:01:09Z</time>
        <extensions>
          <gpxtpx:TrackPointExtension xmlns:gpxtpx="http://www.garmin.com/xmlschemas/TrackPointExtension/v1">
            <gpxtpx:hr>117</gpxtpx:hr>
          </gpxtpx:TrackPointExtension>
        </extensions>
      </trkpt>
      <trkpt lat="46.0578" lon="6.23667">
        <ele>852.4</ele>
        <time>2021-03-02T13:01:10Z</time>
        <extensions>
          <gpxtpx:TrackPointExtension xmlns:gpxtpx="http://www.garmin.com/xmlschemas/TrackPointExtension/v1">
            <gpxtpx:hr>117</gpxtpx:hr>
          </gpxtpx:TrackPointExtension>
        </extensions>
      </trkpt>
      <trkpt lat="46.05772" lon="6.23662">
        <ele>852.3</ele>
        <time>2021-03-02T13:01:11Z</time>
        <extensions>
          <gpxtpx:TrackPointExtension xmlns:gpxtpx="http://www.garmin.com/xmlschemas/TrackPointExtension/v1">
            <gpxtpx:hr>117</gpxtpx:hr>
          </gpxtpx:TrackPointExtension>
        </extensions>
      </trkpt>
      <trkpt lat="46.05764" lon="6.23658">
        <ele>852.2</ele>
        <time>2021-03-02T13:01:12Z</time>
        <extensions>
          <gpxtpx:TrackPointExtension xmlns:gpxtpx="http://www.garmin.com/xmlschemas/TrackPointExtension/v1">
            <gpxtpx:hr>117</gpxtpx:hr>
          </gpxtpx:TrackPointExtension>
        </extensions>
      </trkpt>
      <trkpt lat="46.05756" lon="6.23653">
        <ele>852</ele>
        <time>2021-03-02T13:01:13Z</time>
        <extensions>
          <gpxtpx:TrackPointExtension xmlns:gpxtpx="http://www.garmin.com/xmlschemas/TrackPointExtension/v1">
            <gpxtpx:hr>117</gpxtpx:hr>
          </gpxtpx:TrackPointExtension>
        </extensions>
      </trkpt>
      <trkpt lat="46.05748" lon="6.23649">
        <ele>851.8</ele>
        <time>2021-03-02T13:01:14Z</time>
        <extensions>
          <gpxtpx:TrackPointExtension xmlns:gpxtpx="http://www.garmin.com/xmlschemas/TrackPointExtension/v1">
            <gpxtpx:hr>117</gpxtpx:hr>
          </gpxtpx:TrackPointExtension>
        </extensions>
      </trkpt>
      <trkpt lat="46.05739" lon="6.23644">
        <ele>851.5</ele>
        <time>2021-03-02T13:01:15Z</time>
        <extensions>
          <gpxtpx:TrackPointExtension xmlns:gpxtpx="http://www.garmin.com/xmlschemas/TrackPointExtension/v1">
            <gpxtpx:hr>117</gpxtpx:hr>
          </gpxtpx:TrackPointExtension>
        </extensions>
      </trkpt>
      <trkpt lat="46.05731" lon="6.23639">
        <ele>851.2</ele>
        <time>2021-03-02T13:01:16Z</time>
        <extensions>
          <gpxtpx:TrackPointExtension xmlns:gpxtpx="http://www.garmin.com/xmlschemas/TrackPointExtension/v1">
            <gpxtpx:hr>117</gpxtpx:hr>
          </gpxtpx:TrackPointExtension>
        </extensions>
      </trkpt>
      <trkpt lat="46.05723" lon="6.23634">
        <ele>850.7</ele>
        <time>2021-03-02T13:01:17Z</time>
        <extensions>
          <gpxtpx:TrackPointExtension xmlns:gpxtpx="http://www.garmin.com/xmlschemas/TrackPointExtension/v1">
            <gpxtpx:hr>117</gpxtpx:hr>
          </gpxtpx:TrackPointExtension>
        </extensions>
      </trkpt>
      <trkpt lat="46.05715" lon="6.23628">
        <ele>850.2</ele>
        <time>2021-03-02T13:01:18Z</time>
        <extensions>
          <gpxtpx:TrackPointExtension xmlns:gpxtpx="http://www.garmin.com/xmlschemas/TrackPointExtension/v1">
            <gpxtpx:hr>117</gpxtpx:hr>
          </gpxtpx:TrackPointExtension>
        </extensions>
      </trkpt>
      <trkpt lat="46.05706" lon="6.23622">
        <ele>849.7</ele>
        <time>2021-03-02T13:01:19Z</time>
        <extensions>
          <gpxtpx:TrackPointExtension xmlns:gpxtpx="http://www.garmin.com/xmlschemas/TrackPointExtension/v1">
            <gpxtpx:hr>117</gpxtpx:hr>
          </gpxtpx:TrackPointExtension>
        </extensions>
      </trkpt>
      <trkpt lat="46.05698" lon="6.23616">
        <ele>849</ele>
        <time>2021-03-02T13:01:20Z</time>
        <extensions>
          <gpxtpx:TrackPointExtension xmlns:gpxtpx="http://www.garmin.com/xmlschemas/TrackPointExtension/v1">
            <gpxtpx:hr>117</gpxtpx:hr>
          </gpxtpx:TrackPointExtension>
        </extensions>
      </trkpt>
      <trkpt lat="46.05689" lon="6.23609">
        <ele>848.4</ele>
        <time>2021-03-02T13:01:21Z</time>
        <extensions>
          <gpxtpx:TrackPointExtension xmlns:gpxtpx="http://www.garmin.com/xmlschemas/TrackPointExtension/v1">
            <gpxtpx:hr>117</gpxtpx:hr>
          </gpxtpx:TrackPointExtension>
        </extensions>
      </trkpt>
      <trkpt lat="46.05681" lon="6.23601">
        <ele>847.8</ele>
        <time>2021-03-02T13:01:22Z</time>
        <extensions>
          <gpxtpx:TrackPointExtension xmlns:gpxtpx="http://www.garmin.com/xmlschemas/TrackPointExtension/v1">
            <gpxtpx:hr>117</gpxtpx:hr>
          </gpxtpx:TrackPointExtension>
        </extensions>
      </trkpt>
      <trkpt lat="46.05673" lon="6.23593">
        <ele>847.1</ele>
        <time>2021-03-02T13:01:23Z</time>
        <extensions>
          <gpxtpx:TrackPointExtension xmlns:gpxtpx="http://www.garmin.com/xmlschemas/TrackPointExtension/v1">
            <gpxtpx:hr>117</gpxtpx:hr>
          </gpxtpx:TrackPointExtension>
        </extensions>
      </trkpt>
      <trkpt lat="46.05664" lon="6.23585">
        <ele>846.4</ele>
        <time>2021-03-02T13:01:24Z</time>
        <extensions>
          <gpxtpx:TrackPointExtension xmlns:gpxtpx="http://www.garmin.com/xmlschemas/TrackPointExtension/v1">
            <gpxtpx:hr>117</gpxtpx:hr>
          </gpxtpx:TrackPointExtension>
        </extensions>
      </trkpt>
      <trkpt lat="46.05655" lon="6.23576">
        <ele>845.7</ele>
        <time>2021-03-02T13:01:25Z</time>
        <extensions>
          <gpxtpx:TrackPointExtension xmlns:gpxtpx="http://www.garmin.com/xmlschemas/TrackPointExtension/v1">
            <gpxtpx:hr>117</gpxtpx:hr>
          </gpxtpx:TrackPointExtension>
        </extensions>
      </trkpt>
      <trkpt lat="46.05647" lon="6.23567">
        <ele>844.9</ele>
        <time>2021-03-02T13:01:26Z</time>
        <extensions>
          <gpxtpx:TrackPointExtension xmlns:gpxtpx="http://www.garmin.com/xmlschemas/TrackPointExtension/v1">
            <gpxtpx:hr>117</gpxtpx:hr>
          </gpxtpx:TrackPointExtension>
        </extensions>
      </trkpt>
      <trkpt lat="46.05638" lon="6.23558">
        <ele>844.1</ele>
        <time>2021-03-02T13:01:27Z</time>
        <extensions>
          <gpxtpx:TrackPointExtension xmlns:gpxtpx="http://www.garmin.com/xmlschemas/TrackPointExtension/v1">
            <gpxtpx:hr>118</gpxtpx:hr>
          </gpxtpx:TrackPointExtension>
        </extensions>
      </trkpt>
      <trkpt lat="46.05629" lon="6.23548">
        <ele>843.3</ele>
        <time>2021-03-02T13:01:28Z</time>
        <extensions>
          <gpxtpx:TrackPointExtension xmlns:gpxtpx="http://www.garmin.com/xmlschemas/TrackPointExtension/v1">
            <gpxtpx:hr>117</gpxtpx:hr>
          </gpxtpx:TrackPointExtension>
        </extensions>
      </trkpt>
      <trkpt lat="46.05619" lon="6.23539">
        <ele>842.4</ele>
        <time>2021-03-02T13:01:29Z</time>
        <extensions>
          <gpxtpx:TrackPointExtension xmlns:gpxtpx="http://www.garmin.com/xmlschemas/TrackPointExtension/v1">
            <gpxtpx:hr>117</gpxtpx:hr>
          </gpxtpx:TrackPointExtension>
        </extensions>
      </trkpt>
      <trkpt lat="46.0561" lon="6.23529">
        <ele>841.6</ele>
        <time>2021-03-02T13:01:30Z</time>
        <extensions>
          <gpxtpx:TrackPointExtension xmlns:gpxtpx="http://www.garmin.com/xmlschemas/TrackPointExtension/v1">
            <gpxtpx:hr>117</gpxtpx:hr>
          </gpxtpx:TrackPointExtension>
        </extensions>
      </trkpt>
      <trkpt lat="46.056" lon="6.23519">
        <ele>840.9</ele>
        <time>2021-03-02T13:01:31Z</time>
        <extensions>
          <gpxtpx:TrackPointExtension xmlns:gpxtpx="http://www.garmin.com/xmlschemas/TrackPointExtension/v1">
            <gpxtpx:hr>118</gpxtpx:hr>
          </gpxtpx:TrackPointExtension>
        </extensions>
      </trkpt>
      <trkpt lat="46.0559" lon="6.23509">
        <ele>840.2</ele>
        <time>2021-03-02T13:01:32Z</time>
        <extensions>
          <gpxtpx:TrackPointExtension xmlns:gpxtpx="http://www.garmin.com/xmlschemas/TrackPointExtension/v1">
            <gpxtpx:hr>118</gpxtpx:hr>
          </gpxtpx:TrackPointExtension>
        </extensions>
      </trkpt>
      <trkpt lat="46.05581" lon="6.235">
        <ele>839.7</ele>
        <time>2021-03-02T13:01:33Z</time>
        <extensions>
          <gpxtpx:TrackPointExtension xmlns:gpxtpx="http://www.garmin.com/xmlschemas/TrackPointExtension/v1">
            <gpxtpx:hr>118</gpxtpx:hr>
          </gpxtpx:TrackPointExtension>
        </extensions>
      </trkpt>
      <trkpt lat="46.05571" lon="6.2349">
        <ele>839.2</ele>
        <time>2021-03-02T13:01:34Z</time>
        <extensions>
          <gpxtpx:TrackPointExtension xmlns:gpxtpx="http://www.garmin.com/xmlschemas/TrackPointExtension/v1">
            <gpxtpx:hr>118</gpxtpx:hr>
          </gpxtpx:TrackPointExtension>
        </extensions>
      </trkpt>
      <trkpt lat="46.05562" lon="6.2348">
        <ele>838.7</ele>
        <time>2021-03-02T13:01:35Z</time>
        <extensions>
          <gpxtpx:TrackPointExtension xmlns:gpxtpx="http://www.garmin.com/xmlschemas/TrackPointExtension/v1">
            <gpxtpx:hr>118</gpxtpx:hr>
          </gpxtpx:TrackPointExtension>
        </extensions>
      </trkpt>
      <trkpt lat="46.05553" lon="6.23471">
        <ele>838.3</ele>
        <time>2021-03-02T13:01:36Z</time>
        <extensions>
          <gpxtpx:TrackPointExtension xmlns:gpxtpx="http://www.garmin.com/xmlschemas/TrackPointExtension/v1">
            <gpxtpx:hr>119</gpxtpx:hr>
          </gpxtpx:TrackPointExtension>
        </extensions>
      </trkpt>
      <trkpt lat="46.05544" lon="6.23461">
        <ele>837.9</ele>
        <time>2021-03-02T13:01:37Z</time>
        <extensions>
          <gpxtpx:TrackPointExtension xmlns:gpxtpx="http://www.garmin.com/xmlschemas/TrackPointExtension/v1">
            <gpxtpx:hr>119</gpxtpx:hr>
          </gpxtpx:TrackPointExtension>
        </extensions>
      </trkpt>
      <trkpt lat="46.05535" lon="6.23452">
        <ele>837.5</ele>
        <time>2021-03-02T13:01:38Z</time>
        <extensions>
          <gpxtpx:TrackPointExtension xmlns:gpxtpx="http://www.garmin.com/xmlschemas/TrackPointExtension/v1">
            <gpxtpx:hr>119</gpxtpx:hr>
          </gpxtpx:TrackPointExtension>
        </extensions>
      </trkpt>
      <trkpt lat="46.05526" lon="6.23443">
        <ele>837.1</ele>
        <time>2021-03-02T13:01:39Z</time>
        <extensions>
          <gpxtpx:TrackPointExtension xmlns:gpxtpx="http://www.garmin.com/xmlschemas/TrackPointExtension/v1">
            <gpxtpx:hr>119</gpxtpx:hr>
          </gpxtpx:TrackPointExtension>
        </extensions>
      </trkpt>
      <trkpt lat="46.05517" lon="6.23434">
        <ele>836.8</ele>
        <time>2021-03-02T13:01:40Z</time>
        <extensions>
          <gpxtpx:TrackPointExtension xmlns:gpxtpx="http://www.garmin.com/xmlschemas/TrackPointExtension/v1">
            <gpxtpx:hr>120</gpxtpx:hr>
          </gpxtpx:TrackPointExtension>
        </extensions>
      </trkpt>
      <trkpt lat="46.05508" lon="6.23425">
        <ele>836.5</ele>
        <time>2021-03-02T13:01:41Z</time>
        <extensions>
          <gpxtpx:TrackPointExtension xmlns:gpxtpx="http://www.garmin.com/xmlschemas/TrackPointExtension/v1">
            <gpxtpx:hr>121</gpxtpx:hr>
          </gpxtpx:TrackPointExtension>
        </extensions>
      </trkpt>
      <trkpt lat="46.055" lon="6.23416">
        <ele>836.4</ele>
        <time>2021-03-02T13:01:42Z</time>
        <extensions>
          <gpxtpx:TrackPointExtension xmlns:gpxtpx="http://www.garmin.com/xmlschemas/TrackPointExtension/v1">
            <gpxtpx:hr>121</gpxtpx:hr>
          </gpxtpx:TrackPointExtension>
        </extensions>
      </trkpt>
      <trkpt lat="46.05491" lon="6.23408">
        <ele>836.1</ele>
        <time>2021-03-02T13:01:43Z</time>
        <extensions>
          <gpxtpx:TrackPointExtension xmlns:gpxtpx="http://www.garmin.com/xmlschemas/TrackPointExtension/v1">
            <gpxtpx:hr>122</gpxtpx:hr>
          </gpxtpx:TrackPointExtension>
        </extensions>
      </trkpt>
      <trkpt lat="46.05481" lon="6.23401">
        <ele>835.9</ele>
        <time>2021-03-02T13:01:44Z</time>
        <extensions>
          <gpxtpx:TrackPointExtension xmlns:gpxtpx="http://www.garmin.com/xmlschemas/TrackPointExtension/v1">
            <gpxtpx:hr>123</gpxtpx:hr>
          </gpxtpx:TrackPointExtension>
        </extensions>
      </trkpt>
      <trkpt lat="46.05472" lon="6.23394">
        <ele>835.8</ele>
        <time>2021-03-02T13:01:45Z</time>
        <extensions>
          <gpxtpx:TrackPointExtension xmlns:gpxtpx="http://www.garmin.com/xmlschemas/TrackPointExtension/v1">
            <gpxtpx:hr>123</gpxtpx:hr>
          </gpxtpx:TrackPointExtension>
        </extensions>
      </trkpt>
      <trkpt lat="46.05463" lon="6.23387">
        <ele>835.5</ele>
        <time>2021-03-02T13:01:46Z</time>
        <extensions>
          <gpxtpx:TrackPointExtension xmlns:gpxtpx="http://www.garmin.com/xmlschemas/TrackPointExtension/v1">
            <gpxtpx:hr>124</gpxtpx:hr>
          </gpxtpx:TrackPointExtension>
        </extensions>
      </trkpt>
      <trkpt lat="46.05454" lon="6.23382">
        <ele>835.2</ele>
        <time>2021-03-02T13:01:47Z</time>
        <extensions>
          <gpxtpx:TrackPointExtension xmlns:gpxtpx="http://www.garmin.com/xmlschemas/TrackPointExtension/v1">
            <gpxtpx:hr>124</gpxtpx:hr>
          </gpxtpx:TrackPointExtension>
        </extensions>
      </trkpt>
      <trkpt lat="46.05445" lon="6.23376">
        <ele>834.9</ele>
        <time>2021-03-02T13:01:48Z</time>
        <extensions>
          <gpxtpx:TrackPointExtension xmlns:gpxtpx="http://www.garmin.com/xmlschemas/TrackPointExtension/v1">
            <gpxtpx:hr>124</gpxtpx:hr>
          </gpxtpx:TrackPointExtension>
        </extensions>
      </trkpt>
      <trkpt lat="46.05436" lon="6.23371">
        <ele>834.6</ele>
        <time>2021-03-02T13:01:49Z</time>
        <extensions>
          <gpxtpx:TrackPointExtension xmlns:gpxtpx="http://www.garmin.com/xmlschemas/TrackPointExtension/v1">
            <gpxtpx:hr>124</gpxtpx:hr>
          </gpxtpx:TrackPointExtension>
        </extensions>
      </trkpt>
      <trkpt lat="46.05426" lon="6.23365">
        <ele>834.2</ele>
        <time>2021-03-02T13:01:50Z</time>
        <extensions>
          <gpxtpx:TrackPointExtension xmlns:gpxtpx="http://www.garmin.com/xmlschemas/TrackPointExtension/v1">
            <gpxtpx:hr>124</gpxtpx:hr>
          </gpxtpx:TrackPointExtension>
        </extensions>
      </trkpt>
      <trkpt lat="46.05417" lon="6.2336">
        <ele>833.9</ele>
        <time>2021-03-02T13:01:51Z</time>
        <extensions>
          <gpxtpx:TrackPointExtension xmlns:gpxtpx="http://www.garmin.com/xmlschemas/TrackPointExtension/v1">
            <gpxtpx:hr>124</gpxtpx:hr>
          </gpxtpx:TrackPointExtension>
        </extensions>
      </trkpt>
      <trkpt lat="46.05408" lon="6.23354">
        <ele>833.6</ele>
        <time>2021-03-02T13:01:52Z</time>
        <extensions>
          <gpxtpx:TrackPointExtension xmlns:gpxtpx="http://www.garmin.com/xmlschemas/TrackPointExtension/v1">
            <gpxtpx:hr>125</gpxtpx:hr>
          </gpxtpx:TrackPointExtension>
        </extensions>
      </trkpt>
      <trkpt lat="46.05398" lon="6.23348">
        <ele>833.3</ele>
        <time>2021-03-02T13:01:53Z</time>
        <extensions>
          <gpxtpx:TrackPointExtension xmlns:gpxtpx="http://www.garmin.com/xmlschemas/TrackPointExtension/v1">
            <gpxtpx:hr>125</gpxtpx:hr>
          </gpxtpx:TrackPointExtension>
        </extensions>
      </trkpt>
      <trkpt lat="46.05389" lon="6.23343">
        <ele>833.1</ele>
        <time>2021-03-02T13:01:54Z</time>
        <extensions>
          <gpxtpx:TrackPointExtension xmlns:gpxtpx="http://www.garmin.com/xmlschemas/TrackPointExtension/v1">
            <gpxtpx:hr>125</gpxtpx:hr>
          </gpxtpx:TrackPointExtension>
        </extensions>
      </trkpt>
      <trkpt lat="46.0538" lon="6.23337">
        <ele>832.8</ele>
        <time>2021-03-02T13:01:55Z</time>
        <extensions>
          <gpxtpx:TrackPointExtension xmlns:gpxtpx="http://www.garmin.com/xmlschemas/TrackPointExtension/v1">
            <gpxtpx:hr>125</gpxtpx:hr>
          </gpxtpx:TrackPointExtension>
        </extensions>
      </trkpt>
      <trkpt lat="46.0537" lon="6.23331">
        <ele>832.4</ele>
        <time>2021-03-02T13:01:56Z</time>
        <extensions>
          <gpxtpx:TrackPointExtension xmlns:gpxtpx="http://www.garmin.com/xmlschemas/TrackPointExtension/v1">
            <gpxtpx:hr>126</gpxtpx:hr>
          </gpxtpx:TrackPointExtension>
        </extensions>
      </trkpt>
      <trkpt lat="46.05361" lon="6.23326">
        <ele>832.1</ele>
        <time>2021-03-02T13:01:57Z</time>
        <extensions>
          <gpxtpx:TrackPointExtension xmlns:gpxtpx="http://www.garmin.com/xmlschemas/TrackPointExtension/v1">
            <gpxtpx:hr>126</gpxtpx:hr>
          </gpxtpx:TrackPointExtension>
        </extensions>
      </trkpt>
      <trkpt lat="46.05351" lon="6.2332">
        <ele>831.8</ele>
        <time>2021-03-02T13:01:58Z</time>
        <extensions>
          <gpxtpx:TrackPointExtension xmlns:gpxtpx="http://www.garmin.com/xmlschemas/TrackPointExtension/v1">
            <gpxtpx:hr>126</gpxtpx:hr>
          </gpxtpx:TrackPointExtension>
        </extensions>
      </trkpt>
      <trkpt lat="46.05342" lon="6.23314">
        <ele>831.5</ele>
        <time>2021-03-02T13:01:59Z</time>
        <extensions>
          <gpxtpx:TrackPointExtension xmlns:gpxtpx="http://www.garmin.com/xmlschemas/TrackPointExtension/v1">
            <gpxtpx:hr>126</gpxtpx:hr>
          </gpxtpx:TrackPointExtension>
        </extensions>
      </trkpt>
      <trkpt lat="46.05332" lon="6.23308">
        <ele>831.1</ele>
        <time>2021-03-02T13:02:00Z</time>
        <extensions>
          <gpxtpx:TrackPointExtension xmlns:gpxtpx="http://www.garmin.com/xmlschemas/TrackPointExtension/v1">
            <gpxtpx:hr>125</gpxtpx:hr>
          </gpxtpx:TrackPointExtension>
        </extensions>
      </trkpt>
      <trkpt lat="46.05323" lon="6.23302">
        <ele>830.7</ele>
        <time>2021-03-02T13:02:01Z</time>
        <extensions>
          <gpxtpx:TrackPointExtension xmlns:gpxtpx="http://www.garmin.com/xmlschemas/TrackPointExtension/v1">
            <gpxtpx:hr>125</gpxtpx:hr>
          </gpxtpx:TrackPointExtension>
        </extensions>
      </trkpt>
      <trkpt lat="46.05313" lon="6.23297">
        <ele>830.4</ele>
        <time>2021-03-02T13:02:02Z</time>
        <extensions>
          <gpxtpx:TrackPointExtension xmlns:gpxtpx="http://www.garmin.com/xmlschemas/TrackPointExtension/v1">
            <gpxtpx:hr>125</gpxtpx:hr>
          </gpxtpx:TrackPointExtension>
        </extensions>
      </trkpt>
      <trkpt lat="46.05303" lon="6.23291">
        <ele>830.1</ele>
        <time>2021-03-02T13:02:03Z</time>
        <extensions>
          <gpxtpx:TrackPointExtension xmlns:gpxtpx="http://www.garmin.com/xmlschemas/TrackPointExtension/v1">
            <gpxtpx:hr>125</gpxtpx:hr>
          </gpxtpx:TrackPointExtension>
        </extensions>
      </trkpt>
      <trkpt lat="46.05293" lon="6.23286">
        <ele>829.9</ele>
        <time>2021-03-02T13:02:04Z</time>
        <extensions>
          <gpxtpx:TrackPointExtension xmlns:gpxtpx="http://www.garmin.com/xmlschemas/TrackPointExtension/v1">
            <gpxtpx:hr>125</gpxtpx:hr>
          </gpxtpx:TrackPointExtension>
        </extensions>
      </trkpt>
      <trkpt lat="46.05284" lon="6.2328">
        <ele>829.7</ele>
        <time>2021-03-02T13:02:05Z</time>
        <extensions>
          <gpxtpx:TrackPointExtension xmlns:gpxtpx="http://www.garmin.com/xmlschemas/TrackPointExtension/v1">
            <gpxtpx:hr>125</gpxtpx:hr>
          </gpxtpx:TrackPointExtension>
        </extensions>
      </trkpt>
      <trkpt lat="46.05274" lon="6.23274">
        <ele>829.6</ele>
        <time>2021-03-02T13:02:06Z</time>
        <extensions>
          <gpxtpx:TrackPointExtension xmlns:gpxtpx="http://www.garmin.com/xmlschemas/TrackPointExtension/v1">
            <gpxtpx:hr>124</gpxtpx:hr>
          </gpxtpx:TrackPointExtension>
        </extensions>
      </trkpt>
      <trkpt lat="46.05265" lon="6.23269">
        <ele>829.5</ele>
        <time>2021-03-02T13:02:07Z</time>
        <extensions>
          <gpxtpx:TrackPointExtension xmlns:gpxtpx="http://www.garmin.com/xmlschemas/TrackPointExtension/v1">
            <gpxtpx:hr>124</gpxtpx:hr>
          </gpxtpx:TrackPointExtension>
        </extensions>
      </trkpt>
      <trkpt lat="46.05256" lon="6.23265">
        <ele>829.6</ele>
        <time>2021-03-02T13:02:08Z</time>
        <extensions>
          <gpxtpx:TrackPointExtension xmlns:gpxtpx="http://www.garmin.com/xmlschemas/TrackPointExtension/v1">
            <gpxtpx:hr>124</gpxtpx:hr>
          </gpxtpx:TrackPointExtension>
        </extensions>
      </trkpt>
      <trkpt lat="46.05247" lon="6.23261">
        <ele>829.7</ele>
        <time>2021-03-02T13:02:09Z</time>
        <extensions>
          <gpxtpx:TrackPointExtension xmlns:gpxtpx="http://www.garmin.com/xmlschemas/TrackPointExtension/v1">
            <gpxtpx:hr>124</gpxtpx:hr>
          </gpxtpx:TrackPointExtension>
        </extensions>
      </trkpt>
      <trkpt lat="46.0524" lon="6.23257">
        <ele>829.8</ele>
        <time>2021-03-02T13:02:10Z</time>
        <extensions>
          <gpxtpx:TrackPointExtension xmlns:gpxtpx="http://www.garmin.com/xmlschemas/TrackPointExtension/v1">
            <gpxtpx:hr>124</gpxtpx:hr>
          </gpxtpx:TrackPointExtension>
        </extensions>
      </trkpt>
      <trkpt lat="46.05233" lon="6.23253">
        <ele>829.9</ele>
        <time>2021-03-02T13:02:11Z</time>
        <extensions>
          <gpxtpx:TrackPointExtension xmlns:gpxtpx="http://www.garmin.com/xmlschemas/TrackPointExtension/v1">
            <gpxtpx:hr>124</gpxtpx:hr>
          </gpxtpx:TrackPointExtension>
        </extensions>
      </trkpt>
      <trkpt lat="46.05227" lon="6.23249">
        <ele>830</ele>
        <time>2021-03-02T13:02:12Z</time>
        <extensions>
          <gpxtpx:TrackPointExtension xmlns:gpxtpx="http://www.garmin.com/xmlschemas/TrackPointExtension/v1">
            <gpxtpx:hr>123</gpxtpx:hr>
          </gpxtpx:TrackPointExtension>
        </extensions>
      </trkpt>
      <trkpt lat="46.05222" lon="6.23244">
        <ele>830.1</ele>
        <time>2021-03-02T13:02:13Z</time>
        <extensions>
          <gpxtpx:TrackPointExtension xmlns:gpxtpx="http://www.garmin.com/xmlschemas/TrackPointExtension/v1">
            <gpxtpx:hr>123</gpxtpx:hr>
          </gpxtpx:TrackPointExtension>
        </extensions>
      </trkpt>
      <trkpt lat="46.05217" lon="6.23237">
        <ele>830.4</ele>
        <time>2021-03-02T13:02:14Z</time>
        <extensions>
          <gpxtpx:TrackPointExtension xmlns:gpxtpx="http://www.garmin.com/xmlschemas/TrackPointExtension/v1">
            <gpxtpx:hr>123</gpxtpx:hr>
          </gpxtpx:TrackPointExtension>
        </extensions>
      </trkpt>
      <trkpt lat="46.05214" lon="6.2323">
        <ele>830.5</ele>
        <time>2021-03-02T13:02:15Z</time>
        <extensions>
          <gpxtpx:TrackPointExtension xmlns:gpxtpx="http://www.garmin.com/xmlschemas/TrackPointExtension/v1">
            <gpxtpx:hr>123</gpxtpx:hr>
          </gpxtpx:TrackPointExtension>
        </extensions>
      </trkpt>
      <trkpt lat="46.05213" lon="6.23221">
        <ele>830.7</ele>
        <time>2021-03-02T13:02:16Z</time>
        <extensions>
          <gpxtpx:TrackPointExtension xmlns:gpxtpx="http://www.garmin.com/xmlschemas/TrackPointExtension/v1">
            <gpxtpx:hr>122</gpxtpx:hr>
          </gpxtpx:TrackPointExtension>
        </extensions>
      </trkpt>
      <trkpt lat="46.05212" lon="6.23212">
        <ele>830.9</ele>
        <time>2021-03-02T13:02:17Z</time>
        <extensions>
          <gpxtpx:TrackPointExtension xmlns:gpxtpx="http://www.garmin.com/xmlschemas/TrackPointExtension/v1">
            <gpxtpx:hr>122</gpxtpx:hr>
          </gpxtpx:TrackPointExtension>
        </extensions>
      </trkpt>
      <trkpt lat="46.05211" lon="6.23203">
        <ele>831.1</ele>
        <time>2021-03-02T13:02:18Z</time>
        <extensions>
          <gpxtpx:TrackPointExtension xmlns:gpxtpx="http://www.garmin.com/xmlschemas/TrackPointExtension/v1">
            <gpxtpx:hr>121</gpxtpx:hr>
          </gpxtpx:TrackPointExtension>
        </extensions>
      </trkpt>
      <trkpt lat="46.05211" lon="6.23194">
        <ele>831.2</ele>
        <time>2021-03-02T13:02:19Z</time>
        <extensions>
          <gpxtpx:TrackPointExtension xmlns:gpxtpx="http://www.garmin.com/xmlschemas/TrackPointExtension/v1">
            <gpxtpx:hr>121</gpxtpx:hr>
          </gpxtpx:TrackPointExtension>
        </extensions>
      </trkpt>
      <trkpt lat="46.0521" lon="6.23184">
        <ele>831.4</ele>
        <time>2021-03-02T13:02:20Z</time>
        <extensions>
          <gpxtpx:TrackPointExtension xmlns:gpxtpx="http://www.garmin.com/xmlschemas/TrackPointExtension/v1">
            <gpxtpx:hr>121</gpxtpx:hr>
          </gpxtpx:TrackPointExtension>
        </extensions>
      </trkpt>
      <trkpt lat="46.05209" lon="6.23175">
        <ele>831.5</ele>
        <time>2021-03-02T13:02:21Z</time>
        <extensions>
          <gpxtpx:TrackPointExtension xmlns:gpxtpx="http://www.garmin.com/xmlschemas/TrackPointExtension/v1">
            <gpxtpx:hr>121</gpxtpx:hr>
          </gpxtpx:TrackPointExtension>
        </extensions>
      </trkpt>
      <trkpt lat="46.05208" lon="6.23166">
        <ele>831.6</ele>
        <time>2021-03-02T13:02:22Z</time>
        <extensions>
          <gpxtpx:TrackPointExtension xmlns:gpxtpx="http://www.garmin.com/xmlschemas/TrackPointExtension/v1">
            <gpxtpx:hr>121</gpxtpx:hr>
          </gpxtpx:TrackPointExtension>
        </extensions>
      </trkpt>
      <trkpt lat="46.05207" lon="6.23156">
        <ele>831.8</ele>
        <time>2021-03-02T13:02:23Z</time>
        <extensions>
          <gpxtpx:TrackPointExtension xmlns:gpxtpx="http://www.garmin.com/xmlschemas/TrackPointExtension/v1">
            <gpxtpx:hr>121</gpxtpx:hr>
          </gpxtpx:TrackPointExtension>
        </extensions>
      </trkpt>
      <trkpt lat="46.05206" lon="6.23147">
        <ele>831.9</ele>
        <time>2021-03-02T13:02:24Z</time>
        <extensions>
          <gpxtpx:TrackPointExtension xmlns:gpxtpx="http://www.garmin.com/xmlschemas/TrackPointExtension/v1">
            <gpxtpx:hr>121</gpxtpx:hr>
          </gpxtpx:TrackPointExtension>
        </extensions>
      </trkpt>
      <trkpt lat="46.05205" lon="6.23138">
        <ele>832</ele>
        <time>2021-03-02T13:02:25Z</time>
        <extensions>
          <gpxtpx:TrackPointExtension xmlns:gpxtpx="http://www.garmin.com/xmlschemas/TrackPointExtension/v1">
            <gpxtpx:hr>122</gpxtpx:hr>
          </gpxtpx:TrackPointExtension>
        </extensions>
      </trkpt>
      <trkpt lat="46.05204" lon="6.23129">
        <ele>832.1</ele>
        <time>2021-03-02T13:02:26Z</time>
        <extensions>
          <gpxtpx:TrackPointExtension xmlns:gpxtpx="http://www.garmin.com/xmlschemas/TrackPointExtension/v1">
            <gpxtpx:hr>121</gpxtpx:hr>
          </gpxtpx:TrackPointExtension>
        </extensions>
      </trkpt>
      <trkpt lat="46.05204" lon="6.23119">
        <ele>832.3</ele>
        <time>2021-03-02T13:02:27Z</time>
        <extensions>
          <gpxtpx:TrackPointExtension xmlns:gpxtpx="http://www.garmin.com/xmlschemas/TrackPointExtension/v1">
            <gpxtpx:hr>121</gpxtpx:hr>
          </gpxtpx:TrackPointExtension>
        </extensions>
      </trkpt>
      <trkpt lat="46.05204" lon="6.23109">
        <ele>832.5</ele>
        <time>2021-03-02T13:02:28Z</time>
        <extensions>
          <gpxtpx:TrackPointExtension xmlns:gpxtpx="http://www.garmin.com/xmlschemas/TrackPointExtension/v1">
            <gpxtpx:hr>121</gpxtpx:hr>
          </gpxtpx:TrackPointExtension>
        </extensions>
      </trkpt>
      <trkpt lat="46.05204" lon="6.23099">
        <ele>832.7</ele>
        <time>2021-03-02T13:02:29Z</time>
        <extensions>
          <gpxtpx:TrackPointExtension xmlns:gpxtpx="http://www.garmin.com/xmlschemas/TrackPointExtension/v1">
            <gpxtpx:hr>121</gpxtpx:hr>
          </gpxtpx:TrackPointExtension>
        </extensions>
      </trkpt>
      <trkpt lat="46.05203" lon="6.23091">
        <ele>832.9</ele>
        <time>2021-03-02T13:02:30Z</time>
        <extensions>
          <gpxtpx:TrackPointExtension xmlns:gpxtpx="http://www.garmin.com/xmlschemas/TrackPointExtension/v1">
            <gpxtpx:hr>121</gpxtpx:hr>
          </gpxtpx:TrackPointExtension>
        </extensions>
      </trkpt>
      <trkpt lat="46.052" lon="6.23083">
        <ele>832.8</ele>
        <time>2021-03-02T13:02:31Z</time>
        <extensions>
          <gpxtpx:TrackPointExtension xmlns:gpxtpx="http://www.garmin.com/xmlschemas/TrackPointExtension/v1">
            <gpxtpx:hr>121</gpxtpx:hr>
          </gpxtpx:TrackPointExtension>
        </extensions>
      </trkpt>
      <trkpt lat="46.05196" lon="6.23076">
        <ele>832.5</ele>
        <time>2021-03-02T13:02:32Z</time>
        <extensions>
          <gpxtpx:TrackPointExtension xmlns:gpxtpx="http://www.garmin.com/xmlschemas/TrackPointExtension/v1">
            <gpxtpx:hr>121</gpxtpx:hr>
          </gpxtpx:TrackPointExtension>
        </extensions>
      </trkpt>
      <trkpt lat="46.0519" lon="6.2307">
        <ele>832.2</ele>
        <time>2021-03-02T13:02:33Z</time>
        <extensions>
          <gpxtpx:TrackPointExtension xmlns:gpxtpx="http://www.garmin.com/xmlschemas/TrackPointExtension/v1">
            <gpxtpx:hr>121</gpxtpx:hr>
          </gpxtpx:TrackPointExtension>
        </extensions>
      </trkpt>
      <trkpt lat="46.05184" lon="6.23065">
        <ele>831.9</ele>
        <time>2021-03-02T13:02:34Z</time>
        <extensions>
          <gpxtpx:TrackPointExtension xmlns:gpxtpx="http://www.garmin.com/xmlschemas/TrackPointExtension/v1">
            <gpxtpx:hr>121</gpxtpx:hr>
          </gpxtpx:TrackPointExtension>
        </extensions>
      </trkpt>
      <trkpt lat="46.05178" lon="6.23059">
        <ele>831.6</ele>
        <time>2021-03-02T13:02:35Z</time>
        <extensions>
          <gpxtpx:TrackPointExtension xmlns:gpxtpx="http://www.garmin.com/xmlschemas/TrackPointExtension/v1">
            <gpxtpx:hr>121</gpxtpx:hr>
          </gpxtpx:TrackPointExtension>
        </extensions>
      </trkpt>
      <trkpt lat="46.05171" lon="6.23053">
        <ele>831.3</ele>
        <time>2021-03-02T13:02:36Z</time>
        <extensions>
          <gpxtpx:TrackPointExtension xmlns:gpxtpx="http://www.garmin.com/xmlschemas/TrackPointExtension/v1">
            <gpxtpx:hr>121</gpxtpx:hr>
          </gpxtpx:TrackPointExtension>
        </extensions>
      </trkpt>
      <trkpt lat="46.05165" lon="6.23046">
        <ele>831.1</ele>
        <time>2021-03-02T13:02:37Z</time>
        <extensions>
          <gpxtpx:TrackPointExtension xmlns:gpxtpx="http://www.garmin.com/xmlschemas/TrackPointExtension/v1">
            <gpxtpx:hr>121</gpxtpx:hr>
          </gpxtpx:TrackPointExtension>
        </extensions>
      </trkpt>
      <trkpt lat="46.05159" lon="6.2304">
        <ele>831</ele>
        <time>2021-03-02T13:02:38Z</time>
        <extensions>
          <gpxtpx:TrackPointExtension xmlns:gpxtpx="http://www.garmin.com/xmlschemas/TrackPointExtension/v1">
            <gpxtpx:hr>121</gpxtpx:hr>
          </gpxtpx:TrackPointExtension>
        </extensions>
      </trkpt>
      <trkpt lat="46.05152" lon="6.23034">
        <ele>830.8</ele>
        <time>2021-03-02T13:02:39Z</time>
        <extensions>
          <gpxtpx:TrackPointExtension xmlns:gpxtpx="http://www.garmin.com/xmlschemas/TrackPointExtension/v1">
            <gpxtpx:hr>121</gpxtpx:hr>
          </gpxtpx:TrackPointExtension>
        </extensions>
      </trkpt>
      <trkpt lat="46.05146" lon="6.23028">
        <ele>830.7</ele>
        <time>2021-03-02T13:02:40Z</time>
        <extensions>
          <gpxtpx:TrackPointExtension xmlns:gpxtpx="http://www.garmin.com/xmlschemas/TrackPointExtension/v1">
            <gpxtpx:hr>121</gpxtpx:hr>
          </gpxtpx:TrackPointExtension>
        </extensions>
      </trkpt>
      <trkpt lat="46.0514" lon="6.23022">
        <ele>830.6</ele>
        <time>2021-03-02T13:02:41Z</time>
        <extensions>
          <gpxtpx:TrackPointExtension xmlns:gpxtpx="http://www.garmin.com/xmlschemas/TrackPointExtension/v1">
            <gpxtpx:hr>121</gpxtpx:hr>
          </gpxtpx:TrackPointExtension>
        </extensions>
      </trkpt>
      <trkpt lat="46.05135" lon="6.23015">
        <ele>830.6</ele>
        <time>2021-03-02T13:02:42Z</time>
        <extensions>
          <gpxtpx:TrackPointExtension xmlns:gpxtpx="http://www.garmin.com/xmlschemas/TrackPointExtension/v1">
            <gpxtpx:hr>121</gpxtpx:hr>
          </gpxtpx:TrackPointExtension>
        </extensions>
      </trkpt>
      <trkpt lat="46.0513" lon="6.23007">
        <ele>830.5</ele>
        <time>2021-03-02T13:02:43Z</time>
        <extensions>
          <gpxtpx:TrackPointExtension xmlns:gpxtpx="http://www.garmin.com/xmlschemas/TrackPointExtension/v1">
            <gpxtpx:hr>121</gpxtpx:hr>
          </gpxtpx:TrackPointExtension>
        </extensions>
      </trkpt>
      <trkpt lat="46.05125" lon="6.22999">
        <ele>830.4</ele>
        <time>2021-03-02T13:02:44Z</time>
        <extensions>
          <gpxtpx:TrackPointExtension xmlns:gpxtpx="http://www.garmin.com/xmlschemas/TrackPointExtension/v1">
            <gpxtpx:hr>121</gpxtpx:hr>
          </gpxtpx:TrackPointExtension>
        </extensions>
      </trkpt>
      <trkpt lat="46.0512" lon="6.2299">
        <ele>830.4</ele>
        <time>2021-03-02T13:02:45Z</time>
        <extensions>
          <gpxtpx:TrackPointExtension xmlns:gpxtpx="http://www.garmin.com/xmlschemas/TrackPointExtension/v1">
            <gpxtpx:hr>121</gpxtpx:hr>
          </gpxtpx:TrackPointExtension>
        </extensions>
      </trkpt>
      <trkpt lat="46.05115" lon="6.22981">
        <ele>830.3</ele>
        <time>2021-03-02T13:02:46Z</time>
        <extensions>
          <gpxtpx:TrackPointExtension xmlns:gpxtpx="http://www.garmin.com/xmlschemas/TrackPointExtension/v1">
            <gpxtpx:hr>121</gpxtpx:hr>
          </gpxtpx:TrackPointExtension>
        </extensions>
      </trkpt>
      <trkpt lat="46.0511" lon="6.22972">
        <ele>830.3</ele>
        <time>2021-03-02T13:02:47Z</time>
        <extensions>
          <gpxtpx:TrackPointExtension xmlns:gpxtpx="http://www.garmin.com/xmlschemas/TrackPointExtension/v1">
            <gpxtpx:hr>122</gpxtpx:hr>
          </gpxtpx:TrackPointExtension>
        </extensions>
      </trkpt>
      <trkpt lat="46.05106" lon="6.22964">
        <ele>830.2</ele>
        <time>2021-03-02T13:02:48Z</time>
        <extensions>
          <gpxtpx:TrackPointExtension xmlns:gpxtpx="http://www.garmin.com/xmlschemas/TrackPointExtension/v1">
            <gpxtpx:hr>121</gpxtpx:hr>
          </gpxtpx:TrackPointExtension>
        </extensions>
      </trkpt>
      <trkpt lat="46.05101" lon="6.22955">
        <ele>830.2</ele>
        <time>2021-03-02T13:02:49Z</time>
        <extensions>
          <gpxtpx:TrackPointExtension xmlns:gpxtpx="http://www.garmin.com/xmlschemas/TrackPointExtension/v1">
            <gpxtpx:hr>121</gpxtpx:hr>
          </gpxtpx:TrackPointExtension>
        </extensions>
      </trkpt>
      <trkpt lat="46.05096" lon="6.22946">
        <ele>830.2</ele>
        <time>2021-03-02T13:02:50Z</time>
        <extensions>
          <gpxtpx:TrackPointExtension xmlns:gpxtpx="http://www.garmin.com/xmlschemas/TrackPointExtension/v1">
            <gpxtpx:hr>121</gpxtpx:hr>
          </gpxtpx:TrackPointExtension>
        </extensions>
      </trkpt>
      <trkpt lat="46.05091" lon="6.22937">
        <ele>830.2</ele>
        <time>2021-03-02T13:02:51Z</time>
        <extensions>
          <gpxtpx:TrackPointExtension xmlns:gpxtpx="http://www.garmin.com/xmlschemas/TrackPointExtension/v1">
            <gpxtpx:hr>122</gpxtpx:hr>
          </gpxtpx:TrackPointExtension>
        </extensions>
      </trkpt>
      <trkpt lat="46.05086" lon="6.22927">
        <ele>830.2</ele>
        <time>2021-03-02T13:02:52Z</time>
        <extensions>
          <gpxtpx:TrackPointExtension xmlns:gpxtpx="http://www.garmin.com/xmlschemas/TrackPointExtension/v1">
            <gpxtpx:hr>122</gpxtpx:hr>
          </gpxtpx:TrackPointExtension>
        </extensions>
      </trkpt>
      <trkpt lat="46.05082" lon="6.22918">
        <ele>830.2</ele>
        <time>2021-03-02T13:02:53Z</time>
        <extensions>
          <gpxtpx:TrackPointExtension xmlns:gpxtpx="http://www.garmin.com/xmlschemas/TrackPointExtension/v1">
            <gpxtpx:hr>122</gpxtpx:hr>
          </gpxtpx:TrackPointExtension>
        </extensions>
      </trkpt>
      <trkpt lat="46.05078" lon="6.22909">
        <ele>830.3</ele>
        <time>2021-03-02T13:02:54Z</time>
        <extensions>
          <gpxtpx:TrackPointExtension xmlns:gpxtpx="http://www.garmin.com/xmlschemas/TrackPointExtension/v1">
            <gpxtpx:hr>122</gpxtpx:hr>
          </gpxtpx:TrackPointExtension>
        </extensions>
      </trkpt>
      <trkpt lat="46.05073" lon="6.22899">
        <ele>830.3</ele>
        <time>2021-03-02T13:02:55Z</time>
        <extensions>
          <gpxtpx:TrackPointExtension xmlns:gpxtpx="http://www.garmin.com/xmlschemas/TrackPointExtension/v1">
            <gpxtpx:hr>121</gpxtpx:hr>
          </gpxtpx:TrackPointExtension>
        </extensions>
      </trkpt>
      <trkpt lat="46.05069" lon="6.2289">
        <ele>830.4</ele>
        <time>2021-03-02T13:02:56Z</time>
        <extensions>
          <gpxtpx:TrackPointExtension xmlns:gpxtpx="http://www.garmin.com/xmlschemas/TrackPointExtension/v1">
            <gpxtpx:hr>121</gpxtpx:hr>
          </gpxtpx:TrackPointExtension>
        </extensions>
      </trkpt>
      <trkpt lat="46.05065" lon="6.22881">
        <ele>830.5</ele>
        <time>2021-03-02T13:02:57Z</time>
        <extensions>
          <gpxtpx:TrackPointExtension xmlns:gpxtpx="http://www.garmin.com/xmlschemas/TrackPointExtension/v1">
            <gpxtpx:hr>121</gpxtpx:hr>
          </gpxtpx:TrackPointExtension>
        </extensions>
      </trkpt>
      <trkpt lat="46.0506" lon="6.22873">
        <ele>830.6</ele>
        <time>2021-03-02T13:02:58Z</time>
        <extensions>
          <gpxtpx:TrackPointExtension xmlns:gpxtpx="http://www.garmin.com/xmlschemas/TrackPointExtension/v1">
            <gpxtpx:hr>121</gpxtpx:hr>
          </gpxtpx:TrackPointExtension>
        </extensions>
      </trkpt>
      <trkpt lat="46.05056" lon="6.22864">
        <ele>830.7</ele>
        <time>2021-03-02T13:02:59Z</time>
        <extensions>
          <gpxtpx:TrackPointExtension xmlns:gpxtpx="http://www.garmin.com/xmlschemas/TrackPointExtension/v1">
            <gpxtpx:hr>121</gpxtpx:hr>
          </gpxtpx:TrackPointExtension>
        </extensions>
      </trkpt>
      <trkpt lat="46.05051" lon="6.22856">
        <ele>830.9</ele>
        <time>2021-03-02T13:03:00Z</time>
        <extensions>
          <gpxtpx:TrackPointExtension xmlns:gpxtpx="http://www.garmin.com/xmlschemas/TrackPointExtension/v1">
            <gpxtpx:hr>121</gpxtpx:hr>
          </gpxtpx:TrackPointExtension>
        </extensions>
      </trkpt>
      <trkpt lat="46.05045" lon="6.22849">
        <ele>831</ele>
        <time>2021-03-02T13:03:01Z</time>
        <extensions>
          <gpxtpx:TrackPointExtension xmlns:gpxtpx="http://www.garmin.com/xmlschemas/TrackPointExtension/v1">
            <gpxtpx:hr>120</gpxtpx:hr>
          </gpxtpx:TrackPointExtension>
        </extensions>
      </trkpt>
      <trkpt lat="46.0504" lon="6.22842">
        <ele>831.1</ele>
        <time>2021-03-02T13:03:02Z</time>
        <extensions>
          <gpxtpx:TrackPointExtension xmlns:gpxtpx="http://www.garmin.com/xmlschemas/TrackPointExtension/v1">
            <gpxtpx:hr>120</gpxtpx:hr>
          </gpxtpx:TrackPointExtension>
        </extensions>
      </trkpt>
      <trkpt lat="46.05034" lon="6.22836">
        <ele>831.2</ele>
        <time>2021-03-02T13:03:03Z</time>
        <extensions>
          <gpxtpx:TrackPointExtension xmlns:gpxtpx="http://www.garmin.com/xmlschemas/TrackPointExtension/v1">
            <gpxtpx:hr>119</gpxtpx:hr>
          </gpxtpx:TrackPointExtension>
        </extensions>
      </trkpt>
      <trkpt lat="46.05029" lon="6.2283">
        <ele>831.3</ele>
        <time>2021-03-02T13:03:04Z</time>
        <extensions>
          <gpxtpx:TrackPointExtension xmlns:gpxtpx="http://www.garmin.com/xmlschemas/TrackPointExtension/v1">
            <gpxtpx:hr>119</gpxtpx:hr>
          </gpxtpx:TrackPointExtension>
        </extensions>
      </trkpt>
      <trkpt lat="46.05023" lon="6.22825">
        <ele>831.4</ele>
        <time>2021-03-02T13:03:05Z</time>
        <extensions>
          <gpxtpx:TrackPointExtension xmlns:gpxtpx="http://www.garmin.com/xmlschemas/TrackPointExtension/v1">
            <gpxtpx:hr>119</gpxtpx:hr>
          </gpxtpx:TrackPointExtension>
        </extensions>
      </trkpt>
      <trkpt lat="46.05017" lon="6.22819">
        <ele>831.5</ele>
        <time>2021-03-02T13:03:06Z</time>
        <extensions>
          <gpxtpx:TrackPointExtension xmlns:gpxtpx="http://www.garmin.com/xmlschemas/TrackPointExtension/v1">
            <gpxtpx:hr>118</gpxtpx:hr>
          </gpxtpx:TrackPointExtension>
        </extensions>
      </trkpt>
      <trkpt lat="46.05011" lon="6.22814">
        <ele>831.6</ele>
        <time>2021-03-02T13:03:07Z</time>
        <extensions>
          <gpxtpx:TrackPointExtension xmlns:gpxtpx="http://www.garmin.com/xmlschemas/TrackPointExtension/v1">
            <gpxtpx:hr>118</gpxtpx:hr>
          </gpxtpx:TrackPointExtension>
        </extensions>
      </trkpt>
      <trkpt lat="46.05006" lon="6.22808">
        <ele>831.6</ele>
        <time>2021-03-02T13:03:08Z</time>
        <extensions>
          <gpxtpx:TrackPointExtension xmlns:gpxtpx="http://www.garmin.com/xmlschemas/TrackPointExtension/v1">
            <gpxtpx:hr>118</gpxtpx:hr>
          </gpxtpx:TrackPointExtension>
        </extensions>
      </trkpt>
      <trkpt lat="46.05" lon="6.22803">
        <ele>831.6</ele>
        <time>2021-03-02T13:03:09Z</time>
        <extensions>
          <gpxtpx:TrackPointExtension xmlns:gpxtpx="http://www.garmin.com/xmlschemas/TrackPointExtension/v1">
            <gpxtpx:hr>118</gpxtpx:hr>
          </gpxtpx:TrackPointExtension>
        </extensions>
      </trkpt>
      <trkpt lat="46.04995" lon="6.22798">
        <ele>831.6</ele>
        <time>2021-03-02T13:03:10Z</time>
        <extensions>
          <gpxtpx:TrackPointExtension xmlns:gpxtpx="http://www.garmin.com/xmlschemas/TrackPointExtension/v1">
            <gpxtpx:hr>117</gpxtpx:hr>
          </gpxtpx:TrackPointExtension>
        </extensions>
      </trkpt>
      <trkpt lat="46.04989" lon="6.22793">
        <ele>831.4</ele>
        <time>2021-03-02T13:03:11Z</time>
        <extensions>
          <gpxtpx:TrackPointExtension xmlns:gpxtpx="http://www.garmin.com/xmlschemas/TrackPointExtension/v1">
            <gpxtpx:hr>117</gpxtpx:hr>
          </gpxtpx:TrackPointExtension>
        </extensions>
      </trkpt>
      <trkpt lat="46.04983" lon="6.22788">
        <ele>831.2</ele>
        <time>2021-03-02T13:03:12Z</time>
        <extensions>
          <gpxtpx:TrackPointExtension xmlns:gpxtpx="http://www.garmin.com/xmlschemas/TrackPointExtension/v1">
            <gpxtpx:hr>116</gpxtpx:hr>
          </gpxtpx:TrackPointExtension>
        </extensions>
      </trkpt>
      <trkpt lat="46.04977" lon="6.22783">
        <ele>831</ele>
        <time>2021-03-02T13:03:13Z</time>
        <extensions>
          <gpxtpx:TrackPointExtension xmlns:gpxtpx="http://www.garmin.com/xmlschemas/TrackPointExtension/v1">
            <gpxtpx:hr>116</gpxtpx:hr>
          </gpxtpx:TrackPointExtension>
        </extensions>
      </trkpt>
      <trkpt lat="46.04972" lon="6.22778">
        <ele>830.7</ele>
        <time>2021-03-02T13:03:14Z</time>
        <extensions>
          <gpxtpx:TrackPointExtension xmlns:gpxtpx="http://www.garmin.com/xmlschemas/TrackPointExtension/v1">
            <gpxtpx:hr>115</gpxtpx:hr>
          </gpxtpx:TrackPointExtension>
        </extensions>
      </trkpt>
      <trkpt lat="46.04966" lon="6.22773">
        <ele>830.4</ele>
        <time>2021-03-02T13:03:15Z</time>
        <extensions>
          <gpxtpx:TrackPointExtension xmlns:gpxtpx="http://www.garmin.com/xmlschemas/TrackPointExtension/v1">
            <gpxtpx:hr>115</gpxtpx:hr>
          </gpxtpx:TrackPointExtension>
        </extensions>
      </trkpt>
      <trkpt lat="46.04959" lon="6.22767">
        <ele>830</ele>
        <time>2021-03-02T13:03:16Z</time>
        <extensions>
          <gpxtpx:TrackPointExtension xmlns:gpxtpx="http://www.garmin.com/xmlschemas/TrackPointExtension/v1">
            <gpxtpx:hr>115</gpxtpx:hr>
          </gpxtpx:TrackPointExtension>
        </extensions>
      </trkpt>
      <trkpt lat="46.04953" lon="6.22762">
        <ele>829.5</ele>
        <time>2021-03-02T13:03:17Z</time>
        <extensions>
          <gpxtpx:TrackPointExtension xmlns:gpxtpx="http://www.garmin.com/xmlschemas/TrackPointExtension/v1">
            <gpxtpx:hr>114</gpxtpx:hr>
          </gpxtpx:TrackPointExtension>
        </extensions>
      </trkpt>
      <trkpt lat="46.04947" lon="6.22757">
        <ele>829</ele>
        <time>2021-03-02T13:03:18Z</time>
        <extensions>
          <gpxtpx:TrackPointExtension xmlns:gpxtpx="http://www.garmin.com/xmlschemas/TrackPointExtension/v1">
            <gpxtpx:hr>114</gpxtpx:hr>
          </gpxtpx:TrackPointExtension>
        </extensions>
      </trkpt>
      <trkpt lat="46.0494" lon="6.22751">
        <ele>828.4</ele>
        <time>2021-03-02T13:03:19Z</time>
        <extensions>
          <gpxtpx:TrackPointExtension xmlns:gpxtpx="http://www.garmin.com/xmlschemas/TrackPointExtension/v1">
            <gpxtpx:hr>114</gpxtpx:hr>
          </gpxtpx:TrackPointExtension>
        </extensions>
      </trkpt>
      <trkpt lat="46.04932" lon="6.22745">
        <ele>827.6</ele>
        <time>2021-03-02T13:03:20Z</time>
        <extensions>
          <gpxtpx:TrackPointExtension xmlns:gpxtpx="http://www.garmin.com/xmlschemas/TrackPointExtension/v1">
            <gpxtpx:hr>114</gpxtpx:hr>
          </gpxtpx:TrackPointExtension>
        </extensions>
      </trkpt>
      <trkpt lat="46.04924" lon="6.2274">
        <ele>826.9</ele>
        <time>2021-03-02T13:03:21Z</time>
        <extensions>
          <gpxtpx:TrackPointExtension xmlns:gpxtpx="http://www.garmin.com/xmlschemas/TrackPointExtension/v1">
            <gpxtpx:hr>113</gpxtpx:hr>
          </gpxtpx:TrackPointExtension>
        </extensions>
      </trkpt>
      <trkpt lat="46.04917" lon="6.22735">
        <ele>826.3</ele>
        <time>2021-03-02T13:03:22Z</time>
        <extensions>
          <gpxtpx:TrackPointExtension xmlns:gpxtpx="http://www.garmin.com/xmlschemas/TrackPointExtension/v1">
            <gpxtpx:hr>111</gpxtpx:hr>
          </gpxtpx:TrackPointExtension>
        </extensions>
      </trkpt>
      <trkpt lat="46.0491" lon="6.22731">
        <ele>825.8</ele>
        <time>2021-03-02T13:03:23Z</time>
        <extensions>
          <gpxtpx:TrackPointExtension xmlns:gpxtpx="http://www.garmin.com/xmlschemas/TrackPointExtension/v1">
            <gpxtpx:hr>110</gpxtpx:hr>
          </gpxtpx:TrackPointExtension>
        </extensions>
      </trkpt>
      <trkpt lat="46.04904" lon="6.22728">
        <ele>825.3</ele>
        <time>2021-03-02T13:03:24Z</time>
        <extensions>
          <gpxtpx:TrackPointExtension xmlns:gpxtpx="http://www.garmin.com/xmlschemas/TrackPointExtension/v1">
            <gpxtpx:hr>109</gpxtpx:hr>
          </gpxtpx:TrackPointExtension>
        </extensions>
      </trkpt>
      <trkpt lat="46.04899" lon="6.22724">
        <ele>824.9</ele>
        <time>2021-03-02T13:03:25Z</time>
        <extensions>
          <gpxtpx:TrackPointExtension xmlns:gpxtpx="http://www.garmin.com/xmlschemas/TrackPointExtension/v1">
            <gpxtpx:hr>108</gpxtpx:hr>
          </gpxtpx:TrackPointExtension>
        </extensions>
      </trkpt>
      <trkpt lat="46.04894" lon="6.22721">
        <ele>824.5</ele>
        <time>2021-03-02T13:03:26Z</time>
        <extensions>
          <gpxtpx:TrackPointExtension xmlns:gpxtpx="http://www.garmin.com/xmlschemas/TrackPointExtension/v1">
            <gpxtpx:hr>107</gpxtpx:hr>
          </gpxtpx:TrackPointExtension>
        </extensions>
      </trkpt>
      <trkpt lat="46.04889" lon="6.22716">
        <ele>824</ele>
        <time>2021-03-02T13:03:27Z</time>
        <extensions>
          <gpxtpx:TrackPointExtension xmlns:gpxtpx="http://www.garmin.com/xmlschemas/TrackPointExtension/v1">
            <gpxtpx:hr>107</gpxtpx:hr>
          </gpxtpx:TrackPointExtension>
        </extensions>
      </trkpt>
      <trkpt lat="46.04883" lon="6.22709">
        <ele>823.5</ele>
        <time>2021-03-02T13:03:28Z</time>
        <extensions>
          <gpxtpx:TrackPointExtension xmlns:gpxtpx="http://www.garmin.com/xmlschemas/TrackPointExtension/v1">
            <gpxtpx:hr>107</gpxtpx:hr>
          </gpxtpx:TrackPointExtension>
        </extensions>
      </trkpt>
      <trkpt lat="46.04879" lon="6.227">
        <ele>823.1</ele>
        <time>2021-03-02T13:03:29Z</time>
        <extensions>
          <gpxtpx:TrackPointExtension xmlns:gpxtpx="http://www.garmin.com/xmlschemas/TrackPointExtension/v1">
            <gpxtpx:hr>106</gpxtpx:hr>
          </gpxtpx:TrackPointExtension>
        </extensions>
      </trkpt>
      <trkpt lat="46.04875" lon="6.22691">
        <ele>822.7</ele>
        <time>2021-03-02T13:03:30Z</time>
        <extensions>
          <gpxtpx:TrackPointExtension xmlns:gpxtpx="http://www.garmin.com/xmlschemas/TrackPointExtension/v1">
            <gpxtpx:hr>107</gpxtpx:hr>
          </gpxtpx:TrackPointExtension>
        </extensions>
      </trkpt>
      <trkpt lat="46.04872" lon="6.22681">
        <ele>822.4</ele>
        <time>2021-03-02T13:03:31Z</time>
        <extensions>
          <gpxtpx:TrackPointExtension xmlns:gpxtpx="http://www.garmin.com/xmlschemas/TrackPointExtension/v1">
            <gpxtpx:hr>107</gpxtpx:hr>
          </gpxtpx:TrackPointExtension>
        </extensions>
      </trkpt>
      <trkpt lat="46.04869" lon="6.2267">
        <ele>822</ele>
        <time>2021-03-02T13:03:32Z</time>
        <extensions>
          <gpxtpx:TrackPointExtension xmlns:gpxtpx="http://www.garmin.com/xmlschemas/TrackPointExtension/v1">
            <gpxtpx:hr>107</gpxtpx:hr>
          </gpxtpx:TrackPointExtension>
        </extensions>
      </trkpt>
      <trkpt lat="46.04866" lon="6.2266">
        <ele>821.7</ele>
        <time>2021-03-02T13:03:33Z</time>
        <extensions>
          <gpxtpx:TrackPointExtension xmlns:gpxtpx="http://www.garmin.com/xmlschemas/TrackPointExtension/v1">
            <gpxtpx:hr>107</gpxtpx:hr>
          </gpxtpx:TrackPointExtension>
        </extensions>
      </trkpt>
      <trkpt lat="46.04862" lon="6.22649">
        <ele>821.3</ele>
        <time>2021-03-02T13:03:34Z</time>
        <extensions>
          <gpxtpx:TrackPointExtension xmlns:gpxtpx="http://www.garmin.com/xmlschemas/TrackPointExtension/v1">
            <gpxtpx:hr>107</gpxtpx:hr>
          </gpxtpx:TrackPointExtension>
        </extensions>
      </trkpt>
      <trkpt lat="46.04859" lon="6.22639">
        <ele>820.9</ele>
        <time>2021-03-02T13:03:35Z</time>
        <extensions>
          <gpxtpx:TrackPointExtension xmlns:gpxtpx="http://www.garmin.com/xmlschemas/TrackPointExtension/v1">
            <gpxtpx:hr>107</gpxtpx:hr>
          </gpxtpx:TrackPointExtension>
        </extensions>
      </trkpt>
      <trkpt lat="46.04855" lon="6.22628">
        <ele>820.4</ele>
        <time>2021-03-02T13:03:36Z</time>
        <extensions>
          <gpxtpx:TrackPointExtension xmlns:gpxtpx="http://www.garmin.com/xmlschemas/TrackPointExtension/v1">
            <gpxtpx:hr>107</gpxtpx:hr>
          </gpxtpx:TrackPointExtension>
        </extensions>
      </trkpt>
      <trkpt lat="46.04852" lon="6.22618">
        <ele>819.9</ele>
        <time>2021-03-02T13:03:37Z</time>
        <extensions>
          <gpxtpx:TrackPointExtension xmlns:gpxtpx="http://www.garmin.com/xmlschemas/TrackPointExtension/v1">
            <gpxtpx:hr>107</gpxtpx:hr>
          </gpxtpx:TrackPointExtension>
        </extensions>
      </trkpt>
      <trkpt lat="46.04848" lon="6.22607">
        <ele>819.4</ele>
        <time>2021-03-02T13:03:38Z</time>
        <extensions>
          <gpxtpx:TrackPointExtension xmlns:gpxtpx="http://www.garmin.com/xmlschemas/TrackPointExtension/v1">
            <gpxtpx:hr>107</gpxtpx:hr>
          </gpxtpx:TrackPointExtension>
        </extensions>
      </trkpt>
      <trkpt lat="46.04844" lon="6.22597">
        <ele>818.7</ele>
        <time>2021-03-02T13:03:39Z</time>
        <extensions>
          <gpxtpx:TrackPointExtension xmlns:gpxtpx="http://www.garmin.com/xmlschemas/TrackPointExtension/v1">
            <gpxtpx:hr>107</gpxtpx:hr>
          </gpxtpx:TrackPointExtension>
        </extensions>
      </trkpt>
      <trkpt lat="46.04839" lon="6.22587">
        <ele>818.1</ele>
        <time>2021-03-02T13:03:40Z</time>
        <extensions>
          <gpxtpx:TrackPointExtension xmlns:gpxtpx="http://www.garmin.com/xmlschemas/TrackPointExtension/v1">
            <gpxtpx:hr>108</gpxtpx:hr>
          </gpxtpx:TrackPointExtension>
        </extensions>
      </trkpt>
      <trkpt lat="46.04833" lon="6.22578">
        <ele>817.4</ele>
        <time>2021-03-02T13:03:41Z</time>
        <extensions>
          <gpxtpx:TrackPointExtension xmlns:gpxtpx="http://www.garmin.com/xmlschemas/TrackPointExtension/v1">
            <gpxtpx:hr>108</gpxtpx:hr>
          </gpxtpx:TrackPointExtension>
        </extensions>
      </trkpt>
      <trkpt lat="46.04826" lon="6.22569">
        <ele>816.7</ele>
        <time>2021-03-02T13:03:42Z</time>
        <extensions>
          <gpxtpx:TrackPointExtension xmlns:gpxtpx="http://www.garmin.com/xmlschemas/TrackPointExtension/v1">
            <gpxtpx:hr>108</gpxtpx:hr>
          </gpxtpx:TrackPointExtension>
        </extensions>
      </trkpt>
      <trkpt lat="46.04819" lon="6.2256">
        <ele>816</ele>
        <time>2021-03-02T13:03:43Z</time>
        <extensions>
          <gpxtpx:TrackPointExtension xmlns:gpxtpx="http://www.garmin.com/xmlschemas/TrackPointExtension/v1">
            <gpxtpx:hr>107</gpxtpx:hr>
          </gpxtpx:TrackPointExtension>
        </extensions>
      </trkpt>
      <trkpt lat="46.04812" lon="6.22551">
        <ele>815.2</ele>
        <time>2021-03-02T13:03:44Z</time>
        <extensions>
          <gpxtpx:TrackPointExtension xmlns:gpxtpx="http://www.garmin.com/xmlschemas/TrackPointExtension/v1">
            <gpxtpx:hr>107</gpxtpx:hr>
          </gpxtpx:TrackPointExtension>
        </extensions>
      </trkpt>
      <trkpt lat="46.04804" lon="6.22542">
        <ele>814.5</ele>
        <time>2021-03-02T13:03:45Z</time>
        <extensions>
          <gpxtpx:TrackPointExtension xmlns:gpxtpx="http://www.garmin.com/xmlschemas/TrackPointExtension/v1">
            <gpxtpx:hr>107</gpxtpx:hr>
          </gpxtpx:TrackPointExtension>
        </extensions>
      </trkpt>
      <trkpt lat="46.04796" lon="6.22533">
        <ele>813.9</ele>
        <time>2021-03-02T13:03:46Z</time>
        <extensions>
          <gpxtpx:TrackPointExtension xmlns:gpxtpx="http://www.garmin.com/xmlschemas/TrackPointExtension/v1">
            <gpxtpx:hr>106</gpxtpx:hr>
          </gpxtpx:TrackPointExtension>
        </extensions>
      </trkpt>
      <trkpt lat="46.04788" lon="6.22524">
        <ele>813.4</ele>
        <time>2021-03-02T13:03:47Z</time>
        <extensions>
          <gpxtpx:TrackPointExtension xmlns:gpxtpx="http://www.garmin.com/xmlschemas/TrackPointExtension/v1">
            <gpxtpx:hr>106</gpxtpx:hr>
          </gpxtpx:TrackPointExtension>
        </extensions>
      </trkpt>
      <trkpt lat="46.0478" lon="6.22514">
        <ele>813</ele>
        <time>2021-03-02T13:03:48Z</time>
        <extensions>
          <gpxtpx:TrackPointExtension xmlns:gpxtpx="http://www.garmin.com/xmlschemas/TrackPointExtension/v1">
            <gpxtpx:hr>105</gpxtpx:hr>
          </gpxtpx:TrackPointExtension>
        </extensions>
      </trkpt>
      <trkpt lat="46.04771" lon="6.22505">
        <ele>812.7</ele>
        <time>2021-03-02T13:03:49Z</time>
        <extensions>
          <gpxtpx:TrackPointExtension xmlns:gpxtpx="http://www.garmin.com/xmlschemas/TrackPointExtension/v1">
            <gpxtpx:hr>105</gpxtpx:hr>
          </gpxtpx:TrackPointExtension>
        </extensions>
      </trkpt>
      <trkpt lat="46.04763" lon="6.22496">
        <ele>812.5</ele>
        <time>2021-03-02T13:03:50Z</time>
        <extensions>
          <gpxtpx:TrackPointExtension xmlns:gpxtpx="http://www.garmin.com/xmlschemas/TrackPointExtension/v1">
            <gpxtpx:hr>103</gpxtpx:hr>
          </gpxtpx:TrackPointExtension>
        </extensions>
      </trkpt>
      <trkpt lat="46.04755" lon="6.22487">
        <ele>812.4</ele>
        <time>2021-03-02T13:03:51Z</time>
        <extensions>
          <gpxtpx:TrackPointExtension xmlns:gpxtpx="http://www.garmin.com/xmlschemas/TrackPointExtension/v1">
            <gpxtpx:hr>101</gpxtpx:hr>
          </gpxtpx:TrackPointExtension>
        </extensions>
      </trkpt>
      <trkpt lat="46.04748" lon="6.22478">
        <ele>812.4</ele>
        <time>2021-03-02T13:03:52Z</time>
        <extensions>
          <gpxtpx:TrackPointExtension xmlns:gpxtpx="http://www.garmin.com/xmlschemas/TrackPointExtension/v1">
            <gpxtpx:hr>102</gpxtpx:hr>
          </gpxtpx:TrackPointExtension>
        </extensions>
      </trkpt>
      <trkpt lat="46.0474" lon="6.2247">
        <ele>812.4</ele>
        <time>2021-03-02T13:03:53Z</time>
        <extensions>
          <gpxtpx:TrackPointExtension xmlns:gpxtpx="http://www.garmin.com/xmlschemas/TrackPointExtension/v1">
            <gpxtpx:hr>103</gpxtpx:hr>
          </gpxtpx:TrackPointExtension>
        </extensions>
      </trkpt>
      <trkpt lat="46.04733" lon="6.22461">
        <ele>812.4</ele>
        <time>2021-03-02T13:03:54Z</time>
        <extensions>
          <gpxtpx:TrackPointExtension xmlns:gpxtpx="http://www.garmin.com/xmlschemas/TrackPointExtension/v1">
            <gpxtpx:hr>103</gpxtpx:hr>
          </gpxtpx:TrackPointExtension>
        </extensions>
      </trkpt>
      <trkpt lat="46.04726" lon="6.22453">
        <ele>812.5</ele>
        <time>2021-03-02T13:03:55Z</time>
        <extensions>
          <gpxtpx:TrackPointExtension xmlns:gpxtpx="http://www.garmin.com/xmlschemas/TrackPointExtension/v1">
            <gpxtpx:hr>104</gpxtpx:hr>
          </gpxtpx:TrackPointExtension>
        </extensions>
      </trkpt>
      <trkpt lat="46.04719" lon="6.22445">
        <ele>812.6</ele>
        <time>2021-03-02T13:03:56Z</time>
        <extensions>
          <gpxtpx:TrackPointExtension xmlns:gpxtpx="http://www.garmin.com/xmlschemas/TrackPointExtension/v1">
            <gpxtpx:hr>104</gpxtpx:hr>
          </gpxtpx:TrackPointExtension>
        </extensions>
      </trkpt>
      <trkpt lat="46.04712" lon="6.22437">
        <ele>812.8</ele>
        <time>2021-03-02T13:03:57Z</time>
        <extensions>
          <gpxtpx:TrackPointExtension xmlns:gpxtpx="http://www.garmin.com/xmlschemas/TrackPointExtension/v1">
            <gpxtpx:hr>104</gpxtpx:hr>
          </gpxtpx:TrackPointExtension>
        </extensions>
      </trkpt>
      <trkpt lat="46.04705" lon="6.2243">
        <ele>813</ele>
        <time>2021-03-02T13:03:58Z</time>
        <extensions>
          <gpxtpx:TrackPointExtension xmlns:gpxtpx="http://www.garmin.com/xmlschemas/TrackPointExtension/v1">
            <gpxtpx:hr>104</gpxtpx:hr>
          </gpxtpx:TrackPointExtension>
        </extensions>
      </trkpt>
      <trkpt lat="46.04698" lon="6.22422">
        <ele>813.3</ele>
        <time>2021-03-02T13:03:59Z</time>
        <extensions>
          <gpxtpx:TrackPointExtension xmlns:gpxtpx="http://www.garmin.com/xmlschemas/TrackPointExtension/v1">
            <gpxtpx:hr>104</gpxtpx:hr>
          </gpxtpx:TrackPointExtension>
        </extensions>
      </trkpt>
      <trkpt lat="46.04692" lon="6.22414">
        <ele>813.6</ele>
        <time>2021-03-02T13:04:00Z</time>
        <extensions>
          <gpxtpx:TrackPointExtension xmlns:gpxtpx="http://www.garmin.com/xmlschemas/TrackPointExtension/v1">
            <gpxtpx:hr>103</gpxtpx:hr>
          </gpxtpx:TrackPointExtension>
        </extensions>
      </trkpt>
      <trkpt lat="46.04685" lon="6.22407">
        <ele>814</ele>
        <time>2021-03-02T13:04:01Z</time>
        <extensions>
          <gpxtpx:TrackPointExtension xmlns:gpxtpx="http://www.garmin.com/xmlschemas/TrackPointExtension/v1">
            <gpxtpx:hr>103</gpxtpx:hr>
          </gpxtpx:TrackPointExtension>
        </extensions>
      </trkpt>
      <trkpt lat="46.04679" lon="6.224">
        <ele>814.3</ele>
        <time>2021-03-02T13:04:02Z</time>
        <extensions>
          <gpxtpx:TrackPointExtension xmlns:gpxtpx="http://www.garmin.com/xmlschemas/TrackPointExtension/v1">
            <gpxtpx:hr>102</gpxtpx:hr>
          </gpxtpx:TrackPointExtension>
        </extensions>
      </trkpt>
      <trkpt lat="46.04673" lon="6.22393">
        <ele>814.6</ele>
        <time>2021-03-02T13:04:03Z</time>
        <extensions>
          <gpxtpx:TrackPointExtension xmlns:gpxtpx="http://www.garmin.com/xmlschemas/TrackPointExtension/v1">
            <gpxtpx:hr>102</gpxtpx:hr>
          </gpxtpx:TrackPointExtension>
        </extensions>
      </trkpt>
      <trkpt lat="46.04667" lon="6.22386">
        <ele>814.9</ele>
        <time>2021-03-02T13:04:04Z</time>
        <extensions>
          <gpxtpx:TrackPointExtension xmlns:gpxtpx="http://www.garmin.com/xmlschemas/TrackPointExtension/v1">
            <gpxtpx:hr>101</gpxtpx:hr>
          </gpxtpx:TrackPointExtension>
        </extensions>
      </trkpt>
      <trkpt lat="46.04661" lon="6.22379">
        <ele>815.1</ele>
        <time>2021-03-02T13:04:05Z</time>
        <extensions>
          <gpxtpx:TrackPointExtension xmlns:gpxtpx="http://www.garmin.com/xmlschemas/TrackPointExtension/v1">
            <gpxtpx:hr>101</gpxtpx:hr>
          </gpxtpx:TrackPointExtension>
        </extensions>
      </trkpt>
      <trkpt lat="46.04656" lon="6.22371">
        <ele>815.3</ele>
        <time>2021-03-02T13:04:06Z</time>
        <extensions>
          <gpxtpx:TrackPointExtension xmlns:gpxtpx="http://www.garmin.com/xmlschemas/TrackPointExtension/v1">
            <gpxtpx:hr>100</gpxtpx:hr>
          </gpxtpx:TrackPointExtension>
        </extensions>
      </trkpt>
      <trkpt lat="46.04651" lon="6.22364">
        <ele>815.5</ele>
        <time>2021-03-02T13:04:07Z</time>
        <extensions>
          <gpxtpx:TrackPointExtension xmlns:gpxtpx="http://www.garmin.com/xmlschemas/TrackPointExtension/v1">
            <gpxtpx:hr>100</gpxtpx:hr>
          </gpxtpx:TrackPointExtension>
        </extensions>
      </trkpt>
      <trkpt lat="46.04646" lon="6.22356">
        <ele>815.6</ele>
        <time>2021-03-02T13:04:08Z</time>
        <extensions>
          <gpxtpx:TrackPointExtension xmlns:gpxtpx="http://www.garmin.com/xmlschemas/TrackPointExtension/v1">
            <gpxtpx:hr>99</gpxtpx:hr>
          </gpxtpx:TrackPointExtension>
        </extensions>
      </trkpt>
      <trkpt lat="46.04641" lon="6.22349">
        <ele>815.7</ele>
        <time>2021-03-02T13:04:09Z</time>
        <extensions>
          <gpxtpx:TrackPointExtension xmlns:gpxtpx="http://www.garmin.com/xmlschemas/TrackPointExtension/v1">
            <gpxtpx:hr>99</gpxtpx:hr>
          </gpxtpx:TrackPointExtension>
        </extensions>
      </trkpt>
      <trkpt lat="46.04636" lon="6.22341">
        <ele>815.8</ele>
        <time>2021-03-02T13:04:10Z</time>
        <extensions>
          <gpxtpx:TrackPointExtension xmlns:gpxtpx="http://www.garmin.com/xmlschemas/TrackPointExtension/v1">
            <gpxtpx:hr>98</gpxtpx:hr>
          </gpxtpx:TrackPointExtension>
        </extensions>
      </trkpt>
      <trkpt lat="46.04631" lon="6.22333">
        <ele>815.9</ele>
        <time>2021-03-02T13:04:11Z</time>
        <extensions>
          <gpxtpx:TrackPointExtension xmlns:gpxtpx="http://www.garmin.com/xmlschemas/TrackPointExtension/v1">
            <gpxtpx:hr>98</gpxtpx:hr>
          </gpxtpx:TrackPointExtension>
        </extensions>
      </trkpt>
      <trkpt lat="46.04627" lon="6.22324">
        <ele>815.9</ele>
        <time>2021-03-02T13:04:12Z</time>
        <extensions>
          <gpxtpx:TrackPointExtension xmlns:gpxtpx="http://www.garmin.com/xmlschemas/TrackPointExtension/v1">
            <gpxtpx:hr>98</gpxtpx:hr>
          </gpxtpx:TrackPointExtension>
        </extensions>
      </trkpt>
      <trkpt lat="46.04622" lon="6.22316">
        <ele>815.9</ele>
        <time>2021-03-02T13:04:13Z</time>
        <extensions>
          <gpxtpx:TrackPointExtension xmlns:gpxtpx="http://www.garmin.com/xmlschemas/TrackPointExtension/v1">
            <gpxtpx:hr>97</gpxtpx:hr>
          </gpxtpx:TrackPointExtension>
        </extensions>
      </trkpt>
      <trkpt lat="46.04617" lon="6.22307">
        <ele>816</ele>
        <time>2021-03-02T13:04:14Z</time>
        <extensions>
          <gpxtpx:TrackPointExtension xmlns:gpxtpx="http://www.garmin.com/xmlschemas/TrackPointExtension/v1">
            <gpxtpx:hr>96</gpxtpx:hr>
          </gpxtpx:TrackPointExtension>
        </extensions>
      </trkpt>
      <trkpt lat="46.04612" lon="6.22299">
        <ele>816</ele>
        <time>2021-03-02T13:04:15Z</time>
        <extensions>
          <gpxtpx:TrackPointExtension xmlns:gpxtpx="http://www.garmin.com/xmlschemas/TrackPointExtension/v1">
            <gpxtpx:hr>96</gpxtpx:hr>
          </gpxtpx:TrackPointExtension>
        </extensions>
      </trkpt>
      <trkpt lat="46.04608" lon="6.2229">
        <ele>816.1</ele>
        <time>2021-03-02T13:04:16Z</time>
        <extensions>
          <gpxtpx:TrackPointExtension xmlns:gpxtpx="http://www.garmin.com/xmlschemas/TrackPointExtension/v1">
            <gpxtpx:hr>95</gpxtpx:hr>
          </gpxtpx:TrackPointExtension>
        </extensions>
      </trkpt>
      <trkpt lat="46.04603" lon="6.22282">
        <ele>816.1</ele>
        <time>2021-03-02T13:04:17Z</time>
        <extensions>
          <gpxtpx:TrackPointExtension xmlns:gpxtpx="http://www.garmin.com/xmlschemas/TrackPointExtension/v1">
            <gpxtpx:hr>94</gpxtpx:hr>
          </gpxtpx:TrackPointExtension>
        </extensions>
      </trkpt>
      <trkpt lat="46.04598" lon="6.22273">
        <ele>816</ele>
        <time>2021-03-02T13:04:18Z</time>
        <extensions>
          <gpxtpx:TrackPointExtension xmlns:gpxtpx="http://www.garmin.com/xmlschemas/TrackPointExtension/v1">
            <gpxtpx:hr>93</gpxtpx:hr>
          </gpxtpx:TrackPointExtension>
        </extensions>
      </trkpt>
      <trkpt lat="46.04593" lon="6.22265">
        <ele>816</ele>
        <time>2021-03-02T13:04:19Z</time>
        <extensions>
          <gpxtpx:TrackPointExtension xmlns:gpxtpx="http://www.garmin.com/xmlschemas/TrackPointExtension/v1">
            <gpxtpx:hr>92</gpxtpx:hr>
          </gpxtpx:TrackPointExtension>
        </extensions>
      </trkpt>
      <trkpt lat="46.04588" lon="6.22256">
        <ele>815.9</ele>
        <time>2021-03-02T13:04:20Z</time>
        <extensions>
          <gpxtpx:TrackPointExtension xmlns:gpxtpx="http://www.garmin.com/xmlschemas/TrackPointExtension/v1">
            <gpxtpx:hr>90</gpxtpx:hr>
          </gpxtpx:TrackPointExtension>
        </extensions>
      </trkpt>
      <trkpt lat="46.04583" lon="6.22247">
        <ele>815.9</ele>
        <time>2021-03-02T13:04:21Z</time>
        <extensions>
          <gpxtpx:TrackPointExtension xmlns:gpxtpx="http://www.garmin.com/xmlschemas/TrackPointExtension/v1">
            <gpxtpx:hr>89</gpxtpx:hr>
          </gpxtpx:TrackPointExtension>
        </extensions>
      </trkpt>
      <trkpt lat="46.04578" lon="6.22239">
        <ele>815.8</ele>
        <time>2021-03-02T13:04:22Z</time>
        <extensions>
          <gpxtpx:TrackPointExtension xmlns:gpxtpx="http://www.garmin.com/xmlschemas/TrackPointExtension/v1">
            <gpxtpx:hr>88</gpxtpx:hr>
          </gpxtpx:TrackPointExtension>
        </extensions>
      </trkpt>
      <trkpt lat="46.04572" lon="6.2223">
        <ele>815.8</ele>
        <time>2021-03-02T13:04:23Z</time>
        <extensions>
          <gpxtpx:TrackPointExtension xmlns:gpxtpx="http://www.garmin.com/xmlschemas/TrackPointExtension/v1">
            <gpxtpx:hr>87</gpxtpx:hr>
          </gpxtpx:TrackPointExtension>
        </extensions>
      </trkpt>
      <trkpt lat="46.04567" lon="6.22222">
        <ele>815.7</ele>
        <time>2021-03-02T13:04:24Z</time>
        <extensions>
          <gpxtpx:TrackPointExtension xmlns:gpxtpx="http://www.garmin.com/xmlschemas/TrackPointExtension/v1">
            <gpxtpx:hr>86</gpxtpx:hr>
          </gpxtpx:TrackPointExtension>
        </extensions>
      </trkpt>
      <trkpt lat="46.04562" lon="6.22214">
        <ele>815.6</ele>
        <time>2021-03-02T13:04:25Z</time>
        <extensions>
          <gpxtpx:TrackPointExtension xmlns:gpxtpx="http://www.garmin.com/xmlschemas/TrackPointExtension/v1">
            <gpxtpx:hr>86</gpxtpx:hr>
          </gpxtpx:TrackPointExtension>
        </extensions>
      </trkpt>
      <trkpt lat="46.04556" lon="6.22205">
        <ele>815.6</ele>
        <time>2021-03-02T13:04:26Z</time>
        <extensions>
          <gpxtpx:TrackPointExtension xmlns:gpxtpx="http://www.garmin.com/xmlschemas/TrackPointExtension/v1">
            <gpxtpx:hr>85</gpxtpx:hr>
          </gpxtpx:TrackPointExtension>
        </extensions>
      </trkpt>
      <trkpt lat="46.04551" lon="6.22197">
        <ele>815.5</ele>
        <time>2021-03-02T13:04:27Z</time>
        <extensions>
          <gpxtpx:TrackPointExtension xmlns:gpxtpx="http://www.garmin.com/xmlschemas/TrackPointExtension/v1">
            <gpxtpx:hr>85</gpxtpx:hr>
          </gpxtpx:TrackPointExtension>
        </extensions>
      </trkpt>
      <trkpt lat="46.04546" lon="6.22189">
        <ele>815.5</ele>
        <time>2021-03-02T13:04:28Z</time>
        <extensions>
          <gpxtpx:TrackPointExtension xmlns:gpxtpx="http://www.garmin.com/xmlschemas/TrackPointExtension/v1">
            <gpxtpx:hr>85</gpxtpx:hr>
          </gpxtpx:TrackPointExtension>
        </extensions>
      </trkpt>
      <trkpt lat="46.04541" lon="6.22182">
        <ele>815.4</ele>
        <time>2021-03-02T13:04:29Z</time>
        <extensions>
          <gpxtpx:TrackPointExtension xmlns:gpxtpx="http://www.garmin.com/xmlschemas/TrackPointExtension/v1">
            <gpxtpx:hr>85</gpxtpx:hr>
          </gpxtpx:TrackPointExtension>
        </extensions>
      </trkpt>
      <trkpt lat="46.04535" lon="6.22175">
        <ele>815.4</ele>
        <time>2021-03-02T13:04:30Z</time>
        <extensions>
          <gpxtpx:TrackPointExtension xmlns:gpxtpx="http://www.garmin.com/xmlschemas/TrackPointExtension/v1">
            <gpxtpx:hr>86</gpxtpx:hr>
          </gpxtpx:TrackPointExtension>
        </extensions>
      </trkpt>
      <trkpt lat="46.0453" lon="6.22169">
        <ele>815.4</ele>
        <time>2021-03-02T13:04:31Z</time>
        <extensions>
          <gpxtpx:TrackPointExtension xmlns:gpxtpx="http://www.garmin.com/xmlschemas/TrackPointExtension/v1">
            <gpxtpx:hr>86</gpxtpx:hr>
          </gpxtpx:TrackPointExtension>
        </extensions>
      </trkpt>
      <trkpt lat="46.04524" lon="6.22163">
        <ele>815.4</ele>
        <time>2021-03-02T13:04:32Z</time>
        <extensions>
          <gpxtpx:TrackPointExtension xmlns:gpxtpx="http://www.garmin.com/xmlschemas/TrackPointExtension/v1">
            <gpxtpx:hr>86</gpxtpx:hr>
          </gpxtpx:TrackPointExtension>
        </extensions>
      </trkpt>
      <trkpt lat="46.04518" lon="6.22157">
        <ele>815.4</ele>
        <time>2021-03-02T13:04:33Z</time>
        <extensions>
          <gpxtpx:TrackPointExtension xmlns:gpxtpx="http://www.garmin.com/xmlschemas/TrackPointExtension/v1">
            <gpxtpx:hr>86</gpxtpx:hr>
          </gpxtpx:TrackPointExtension>
        </extensions>
      </trkpt>
      <trkpt lat="46.04513" lon="6.22151">
        <ele>815.3</ele>
        <time>2021-03-02T13:04:34Z</time>
        <extensions>
          <gpxtpx:TrackPointExtension xmlns:gpxtpx="http://www.garmin.com/xmlschemas/TrackPointExtension/v1">
            <gpxtpx:hr>86</gpxtpx:hr>
          </gpxtpx:TrackPointExtension>
        </extensions>
      </trkpt>
      <trkpt lat="46.04507" lon="6.22145">
        <ele>815.2</ele>
        <time>2021-03-02T13:04:35Z</time>
        <extensions>
          <gpxtpx:TrackPointExtension xmlns:gpxtpx="http://www.garmin.com/xmlschemas/TrackPointExtension/v1">
            <gpxtpx:hr>86</gpxtpx:hr>
          </gpxtpx:TrackPointExtension>
        </extensions>
      </trkpt>
      <trkpt lat="46.04501" lon="6.22139">
        <ele>815.1</ele>
        <time>2021-03-02T13:04:36Z</time>
        <extensions>
          <gpxtpx:TrackPointExtension xmlns:gpxtpx="http://www.garmin.com/xmlschemas/TrackPointExtension/v1">
            <gpxtpx:hr>86</gpxtpx:hr>
          </gpxtpx:TrackPointExtension>
        </extensions>
      </trkpt>
      <trkpt lat="46.04495" lon="6.22132">
        <ele>814.9</ele>
        <time>2021-03-02T13:04:37Z</time>
        <extensions>
          <gpxtpx:TrackPointExtension xmlns:gpxtpx="http://www.garmin.com/xmlschemas/TrackPointExtension/v1">
            <gpxtpx:hr>85</gpxtpx:hr>
          </gpxtpx:TrackPointExtension>
        </extensions>
      </trkpt>
      <trkpt lat="46.04489" lon="6.22126">
        <ele>814.8</ele>
        <time>2021-03-02T13:04:38Z</time>
        <extensions>
          <gpxtpx:TrackPointExtension xmlns:gpxtpx="http://www.garmin.com/xmlschemas/TrackPointExtension/v1">
            <gpxtpx:hr>86</gpxtpx:hr>
          </gpxtpx:TrackPointExtension>
        </extensions>
      </trkpt>
      <trkpt lat="46.04483" lon="6.2212">
        <ele>814.6</ele>
        <time>2021-03-02T13:04:39Z</time>
        <extensions>
          <gpxtpx:TrackPointExtension xmlns:gpxtpx="http://www.garmin.com/xmlschemas/TrackPointExtension/v1">
            <gpxtpx:hr>86</gpxtpx:hr>
          </gpxtpx:TrackPointExtension>
        </extensions>
      </trkpt>
      <trkpt lat="46.04477" lon="6.22114">
        <ele>814.4</ele>
        <time>2021-03-02T13:04:40Z</time>
        <extensions>
          <gpxtpx:TrackPointExtension xmlns:gpxtpx="http://www.garmin.com/xmlschemas/TrackPointExtension/v1">
            <gpxtpx:hr>85</gpxtpx:hr>
          </gpxtpx:TrackPointExtension>
        </extensions>
      </trkpt>
      <trkpt lat="46.04471" lon="6.22108">
        <ele>814.2</ele>
        <time>2021-03-02T13:04:41Z</time>
        <extensions>
          <gpxtpx:TrackPointExtension xmlns:gpxtpx="http://www.garmin.com/xmlschemas/TrackPointExtension/v1">
            <gpxtpx:hr>85</gpxtpx:hr>
          </gpxtpx:TrackPointExtension>
        </extensions>
      </trkpt>
      <trkpt lat="46.04464" lon="6.22102">
        <ele>814</ele>
        <time>2021-03-02T13:04:42Z</time>
        <extensions>
          <gpxtpx:TrackPointExtension xmlns:gpxtpx="http://www.garmin.com/xmlschemas/TrackPointExtension/v1">
            <gpxtpx:hr>85</gpxtpx:hr>
          </gpxtpx:TrackPointExtension>
        </extensions>
      </trkpt>
      <trkpt lat="46.04458" lon="6.22095">
        <ele>813.8</ele>
        <time>2021-03-02T13:04:43Z</time>
        <extensions>
          <gpxtpx:TrackPointExtension xmlns:gpxtpx="http://www.garmin.com/xmlschemas/TrackPointExtension/v1">
            <gpxtpx:hr>86</gpxtpx:hr>
          </gpxtpx:TrackPointExtension>
        </extensions>
      </trkpt>
      <trkpt lat="46.04452" lon="6.22089">
        <ele>813.6</ele>
        <time>2021-03-02T13:04:44Z</time>
        <extensions>
          <gpxtpx:TrackPointExtension xmlns:gpxtpx="http://www.garmin.com/xmlschemas/TrackPointExtension/v1">
            <gpxtpx:hr>86</gpxtpx:hr>
          </gpxtpx:TrackPointExtension>
        </extensions>
      </trkpt>
      <trkpt lat="46.04445" lon="6.22083">
        <ele>813.4</ele>
        <time>2021-03-02T13:04:45Z</time>
        <extensions>
          <gpxtpx:TrackPointExtension xmlns:gpxtpx="http://www.garmin.com/xmlschemas/TrackPointExtension/v1">
            <gpxtpx:hr>85</gpxtpx:hr>
          </gpxtpx:TrackPointExtension>
        </extensions>
      </trkpt>
      <trkpt lat="46.04439" lon="6.22076">
        <ele>813.2</ele>
        <time>2021-03-02T13:04:46Z</time>
        <extensions>
          <gpxtpx:TrackPointExtension xmlns:gpxtpx="http://www.garmin.com/xmlschemas/TrackPointExtension/v1">
            <gpxtpx:hr>86</gpxtpx:hr>
          </gpxtpx:TrackPointExtension>
        </extensions>
      </trkpt>
      <trkpt lat="46.04433" lon="6.22069">
        <ele>813</ele>
        <time>2021-03-02T13:04:47Z</time>
        <extensions>
          <gpxtpx:TrackPointExtension xmlns:gpxtpx="http://www.garmin.com/xmlschemas/TrackPointExtension/v1">
            <gpxtpx:hr>86</gpxtpx:hr>
          </gpxtpx:TrackPointExtension>
        </extensions>
      </trkpt>
      <trkpt lat="46.04427" lon="6.22061">
        <ele>812.8</ele>
        <time>2021-03-02T13:04:48Z</time>
        <extensions>
          <gpxtpx:TrackPointExtension xmlns:gpxtpx="http://www.garmin.com/xmlschemas/TrackPointExtension/v1">
            <gpxtpx:hr>86</gpxtpx:hr>
          </gpxtpx:TrackPointExtension>
        </extensions>
      </trkpt>
      <trkpt lat="46.04422" lon="6.22052">
        <ele>812.7</ele>
        <time>2021-03-02T13:04:49Z</time>
        <extensions>
          <gpxtpx:TrackPointExtension xmlns:gpxtpx="http://www.garmin.com/xmlschemas/TrackPointExtension/v1">
            <gpxtpx:hr>86</gpxtpx:hr>
          </gpxtpx:TrackPointExtension>
        </extensions>
      </trkpt>
      <trkpt lat="46.04417" lon="6.22043">
        <ele>812.5</ele>
        <time>2021-03-02T13:04:50Z</time>
        <extensions>
          <gpxtpx:TrackPointExtension xmlns:gpxtpx="http://www.garmin.com/xmlschemas/TrackPointExtension/v1">
            <gpxtpx:hr>86</gpxtpx:hr>
          </gpxtpx:TrackPointExtension>
        </extensions>
      </trkpt>
      <trkpt lat="46.04412" lon="6.22033">
        <ele>812.3</ele>
        <time>2021-03-02T13:04:51Z</time>
        <extensions>
          <gpxtpx:TrackPointExtension xmlns:gpxtpx="http://www.garmin.com/xmlschemas/TrackPointExtension/v1">
            <gpxtpx:hr>86</gpxtpx:hr>
          </gpxtpx:TrackPointExtension>
        </extensions>
      </trkpt>
      <trkpt lat="46.04408" lon="6.22024">
        <ele>812.2</ele>
        <time>2021-03-02T13:04:52Z</time>
        <extensions>
          <gpxtpx:TrackPointExtension xmlns:gpxtpx="http://www.garmin.com/xmlschemas/TrackPointExtension/v1">
            <gpxtpx:hr>86</gpxtpx:hr>
          </gpxtpx:TrackPointExtension>
        </extensions>
      </trkpt>
      <trkpt lat="46.04404" lon="6.22014">
        <ele>812</ele>
        <time>2021-03-02T13:04:53Z</time>
        <extensions>
          <gpxtpx:TrackPointExtension xmlns:gpxtpx="http://www.garmin.com/xmlschemas/TrackPointExtension/v1">
            <gpxtpx:hr>87</gpxtpx:hr>
          </gpxtpx:TrackPointExtension>
        </extensions>
      </trkpt>
      <trkpt lat="46.04401" lon="6.22004">
        <ele>811.8</ele>
        <time>2021-03-02T13:04:54Z</time>
        <extensions>
          <gpxtpx:TrackPointExtension xmlns:gpxtpx="http://www.garmin.com/xmlschemas/TrackPointExtension/v1">
            <gpxtpx:hr>87</gpxtpx:hr>
          </gpxtpx:TrackPointExtension>
        </extensions>
      </trkpt>
      <trkpt lat="46.04397" lon="6.21993">
        <ele>811.6</ele>
        <time>2021-03-02T13:04:55Z</time>
        <extensions>
          <gpxtpx:TrackPointExtension xmlns:gpxtpx="http://www.garmin.com/xmlschemas/TrackPointExtension/v1">
            <gpxtpx:hr>87</gpxtpx:hr>
          </gpxtpx:TrackPointExtension>
        </extensions>
      </trkpt>
      <trkpt lat="46.04393" lon="6.21983">
        <ele>811.4</ele>
        <time>2021-03-02T13:04:56Z</time>
        <extensions>
          <gpxtpx:TrackPointExtension xmlns:gpxtpx="http://www.garmin.com/xmlschemas/TrackPointExtension/v1">
            <gpxtpx:hr>88</gpxtpx:hr>
          </gpxtpx:TrackPointExtension>
        </extensions>
      </trkpt>
      <trkpt lat="46.0439" lon="6.21973">
        <ele>811.2</ele>
        <time>2021-03-02T13:04:57Z</time>
        <extensions>
          <gpxtpx:TrackPointExtension xmlns:gpxtpx="http://www.garmin.com/xmlschemas/TrackPointExtension/v1">
            <gpxtpx:hr>89</gpxtpx:hr>
          </gpxtpx:TrackPointExtension>
        </extensions>
      </trkpt>
      <trkpt lat="46.04387" lon="6.21963">
        <ele>810.9</ele>
        <time>2021-03-02T13:04:58Z</time>
        <extensions>
          <gpxtpx:TrackPointExtension xmlns:gpxtpx="http://www.garmin.com/xmlschemas/TrackPointExtension/v1">
            <gpxtpx:hr>89</gpxtpx:hr>
          </gpxtpx:TrackPointExtension>
        </extensions>
      </trkpt>
      <trkpt lat="46.04384" lon="6.21953">
        <ele>810.7</ele>
        <time>2021-03-02T13:04:59Z</time>
        <extensions>
          <gpxtpx:TrackPointExtension xmlns:gpxtpx="http://www.garmin.com/xmlschemas/TrackPointExtension/v1">
            <gpxtpx:hr>89</gpxtpx:hr>
          </gpxtpx:TrackPointExtension>
        </extensions>
      </trkpt>
      <trkpt lat="46.04381" lon="6.21943">
        <ele>810.4</ele>
        <time>2021-03-02T13:05:00Z</time>
        <extensions>
          <gpxtpx:TrackPointExtension xmlns:gpxtpx="http://www.garmin.com/xmlschemas/TrackPointExtension/v1">
            <gpxtpx:hr>89</gpxtpx:hr>
          </gpxtpx:TrackPointExtension>
        </extensions>
      </trkpt>
      <trkpt lat="46.04377" lon="6.21933">
        <ele>810</ele>
        <time>2021-03-02T13:05:01Z</time>
        <extensions>
          <gpxtpx:TrackPointExtension xmlns:gpxtpx="http://www.garmin.com/xmlschemas/TrackPointExtension/v1">
            <gpxtpx:hr>89</gpxtpx:hr>
          </gpxtpx:TrackPointExtension>
        </extensions>
      </trkpt>
      <trkpt lat="46.04374" lon="6.21923">
        <ele>809.7</ele>
        <time>2021-03-02T13:05:02Z</time>
        <extensions>
          <gpxtpx:TrackPointExtension xmlns:gpxtpx="http://www.garmin.com/xmlschemas/TrackPointExtension/v1">
            <gpxtpx:hr>89</gpxtpx:hr>
          </gpxtpx:TrackPointExtension>
        </extensions>
      </trkpt>
      <trkpt lat="46.04372" lon="6.21911">
        <ele>809.5</ele>
        <time>2021-03-02T13:05:03Z</time>
        <extensions>
          <gpxtpx:TrackPointExtension xmlns:gpxtpx="http://www.garmin.com/xmlschemas/TrackPointExtension/v1">
            <gpxtpx:hr>89</gpxtpx:hr>
          </gpxtpx:TrackPointExtension>
        </extensions>
      </trkpt>
      <trkpt lat="46.0437" lon="6.21899">
        <ele>808.9</ele>
        <time>2021-03-02T13:05:04Z</time>
        <extensions>
          <gpxtpx:TrackPointExtension xmlns:gpxtpx="http://www.garmin.com/xmlschemas/TrackPointExtension/v1">
            <gpxtpx:hr>89</gpxtpx:hr>
          </gpxtpx:TrackPointExtension>
        </extensions>
      </trkpt>
      <trkpt lat="46.04368" lon="6.21886">
        <ele>808.2</ele>
        <time>2021-03-02T13:05:05Z</time>
        <extensions>
          <gpxtpx:TrackPointExtension xmlns:gpxtpx="http://www.garmin.com/xmlschemas/TrackPointExtension/v1">
            <gpxtpx:hr>89</gpxtpx:hr>
          </gpxtpx:TrackPointExtension>
        </extensions>
      </trkpt>
      <trkpt lat="46.04366" lon="6.21872">
        <ele>807.5</ele>
        <time>2021-03-02T13:05:06Z</time>
        <extensions>
          <gpxtpx:TrackPointExtension xmlns:gpxtpx="http://www.garmin.com/xmlschemas/TrackPointExtension/v1">
            <gpxtpx:hr>89</gpxtpx:hr>
          </gpxtpx:TrackPointExtension>
        </extensions>
      </trkpt>
      <trkpt lat="46.04364" lon="6.21858">
        <ele>806.8</ele>
        <time>2021-03-02T13:05:07Z</time>
        <extensions>
          <gpxtpx:TrackPointExtension xmlns:gpxtpx="http://www.garmin.com/xmlschemas/TrackPointExtension/v1">
            <gpxtpx:hr>89</gpxtpx:hr>
          </gpxtpx:TrackPointExtension>
        </extensions>
      </trkpt>
      <trkpt lat="46.04363" lon="6.21843">
        <ele>806.1</ele>
        <time>2021-03-02T13:05:08Z</time>
        <extensions>
          <gpxtpx:TrackPointExtension xmlns:gpxtpx="http://www.garmin.com/xmlschemas/TrackPointExtension/v1">
            <gpxtpx:hr>89</gpxtpx:hr>
          </gpxtpx:TrackPointExtension>
        </extensions>
      </trkpt>
      <trkpt lat="46.04361" lon="6.21828">
        <ele>805.3</ele>
        <time>2021-03-02T13:05:09Z</time>
        <extensions>
          <gpxtpx:TrackPointExtension xmlns:gpxtpx="http://www.garmin.com/xmlschemas/TrackPointExtension/v1">
            <gpxtpx:hr>89</gpxtpx:hr>
          </gpxtpx:TrackPointExtension>
        </extensions>
      </trkpt>
      <trkpt lat="46.04358" lon="6.21814">
        <ele>804.7</ele>
        <time>2021-03-02T13:05:10Z</time>
        <extensions>
          <gpxtpx:TrackPointExtension xmlns:gpxtpx="http://www.garmin.com/xmlschemas/TrackPointExtension/v1">
            <gpxtpx:hr>88</gpxtpx:hr>
          </gpxtpx:TrackPointExtension>
        </extensions>
      </trkpt>
      <trkpt lat="46.04353" lon="6.21802">
        <ele>804.1</ele>
        <time>2021-03-02T13:05:11Z</time>
        <extensions>
          <gpxtpx:TrackPointExtension xmlns:gpxtpx="http://www.garmin.com/xmlschemas/TrackPointExtension/v1">
            <gpxtpx:hr>88</gpxtpx:hr>
          </gpxtpx:TrackPointExtension>
        </extensions>
      </trkpt>
      <trkpt lat="46.04345" lon="6.21792">
        <ele>803.4</ele>
        <time>2021-03-02T13:05:12Z</time>
        <extensions>
          <gpxtpx:TrackPointExtension xmlns:gpxtpx="http://www.garmin.com/xmlschemas/TrackPointExtension/v1">
            <gpxtpx:hr>88</gpxtpx:hr>
          </gpxtpx:TrackPointExtension>
        </extensions>
      </trkpt>
      <trkpt lat="46.04336" lon="6.21783">
        <ele>802.7</ele>
        <time>2021-03-02T13:05:13Z</time>
        <extensions>
          <gpxtpx:TrackPointExtension xmlns:gpxtpx="http://www.garmin.com/xmlschemas/TrackPointExtension/v1">
            <gpxtpx:hr>88</gpxtpx:hr>
          </gpxtpx:TrackPointExtension>
        </extensions>
      </trkpt>
      <trkpt lat="46.04326" lon="6.21774">
        <ele>802</ele>
        <time>2021-03-02T13:05:14Z</time>
        <extensions>
          <gpxtpx:TrackPointExtension xmlns:gpxtpx="http://www.garmin.com/xmlschemas/TrackPointExtension/v1">
            <gpxtpx:hr>88</gpxtpx:hr>
          </gpxtpx:TrackPointExtension>
        </extensions>
      </trkpt>
      <trkpt lat="46.04317" lon="6.21765">
        <ele>801.3</ele>
        <time>2021-03-02T13:05:15Z</time>
        <extensions>
          <gpxtpx:TrackPointExtension xmlns:gpxtpx="http://www.garmin.com/xmlschemas/TrackPointExtension/v1">
            <gpxtpx:hr>88</gpxtpx:hr>
          </gpxtpx:TrackPointExtension>
        </extensions>
      </trkpt>
      <trkpt lat="46.04307" lon="6.21755">
        <ele>800.5</ele>
        <time>2021-03-02T13:05:16Z</time>
        <extensions>
          <gpxtpx:TrackPointExtension xmlns:gpxtpx="http://www.garmin.com/xmlschemas/TrackPointExtension/v1">
            <gpxtpx:hr>89</gpxtpx:hr>
          </gpxtpx:TrackPointExtension>
        </extensions>
      </trkpt>
      <trkpt lat="46.04298" lon="6.21745">
        <ele>799.6</ele>
        <time>2021-03-02T13:05:17Z</time>
        <extensions>
          <gpxtpx:TrackPointExtension xmlns:gpxtpx="http://www.garmin.com/xmlschemas/TrackPointExtension/v1">
            <gpxtpx:hr>89</gpxtpx:hr>
          </gpxtpx:TrackPointExtension>
        </extensions>
      </trkpt>
      <trkpt lat="46.04288" lon="6.21736">
        <ele>798.8</ele>
        <time>2021-03-02T13:05:18Z</time>
        <extensions>
          <gpxtpx:TrackPointExtension xmlns:gpxtpx="http://www.garmin.com/xmlschemas/TrackPointExtension/v1">
            <gpxtpx:hr>90</gpxtpx:hr>
          </gpxtpx:TrackPointExtension>
        </extensions>
      </trkpt>
      <trkpt lat="46.04278" lon="6.21725">
        <ele>798.1</ele>
        <time>2021-03-02T13:05:19Z</time>
        <extensions>
          <gpxtpx:TrackPointExtension xmlns:gpxtpx="http://www.garmin.com/xmlschemas/TrackPointExtension/v1">
            <gpxtpx:hr>90</gpxtpx:hr>
          </gpxtpx:TrackPointExtension>
        </extensions>
      </trkpt>
      <trkpt lat="46.04268" lon="6.21715">
        <ele>797.4</ele>
        <time>2021-03-02T13:05:20Z</time>
        <extensions>
          <gpxtpx:TrackPointExtension xmlns:gpxtpx="http://www.garmin.com/xmlschemas/TrackPointExtension/v1">
            <gpxtpx:hr>90</gpxtpx:hr>
          </gpxtpx:TrackPointExtension>
        </extensions>
      </trkpt>
      <trkpt lat="46.04258" lon="6.21704">
        <ele>796.7</ele>
        <time>2021-03-02T13:05:21Z</time>
        <extensions>
          <gpxtpx:TrackPointExtension xmlns:gpxtpx="http://www.garmin.com/xmlschemas/TrackPointExtension/v1">
            <gpxtpx:hr>91</gpxtpx:hr>
          </gpxtpx:TrackPointExtension>
        </extensions>
      </trkpt>
      <trkpt lat="46.04248" lon="6.21694">
        <ele>796.2</ele>
        <time>2021-03-02T13:05:22Z</time>
        <extensions>
          <gpxtpx:TrackPointExtension xmlns:gpxtpx="http://www.garmin.com/xmlschemas/TrackPointExtension/v1">
            <gpxtpx:hr>91</gpxtpx:hr>
          </gpxtpx:TrackPointExtension>
        </extensions>
      </trkpt>
      <trkpt lat="46.04238" lon="6.21684">
        <ele>795.6</ele>
        <time>2021-03-02T13:05:23Z</time>
        <extensions>
          <gpxtpx:TrackPointExtension xmlns:gpxtpx="http://www.garmin.com/xmlschemas/TrackPointExtension/v1">
            <gpxtpx:hr>92</gpxtpx:hr>
          </gpxtpx:TrackPointExtension>
        </extensions>
      </trkpt>
      <trkpt lat="46.04228" lon="6.21673">
        <ele>795.1</ele>
        <time>2021-03-02T13:05:24Z</time>
        <extensions>
          <gpxtpx:TrackPointExtension xmlns:gpxtpx="http://www.garmin.com/xmlschemas/TrackPointExtension/v1">
            <gpxtpx:hr>92</gpxtpx:hr>
          </gpxtpx:TrackPointExtension>
        </extensions>
      </trkpt>
      <trkpt lat="46.04218" lon="6.21664">
        <ele>794.7</ele>
        <time>2021-03-02T13:05:25Z</time>
        <extensions>
          <gpxtpx:TrackPointExtension xmlns:gpxtpx="http://www.garmin.com/xmlschemas/TrackPointExtension/v1">
            <gpxtpx:hr>92</gpxtpx:hr>
          </gpxtpx:TrackPointExtension>
        </extensions>
      </trkpt>
      <trkpt lat="46.04208" lon="6.21654">
        <ele>794.4</ele>
        <time>2021-03-02T13:05:26Z</time>
        <extensions>
          <gpxtpx:TrackPointExtension xmlns:gpxtpx="http://www.garmin.com/xmlschemas/TrackPointExtension/v1">
            <gpxtpx:hr>93</gpxtpx:hr>
          </gpxtpx:TrackPointExtension>
        </extensions>
      </trkpt>
      <trkpt lat="46.04198" lon="6.21646">
        <ele>794.2</ele>
        <time>2021-03-02T13:05:27Z</time>
        <extensions>
          <gpxtpx:TrackPointExtension xmlns:gpxtpx="http://www.garmin.com/xmlschemas/TrackPointExtension/v1">
            <gpxtpx:hr>93</gpxtpx:hr>
          </gpxtpx:TrackPointExtension>
        </extensions>
      </trkpt>
      <trkpt lat="46.04187" lon="6.21639">
        <ele>794.3</ele>
        <time>2021-03-02T13:05:28Z</time>
        <extensions>
          <gpxtpx:TrackPointExtension xmlns:gpxtpx="http://www.garmin.com/xmlschemas/TrackPointExtension/v1">
            <gpxtpx:hr>93</gpxtpx:hr>
          </gpxtpx:TrackPointExtension>
        </extensions>
      </trkpt>
      <trkpt lat="46.04177" lon="6.21633">
        <ele>794.3</ele>
        <time>2021-03-02T13:05:29Z</time>
        <extensions>
          <gpxtpx:TrackPointExtension xmlns:gpxtpx="http://www.garmin.com/xmlschemas/TrackPointExtension/v1">
            <gpxtpx:hr>93</gpxtpx:hr>
          </gpxtpx:TrackPointExtension>
        </extensions>
      </trkpt>
      <trkpt lat="46.04166" lon="6.21627">
        <ele>794.4</ele>
        <time>2021-03-02T13:05:30Z</time>
        <extensions>
          <gpxtpx:TrackPointExtension xmlns:gpxtpx="http://www.garmin.com/xmlschemas/TrackPointExtension/v1">
            <gpxtpx:hr>93</gpxtpx:hr>
          </gpxtpx:TrackPointExtension>
        </extensions>
      </trkpt>
      <trkpt lat="46.04156" lon="6.21623">
        <ele>794.4</ele>
        <time>2021-03-02T13:05:31Z</time>
        <extensions>
          <gpxtpx:TrackPointExtension xmlns:gpxtpx="http://www.garmin.com/xmlschemas/TrackPointExtension/v1">
            <gpxtpx:hr>93</gpxtpx:hr>
          </gpxtpx:TrackPointExtension>
        </extensions>
      </trkpt>
      <trkpt lat="46.04146" lon="6.21619">
        <ele>794.4</ele>
        <time>2021-03-02T13:05:32Z</time>
        <extensions>
          <gpxtpx:TrackPointExtension xmlns:gpxtpx="http://www.garmin.com/xmlschemas/TrackPointExtension/v1">
            <gpxtpx:hr>93</gpxtpx:hr>
          </gpxtpx:TrackPointExtension>
        </extensions>
      </trkpt>
      <trkpt lat="46.04135" lon="6.21615">
        <ele>794.2</ele>
        <time>2021-03-02T13:05:33Z</time>
        <extensions>
          <gpxtpx:TrackPointExtension xmlns:gpxtpx="http://www.garmin.com/xmlschemas/TrackPointExtension/v1">
            <gpxtpx:hr>94</gpxtpx:hr>
          </gpxtpx:TrackPointExtension>
        </extensions>
      </trkpt>
      <trkpt lat="46.04125" lon="6.2161">
        <ele>794.1</ele>
        <time>2021-03-02T13:05:34Z</time>
        <extensions>
          <gpxtpx:TrackPointExtension xmlns:gpxtpx="http://www.garmin.com/xmlschemas/TrackPointExtension/v1">
            <gpxtpx:hr>94</gpxtpx:hr>
          </gpxtpx:TrackPointExtension>
        </extensions>
      </trkpt>
      <trkpt lat="46.04116" lon="6.21606">
        <ele>794</ele>
        <time>2021-03-02T13:05:35Z</time>
        <extensions>
          <gpxtpx:TrackPointExtension xmlns:gpxtpx="http://www.garmin.com/xmlschemas/TrackPointExtension/v1">
            <gpxtpx:hr>94</gpxtpx:hr>
          </gpxtpx:TrackPointExtension>
        </extensions>
      </trkpt>
      <trkpt lat="46.04106" lon="6.21602">
        <ele>793.9</ele>
        <time>2021-03-02T13:05:36Z</time>
        <extensions>
          <gpxtpx:TrackPointExtension xmlns:gpxtpx="http://www.garmin.com/xmlschemas/TrackPointExtension/v1">
            <gpxtpx:hr>94</gpxtpx:hr>
          </gpxtpx:TrackPointExtension>
        </extensions>
      </trkpt>
      <trkpt lat="46.04096" lon="6.21598">
        <ele>793.8</ele>
        <time>2021-03-02T13:05:37Z</time>
        <extensions>
          <gpxtpx:TrackPointExtension xmlns:gpxtpx="http://www.garmin.com/xmlschemas/TrackPointExtension/v1">
            <gpxtpx:hr>94</gpxtpx:hr>
          </gpxtpx:TrackPointExtension>
        </extensions>
      </trkpt>
      <trkpt lat="46.04086" lon="6.21593">
        <ele>793.7</ele>
        <time>2021-03-02T13:05:38Z</time>
        <extensions>
          <gpxtpx:TrackPointExtension xmlns:gpxtpx="http://www.garmin.com/xmlschemas/TrackPointExtension/v1">
            <gpxtpx:hr>94</gpxtpx:hr>
          </gpxtpx:TrackPointExtension>
        </extensions>
      </trkpt>
      <trkpt lat="46.04076" lon="6.2159">
        <ele>793.7</ele>
        <time>2021-03-02T13:05:39Z</time>
        <extensions>
          <gpxtpx:TrackPointExtension xmlns:gpxtpx="http://www.garmin.com/xmlschemas/TrackPointExtension/v1">
            <gpxtpx:hr>94</gpxtpx:hr>
          </gpxtpx:TrackPointExtension>
        </extensions>
      </trkpt>
      <trkpt lat="46.04067" lon="6.21586">
        <ele>793.7</ele>
        <time>2021-03-02T13:05:40Z</time>
        <extensions>
          <gpxtpx:TrackPointExtension xmlns:gpxtpx="http://www.garmin.com/xmlschemas/TrackPointExtension/v1">
            <gpxtpx:hr>94</gpxtpx:hr>
          </gpxtpx:TrackPointExtension>
        </extensions>
      </trkpt>
      <trkpt lat="46.04057" lon="6.21583">
        <ele>793.8</ele>
        <time>2021-03-02T13:05:41Z</time>
        <extensions>
          <gpxtpx:TrackPointExtension xmlns:gpxtpx="http://www.garmin.com/xmlschemas/TrackPointExtension/v1">
            <gpxtpx:hr>95</gpxtpx:hr>
          </gpxtpx:TrackPointExtension>
        </extensions>
      </trkpt>
      <trkpt lat="46.04048" lon="6.21579">
        <ele>793.9</ele>
        <time>2021-03-02T13:05:42Z</time>
        <extensions>
          <gpxtpx:TrackPointExtension xmlns:gpxtpx="http://www.garmin.com/xmlschemas/TrackPointExtension/v1">
            <gpxtpx:hr>95</gpxtpx:hr>
          </gpxtpx:TrackPointExtension>
        </extensions>
      </trkpt>
      <trkpt lat="46.04038" lon="6.21575">
        <ele>794</ele>
        <time>2021-03-02T13:05:43Z</time>
        <extensions>
          <gpxtpx:TrackPointExtension xmlns:gpxtpx="http://www.garmin.com/xmlschemas/TrackPointExtension/v1">
            <gpxtpx:hr>96</gpxtpx:hr>
          </gpxtpx:TrackPointExtension>
        </extensions>
      </trkpt>
      <trkpt lat="46.04029" lon="6.2157">
        <ele>794.2</ele>
        <time>2021-03-02T13:05:44Z</time>
        <extensions>
          <gpxtpx:TrackPointExtension xmlns:gpxtpx="http://www.garmin.com/xmlschemas/TrackPointExtension/v1">
            <gpxtpx:hr>96</gpxtpx:hr>
          </gpxtpx:TrackPointExtension>
        </extensions>
      </trkpt>
      <trkpt lat="46.04021" lon="6.21566">
        <ele>794.3</ele>
        <time>2021-03-02T13:05:45Z</time>
        <extensions>
          <gpxtpx:TrackPointExtension xmlns:gpxtpx="http://www.garmin.com/xmlschemas/TrackPointExtension/v1">
            <gpxtpx:hr>96</gpxtpx:hr>
          </gpxtpx:TrackPointExtension>
        </extensions>
      </trkpt>
      <trkpt lat="46.04012" lon="6.21561">
        <ele>794.5</ele>
        <time>2021-03-02T13:05:46Z</time>
        <extensions>
          <gpxtpx:TrackPointExtension xmlns:gpxtpx="http://www.garmin.com/xmlschemas/TrackPointExtension/v1">
            <gpxtpx:hr>97</gpxtpx:hr>
          </gpxtpx:TrackPointExtension>
        </extensions>
      </trkpt>
      <trkpt lat="46.04004" lon="6.21555">
        <ele>794.6</ele>
        <time>2021-03-02T13:05:47Z</time>
        <extensions>
          <gpxtpx:TrackPointExtension xmlns:gpxtpx="http://www.garmin.com/xmlschemas/TrackPointExtension/v1">
            <gpxtpx:hr>97</gpxtpx:hr>
          </gpxtpx:TrackPointExtension>
        </extensions>
      </trkpt>
      <trkpt lat="46.03997" lon="6.2155">
        <ele>794.8</ele>
        <time>2021-03-02T13:05:48Z</time>
        <extensions>
          <gpxtpx:TrackPointExtension xmlns:gpxtpx="http://www.garmin.com/xmlschemas/TrackPointExtension/v1">
            <gpxtpx:hr>97</gpxtpx:hr>
          </gpxtpx:TrackPointExtension>
        </extensions>
      </trkpt>
      <trkpt lat="46.03989" lon="6.21544">
        <ele>794.9</ele>
        <time>2021-03-02T13:05:49Z</time>
        <extensions>
          <gpxtpx:TrackPointExtension xmlns:gpxtpx="http://www.garmin.com/xmlschemas/TrackPointExtension/v1">
            <gpxtpx:hr>97</gpxtpx:hr>
          </gpxtpx:TrackPointExtension>
        </extensions>
      </trkpt>
      <trkpt lat="46.03982" lon="6.21537">
        <ele>795</ele>
        <time>2021-03-02T13:05:50Z</time>
        <extensions>
          <gpxtpx:TrackPointExtension xmlns:gpxtpx="http://www.garmin.com/xmlschemas/TrackPointExtension/v1">
            <gpxtpx:hr>97</gpxtpx:hr>
          </gpxtpx:TrackPointExtension>
        </extensions>
      </trkpt>
      <trkpt lat="46.03975" lon="6.21531">
        <ele>795.1</ele>
        <time>2021-03-02T13:05:51Z</time>
        <extensions>
          <gpxtpx:TrackPointExtension xmlns:gpxtpx="http://www.garmin.com/xmlschemas/TrackPointExtension/v1">
            <gpxtpx:hr>97</gpxtpx:hr>
          </gpxtpx:TrackPointExtension>
        </extensions>
      </trkpt>
      <trkpt lat="46.03968" lon="6.21524">
        <ele>795.1</ele>
        <time>2021-03-02T13:05:52Z</time>
        <extensions>
          <gpxtpx:TrackPointExtension xmlns:gpxtpx="http://www.garmin.com/xmlschemas/TrackPointExtension/v1">
            <gpxtpx:hr>97</gpxtpx:hr>
          </gpxtpx:TrackPointExtension>
        </extensions>
      </trkpt>
      <trkpt lat="46.03961" lon="6.21517">
        <ele>795.2</ele>
        <time>2021-03-02T13:05:53Z</time>
        <extensions>
          <gpxtpx:TrackPointExtension xmlns:gpxtpx="http://www.garmin.com/xmlschemas/TrackPointExtension/v1">
            <gpxtpx:hr>98</gpxtpx:hr>
          </gpxtpx:TrackPointExtension>
        </extensions>
      </trkpt>
      <trkpt lat="46.03954" lon="6.21511">
        <ele>795.2</ele>
        <time>2021-03-02T13:05:54Z</time>
        <extensions>
          <gpxtpx:TrackPointExtension xmlns:gpxtpx="http://www.garmin.com/xmlschemas/TrackPointExtension/v1">
            <gpxtpx:hr>98</gpxtpx:hr>
          </gpxtpx:TrackPointExtension>
        </extensions>
      </trkpt>
      <trkpt lat="46.03947" lon="6.21503">
        <ele>795.2</ele>
        <time>2021-03-02T13:05:55Z</time>
        <extensions>
          <gpxtpx:TrackPointExtension xmlns:gpxtpx="http://www.garmin.com/xmlschemas/TrackPointExtension/v1">
            <gpxtpx:hr>98</gpxtpx:hr>
          </gpxtpx:TrackPointExtension>
        </extensions>
      </trkpt>
      <trkpt lat="46.03941" lon="6.21496">
        <ele>795.2</ele>
        <time>2021-03-02T13:05:56Z</time>
        <extensions>
          <gpxtpx:TrackPointExtension xmlns:gpxtpx="http://www.garmin.com/xmlschemas/TrackPointExtension/v1">
            <gpxtpx:hr>98</gpxtpx:hr>
          </gpxtpx:TrackPointExtension>
        </extensions>
      </trkpt>
      <trkpt lat="46.03934" lon="6.21488">
        <ele>795.2</ele>
        <time>2021-03-02T13:05:57Z</time>
        <extensions>
          <gpxtpx:TrackPointExtension xmlns:gpxtpx="http://www.garmin.com/xmlschemas/TrackPointExtension/v1">
            <gpxtpx:hr>98</gpxtpx:hr>
          </gpxtpx:TrackPointExtension>
        </extensions>
      </trkpt>
      <trkpt lat="46.03928" lon="6.2148">
        <ele>795.3</ele>
        <time>2021-03-02T13:05:58Z</time>
        <extensions>
          <gpxtpx:TrackPointExtension xmlns:gpxtpx="http://www.garmin.com/xmlschemas/TrackPointExtension/v1">
            <gpxtpx:hr>99</gpxtpx:hr>
          </gpxtpx:TrackPointExtension>
        </extensions>
      </trkpt>
      <trkpt lat="46.03922" lon="6.21472">
        <ele>795.3</ele>
        <time>2021-03-02T13:05:59Z</time>
        <extensions>
          <gpxtpx:TrackPointExtension xmlns:gpxtpx="http://www.garmin.com/xmlschemas/TrackPointExtension/v1">
            <gpxtpx:hr>99</gpxtpx:hr>
          </gpxtpx:TrackPointExtension>
        </extensions>
      </trkpt>
      <trkpt lat="46.03917" lon="6.21462">
        <ele>795.3</ele>
        <time>2021-03-02T13:06:00Z</time>
        <extensions>
          <gpxtpx:TrackPointExtension xmlns:gpxtpx="http://www.garmin.com/xmlschemas/TrackPointExtension/v1">
            <gpxtpx:hr>99</gpxtpx:hr>
          </gpxtpx:TrackPointExtension>
        </extensions>
      </trkpt>
      <trkpt lat="46.03912" lon="6.21453">
        <ele>795.3</ele>
        <time>2021-03-02T13:06:01Z</time>
        <extensions>
          <gpxtpx:TrackPointExtension xmlns:gpxtpx="http://www.garmin.com/xmlschemas/TrackPointExtension/v1">
            <gpxtpx:hr>100</gpxtpx:hr>
          </gpxtpx:TrackPointExtension>
        </extensions>
      </trkpt>
      <trkpt lat="46.03907" lon="6.21443">
        <ele>795.3</ele>
        <time>2021-03-02T13:06:02Z</time>
        <extensions>
          <gpxtpx:TrackPointExtension xmlns:gpxtpx="http://www.garmin.com/xmlschemas/TrackPointExtension/v1">
            <gpxtpx:hr>100</gpxtpx:hr>
          </gpxtpx:TrackPointExtension>
        </extensions>
      </trkpt>
      <trkpt lat="46.03903" lon="6.21434">
        <ele>795.3</ele>
        <time>2021-03-02T13:06:03Z</time>
        <extensions>
          <gpxtpx:TrackPointExtension xmlns:gpxtpx="http://www.garmin.com/xmlschemas/TrackPointExtension/v1">
            <gpxtpx:hr>100</gpxtpx:hr>
          </gpxtpx:TrackPointExtension>
        </extensions>
      </trkpt>
      <trkpt lat="46.03898" lon="6.21424">
        <ele>795.2</ele>
        <time>2021-03-02T13:06:04Z</time>
        <extensions>
          <gpxtpx:TrackPointExtension xmlns:gpxtpx="http://www.garmin.com/xmlschemas/TrackPointExtension/v1">
            <gpxtpx:hr>100</gpxtpx:hr>
          </gpxtpx:TrackPointExtension>
        </extensions>
      </trkpt>
      <trkpt lat="46.03893" lon="6.21414">
        <ele>795.1</ele>
        <time>2021-03-02T13:06:05Z</time>
        <extensions>
          <gpxtpx:TrackPointExtension xmlns:gpxtpx="http://www.garmin.com/xmlschemas/TrackPointExtension/v1">
            <gpxtpx:hr>101</gpxtpx:hr>
          </gpxtpx:TrackPointExtension>
        </extensions>
      </trkpt>
      <trkpt lat="46.03888" lon="6.21405">
        <ele>794.9</ele>
        <time>2021-03-02T13:06:06Z</time>
        <extensions>
          <gpxtpx:TrackPointExtension xmlns:gpxtpx="http://www.garmin.com/xmlschemas/TrackPointExtension/v1">
            <gpxtpx:hr>101</gpxtpx:hr>
          </gpxtpx:TrackPointExtension>
        </extensions>
      </trkpt>
      <trkpt lat="46.03883" lon="6.21395">
        <ele>794.7</ele>
        <time>2021-03-02T13:06:07Z</time>
        <extensions>
          <gpxtpx:TrackPointExtension xmlns:gpxtpx="http://www.garmin.com/xmlschemas/TrackPointExtension/v1">
            <gpxtpx:hr>101</gpxtpx:hr>
          </gpxtpx:TrackPointExtension>
        </extensions>
      </trkpt>
      <trkpt lat="46.03878" lon="6.21385">
        <ele>794.5</ele>
        <time>2021-03-02T13:06:08Z</time>
        <extensions>
          <gpxtpx:TrackPointExtension xmlns:gpxtpx="http://www.garmin.com/xmlschemas/TrackPointExtension/v1">
            <gpxtpx:hr>101</gpxtpx:hr>
          </gpxtpx:TrackPointExtension>
        </extensions>
      </trkpt>
      <trkpt lat="46.03873" lon="6.21374">
        <ele>794.2</ele>
        <time>2021-03-02T13:06:09Z</time>
        <extensions>
          <gpxtpx:TrackPointExtension xmlns:gpxtpx="http://www.garmin.com/xmlschemas/TrackPointExtension/v1">
            <gpxtpx:hr>101</gpxtpx:hr>
          </gpxtpx:TrackPointExtension>
        </extensions>
      </trkpt>
      <trkpt lat="46.03868" lon="6.21364">
        <ele>794</ele>
        <time>2021-03-02T13:06:10Z</time>
        <extensions>
          <gpxtpx:TrackPointExtension xmlns:gpxtpx="http://www.garmin.com/xmlschemas/TrackPointExtension/v1">
            <gpxtpx:hr>101</gpxtpx:hr>
          </gpxtpx:TrackPointExtension>
        </extensions>
      </trkpt>
      <trkpt lat="46.03863" lon="6.21354">
        <ele>793.6</ele>
        <time>2021-03-02T13:06:11Z</time>
        <extensions>
          <gpxtpx:TrackPointExtension xmlns:gpxtpx="http://www.garmin.com/xmlschemas/TrackPointExtension/v1">
            <gpxtpx:hr>101</gpxtpx:hr>
          </gpxtpx:TrackPointExtension>
        </extensions>
      </trkpt>
      <trkpt lat="46.03857" lon="6.21344">
        <ele>793.2</ele>
        <time>2021-03-02T13:06:12Z</time>
        <extensions>
          <gpxtpx:TrackPointExtension xmlns:gpxtpx="http://www.garmin.com/xmlschemas/TrackPointExtension/v1">
            <gpxtpx:hr>101</gpxtpx:hr>
          </gpxtpx:TrackPointExtension>
        </extensions>
      </trkpt>
      <trkpt lat="46.03851" lon="6.21335">
        <ele>792.8</ele>
        <time>2021-03-02T13:06:13Z</time>
        <extensions>
          <gpxtpx:TrackPointExtension xmlns:gpxtpx="http://www.garmin.com/xmlschemas/TrackPointExtension/v1">
            <gpxtpx:hr>101</gpxtpx:hr>
          </gpxtpx:TrackPointExtension>
        </extensions>
      </trkpt>
      <trkpt lat="46.03844" lon="6.21326">
        <ele>792.4</ele>
        <time>2021-03-02T13:06:14Z</time>
        <extensions>
          <gpxtpx:TrackPointExtension xmlns:gpxtpx="http://www.garmin.com/xmlschemas/TrackPointExtension/v1">
            <gpxtpx:hr>102</gpxtpx:hr>
          </gpxtpx:TrackPointExtension>
        </extensions>
      </trkpt>
      <trkpt lat="46.03837" lon="6.21316">
        <ele>792</ele>
        <time>2021-03-02T13:06:15Z</time>
        <extensions>
          <gpxtpx:TrackPointExtension xmlns:gpxtpx="http://www.garmin.com/xmlschemas/TrackPointExtension/v1">
            <gpxtpx:hr>102</gpxtpx:hr>
          </gpxtpx:TrackPointExtension>
        </extensions>
      </trkpt>
      <trkpt lat="46.0383" lon="6.21307">
        <ele>791.6</ele>
        <time>2021-03-02T13:06:16Z</time>
        <extensions>
          <gpxtpx:TrackPointExtension xmlns:gpxtpx="http://www.garmin.com/xmlschemas/TrackPointExtension/v1">
            <gpxtpx:hr>102</gpxtpx:hr>
          </gpxtpx:TrackPointExtension>
        </extensions>
      </trkpt>
      <trkpt lat="46.03822" lon="6.21297">
        <ele>791.2</ele>
        <time>2021-03-02T13:06:17Z</time>
        <extensions>
          <gpxtpx:TrackPointExtension xmlns:gpxtpx="http://www.garmin.com/xmlschemas/TrackPointExtension/v1">
            <gpxtpx:hr>102</gpxtpx:hr>
          </gpxtpx:TrackPointExtension>
        </extensions>
      </trkpt>
      <trkpt lat="46.03815" lon="6.21288">
        <ele>791.1</ele>
        <time>2021-03-02T13:06:18Z</time>
        <extensions>
          <gpxtpx:TrackPointExtension xmlns:gpxtpx="http://www.garmin.com/xmlschemas/TrackPointExtension/v1">
            <gpxtpx:hr>102</gpxtpx:hr>
          </gpxtpx:TrackPointExtension>
        </extensions>
      </trkpt>
      <trkpt lat="46.03807" lon="6.21278">
        <ele>790.6</ele>
        <time>2021-03-02T13:06:19Z</time>
        <extensions>
          <gpxtpx:TrackPointExtension xmlns:gpxtpx="http://www.garmin.com/xmlschemas/TrackPointExtension/v1">
            <gpxtpx:hr>101</gpxtpx:hr>
          </gpxtpx:TrackPointExtension>
        </extensions>
      </trkpt>
      <trkpt lat="46.038" lon="6.21268">
        <ele>790.2</ele>
        <time>2021-03-02T13:06:20Z</time>
        <extensions>
          <gpxtpx:TrackPointExtension xmlns:gpxtpx="http://www.garmin.com/xmlschemas/TrackPointExtension/v1">
            <gpxtpx:hr>101</gpxtpx:hr>
          </gpxtpx:TrackPointExtension>
        </extensions>
      </trkpt>
      <trkpt lat="46.03792" lon="6.21258">
        <ele>789.7</ele>
        <time>2021-03-02T13:06:21Z</time>
        <extensions>
          <gpxtpx:TrackPointExtension xmlns:gpxtpx="http://www.garmin.com/xmlschemas/TrackPointExtension/v1">
            <gpxtpx:hr>100</gpxtpx:hr>
          </gpxtpx:TrackPointExtension>
        </extensions>
      </trkpt>
      <trkpt lat="46.03785" lon="6.21247">
        <ele>789.3</ele>
        <time>2021-03-02T13:06:22Z</time>
        <extensions>
          <gpxtpx:TrackPointExtension xmlns:gpxtpx="http://www.garmin.com/xmlschemas/TrackPointExtension/v1">
            <gpxtpx:hr>100</gpxtpx:hr>
          </gpxtpx:TrackPointExtension>
        </extensions>
      </trkpt>
      <trkpt lat="46.03779" lon="6.21235">
        <ele>788.8</ele>
        <time>2021-03-02T13:06:23Z</time>
        <extensions>
          <gpxtpx:TrackPointExtension xmlns:gpxtpx="http://www.garmin.com/xmlschemas/TrackPointExtension/v1">
            <gpxtpx:hr>99</gpxtpx:hr>
          </gpxtpx:TrackPointExtension>
        </extensions>
      </trkpt>
      <trkpt lat="46.03772" lon="6.21223">
        <ele>788.4</ele>
        <time>2021-03-02T13:06:24Z</time>
        <extensions>
          <gpxtpx:TrackPointExtension xmlns:gpxtpx="http://www.garmin.com/xmlschemas/TrackPointExtension/v1">
            <gpxtpx:hr>98</gpxtpx:hr>
          </gpxtpx:TrackPointExtension>
        </extensions>
      </trkpt>
      <trkpt lat="46.03765" lon="6.21211">
        <ele>787.8</ele>
        <time>2021-03-02T13:06:25Z</time>
        <extensions>
          <gpxtpx:TrackPointExtension xmlns:gpxtpx="http://www.garmin.com/xmlschemas/TrackPointExtension/v1">
            <gpxtpx:hr>97</gpxtpx:hr>
          </gpxtpx:TrackPointExtension>
        </extensions>
      </trkpt>
      <trkpt lat="46.03759" lon="6.21198">
        <ele>787.2</ele>
        <time>2021-03-02T13:06:26Z</time>
        <extensions>
          <gpxtpx:TrackPointExtension xmlns:gpxtpx="http://www.garmin.com/xmlschemas/TrackPointExtension/v1">
            <gpxtpx:hr>96</gpxtpx:hr>
          </gpxtpx:TrackPointExtension>
        </extensions>
      </trkpt>
      <trkpt lat="46.03754" lon="6.21185">
        <ele>786.5</ele>
        <time>2021-03-02T13:06:27Z</time>
        <extensions>
          <gpxtpx:TrackPointExtension xmlns:gpxtpx="http://www.garmin.com/xmlschemas/TrackPointExtension/v1">
            <gpxtpx:hr>96</gpxtpx:hr>
          </gpxtpx:TrackPointExtension>
        </extensions>
      </trkpt>
      <trkpt lat="46.03749" lon="6.2117">
        <ele>785.7</ele>
        <time>2021-03-02T13:06:28Z</time>
        <extensions>
          <gpxtpx:TrackPointExtension xmlns:gpxtpx="http://www.garmin.com/xmlschemas/TrackPointExtension/v1">
            <gpxtpx:hr>96</gpxtpx:hr>
          </gpxtpx:TrackPointExtension>
        </extensions>
      </trkpt>
      <trkpt lat="46.03744" lon="6.21156">
        <ele>784.9</ele>
        <time>2021-03-02T13:06:29Z</time>
        <extensions>
          <gpxtpx:TrackPointExtension xmlns:gpxtpx="http://www.garmin.com/xmlschemas/TrackPointExtension/v1">
            <gpxtpx:hr>96</gpxtpx:hr>
          </gpxtpx:TrackPointExtension>
        </extensions>
      </trkpt>
      <trkpt lat="46.03739" lon="6.21141">
        <ele>784</ele>
        <time>2021-03-02T13:06:30Z</time>
        <extensions>
          <gpxtpx:TrackPointExtension xmlns:gpxtpx="http://www.garmin.com/xmlschemas/TrackPointExtension/v1">
            <gpxtpx:hr>96</gpxtpx:hr>
          </gpxtpx:TrackPointExtension>
        </extensions>
      </trkpt>
      <trkpt lat="46.03734" lon="6.21125">
        <ele>783.3</ele>
        <time>2021-03-02T13:06:31Z</time>
        <extensions>
          <gpxtpx:TrackPointExtension xmlns:gpxtpx="http://www.garmin.com/xmlschemas/TrackPointExtension/v1">
            <gpxtpx:hr>96</gpxtpx:hr>
          </gpxtpx:TrackPointExtension>
        </extensions>
      </trkpt>
      <trkpt lat="46.03729" lon="6.21109">
        <ele>782.6</ele>
        <time>2021-03-02T13:06:32Z</time>
        <extensions>
          <gpxtpx:TrackPointExtension xmlns:gpxtpx="http://www.garmin.com/xmlschemas/TrackPointExtension/v1">
            <gpxtpx:hr>96</gpxtpx:hr>
          </gpxtpx:TrackPointExtension>
        </extensions>
      </trkpt>
      <trkpt lat="46.03724" lon="6.21093">
        <ele>782.1</ele>
        <time>2021-03-02T13:06:33Z</time>
        <extensions>
          <gpxtpx:TrackPointExtension xmlns:gpxtpx="http://www.garmin.com/xmlschemas/TrackPointExtension/v1">
            <gpxtpx:hr>96</gpxtpx:hr>
          </gpxtpx:TrackPointExtension>
        </extensions>
      </trkpt>
      <trkpt lat="46.03718" lon="6.21078">
        <ele>781.9</ele>
        <time>2021-03-02T13:06:34Z</time>
        <extensions>
          <gpxtpx:TrackPointExtension xmlns:gpxtpx="http://www.garmin.com/xmlschemas/TrackPointExtension/v1">
            <gpxtpx:hr>96</gpxtpx:hr>
          </gpxtpx:TrackPointExtension>
        </extensions>
      </trkpt>
      <trkpt lat="46.03711" lon="6.21064">
        <ele>782.2</ele>
        <time>2021-03-02T13:06:35Z</time>
        <extensions>
          <gpxtpx:TrackPointExtension xmlns:gpxtpx="http://www.garmin.com/xmlschemas/TrackPointExtension/v1">
            <gpxtpx:hr>96</gpxtpx:hr>
          </gpxtpx:TrackPointExtension>
        </extensions>
      </trkpt>
      <trkpt lat="46.03704" lon="6.21052">
        <ele>782.6</ele>
        <time>2021-03-02T13:06:36Z</time>
        <extensions>
          <gpxtpx:TrackPointExtension xmlns:gpxtpx="http://www.garmin.com/xmlschemas/TrackPointExtension/v1">
            <gpxtpx:hr>96</gpxtpx:hr>
          </gpxtpx:TrackPointExtension>
        </extensions>
      </trkpt>
      <trkpt lat="46.03696" lon="6.2104">
        <ele>783</ele>
        <time>2021-03-02T13:06:37Z</time>
        <extensions>
          <gpxtpx:TrackPointExtension xmlns:gpxtpx="http://www.garmin.com/xmlschemas/TrackPointExtension/v1">
            <gpxtpx:hr>96</gpxtpx:hr>
          </gpxtpx:TrackPointExtension>
        </extensions>
      </trkpt>
      <trkpt lat="46.03688" lon="6.2103">
        <ele>783.4</ele>
        <time>2021-03-02T13:06:38Z</time>
        <extensions>
          <gpxtpx:TrackPointExtension xmlns:gpxtpx="http://www.garmin.com/xmlschemas/TrackPointExtension/v1">
            <gpxtpx:hr>96</gpxtpx:hr>
          </gpxtpx:TrackPointExtension>
        </extensions>
      </trkpt>
      <trkpt lat="46.0368" lon="6.2102">
        <ele>783.9</ele>
        <time>2021-03-02T13:06:39Z</time>
        <extensions>
          <gpxtpx:TrackPointExtension xmlns:gpxtpx="http://www.garmin.com/xmlschemas/TrackPointExtension/v1">
            <gpxtpx:hr>96</gpxtpx:hr>
          </gpxtpx:TrackPointExtension>
        </extensions>
      </trkpt>
      <trkpt lat="46.03672" lon="6.21012">
        <ele>784.3</ele>
        <time>2021-03-02T13:06:40Z</time>
        <extensions>
          <gpxtpx:TrackPointExtension xmlns:gpxtpx="http://www.garmin.com/xmlschemas/TrackPointExtension/v1">
            <gpxtpx:hr>96</gpxtpx:hr>
          </gpxtpx:TrackPointExtension>
        </extensions>
      </trkpt>
      <trkpt lat="46.03665" lon="6.21004">
        <ele>784.7</ele>
        <time>2021-03-02T13:06:41Z</time>
        <extensions>
          <gpxtpx:TrackPointExtension xmlns:gpxtpx="http://www.garmin.com/xmlschemas/TrackPointExtension/v1">
            <gpxtpx:hr>97</gpxtpx:hr>
          </gpxtpx:TrackPointExtension>
        </extensions>
      </trkpt>
      <trkpt lat="46.03658" lon="6.20998">
        <ele>785</ele>
        <time>2021-03-02T13:06:42Z</time>
        <extensions>
          <gpxtpx:TrackPointExtension xmlns:gpxtpx="http://www.garmin.com/xmlschemas/TrackPointExtension/v1">
            <gpxtpx:hr>97</gpxtpx:hr>
          </gpxtpx:TrackPointExtension>
        </extensions>
      </trkpt>
      <trkpt lat="46.0365" lon="6.20993">
        <ele>785.1</ele>
        <time>2021-03-02T13:06:43Z</time>
        <extensions>
          <gpxtpx:TrackPointExtension xmlns:gpxtpx="http://www.garmin.com/xmlschemas/TrackPointExtension/v1">
            <gpxtpx:hr>97</gpxtpx:hr>
          </gpxtpx:TrackPointExtension>
        </extensions>
      </trkpt>
      <trkpt lat="46.03642" lon="6.20989">
        <ele>785.2</ele>
        <time>2021-03-02T13:06:44Z</time>
        <extensions>
          <gpxtpx:TrackPointExtension xmlns:gpxtpx="http://www.garmin.com/xmlschemas/TrackPointExtension/v1">
            <gpxtpx:hr>97</gpxtpx:hr>
          </gpxtpx:TrackPointExtension>
        </extensions>
      </trkpt>
      <trkpt lat="46.03635" lon="6.20984">
        <ele>785.2</ele>
        <time>2021-03-02T13:06:45Z</time>
        <extensions>
          <gpxtpx:TrackPointExtension xmlns:gpxtpx="http://www.garmin.com/xmlschemas/TrackPointExtension/v1">
            <gpxtpx:hr>97</gpxtpx:hr>
          </gpxtpx:TrackPointExtension>
        </extensions>
      </trkpt>
      <trkpt lat="46.03627" lon="6.20981">
        <ele>785.1</ele>
        <time>2021-03-02T13:06:46Z</time>
        <extensions>
          <gpxtpx:TrackPointExtension xmlns:gpxtpx="http://www.garmin.com/xmlschemas/TrackPointExtension/v1">
            <gpxtpx:hr>97</gpxtpx:hr>
          </gpxtpx:TrackPointExtension>
        </extensions>
      </trkpt>
      <trkpt lat="46.03619" lon="6.20977">
        <ele>785.1</ele>
        <time>2021-03-02T13:06:47Z</time>
        <extensions>
          <gpxtpx:TrackPointExtension xmlns:gpxtpx="http://www.garmin.com/xmlschemas/TrackPointExtension/v1">
            <gpxtpx:hr>97</gpxtpx:hr>
          </gpxtpx:TrackPointExtension>
        </extensions>
      </trkpt>
      <trkpt lat="46.03611" lon="6.20974">
        <ele>785</ele>
        <time>2021-03-02T13:06:48Z</time>
        <extensions>
          <gpxtpx:TrackPointExtension xmlns:gpxtpx="http://www.garmin.com/xmlschemas/TrackPointExtension/v1">
            <gpxtpx:hr>97</gpxtpx:hr>
          </gpxtpx:TrackPointExtension>
        </extensions>
      </trkpt>
      <trkpt lat="46.03603" lon="6.20971">
        <ele>784.9</ele>
        <time>2021-03-02T13:06:49Z</time>
        <extensions>
          <gpxtpx:TrackPointExtension xmlns:gpxtpx="http://www.garmin.com/xmlschemas/TrackPointExtension/v1">
            <gpxtpx:hr>96</gpxtpx:hr>
          </gpxtpx:TrackPointExtension>
        </extensions>
      </trkpt>
      <trkpt lat="46.03594" lon="6.20968">
        <ele>784.7</ele>
        <time>2021-03-02T13:06:50Z</time>
        <extensions>
          <gpxtpx:TrackPointExtension xmlns:gpxtpx="http://www.garmin.com/xmlschemas/TrackPointExtension/v1">
            <gpxtpx:hr>96</gpxtpx:hr>
          </gpxtpx:TrackPointExtension>
        </extensions>
      </trkpt>
      <trkpt lat="46.03586" lon="6.20965">
        <ele>784.5</ele>
        <time>2021-03-02T13:06:51Z</time>
        <extensions>
          <gpxtpx:TrackPointExtension xmlns:gpxtpx="http://www.garmin.com/xmlschemas/TrackPointExtension/v1">
            <gpxtpx:hr>97</gpxtpx:hr>
          </gpxtpx:TrackPointExtension>
        </extensions>
      </trkpt>
      <trkpt lat="46.03578" lon="6.20961">
        <ele>784.2</ele>
        <time>2021-03-02T13:06:52Z</time>
        <extensions>
          <gpxtpx:TrackPointExtension xmlns:gpxtpx="http://www.garmin.com/xmlschemas/TrackPointExtension/v1">
            <gpxtpx:hr>97</gpxtpx:hr>
          </gpxtpx:TrackPointExtension>
        </extensions>
      </trkpt>
      <trkpt lat="46.03569" lon="6.20958">
        <ele>784</ele>
        <time>2021-03-02T13:06:53Z</time>
        <extensions>
          <gpxtpx:TrackPointExtension xmlns:gpxtpx="http://www.garmin.com/xmlschemas/TrackPointExtension/v1">
            <gpxtpx:hr>97</gpxtpx:hr>
          </gpxtpx:TrackPointExtension>
        </extensions>
      </trkpt>
      <trkpt lat="46.0356" lon="6.20954">
        <ele>783.7</ele>
        <time>2021-03-02T13:06:54Z</time>
        <extensions>
          <gpxtpx:TrackPointExtension xmlns:gpxtpx="http://www.garmin.com/xmlschemas/TrackPointExtension/v1">
            <gpxtpx:hr>97</gpxtpx:hr>
          </gpxtpx:TrackPointExtension>
        </extensions>
      </trkpt>
      <trkpt lat="46.03552" lon="6.20951">
        <ele>783.3</ele>
        <time>2021-03-02T13:06:55Z</time>
        <extensions>
          <gpxtpx:TrackPointExtension xmlns:gpxtpx="http://www.garmin.com/xmlschemas/TrackPointExtension/v1">
            <gpxtpx:hr>97</gpxtpx:hr>
          </gpxtpx:TrackPointExtension>
        </extensions>
      </trkpt>
      <trkpt lat="46.03543" lon="6.20947">
        <ele>783</ele>
        <time>2021-03-02T13:06:56Z</time>
        <extensions>
          <gpxtpx:TrackPointExtension xmlns:gpxtpx="http://www.garmin.com/xmlschemas/TrackPointExtension/v1">
            <gpxtpx:hr>97</gpxtpx:hr>
          </gpxtpx:TrackPointExtension>
        </extensions>
      </trkpt>
      <trkpt lat="46.03534" lon="6.20944">
        <ele>782.6</ele>
        <time>2021-03-02T13:06:57Z</time>
        <extensions>
          <gpxtpx:TrackPointExtension xmlns:gpxtpx="http://www.garmin.com/xmlschemas/TrackPointExtension/v1">
            <gpxtpx:hr>97</gpxtpx:hr>
          </gpxtpx:TrackPointExtension>
        </extensions>
      </trkpt>
      <trkpt lat="46.03525" lon="6.2094">
        <ele>782.4</ele>
        <time>2021-03-02T13:06:58Z</time>
        <extensions>
          <gpxtpx:TrackPointExtension xmlns:gpxtpx="http://www.garmin.com/xmlschemas/TrackPointExtension/v1">
            <gpxtpx:hr>97</gpxtpx:hr>
          </gpxtpx:TrackPointExtension>
        </extensions>
      </trkpt>
      <trkpt lat="46.03516" lon="6.20937">
        <ele>782.1</ele>
        <time>2021-03-02T13:06:59Z</time>
        <extensions>
          <gpxtpx:TrackPointExtension xmlns:gpxtpx="http://www.garmin.com/xmlschemas/TrackPointExtension/v1">
            <gpxtpx:hr>97</gpxtpx:hr>
          </gpxtpx:TrackPointExtension>
        </extensions>
      </trkpt>
      <trkpt lat="46.03506" lon="6.20933">
        <ele>781.7</ele>
        <time>2021-03-02T13:07:00Z</time>
        <extensions>
          <gpxtpx:TrackPointExtension xmlns:gpxtpx="http://www.garmin.com/xmlschemas/TrackPointExtension/v1">
            <gpxtpx:hr>97</gpxtpx:hr>
          </gpxtpx:TrackPointExtension>
        </extensions>
      </trkpt>
      <trkpt lat="46.03497" lon="6.20929">
        <ele>781.4</ele>
        <time>2021-03-02T13:07:01Z</time>
        <extensions>
          <gpxtpx:TrackPointExtension xmlns:gpxtpx="http://www.garmin.com/xmlschemas/TrackPointExtension/v1">
            <gpxtpx:hr>97</gpxtpx:hr>
          </gpxtpx:TrackPointExtension>
        </extensions>
      </trkpt>
      <trkpt lat="46.03488" lon="6.20925">
        <ele>781.1</ele>
        <time>2021-03-02T13:07:02Z</time>
        <extensions>
          <gpxtpx:TrackPointExtension xmlns:gpxtpx="http://www.garmin.com/xmlschemas/TrackPointExtension/v1">
            <gpxtpx:hr>97</gpxtpx:hr>
          </gpxtpx:TrackPointExtension>
        </extensions>
      </trkpt>
      <trkpt lat="46.03478" lon="6.20922">
        <ele>780.8</ele>
        <time>2021-03-02T13:07:03Z</time>
        <extensions>
          <gpxtpx:TrackPointExtension xmlns:gpxtpx="http://www.garmin.com/xmlschemas/TrackPointExtension/v1">
            <gpxtpx:hr>97</gpxtpx:hr>
          </gpxtpx:TrackPointExtension>
        </extensions>
      </trkpt>
      <trkpt lat="46.03469" lon="6.20918">
        <ele>780.5</ele>
        <time>2021-03-02T13:07:04Z</time>
        <extensions>
          <gpxtpx:TrackPointExtension xmlns:gpxtpx="http://www.garmin.com/xmlschemas/TrackPointExtension/v1">
            <gpxtpx:hr>97</gpxtpx:hr>
          </gpxtpx:TrackPointExtension>
        </extensions>
      </trkpt>
      <trkpt lat="46.0346" lon="6.20914">
        <ele>780.3</ele>
        <time>2021-03-02T13:07:05Z</time>
        <extensions>
          <gpxtpx:TrackPointExtension xmlns:gpxtpx="http://www.garmin.com/xmlschemas/TrackPointExtension/v1">
            <gpxtpx:hr>97</gpxtpx:hr>
          </gpxtpx:TrackPointExtension>
        </extensions>
      </trkpt>
      <trkpt lat="46.03451" lon="6.2091">
        <ele>780</ele>
        <time>2021-03-02T13:07:06Z</time>
        <extensions>
          <gpxtpx:TrackPointExtension xmlns:gpxtpx="http://www.garmin.com/xmlschemas/TrackPointExtension/v1">
            <gpxtpx:hr>98</gpxtpx:hr>
          </gpxtpx:TrackPointExtension>
        </extensions>
      </trkpt>
      <trkpt lat="46.03441" lon="6.20907">
        <ele>779.8</ele>
        <time>2021-03-02T13:07:07Z</time>
        <extensions>
          <gpxtpx:TrackPointExtension xmlns:gpxtpx="http://www.garmin.com/xmlschemas/TrackPointExtension/v1">
            <gpxtpx:hr>98</gpxtpx:hr>
          </gpxtpx:TrackPointExtension>
        </extensions>
      </trkpt>
      <trkpt lat="46.03432" lon="6.20903">
        <ele>779.6</ele>
        <time>2021-03-02T13:07:08Z</time>
        <extensions>
          <gpxtpx:TrackPointExtension xmlns:gpxtpx="http://www.garmin.com/xmlschemas/TrackPointExtension/v1">
            <gpxtpx:hr>99</gpxtpx:hr>
          </gpxtpx:TrackPointExtension>
        </extensions>
      </trkpt>
      <trkpt lat="46.03423" lon="6.20899">
        <ele>779.4</ele>
        <time>2021-03-02T13:07:09Z</time>
        <extensions>
          <gpxtpx:TrackPointExtension xmlns:gpxtpx="http://www.garmin.com/xmlschemas/TrackPointExtension/v1">
            <gpxtpx:hr>100</gpxtpx:hr>
          </gpxtpx:TrackPointExtension>
        </extensions>
      </trkpt>
      <trkpt lat="46.03414" lon="6.20895">
        <ele>779.2</ele>
        <time>2021-03-02T13:07:10Z</time>
        <extensions>
          <gpxtpx:TrackPointExtension xmlns:gpxtpx="http://www.garmin.com/xmlschemas/TrackPointExtension/v1">
            <gpxtpx:hr>100</gpxtpx:hr>
          </gpxtpx:TrackPointExtension>
        </extensions>
      </trkpt>
      <trkpt lat="46.03405" lon="6.20891">
        <ele>778.9</ele>
        <time>2021-03-02T13:07:11Z</time>
        <extensions>
          <gpxtpx:TrackPointExtension xmlns:gpxtpx="http://www.garmin.com/xmlschemas/TrackPointExtension/v1">
            <gpxtpx:hr>101</gpxtpx:hr>
          </gpxtpx:TrackPointExtension>
        </extensions>
      </trkpt>
      <trkpt lat="46.03396" lon="6.20887">
        <ele>778.6</ele>
        <time>2021-03-02T13:07:12Z</time>
        <extensions>
          <gpxtpx:TrackPointExtension xmlns:gpxtpx="http://www.garmin.com/xmlschemas/TrackPointExtension/v1">
            <gpxtpx:hr>101</gpxtpx:hr>
          </gpxtpx:TrackPointExtension>
        </extensions>
      </trkpt>
      <trkpt lat="46.03387" lon="6.20882">
        <ele>778.3</ele>
        <time>2021-03-02T13:07:13Z</time>
        <extensions>
          <gpxtpx:TrackPointExtension xmlns:gpxtpx="http://www.garmin.com/xmlschemas/TrackPointExtension/v1">
            <gpxtpx:hr>101</gpxtpx:hr>
          </gpxtpx:TrackPointExtension>
        </extensions>
      </trkpt>
      <trkpt lat="46.03378" lon="6.20877">
        <ele>778</ele>
        <time>2021-03-02T13:07:14Z</time>
        <extensions>
          <gpxtpx:TrackPointExtension xmlns:gpxtpx="http://www.garmin.com/xmlschemas/TrackPointExtension/v1">
            <gpxtpx:hr>101</gpxtpx:hr>
          </gpxtpx:TrackPointExtension>
        </extensions>
      </trkpt>
      <trkpt lat="46.03369" lon="6.20872">
        <ele>777.6</ele>
        <time>2021-03-02T13:07:15Z</time>
        <extensions>
          <gpxtpx:TrackPointExtension xmlns:gpxtpx="http://www.garmin.com/xmlschemas/TrackPointExtension/v1">
            <gpxtpx:hr>101</gpxtpx:hr>
          </gpxtpx:TrackPointExtension>
        </extensions>
      </trkpt>
      <trkpt lat="46.03361" lon="6.20868">
        <ele>777.3</ele>
        <time>2021-03-02T13:07:16Z</time>
        <extensions>
          <gpxtpx:TrackPointExtension xmlns:gpxtpx="http://www.garmin.com/xmlschemas/TrackPointExtension/v1">
            <gpxtpx:hr>101</gpxtpx:hr>
          </gpxtpx:TrackPointExtension>
        </extensions>
      </trkpt>
      <trkpt lat="46.03352" lon="6.20863">
        <ele>777</ele>
        <time>2021-03-02T13:07:17Z</time>
        <extensions>
          <gpxtpx:TrackPointExtension xmlns:gpxtpx="http://www.garmin.com/xmlschemas/TrackPointExtension/v1">
            <gpxtpx:hr>101</gpxtpx:hr>
          </gpxtpx:TrackPointExtension>
        </extensions>
      </trkpt>
      <trkpt lat="46.03343" lon="6.20857">
        <ele>776.7</ele>
        <time>2021-03-02T13:07:18Z</time>
        <extensions>
          <gpxtpx:TrackPointExtension xmlns:gpxtpx="http://www.garmin.com/xmlschemas/TrackPointExtension/v1">
            <gpxtpx:hr>101</gpxtpx:hr>
          </gpxtpx:TrackPointExtension>
        </extensions>
      </trkpt>
      <trkpt lat="46.03335" lon="6.20852">
        <ele>776.4</ele>
        <time>2021-03-02T13:07:19Z</time>
        <extensions>
          <gpxtpx:TrackPointExtension xmlns:gpxtpx="http://www.garmin.com/xmlschemas/TrackPointExtension/v1">
            <gpxtpx:hr>101</gpxtpx:hr>
          </gpxtpx:TrackPointExtension>
        </extensions>
      </trkpt>
      <trkpt lat="46.03326" lon="6.20847">
        <ele>776</ele>
        <time>2021-03-02T13:07:20Z</time>
        <extensions>
          <gpxtpx:TrackPointExtension xmlns:gpxtpx="http://www.garmin.com/xmlschemas/TrackPointExtension/v1">
            <gpxtpx:hr>101</gpxtpx:hr>
          </gpxtpx:TrackPointExtension>
        </extensions>
      </trkpt>
      <trkpt lat="46.03318" lon="6.20841">
        <ele>775.8</ele>
        <time>2021-03-02T13:07:21Z</time>
        <extensions>
          <gpxtpx:TrackPointExtension xmlns:gpxtpx="http://www.garmin.com/xmlschemas/TrackPointExtension/v1">
            <gpxtpx:hr>102</gpxtpx:hr>
          </gpxtpx:TrackPointExtension>
        </extensions>
      </trkpt>
      <trkpt lat="46.03309" lon="6.20835">
        <ele>775.5</ele>
        <time>2021-03-02T13:07:22Z</time>
        <extensions>
          <gpxtpx:TrackPointExtension xmlns:gpxtpx="http://www.garmin.com/xmlschemas/TrackPointExtension/v1">
            <gpxtpx:hr>102</gpxtpx:hr>
          </gpxtpx:TrackPointExtension>
        </extensions>
      </trkpt>
      <trkpt lat="46.033" lon="6.20829">
        <ele>775.3</ele>
        <time>2021-03-02T13:07:23Z</time>
        <extensions>
          <gpxtpx:TrackPointExtension xmlns:gpxtpx="http://www.garmin.com/xmlschemas/TrackPointExtension/v1">
            <gpxtpx:hr>102</gpxtpx:hr>
          </gpxtpx:TrackPointExtension>
        </extensions>
      </trkpt>
      <trkpt lat="46.03291" lon="6.20823">
        <ele>775</ele>
        <time>2021-03-02T13:07:24Z</time>
        <extensions>
          <gpxtpx:TrackPointExtension xmlns:gpxtpx="http://www.garmin.com/xmlschemas/TrackPointExtension/v1">
            <gpxtpx:hr>102</gpxtpx:hr>
          </gpxtpx:TrackPointExtension>
        </extensions>
      </trkpt>
      <trkpt lat="46.03283" lon="6.20817">
        <ele>774.8</ele>
        <time>2021-03-02T13:07:25Z</time>
        <extensions>
          <gpxtpx:TrackPointExtension xmlns:gpxtpx="http://www.garmin.com/xmlschemas/TrackPointExtension/v1">
            <gpxtpx:hr>103</gpxtpx:hr>
          </gpxtpx:TrackPointExtension>
        </extensions>
      </trkpt>
      <trkpt lat="46.03274" lon="6.20812">
        <ele>774.7</ele>
        <time>2021-03-02T13:07:26Z</time>
        <extensions>
          <gpxtpx:TrackPointExtension xmlns:gpxtpx="http://www.garmin.com/xmlschemas/TrackPointExtension/v1">
            <gpxtpx:hr>103</gpxtpx:hr>
          </gpxtpx:TrackPointExtension>
        </extensions>
      </trkpt>
      <trkpt lat="46.03265" lon="6.20806">
        <ele>774.5</ele>
        <time>2021-03-02T13:07:27Z</time>
        <extensions>
          <gpxtpx:TrackPointExtension xmlns:gpxtpx="http://www.garmin.com/xmlschemas/TrackPointExtension/v1">
            <gpxtpx:hr>103</gpxtpx:hr>
          </gpxtpx:TrackPointExtension>
        </extensions>
      </trkpt>
      <trkpt lat="46.03256" lon="6.20799">
        <ele>774.4</ele>
        <time>2021-03-02T13:07:28Z</time>
        <extensions>
          <gpxtpx:TrackPointExtension xmlns:gpxtpx="http://www.garmin.com/xmlschemas/TrackPointExtension/v1">
            <gpxtpx:hr>103</gpxtpx:hr>
          </gpxtpx:TrackPointExtension>
        </extensions>
      </trkpt>
      <trkpt lat="46.03248" lon="6.20792">
        <ele>774.3</ele>
        <time>2021-03-02T13:07:29Z</time>
        <extensions>
          <gpxtpx:TrackPointExtension xmlns:gpxtpx="http://www.garmin.com/xmlschemas/TrackPointExtension/v1">
            <gpxtpx:hr>103</gpxtpx:hr>
          </gpxtpx:TrackPointExtension>
        </extensions>
      </trkpt>
      <trkpt lat="46.03239" lon="6.20785">
        <ele>774.2</ele>
        <time>2021-03-02T13:07:30Z</time>
        <extensions>
          <gpxtpx:TrackPointExtension xmlns:gpxtpx="http://www.garmin.com/xmlschemas/TrackPointExtension/v1">
            <gpxtpx:hr>104</gpxtpx:hr>
          </gpxtpx:TrackPointExtension>
        </extensions>
      </trkpt>
      <trkpt lat="46.03231" lon="6.20778">
        <ele>774.1</ele>
        <time>2021-03-02T13:07:31Z</time>
        <extensions>
          <gpxtpx:TrackPointExtension xmlns:gpxtpx="http://www.garmin.com/xmlschemas/TrackPointExtension/v1">
            <gpxtpx:hr>104</gpxtpx:hr>
          </gpxtpx:TrackPointExtension>
        </extensions>
      </trkpt>
      <trkpt lat="46.03223" lon="6.20771">
        <ele>774</ele>
        <time>2021-03-02T13:07:32Z</time>
        <extensions>
          <gpxtpx:TrackPointExtension xmlns:gpxtpx="http://www.garmin.com/xmlschemas/TrackPointExtension/v1">
            <gpxtpx:hr>104</gpxtpx:hr>
          </gpxtpx:TrackPointExtension>
        </extensions>
      </trkpt>
      <trkpt lat="46.03215" lon="6.20764">
        <ele>774</ele>
        <time>2021-03-02T13:07:33Z</time>
        <extensions>
          <gpxtpx:TrackPointExtension xmlns:gpxtpx="http://www.garmin.com/xmlschemas/TrackPointExtension/v1">
            <gpxtpx:hr>104</gpxtpx:hr>
          </gpxtpx:TrackPointExtension>
        </extensions>
      </trkpt>
      <trkpt lat="46.03206" lon="6.20757">
        <ele>774</ele>
        <time>2021-03-02T13:07:34Z</time>
        <extensions>
          <gpxtpx:TrackPointExtension xmlns:gpxtpx="http://www.garmin.com/xmlschemas/TrackPointExtension/v1">
            <gpxtpx:hr>105</gpxtpx:hr>
          </gpxtpx:TrackPointExtension>
        </extensions>
      </trkpt>
      <trkpt lat="46.03198" lon="6.2075">
        <ele>773.9</ele>
        <time>2021-03-02T13:07:35Z</time>
        <extensions>
          <gpxtpx:TrackPointExtension xmlns:gpxtpx="http://www.garmin.com/xmlschemas/TrackPointExtension/v1">
            <gpxtpx:hr>106</gpxtpx:hr>
          </gpxtpx:TrackPointExtension>
        </extensions>
      </trkpt>
      <trkpt lat="46.0319" lon="6.20743">
        <ele>773.9</ele>
        <time>2021-03-02T13:07:36Z</time>
        <extensions>
          <gpxtpx:TrackPointExtension xmlns:gpxtpx="http://www.garmin.com/xmlschemas/TrackPointExtension/v1">
            <gpxtpx:hr>106</gpxtpx:hr>
          </gpxtpx:TrackPointExtension>
        </extensions>
      </trkpt>
      <trkpt lat="46.03182" lon="6.20736">
        <ele>773.8</ele>
        <time>2021-03-02T13:07:37Z</time>
        <extensions>
          <gpxtpx:TrackPointExtension xmlns:gpxtpx="http://www.garmin.com/xmlschemas/TrackPointExtension/v1">
            <gpxtpx:hr>106</gpxtpx:hr>
          </gpxtpx:TrackPointExtension>
        </extensions>
      </trkpt>
      <trkpt lat="46.03175" lon="6.20728">
        <ele>773.6</ele>
        <time>2021-03-02T13:07:38Z</time>
        <extensions>
          <gpxtpx:TrackPointExtension xmlns:gpxtpx="http://www.garmin.com/xmlschemas/TrackPointExtension/v1">
            <gpxtpx:hr>106</gpxtpx:hr>
          </gpxtpx:TrackPointExtension>
        </extensions>
      </trkpt>
      <trkpt lat="46.03167" lon="6.20721">
        <ele>773.2</ele>
        <time>2021-03-02T13:07:39Z</time>
        <extensions>
          <gpxtpx:TrackPointExtension xmlns:gpxtpx="http://www.garmin.com/xmlschemas/TrackPointExtension/v1">
            <gpxtpx:hr>106</gpxtpx:hr>
          </gpxtpx:TrackPointExtension>
        </extensions>
      </trkpt>
      <trkpt lat="46.03159" lon="6.20713">
        <ele>772.8</ele>
        <time>2021-03-02T13:07:40Z</time>
        <extensions>
          <gpxtpx:TrackPointExtension xmlns:gpxtpx="http://www.garmin.com/xmlschemas/TrackPointExtension/v1">
            <gpxtpx:hr>106</gpxtpx:hr>
          </gpxtpx:TrackPointExtension>
        </extensions>
      </trkpt>
      <trkpt lat="46.03151" lon="6.20706">
        <ele>772.3</ele>
        <time>2021-03-02T13:07:41Z</time>
        <extensions>
          <gpxtpx:TrackPointExtension xmlns:gpxtpx="http://www.garmin.com/xmlschemas/TrackPointExtension/v1">
            <gpxtpx:hr>106</gpxtpx:hr>
          </gpxtpx:TrackPointExtension>
        </extensions>
      </trkpt>
      <trkpt lat="46.03143" lon="6.20699">
        <ele>771.6</ele>
        <time>2021-03-02T13:07:42Z</time>
        <extensions>
          <gpxtpx:TrackPointExtension xmlns:gpxtpx="http://www.garmin.com/xmlschemas/TrackPointExtension/v1">
            <gpxtpx:hr>106</gpxtpx:hr>
          </gpxtpx:TrackPointExtension>
        </extensions>
      </trkpt>
      <trkpt lat="46.03134" lon="6.20694">
        <ele>770.8</ele>
        <time>2021-03-02T13:07:43Z</time>
        <extensions>
          <gpxtpx:TrackPointExtension xmlns:gpxtpx="http://www.garmin.com/xmlschemas/TrackPointExtension/v1">
            <gpxtpx:hr>106</gpxtpx:hr>
          </gpxtpx:TrackPointExtension>
        </extensions>
      </trkpt>
      <trkpt lat="46.03124" lon="6.20691">
        <ele>770</ele>
        <time>2021-03-02T13:07:44Z</time>
        <extensions>
          <gpxtpx:TrackPointExtension xmlns:gpxtpx="http://www.garmin.com/xmlschemas/TrackPointExtension/v1">
            <gpxtpx:hr>106</gpxtpx:hr>
          </gpxtpx:TrackPointExtension>
        </extensions>
      </trkpt>
      <trkpt lat="46.03114" lon="6.2069">
        <ele>769.1</ele>
        <time>2021-03-02T13:07:45Z</time>
        <extensions>
          <gpxtpx:TrackPointExtension xmlns:gpxtpx="http://www.garmin.com/xmlschemas/TrackPointExtension/v1">
            <gpxtpx:hr>106</gpxtpx:hr>
          </gpxtpx:TrackPointExtension>
        </extensions>
      </trkpt>
      <trkpt lat="46.03104" lon="6.20692">
        <ele>768.2</ele>
        <time>2021-03-02T13:07:46Z</time>
        <extensions>
          <gpxtpx:TrackPointExtension xmlns:gpxtpx="http://www.garmin.com/xmlschemas/TrackPointExtension/v1">
            <gpxtpx:hr>106</gpxtpx:hr>
          </gpxtpx:TrackPointExtension>
        </extensions>
      </trkpt>
      <trkpt lat="46.03093" lon="6.20695">
        <ele>767.3</ele>
        <time>2021-03-02T13:07:47Z</time>
        <extensions>
          <gpxtpx:TrackPointExtension xmlns:gpxtpx="http://www.garmin.com/xmlschemas/TrackPointExtension/v1">
            <gpxtpx:hr>106</gpxtpx:hr>
          </gpxtpx:TrackPointExtension>
        </extensions>
      </trkpt>
      <trkpt lat="46.03082" lon="6.20699">
        <ele>766.3</ele>
        <time>2021-03-02T13:07:48Z</time>
        <extensions>
          <gpxtpx:TrackPointExtension xmlns:gpxtpx="http://www.garmin.com/xmlschemas/TrackPointExtension/v1">
            <gpxtpx:hr>106</gpxtpx:hr>
          </gpxtpx:TrackPointExtension>
        </extensions>
      </trkpt>
      <trkpt lat="46.03071" lon="6.20703">
        <ele>765.2</ele>
        <time>2021-03-02T13:07:49Z</time>
        <extensions>
          <gpxtpx:TrackPointExtension xmlns:gpxtpx="http://www.garmin.com/xmlschemas/TrackPointExtension/v1">
            <gpxtpx:hr>106</gpxtpx:hr>
          </gpxtpx:TrackPointExtension>
        </extensions>
      </trkpt>
      <trkpt lat="46.03061" lon="6.20707">
        <ele>764.2</ele>
        <time>2021-03-02T13:07:50Z</time>
        <extensions>
          <gpxtpx:TrackPointExtension xmlns:gpxtpx="http://www.garmin.com/xmlschemas/TrackPointExtension/v1">
            <gpxtpx:hr>106</gpxtpx:hr>
          </gpxtpx:TrackPointExtension>
        </extensions>
      </trkpt>
      <trkpt lat="46.03049" lon="6.20711">
        <ele>763.2</ele>
        <time>2021-03-02T13:07:51Z</time>
        <extensions>
          <gpxtpx:TrackPointExtension xmlns:gpxtpx="http://www.garmin.com/xmlschemas/TrackPointExtension/v1">
            <gpxtpx:hr>106</gpxtpx:hr>
          </gpxtpx:TrackPointExtension>
        </extensions>
      </trkpt>
      <trkpt lat="46.03038" lon="6.20715">
        <ele>762.2</ele>
        <time>2021-03-02T13:07:52Z</time>
        <extensions>
          <gpxtpx:TrackPointExtension xmlns:gpxtpx="http://www.garmin.com/xmlschemas/TrackPointExtension/v1">
            <gpxtpx:hr>106</gpxtpx:hr>
          </gpxtpx:TrackPointExtension>
        </extensions>
      </trkpt>
      <trkpt lat="46.03027" lon="6.20718">
        <ele>761.1</ele>
        <time>2021-03-02T13:07:53Z</time>
        <extensions>
          <gpxtpx:TrackPointExtension xmlns:gpxtpx="http://www.garmin.com/xmlschemas/TrackPointExtension/v1">
            <gpxtpx:hr>106</gpxtpx:hr>
          </gpxtpx:TrackPointExtension>
        </extensions>
      </trkpt>
      <trkpt lat="46.03015" lon="6.2072">
        <ele>760.1</ele>
        <time>2021-03-02T13:07:54Z</time>
        <extensions>
          <gpxtpx:TrackPointExtension xmlns:gpxtpx="http://www.garmin.com/xmlschemas/TrackPointExtension/v1">
            <gpxtpx:hr>106</gpxtpx:hr>
          </gpxtpx:TrackPointExtension>
        </extensions>
      </trkpt>
      <trkpt lat="46.03003" lon="6.20719">
        <ele>759</ele>
        <time>2021-03-02T13:07:55Z</time>
        <extensions>
          <gpxtpx:TrackPointExtension xmlns:gpxtpx="http://www.garmin.com/xmlschemas/TrackPointExtension/v1">
            <gpxtpx:hr>105</gpxtpx:hr>
          </gpxtpx:TrackPointExtension>
        </extensions>
      </trkpt>
      <trkpt lat="46.02992" lon="6.20716">
        <ele>757.9</ele>
        <time>2021-03-02T13:07:56Z</time>
        <extensions>
          <gpxtpx:TrackPointExtension xmlns:gpxtpx="http://www.garmin.com/xmlschemas/TrackPointExtension/v1">
            <gpxtpx:hr>105</gpxtpx:hr>
          </gpxtpx:TrackPointExtension>
        </extensions>
      </trkpt>
      <trkpt lat="46.0298" lon="6.20713">
        <ele>757</ele>
        <time>2021-03-02T13:07:57Z</time>
        <extensions>
          <gpxtpx:TrackPointExtension xmlns:gpxtpx="http://www.garmin.com/xmlschemas/TrackPointExtension/v1">
            <gpxtpx:hr>105</gpxtpx:hr>
          </gpxtpx:TrackPointExtension>
        </extensions>
      </trkpt>
      <trkpt lat="46.02968" lon="6.20709">
        <ele>756.2</ele>
        <time>2021-03-02T13:07:58Z</time>
        <extensions>
          <gpxtpx:TrackPointExtension xmlns:gpxtpx="http://www.garmin.com/xmlschemas/TrackPointExtension/v1">
            <gpxtpx:hr>105</gpxtpx:hr>
          </gpxtpx:TrackPointExtension>
        </extensions>
      </trkpt>
      <trkpt lat="46.02957" lon="6.20704">
        <ele>755.3</ele>
        <time>2021-03-02T13:07:59Z</time>
        <extensions>
          <gpxtpx:TrackPointExtension xmlns:gpxtpx="http://www.garmin.com/xmlschemas/TrackPointExtension/v1">
            <gpxtpx:hr>105</gpxtpx:hr>
          </gpxtpx:TrackPointExtension>
        </extensions>
      </trkpt>
      <trkpt lat="46.02945" lon="6.207">
        <ele>754.4</ele>
        <time>2021-03-02T13:08:00Z</time>
        <extensions>
          <gpxtpx:TrackPointExtension xmlns:gpxtpx="http://www.garmin.com/xmlschemas/TrackPointExtension/v1">
            <gpxtpx:hr>105</gpxtpx:hr>
          </gpxtpx:TrackPointExtension>
        </extensions>
      </trkpt>
      <trkpt lat="46.02933" lon="6.20696">
        <ele>753.6</ele>
        <time>2021-03-02T13:08:01Z</time>
        <extensions>
          <gpxtpx:TrackPointExtension xmlns:gpxtpx="http://www.garmin.com/xmlschemas/TrackPointExtension/v1">
            <gpxtpx:hr>105</gpxtpx:hr>
          </gpxtpx:TrackPointExtension>
        </extensions>
      </trkpt>
      <trkpt lat="46.02922" lon="6.20691">
        <ele>752.7</ele>
        <time>2021-03-02T13:08:02Z</time>
        <extensions>
          <gpxtpx:TrackPointExtension xmlns:gpxtpx="http://www.garmin.com/xmlschemas/TrackPointExtension/v1">
            <gpxtpx:hr>105</gpxtpx:hr>
          </gpxtpx:TrackPointExtension>
        </extensions>
      </trkpt>
      <trkpt lat="46.0291" lon="6.20684">
        <ele>751.8</ele>
        <time>2021-03-02T13:08:03Z</time>
        <extensions>
          <gpxtpx:TrackPointExtension xmlns:gpxtpx="http://www.garmin.com/xmlschemas/TrackPointExtension/v1">
            <gpxtpx:hr>105</gpxtpx:hr>
          </gpxtpx:TrackPointExtension>
        </extensions>
      </trkpt>
      <trkpt lat="46.02899" lon="6.20675">
        <ele>750.7</ele>
        <time>2021-03-02T13:08:04Z</time>
        <extensions>
          <gpxtpx:TrackPointExtension xmlns:gpxtpx="http://www.garmin.com/xmlschemas/TrackPointExtension/v1">
            <gpxtpx:hr>105</gpxtpx:hr>
          </gpxtpx:TrackPointExtension>
        </extensions>
      </trkpt>
      <trkpt lat="46.02889" lon="6.20665">
        <ele>749.7</ele>
        <time>2021-03-02T13:08:05Z</time>
        <extensions>
          <gpxtpx:TrackPointExtension xmlns:gpxtpx="http://www.garmin.com/xmlschemas/TrackPointExtension/v1">
            <gpxtpx:hr>105</gpxtpx:hr>
          </gpxtpx:TrackPointExtension>
        </extensions>
      </trkpt>
      <trkpt lat="46.02878" lon="6.20654">
        <ele>748.7</ele>
        <time>2021-03-02T13:08:06Z</time>
        <extensions>
          <gpxtpx:TrackPointExtension xmlns:gpxtpx="http://www.garmin.com/xmlschemas/TrackPointExtension/v1">
            <gpxtpx:hr>106</gpxtpx:hr>
          </gpxtpx:TrackPointExtension>
        </extensions>
      </trkpt>
      <trkpt lat="46.02868" lon="6.20643">
        <ele>747.8</ele>
        <time>2021-03-02T13:08:07Z</time>
        <extensions>
          <gpxtpx:TrackPointExtension xmlns:gpxtpx="http://www.garmin.com/xmlschemas/TrackPointExtension/v1">
            <gpxtpx:hr>106</gpxtpx:hr>
          </gpxtpx:TrackPointExtension>
        </extensions>
      </trkpt>
      <trkpt lat="46.02859" lon="6.2063">
        <ele>746.8</ele>
        <time>2021-03-02T13:08:08Z</time>
        <extensions>
          <gpxtpx:TrackPointExtension xmlns:gpxtpx="http://www.garmin.com/xmlschemas/TrackPointExtension/v1">
            <gpxtpx:hr>106</gpxtpx:hr>
          </gpxtpx:TrackPointExtension>
        </extensions>
      </trkpt>
      <trkpt lat="46.02849" lon="6.20617">
        <ele>745.9</ele>
        <time>2021-03-02T13:08:09Z</time>
        <extensions>
          <gpxtpx:TrackPointExtension xmlns:gpxtpx="http://www.garmin.com/xmlschemas/TrackPointExtension/v1">
            <gpxtpx:hr>106</gpxtpx:hr>
          </gpxtpx:TrackPointExtension>
        </extensions>
      </trkpt>
      <trkpt lat="46.0284" lon="6.20603">
        <ele>745</ele>
        <time>2021-03-02T13:08:10Z</time>
        <extensions>
          <gpxtpx:TrackPointExtension xmlns:gpxtpx="http://www.garmin.com/xmlschemas/TrackPointExtension/v1">
            <gpxtpx:hr>106</gpxtpx:hr>
          </gpxtpx:TrackPointExtension>
        </extensions>
      </trkpt>
      <trkpt lat="46.02832" lon="6.2059">
        <ele>744.1</ele>
        <time>2021-03-02T13:08:11Z</time>
        <extensions>
          <gpxtpx:TrackPointExtension xmlns:gpxtpx="http://www.garmin.com/xmlschemas/TrackPointExtension/v1">
            <gpxtpx:hr>106</gpxtpx:hr>
          </gpxtpx:TrackPointExtension>
        </extensions>
      </trkpt>
      <trkpt lat="46.02823" lon="6.20575">
        <ele>743.3</ele>
        <time>2021-03-02T13:08:12Z</time>
        <extensions>
          <gpxtpx:TrackPointExtension xmlns:gpxtpx="http://www.garmin.com/xmlschemas/TrackPointExtension/v1">
            <gpxtpx:hr>106</gpxtpx:hr>
          </gpxtpx:TrackPointExtension>
        </extensions>
      </trkpt>
      <trkpt lat="46.02815" lon="6.20561">
        <ele>742.4</ele>
        <time>2021-03-02T13:08:13Z</time>
        <extensions>
          <gpxtpx:TrackPointExtension xmlns:gpxtpx="http://www.garmin.com/xmlschemas/TrackPointExtension/v1">
            <gpxtpx:hr>106</gpxtpx:hr>
          </gpxtpx:TrackPointExtension>
        </extensions>
      </trkpt>
      <trkpt lat="46.02807" lon="6.20546">
        <ele>741.6</ele>
        <time>2021-03-02T13:08:14Z</time>
        <extensions>
          <gpxtpx:TrackPointExtension xmlns:gpxtpx="http://www.garmin.com/xmlschemas/TrackPointExtension/v1">
            <gpxtpx:hr>106</gpxtpx:hr>
          </gpxtpx:TrackPointExtension>
        </extensions>
      </trkpt>
      <trkpt lat="46.02799" lon="6.2053">
        <ele>740.9</ele>
        <time>2021-03-02T13:08:15Z</time>
        <extensions>
          <gpxtpx:TrackPointExtension xmlns:gpxtpx="http://www.garmin.com/xmlschemas/TrackPointExtension/v1">
            <gpxtpx:hr>106</gpxtpx:hr>
          </gpxtpx:TrackPointExtension>
        </extensions>
      </trkpt>
      <trkpt lat="46.02792" lon="6.20514">
        <ele>740.4</ele>
        <time>2021-03-02T13:08:16Z</time>
        <extensions>
          <gpxtpx:TrackPointExtension xmlns:gpxtpx="http://www.garmin.com/xmlschemas/TrackPointExtension/v1">
            <gpxtpx:hr>106</gpxtpx:hr>
          </gpxtpx:TrackPointExtension>
        </extensions>
      </trkpt>
      <trkpt lat="46.02785" lon="6.20498">
        <ele>740.1</ele>
        <time>2021-03-02T13:08:17Z</time>
        <extensions>
          <gpxtpx:TrackPointExtension xmlns:gpxtpx="http://www.garmin.com/xmlschemas/TrackPointExtension/v1">
            <gpxtpx:hr>106</gpxtpx:hr>
          </gpxtpx:TrackPointExtension>
        </extensions>
      </trkpt>
      <trkpt lat="46.02778" lon="6.20482">
        <ele>740</ele>
        <time>2021-03-02T13:08:18Z</time>
        <extensions>
          <gpxtpx:TrackPointExtension xmlns:gpxtpx="http://www.garmin.com/xmlschemas/TrackPointExtension/v1">
            <gpxtpx:hr>106</gpxtpx:hr>
          </gpxtpx:TrackPointExtension>
        </extensions>
      </trkpt>
      <trkpt lat="46.0277" lon="6.20467">
        <ele>740</ele>
        <time>2021-03-02T13:08:19Z</time>
        <extensions>
          <gpxtpx:TrackPointExtension xmlns:gpxtpx="http://www.garmin.com/xmlschemas/TrackPointExtension/v1">
            <gpxtpx:hr>106</gpxtpx:hr>
          </gpxtpx:TrackPointExtension>
        </extensions>
      </trkpt>
      <trkpt lat="46.02762" lon="6.20453">
        <ele>740.1</ele>
        <time>2021-03-02T13:08:20Z</time>
        <extensions>
          <gpxtpx:TrackPointExtension xmlns:gpxtpx="http://www.garmin.com/xmlschemas/TrackPointExtension/v1">
            <gpxtpx:hr>106</gpxtpx:hr>
          </gpxtpx:TrackPointExtension>
        </extensions>
      </trkpt>
      <trkpt lat="46.02753" lon="6.20442">
        <ele>740.2</ele>
        <time>2021-03-02T13:08:21Z</time>
        <extensions>
          <gpxtpx:TrackPointExtension xmlns:gpxtpx="http://www.garmin.com/xmlschemas/TrackPointExtension/v1">
            <gpxtpx:hr>106</gpxtpx:hr>
          </gpxtpx:TrackPointExtension>
        </extensions>
      </trkpt>
      <trkpt lat="46.02745" lon="6.20431">
        <ele>740.2</ele>
        <time>2021-03-02T13:08:22Z</time>
        <extensions>
          <gpxtpx:TrackPointExtension xmlns:gpxtpx="http://www.garmin.com/xmlschemas/TrackPointExtension/v1">
            <gpxtpx:hr>106</gpxtpx:hr>
          </gpxtpx:TrackPointExtension>
        </extensions>
      </trkpt>
      <trkpt lat="46.02736" lon="6.2042">
        <ele>740</ele>
        <time>2021-03-02T13:08:23Z</time>
        <extensions>
          <gpxtpx:TrackPointExtension xmlns:gpxtpx="http://www.garmin.com/xmlschemas/TrackPointExtension/v1">
            <gpxtpx:hr>106</gpxtpx:hr>
          </gpxtpx:TrackPointExtension>
        </extensions>
      </trkpt>
      <trkpt lat="46.02727" lon="6.20409">
        <ele>739.8</ele>
        <time>2021-03-02T13:08:24Z</time>
        <extensions>
          <gpxtpx:TrackPointExtension xmlns:gpxtpx="http://www.garmin.com/xmlschemas/TrackPointExtension/v1">
            <gpxtpx:hr>106</gpxtpx:hr>
          </gpxtpx:TrackPointExtension>
        </extensions>
      </trkpt>
      <trkpt lat="46.02718" lon="6.20398">
        <ele>739.5</ele>
        <time>2021-03-02T13:08:25Z</time>
        <extensions>
          <gpxtpx:TrackPointExtension xmlns:gpxtpx="http://www.garmin.com/xmlschemas/TrackPointExtension/v1">
            <gpxtpx:hr>106</gpxtpx:hr>
          </gpxtpx:TrackPointExtension>
        </extensions>
      </trkpt>
      <trkpt lat="46.02708" lon="6.20388">
        <ele>739.1</ele>
        <time>2021-03-02T13:08:26Z</time>
        <extensions>
          <gpxtpx:TrackPointExtension xmlns:gpxtpx="http://www.garmin.com/xmlschemas/TrackPointExtension/v1">
            <gpxtpx:hr>106</gpxtpx:hr>
          </gpxtpx:TrackPointExtension>
        </extensions>
      </trkpt>
      <trkpt lat="46.02699" lon="6.20378">
        <ele>738.8</ele>
        <time>2021-03-02T13:08:27Z</time>
        <extensions>
          <gpxtpx:TrackPointExtension xmlns:gpxtpx="http://www.garmin.com/xmlschemas/TrackPointExtension/v1">
            <gpxtpx:hr>106</gpxtpx:hr>
          </gpxtpx:TrackPointExtension>
        </extensions>
      </trkpt>
      <trkpt lat="46.02689" lon="6.20369">
        <ele>738.4</ele>
        <time>2021-03-02T13:08:28Z</time>
        <extensions>
          <gpxtpx:TrackPointExtension xmlns:gpxtpx="http://www.garmin.com/xmlschemas/TrackPointExtension/v1">
            <gpxtpx:hr>105</gpxtpx:hr>
          </gpxtpx:TrackPointExtension>
        </extensions>
      </trkpt>
      <trkpt lat="46.0268" lon="6.2036">
        <ele>738</ele>
        <time>2021-03-02T13:08:29Z</time>
        <extensions>
          <gpxtpx:TrackPointExtension xmlns:gpxtpx="http://www.garmin.com/xmlschemas/TrackPointExtension/v1">
            <gpxtpx:hr>105</gpxtpx:hr>
          </gpxtpx:TrackPointExtension>
        </extensions>
      </trkpt>
      <trkpt lat="46.0267" lon="6.20351">
        <ele>737.7</ele>
        <time>2021-03-02T13:08:30Z</time>
        <extensions>
          <gpxtpx:TrackPointExtension xmlns:gpxtpx="http://www.garmin.com/xmlschemas/TrackPointExtension/v1">
            <gpxtpx:hr>105</gpxtpx:hr>
          </gpxtpx:TrackPointExtension>
        </extensions>
      </trkpt>
      <trkpt lat="46.02659" lon="6.20344">
        <ele>737.3</ele>
        <time>2021-03-02T13:08:31Z</time>
        <extensions>
          <gpxtpx:TrackPointExtension xmlns:gpxtpx="http://www.garmin.com/xmlschemas/TrackPointExtension/v1">
            <gpxtpx:hr>106</gpxtpx:hr>
          </gpxtpx:TrackPointExtension>
        </extensions>
      </trkpt>
      <trkpt lat="46.02648" lon="6.20336">
        <ele>737</ele>
        <time>2021-03-02T13:08:32Z</time>
        <extensions>
          <gpxtpx:TrackPointExtension xmlns:gpxtpx="http://www.garmin.com/xmlschemas/TrackPointExtension/v1">
            <gpxtpx:hr>105</gpxtpx:hr>
          </gpxtpx:TrackPointExtension>
        </extensions>
      </trkpt>
      <trkpt lat="46.02638" lon="6.20328">
        <ele>736.5</ele>
        <time>2021-03-02T13:08:33Z</time>
        <extensions>
          <gpxtpx:TrackPointExtension xmlns:gpxtpx="http://www.garmin.com/xmlschemas/TrackPointExtension/v1">
            <gpxtpx:hr>105</gpxtpx:hr>
          </gpxtpx:TrackPointExtension>
        </extensions>
      </trkpt>
      <trkpt lat="46.02627" lon="6.20321">
        <ele>736</ele>
        <time>2021-03-02T13:08:34Z</time>
        <extensions>
          <gpxtpx:TrackPointExtension xmlns:gpxtpx="http://www.garmin.com/xmlschemas/TrackPointExtension/v1">
            <gpxtpx:hr>105</gpxtpx:hr>
          </gpxtpx:TrackPointExtension>
        </extensions>
      </trkpt>
      <trkpt lat="46.02616" lon="6.20313">
        <ele>735.4</ele>
        <time>2021-03-02T13:08:35Z</time>
        <extensions>
          <gpxtpx:TrackPointExtension xmlns:gpxtpx="http://www.garmin.com/xmlschemas/TrackPointExtension/v1">
            <gpxtpx:hr>105</gpxtpx:hr>
          </gpxtpx:TrackPointExtension>
        </extensions>
      </trkpt>
      <trkpt lat="46.02605" lon="6.20305">
        <ele>734.8</ele>
        <time>2021-03-02T13:08:36Z</time>
        <extensions>
          <gpxtpx:TrackPointExtension xmlns:gpxtpx="http://www.garmin.com/xmlschemas/TrackPointExtension/v1">
            <gpxtpx:hr>105</gpxtpx:hr>
          </gpxtpx:TrackPointExtension>
        </extensions>
      </trkpt>
      <trkpt lat="46.02593" lon="6.20297">
        <ele>734.1</ele>
        <time>2021-03-02T13:08:37Z</time>
        <extensions>
          <gpxtpx:TrackPointExtension xmlns:gpxtpx="http://www.garmin.com/xmlschemas/TrackPointExtension/v1">
            <gpxtpx:hr>105</gpxtpx:hr>
          </gpxtpx:TrackPointExtension>
        </extensions>
      </trkpt>
      <trkpt lat="46.02582" lon="6.20289">
        <ele>733.4</ele>
        <time>2021-03-02T13:08:38Z</time>
        <extensions>
          <gpxtpx:TrackPointExtension xmlns:gpxtpx="http://www.garmin.com/xmlschemas/TrackPointExtension/v1">
            <gpxtpx:hr>105</gpxtpx:hr>
          </gpxtpx:TrackPointExtension>
        </extensions>
      </trkpt>
      <trkpt lat="46.0257" lon="6.20281">
        <ele>732.7</ele>
        <time>2021-03-02T13:08:39Z</time>
        <extensions>
          <gpxtpx:TrackPointExtension xmlns:gpxtpx="http://www.garmin.com/xmlschemas/TrackPointExtension/v1">
            <gpxtpx:hr>105</gpxtpx:hr>
          </gpxtpx:TrackPointExtension>
        </extensions>
      </trkpt>
      <trkpt lat="46.02559" lon="6.20273">
        <ele>732</ele>
        <time>2021-03-02T13:08:40Z</time>
        <extensions>
          <gpxtpx:TrackPointExtension xmlns:gpxtpx="http://www.garmin.com/xmlschemas/TrackPointExtension/v1">
            <gpxtpx:hr>105</gpxtpx:hr>
          </gpxtpx:TrackPointExtension>
        </extensions>
      </trkpt>
      <trkpt lat="46.02547" lon="6.20265">
        <ele>731.4</ele>
        <time>2021-03-02T13:08:41Z</time>
        <extensions>
          <gpxtpx:TrackPointExtension xmlns:gpxtpx="http://www.garmin.com/xmlschemas/TrackPointExtension/v1">
            <gpxtpx:hr>104</gpxtpx:hr>
          </gpxtpx:TrackPointExtension>
        </extensions>
      </trkpt>
      <trkpt lat="46.02536" lon="6.20257">
        <ele>730.8</ele>
        <time>2021-03-02T13:08:42Z</time>
        <extensions>
          <gpxtpx:TrackPointExtension xmlns:gpxtpx="http://www.garmin.com/xmlschemas/TrackPointExtension/v1">
            <gpxtpx:hr>104</gpxtpx:hr>
          </gpxtpx:TrackPointExtension>
        </extensions>
      </trkpt>
      <trkpt lat="46.02524" lon="6.20249">
        <ele>730.2</ele>
        <time>2021-03-02T13:08:43Z</time>
        <extensions>
          <gpxtpx:TrackPointExtension xmlns:gpxtpx="http://www.garmin.com/xmlschemas/TrackPointExtension/v1">
            <gpxtpx:hr>104</gpxtpx:hr>
          </gpxtpx:TrackPointExtension>
        </extensions>
      </trkpt>
      <trkpt lat="46.02512" lon="6.20241">
        <ele>729.6</ele>
        <time>2021-03-02T13:08:44Z</time>
        <extensions>
          <gpxtpx:TrackPointExtension xmlns:gpxtpx="http://www.garmin.com/xmlschemas/TrackPointExtension/v1">
            <gpxtpx:hr>104</gpxtpx:hr>
          </gpxtpx:TrackPointExtension>
        </extensions>
      </trkpt>
      <trkpt lat="46.025" lon="6.20233">
        <ele>729</ele>
        <time>2021-03-02T13:08:45Z</time>
        <extensions>
          <gpxtpx:TrackPointExtension xmlns:gpxtpx="http://www.garmin.com/xmlschemas/TrackPointExtension/v1">
            <gpxtpx:hr>105</gpxtpx:hr>
          </gpxtpx:TrackPointExtension>
        </extensions>
      </trkpt>
      <trkpt lat="46.02489" lon="6.20225">
        <ele>728.6</ele>
        <time>2021-03-02T13:08:46Z</time>
        <extensions>
          <gpxtpx:TrackPointExtension xmlns:gpxtpx="http://www.garmin.com/xmlschemas/TrackPointExtension/v1">
            <gpxtpx:hr>105</gpxtpx:hr>
          </gpxtpx:TrackPointExtension>
        </extensions>
      </trkpt>
      <trkpt lat="46.02477" lon="6.20217">
        <ele>728.2</ele>
        <time>2021-03-02T13:08:47Z</time>
        <extensions>
          <gpxtpx:TrackPointExtension xmlns:gpxtpx="http://www.garmin.com/xmlschemas/TrackPointExtension/v1">
            <gpxtpx:hr>105</gpxtpx:hr>
          </gpxtpx:TrackPointExtension>
        </extensions>
      </trkpt>
      <trkpt lat="46.02465" lon="6.2021">
        <ele>727.8</ele>
        <time>2021-03-02T13:08:48Z</time>
        <extensions>
          <gpxtpx:TrackPointExtension xmlns:gpxtpx="http://www.garmin.com/xmlschemas/TrackPointExtension/v1">
            <gpxtpx:hr>106</gpxtpx:hr>
          </gpxtpx:TrackPointExtension>
        </extensions>
      </trkpt>
      <trkpt lat="46.02454" lon="6.20202">
        <ele>727.4</ele>
        <time>2021-03-02T13:08:49Z</time>
        <extensions>
          <gpxtpx:TrackPointExtension xmlns:gpxtpx="http://www.garmin.com/xmlschemas/TrackPointExtension/v1">
            <gpxtpx:hr>106</gpxtpx:hr>
          </gpxtpx:TrackPointExtension>
        </extensions>
      </trkpt>
      <trkpt lat="46.02442" lon="6.20195">
        <ele>727.1</ele>
        <time>2021-03-02T13:08:50Z</time>
        <extensions>
          <gpxtpx:TrackPointExtension xmlns:gpxtpx="http://www.garmin.com/xmlschemas/TrackPointExtension/v1">
            <gpxtpx:hr>106</gpxtpx:hr>
          </gpxtpx:TrackPointExtension>
        </extensions>
      </trkpt>
      <trkpt lat="46.02431" lon="6.20187">
        <ele>726.8</ele>
        <time>2021-03-02T13:08:51Z</time>
        <extensions>
          <gpxtpx:TrackPointExtension xmlns:gpxtpx="http://www.garmin.com/xmlschemas/TrackPointExtension/v1">
            <gpxtpx:hr>106</gpxtpx:hr>
          </gpxtpx:TrackPointExtension>
        </extensions>
      </trkpt>
      <trkpt lat="46.0242" lon="6.2018">
        <ele>726.5</ele>
        <time>2021-03-02T13:08:52Z</time>
        <extensions>
          <gpxtpx:TrackPointExtension xmlns:gpxtpx="http://www.garmin.com/xmlschemas/TrackPointExtension/v1">
            <gpxtpx:hr>107</gpxtpx:hr>
          </gpxtpx:TrackPointExtension>
        </extensions>
      </trkpt>
      <trkpt lat="46.02409" lon="6.20172">
        <ele>726.3</ele>
        <time>2021-03-02T13:08:53Z</time>
        <extensions>
          <gpxtpx:TrackPointExtension xmlns:gpxtpx="http://www.garmin.com/xmlschemas/TrackPointExtension/v1">
            <gpxtpx:hr>108</gpxtpx:hr>
          </gpxtpx:TrackPointExtension>
        </extensions>
      </trkpt>
      <trkpt lat="46.02398" lon="6.20165">
        <ele>725.9</ele>
        <time>2021-03-02T13:08:54Z</time>
        <extensions>
          <gpxtpx:TrackPointExtension xmlns:gpxtpx="http://www.garmin.com/xmlschemas/TrackPointExtension/v1">
            <gpxtpx:hr>108</gpxtpx:hr>
          </gpxtpx:TrackPointExtension>
        </extensions>
      </trkpt>
      <trkpt lat="46.02387" lon="6.20158">
        <ele>725.5</ele>
        <time>2021-03-02T13:08:55Z</time>
        <extensions>
          <gpxtpx:TrackPointExtension xmlns:gpxtpx="http://www.garmin.com/xmlschemas/TrackPointExtension/v1">
            <gpxtpx:hr>108</gpxtpx:hr>
          </gpxtpx:TrackPointExtension>
        </extensions>
      </trkpt>
      <trkpt lat="46.02376" lon="6.20151">
        <ele>725</ele>
        <time>2021-03-02T13:08:56Z</time>
        <extensions>
          <gpxtpx:TrackPointExtension xmlns:gpxtpx="http://www.garmin.com/xmlschemas/TrackPointExtension/v1">
            <gpxtpx:hr>107</gpxtpx:hr>
          </gpxtpx:TrackPointExtension>
        </extensions>
      </trkpt>
      <trkpt lat="46.02365" lon="6.20143">
        <ele>724.3</ele>
        <time>2021-03-02T13:08:57Z</time>
        <extensions>
          <gpxtpx:TrackPointExtension xmlns:gpxtpx="http://www.garmin.com/xmlschemas/TrackPointExtension/v1">
            <gpxtpx:hr>106</gpxtpx:hr>
          </gpxtpx:TrackPointExtension>
        </extensions>
      </trkpt>
      <trkpt lat="46.02354" lon="6.20136">
        <ele>723.4</ele>
        <time>2021-03-02T13:08:58Z</time>
        <extensions>
          <gpxtpx:TrackPointExtension xmlns:gpxtpx="http://www.garmin.com/xmlschemas/TrackPointExtension/v1">
            <gpxtpx:hr>105</gpxtpx:hr>
          </gpxtpx:TrackPointExtension>
        </extensions>
      </trkpt>
      <trkpt lat="46.02343" lon="6.20129">
        <ele>722.5</ele>
        <time>2021-03-02T13:08:59Z</time>
        <extensions>
          <gpxtpx:TrackPointExtension xmlns:gpxtpx="http://www.garmin.com/xmlschemas/TrackPointExtension/v1">
            <gpxtpx:hr>104</gpxtpx:hr>
          </gpxtpx:TrackPointExtension>
        </extensions>
      </trkpt>
      <trkpt lat="46.02332" lon="6.20121">
        <ele>721.6</ele>
        <time>2021-03-02T13:09:00Z</time>
        <extensions>
          <gpxtpx:TrackPointExtension xmlns:gpxtpx="http://www.garmin.com/xmlschemas/TrackPointExtension/v1">
            <gpxtpx:hr>105</gpxtpx:hr>
          </gpxtpx:TrackPointExtension>
        </extensions>
      </trkpt>
      <trkpt lat="46.02321" lon="6.20114">
        <ele>720.6</ele>
        <time>2021-03-02T13:09:01Z</time>
        <extensions>
          <gpxtpx:TrackPointExtension xmlns:gpxtpx="http://www.garmin.com/xmlschemas/TrackPointExtension/v1">
            <gpxtpx:hr>106</gpxtpx:hr>
          </gpxtpx:TrackPointExtension>
        </extensions>
      </trkpt>
      <trkpt lat="46.02309" lon="6.20106">
        <ele>719.5</ele>
        <time>2021-03-02T13:09:02Z</time>
        <extensions>
          <gpxtpx:TrackPointExtension xmlns:gpxtpx="http://www.garmin.com/xmlschemas/TrackPointExtension/v1">
            <gpxtpx:hr>106</gpxtpx:hr>
          </gpxtpx:TrackPointExtension>
        </extensions>
      </trkpt>
      <trkpt lat="46.02297" lon="6.20098">
        <ele>718.4</ele>
        <time>2021-03-02T13:09:03Z</time>
        <extensions>
          <gpxtpx:TrackPointExtension xmlns:gpxtpx="http://www.garmin.com/xmlschemas/TrackPointExtension/v1">
            <gpxtpx:hr>107</gpxtpx:hr>
          </gpxtpx:TrackPointExtension>
        </extensions>
      </trkpt>
      <trkpt lat="46.02285" lon="6.20089">
        <ele>717.3</ele>
        <time>2021-03-02T13:09:04Z</time>
        <extensions>
          <gpxtpx:TrackPointExtension xmlns:gpxtpx="http://www.garmin.com/xmlschemas/TrackPointExtension/v1">
            <gpxtpx:hr>105</gpxtpx:hr>
          </gpxtpx:TrackPointExtension>
        </extensions>
      </trkpt>
      <trkpt lat="46.02273" lon="6.2008">
        <ele>716.4</ele>
        <time>2021-03-02T13:09:05Z</time>
        <extensions>
          <gpxtpx:TrackPointExtension xmlns:gpxtpx="http://www.garmin.com/xmlschemas/TrackPointExtension/v1">
            <gpxtpx:hr>104</gpxtpx:hr>
          </gpxtpx:TrackPointExtension>
        </extensions>
      </trkpt>
      <trkpt lat="46.02261" lon="6.20072">
        <ele>715.4</ele>
        <time>2021-03-02T13:09:06Z</time>
        <extensions>
          <gpxtpx:TrackPointExtension xmlns:gpxtpx="http://www.garmin.com/xmlschemas/TrackPointExtension/v1">
            <gpxtpx:hr>103</gpxtpx:hr>
          </gpxtpx:TrackPointExtension>
        </extensions>
      </trkpt>
      <trkpt lat="46.02249" lon="6.20063">
        <ele>714.5</ele>
        <time>2021-03-02T13:09:07Z</time>
        <extensions>
          <gpxtpx:TrackPointExtension xmlns:gpxtpx="http://www.garmin.com/xmlschemas/TrackPointExtension/v1">
            <gpxtpx:hr>102</gpxtpx:hr>
          </gpxtpx:TrackPointExtension>
        </extensions>
      </trkpt>
      <trkpt lat="46.02237" lon="6.20055">
        <ele>713.7</ele>
        <time>2021-03-02T13:09:08Z</time>
        <extensions>
          <gpxtpx:TrackPointExtension xmlns:gpxtpx="http://www.garmin.com/xmlschemas/TrackPointExtension/v1">
            <gpxtpx:hr>102</gpxtpx:hr>
          </gpxtpx:TrackPointExtension>
        </extensions>
      </trkpt>
      <trkpt lat="46.02225" lon="6.20046">
        <ele>712.9</ele>
        <time>2021-03-02T13:09:09Z</time>
        <extensions>
          <gpxtpx:TrackPointExtension xmlns:gpxtpx="http://www.garmin.com/xmlschemas/TrackPointExtension/v1">
            <gpxtpx:hr>102</gpxtpx:hr>
          </gpxtpx:TrackPointExtension>
        </extensions>
      </trkpt>
      <trkpt lat="46.02213" lon="6.20038">
        <ele>712.2</ele>
        <time>2021-03-02T13:09:10Z</time>
        <extensions>
          <gpxtpx:TrackPointExtension xmlns:gpxtpx="http://www.garmin.com/xmlschemas/TrackPointExtension/v1">
            <gpxtpx:hr>102</gpxtpx:hr>
          </gpxtpx:TrackPointExtension>
        </extensions>
      </trkpt>
      <trkpt lat="46.02201" lon="6.2003">
        <ele>711.6</ele>
        <time>2021-03-02T13:09:11Z</time>
        <extensions>
          <gpxtpx:TrackPointExtension xmlns:gpxtpx="http://www.garmin.com/xmlschemas/TrackPointExtension/v1">
            <gpxtpx:hr>102</gpxtpx:hr>
          </gpxtpx:TrackPointExtension>
        </extensions>
      </trkpt>
      <trkpt lat="46.02189" lon="6.20021">
        <ele>711.1</ele>
        <time>2021-03-02T13:09:12Z</time>
        <extensions>
          <gpxtpx:TrackPointExtension xmlns:gpxtpx="http://www.garmin.com/xmlschemas/TrackPointExtension/v1">
            <gpxtpx:hr>103</gpxtpx:hr>
          </gpxtpx:TrackPointExtension>
        </extensions>
      </trkpt>
      <trkpt lat="46.02178" lon="6.20013">
        <ele>710.6</ele>
        <time>2021-03-02T13:09:13Z</time>
        <extensions>
          <gpxtpx:TrackPointExtension xmlns:gpxtpx="http://www.garmin.com/xmlschemas/TrackPointExtension/v1">
            <gpxtpx:hr>103</gpxtpx:hr>
          </gpxtpx:TrackPointExtension>
        </extensions>
      </trkpt>
      <trkpt lat="46.02166" lon="6.20005">
        <ele>710.1</ele>
        <time>2021-03-02T13:09:14Z</time>
        <extensions>
          <gpxtpx:TrackPointExtension xmlns:gpxtpx="http://www.garmin.com/xmlschemas/TrackPointExtension/v1">
            <gpxtpx:hr>104</gpxtpx:hr>
          </gpxtpx:TrackPointExtension>
        </extensions>
      </trkpt>
      <trkpt lat="46.02155" lon="6.19997">
        <ele>709.7</ele>
        <time>2021-03-02T13:09:15Z</time>
        <extensions>
          <gpxtpx:TrackPointExtension xmlns:gpxtpx="http://www.garmin.com/xmlschemas/TrackPointExtension/v1">
            <gpxtpx:hr>104</gpxtpx:hr>
          </gpxtpx:TrackPointExtension>
        </extensions>
      </trkpt>
      <trkpt lat="46.02144" lon="6.1999">
        <ele>709.3</ele>
        <time>2021-03-02T13:09:16Z</time>
        <extensions>
          <gpxtpx:TrackPointExtension xmlns:gpxtpx="http://www.garmin.com/xmlschemas/TrackPointExtension/v1">
            <gpxtpx:hr>105</gpxtpx:hr>
          </gpxtpx:TrackPointExtension>
        </extensions>
      </trkpt>
      <trkpt lat="46.02133" lon="6.19982">
        <ele>709</ele>
        <time>2021-03-02T13:09:17Z</time>
        <extensions>
          <gpxtpx:TrackPointExtension xmlns:gpxtpx="http://www.garmin.com/xmlschemas/TrackPointExtension/v1">
            <gpxtpx:hr>105</gpxtpx:hr>
          </gpxtpx:TrackPointExtension>
        </extensions>
      </trkpt>
      <trkpt lat="46.02122" lon="6.19975">
        <ele>708.7</ele>
        <time>2021-03-02T13:09:18Z</time>
        <extensions>
          <gpxtpx:TrackPointExtension xmlns:gpxtpx="http://www.garmin.com/xmlschemas/TrackPointExtension/v1">
            <gpxtpx:hr>105</gpxtpx:hr>
          </gpxtpx:TrackPointExtension>
        </extensions>
      </trkpt>
      <trkpt lat="46.02112" lon="6.19968">
        <ele>708.4</ele>
        <time>2021-03-02T13:09:19Z</time>
        <extensions>
          <gpxtpx:TrackPointExtension xmlns:gpxtpx="http://www.garmin.com/xmlschemas/TrackPointExtension/v1">
            <gpxtpx:hr>106</gpxtpx:hr>
          </gpxtpx:TrackPointExtension>
        </extensions>
      </trkpt>
      <trkpt lat="46.02102" lon="6.1996">
        <ele>708.1</ele>
        <time>2021-03-02T13:09:20Z</time>
        <extensions>
          <gpxtpx:TrackPointExtension xmlns:gpxtpx="http://www.garmin.com/xmlschemas/TrackPointExtension/v1">
            <gpxtpx:hr>106</gpxtpx:hr>
          </gpxtpx:TrackPointExtension>
        </extensions>
      </trkpt>
      <trkpt lat="46.02092" lon="6.19951">
        <ele>707.9</ele>
        <time>2021-03-02T13:09:21Z</time>
        <extensions>
          <gpxtpx:TrackPointExtension xmlns:gpxtpx="http://www.garmin.com/xmlschemas/TrackPointExtension/v1">
            <gpxtpx:hr>106</gpxtpx:hr>
          </gpxtpx:TrackPointExtension>
        </extensions>
      </trkpt>
      <trkpt lat="46.02083" lon="6.19943">
        <ele>707.7</ele>
        <time>2021-03-02T13:09:22Z</time>
        <extensions>
          <gpxtpx:TrackPointExtension xmlns:gpxtpx="http://www.garmin.com/xmlschemas/TrackPointExtension/v1">
            <gpxtpx:hr>105</gpxtpx:hr>
          </gpxtpx:TrackPointExtension>
        </extensions>
      </trkpt>
      <trkpt lat="46.02074" lon="6.19934">
        <ele>707.4</ele>
        <time>2021-03-02T13:09:23Z</time>
        <extensions>
          <gpxtpx:TrackPointExtension xmlns:gpxtpx="http://www.garmin.com/xmlschemas/TrackPointExtension/v1">
            <gpxtpx:hr>105</gpxtpx:hr>
          </gpxtpx:TrackPointExtension>
        </extensions>
      </trkpt>
      <trkpt lat="46.02065" lon="6.19925">
        <ele>707</ele>
        <time>2021-03-02T13:09:24Z</time>
        <extensions>
          <gpxtpx:TrackPointExtension xmlns:gpxtpx="http://www.garmin.com/xmlschemas/TrackPointExtension/v1">
            <gpxtpx:hr>104</gpxtpx:hr>
          </gpxtpx:TrackPointExtension>
        </extensions>
      </trkpt>
      <trkpt lat="46.02056" lon="6.19917">
        <ele>706.4</ele>
        <time>2021-03-02T13:09:25Z</time>
        <extensions>
          <gpxtpx:TrackPointExtension xmlns:gpxtpx="http://www.garmin.com/xmlschemas/TrackPointExtension/v1">
            <gpxtpx:hr>103</gpxtpx:hr>
          </gpxtpx:TrackPointExtension>
        </extensions>
      </trkpt>
      <trkpt lat="46.02046" lon="6.1991">
        <ele>705.8</ele>
        <time>2021-03-02T13:09:26Z</time>
        <extensions>
          <gpxtpx:TrackPointExtension xmlns:gpxtpx="http://www.garmin.com/xmlschemas/TrackPointExtension/v1">
            <gpxtpx:hr>103</gpxtpx:hr>
          </gpxtpx:TrackPointExtension>
        </extensions>
      </trkpt>
      <trkpt lat="46.02036" lon="6.19904">
        <ele>705</ele>
        <time>2021-03-02T13:09:27Z</time>
        <extensions>
          <gpxtpx:TrackPointExtension xmlns:gpxtpx="http://www.garmin.com/xmlschemas/TrackPointExtension/v1">
            <gpxtpx:hr>102</gpxtpx:hr>
          </gpxtpx:TrackPointExtension>
        </extensions>
      </trkpt>
      <trkpt lat="46.02025" lon="6.19898">
        <ele>704.1</ele>
        <time>2021-03-02T13:09:28Z</time>
        <extensions>
          <gpxtpx:TrackPointExtension xmlns:gpxtpx="http://www.garmin.com/xmlschemas/TrackPointExtension/v1">
            <gpxtpx:hr>102</gpxtpx:hr>
          </gpxtpx:TrackPointExtension>
        </extensions>
      </trkpt>
      <trkpt lat="46.02015" lon="6.19891">
        <ele>703.2</ele>
        <time>2021-03-02T13:09:29Z</time>
        <extensions>
          <gpxtpx:TrackPointExtension xmlns:gpxtpx="http://www.garmin.com/xmlschemas/TrackPointExtension/v1">
            <gpxtpx:hr>102</gpxtpx:hr>
          </gpxtpx:TrackPointExtension>
        </extensions>
      </trkpt>
      <trkpt lat="46.02004" lon="6.19883">
        <ele>702.2</ele>
        <time>2021-03-02T13:09:30Z</time>
        <extensions>
          <gpxtpx:TrackPointExtension xmlns:gpxtpx="http://www.garmin.com/xmlschemas/TrackPointExtension/v1">
            <gpxtpx:hr>101</gpxtpx:hr>
          </gpxtpx:TrackPointExtension>
        </extensions>
      </trkpt>
      <trkpt lat="46.01993" lon="6.19874">
        <ele>701.5</ele>
        <time>2021-03-02T13:09:31Z</time>
        <extensions>
          <gpxtpx:TrackPointExtension xmlns:gpxtpx="http://www.garmin.com/xmlschemas/TrackPointExtension/v1">
            <gpxtpx:hr>101</gpxtpx:hr>
          </gpxtpx:TrackPointExtension>
        </extensions>
      </trkpt>
      <trkpt lat="46.01983" lon="6.19864">
        <ele>700.7</ele>
        <time>2021-03-02T13:09:32Z</time>
        <extensions>
          <gpxtpx:TrackPointExtension xmlns:gpxtpx="http://www.garmin.com/xmlschemas/TrackPointExtension/v1">
            <gpxtpx:hr>101</gpxtpx:hr>
          </gpxtpx:TrackPointExtension>
        </extensions>
      </trkpt>
      <trkpt lat="46.01972" lon="6.19854">
        <ele>699.9</ele>
        <time>2021-03-02T13:09:33Z</time>
        <extensions>
          <gpxtpx:TrackPointExtension xmlns:gpxtpx="http://www.garmin.com/xmlschemas/TrackPointExtension/v1">
            <gpxtpx:hr>100</gpxtpx:hr>
          </gpxtpx:TrackPointExtension>
        </extensions>
      </trkpt>
      <trkpt lat="46.01961" lon="6.19844">
        <ele>699.1</ele>
        <time>2021-03-02T13:09:34Z</time>
        <extensions>
          <gpxtpx:TrackPointExtension xmlns:gpxtpx="http://www.garmin.com/xmlschemas/TrackPointExtension/v1">
            <gpxtpx:hr>100</gpxtpx:hr>
          </gpxtpx:TrackPointExtension>
        </extensions>
      </trkpt>
      <trkpt lat="46.0195" lon="6.19834">
        <ele>698.4</ele>
        <time>2021-03-02T13:09:35Z</time>
        <extensions>
          <gpxtpx:TrackPointExtension xmlns:gpxtpx="http://www.garmin.com/xmlschemas/TrackPointExtension/v1">
            <gpxtpx:hr>100</gpxtpx:hr>
          </gpxtpx:TrackPointExtension>
        </extensions>
      </trkpt>
      <trkpt lat="46.01938" lon="6.19824">
        <ele>697.8</ele>
        <time>2021-03-02T13:09:36Z</time>
        <extensions>
          <gpxtpx:TrackPointExtension xmlns:gpxtpx="http://www.garmin.com/xmlschemas/TrackPointExtension/v1">
            <gpxtpx:hr>100</gpxtpx:hr>
          </gpxtpx:TrackPointExtension>
        </extensions>
      </trkpt>
      <trkpt lat="46.01927" lon="6.19814">
        <ele>697.2</ele>
        <time>2021-03-02T13:09:37Z</time>
        <extensions>
          <gpxtpx:TrackPointExtension xmlns:gpxtpx="http://www.garmin.com/xmlschemas/TrackPointExtension/v1">
            <gpxtpx:hr>100</gpxtpx:hr>
          </gpxtpx:TrackPointExtension>
        </extensions>
      </trkpt>
      <trkpt lat="46.01916" lon="6.19804">
        <ele>696.6</ele>
        <time>2021-03-02T13:09:38Z</time>
        <extensions>
          <gpxtpx:TrackPointExtension xmlns:gpxtpx="http://www.garmin.com/xmlschemas/TrackPointExtension/v1">
            <gpxtpx:hr>100</gpxtpx:hr>
          </gpxtpx:TrackPointExtension>
        </extensions>
      </trkpt>
      <trkpt lat="46.01905" lon="6.19794">
        <ele>696</ele>
        <time>2021-03-02T13:09:39Z</time>
        <extensions>
          <gpxtpx:TrackPointExtension xmlns:gpxtpx="http://www.garmin.com/xmlschemas/TrackPointExtension/v1">
            <gpxtpx:hr>101</gpxtpx:hr>
          </gpxtpx:TrackPointExtension>
        </extensions>
      </trkpt>
      <trkpt lat="46.01894" lon="6.19784">
        <ele>695.5</ele>
        <time>2021-03-02T13:09:40Z</time>
        <extensions>
          <gpxtpx:TrackPointExtension xmlns:gpxtpx="http://www.garmin.com/xmlschemas/TrackPointExtension/v1">
            <gpxtpx:hr>102</gpxtpx:hr>
          </gpxtpx:TrackPointExtension>
        </extensions>
      </trkpt>
      <trkpt lat="46.01885" lon="6.19772">
        <ele>695</ele>
        <time>2021-03-02T13:09:41Z</time>
        <extensions>
          <gpxtpx:TrackPointExtension xmlns:gpxtpx="http://www.garmin.com/xmlschemas/TrackPointExtension/v1">
            <gpxtpx:hr>102</gpxtpx:hr>
          </gpxtpx:TrackPointExtension>
        </extensions>
      </trkpt>
      <trkpt lat="46.01878" lon="6.19757">
        <ele>694.4</ele>
        <time>2021-03-02T13:09:42Z</time>
        <extensions>
          <gpxtpx:TrackPointExtension xmlns:gpxtpx="http://www.garmin.com/xmlschemas/TrackPointExtension/v1">
            <gpxtpx:hr>104</gpxtpx:hr>
          </gpxtpx:TrackPointExtension>
        </extensions>
      </trkpt>
      <trkpt lat="46.01872" lon="6.19741">
        <ele>693.8</ele>
        <time>2021-03-02T13:09:43Z</time>
        <extensions>
          <gpxtpx:TrackPointExtension xmlns:gpxtpx="http://www.garmin.com/xmlschemas/TrackPointExtension/v1">
            <gpxtpx:hr>105</gpxtpx:hr>
          </gpxtpx:TrackPointExtension>
        </extensions>
      </trkpt>
      <trkpt lat="46.01867" lon="6.19725">
        <ele>693.4</ele>
        <time>2021-03-02T13:09:44Z</time>
        <extensions>
          <gpxtpx:TrackPointExtension xmlns:gpxtpx="http://www.garmin.com/xmlschemas/TrackPointExtension/v1">
            <gpxtpx:hr>106</gpxtpx:hr>
          </gpxtpx:TrackPointExtension>
        </extensions>
      </trkpt>
      <trkpt lat="46.01862" lon="6.19709">
        <ele>693.1</ele>
        <time>2021-03-02T13:09:45Z</time>
        <extensions>
          <gpxtpx:TrackPointExtension xmlns:gpxtpx="http://www.garmin.com/xmlschemas/TrackPointExtension/v1">
            <gpxtpx:hr>106</gpxtpx:hr>
          </gpxtpx:TrackPointExtension>
        </extensions>
      </trkpt>
      <trkpt lat="46.01858" lon="6.19693">
        <ele>692.9</ele>
        <time>2021-03-02T13:09:46Z</time>
        <extensions>
          <gpxtpx:TrackPointExtension xmlns:gpxtpx="http://www.garmin.com/xmlschemas/TrackPointExtension/v1">
            <gpxtpx:hr>106</gpxtpx:hr>
          </gpxtpx:TrackPointExtension>
        </extensions>
      </trkpt>
      <trkpt lat="46.01854" lon="6.19678">
        <ele>692.8</ele>
        <time>2021-03-02T13:09:47Z</time>
        <extensions>
          <gpxtpx:TrackPointExtension xmlns:gpxtpx="http://www.garmin.com/xmlschemas/TrackPointExtension/v1">
            <gpxtpx:hr>107</gpxtpx:hr>
          </gpxtpx:TrackPointExtension>
        </extensions>
      </trkpt>
      <trkpt lat="46.01851" lon="6.19664">
        <ele>692.8</ele>
        <time>2021-03-02T13:09:48Z</time>
        <extensions>
          <gpxtpx:TrackPointExtension xmlns:gpxtpx="http://www.garmin.com/xmlschemas/TrackPointExtension/v1">
            <gpxtpx:hr>107</gpxtpx:hr>
          </gpxtpx:TrackPointExtension>
        </extensions>
      </trkpt>
      <trkpt lat="46.0185" lon="6.1965">
        <ele>692.9</ele>
        <time>2021-03-02T13:09:49Z</time>
        <extensions>
          <gpxtpx:TrackPointExtension xmlns:gpxtpx="http://www.garmin.com/xmlschemas/TrackPointExtension/v1">
            <gpxtpx:hr>107</gpxtpx:hr>
          </gpxtpx:TrackPointExtension>
        </extensions>
      </trkpt>
      <trkpt lat="46.01849" lon="6.19637">
        <ele>693</ele>
        <time>2021-03-02T13:09:50Z</time>
        <extensions>
          <gpxtpx:TrackPointExtension xmlns:gpxtpx="http://www.garmin.com/xmlschemas/TrackPointExtension/v1">
            <gpxtpx:hr>107</gpxtpx:hr>
          </gpxtpx:TrackPointExtension>
        </extensions>
      </trkpt>
      <trkpt lat="46.0185" lon="6.19624">
        <ele>693.1</ele>
        <time>2021-03-02T13:09:51Z</time>
        <extensions>
          <gpxtpx:TrackPointExtension xmlns:gpxtpx="http://www.garmin.com/xmlschemas/TrackPointExtension/v1">
            <gpxtpx:hr>107</gpxtpx:hr>
          </gpxtpx:TrackPointExtension>
        </extensions>
      </trkpt>
      <trkpt lat="46.01848" lon="6.19613">
        <ele>693.2</ele>
        <time>2021-03-02T13:09:52Z</time>
        <extensions>
          <gpxtpx:TrackPointExtension xmlns:gpxtpx="http://www.garmin.com/xmlschemas/TrackPointExtension/v1">
            <gpxtpx:hr>107</gpxtpx:hr>
          </gpxtpx:TrackPointExtension>
        </extensions>
      </trkpt>
      <trkpt lat="46.01845" lon="6.19604">
        <ele>693.1</ele>
        <time>2021-03-02T13:09:53Z</time>
        <extensions>
          <gpxtpx:TrackPointExtension xmlns:gpxtpx="http://www.garmin.com/xmlschemas/TrackPointExtension/v1">
            <gpxtpx:hr>107</gpxtpx:hr>
          </gpxtpx:TrackPointExtension>
        </extensions>
      </trkpt>
      <trkpt lat="46.0184" lon="6.19598">
        <ele>693</ele>
        <time>2021-03-02T13:09:54Z</time>
        <extensions>
          <gpxtpx:TrackPointExtension xmlns:gpxtpx="http://www.garmin.com/xmlschemas/TrackPointExtension/v1">
            <gpxtpx:hr>107</gpxtpx:hr>
          </gpxtpx:TrackPointExtension>
        </extensions>
      </trkpt>
      <trkpt lat="46.01833" lon="6.19595">
        <ele>692.7</ele>
        <time>2021-03-02T13:09:55Z</time>
        <extensions>
          <gpxtpx:TrackPointExtension xmlns:gpxtpx="http://www.garmin.com/xmlschemas/TrackPointExtension/v1">
            <gpxtpx:hr>107</gpxtpx:hr>
          </gpxtpx:TrackPointExtension>
        </extensions>
      </trkpt>
      <trkpt lat="46.01826" lon="6.19593">
        <ele>692.4</ele>
        <time>2021-03-02T13:09:56Z</time>
        <extensions>
          <gpxtpx:TrackPointExtension xmlns:gpxtpx="http://www.garmin.com/xmlschemas/TrackPointExtension/v1">
            <gpxtpx:hr>107</gpxtpx:hr>
          </gpxtpx:TrackPointExtension>
        </extensions>
      </trkpt>
      <trkpt lat="46.01818" lon="6.1959">
        <ele>692</ele>
        <time>2021-03-02T13:09:57Z</time>
        <extensions>
          <gpxtpx:TrackPointExtension xmlns:gpxtpx="http://www.garmin.com/xmlschemas/TrackPointExtension/v1">
            <gpxtpx:hr>108</gpxtpx:hr>
          </gpxtpx:TrackPointExtension>
        </extensions>
      </trkpt>
      <trkpt lat="46.0181" lon="6.19588">
        <ele>691.6</ele>
        <time>2021-03-02T13:09:58Z</time>
        <extensions>
          <gpxtpx:TrackPointExtension xmlns:gpxtpx="http://www.garmin.com/xmlschemas/TrackPointExtension/v1">
            <gpxtpx:hr>108</gpxtpx:hr>
          </gpxtpx:TrackPointExtension>
        </extensions>
      </trkpt>
      <trkpt lat="46.01802" lon="6.19585">
        <ele>691.1</ele>
        <time>2021-03-02T13:09:59Z</time>
        <extensions>
          <gpxtpx:TrackPointExtension xmlns:gpxtpx="http://www.garmin.com/xmlschemas/TrackPointExtension/v1">
            <gpxtpx:hr>108</gpxtpx:hr>
          </gpxtpx:TrackPointExtension>
        </extensions>
      </trkpt>
      <trkpt lat="46.01793" lon="6.19582">
        <ele>690.5</ele>
        <time>2021-03-02T13:10:00Z</time>
        <extensions>
          <gpxtpx:TrackPointExtension xmlns:gpxtpx="http://www.garmin.com/xmlschemas/TrackPointExtension/v1">
            <gpxtpx:hr>108</gpxtpx:hr>
          </gpxtpx:TrackPointExtension>
        </extensions>
      </trkpt>
      <trkpt lat="46.01784" lon="6.19578">
        <ele>689.8</ele>
        <time>2021-03-02T13:10:01Z</time>
        <extensions>
          <gpxtpx:TrackPointExtension xmlns:gpxtpx="http://www.garmin.com/xmlschemas/TrackPointExtension/v1">
            <gpxtpx:hr>108</gpxtpx:hr>
          </gpxtpx:TrackPointExtension>
        </extensions>
      </trkpt>
      <trkpt lat="46.01775" lon="6.19575">
        <ele>689</ele>
        <time>2021-03-02T13:10:02Z</time>
        <extensions>
          <gpxtpx:TrackPointExtension xmlns:gpxtpx="http://www.garmin.com/xmlschemas/TrackPointExtension/v1">
            <gpxtpx:hr>108</gpxtpx:hr>
          </gpxtpx:TrackPointExtension>
        </extensions>
      </trkpt>
      <trkpt lat="46.01765" lon="6.19571">
        <ele>688.2</ele>
        <time>2021-03-02T13:10:03Z</time>
        <extensions>
          <gpxtpx:TrackPointExtension xmlns:gpxtpx="http://www.garmin.com/xmlschemas/TrackPointExtension/v1">
            <gpxtpx:hr>108</gpxtpx:hr>
          </gpxtpx:TrackPointExtension>
        </extensions>
      </trkpt>
      <trkpt lat="46.01756" lon="6.19567">
        <ele>687.5</ele>
        <time>2021-03-02T13:10:04Z</time>
        <extensions>
          <gpxtpx:TrackPointExtension xmlns:gpxtpx="http://www.garmin.com/xmlschemas/TrackPointExtension/v1">
            <gpxtpx:hr>108</gpxtpx:hr>
          </gpxtpx:TrackPointExtension>
        </extensions>
      </trkpt>
      <trkpt lat="46.01746" lon="6.19563">
        <ele>686.7</ele>
        <time>2021-03-02T13:10:05Z</time>
        <extensions>
          <gpxtpx:TrackPointExtension xmlns:gpxtpx="http://www.garmin.com/xmlschemas/TrackPointExtension/v1">
            <gpxtpx:hr>109</gpxtpx:hr>
          </gpxtpx:TrackPointExtension>
        </extensions>
      </trkpt>
      <trkpt lat="46.01737" lon="6.1956">
        <ele>686</ele>
        <time>2021-03-02T13:10:06Z</time>
        <extensions>
          <gpxtpx:TrackPointExtension xmlns:gpxtpx="http://www.garmin.com/xmlschemas/TrackPointExtension/v1">
            <gpxtpx:hr>109</gpxtpx:hr>
          </gpxtpx:TrackPointExtension>
        </extensions>
      </trkpt>
      <trkpt lat="46.01726" lon="6.19556">
        <ele>685.2</ele>
        <time>2021-03-02T13:10:07Z</time>
        <extensions>
          <gpxtpx:TrackPointExtension xmlns:gpxtpx="http://www.garmin.com/xmlschemas/TrackPointExtension/v1">
            <gpxtpx:hr>109</gpxtpx:hr>
          </gpxtpx:TrackPointExtension>
        </extensions>
      </trkpt>
      <trkpt lat="46.01717" lon="6.19552">
        <ele>684.4</ele>
        <time>2021-03-02T13:10:08Z</time>
        <extensions>
          <gpxtpx:TrackPointExtension xmlns:gpxtpx="http://www.garmin.com/xmlschemas/TrackPointExtension/v1">
            <gpxtpx:hr>109</gpxtpx:hr>
          </gpxtpx:TrackPointExtension>
        </extensions>
      </trkpt>
      <trkpt lat="46.01707" lon="6.19547">
        <ele>683.7</ele>
        <time>2021-03-02T13:10:09Z</time>
        <extensions>
          <gpxtpx:TrackPointExtension xmlns:gpxtpx="http://www.garmin.com/xmlschemas/TrackPointExtension/v1">
            <gpxtpx:hr>110</gpxtpx:hr>
          </gpxtpx:TrackPointExtension>
        </extensions>
      </trkpt>
      <trkpt lat="46.01697" lon="6.19542">
        <ele>682.9</ele>
        <time>2021-03-02T13:10:10Z</time>
        <extensions>
          <gpxtpx:TrackPointExtension xmlns:gpxtpx="http://www.garmin.com/xmlschemas/TrackPointExtension/v1">
            <gpxtpx:hr>111</gpxtpx:hr>
          </gpxtpx:TrackPointExtension>
        </extensions>
      </trkpt>
      <trkpt lat="46.01687" lon="6.19535">
        <ele>682.2</ele>
        <time>2021-03-02T13:10:11Z</time>
        <extensions>
          <gpxtpx:TrackPointExtension xmlns:gpxtpx="http://www.garmin.com/xmlschemas/TrackPointExtension/v1">
            <gpxtpx:hr>111</gpxtpx:hr>
          </gpxtpx:TrackPointExtension>
        </extensions>
      </trkpt>
      <trkpt lat="46.01678" lon="6.19528">
        <ele>681.4</ele>
        <time>2021-03-02T13:10:12Z</time>
        <extensions>
          <gpxtpx:TrackPointExtension xmlns:gpxtpx="http://www.garmin.com/xmlschemas/TrackPointExtension/v1">
            <gpxtpx:hr>112</gpxtpx:hr>
          </gpxtpx:TrackPointExtension>
        </extensions>
      </trkpt>
      <trkpt lat="46.01669" lon="6.1952">
        <ele>681</ele>
        <time>2021-03-02T13:10:13Z</time>
        <extensions>
          <gpxtpx:TrackPointExtension xmlns:gpxtpx="http://www.garmin.com/xmlschemas/TrackPointExtension/v1">
            <gpxtpx:hr>112</gpxtpx:hr>
          </gpxtpx:TrackPointExtension>
        </extensions>
      </trkpt>
      <trkpt lat="46.01661" lon="6.1951">
        <ele>680.6</ele>
        <time>2021-03-02T13:10:14Z</time>
        <extensions>
          <gpxtpx:TrackPointExtension xmlns:gpxtpx="http://www.garmin.com/xmlschemas/TrackPointExtension/v1">
            <gpxtpx:hr>114</gpxtpx:hr>
          </gpxtpx:TrackPointExtension>
        </extensions>
      </trkpt>
      <trkpt lat="46.01654" lon="6.19498">
        <ele>679.7</ele>
        <time>2021-03-02T13:10:15Z</time>
        <extensions>
          <gpxtpx:TrackPointExtension xmlns:gpxtpx="http://www.garmin.com/xmlschemas/TrackPointExtension/v1">
            <gpxtpx:hr>115</gpxtpx:hr>
          </gpxtpx:TrackPointExtension>
        </extensions>
      </trkpt>
      <trkpt lat="46.01649" lon="6.19485">
        <ele>678.9</ele>
        <time>2021-03-02T13:10:16Z</time>
        <extensions>
          <gpxtpx:TrackPointExtension xmlns:gpxtpx="http://www.garmin.com/xmlschemas/TrackPointExtension/v1">
            <gpxtpx:hr>114</gpxtpx:hr>
          </gpxtpx:TrackPointExtension>
        </extensions>
      </trkpt>
      <trkpt lat="46.01646" lon="6.1947">
        <ele>678.1</ele>
        <time>2021-03-02T13:10:17Z</time>
        <extensions>
          <gpxtpx:TrackPointExtension xmlns:gpxtpx="http://www.garmin.com/xmlschemas/TrackPointExtension/v1">
            <gpxtpx:hr>114</gpxtpx:hr>
          </gpxtpx:TrackPointExtension>
        </extensions>
      </trkpt>
      <trkpt lat="46.01643" lon="6.19455">
        <ele>677.3</ele>
        <time>2021-03-02T13:10:18Z</time>
        <extensions>
          <gpxtpx:TrackPointExtension xmlns:gpxtpx="http://www.garmin.com/xmlschemas/TrackPointExtension/v1">
            <gpxtpx:hr>114</gpxtpx:hr>
          </gpxtpx:TrackPointExtension>
        </extensions>
      </trkpt>
      <trkpt lat="46.01642" lon="6.1944">
        <ele>676.7</ele>
        <time>2021-03-02T13:10:19Z</time>
        <extensions>
          <gpxtpx:TrackPointExtension xmlns:gpxtpx="http://www.garmin.com/xmlschemas/TrackPointExtension/v1">
            <gpxtpx:hr>115</gpxtpx:hr>
          </gpxtpx:TrackPointExtension>
        </extensions>
      </trkpt>
      <trkpt lat="46.01641" lon="6.19428">
        <ele>676.1</ele>
        <time>2021-03-02T13:10:20Z</time>
        <extensions>
          <gpxtpx:TrackPointExtension xmlns:gpxtpx="http://www.garmin.com/xmlschemas/TrackPointExtension/v1">
            <gpxtpx:hr>115</gpxtpx:hr>
          </gpxtpx:TrackPointExtension>
        </extensions>
      </trkpt>
      <trkpt lat="46.01641" lon="6.19417">
        <ele>675.6</ele>
        <time>2021-03-02T13:10:21Z</time>
        <extensions>
          <gpxtpx:TrackPointExtension xmlns:gpxtpx="http://www.garmin.com/xmlschemas/TrackPointExtension/v1">
            <gpxtpx:hr>115</gpxtpx:hr>
          </gpxtpx:TrackPointExtension>
        </extensions>
      </trkpt>
      <trkpt lat="46.01642" lon="6.19408">
        <ele>675.1</ele>
        <time>2021-03-02T13:10:22Z</time>
        <extensions>
          <gpxtpx:TrackPointExtension xmlns:gpxtpx="http://www.garmin.com/xmlschemas/TrackPointExtension/v1">
            <gpxtpx:hr>115</gpxtpx:hr>
          </gpxtpx:TrackPointExtension>
        </extensions>
      </trkpt>
      <trkpt lat="46.01643" lon="6.19399">
        <ele>674.6</ele>
        <time>2021-03-02T13:10:23Z</time>
        <extensions>
          <gpxtpx:TrackPointExtension xmlns:gpxtpx="http://www.garmin.com/xmlschemas/TrackPointExtension/v1">
            <gpxtpx:hr>115</gpxtpx:hr>
          </gpxtpx:TrackPointExtension>
        </extensions>
      </trkpt>
      <trkpt lat="46.01643" lon="6.19392">
        <ele>674.2</ele>
        <time>2021-03-02T13:10:24Z</time>
        <extensions>
          <gpxtpx:TrackPointExtension xmlns:gpxtpx="http://www.garmin.com/xmlschemas/TrackPointExtension/v1">
            <gpxtpx:hr>115</gpxtpx:hr>
          </gpxtpx:TrackPointExtension>
        </extensions>
      </trkpt>
      <trkpt lat="46.01641" lon="6.19385">
        <ele>673.8</ele>
        <time>2021-03-02T13:10:25Z</time>
        <extensions>
          <gpxtpx:TrackPointExtension xmlns:gpxtpx="http://www.garmin.com/xmlschemas/TrackPointExtension/v1">
            <gpxtpx:hr>115</gpxtpx:hr>
          </gpxtpx:TrackPointExtension>
        </extensions>
      </trkpt>
      <trkpt lat="46.01636" lon="6.19381">
        <ele>673.3</ele>
        <time>2021-03-02T13:10:26Z</time>
        <extensions>
          <gpxtpx:TrackPointExtension xmlns:gpxtpx="http://www.garmin.com/xmlschemas/TrackPointExtension/v1">
            <gpxtpx:hr>115</gpxtpx:hr>
          </gpxtpx:TrackPointExtension>
        </extensions>
      </trkpt>
      <trkpt lat="46.01631" lon="6.19376">
        <ele>672.7</ele>
        <time>2021-03-02T13:10:27Z</time>
        <extensions>
          <gpxtpx:TrackPointExtension xmlns:gpxtpx="http://www.garmin.com/xmlschemas/TrackPointExtension/v1">
            <gpxtpx:hr>115</gpxtpx:hr>
          </gpxtpx:TrackPointExtension>
        </extensions>
      </trkpt>
      <trkpt lat="46.01625" lon="6.19371">
        <ele>672</ele>
        <time>2021-03-02T13:10:28Z</time>
        <extensions>
          <gpxtpx:TrackPointExtension xmlns:gpxtpx="http://www.garmin.com/xmlschemas/TrackPointExtension/v1">
            <gpxtpx:hr>115</gpxtpx:hr>
          </gpxtpx:TrackPointExtension>
        </extensions>
      </trkpt>
      <trkpt lat="46.01618" lon="6.19366">
        <ele>671.4</ele>
        <time>2021-03-02T13:10:29Z</time>
        <extensions>
          <gpxtpx:TrackPointExtension xmlns:gpxtpx="http://www.garmin.com/xmlschemas/TrackPointExtension/v1">
            <gpxtpx:hr>115</gpxtpx:hr>
          </gpxtpx:TrackPointExtension>
        </extensions>
      </trkpt>
      <trkpt lat="46.01611" lon="6.19361">
        <ele>670.6</ele>
        <time>2021-03-02T13:10:30Z</time>
        <extensions>
          <gpxtpx:TrackPointExtension xmlns:gpxtpx="http://www.garmin.com/xmlschemas/TrackPointExtension/v1">
            <gpxtpx:hr>115</gpxtpx:hr>
          </gpxtpx:TrackPointExtension>
        </extensions>
      </trkpt>
      <trkpt lat="46.01603" lon="6.19355">
        <ele>669.9</ele>
        <time>2021-03-02T13:10:31Z</time>
        <extensions>
          <gpxtpx:TrackPointExtension xmlns:gpxtpx="http://www.garmin.com/xmlschemas/TrackPointExtension/v1">
            <gpxtpx:hr>115</gpxtpx:hr>
          </gpxtpx:TrackPointExtension>
        </extensions>
      </trkpt>
      <trkpt lat="46.01595" lon="6.1935">
        <ele>669.1</ele>
        <time>2021-03-02T13:10:32Z</time>
        <extensions>
          <gpxtpx:TrackPointExtension xmlns:gpxtpx="http://www.garmin.com/xmlschemas/TrackPointExtension/v1">
            <gpxtpx:hr>114</gpxtpx:hr>
          </gpxtpx:TrackPointExtension>
        </extensions>
      </trkpt>
      <trkpt lat="46.01587" lon="6.19343">
        <ele>668.3</ele>
        <time>2021-03-02T13:10:33Z</time>
        <extensions>
          <gpxtpx:TrackPointExtension xmlns:gpxtpx="http://www.garmin.com/xmlschemas/TrackPointExtension/v1">
            <gpxtpx:hr>114</gpxtpx:hr>
          </gpxtpx:TrackPointExtension>
        </extensions>
      </trkpt>
      <trkpt lat="46.01578" lon="6.19337">
        <ele>667.5</ele>
        <time>2021-03-02T13:10:34Z</time>
        <extensions>
          <gpxtpx:TrackPointExtension xmlns:gpxtpx="http://www.garmin.com/xmlschemas/TrackPointExtension/v1">
            <gpxtpx:hr>114</gpxtpx:hr>
          </gpxtpx:TrackPointExtension>
        </extensions>
      </trkpt>
      <trkpt lat="46.01569" lon="6.1933">
        <ele>666.7</ele>
        <time>2021-03-02T13:10:35Z</time>
        <extensions>
          <gpxtpx:TrackPointExtension xmlns:gpxtpx="http://www.garmin.com/xmlschemas/TrackPointExtension/v1">
            <gpxtpx:hr>114</gpxtpx:hr>
          </gpxtpx:TrackPointExtension>
        </extensions>
      </trkpt>
      <trkpt lat="46.0156" lon="6.19323">
        <ele>665.9</ele>
        <time>2021-03-02T13:10:36Z</time>
        <extensions>
          <gpxtpx:TrackPointExtension xmlns:gpxtpx="http://www.garmin.com/xmlschemas/TrackPointExtension/v1">
            <gpxtpx:hr>114</gpxtpx:hr>
          </gpxtpx:TrackPointExtension>
        </extensions>
      </trkpt>
      <trkpt lat="46.01551" lon="6.19315">
        <ele>665.2</ele>
        <time>2021-03-02T13:10:37Z</time>
        <extensions>
          <gpxtpx:TrackPointExtension xmlns:gpxtpx="http://www.garmin.com/xmlschemas/TrackPointExtension/v1">
            <gpxtpx:hr>113</gpxtpx:hr>
          </gpxtpx:TrackPointExtension>
        </extensions>
      </trkpt>
      <trkpt lat="46.01543" lon="6.19306">
        <ele>664.5</ele>
        <time>2021-03-02T13:10:38Z</time>
        <extensions>
          <gpxtpx:TrackPointExtension xmlns:gpxtpx="http://www.garmin.com/xmlschemas/TrackPointExtension/v1">
            <gpxtpx:hr>113</gpxtpx:hr>
          </gpxtpx:TrackPointExtension>
        </extensions>
      </trkpt>
      <trkpt lat="46.01534" lon="6.19297">
        <ele>663.8</ele>
        <time>2021-03-02T13:10:39Z</time>
        <extensions>
          <gpxtpx:TrackPointExtension xmlns:gpxtpx="http://www.garmin.com/xmlschemas/TrackPointExtension/v1">
            <gpxtpx:hr>113</gpxtpx:hr>
          </gpxtpx:TrackPointExtension>
        </extensions>
      </trkpt>
      <trkpt lat="46.01526" lon="6.19287">
        <ele>663.2</ele>
        <time>2021-03-02T13:10:40Z</time>
        <extensions>
          <gpxtpx:TrackPointExtension xmlns:gpxtpx="http://www.garmin.com/xmlschemas/TrackPointExtension/v1">
            <gpxtpx:hr>113</gpxtpx:hr>
          </gpxtpx:TrackPointExtension>
        </extensions>
      </trkpt>
      <trkpt lat="46.01519" lon="6.19276">
        <ele>662.7</ele>
        <time>2021-03-02T13:10:41Z</time>
        <extensions>
          <gpxtpx:TrackPointExtension xmlns:gpxtpx="http://www.garmin.com/xmlschemas/TrackPointExtension/v1">
            <gpxtpx:hr>113</gpxtpx:hr>
          </gpxtpx:TrackPointExtension>
        </extensions>
      </trkpt>
      <trkpt lat="46.01511" lon="6.19266">
        <ele>662.2</ele>
        <time>2021-03-02T13:10:42Z</time>
        <extensions>
          <gpxtpx:TrackPointExtension xmlns:gpxtpx="http://www.garmin.com/xmlschemas/TrackPointExtension/v1">
            <gpxtpx:hr>113</gpxtpx:hr>
          </gpxtpx:TrackPointExtension>
        </extensions>
      </trkpt>
      <trkpt lat="46.01503" lon="6.19255">
        <ele>661.8</ele>
        <time>2021-03-02T13:10:43Z</time>
        <extensions>
          <gpxtpx:TrackPointExtension xmlns:gpxtpx="http://www.garmin.com/xmlschemas/TrackPointExtension/v1">
            <gpxtpx:hr>113</gpxtpx:hr>
          </gpxtpx:TrackPointExtension>
        </extensions>
      </trkpt>
      <trkpt lat="46.01496" lon="6.19245">
        <ele>661.4</ele>
        <time>2021-03-02T13:10:44Z</time>
        <extensions>
          <gpxtpx:TrackPointExtension xmlns:gpxtpx="http://www.garmin.com/xmlschemas/TrackPointExtension/v1">
            <gpxtpx:hr>113</gpxtpx:hr>
          </gpxtpx:TrackPointExtension>
        </extensions>
      </trkpt>
      <trkpt lat="46.01489" lon="6.19234">
        <ele>661.2</ele>
        <time>2021-03-02T13:10:45Z</time>
        <extensions>
          <gpxtpx:TrackPointExtension xmlns:gpxtpx="http://www.garmin.com/xmlschemas/TrackPointExtension/v1">
            <gpxtpx:hr>113</gpxtpx:hr>
          </gpxtpx:TrackPointExtension>
        </extensions>
      </trkpt>
      <trkpt lat="46.01482" lon="6.19222">
        <ele>660.9</ele>
        <time>2021-03-02T13:10:46Z</time>
        <extensions>
          <gpxtpx:TrackPointExtension xmlns:gpxtpx="http://www.garmin.com/xmlschemas/TrackPointExtension/v1">
            <gpxtpx:hr>112</gpxtpx:hr>
          </gpxtpx:TrackPointExtension>
        </extensions>
      </trkpt>
      <trkpt lat="46.01476" lon="6.19211">
        <ele>660.6</ele>
        <time>2021-03-02T13:10:47Z</time>
        <extensions>
          <gpxtpx:TrackPointExtension xmlns:gpxtpx="http://www.garmin.com/xmlschemas/TrackPointExtension/v1">
            <gpxtpx:hr>111</gpxtpx:hr>
          </gpxtpx:TrackPointExtension>
        </extensions>
      </trkpt>
      <trkpt lat="46.01469" lon="6.192">
        <ele>660.4</ele>
        <time>2021-03-02T13:10:48Z</time>
        <extensions>
          <gpxtpx:TrackPointExtension xmlns:gpxtpx="http://www.garmin.com/xmlschemas/TrackPointExtension/v1">
            <gpxtpx:hr>110</gpxtpx:hr>
          </gpxtpx:TrackPointExtension>
        </extensions>
      </trkpt>
      <trkpt lat="46.01464" lon="6.19188">
        <ele>660.2</ele>
        <time>2021-03-02T13:10:49Z</time>
        <extensions>
          <gpxtpx:TrackPointExtension xmlns:gpxtpx="http://www.garmin.com/xmlschemas/TrackPointExtension/v1">
            <gpxtpx:hr>109</gpxtpx:hr>
          </gpxtpx:TrackPointExtension>
        </extensions>
      </trkpt>
      <trkpt lat="46.01459" lon="6.19176">
        <ele>659.9</ele>
        <time>2021-03-02T13:10:50Z</time>
        <extensions>
          <gpxtpx:TrackPointExtension xmlns:gpxtpx="http://www.garmin.com/xmlschemas/TrackPointExtension/v1">
            <gpxtpx:hr>108</gpxtpx:hr>
          </gpxtpx:TrackPointExtension>
        </extensions>
      </trkpt>
      <trkpt lat="46.01454" lon="6.19164">
        <ele>659.7</ele>
        <time>2021-03-02T13:10:51Z</time>
        <extensions>
          <gpxtpx:TrackPointExtension xmlns:gpxtpx="http://www.garmin.com/xmlschemas/TrackPointExtension/v1">
            <gpxtpx:hr>107</gpxtpx:hr>
          </gpxtpx:TrackPointExtension>
        </extensions>
      </trkpt>
      <trkpt lat="46.0145" lon="6.19152">
        <ele>659.3</ele>
        <time>2021-03-02T13:10:52Z</time>
        <extensions>
          <gpxtpx:TrackPointExtension xmlns:gpxtpx="http://www.garmin.com/xmlschemas/TrackPointExtension/v1">
            <gpxtpx:hr>105</gpxtpx:hr>
          </gpxtpx:TrackPointExtension>
        </extensions>
      </trkpt>
      <trkpt lat="46.01447" lon="6.1914">
        <ele>658.7</ele>
        <time>2021-03-02T13:10:53Z</time>
        <extensions>
          <gpxtpx:TrackPointExtension xmlns:gpxtpx="http://www.garmin.com/xmlschemas/TrackPointExtension/v1">
            <gpxtpx:hr>104</gpxtpx:hr>
          </gpxtpx:TrackPointExtension>
        </extensions>
      </trkpt>
      <trkpt lat="46.01441" lon="6.19129">
        <ele>658</ele>
        <time>2021-03-02T13:10:54Z</time>
        <extensions>
          <gpxtpx:TrackPointExtension xmlns:gpxtpx="http://www.garmin.com/xmlschemas/TrackPointExtension/v1">
            <gpxtpx:hr>104</gpxtpx:hr>
          </gpxtpx:TrackPointExtension>
        </extensions>
      </trkpt>
      <trkpt lat="46.01435" lon="6.19118">
        <ele>657</ele>
        <time>2021-03-02T13:10:55Z</time>
        <extensions>
          <gpxtpx:TrackPointExtension xmlns:gpxtpx="http://www.garmin.com/xmlschemas/TrackPointExtension/v1">
            <gpxtpx:hr>103</gpxtpx:hr>
          </gpxtpx:TrackPointExtension>
        </extensions>
      </trkpt>
      <trkpt lat="46.01427" lon="6.19108">
        <ele>656</ele>
        <time>2021-03-02T13:10:56Z</time>
        <extensions>
          <gpxtpx:TrackPointExtension xmlns:gpxtpx="http://www.garmin.com/xmlschemas/TrackPointExtension/v1">
            <gpxtpx:hr>103</gpxtpx:hr>
          </gpxtpx:TrackPointExtension>
        </extensions>
      </trkpt>
      <trkpt lat="46.01419" lon="6.19099">
        <ele>654.9</ele>
        <time>2021-03-02T13:10:57Z</time>
        <extensions>
          <gpxtpx:TrackPointExtension xmlns:gpxtpx="http://www.garmin.com/xmlschemas/TrackPointExtension/v1">
            <gpxtpx:hr>103</gpxtpx:hr>
          </gpxtpx:TrackPointExtension>
        </extensions>
      </trkpt>
      <trkpt lat="46.01409" lon="6.19091">
        <ele>653.9</ele>
        <time>2021-03-02T13:10:58Z</time>
        <extensions>
          <gpxtpx:TrackPointExtension xmlns:gpxtpx="http://www.garmin.com/xmlschemas/TrackPointExtension/v1">
            <gpxtpx:hr>103</gpxtpx:hr>
          </gpxtpx:TrackPointExtension>
        </extensions>
      </trkpt>
      <trkpt lat="46.01399" lon="6.19085">
        <ele>652.7</ele>
        <time>2021-03-02T13:10:59Z</time>
        <extensions>
          <gpxtpx:TrackPointExtension xmlns:gpxtpx="http://www.garmin.com/xmlschemas/TrackPointExtension/v1">
            <gpxtpx:hr>103</gpxtpx:hr>
          </gpxtpx:TrackPointExtension>
        </extensions>
      </trkpt>
      <trkpt lat="46.01387" lon="6.1908">
        <ele>651.4</ele>
        <time>2021-03-02T13:11:00Z</time>
        <extensions>
          <gpxtpx:TrackPointExtension xmlns:gpxtpx="http://www.garmin.com/xmlschemas/TrackPointExtension/v1">
            <gpxtpx:hr>103</gpxtpx:hr>
          </gpxtpx:TrackPointExtension>
        </extensions>
      </trkpt>
      <trkpt lat="46.01375" lon="6.19077">
        <ele>650.1</ele>
        <time>2021-03-02T13:11:01Z</time>
        <extensions>
          <gpxtpx:TrackPointExtension xmlns:gpxtpx="http://www.garmin.com/xmlschemas/TrackPointExtension/v1">
            <gpxtpx:hr>103</gpxtpx:hr>
          </gpxtpx:TrackPointExtension>
        </extensions>
      </trkpt>
      <trkpt lat="46.01363" lon="6.19075">
        <ele>648.7</ele>
        <time>2021-03-02T13:11:02Z</time>
        <extensions>
          <gpxtpx:TrackPointExtension xmlns:gpxtpx="http://www.garmin.com/xmlschemas/TrackPointExtension/v1">
            <gpxtpx:hr>103</gpxtpx:hr>
          </gpxtpx:TrackPointExtension>
        </extensions>
      </trkpt>
      <trkpt lat="46.0135" lon="6.19074">
        <ele>647.2</ele>
        <time>2021-03-02T13:11:03Z</time>
        <extensions>
          <gpxtpx:TrackPointExtension xmlns:gpxtpx="http://www.garmin.com/xmlschemas/TrackPointExtension/v1">
            <gpxtpx:hr>102</gpxtpx:hr>
          </gpxtpx:TrackPointExtension>
        </extensions>
      </trkpt>
      <trkpt lat="46.01337" lon="6.19073">
        <ele>645.6</ele>
        <time>2021-03-02T13:11:04Z</time>
        <extensions>
          <gpxtpx:TrackPointExtension xmlns:gpxtpx="http://www.garmin.com/xmlschemas/TrackPointExtension/v1">
            <gpxtpx:hr>103</gpxtpx:hr>
          </gpxtpx:TrackPointExtension>
        </extensions>
      </trkpt>
      <trkpt lat="46.01324" lon="6.19072">
        <ele>643.9</ele>
        <time>2021-03-02T13:11:05Z</time>
        <extensions>
          <gpxtpx:TrackPointExtension xmlns:gpxtpx="http://www.garmin.com/xmlschemas/TrackPointExtension/v1">
            <gpxtpx:hr>103</gpxtpx:hr>
          </gpxtpx:TrackPointExtension>
        </extensions>
      </trkpt>
      <trkpt lat="46.01311" lon="6.19071">
        <ele>642.2</ele>
        <time>2021-03-02T13:11:06Z</time>
        <extensions>
          <gpxtpx:TrackPointExtension xmlns:gpxtpx="http://www.garmin.com/xmlschemas/TrackPointExtension/v1">
            <gpxtpx:hr>103</gpxtpx:hr>
          </gpxtpx:TrackPointExtension>
        </extensions>
      </trkpt>
      <trkpt lat="46.01297" lon="6.1907">
        <ele>640.7</ele>
        <time>2021-03-02T13:11:07Z</time>
        <extensions>
          <gpxtpx:TrackPointExtension xmlns:gpxtpx="http://www.garmin.com/xmlschemas/TrackPointExtension/v1">
            <gpxtpx:hr>103</gpxtpx:hr>
          </gpxtpx:TrackPointExtension>
        </extensions>
      </trkpt>
      <trkpt lat="46.01283" lon="6.19069">
        <ele>639.3</ele>
        <time>2021-03-02T13:11:08Z</time>
        <extensions>
          <gpxtpx:TrackPointExtension xmlns:gpxtpx="http://www.garmin.com/xmlschemas/TrackPointExtension/v1">
            <gpxtpx:hr>103</gpxtpx:hr>
          </gpxtpx:TrackPointExtension>
        </extensions>
      </trkpt>
      <trkpt lat="46.0127" lon="6.19066">
        <ele>638.3</ele>
        <time>2021-03-02T13:11:09Z</time>
        <extensions>
          <gpxtpx:TrackPointExtension xmlns:gpxtpx="http://www.garmin.com/xmlschemas/TrackPointExtension/v1">
            <gpxtpx:hr>103</gpxtpx:hr>
          </gpxtpx:TrackPointExtension>
        </extensions>
      </trkpt>
      <trkpt lat="46.01257" lon="6.19061">
        <ele>637.5</ele>
        <time>2021-03-02T13:11:10Z</time>
        <extensions>
          <gpxtpx:TrackPointExtension xmlns:gpxtpx="http://www.garmin.com/xmlschemas/TrackPointExtension/v1">
            <gpxtpx:hr>103</gpxtpx:hr>
          </gpxtpx:TrackPointExtension>
        </extensions>
      </trkpt>
      <trkpt lat="46.01244" lon="6.19054">
        <ele>636.8</ele>
        <time>2021-03-02T13:11:11Z</time>
        <extensions>
          <gpxtpx:TrackPointExtension xmlns:gpxtpx="http://www.garmin.com/xmlschemas/TrackPointExtension/v1">
            <gpxtpx:hr>103</gpxtpx:hr>
          </gpxtpx:TrackPointExtension>
        </extensions>
      </trkpt>
      <trkpt lat="46.01232" lon="6.19047">
        <ele>636.4</ele>
        <time>2021-03-02T13:11:12Z</time>
        <extensions>
          <gpxtpx:TrackPointExtension xmlns:gpxtpx="http://www.garmin.com/xmlschemas/TrackPointExtension/v1">
            <gpxtpx:hr>103</gpxtpx:hr>
          </gpxtpx:TrackPointExtension>
        </extensions>
      </trkpt>
      <trkpt lat="46.01221" lon="6.19039">
        <ele>636</ele>
        <time>2021-03-02T13:11:13Z</time>
        <extensions>
          <gpxtpx:TrackPointExtension xmlns:gpxtpx="http://www.garmin.com/xmlschemas/TrackPointExtension/v1">
            <gpxtpx:hr>103</gpxtpx:hr>
          </gpxtpx:TrackPointExtension>
        </extensions>
      </trkpt>
      <trkpt lat="46.0121" lon="6.19032">
        <ele>635.6</ele>
        <time>2021-03-02T13:11:14Z</time>
        <extensions>
          <gpxtpx:TrackPointExtension xmlns:gpxtpx="http://www.garmin.com/xmlschemas/TrackPointExtension/v1">
            <gpxtpx:hr>103</gpxtpx:hr>
          </gpxtpx:TrackPointExtension>
        </extensions>
      </trkpt>
      <trkpt lat="46.012" lon="6.19025">
        <ele>635.2</ele>
        <time>2021-03-02T13:11:15Z</time>
        <extensions>
          <gpxtpx:TrackPointExtension xmlns:gpxtpx="http://www.garmin.com/xmlschemas/TrackPointExtension/v1">
            <gpxtpx:hr>103</gpxtpx:hr>
          </gpxtpx:TrackPointExtension>
        </extensions>
      </trkpt>
      <trkpt lat="46.0119" lon="6.19018">
        <ele>634.8</ele>
        <time>2021-03-02T13:11:16Z</time>
        <extensions>
          <gpxtpx:TrackPointExtension xmlns:gpxtpx="http://www.garmin.com/xmlschemas/TrackPointExtension/v1">
            <gpxtpx:hr>103</gpxtpx:hr>
          </gpxtpx:TrackPointExtension>
        </extensions>
      </trkpt>
      <trkpt lat="46.0118" lon="6.19011">
        <ele>634.3</ele>
        <time>2021-03-02T13:11:17Z</time>
        <extensions>
          <gpxtpx:TrackPointExtension xmlns:gpxtpx="http://www.garmin.com/xmlschemas/TrackPointExtension/v1">
            <gpxtpx:hr>103</gpxtpx:hr>
          </gpxtpx:TrackPointExtension>
        </extensions>
      </trkpt>
      <trkpt lat="46.01171" lon="6.19005">
        <ele>633.8</ele>
        <time>2021-03-02T13:11:18Z</time>
        <extensions>
          <gpxtpx:TrackPointExtension xmlns:gpxtpx="http://www.garmin.com/xmlschemas/TrackPointExtension/v1">
            <gpxtpx:hr>104</gpxtpx:hr>
          </gpxtpx:TrackPointExtension>
        </extensions>
      </trkpt>
      <trkpt lat="46.01161" lon="6.19">
        <ele>633.1</ele>
        <time>2021-03-02T13:11:19Z</time>
        <extensions>
          <gpxtpx:TrackPointExtension xmlns:gpxtpx="http://www.garmin.com/xmlschemas/TrackPointExtension/v1">
            <gpxtpx:hr>104</gpxtpx:hr>
          </gpxtpx:TrackPointExtension>
        </extensions>
      </trkpt>
      <trkpt lat="46.01151" lon="6.18995">
        <ele>632.3</ele>
        <time>2021-03-02T13:11:20Z</time>
        <extensions>
          <gpxtpx:TrackPointExtension xmlns:gpxtpx="http://www.garmin.com/xmlschemas/TrackPointExtension/v1">
            <gpxtpx:hr>104</gpxtpx:hr>
          </gpxtpx:TrackPointExtension>
        </extensions>
      </trkpt>
      <trkpt lat="46.01141" lon="6.18989">
        <ele>631.4</ele>
        <time>2021-03-02T13:11:21Z</time>
        <extensions>
          <gpxtpx:TrackPointExtension xmlns:gpxtpx="http://www.garmin.com/xmlschemas/TrackPointExtension/v1">
            <gpxtpx:hr>104</gpxtpx:hr>
          </gpxtpx:TrackPointExtension>
        </extensions>
      </trkpt>
      <trkpt lat="46.01131" lon="6.18984">
        <ele>630.5</ele>
        <time>2021-03-02T13:11:22Z</time>
        <extensions>
          <gpxtpx:TrackPointExtension xmlns:gpxtpx="http://www.garmin.com/xmlschemas/TrackPointExtension/v1">
            <gpxtpx:hr>104</gpxtpx:hr>
          </gpxtpx:TrackPointExtension>
        </extensions>
      </trkpt>
      <trkpt lat="46.0112" lon="6.1898">
        <ele>629.6</ele>
        <time>2021-03-02T13:11:23Z</time>
        <extensions>
          <gpxtpx:TrackPointExtension xmlns:gpxtpx="http://www.garmin.com/xmlschemas/TrackPointExtension/v1">
            <gpxtpx:hr>104</gpxtpx:hr>
          </gpxtpx:TrackPointExtension>
        </extensions>
      </trkpt>
      <trkpt lat="46.01109" lon="6.18977">
        <ele>628.8</ele>
        <time>2021-03-02T13:11:24Z</time>
        <extensions>
          <gpxtpx:TrackPointExtension xmlns:gpxtpx="http://www.garmin.com/xmlschemas/TrackPointExtension/v1">
            <gpxtpx:hr>104</gpxtpx:hr>
          </gpxtpx:TrackPointExtension>
        </extensions>
      </trkpt>
      <trkpt lat="46.01098" lon="6.18977">
        <ele>628.1</ele>
        <time>2021-03-02T13:11:25Z</time>
        <extensions>
          <gpxtpx:TrackPointExtension xmlns:gpxtpx="http://www.garmin.com/xmlschemas/TrackPointExtension/v1">
            <gpxtpx:hr>105</gpxtpx:hr>
          </gpxtpx:TrackPointExtension>
        </extensions>
      </trkpt>
      <trkpt lat="46.01086" lon="6.18979">
        <ele>627.5</ele>
        <time>2021-03-02T13:11:26Z</time>
        <extensions>
          <gpxtpx:TrackPointExtension xmlns:gpxtpx="http://www.garmin.com/xmlschemas/TrackPointExtension/v1">
            <gpxtpx:hr>105</gpxtpx:hr>
          </gpxtpx:TrackPointExtension>
        </extensions>
      </trkpt>
      <trkpt lat="46.01075" lon="6.18981">
        <ele>627</ele>
        <time>2021-03-02T13:11:27Z</time>
        <extensions>
          <gpxtpx:TrackPointExtension xmlns:gpxtpx="http://www.garmin.com/xmlschemas/TrackPointExtension/v1">
            <gpxtpx:hr>105</gpxtpx:hr>
          </gpxtpx:TrackPointExtension>
        </extensions>
      </trkpt>
      <trkpt lat="46.01064" lon="6.18985">
        <ele>626.5</ele>
        <time>2021-03-02T13:11:28Z</time>
        <extensions>
          <gpxtpx:TrackPointExtension xmlns:gpxtpx="http://www.garmin.com/xmlschemas/TrackPointExtension/v1">
            <gpxtpx:hr>106</gpxtpx:hr>
          </gpxtpx:TrackPointExtension>
        </extensions>
      </trkpt>
      <trkpt lat="46.01053" lon="6.1899">
        <ele>626.1</ele>
        <time>2021-03-02T13:11:29Z</time>
        <extensions>
          <gpxtpx:TrackPointExtension xmlns:gpxtpx="http://www.garmin.com/xmlschemas/TrackPointExtension/v1">
            <gpxtpx:hr>106</gpxtpx:hr>
          </gpxtpx:TrackPointExtension>
        </extensions>
      </trkpt>
      <trkpt lat="46.01042" lon="6.18995">
        <ele>625.6</ele>
        <time>2021-03-02T13:11:30Z</time>
        <extensions>
          <gpxtpx:TrackPointExtension xmlns:gpxtpx="http://www.garmin.com/xmlschemas/TrackPointExtension/v1">
            <gpxtpx:hr>106</gpxtpx:hr>
          </gpxtpx:TrackPointExtension>
        </extensions>
      </trkpt>
      <trkpt lat="46.01031" lon="6.19001">
        <ele>624.9</ele>
        <time>2021-03-02T13:11:31Z</time>
        <extensions>
          <gpxtpx:TrackPointExtension xmlns:gpxtpx="http://www.garmin.com/xmlschemas/TrackPointExtension/v1">
            <gpxtpx:hr>106</gpxtpx:hr>
          </gpxtpx:TrackPointExtension>
        </extensions>
      </trkpt>
      <trkpt lat="46.0102" lon="6.19007">
        <ele>624.1</ele>
        <time>2021-03-02T13:11:32Z</time>
        <extensions>
          <gpxtpx:TrackPointExtension xmlns:gpxtpx="http://www.garmin.com/xmlschemas/TrackPointExtension/v1">
            <gpxtpx:hr>106</gpxtpx:hr>
          </gpxtpx:TrackPointExtension>
        </extensions>
      </trkpt>
      <trkpt lat="46.01009" lon="6.19012">
        <ele>623.3</ele>
        <time>2021-03-02T13:11:33Z</time>
        <extensions>
          <gpxtpx:TrackPointExtension xmlns:gpxtpx="http://www.garmin.com/xmlschemas/TrackPointExtension/v1">
            <gpxtpx:hr>106</gpxtpx:hr>
          </gpxtpx:TrackPointExtension>
        </extensions>
      </trkpt>
      <trkpt lat="46.00998" lon="6.19017">
        <ele>622.6</ele>
        <time>2021-03-02T13:11:34Z</time>
        <extensions>
          <gpxtpx:TrackPointExtension xmlns:gpxtpx="http://www.garmin.com/xmlschemas/TrackPointExtension/v1">
            <gpxtpx:hr>106</gpxtpx:hr>
          </gpxtpx:TrackPointExtension>
        </extensions>
      </trkpt>
      <trkpt lat="46.00988" lon="6.1902">
        <ele>622.6</ele>
        <time>2021-03-02T13:11:35Z</time>
        <extensions>
          <gpxtpx:TrackPointExtension xmlns:gpxtpx="http://www.garmin.com/xmlschemas/TrackPointExtension/v1">
            <gpxtpx:hr>107</gpxtpx:hr>
          </gpxtpx:TrackPointExtension>
        </extensions>
      </trkpt>
      <trkpt lat="46.0098" lon="6.1902">
        <ele>622.1</ele>
        <time>2021-03-02T13:11:36Z</time>
        <extensions>
          <gpxtpx:TrackPointExtension xmlns:gpxtpx="http://www.garmin.com/xmlschemas/TrackPointExtension/v1">
            <gpxtpx:hr>107</gpxtpx:hr>
          </gpxtpx:TrackPointExtension>
        </extensions>
      </trkpt>
      <trkpt lat="46.00971" lon="6.19017">
        <ele>621.6</ele>
        <time>2021-03-02T13:11:37Z</time>
        <extensions>
          <gpxtpx:TrackPointExtension xmlns:gpxtpx="http://www.garmin.com/xmlschemas/TrackPointExtension/v1">
            <gpxtpx:hr>107</gpxtpx:hr>
          </gpxtpx:TrackPointExtension>
        </extensions>
      </trkpt>
      <trkpt lat="46.00965" lon="6.19008">
        <ele>621.2</ele>
        <time>2021-03-02T13:11:38Z</time>
        <extensions>
          <gpxtpx:TrackPointExtension xmlns:gpxtpx="http://www.garmin.com/xmlschemas/TrackPointExtension/v1">
            <gpxtpx:hr>107</gpxtpx:hr>
          </gpxtpx:TrackPointExtension>
        </extensions>
      </trkpt>
      <trkpt lat="46.00961" lon="6.18996">
        <ele>620.9</ele>
        <time>2021-03-02T13:11:39Z</time>
        <extensions>
          <gpxtpx:TrackPointExtension xmlns:gpxtpx="http://www.garmin.com/xmlschemas/TrackPointExtension/v1">
            <gpxtpx:hr>107</gpxtpx:hr>
          </gpxtpx:TrackPointExtension>
        </extensions>
      </trkpt>
      <trkpt lat="46.00958" lon="6.18983">
        <ele>620.5</ele>
        <time>2021-03-02T13:11:40Z</time>
        <extensions>
          <gpxtpx:TrackPointExtension xmlns:gpxtpx="http://www.garmin.com/xmlschemas/TrackPointExtension/v1">
            <gpxtpx:hr>107</gpxtpx:hr>
          </gpxtpx:TrackPointExtension>
        </extensions>
      </trkpt>
      <trkpt lat="46.00955" lon="6.1897">
        <ele>620.2</ele>
        <time>2021-03-02T13:11:41Z</time>
        <extensions>
          <gpxtpx:TrackPointExtension xmlns:gpxtpx="http://www.garmin.com/xmlschemas/TrackPointExtension/v1">
            <gpxtpx:hr>107</gpxtpx:hr>
          </gpxtpx:TrackPointExtension>
        </extensions>
      </trkpt>
      <trkpt lat="46.00951" lon="6.18957">
        <ele>620.1</ele>
        <time>2021-03-02T13:11:42Z</time>
        <extensions>
          <gpxtpx:TrackPointExtension xmlns:gpxtpx="http://www.garmin.com/xmlschemas/TrackPointExtension/v1">
            <gpxtpx:hr>107</gpxtpx:hr>
          </gpxtpx:TrackPointExtension>
        </extensions>
      </trkpt>
      <trkpt lat="46.00947" lon="6.18946">
        <ele>620.1</ele>
        <time>2021-03-02T13:11:43Z</time>
        <extensions>
          <gpxtpx:TrackPointExtension xmlns:gpxtpx="http://www.garmin.com/xmlschemas/TrackPointExtension/v1">
            <gpxtpx:hr>107</gpxtpx:hr>
          </gpxtpx:TrackPointExtension>
        </extensions>
      </trkpt>
      <trkpt lat="46.00941" lon="6.18936">
        <ele>620</ele>
        <time>2021-03-02T13:11:44Z</time>
        <extensions>
          <gpxtpx:TrackPointExtension xmlns:gpxtpx="http://www.garmin.com/xmlschemas/TrackPointExtension/v1">
            <gpxtpx:hr>107</gpxtpx:hr>
          </gpxtpx:TrackPointExtension>
        </extensions>
      </trkpt>
      <trkpt lat="46.00935" lon="6.18927">
        <ele>620.1</ele>
        <time>2021-03-02T13:11:45Z</time>
        <extensions>
          <gpxtpx:TrackPointExtension xmlns:gpxtpx="http://www.garmin.com/xmlschemas/TrackPointExtension/v1">
            <gpxtpx:hr>107</gpxtpx:hr>
          </gpxtpx:TrackPointExtension>
        </extensions>
      </trkpt>
      <trkpt lat="46.00927" lon="6.18918">
        <ele>620.1</ele>
        <time>2021-03-02T13:11:46Z</time>
        <extensions>
          <gpxtpx:TrackPointExtension xmlns:gpxtpx="http://www.garmin.com/xmlschemas/TrackPointExtension/v1">
            <gpxtpx:hr>107</gpxtpx:hr>
          </gpxtpx:TrackPointExtension>
        </extensions>
      </trkpt>
      <trkpt lat="46.0092" lon="6.1891">
        <ele>620</ele>
        <time>2021-03-02T13:11:47Z</time>
        <extensions>
          <gpxtpx:TrackPointExtension xmlns:gpxtpx="http://www.garmin.com/xmlschemas/TrackPointExtension/v1">
            <gpxtpx:hr>108</gpxtpx:hr>
          </gpxtpx:TrackPointExtension>
        </extensions>
      </trkpt>
      <trkpt lat="46.00913" lon="6.18902">
        <ele>619.7</ele>
        <time>2021-03-02T13:11:48Z</time>
        <extensions>
          <gpxtpx:TrackPointExtension xmlns:gpxtpx="http://www.garmin.com/xmlschemas/TrackPointExtension/v1">
            <gpxtpx:hr>108</gpxtpx:hr>
          </gpxtpx:TrackPointExtension>
        </extensions>
      </trkpt>
      <trkpt lat="46.00905" lon="6.18894">
        <ele>619.3</ele>
        <time>2021-03-02T13:11:49Z</time>
        <extensions>
          <gpxtpx:TrackPointExtension xmlns:gpxtpx="http://www.garmin.com/xmlschemas/TrackPointExtension/v1">
            <gpxtpx:hr>109</gpxtpx:hr>
          </gpxtpx:TrackPointExtension>
        </extensions>
      </trkpt>
      <trkpt lat="46.00897" lon="6.18885">
        <ele>618.6</ele>
        <time>2021-03-02T13:11:50Z</time>
        <extensions>
          <gpxtpx:TrackPointExtension xmlns:gpxtpx="http://www.garmin.com/xmlschemas/TrackPointExtension/v1">
            <gpxtpx:hr>109</gpxtpx:hr>
          </gpxtpx:TrackPointExtension>
        </extensions>
      </trkpt>
      <trkpt lat="46.00889" lon="6.18877">
        <ele>617.7</ele>
        <time>2021-03-02T13:11:51Z</time>
        <extensions>
          <gpxtpx:TrackPointExtension xmlns:gpxtpx="http://www.garmin.com/xmlschemas/TrackPointExtension/v1">
            <gpxtpx:hr>109</gpxtpx:hr>
          </gpxtpx:TrackPointExtension>
        </extensions>
      </trkpt>
      <trkpt lat="46.00881" lon="6.18868">
        <ele>616.7</ele>
        <time>2021-03-02T13:11:52Z</time>
        <extensions>
          <gpxtpx:TrackPointExtension xmlns:gpxtpx="http://www.garmin.com/xmlschemas/TrackPointExtension/v1">
            <gpxtpx:hr>110</gpxtpx:hr>
          </gpxtpx:TrackPointExtension>
        </extensions>
      </trkpt>
      <trkpt lat="46.00872" lon="6.18859">
        <ele>615.6</ele>
        <time>2021-03-02T13:11:53Z</time>
        <extensions>
          <gpxtpx:TrackPointExtension xmlns:gpxtpx="http://www.garmin.com/xmlschemas/TrackPointExtension/v1">
            <gpxtpx:hr>111</gpxtpx:hr>
          </gpxtpx:TrackPointExtension>
        </extensions>
      </trkpt>
      <trkpt lat="46.00863" lon="6.18849">
        <ele>614.5</ele>
        <time>2021-03-02T13:11:54Z</time>
        <extensions>
          <gpxtpx:TrackPointExtension xmlns:gpxtpx="http://www.garmin.com/xmlschemas/TrackPointExtension/v1">
            <gpxtpx:hr>111</gpxtpx:hr>
          </gpxtpx:TrackPointExtension>
        </extensions>
      </trkpt>
      <trkpt lat="46.00854" lon="6.18839">
        <ele>613.3</ele>
        <time>2021-03-02T13:11:55Z</time>
        <extensions>
          <gpxtpx:TrackPointExtension xmlns:gpxtpx="http://www.garmin.com/xmlschemas/TrackPointExtension/v1">
            <gpxtpx:hr>112</gpxtpx:hr>
          </gpxtpx:TrackPointExtension>
        </extensions>
      </trkpt>
      <trkpt lat="46.00845" lon="6.18829">
        <ele>612.1</ele>
        <time>2021-03-02T13:11:56Z</time>
        <extensions>
          <gpxtpx:TrackPointExtension xmlns:gpxtpx="http://www.garmin.com/xmlschemas/TrackPointExtension/v1">
            <gpxtpx:hr>112</gpxtpx:hr>
          </gpxtpx:TrackPointExtension>
        </extensions>
      </trkpt>
      <trkpt lat="46.00835" lon="6.18819">
        <ele>610.7</ele>
        <time>2021-03-02T13:11:57Z</time>
        <extensions>
          <gpxtpx:TrackPointExtension xmlns:gpxtpx="http://www.garmin.com/xmlschemas/TrackPointExtension/v1">
            <gpxtpx:hr>111</gpxtpx:hr>
          </gpxtpx:TrackPointExtension>
        </extensions>
      </trkpt>
      <trkpt lat="46.00825" lon="6.18809">
        <ele>609.4</ele>
        <time>2021-03-02T13:11:58Z</time>
        <extensions>
          <gpxtpx:TrackPointExtension xmlns:gpxtpx="http://www.garmin.com/xmlschemas/TrackPointExtension/v1">
            <gpxtpx:hr>111</gpxtpx:hr>
          </gpxtpx:TrackPointExtension>
        </extensions>
      </trkpt>
      <trkpt lat="46.00815" lon="6.18798">
        <ele>608</ele>
        <time>2021-03-02T13:11:59Z</time>
        <extensions>
          <gpxtpx:TrackPointExtension xmlns:gpxtpx="http://www.garmin.com/xmlschemas/TrackPointExtension/v1">
            <gpxtpx:hr>111</gpxtpx:hr>
          </gpxtpx:TrackPointExtension>
        </extensions>
      </trkpt>
      <trkpt lat="46.00804" lon="6.18787">
        <ele>606.5</ele>
        <time>2021-03-02T13:12:00Z</time>
        <extensions>
          <gpxtpx:TrackPointExtension xmlns:gpxtpx="http://www.garmin.com/xmlschemas/TrackPointExtension/v1">
            <gpxtpx:hr>110</gpxtpx:hr>
          </gpxtpx:TrackPointExtension>
        </extensions>
      </trkpt>
      <trkpt lat="46.00794" lon="6.18775">
        <ele>605.2</ele>
        <time>2021-03-02T13:12:01Z</time>
        <extensions>
          <gpxtpx:TrackPointExtension xmlns:gpxtpx="http://www.garmin.com/xmlschemas/TrackPointExtension/v1">
            <gpxtpx:hr>110</gpxtpx:hr>
          </gpxtpx:TrackPointExtension>
        </extensions>
      </trkpt>
      <trkpt lat="46.00783" lon="6.18763">
        <ele>603.8</ele>
        <time>2021-03-02T13:12:02Z</time>
        <extensions>
          <gpxtpx:TrackPointExtension xmlns:gpxtpx="http://www.garmin.com/xmlschemas/TrackPointExtension/v1">
            <gpxtpx:hr>109</gpxtpx:hr>
          </gpxtpx:TrackPointExtension>
        </extensions>
      </trkpt>
      <trkpt lat="46.00772" lon="6.18752">
        <ele>602.5</ele>
        <time>2021-03-02T13:12:03Z</time>
        <extensions>
          <gpxtpx:TrackPointExtension xmlns:gpxtpx="http://www.garmin.com/xmlschemas/TrackPointExtension/v1">
            <gpxtpx:hr>109</gpxtpx:hr>
          </gpxtpx:TrackPointExtension>
        </extensions>
      </trkpt>
      <trkpt lat="46.00761" lon="6.18741">
        <ele>601.1</ele>
        <time>2021-03-02T13:12:04Z</time>
        <extensions>
          <gpxtpx:TrackPointExtension xmlns:gpxtpx="http://www.garmin.com/xmlschemas/TrackPointExtension/v1">
            <gpxtpx:hr>108</gpxtpx:hr>
          </gpxtpx:TrackPointExtension>
        </extensions>
      </trkpt>
      <trkpt lat="46.00749" lon="6.1873">
        <ele>599.5</ele>
        <time>2021-03-02T13:12:05Z</time>
        <extensions>
          <gpxtpx:TrackPointExtension xmlns:gpxtpx="http://www.garmin.com/xmlschemas/TrackPointExtension/v1">
            <gpxtpx:hr>108</gpxtpx:hr>
          </gpxtpx:TrackPointExtension>
        </extensions>
      </trkpt>
      <trkpt lat="46.00737" lon="6.18718">
        <ele>597.8</ele>
        <time>2021-03-02T13:12:06Z</time>
        <extensions>
          <gpxtpx:TrackPointExtension xmlns:gpxtpx="http://www.garmin.com/xmlschemas/TrackPointExtension/v1">
            <gpxtpx:hr>108</gpxtpx:hr>
          </gpxtpx:TrackPointExtension>
        </extensions>
      </trkpt>
      <trkpt lat="46.00726" lon="6.18706">
        <ele>596.1</ele>
        <time>2021-03-02T13:12:07Z</time>
        <extensions>
          <gpxtpx:TrackPointExtension xmlns:gpxtpx="http://www.garmin.com/xmlschemas/TrackPointExtension/v1">
            <gpxtpx:hr>108</gpxtpx:hr>
          </gpxtpx:TrackPointExtension>
        </extensions>
      </trkpt>
      <trkpt lat="46.00713" lon="6.18694">
        <ele>594.4</ele>
        <time>2021-03-02T13:12:08Z</time>
        <extensions>
          <gpxtpx:TrackPointExtension xmlns:gpxtpx="http://www.garmin.com/xmlschemas/TrackPointExtension/v1">
            <gpxtpx:hr>107</gpxtpx:hr>
          </gpxtpx:TrackPointExtension>
        </extensions>
      </trkpt>
      <trkpt lat="46.00701" lon="6.18684">
        <ele>592.8</ele>
        <time>2021-03-02T13:12:09Z</time>
        <extensions>
          <gpxtpx:TrackPointExtension xmlns:gpxtpx="http://www.garmin.com/xmlschemas/TrackPointExtension/v1">
            <gpxtpx:hr>107</gpxtpx:hr>
          </gpxtpx:TrackPointExtension>
        </extensions>
      </trkpt>
      <trkpt lat="46.00687" lon="6.18675">
        <ele>591.2</ele>
        <time>2021-03-02T13:12:10Z</time>
        <extensions>
          <gpxtpx:TrackPointExtension xmlns:gpxtpx="http://www.garmin.com/xmlschemas/TrackPointExtension/v1">
            <gpxtpx:hr>107</gpxtpx:hr>
          </gpxtpx:TrackPointExtension>
        </extensions>
      </trkpt>
      <trkpt lat="46.00673" lon="6.18667">
        <ele>589.6</ele>
        <time>2021-03-02T13:12:11Z</time>
        <extensions>
          <gpxtpx:TrackPointExtension xmlns:gpxtpx="http://www.garmin.com/xmlschemas/TrackPointExtension/v1">
            <gpxtpx:hr>107</gpxtpx:hr>
          </gpxtpx:TrackPointExtension>
        </extensions>
      </trkpt>
      <trkpt lat="46.0066" lon="6.1866">
        <ele>588.2</ele>
        <time>2021-03-02T13:12:12Z</time>
        <extensions>
          <gpxtpx:TrackPointExtension xmlns:gpxtpx="http://www.garmin.com/xmlschemas/TrackPointExtension/v1">
            <gpxtpx:hr>107</gpxtpx:hr>
          </gpxtpx:TrackPointExtension>
        </extensions>
      </trkpt>
      <trkpt lat="46.00648" lon="6.18654">
        <ele>586.8</ele>
        <time>2021-03-02T13:12:13Z</time>
        <extensions>
          <gpxtpx:TrackPointExtension xmlns:gpxtpx="http://www.garmin.com/xmlschemas/TrackPointExtension/v1">
            <gpxtpx:hr>108</gpxtpx:hr>
          </gpxtpx:TrackPointExtension>
        </extensions>
      </trkpt>
      <trkpt lat="46.00636" lon="6.1865">
        <ele>585.6</ele>
        <time>2021-03-02T13:12:14Z</time>
        <extensions>
          <gpxtpx:TrackPointExtension xmlns:gpxtpx="http://www.garmin.com/xmlschemas/TrackPointExtension/v1">
            <gpxtpx:hr>108</gpxtpx:hr>
          </gpxtpx:TrackPointExtension>
        </extensions>
      </trkpt>
      <trkpt lat="46.00625" lon="6.18649">
        <ele>584.5</ele>
        <time>2021-03-02T13:12:15Z</time>
        <extensions>
          <gpxtpx:TrackPointExtension xmlns:gpxtpx="http://www.garmin.com/xmlschemas/TrackPointExtension/v1">
            <gpxtpx:hr>108</gpxtpx:hr>
          </gpxtpx:TrackPointExtension>
        </extensions>
      </trkpt>
      <trkpt lat="46.00615" lon="6.18648">
        <ele>583.3</ele>
        <time>2021-03-02T13:12:16Z</time>
        <extensions>
          <gpxtpx:TrackPointExtension xmlns:gpxtpx="http://www.garmin.com/xmlschemas/TrackPointExtension/v1">
            <gpxtpx:hr>109</gpxtpx:hr>
          </gpxtpx:TrackPointExtension>
        </extensions>
      </trkpt>
      <trkpt lat="46.00606" lon="6.18647">
        <ele>582.2</ele>
        <time>2021-03-02T13:12:17Z</time>
        <extensions>
          <gpxtpx:TrackPointExtension xmlns:gpxtpx="http://www.garmin.com/xmlschemas/TrackPointExtension/v1">
            <gpxtpx:hr>109</gpxtpx:hr>
          </gpxtpx:TrackPointExtension>
        </extensions>
      </trkpt>
      <trkpt lat="46.00598" lon="6.18645">
        <ele>581.1</ele>
        <time>2021-03-02T13:12:18Z</time>
        <extensions>
          <gpxtpx:TrackPointExtension xmlns:gpxtpx="http://www.garmin.com/xmlschemas/TrackPointExtension/v1">
            <gpxtpx:hr>110</gpxtpx:hr>
          </gpxtpx:TrackPointExtension>
        </extensions>
      </trkpt>
      <trkpt lat="46.00591" lon="6.18643">
        <ele>580.1</ele>
        <time>2021-03-02T13:12:19Z</time>
        <extensions>
          <gpxtpx:TrackPointExtension xmlns:gpxtpx="http://www.garmin.com/xmlschemas/TrackPointExtension/v1">
            <gpxtpx:hr>111</gpxtpx:hr>
          </gpxtpx:TrackPointExtension>
        </extensions>
      </trkpt>
      <trkpt lat="46.00586" lon="6.18642">
        <ele>579.3</ele>
        <time>2021-03-02T13:12:20Z</time>
        <extensions>
          <gpxtpx:TrackPointExtension xmlns:gpxtpx="http://www.garmin.com/xmlschemas/TrackPointExtension/v1">
            <gpxtpx:hr>111</gpxtpx:hr>
          </gpxtpx:TrackPointExtension>
        </extensions>
      </trkpt>
      <trkpt lat="46.00582" lon="6.18642">
        <ele>578.7</ele>
        <time>2021-03-02T13:12:21Z</time>
        <extensions>
          <gpxtpx:TrackPointExtension xmlns:gpxtpx="http://www.garmin.com/xmlschemas/TrackPointExtension/v1">
            <gpxtpx:hr>111</gpxtpx:hr>
          </gpxtpx:TrackPointExtension>
        </extensions>
      </trkpt>
      <trkpt lat="46.0058" lon="6.18644">
        <ele>578.4</ele>
        <time>2021-03-02T13:12:22Z</time>
        <extensions>
          <gpxtpx:TrackPointExtension xmlns:gpxtpx="http://www.garmin.com/xmlschemas/TrackPointExtension/v1">
            <gpxtpx:hr>111</gpxtpx:hr>
          </gpxtpx:TrackPointExtension>
        </extensions>
      </trkpt>
      <trkpt lat="46.00577" lon="6.18645">
        <ele>577.9</ele>
        <time>2021-03-02T13:12:23Z</time>
        <extensions>
          <gpxtpx:TrackPointExtension xmlns:gpxtpx="http://www.garmin.com/xmlschemas/TrackPointExtension/v1">
            <gpxtpx:hr>112</gpxtpx:hr>
          </gpxtpx:TrackPointExtension>
        </extensions>
      </trkpt>
      <trkpt lat="46.00576" lon="6.18645">
        <ele>577.6</ele>
        <time>2021-03-02T13:12:24Z</time>
        <extensions>
          <gpxtpx:TrackPointExtension xmlns:gpxtpx="http://www.garmin.com/xmlschemas/TrackPointExtension/v1">
            <gpxtpx:hr>111</gpxtpx:hr>
          </gpxtpx:TrackPointExtension>
        </extensions>
      </trkpt>
      <trkpt lat="46.00575" lon="6.18644">
        <ele>577.4</ele>
        <time>2021-03-02T13:12:25Z</time>
        <extensions>
          <gpxtpx:TrackPointExtension xmlns:gpxtpx="http://www.garmin.com/xmlschemas/TrackPointExtension/v1">
            <gpxtpx:hr>111</gpxtpx:hr>
          </gpxtpx:TrackPointExtension>
        </extensions>
      </trkpt>
      <trkpt lat="46.00573" lon="6.18643">
        <ele>577.1</ele>
        <time>2021-03-02T13:12:26Z</time>
        <extensions>
          <gpxtpx:TrackPointExtension xmlns:gpxtpx="http://www.garmin.com/xmlschemas/TrackPointExtension/v1">
            <gpxtpx:hr>111</gpxtpx:hr>
          </gpxtpx:TrackPointExtension>
        </extensions>
      </trkpt>
      <trkpt lat="46.00572" lon="6.18642">
        <ele>576.9</ele>
        <time>2021-03-02T13:12:27Z</time>
        <extensions>
          <gpxtpx:TrackPointExtension xmlns:gpxtpx="http://www.garmin.com/xmlschemas/TrackPointExtension/v1">
            <gpxtpx:hr>112</gpxtpx:hr>
          </gpxtpx:TrackPointExtension>
        </extensions>
      </trkpt>
      <trkpt lat="46.00571" lon="6.18641">
        <ele>576.6</ele>
        <time>2021-03-02T13:12:28Z</time>
        <extensions>
          <gpxtpx:TrackPointExtension xmlns:gpxtpx="http://www.garmin.com/xmlschemas/TrackPointExtension/v1">
            <gpxtpx:hr>99</gpxtpx:hr>
          </gpxtpx:TrackPointExtension>
        </extensions>
      </trkpt>
      <trkpt lat="46.00569" lon="6.1864">
        <ele>576.4</ele>
        <time>2021-03-02T13:12:44Z</time>
        <extensions>
          <gpxtpx:TrackPointExtension xmlns:gpxtpx="http://www.garmin.com/xmlschemas/TrackPointExtension/v1">
            <gpxtpx:hr>100</gpxtpx:hr>
          </gpxtpx:TrackPointExtension>
        </extensions>
      </trkpt>
      <trkpt lat="46.00568" lon="6.1864">
        <ele>576.1</ele>
        <time>2021-03-02T13:12:45Z</time>
        <extensions>
          <gpxtpx:TrackPointExtension xmlns:gpxtpx="http://www.garmin.com/xmlschemas/TrackPointExtension/v1">
            <gpxtpx:hr>101</gpxtpx:hr>
          </gpxtpx:TrackPointExtension>
        </extensions>
      </trkpt>
      <trkpt lat="46.00567" lon="6.18639">
        <ele>575.8</ele>
        <time>2021-03-02T13:12:46Z</time>
        <extensions>
          <gpxtpx:TrackPointExtension xmlns:gpxtpx="http://www.garmin.com/xmlschemas/TrackPointExtension/v1">
            <gpxtpx:hr>101</gpxtpx:hr>
          </gpxtpx:TrackPointExtension>
        </extensions>
      </trkpt>
      <trkpt lat="46.00565" lon="6.18638">
        <ele>575.6</ele>
        <time>2021-03-02T13:12:47Z</time>
        <extensions>
          <gpxtpx:TrackPointExtension xmlns:gpxtpx="http://www.garmin.com/xmlschemas/TrackPointExtension/v1">
            <gpxtpx:hr>102</gpxtpx:hr>
          </gpxtpx:TrackPointExtension>
        </extensions>
      </trkpt>
      <trkpt lat="46.00564" lon="6.18637">
        <ele>575.3</ele>
        <time>2021-03-02T13:12:48Z</time>
        <extensions>
          <gpxtpx:TrackPointExtension xmlns:gpxtpx="http://www.garmin.com/xmlschemas/TrackPointExtension/v1">
            <gpxtpx:hr>102</gpxtpx:hr>
          </gpxtpx:TrackPointExtension>
        </extensions>
      </trkpt>
      <trkpt lat="46.00563" lon="6.18636">
        <ele>575</ele>
        <time>2021-03-02T13:12:49Z</time>
        <extensions>
          <gpxtpx:TrackPointExtension xmlns:gpxtpx="http://www.garmin.com/xmlschemas/TrackPointExtension/v1">
            <gpxtpx:hr>102</gpxtpx:hr>
          </gpxtpx:TrackPointExtension>
        </extensions>
      </trkpt>
      <trkpt lat="46.00561" lon="6.18636">
        <ele>574.7</ele>
        <time>2021-03-02T13:12:52Z</time>
        <extensions>
          <gpxtpx:TrackPointExtension xmlns:gpxtpx="http://www.garmin.com/xmlschemas/TrackPointExtension/v1">
            <gpxtpx:hr>102</gpxtpx:hr>
          </gpxtpx:TrackPointExtension>
        </extensions>
      </trkpt>
      <trkpt lat="46.0056" lon="6.18635">
        <ele>574.5</ele>
        <time>2021-03-02T13:12:53Z</time>
        <extensions>
          <gpxtpx:TrackPointExtension xmlns:gpxtpx="http://www.garmin.com/xmlschemas/TrackPointExtension/v1">
            <gpxtpx:hr>101</gpxtpx:hr>
          </gpxtpx:TrackPointExtension>
        </extensions>
      </trkpt>
      <trkpt lat="46.00559" lon="6.18634">
        <ele>574.2</ele>
        <time>2021-03-02T13:12:54Z</time>
        <extensions>
          <gpxtpx:TrackPointExtension xmlns:gpxtpx="http://www.garmin.com/xmlschemas/TrackPointExtension/v1">
            <gpxtpx:hr>101</gpxtpx:hr>
          </gpxtpx:TrackPointExtension>
        </extensions>
      </trkpt>
      <trkpt lat="46.00557" lon="6.18633">
        <ele>573.9</ele>
        <time>2021-03-02T13:12:55Z</time>
        <extensions>
          <gpxtpx:TrackPointExtension xmlns:gpxtpx="http://www.garmin.com/xmlschemas/TrackPointExtension/v1">
            <gpxtpx:hr>101</gpxtpx:hr>
          </gpxtpx:TrackPointExtension>
        </extensions>
      </trkpt>
      <trkpt lat="46.00556" lon="6.18632">
        <ele>573.6</ele>
        <time>2021-03-02T13:12:56Z</time>
        <extensions>
          <gpxtpx:TrackPointExtension xmlns:gpxtpx="http://www.garmin.com/xmlschemas/TrackPointExtension/v1">
            <gpxtpx:hr>101</gpxtpx:hr>
          </gpxtpx:TrackPointExtension>
        </extensions>
      </trkpt>
      <trkpt lat="46.00555" lon="6.18631">
        <ele>573.4</ele>
        <time>2021-03-02T13:12:57Z</time>
        <extensions>
          <gpxtpx:TrackPointExtension xmlns:gpxtpx="http://www.garmin.com/xmlschemas/TrackPointExtension/v1">
            <gpxtpx:hr>102</gpxtpx:hr>
          </gpxtpx:TrackPointExtension>
        </extensions>
      </trkpt>
      <trkpt lat="46.00553" lon="6.18631">
        <ele>573.1</ele>
        <time>2021-03-02T13:12:58Z</time>
        <extensions>
          <gpxtpx:TrackPointExtension xmlns:gpxtpx="http://www.garmin.com/xmlschemas/TrackPointExtension/v1">
            <gpxtpx:hr>102</gpxtpx:hr>
          </gpxtpx:TrackPointExtension>
        </extensions>
      </trkpt>
      <trkpt lat="46.00552" lon="6.1863">
        <ele>572.8</ele>
        <time>2021-03-02T13:12:59Z</time>
        <extensions>
          <gpxtpx:TrackPointExtension xmlns:gpxtpx="http://www.garmin.com/xmlschemas/TrackPointExtension/v1">
            <gpxtpx:hr>102</gpxtpx:hr>
          </gpxtpx:TrackPointExtension>
        </extensions>
      </trkpt>
      <trkpt lat="46.00547" lon="6.18629">
        <ele>571.7</ele>
        <time>2021-03-02T13:13:00Z</time>
        <extensions>
          <gpxtpx:TrackPointExtension xmlns:gpxtpx="http://www.garmin.com/xmlschemas/TrackPointExtension/v1">
            <gpxtpx:hr>102</gpxtpx:hr>
          </gpxtpx:TrackPointExtension>
        </extensions>
      </trkpt>
      <trkpt lat="46.00542" lon="6.18628">
        <ele>570.7</ele>
        <time>2021-03-02T13:13:01Z</time>
        <extensions>
          <gpxtpx:TrackPointExtension xmlns:gpxtpx="http://www.garmin.com/xmlschemas/TrackPointExtension/v1">
            <gpxtpx:hr>102</gpxtpx:hr>
          </gpxtpx:TrackPointExtension>
        </extensions>
      </trkpt>
      <trkpt lat="46.00537" lon="6.18627">
        <ele>569.7</ele>
        <time>2021-03-02T13:13:02Z</time>
        <extensions>
          <gpxtpx:TrackPointExtension xmlns:gpxtpx="http://www.garmin.com/xmlschemas/TrackPointExtension/v1">
            <gpxtpx:hr>102</gpxtpx:hr>
          </gpxtpx:TrackPointExtension>
        </extensions>
      </trkpt>
      <trkpt lat="46.00533" lon="6.18627">
        <ele>568.8</ele>
        <time>2021-03-02T13:13:03Z</time>
        <extensions>
          <gpxtpx:TrackPointExtension xmlns:gpxtpx="http://www.garmin.com/xmlschemas/TrackPointExtension/v1">
            <gpxtpx:hr>102</gpxtpx:hr>
          </gpxtpx:TrackPointExtension>
        </extensions>
      </trkpt>
      <trkpt lat="46.00528" lon="6.18626">
        <ele>567.9</ele>
        <time>2021-03-02T13:13:04Z</time>
        <extensions>
          <gpxtpx:TrackPointExtension xmlns:gpxtpx="http://www.garmin.com/xmlschemas/TrackPointExtension/v1">
            <gpxtpx:hr>102</gpxtpx:hr>
          </gpxtpx:TrackPointExtension>
        </extensions>
      </trkpt>
      <trkpt lat="46.00524" lon="6.18624">
        <ele>567</ele>
        <time>2021-03-02T13:13:05Z</time>
        <extensions>
          <gpxtpx:TrackPointExtension xmlns:gpxtpx="http://www.garmin.com/xmlschemas/TrackPointExtension/v1">
            <gpxtpx:hr>102</gpxtpx:hr>
          </gpxtpx:TrackPointExtension>
        </extensions>
      </trkpt>
      <trkpt lat="46.0052" lon="6.18621">
        <ele>566.1</ele>
        <time>2021-03-02T13:13:06Z</time>
        <extensions>
          <gpxtpx:TrackPointExtension xmlns:gpxtpx="http://www.garmin.com/xmlschemas/TrackPointExtension/v1">
            <gpxtpx:hr>103</gpxtpx:hr>
          </gpxtpx:TrackPointExtension>
        </extensions>
      </trkpt>
      <trkpt lat="46.00517" lon="6.18618">
        <ele>565.3</ele>
        <time>2021-03-02T13:13:07Z</time>
        <extensions>
          <gpxtpx:TrackPointExtension xmlns:gpxtpx="http://www.garmin.com/xmlschemas/TrackPointExtension/v1">
            <gpxtpx:hr>103</gpxtpx:hr>
          </gpxtpx:TrackPointExtension>
        </extensions>
      </trkpt>
      <trkpt lat="46.00512" lon="6.18614">
        <ele>564.5</ele>
        <time>2021-03-02T13:13:08Z</time>
        <extensions>
          <gpxtpx:TrackPointExtension xmlns:gpxtpx="http://www.garmin.com/xmlschemas/TrackPointExtension/v1">
            <gpxtpx:hr>103</gpxtpx:hr>
          </gpxtpx:TrackPointExtension>
        </extensions>
      </trkpt>
      <trkpt lat="46.00508" lon="6.18612">
        <ele>563.9</ele>
        <time>2021-03-02T13:13:09Z</time>
        <extensions>
          <gpxtpx:TrackPointExtension xmlns:gpxtpx="http://www.garmin.com/xmlschemas/TrackPointExtension/v1">
            <gpxtpx:hr>103</gpxtpx:hr>
          </gpxtpx:TrackPointExtension>
        </extensions>
      </trkpt>
      <trkpt lat="46.00503" lon="6.1861">
        <ele>563.6</ele>
        <time>2021-03-02T13:13:10Z</time>
        <extensions>
          <gpxtpx:TrackPointExtension xmlns:gpxtpx="http://www.garmin.com/xmlschemas/TrackPointExtension/v1">
            <gpxtpx:hr>104</gpxtpx:hr>
          </gpxtpx:TrackPointExtension>
        </extensions>
      </trkpt>
      <trkpt lat="46.00497" lon="6.18612">
        <ele>563.3</ele>
        <time>2021-03-02T13:13:11Z</time>
        <extensions>
          <gpxtpx:TrackPointExtension xmlns:gpxtpx="http://www.garmin.com/xmlschemas/TrackPointExtension/v1">
            <gpxtpx:hr>104</gpxtpx:hr>
          </gpxtpx:TrackPointExtension>
        </extensions>
      </trkpt>
      <trkpt lat="46.00491" lon="6.18613">
        <ele>563</ele>
        <time>2021-03-02T13:13:12Z</time>
        <extensions>
          <gpxtpx:TrackPointExtension xmlns:gpxtpx="http://www.garmin.com/xmlschemas/TrackPointExtension/v1">
            <gpxtpx:hr>104</gpxtpx:hr>
          </gpxtpx:TrackPointExtension>
        </extensions>
      </trkpt>
      <trkpt lat="46.00485" lon="6.18614">
        <ele>562.7</ele>
        <time>2021-03-02T13:13:13Z</time>
        <extensions>
          <gpxtpx:TrackPointExtension xmlns:gpxtpx="http://www.garmin.com/xmlschemas/TrackPointExtension/v1">
            <gpxtpx:hr>104</gpxtpx:hr>
          </gpxtpx:TrackPointExtension>
        </extensions>
      </trkpt>
      <trkpt lat="46.00478" lon="6.18616">
        <ele>562.5</ele>
        <time>2021-03-02T13:13:14Z</time>
        <extensions>
          <gpxtpx:TrackPointExtension xmlns:gpxtpx="http://www.garmin.com/xmlschemas/TrackPointExtension/v1">
            <gpxtpx:hr>104</gpxtpx:hr>
          </gpxtpx:TrackPointExtension>
        </extensions>
      </trkpt>
      <trkpt lat="46.00472" lon="6.18618">
        <ele>562.3</ele>
        <time>2021-03-02T13:13:15Z</time>
        <extensions>
          <gpxtpx:TrackPointExtension xmlns:gpxtpx="http://www.garmin.com/xmlschemas/TrackPointExtension/v1">
            <gpxtpx:hr>104</gpxtpx:hr>
          </gpxtpx:TrackPointExtension>
        </extensions>
      </trkpt>
      <trkpt lat="46.00466" lon="6.18621">
        <ele>562.2</ele>
        <time>2021-03-02T13:13:16Z</time>
        <extensions>
          <gpxtpx:TrackPointExtension xmlns:gpxtpx="http://www.garmin.com/xmlschemas/TrackPointExtension/v1">
            <gpxtpx:hr>104</gpxtpx:hr>
          </gpxtpx:TrackPointExtension>
        </extensions>
      </trkpt>
      <trkpt lat="46.0046" lon="6.18624">
        <ele>562.1</ele>
        <time>2021-03-02T13:13:17Z</time>
        <extensions>
          <gpxtpx:TrackPointExtension xmlns:gpxtpx="http://www.garmin.com/xmlschemas/TrackPointExtension/v1">
            <gpxtpx:hr>104</gpxtpx:hr>
          </gpxtpx:TrackPointExtension>
        </extensions>
      </trkpt>
      <trkpt lat="46.00456" lon="6.18627">
        <ele>562.1</ele>
        <time>2021-03-02T13:13:18Z</time>
        <extensions>
          <gpxtpx:TrackPointExtension xmlns:gpxtpx="http://www.garmin.com/xmlschemas/TrackPointExtension/v1">
            <gpxtpx:hr>104</gpxtpx:hr>
          </gpxtpx:TrackPointExtension>
        </extensions>
      </trkpt>
      <trkpt lat="46.00452" lon="6.1863">
        <ele>562.1</ele>
        <time>2021-03-02T13:13:19Z</time>
        <extensions>
          <gpxtpx:TrackPointExtension xmlns:gpxtpx="http://www.garmin.com/xmlschemas/TrackPointExtension/v1">
            <gpxtpx:hr>104</gpxtpx:hr>
          </gpxtpx:TrackPointExtension>
        </extensions>
      </trkpt>
      <trkpt lat="46.00448" lon="6.18632">
        <ele>562.1</ele>
        <time>2021-03-02T13:13:20Z</time>
        <extensions>
          <gpxtpx:TrackPointExtension xmlns:gpxtpx="http://www.garmin.com/xmlschemas/TrackPointExtension/v1">
            <gpxtpx:hr>104</gpxtpx:hr>
          </gpxtpx:TrackPointExtension>
        </extensions>
      </trkpt>
      <trkpt lat="46.00445" lon="6.18635">
        <ele>562.1</ele>
        <time>2021-03-02T13:13:21Z</time>
        <extensions>
          <gpxtpx:TrackPointExtension xmlns:gpxtpx="http://www.garmin.com/xmlschemas/TrackPointExtension/v1">
            <gpxtpx:hr>104</gpxtpx:hr>
          </gpxtpx:TrackPointExtension>
        </extensions>
      </trkpt>
      <trkpt lat="46.00443" lon="6.18637">
        <ele>562.1</ele>
        <time>2021-03-02T13:13:22Z</time>
        <extensions>
          <gpxtpx:TrackPointExtension xmlns:gpxtpx="http://www.garmin.com/xmlschemas/TrackPointExtension/v1">
            <gpxtpx:hr>105</gpxtpx:hr>
          </gpxtpx:TrackPointExtension>
        </extensions>
      </trkpt>
      <trkpt lat="46.0044" lon="6.18638">
        <ele>562.1</ele>
        <time>2021-03-02T13:13:23Z</time>
        <extensions>
          <gpxtpx:TrackPointExtension xmlns:gpxtpx="http://www.garmin.com/xmlschemas/TrackPointExtension/v1">
            <gpxtpx:hr>105</gpxtpx:hr>
          </gpxtpx:TrackPointExtension>
        </extensions>
      </trkpt>
      <trkpt lat="46.00437" lon="6.18637">
        <ele>562</ele>
        <time>2021-03-02T13:13:24Z</time>
        <extensions>
          <gpxtpx:TrackPointExtension xmlns:gpxtpx="http://www.garmin.com/xmlschemas/TrackPointExtension/v1">
            <gpxtpx:hr>105</gpxtpx:hr>
          </gpxtpx:TrackPointExtension>
        </extensions>
      </trkpt>
      <trkpt lat="46.00435" lon="6.18635">
        <ele>562</ele>
        <time>2021-03-02T13:13:25Z</time>
        <extensions>
          <gpxtpx:TrackPointExtension xmlns:gpxtpx="http://www.garmin.com/xmlschemas/TrackPointExtension/v1">
            <gpxtpx:hr>105</gpxtpx:hr>
          </gpxtpx:TrackPointExtension>
        </extensions>
      </trkpt>
      <trkpt lat="46.00434" lon="6.18632">
        <ele>562</ele>
        <time>2021-03-02T13:13:26Z</time>
        <extensions>
          <gpxtpx:TrackPointExtension xmlns:gpxtpx="http://www.garmin.com/xmlschemas/TrackPointExtension/v1">
            <gpxtpx:hr>105</gpxtpx:hr>
          </gpxtpx:TrackPointExtension>
        </extensions>
      </trkpt>
      <trkpt lat="46.00431" lon="6.18629">
        <ele>562</ele>
        <time>2021-03-02T13:13:27Z</time>
        <extensions>
          <gpxtpx:TrackPointExtension xmlns:gpxtpx="http://www.garmin.com/xmlschemas/TrackPointExtension/v1">
            <gpxtpx:hr>105</gpxtpx:hr>
          </gpxtpx:TrackPointExtension>
        </extensions>
      </trkpt>
      <trkpt lat="46.00429" lon="6.18626">
        <ele>562</ele>
        <time>2021-03-02T13:13:28Z</time>
        <extensions>
          <gpxtpx:TrackPointExtension xmlns:gpxtpx="http://www.garmin.com/xmlschemas/TrackPointExtension/v1">
            <gpxtpx:hr>105</gpxtpx:hr>
          </gpxtpx:TrackPointExtension>
        </extensions>
      </trkpt>
      <trkpt lat="46.00427" lon="6.18622">
        <ele>561.9</ele>
        <time>2021-03-02T13:13:29Z</time>
        <extensions>
          <gpxtpx:TrackPointExtension xmlns:gpxtpx="http://www.garmin.com/xmlschemas/TrackPointExtension/v1">
            <gpxtpx:hr>105</gpxtpx:hr>
          </gpxtpx:TrackPointExtension>
        </extensions>
      </trkpt>
      <trkpt lat="46.00424" lon="6.18618">
        <ele>561.9</ele>
        <time>2021-03-02T13:13:30Z</time>
        <extensions>
          <gpxtpx:TrackPointExtension xmlns:gpxtpx="http://www.garmin.com/xmlschemas/TrackPointExtension/v1">
            <gpxtpx:hr>105</gpxtpx:hr>
          </gpxtpx:TrackPointExtension>
        </extensions>
      </trkpt>
      <trkpt lat="46.00422" lon="6.18614">
        <ele>561.9</ele>
        <time>2021-03-02T13:13:31Z</time>
        <extensions>
          <gpxtpx:TrackPointExtension xmlns:gpxtpx="http://www.garmin.com/xmlschemas/TrackPointExtension/v1">
            <gpxtpx:hr>105</gpxtpx:hr>
          </gpxtpx:TrackPointExtension>
        </extensions>
      </trkpt>
      <trkpt lat="46.00419" lon="6.1861">
        <ele>561.8</ele>
        <time>2021-03-02T13:13:32Z</time>
        <extensions>
          <gpxtpx:TrackPointExtension xmlns:gpxtpx="http://www.garmin.com/xmlschemas/TrackPointExtension/v1">
            <gpxtpx:hr>106</gpxtpx:hr>
          </gpxtpx:TrackPointExtension>
        </extensions>
      </trkpt>
      <trkpt lat="46.00416" lon="6.18606">
        <ele>561.8</ele>
        <time>2021-03-02T13:13:33Z</time>
        <extensions>
          <gpxtpx:TrackPointExtension xmlns:gpxtpx="http://www.garmin.com/xmlschemas/TrackPointExtension/v1">
            <gpxtpx:hr>106</gpxtpx:hr>
          </gpxtpx:TrackPointExtension>
        </extensions>
      </trkpt>
      <trkpt lat="46.00413" lon="6.18602">
        <ele>561.8</ele>
        <time>2021-03-02T13:13:34Z</time>
        <extensions>
          <gpxtpx:TrackPointExtension xmlns:gpxtpx="http://www.garmin.com/xmlschemas/TrackPointExtension/v1">
            <gpxtpx:hr>106</gpxtpx:hr>
          </gpxtpx:TrackPointExtension>
        </extensions>
      </trkpt>
      <trkpt lat="46.0041" lon="6.18597">
        <ele>561.8</ele>
        <time>2021-03-02T13:13:35Z</time>
        <extensions>
          <gpxtpx:TrackPointExtension xmlns:gpxtpx="http://www.garmin.com/xmlschemas/TrackPointExtension/v1">
            <gpxtpx:hr>106</gpxtpx:hr>
          </gpxtpx:TrackPointExtension>
        </extensions>
      </trkpt>
      <trkpt lat="46.00406" lon="6.18592">
        <ele>561.8</ele>
        <time>2021-03-02T13:13:36Z</time>
        <extensions>
          <gpxtpx:TrackPointExtension xmlns:gpxtpx="http://www.garmin.com/xmlschemas/TrackPointExtension/v1">
            <gpxtpx:hr>107</gpxtpx:hr>
          </gpxtpx:TrackPointExtension>
        </extensions>
      </trkpt>
      <trkpt lat="46.00403" lon="6.18587">
        <ele>561.7</ele>
        <time>2021-03-02T13:13:37Z</time>
        <extensions>
          <gpxtpx:TrackPointExtension xmlns:gpxtpx="http://www.garmin.com/xmlschemas/TrackPointExtension/v1">
            <gpxtpx:hr>108</gpxtpx:hr>
          </gpxtpx:TrackPointExtension>
        </extensions>
      </trkpt>
      <trkpt lat="46.00399" lon="6.18582">
        <ele>561.7</ele>
        <time>2021-03-02T13:13:38Z</time>
        <extensions>
          <gpxtpx:TrackPointExtension xmlns:gpxtpx="http://www.garmin.com/xmlschemas/TrackPointExtension/v1">
            <gpxtpx:hr>108</gpxtpx:hr>
          </gpxtpx:TrackPointExtension>
        </extensions>
      </trkpt>
      <trkpt lat="46.00396" lon="6.18577">
        <ele>561.7</ele>
        <time>2021-03-02T13:13:39Z</time>
        <extensions>
          <gpxtpx:TrackPointExtension xmlns:gpxtpx="http://www.garmin.com/xmlschemas/TrackPointExtension/v1">
            <gpxtpx:hr>107</gpxtpx:hr>
          </gpxtpx:TrackPointExtension>
        </extensions>
      </trkpt>
      <trkpt lat="46.00392" lon="6.18571">
        <ele>561.6</ele>
        <time>2021-03-02T13:13:40Z</time>
        <extensions>
          <gpxtpx:TrackPointExtension xmlns:gpxtpx="http://www.garmin.com/xmlschemas/TrackPointExtension/v1">
            <gpxtpx:hr>107</gpxtpx:hr>
          </gpxtpx:TrackPointExtension>
        </extensions>
      </trkpt>
      <trkpt lat="46.00388" lon="6.18566">
        <ele>561.5</ele>
        <time>2021-03-02T13:13:41Z</time>
        <extensions>
          <gpxtpx:TrackPointExtension xmlns:gpxtpx="http://www.garmin.com/xmlschemas/TrackPointExtension/v1">
            <gpxtpx:hr>107</gpxtpx:hr>
          </gpxtpx:TrackPointExtension>
        </extensions>
      </trkpt>
      <trkpt lat="46.00384" lon="6.1856">
        <ele>561.3</ele>
        <time>2021-03-02T13:13:42Z</time>
        <extensions>
          <gpxtpx:TrackPointExtension xmlns:gpxtpx="http://www.garmin.com/xmlschemas/TrackPointExtension/v1">
            <gpxtpx:hr>107</gpxtpx:hr>
          </gpxtpx:TrackPointExtension>
        </extensions>
      </trkpt>
      <trkpt lat="46.0038" lon="6.18554">
        <ele>561.1</ele>
        <time>2021-03-02T13:13:43Z</time>
        <extensions>
          <gpxtpx:TrackPointExtension xmlns:gpxtpx="http://www.garmin.com/xmlschemas/TrackPointExtension/v1">
            <gpxtpx:hr>107</gpxtpx:hr>
          </gpxtpx:TrackPointExtension>
        </extensions>
      </trkpt>
      <trkpt lat="46.00375" lon="6.18548">
        <ele>560.9</ele>
        <time>2021-03-02T13:13:44Z</time>
        <extensions>
          <gpxtpx:TrackPointExtension xmlns:gpxtpx="http://www.garmin.com/xmlschemas/TrackPointExtension/v1">
            <gpxtpx:hr>106</gpxtpx:hr>
          </gpxtpx:TrackPointExtension>
        </extensions>
      </trkpt>
      <trkpt lat="46.00371" lon="6.18542">
        <ele>560.7</ele>
        <time>2021-03-02T13:13:45Z</time>
        <extensions>
          <gpxtpx:TrackPointExtension xmlns:gpxtpx="http://www.garmin.com/xmlschemas/TrackPointExtension/v1">
            <gpxtpx:hr>106</gpxtpx:hr>
          </gpxtpx:TrackPointExtension>
        </extensions>
      </trkpt>
      <trkpt lat="46.00366" lon="6.18536">
        <ele>560.6</ele>
        <time>2021-03-02T13:13:46Z</time>
        <extensions>
          <gpxtpx:TrackPointExtension xmlns:gpxtpx="http://www.garmin.com/xmlschemas/TrackPointExtension/v1">
            <gpxtpx:hr>106</gpxtpx:hr>
          </gpxtpx:TrackPointExtension>
        </extensions>
      </trkpt>
      <trkpt lat="46.00362" lon="6.18529">
        <ele>560.4</ele>
        <time>2021-03-02T13:13:47Z</time>
        <extensions>
          <gpxtpx:TrackPointExtension xmlns:gpxtpx="http://www.garmin.com/xmlschemas/TrackPointExtension/v1">
            <gpxtpx:hr>106</gpxtpx:hr>
          </gpxtpx:TrackPointExtension>
        </extensions>
      </trkpt>
      <trkpt lat="46.00357" lon="6.18523">
        <ele>560.3</ele>
        <time>2021-03-02T13:13:48Z</time>
        <extensions>
          <gpxtpx:TrackPointExtension xmlns:gpxtpx="http://www.garmin.com/xmlschemas/TrackPointExtension/v1">
            <gpxtpx:hr>106</gpxtpx:hr>
          </gpxtpx:TrackPointExtension>
        </extensions>
      </trkpt>
      <trkpt lat="46.00352" lon="6.18517">
        <ele>560.2</ele>
        <time>2021-03-02T13:13:49Z</time>
        <extensions>
          <gpxtpx:TrackPointExtension xmlns:gpxtpx="http://www.garmin.com/xmlschemas/TrackPointExtension/v1">
            <gpxtpx:hr>106</gpxtpx:hr>
          </gpxtpx:TrackPointExtension>
        </extensions>
      </trkpt>
      <trkpt lat="46.00348" lon="6.18511">
        <ele>560</ele>
        <time>2021-03-02T13:13:50Z</time>
        <extensions>
          <gpxtpx:TrackPointExtension xmlns:gpxtpx="http://www.garmin.com/xmlschemas/TrackPointExtension/v1">
            <gpxtpx:hr>106</gpxtpx:hr>
          </gpxtpx:TrackPointExtension>
        </extensions>
      </trkpt>
      <trkpt lat="46.00343" lon="6.18504">
        <ele>559.9</ele>
        <time>2021-03-02T13:13:51Z</time>
        <extensions>
          <gpxtpx:TrackPointExtension xmlns:gpxtpx="http://www.garmin.com/xmlschemas/TrackPointExtension/v1">
            <gpxtpx:hr>106</gpxtpx:hr>
          </gpxtpx:TrackPointExtension>
        </extensions>
      </trkpt>
      <trkpt lat="46.00338" lon="6.18497">
        <ele>559.8</ele>
        <time>2021-03-02T13:13:52Z</time>
        <extensions>
          <gpxtpx:TrackPointExtension xmlns:gpxtpx="http://www.garmin.com/xmlschemas/TrackPointExtension/v1">
            <gpxtpx:hr>106</gpxtpx:hr>
          </gpxtpx:TrackPointExtension>
        </extensions>
      </trkpt>
      <trkpt lat="46.00334" lon="6.18491">
        <ele>559.7</ele>
        <time>2021-03-02T13:13:53Z</time>
        <extensions>
          <gpxtpx:TrackPointExtension xmlns:gpxtpx="http://www.garmin.com/xmlschemas/TrackPointExtension/v1">
            <gpxtpx:hr>106</gpxtpx:hr>
          </gpxtpx:TrackPointExtension>
        </extensions>
      </trkpt>
      <trkpt lat="46.00329" lon="6.18484">
        <ele>559.6</ele>
        <time>2021-03-02T13:13:54Z</time>
        <extensions>
          <gpxtpx:TrackPointExtension xmlns:gpxtpx="http://www.garmin.com/xmlschemas/TrackPointExtension/v1">
            <gpxtpx:hr>106</gpxtpx:hr>
          </gpxtpx:TrackPointExtension>
        </extensions>
      </trkpt>
      <trkpt lat="46.00324" lon="6.18477">
        <ele>559.4</ele>
        <time>2021-03-02T13:13:55Z</time>
        <extensions>
          <gpxtpx:TrackPointExtension xmlns:gpxtpx="http://www.garmin.com/xmlschemas/TrackPointExtension/v1">
            <gpxtpx:hr>106</gpxtpx:hr>
          </gpxtpx:TrackPointExtension>
        </extensions>
      </trkpt>
      <trkpt lat="46.00319" lon="6.18471">
        <ele>559.3</ele>
        <time>2021-03-02T13:13:56Z</time>
        <extensions>
          <gpxtpx:TrackPointExtension xmlns:gpxtpx="http://www.garmin.com/xmlschemas/TrackPointExtension/v1">
            <gpxtpx:hr>106</gpxtpx:hr>
          </gpxtpx:TrackPointExtension>
        </extensions>
      </trkpt>
      <trkpt lat="46.00314" lon="6.18464">
        <ele>559.2</ele>
        <time>2021-03-02T13:13:57Z</time>
        <extensions>
          <gpxtpx:TrackPointExtension xmlns:gpxtpx="http://www.garmin.com/xmlschemas/TrackPointExtension/v1">
            <gpxtpx:hr>106</gpxtpx:hr>
          </gpxtpx:TrackPointExtension>
        </extensions>
      </trkpt>
      <trkpt lat="46.00309" lon="6.18457">
        <ele>559.1</ele>
        <time>2021-03-02T13:13:58Z</time>
        <extensions>
          <gpxtpx:TrackPointExtension xmlns:gpxtpx="http://www.garmin.com/xmlschemas/TrackPointExtension/v1">
            <gpxtpx:hr>106</gpxtpx:hr>
          </gpxtpx:TrackPointExtension>
        </extensions>
      </trkpt>
      <trkpt lat="46.00304" lon="6.1845">
        <ele>559</ele>
        <time>2021-03-02T13:13:59Z</time>
        <extensions>
          <gpxtpx:TrackPointExtension xmlns:gpxtpx="http://www.garmin.com/xmlschemas/TrackPointExtension/v1">
            <gpxtpx:hr>106</gpxtpx:hr>
          </gpxtpx:TrackPointExtension>
        </extensions>
      </trkpt>
      <trkpt lat="46.00298" lon="6.18443">
        <ele>559</ele>
        <time>2021-03-02T13:14:00Z</time>
        <extensions>
          <gpxtpx:TrackPointExtension xmlns:gpxtpx="http://www.garmin.com/xmlschemas/TrackPointExtension/v1">
            <gpxtpx:hr>106</gpxtpx:hr>
          </gpxtpx:TrackPointExtension>
        </extensions>
      </trkpt>
      <trkpt lat="46.00293" lon="6.18435">
        <ele>558.9</ele>
        <time>2021-03-02T13:14:01Z</time>
        <extensions>
          <gpxtpx:TrackPointExtension xmlns:gpxtpx="http://www.garmin.com/xmlschemas/TrackPointExtension/v1">
            <gpxtpx:hr>106</gpxtpx:hr>
          </gpxtpx:TrackPointExtension>
        </extensions>
      </trkpt>
      <trkpt lat="46.00288" lon="6.18428">
        <ele>558.8</ele>
        <time>2021-03-02T13:14:02Z</time>
        <extensions>
          <gpxtpx:TrackPointExtension xmlns:gpxtpx="http://www.garmin.com/xmlschemas/TrackPointExtension/v1">
            <gpxtpx:hr>105</gpxtpx:hr>
          </gpxtpx:TrackPointExtension>
        </extensions>
      </trkpt>
      <trkpt lat="46.00283" lon="6.18421">
        <ele>558.8</ele>
        <time>2021-03-02T13:14:03Z</time>
        <extensions>
          <gpxtpx:TrackPointExtension xmlns:gpxtpx="http://www.garmin.com/xmlschemas/TrackPointExtension/v1">
            <gpxtpx:hr>105</gpxtpx:hr>
          </gpxtpx:TrackPointExtension>
        </extensions>
      </trkpt>
      <trkpt lat="46.00277" lon="6.18414">
        <ele>558.7</ele>
        <time>2021-03-02T13:14:04Z</time>
        <extensions>
          <gpxtpx:TrackPointExtension xmlns:gpxtpx="http://www.garmin.com/xmlschemas/TrackPointExtension/v1">
            <gpxtpx:hr>104</gpxtpx:hr>
          </gpxtpx:TrackPointExtension>
        </extensions>
      </trkpt>
      <trkpt lat="46.00272" lon="6.18406">
        <ele>558.4</ele>
        <time>2021-03-02T13:14:05Z</time>
        <extensions>
          <gpxtpx:TrackPointExtension xmlns:gpxtpx="http://www.garmin.com/xmlschemas/TrackPointExtension/v1">
            <gpxtpx:hr>104</gpxtpx:hr>
          </gpxtpx:TrackPointExtension>
        </extensions>
      </trkpt>
      <trkpt lat="46.00266" lon="6.18399">
        <ele>558.2</ele>
        <time>2021-03-02T13:14:06Z</time>
        <extensions>
          <gpxtpx:TrackPointExtension xmlns:gpxtpx="http://www.garmin.com/xmlschemas/TrackPointExtension/v1">
            <gpxtpx:hr>103</gpxtpx:hr>
          </gpxtpx:TrackPointExtension>
        </extensions>
      </trkpt>
      <trkpt lat="46.00261" lon="6.18393">
        <ele>557.9</ele>
        <time>2021-03-02T13:14:07Z</time>
        <extensions>
          <gpxtpx:TrackPointExtension xmlns:gpxtpx="http://www.garmin.com/xmlschemas/TrackPointExtension/v1">
            <gpxtpx:hr>102</gpxtpx:hr>
          </gpxtpx:TrackPointExtension>
        </extensions>
      </trkpt>
      <trkpt lat="46.00255" lon="6.18386">
        <ele>557.6</ele>
        <time>2021-03-02T13:14:08Z</time>
        <extensions>
          <gpxtpx:TrackPointExtension xmlns:gpxtpx="http://www.garmin.com/xmlschemas/TrackPointExtension/v1">
            <gpxtpx:hr>102</gpxtpx:hr>
          </gpxtpx:TrackPointExtension>
        </extensions>
      </trkpt>
      <trkpt lat="46.0025" lon="6.18378">
        <ele>557.3</ele>
        <time>2021-03-02T13:14:09Z</time>
        <extensions>
          <gpxtpx:TrackPointExtension xmlns:gpxtpx="http://www.garmin.com/xmlschemas/TrackPointExtension/v1">
            <gpxtpx:hr>101</gpxtpx:hr>
          </gpxtpx:TrackPointExtension>
        </extensions>
      </trkpt>
      <trkpt lat="46.00244" lon="6.18371">
        <ele>556.9</ele>
        <time>2021-03-02T13:14:10Z</time>
        <extensions>
          <gpxtpx:TrackPointExtension xmlns:gpxtpx="http://www.garmin.com/xmlschemas/TrackPointExtension/v1">
            <gpxtpx:hr>101</gpxtpx:hr>
          </gpxtpx:TrackPointExtension>
        </extensions>
      </trkpt>
      <trkpt lat="46.00239" lon="6.18364">
        <ele>556.5</ele>
        <time>2021-03-02T13:14:11Z</time>
        <extensions>
          <gpxtpx:TrackPointExtension xmlns:gpxtpx="http://www.garmin.com/xmlschemas/TrackPointExtension/v1">
            <gpxtpx:hr>101</gpxtpx:hr>
          </gpxtpx:TrackPointExtension>
        </extensions>
      </trkpt>
      <trkpt lat="46.00233" lon="6.18358">
        <ele>556.2</ele>
        <time>2021-03-02T13:14:12Z</time>
        <extensions>
          <gpxtpx:TrackPointExtension xmlns:gpxtpx="http://www.garmin.com/xmlschemas/TrackPointExtension/v1">
            <gpxtpx:hr>101</gpxtpx:hr>
          </gpxtpx:TrackPointExtension>
        </extensions>
      </trkpt>
      <trkpt lat="46.00226" lon="6.18353">
        <ele>555.9</ele>
        <time>2021-03-02T13:14:13Z</time>
        <extensions>
          <gpxtpx:TrackPointExtension xmlns:gpxtpx="http://www.garmin.com/xmlschemas/TrackPointExtension/v1">
            <gpxtpx:hr>101</gpxtpx:hr>
          </gpxtpx:TrackPointExtension>
        </extensions>
      </trkpt>
      <trkpt lat="46.00219" lon="6.18348">
        <ele>555.5</ele>
        <time>2021-03-02T13:14:14Z</time>
        <extensions>
          <gpxtpx:TrackPointExtension xmlns:gpxtpx="http://www.garmin.com/xmlschemas/TrackPointExtension/v1">
            <gpxtpx:hr>101</gpxtpx:hr>
          </gpxtpx:TrackPointExtension>
        </extensions>
      </trkpt>
      <trkpt lat="46.00212" lon="6.18343">
        <ele>555.2</ele>
        <time>2021-03-02T13:14:15Z</time>
        <extensions>
          <gpxtpx:TrackPointExtension xmlns:gpxtpx="http://www.garmin.com/xmlschemas/TrackPointExtension/v1">
            <gpxtpx:hr>102</gpxtpx:hr>
          </gpxtpx:TrackPointExtension>
        </extensions>
      </trkpt>
      <trkpt lat="46.00206" lon="6.18337">
        <ele>554.9</ele>
        <time>2021-03-02T13:14:16Z</time>
        <extensions>
          <gpxtpx:TrackPointExtension xmlns:gpxtpx="http://www.garmin.com/xmlschemas/TrackPointExtension/v1">
            <gpxtpx:hr>101</gpxtpx:hr>
          </gpxtpx:TrackPointExtension>
        </extensions>
      </trkpt>
      <trkpt lat="46.00199" lon="6.18329">
        <ele>554.5</ele>
        <time>2021-03-02T13:14:17Z</time>
        <extensions>
          <gpxtpx:TrackPointExtension xmlns:gpxtpx="http://www.garmin.com/xmlschemas/TrackPointExtension/v1">
            <gpxtpx:hr>101</gpxtpx:hr>
          </gpxtpx:TrackPointExtension>
        </extensions>
      </trkpt>
      <trkpt lat="46.00194" lon="6.18321">
        <ele>554.2</ele>
        <time>2021-03-02T13:14:18Z</time>
        <extensions>
          <gpxtpx:TrackPointExtension xmlns:gpxtpx="http://www.garmin.com/xmlschemas/TrackPointExtension/v1">
            <gpxtpx:hr>101</gpxtpx:hr>
          </gpxtpx:TrackPointExtension>
        </extensions>
      </trkpt>
      <trkpt lat="46.00189" lon="6.18312">
        <ele>554</ele>
        <time>2021-03-02T13:14:19Z</time>
        <extensions>
          <gpxtpx:TrackPointExtension xmlns:gpxtpx="http://www.garmin.com/xmlschemas/TrackPointExtension/v1">
            <gpxtpx:hr>100</gpxtpx:hr>
          </gpxtpx:TrackPointExtension>
        </extensions>
      </trkpt>
      <trkpt lat="46.00185" lon="6.18302">
        <ele>553.8</ele>
        <time>2021-03-02T13:14:20Z</time>
        <extensions>
          <gpxtpx:TrackPointExtension xmlns:gpxtpx="http://www.garmin.com/xmlschemas/TrackPointExtension/v1">
            <gpxtpx:hr>100</gpxtpx:hr>
          </gpxtpx:TrackPointExtension>
        </extensions>
      </trkpt>
      <trkpt lat="46.0018" lon="6.18293">
        <ele>553.5</ele>
        <time>2021-03-02T13:14:21Z</time>
        <extensions>
          <gpxtpx:TrackPointExtension xmlns:gpxtpx="http://www.garmin.com/xmlschemas/TrackPointExtension/v1">
            <gpxtpx:hr>100</gpxtpx:hr>
          </gpxtpx:TrackPointExtension>
        </extensions>
      </trkpt>
      <trkpt lat="46.00176" lon="6.18284">
        <ele>553.4</ele>
        <time>2021-03-02T13:14:22Z</time>
        <extensions>
          <gpxtpx:TrackPointExtension xmlns:gpxtpx="http://www.garmin.com/xmlschemas/TrackPointExtension/v1">
            <gpxtpx:hr>101</gpxtpx:hr>
          </gpxtpx:TrackPointExtension>
        </extensions>
      </trkpt>
      <trkpt lat="46.00172" lon="6.18275">
        <ele>553.2</ele>
        <time>2021-03-02T13:14:23Z</time>
        <extensions>
          <gpxtpx:TrackPointExtension xmlns:gpxtpx="http://www.garmin.com/xmlschemas/TrackPointExtension/v1">
            <gpxtpx:hr>101</gpxtpx:hr>
          </gpxtpx:TrackPointExtension>
        </extensions>
      </trkpt>
      <trkpt lat="46.00167" lon="6.18266">
        <ele>553</ele>
        <time>2021-03-02T13:14:24Z</time>
        <extensions>
          <gpxtpx:TrackPointExtension xmlns:gpxtpx="http://www.garmin.com/xmlschemas/TrackPointExtension/v1">
            <gpxtpx:hr>101</gpxtpx:hr>
          </gpxtpx:TrackPointExtension>
        </extensions>
      </trkpt>
      <trkpt lat="46.00162" lon="6.18257">
        <ele>552.9</ele>
        <time>2021-03-02T13:14:25Z</time>
        <extensions>
          <gpxtpx:TrackPointExtension xmlns:gpxtpx="http://www.garmin.com/xmlschemas/TrackPointExtension/v1">
            <gpxtpx:hr>101</gpxtpx:hr>
          </gpxtpx:TrackPointExtension>
        </extensions>
      </trkpt>
      <trkpt lat="46.00157" lon="6.18248">
        <ele>552.8</ele>
        <time>2021-03-02T13:14:26Z</time>
        <extensions>
          <gpxtpx:TrackPointExtension xmlns:gpxtpx="http://www.garmin.com/xmlschemas/TrackPointExtension/v1">
            <gpxtpx:hr>101</gpxtpx:hr>
          </gpxtpx:TrackPointExtension>
        </extensions>
      </trkpt>
      <trkpt lat="46.00151" lon="6.1824">
        <ele>552.7</ele>
        <time>2021-03-02T13:14:27Z</time>
        <extensions>
          <gpxtpx:TrackPointExtension xmlns:gpxtpx="http://www.garmin.com/xmlschemas/TrackPointExtension/v1">
            <gpxtpx:hr>101</gpxtpx:hr>
          </gpxtpx:TrackPointExtension>
        </extensions>
      </trkpt>
      <trkpt lat="46.00146" lon="6.18231">
        <ele>552.6</ele>
        <time>2021-03-02T13:14:28Z</time>
        <extensions>
          <gpxtpx:TrackPointExtension xmlns:gpxtpx="http://www.garmin.com/xmlschemas/TrackPointExtension/v1">
            <gpxtpx:hr>101</gpxtpx:hr>
          </gpxtpx:TrackPointExtension>
        </extensions>
      </trkpt>
      <trkpt lat="46.0014" lon="6.18222">
        <ele>552.6</ele>
        <time>2021-03-02T13:14:29Z</time>
        <extensions>
          <gpxtpx:TrackPointExtension xmlns:gpxtpx="http://www.garmin.com/xmlschemas/TrackPointExtension/v1">
            <gpxtpx:hr>101</gpxtpx:hr>
          </gpxtpx:TrackPointExtension>
        </extensions>
      </trkpt>
      <trkpt lat="46.00134" lon="6.18214">
        <ele>552.5</ele>
        <time>2021-03-02T13:14:30Z</time>
        <extensions>
          <gpxtpx:TrackPointExtension xmlns:gpxtpx="http://www.garmin.com/xmlschemas/TrackPointExtension/v1">
            <gpxtpx:hr>102</gpxtpx:hr>
          </gpxtpx:TrackPointExtension>
        </extensions>
      </trkpt>
      <trkpt lat="46.00128" lon="6.18205">
        <ele>552.5</ele>
        <time>2021-03-02T13:14:31Z</time>
        <extensions>
          <gpxtpx:TrackPointExtension xmlns:gpxtpx="http://www.garmin.com/xmlschemas/TrackPointExtension/v1">
            <gpxtpx:hr>102</gpxtpx:hr>
          </gpxtpx:TrackPointExtension>
        </extensions>
      </trkpt>
      <trkpt lat="46.00122" lon="6.18197">
        <ele>552.4</ele>
        <time>2021-03-02T13:14:32Z</time>
        <extensions>
          <gpxtpx:TrackPointExtension xmlns:gpxtpx="http://www.garmin.com/xmlschemas/TrackPointExtension/v1">
            <gpxtpx:hr>104</gpxtpx:hr>
          </gpxtpx:TrackPointExtension>
        </extensions>
      </trkpt>
      <trkpt lat="46.00116" lon="6.18188">
        <ele>552.3</ele>
        <time>2021-03-02T13:14:33Z</time>
        <extensions>
          <gpxtpx:TrackPointExtension xmlns:gpxtpx="http://www.garmin.com/xmlschemas/TrackPointExtension/v1">
            <gpxtpx:hr>106</gpxtpx:hr>
          </gpxtpx:TrackPointExtension>
        </extensions>
      </trkpt>
      <trkpt lat="46.0011" lon="6.1818">
        <ele>552.2</ele>
        <time>2021-03-02T13:14:34Z</time>
        <extensions>
          <gpxtpx:TrackPointExtension xmlns:gpxtpx="http://www.garmin.com/xmlschemas/TrackPointExtension/v1">
            <gpxtpx:hr>108</gpxtpx:hr>
          </gpxtpx:TrackPointExtension>
        </extensions>
      </trkpt>
      <trkpt lat="46.00104" lon="6.18172">
        <ele>552.1</ele>
        <time>2021-03-02T13:14:35Z</time>
        <extensions>
          <gpxtpx:TrackPointExtension xmlns:gpxtpx="http://www.garmin.com/xmlschemas/TrackPointExtension/v1">
            <gpxtpx:hr>109</gpxtpx:hr>
          </gpxtpx:TrackPointExtension>
        </extensions>
      </trkpt>
      <trkpt lat="46.00098" lon="6.18163">
        <ele>552</ele>
        <time>2021-03-02T13:14:36Z</time>
        <extensions>
          <gpxtpx:TrackPointExtension xmlns:gpxtpx="http://www.garmin.com/xmlschemas/TrackPointExtension/v1">
            <gpxtpx:hr>110</gpxtpx:hr>
          </gpxtpx:TrackPointExtension>
        </extensions>
      </trkpt>
      <trkpt lat="46.00092" lon="6.18155">
        <ele>551.9</ele>
        <time>2021-03-02T13:14:37Z</time>
        <extensions>
          <gpxtpx:TrackPointExtension xmlns:gpxtpx="http://www.garmin.com/xmlschemas/TrackPointExtension/v1">
            <gpxtpx:hr>110</gpxtpx:hr>
          </gpxtpx:TrackPointExtension>
        </extensions>
      </trkpt>
      <trkpt lat="46.00086" lon="6.18148">
        <ele>551.8</ele>
        <time>2021-03-02T13:14:38Z</time>
        <extensions>
          <gpxtpx:TrackPointExtension xmlns:gpxtpx="http://www.garmin.com/xmlschemas/TrackPointExtension/v1">
            <gpxtpx:hr>110</gpxtpx:hr>
          </gpxtpx:TrackPointExtension>
        </extensions>
      </trkpt>
      <trkpt lat="46.00079" lon="6.1814">
        <ele>551.7</ele>
        <time>2021-03-02T13:14:39Z</time>
        <extensions>
          <gpxtpx:TrackPointExtension xmlns:gpxtpx="http://www.garmin.com/xmlschemas/TrackPointExtension/v1">
            <gpxtpx:hr>110</gpxtpx:hr>
          </gpxtpx:TrackPointExtension>
        </extensions>
      </trkpt>
      <trkpt lat="46.00073" lon="6.18131">
        <ele>551.6</ele>
        <time>2021-03-02T13:14:40Z</time>
        <extensions>
          <gpxtpx:TrackPointExtension xmlns:gpxtpx="http://www.garmin.com/xmlschemas/TrackPointExtension/v1">
            <gpxtpx:hr>110</gpxtpx:hr>
          </gpxtpx:TrackPointExtension>
        </extensions>
      </trkpt>
      <trkpt lat="46.00066" lon="6.18123">
        <ele>551.5</ele>
        <time>2021-03-02T13:14:41Z</time>
        <extensions>
          <gpxtpx:TrackPointExtension xmlns:gpxtpx="http://www.garmin.com/xmlschemas/TrackPointExtension/v1">
            <gpxtpx:hr>110</gpxtpx:hr>
          </gpxtpx:TrackPointExtension>
        </extensions>
      </trkpt>
      <trkpt lat="46.00059" lon="6.18115">
        <ele>551.3</ele>
        <time>2021-03-02T13:14:42Z</time>
        <extensions>
          <gpxtpx:TrackPointExtension xmlns:gpxtpx="http://www.garmin.com/xmlschemas/TrackPointExtension/v1">
            <gpxtpx:hr>109</gpxtpx:hr>
          </gpxtpx:TrackPointExtension>
        </extensions>
      </trkpt>
      <trkpt lat="46.00053" lon="6.18107">
        <ele>551.1</ele>
        <time>2021-03-02T13:14:43Z</time>
        <extensions>
          <gpxtpx:TrackPointExtension xmlns:gpxtpx="http://www.garmin.com/xmlschemas/TrackPointExtension/v1">
            <gpxtpx:hr>109</gpxtpx:hr>
          </gpxtpx:TrackPointExtension>
        </extensions>
      </trkpt>
      <trkpt lat="46.00046" lon="6.18098">
        <ele>551</ele>
        <time>2021-03-02T13:14:44Z</time>
        <extensions>
          <gpxtpx:TrackPointExtension xmlns:gpxtpx="http://www.garmin.com/xmlschemas/TrackPointExtension/v1">
            <gpxtpx:hr>108</gpxtpx:hr>
          </gpxtpx:TrackPointExtension>
        </extensions>
      </trkpt>
      <trkpt lat="46.0004" lon="6.1809">
        <ele>550.8</ele>
        <time>2021-03-02T13:14:45Z</time>
        <extensions>
          <gpxtpx:TrackPointExtension xmlns:gpxtpx="http://www.garmin.com/xmlschemas/TrackPointExtension/v1">
            <gpxtpx:hr>108</gpxtpx:hr>
          </gpxtpx:TrackPointExtension>
        </extensions>
      </trkpt>
      <trkpt lat="46.00033" lon="6.18082">
        <ele>550.7</ele>
        <time>2021-03-02T13:14:46Z</time>
        <extensions>
          <gpxtpx:TrackPointExtension xmlns:gpxtpx="http://www.garmin.com/xmlschemas/TrackPointExtension/v1">
            <gpxtpx:hr>106</gpxtpx:hr>
          </gpxtpx:TrackPointExtension>
        </extensions>
      </trkpt>
      <trkpt lat="46.00027" lon="6.18073">
        <ele>550.5</ele>
        <time>2021-03-02T13:14:47Z</time>
        <extensions>
          <gpxtpx:TrackPointExtension xmlns:gpxtpx="http://www.garmin.com/xmlschemas/TrackPointExtension/v1">
            <gpxtpx:hr>104</gpxtpx:hr>
          </gpxtpx:TrackPointExtension>
        </extensions>
      </trkpt>
      <trkpt lat="46.00021" lon="6.18065">
        <ele>550.3</ele>
        <time>2021-03-02T13:14:48Z</time>
        <extensions>
          <gpxtpx:TrackPointExtension xmlns:gpxtpx="http://www.garmin.com/xmlschemas/TrackPointExtension/v1">
            <gpxtpx:hr>103</gpxtpx:hr>
          </gpxtpx:TrackPointExtension>
        </extensions>
      </trkpt>
      <trkpt lat="46.00015" lon="6.18056">
        <ele>550.2</ele>
        <time>2021-03-02T13:14:49Z</time>
        <extensions>
          <gpxtpx:TrackPointExtension xmlns:gpxtpx="http://www.garmin.com/xmlschemas/TrackPointExtension/v1">
            <gpxtpx:hr>102</gpxtpx:hr>
          </gpxtpx:TrackPointExtension>
        </extensions>
      </trkpt>
      <trkpt lat="46.00009" lon="6.18046">
        <ele>550</ele>
        <time>2021-03-02T13:14:50Z</time>
        <extensions>
          <gpxtpx:TrackPointExtension xmlns:gpxtpx="http://www.garmin.com/xmlschemas/TrackPointExtension/v1">
            <gpxtpx:hr>103</gpxtpx:hr>
          </gpxtpx:TrackPointExtension>
        </extensions>
      </trkpt>
      <trkpt lat="46.00005" lon="6.18036">
        <ele>549.9</ele>
        <time>2021-03-02T13:14:51Z</time>
        <extensions>
          <gpxtpx:TrackPointExtension xmlns:gpxtpx="http://www.garmin.com/xmlschemas/TrackPointExtension/v1">
            <gpxtpx:hr>103</gpxtpx:hr>
          </gpxtpx:TrackPointExtension>
        </extensions>
      </trkpt>
      <trkpt lat="46.00001" lon="6.18025">
        <ele>550.1</ele>
        <time>2021-03-02T13:14:52Z</time>
        <extensions>
          <gpxtpx:TrackPointExtension xmlns:gpxtpx="http://www.garmin.com/xmlschemas/TrackPointExtension/v1">
            <gpxtpx:hr>103</gpxtpx:hr>
          </gpxtpx:TrackPointExtension>
        </extensions>
      </trkpt>
      <trkpt lat="45.99999" lon="6.18015">
        <ele>550.3</ele>
        <time>2021-03-02T13:14:53Z</time>
        <extensions>
          <gpxtpx:TrackPointExtension xmlns:gpxtpx="http://www.garmin.com/xmlschemas/TrackPointExtension/v1">
            <gpxtpx:hr>103</gpxtpx:hr>
          </gpxtpx:TrackPointExtension>
        </extensions>
      </trkpt>
      <trkpt lat="45.99996" lon="6.18007">
        <ele>550.2</ele>
        <time>2021-03-02T13:14:54Z</time>
        <extensions>
          <gpxtpx:TrackPointExtension xmlns:gpxtpx="http://www.garmin.com/xmlschemas/TrackPointExtension/v1">
            <gpxtpx:hr>103</gpxtpx:hr>
          </gpxtpx:TrackPointExtension>
        </extensions>
      </trkpt>
      <trkpt lat="45.99991" lon="6.18">
        <ele>550</ele>
        <time>2021-03-02T13:14:55Z</time>
        <extensions>
          <gpxtpx:TrackPointExtension xmlns:gpxtpx="http://www.garmin.com/xmlschemas/TrackPointExtension/v1">
            <gpxtpx:hr>102</gpxtpx:hr>
          </gpxtpx:TrackPointExtension>
        </extensions>
      </trkpt>
      <trkpt lat="45.99985" lon="6.17999">
        <ele>549.7</ele>
        <time>2021-03-02T13:14:56Z</time>
        <extensions>
          <gpxtpx:TrackPointExtension xmlns:gpxtpx="http://www.garmin.com/xmlschemas/TrackPointExtension/v1">
            <gpxtpx:hr>102</gpxtpx:hr>
          </gpxtpx:TrackPointExtension>
        </extensions>
      </trkpt>
      <trkpt lat="45.99979" lon="6.18004">
        <ele>549.3</ele>
        <time>2021-03-02T13:14:57Z</time>
        <extensions>
          <gpxtpx:TrackPointExtension xmlns:gpxtpx="http://www.garmin.com/xmlschemas/TrackPointExtension/v1">
            <gpxtpx:hr>102</gpxtpx:hr>
          </gpxtpx:TrackPointExtension>
        </extensions>
      </trkpt>
      <trkpt lat="45.99975" lon="6.18012">
        <ele>549.2</ele>
        <time>2021-03-02T13:14:58Z</time>
        <extensions>
          <gpxtpx:TrackPointExtension xmlns:gpxtpx="http://www.garmin.com/xmlschemas/TrackPointExtension/v1">
            <gpxtpx:hr>102</gpxtpx:hr>
          </gpxtpx:TrackPointExtension>
        </extensions>
      </trkpt>
      <trkpt lat="45.99972" lon="6.18021">
        <ele>549.1</ele>
        <time>2021-03-02T13:14:59Z</time>
        <extensions>
          <gpxtpx:TrackPointExtension xmlns:gpxtpx="http://www.garmin.com/xmlschemas/TrackPointExtension/v1">
            <gpxtpx:hr>102</gpxtpx:hr>
          </gpxtpx:TrackPointExtension>
        </extensions>
      </trkpt>
      <trkpt lat="45.99968" lon="6.18029">
        <ele>548.9</ele>
        <time>2021-03-02T13:15:00Z</time>
        <extensions>
          <gpxtpx:TrackPointExtension xmlns:gpxtpx="http://www.garmin.com/xmlschemas/TrackPointExtension/v1">
            <gpxtpx:hr>102</gpxtpx:hr>
          </gpxtpx:TrackPointExtension>
        </extensions>
      </trkpt>
      <trkpt lat="45.99963" lon="6.18035">
        <ele>548.8</ele>
        <time>2021-03-02T13:15:01Z</time>
        <extensions>
          <gpxtpx:TrackPointExtension xmlns:gpxtpx="http://www.garmin.com/xmlschemas/TrackPointExtension/v1">
            <gpxtpx:hr>102</gpxtpx:hr>
          </gpxtpx:TrackPointExtension>
        </extensions>
      </trkpt>
      <trkpt lat="45.99957" lon="6.1804">
        <ele>548.7</ele>
        <time>2021-03-02T13:15:02Z</time>
        <extensions>
          <gpxtpx:TrackPointExtension xmlns:gpxtpx="http://www.garmin.com/xmlschemas/TrackPointExtension/v1">
            <gpxtpx:hr>101</gpxtpx:hr>
          </gpxtpx:TrackPointExtension>
        </extensions>
      </trkpt>
      <trkpt lat="45.9995" lon="6.18043">
        <ele>548.5</ele>
        <time>2021-03-02T13:15:03Z</time>
        <extensions>
          <gpxtpx:TrackPointExtension xmlns:gpxtpx="http://www.garmin.com/xmlschemas/TrackPointExtension/v1">
            <gpxtpx:hr>101</gpxtpx:hr>
          </gpxtpx:TrackPointExtension>
        </extensions>
      </trkpt>
      <trkpt lat="45.99943" lon="6.18046">
        <ele>548.4</ele>
        <time>2021-03-02T13:15:04Z</time>
        <extensions>
          <gpxtpx:TrackPointExtension xmlns:gpxtpx="http://www.garmin.com/xmlschemas/TrackPointExtension/v1">
            <gpxtpx:hr>101</gpxtpx:hr>
          </gpxtpx:TrackPointExtension>
        </extensions>
      </trkpt>
      <trkpt lat="45.99936" lon="6.18048">
        <ele>548.2</ele>
        <time>2021-03-02T13:15:05Z</time>
        <extensions>
          <gpxtpx:TrackPointExtension xmlns:gpxtpx="http://www.garmin.com/xmlschemas/TrackPointExtension/v1">
            <gpxtpx:hr>101</gpxtpx:hr>
          </gpxtpx:TrackPointExtension>
        </extensions>
      </trkpt>
      <trkpt lat="45.99929" lon="6.18049">
        <ele>548.1</ele>
        <time>2021-03-02T13:15:06Z</time>
        <extensions>
          <gpxtpx:TrackPointExtension xmlns:gpxtpx="http://www.garmin.com/xmlschemas/TrackPointExtension/v1">
            <gpxtpx:hr>101</gpxtpx:hr>
          </gpxtpx:TrackPointExtension>
        </extensions>
      </trkpt>
      <trkpt lat="45.99922" lon="6.18049">
        <ele>547.9</ele>
        <time>2021-03-02T13:15:07Z</time>
        <extensions>
          <gpxtpx:TrackPointExtension xmlns:gpxtpx="http://www.garmin.com/xmlschemas/TrackPointExtension/v1">
            <gpxtpx:hr>101</gpxtpx:hr>
          </gpxtpx:TrackPointExtension>
        </extensions>
      </trkpt>
      <trkpt lat="45.99914" lon="6.1805">
        <ele>547.6</ele>
        <time>2021-03-02T13:15:08Z</time>
        <extensions>
          <gpxtpx:TrackPointExtension xmlns:gpxtpx="http://www.garmin.com/xmlschemas/TrackPointExtension/v1">
            <gpxtpx:hr>101</gpxtpx:hr>
          </gpxtpx:TrackPointExtension>
        </extensions>
      </trkpt>
      <trkpt lat="45.99907" lon="6.18049">
        <ele>547.4</ele>
        <time>2021-03-02T13:15:09Z</time>
        <extensions>
          <gpxtpx:TrackPointExtension xmlns:gpxtpx="http://www.garmin.com/xmlschemas/TrackPointExtension/v1">
            <gpxtpx:hr>101</gpxtpx:hr>
          </gpxtpx:TrackPointExtension>
        </extensions>
      </trkpt>
      <trkpt lat="45.999" lon="6.18049">
        <ele>547.2</ele>
        <time>2021-03-02T13:15:10Z</time>
        <extensions>
          <gpxtpx:TrackPointExtension xmlns:gpxtpx="http://www.garmin.com/xmlschemas/TrackPointExtension/v1">
            <gpxtpx:hr>101</gpxtpx:hr>
          </gpxtpx:TrackPointExtension>
        </extensions>
      </trkpt>
      <trkpt lat="45.99892" lon="6.18047">
        <ele>547</ele>
        <time>2021-03-02T13:15:11Z</time>
        <extensions>
          <gpxtpx:TrackPointExtension xmlns:gpxtpx="http://www.garmin.com/xmlschemas/TrackPointExtension/v1">
            <gpxtpx:hr>101</gpxtpx:hr>
          </gpxtpx:TrackPointExtension>
        </extensions>
      </trkpt>
      <trkpt lat="45.99885" lon="6.18046">
        <ele>546.9</ele>
        <time>2021-03-02T13:15:12Z</time>
        <extensions>
          <gpxtpx:TrackPointExtension xmlns:gpxtpx="http://www.garmin.com/xmlschemas/TrackPointExtension/v1">
            <gpxtpx:hr>101</gpxtpx:hr>
          </gpxtpx:TrackPointExtension>
        </extensions>
      </trkpt>
      <trkpt lat="45.99878" lon="6.18046">
        <ele>546.8</ele>
        <time>2021-03-02T13:15:13Z</time>
        <extensions>
          <gpxtpx:TrackPointExtension xmlns:gpxtpx="http://www.garmin.com/xmlschemas/TrackPointExtension/v1">
            <gpxtpx:hr>101</gpxtpx:hr>
          </gpxtpx:TrackPointExtension>
        </extensions>
      </trkpt>
      <trkpt lat="45.99871" lon="6.18047">
        <ele>546.7</ele>
        <time>2021-03-02T13:15:14Z</time>
        <extensions>
          <gpxtpx:TrackPointExtension xmlns:gpxtpx="http://www.garmin.com/xmlschemas/TrackPointExtension/v1">
            <gpxtpx:hr>102</gpxtpx:hr>
          </gpxtpx:TrackPointExtension>
        </extensions>
      </trkpt>
      <trkpt lat="45.99864" lon="6.1805">
        <ele>546.7</ele>
        <time>2021-03-02T13:15:15Z</time>
        <extensions>
          <gpxtpx:TrackPointExtension xmlns:gpxtpx="http://www.garmin.com/xmlschemas/TrackPointExtension/v1">
            <gpxtpx:hr>102</gpxtpx:hr>
          </gpxtpx:TrackPointExtension>
        </extensions>
      </trkpt>
      <trkpt lat="45.99858" lon="6.18055">
        <ele>546.7</ele>
        <time>2021-03-02T13:15:16Z</time>
        <extensions>
          <gpxtpx:TrackPointExtension xmlns:gpxtpx="http://www.garmin.com/xmlschemas/TrackPointExtension/v1">
            <gpxtpx:hr>102</gpxtpx:hr>
          </gpxtpx:TrackPointExtension>
        </extensions>
      </trkpt>
      <trkpt lat="45.99852" lon="6.18061">
        <ele>546.6</ele>
        <time>2021-03-02T13:15:17Z</time>
        <extensions>
          <gpxtpx:TrackPointExtension xmlns:gpxtpx="http://www.garmin.com/xmlschemas/TrackPointExtension/v1">
            <gpxtpx:hr>102</gpxtpx:hr>
          </gpxtpx:TrackPointExtension>
        </extensions>
      </trkpt>
      <trkpt lat="45.99847" lon="6.18068">
        <ele>546.6</ele>
        <time>2021-03-02T13:15:18Z</time>
        <extensions>
          <gpxtpx:TrackPointExtension xmlns:gpxtpx="http://www.garmin.com/xmlschemas/TrackPointExtension/v1">
            <gpxtpx:hr>102</gpxtpx:hr>
          </gpxtpx:TrackPointExtension>
        </extensions>
      </trkpt>
      <trkpt lat="45.99843" lon="6.18076">
        <ele>546.6</ele>
        <time>2021-03-02T13:15:19Z</time>
        <extensions>
          <gpxtpx:TrackPointExtension xmlns:gpxtpx="http://www.garmin.com/xmlschemas/TrackPointExtension/v1">
            <gpxtpx:hr>102</gpxtpx:hr>
          </gpxtpx:TrackPointExtension>
        </extensions>
      </trkpt>
      <trkpt lat="45.99839" lon="6.18084">
        <ele>546.6</ele>
        <time>2021-03-02T13:15:20Z</time>
        <extensions>
          <gpxtpx:TrackPointExtension xmlns:gpxtpx="http://www.garmin.com/xmlschemas/TrackPointExtension/v1">
            <gpxtpx:hr>102</gpxtpx:hr>
          </gpxtpx:TrackPointExtension>
        </extensions>
      </trkpt>
      <trkpt lat="45.99834" lon="6.18091">
        <ele>546.7</ele>
        <time>2021-03-02T13:15:21Z</time>
        <extensions>
          <gpxtpx:TrackPointExtension xmlns:gpxtpx="http://www.garmin.com/xmlschemas/TrackPointExtension/v1">
            <gpxtpx:hr>102</gpxtpx:hr>
          </gpxtpx:TrackPointExtension>
        </extensions>
      </trkpt>
      <trkpt lat="45.9983" lon="6.18099">
        <ele>546.7</ele>
        <time>2021-03-02T13:15:22Z</time>
        <extensions>
          <gpxtpx:TrackPointExtension xmlns:gpxtpx="http://www.garmin.com/xmlschemas/TrackPointExtension/v1">
            <gpxtpx:hr>102</gpxtpx:hr>
          </gpxtpx:TrackPointExtension>
        </extensions>
      </trkpt>
      <trkpt lat="45.99826" lon="6.18107">
        <ele>546.8</ele>
        <time>2021-03-02T13:15:23Z</time>
        <extensions>
          <gpxtpx:TrackPointExtension xmlns:gpxtpx="http://www.garmin.com/xmlschemas/TrackPointExtension/v1">
            <gpxtpx:hr>102</gpxtpx:hr>
          </gpxtpx:TrackPointExtension>
        </extensions>
      </trkpt>
      <trkpt lat="45.99823" lon="6.18114">
        <ele>547</ele>
        <time>2021-03-02T13:15:24Z</time>
        <extensions>
          <gpxtpx:TrackPointExtension xmlns:gpxtpx="http://www.garmin.com/xmlschemas/TrackPointExtension/v1">
            <gpxtpx:hr>101</gpxtpx:hr>
          </gpxtpx:TrackPointExtension>
        </extensions>
      </trkpt>
      <trkpt lat="45.99819" lon="6.18122">
        <ele>547.2</ele>
        <time>2021-03-02T13:15:25Z</time>
        <extensions>
          <gpxtpx:TrackPointExtension xmlns:gpxtpx="http://www.garmin.com/xmlschemas/TrackPointExtension/v1">
            <gpxtpx:hr>101</gpxtpx:hr>
          </gpxtpx:TrackPointExtension>
        </extensions>
      </trkpt>
      <trkpt lat="45.99815" lon="6.1813">
        <ele>547.4</ele>
        <time>2021-03-02T13:15:26Z</time>
        <extensions>
          <gpxtpx:TrackPointExtension xmlns:gpxtpx="http://www.garmin.com/xmlschemas/TrackPointExtension/v1">
            <gpxtpx:hr>100</gpxtpx:hr>
          </gpxtpx:TrackPointExtension>
        </extensions>
      </trkpt>
      <trkpt lat="45.99812" lon="6.18137">
        <ele>547.6</ele>
        <time>2021-03-02T13:15:27Z</time>
        <extensions>
          <gpxtpx:TrackPointExtension xmlns:gpxtpx="http://www.garmin.com/xmlschemas/TrackPointExtension/v1">
            <gpxtpx:hr>99</gpxtpx:hr>
          </gpxtpx:TrackPointExtension>
        </extensions>
      </trkpt>
      <trkpt lat="45.99809" lon="6.18145">
        <ele>547.7</ele>
        <time>2021-03-02T13:15:28Z</time>
        <extensions>
          <gpxtpx:TrackPointExtension xmlns:gpxtpx="http://www.garmin.com/xmlschemas/TrackPointExtension/v1">
            <gpxtpx:hr>97</gpxtpx:hr>
          </gpxtpx:TrackPointExtension>
        </extensions>
      </trkpt>
      <trkpt lat="45.99807" lon="6.18152">
        <ele>547.7</ele>
        <time>2021-03-02T13:15:29Z</time>
        <extensions>
          <gpxtpx:TrackPointExtension xmlns:gpxtpx="http://www.garmin.com/xmlschemas/TrackPointExtension/v1">
            <gpxtpx:hr>96</gpxtpx:hr>
          </gpxtpx:TrackPointExtension>
        </extensions>
      </trkpt>
      <trkpt lat="45.99805" lon="6.18159">
        <ele>548</ele>
        <time>2021-03-02T13:15:30Z</time>
        <extensions>
          <gpxtpx:TrackPointExtension xmlns:gpxtpx="http://www.garmin.com/xmlschemas/TrackPointExtension/v1">
            <gpxtpx:hr>93</gpxtpx:hr>
          </gpxtpx:TrackPointExtension>
        </extensions>
      </trkpt>
      <trkpt lat="45.99803" lon="6.18166">
        <ele>548.3</ele>
        <time>2021-03-02T13:15:31Z</time>
        <extensions>
          <gpxtpx:TrackPointExtension xmlns:gpxtpx="http://www.garmin.com/xmlschemas/TrackPointExtension/v1">
            <gpxtpx:hr>90</gpxtpx:hr>
          </gpxtpx:TrackPointExtension>
        </extensions>
      </trkpt>
      <trkpt lat="45.99801" lon="6.18172">
        <ele>548.7</ele>
        <time>2021-03-02T13:15:32Z</time>
        <extensions>
          <gpxtpx:TrackPointExtension xmlns:gpxtpx="http://www.garmin.com/xmlschemas/TrackPointExtension/v1">
            <gpxtpx:hr>91</gpxtpx:hr>
          </gpxtpx:TrackPointExtension>
        </extensions>
      </trkpt>
      <trkpt lat="45.998" lon="6.18178">
        <ele>549</ele>
        <time>2021-03-02T13:15:33Z</time>
        <extensions>
          <gpxtpx:TrackPointExtension xmlns:gpxtpx="http://www.garmin.com/xmlschemas/TrackPointExtension/v1">
            <gpxtpx:hr>91</gpxtpx:hr>
          </gpxtpx:TrackPointExtension>
        </extensions>
      </trkpt>
      <trkpt lat="45.99799" lon="6.18184">
        <ele>549.3</ele>
        <time>2021-03-02T13:15:34Z</time>
        <extensions>
          <gpxtpx:TrackPointExtension xmlns:gpxtpx="http://www.garmin.com/xmlschemas/TrackPointExtension/v1">
            <gpxtpx:hr>91</gpxtpx:hr>
          </gpxtpx:TrackPointExtension>
        </extensions>
      </trkpt>
      <trkpt lat="45.99797" lon="6.18189">
        <ele>549.7</ele>
        <time>2021-03-02T13:15:35Z</time>
        <extensions>
          <gpxtpx:TrackPointExtension xmlns:gpxtpx="http://www.garmin.com/xmlschemas/TrackPointExtension/v1">
            <gpxtpx:hr>91</gpxtpx:hr>
          </gpxtpx:TrackPointExtension>
        </extensions>
      </trkpt>
      <trkpt lat="45.99796" lon="6.18194">
        <ele>550</ele>
        <time>2021-03-02T13:15:36Z</time>
        <extensions>
          <gpxtpx:TrackPointExtension xmlns:gpxtpx="http://www.garmin.com/xmlschemas/TrackPointExtension/v1">
            <gpxtpx:hr>91</gpxtpx:hr>
          </gpxtpx:TrackPointExtension>
        </extensions>
      </trkpt>
      <trkpt lat="45.99795" lon="6.18199">
        <ele>550.3</ele>
        <time>2021-03-02T13:15:37Z</time>
        <extensions>
          <gpxtpx:TrackPointExtension xmlns:gpxtpx="http://www.garmin.com/xmlschemas/TrackPointExtension/v1">
            <gpxtpx:hr>92</gpxtpx:hr>
          </gpxtpx:TrackPointExtension>
        </extensions>
      </trkpt>
      <trkpt lat="45.99794" lon="6.18204">
        <ele>550.6</ele>
        <time>2021-03-02T13:15:38Z</time>
        <extensions>
          <gpxtpx:TrackPointExtension xmlns:gpxtpx="http://www.garmin.com/xmlschemas/TrackPointExtension/v1">
            <gpxtpx:hr>92</gpxtpx:hr>
          </gpxtpx:TrackPointExtension>
        </extensions>
      </trkpt>
      <trkpt lat="45.99793" lon="6.18208">
        <ele>550.9</ele>
        <time>2021-03-02T13:15:39Z</time>
        <extensions>
          <gpxtpx:TrackPointExtension xmlns:gpxtpx="http://www.garmin.com/xmlschemas/TrackPointExtension/v1">
            <gpxtpx:hr>92</gpxtpx:hr>
          </gpxtpx:TrackPointExtension>
        </extensions>
      </trkpt>
      <trkpt lat="45.99792" lon="6.18213">
        <ele>551.2</ele>
        <time>2021-03-02T13:15:40Z</time>
        <extensions>
          <gpxtpx:TrackPointExtension xmlns:gpxtpx="http://www.garmin.com/xmlschemas/TrackPointExtension/v1">
            <gpxtpx:hr>92</gpxtpx:hr>
          </gpxtpx:TrackPointExtension>
        </extensions>
      </trkpt>
      <trkpt lat="45.9979" lon="6.18218">
        <ele>551.4</ele>
        <time>2021-03-02T13:15:41Z</time>
        <extensions>
          <gpxtpx:TrackPointExtension xmlns:gpxtpx="http://www.garmin.com/xmlschemas/TrackPointExtension/v1">
            <gpxtpx:hr>92</gpxtpx:hr>
          </gpxtpx:TrackPointExtension>
        </extensions>
      </trkpt>
      <trkpt lat="45.99789" lon="6.18222">
        <ele>551.7</ele>
        <time>2021-03-02T13:15:42Z</time>
        <extensions>
          <gpxtpx:TrackPointExtension xmlns:gpxtpx="http://www.garmin.com/xmlschemas/TrackPointExtension/v1">
            <gpxtpx:hr>92</gpxtpx:hr>
          </gpxtpx:TrackPointExtension>
        </extensions>
      </trkpt>
      <trkpt lat="45.99788" lon="6.18227">
        <ele>552</ele>
        <time>2021-03-02T13:15:43Z</time>
        <extensions>
          <gpxtpx:TrackPointExtension xmlns:gpxtpx="http://www.garmin.com/xmlschemas/TrackPointExtension/v1">
            <gpxtpx:hr>93</gpxtpx:hr>
          </gpxtpx:TrackPointExtension>
        </extensions>
      </trkpt>
      <trkpt lat="45.99786" lon="6.18232">
        <ele>552.3</ele>
        <time>2021-03-02T13:15:44Z</time>
        <extensions>
          <gpxtpx:TrackPointExtension xmlns:gpxtpx="http://www.garmin.com/xmlschemas/TrackPointExtension/v1">
            <gpxtpx:hr>93</gpxtpx:hr>
          </gpxtpx:TrackPointExtension>
        </extensions>
      </trkpt>
      <trkpt lat="45.99785" lon="6.18236">
        <ele>552.6</ele>
        <time>2021-03-02T13:15:45Z</time>
        <extensions>
          <gpxtpx:TrackPointExtension xmlns:gpxtpx="http://www.garmin.com/xmlschemas/TrackPointExtension/v1">
            <gpxtpx:hr>93</gpxtpx:hr>
          </gpxtpx:TrackPointExtension>
        </extensions>
      </trkpt>
      <trkpt lat="45.99783" lon="6.18241">
        <ele>552.9</ele>
        <time>2021-03-02T13:15:46Z</time>
        <extensions>
          <gpxtpx:TrackPointExtension xmlns:gpxtpx="http://www.garmin.com/xmlschemas/TrackPointExtension/v1">
            <gpxtpx:hr>93</gpxtpx:hr>
          </gpxtpx:TrackPointExtension>
        </extensions>
      </trkpt>
      <trkpt lat="45.99782" lon="6.18245">
        <ele>553.2</ele>
        <time>2021-03-02T13:15:47Z</time>
        <extensions>
          <gpxtpx:TrackPointExtension xmlns:gpxtpx="http://www.garmin.com/xmlschemas/TrackPointExtension/v1">
            <gpxtpx:hr>94</gpxtpx:hr>
          </gpxtpx:TrackPointExtension>
        </extensions>
      </trkpt>
      <trkpt lat="45.9978" lon="6.18248">
        <ele>553.4</ele>
        <time>2021-03-02T13:15:48Z</time>
        <extensions>
          <gpxtpx:TrackPointExtension xmlns:gpxtpx="http://www.garmin.com/xmlschemas/TrackPointExtension/v1">
            <gpxtpx:hr>94</gpxtpx:hr>
          </gpxtpx:TrackPointExtension>
        </extensions>
      </trkpt>
      <trkpt lat="45.99778" lon="6.18252">
        <ele>553.7</ele>
        <time>2021-03-02T13:15:49Z</time>
        <extensions>
          <gpxtpx:TrackPointExtension xmlns:gpxtpx="http://www.garmin.com/xmlschemas/TrackPointExtension/v1">
            <gpxtpx:hr>94</gpxtpx:hr>
          </gpxtpx:TrackPointExtension>
        </extensions>
      </trkpt>
      <trkpt lat="45.99776" lon="6.18255">
        <ele>553.9</ele>
        <time>2021-03-02T13:15:50Z</time>
        <extensions>
          <gpxtpx:TrackPointExtension xmlns:gpxtpx="http://www.garmin.com/xmlschemas/TrackPointExtension/v1">
            <gpxtpx:hr>94</gpxtpx:hr>
          </gpxtpx:TrackPointExtension>
        </extensions>
      </trkpt>
      <trkpt lat="45.99774" lon="6.18257">
        <ele>554.2</ele>
        <time>2021-03-02T13:15:51Z</time>
        <extensions>
          <gpxtpx:TrackPointExtension xmlns:gpxtpx="http://www.garmin.com/xmlschemas/TrackPointExtension/v1">
            <gpxtpx:hr>94</gpxtpx:hr>
          </gpxtpx:TrackPointExtension>
        </extensions>
      </trkpt>
      <trkpt lat="45.99772" lon="6.18259">
        <ele>554.4</ele>
        <time>2021-03-02T13:15:52Z</time>
        <extensions>
          <gpxtpx:TrackPointExtension xmlns:gpxtpx="http://www.garmin.com/xmlschemas/TrackPointExtension/v1">
            <gpxtpx:hr>95</gpxtpx:hr>
          </gpxtpx:TrackPointExtension>
        </extensions>
      </trkpt>
      <trkpt lat="45.9977" lon="6.18261">
        <ele>554.6</ele>
        <time>2021-03-02T13:15:53Z</time>
        <extensions>
          <gpxtpx:TrackPointExtension xmlns:gpxtpx="http://www.garmin.com/xmlschemas/TrackPointExtension/v1">
            <gpxtpx:hr>95</gpxtpx:hr>
          </gpxtpx:TrackPointExtension>
        </extensions>
      </trkpt>
      <trkpt lat="45.99768" lon="6.18263">
        <ele>554.8</ele>
        <time>2021-03-02T13:15:54Z</time>
        <extensions>
          <gpxtpx:TrackPointExtension xmlns:gpxtpx="http://www.garmin.com/xmlschemas/TrackPointExtension/v1">
            <gpxtpx:hr>95</gpxtpx:hr>
          </gpxtpx:TrackPointExtension>
        </extensions>
      </trkpt>
      <trkpt lat="45.99765" lon="6.18264">
        <ele>554.9</ele>
        <time>2021-03-02T13:15:55Z</time>
        <extensions>
          <gpxtpx:TrackPointExtension xmlns:gpxtpx="http://www.garmin.com/xmlschemas/TrackPointExtension/v1">
            <gpxtpx:hr>95</gpxtpx:hr>
          </gpxtpx:TrackPointExtension>
        </extensions>
      </trkpt>
      <trkpt lat="45.99763" lon="6.18266">
        <ele>555</ele>
        <time>2021-03-02T13:15:56Z</time>
        <extensions>
          <gpxtpx:TrackPointExtension xmlns:gpxtpx="http://www.garmin.com/xmlschemas/TrackPointExtension/v1">
            <gpxtpx:hr>95</gpxtpx:hr>
          </gpxtpx:TrackPointExtension>
        </extensions>
      </trkpt>
      <trkpt lat="45.9976" lon="6.18266">
        <ele>555.1</ele>
        <time>2021-03-02T13:15:57Z</time>
        <extensions>
          <gpxtpx:TrackPointExtension xmlns:gpxtpx="http://www.garmin.com/xmlschemas/TrackPointExtension/v1">
            <gpxtpx:hr>95</gpxtpx:hr>
          </gpxtpx:TrackPointExtension>
        </extensions>
      </trkpt>
      <trkpt lat="45.99759" lon="6.18266">
        <ele>555.2</ele>
        <time>2021-03-02T13:15:58Z</time>
        <extensions>
          <gpxtpx:TrackPointExtension xmlns:gpxtpx="http://www.garmin.com/xmlschemas/TrackPointExtension/v1">
            <gpxtpx:hr>95</gpxtpx:hr>
          </gpxtpx:TrackPointExtension>
        </extensions>
      </trkpt>
      <trkpt lat="45.99756" lon="6.18267">
        <ele>555.3</ele>
        <time>2021-03-02T13:15:59Z</time>
        <extensions>
          <gpxtpx:TrackPointExtension xmlns:gpxtpx="http://www.garmin.com/xmlschemas/TrackPointExtension/v1">
            <gpxtpx:hr>95</gpxtpx:hr>
          </gpxtpx:TrackPointExtension>
        </extensions>
      </trkpt>
      <trkpt lat="45.99755" lon="6.18267">
        <ele>555.4</ele>
        <time>2021-03-02T13:16:00Z</time>
        <extensions>
          <gpxtpx:TrackPointExtension xmlns:gpxtpx="http://www.garmin.com/xmlschemas/TrackPointExtension/v1">
            <gpxtpx:hr>96</gpxtpx:hr>
          </gpxtpx:TrackPointExtension>
        </extensions>
      </trkpt>
      <trkpt lat="45.99752" lon="6.18267">
        <ele>555.5</ele>
        <time>2021-03-02T13:16:01Z</time>
        <extensions>
          <gpxtpx:TrackPointExtension xmlns:gpxtpx="http://www.garmin.com/xmlschemas/TrackPointExtension/v1">
            <gpxtpx:hr>96</gpxtpx:hr>
          </gpxtpx:TrackPointExtension>
        </extensions>
      </trkpt>
      <trkpt lat="45.9975" lon="6.18268">
        <ele>555.8</ele>
        <time>2021-03-02T13:16:02Z</time>
        <extensions>
          <gpxtpx:TrackPointExtension xmlns:gpxtpx="http://www.garmin.com/xmlschemas/TrackPointExtension/v1">
            <gpxtpx:hr>96</gpxtpx:hr>
          </gpxtpx:TrackPointExtension>
        </extensions>
      </trkpt>
      <trkpt lat="45.99747" lon="6.18268">
        <ele>556.1</ele>
        <time>2021-03-02T13:16:03Z</time>
        <extensions>
          <gpxtpx:TrackPointExtension xmlns:gpxtpx="http://www.garmin.com/xmlschemas/TrackPointExtension/v1">
            <gpxtpx:hr>96</gpxtpx:hr>
          </gpxtpx:TrackPointExtension>
        </extensions>
      </trkpt>
      <trkpt lat="45.99744" lon="6.18269">
        <ele>556.3</ele>
        <time>2021-03-02T13:16:04Z</time>
        <extensions>
          <gpxtpx:TrackPointExtension xmlns:gpxtpx="http://www.garmin.com/xmlschemas/TrackPointExtension/v1">
            <gpxtpx:hr>97</gpxtpx:hr>
          </gpxtpx:TrackPointExtension>
        </extensions>
      </trkpt>
      <trkpt lat="45.99741" lon="6.18269">
        <ele>556.6</ele>
        <time>2021-03-02T13:16:05Z</time>
        <extensions>
          <gpxtpx:TrackPointExtension xmlns:gpxtpx="http://www.garmin.com/xmlschemas/TrackPointExtension/v1">
            <gpxtpx:hr>97</gpxtpx:hr>
          </gpxtpx:TrackPointExtension>
        </extensions>
      </trkpt>
      <trkpt lat="45.99738" lon="6.18269">
        <ele>556.9</ele>
        <time>2021-03-02T13:16:06Z</time>
        <extensions>
          <gpxtpx:TrackPointExtension xmlns:gpxtpx="http://www.garmin.com/xmlschemas/TrackPointExtension/v1">
            <gpxtpx:hr>99</gpxtpx:hr>
          </gpxtpx:TrackPointExtension>
        </extensions>
      </trkpt>
      <trkpt lat="45.99735" lon="6.18269">
        <ele>557.2</ele>
        <time>2021-03-02T13:16:07Z</time>
        <extensions>
          <gpxtpx:TrackPointExtension xmlns:gpxtpx="http://www.garmin.com/xmlschemas/TrackPointExtension/v1">
            <gpxtpx:hr>101</gpxtpx:hr>
          </gpxtpx:TrackPointExtension>
        </extensions>
      </trkpt>
      <trkpt lat="45.99733" lon="6.18268">
        <ele>557.4</ele>
        <time>2021-03-02T13:16:08Z</time>
        <extensions>
          <gpxtpx:TrackPointExtension xmlns:gpxtpx="http://www.garmin.com/xmlschemas/TrackPointExtension/v1">
            <gpxtpx:hr>103</gpxtpx:hr>
          </gpxtpx:TrackPointExtension>
        </extensions>
      </trkpt>
      <trkpt lat="45.9973" lon="6.18267">
        <ele>557.7</ele>
        <time>2021-03-02T13:16:09Z</time>
        <extensions>
          <gpxtpx:TrackPointExtension xmlns:gpxtpx="http://www.garmin.com/xmlschemas/TrackPointExtension/v1">
            <gpxtpx:hr>104</gpxtpx:hr>
          </gpxtpx:TrackPointExtension>
        </extensions>
      </trkpt>
      <trkpt lat="45.99727" lon="6.18267">
        <ele>558</ele>
        <time>2021-03-02T13:16:10Z</time>
        <extensions>
          <gpxtpx:TrackPointExtension xmlns:gpxtpx="http://www.garmin.com/xmlschemas/TrackPointExtension/v1">
            <gpxtpx:hr>104</gpxtpx:hr>
          </gpxtpx:TrackPointExtension>
        </extensions>
      </trkpt>
      <trkpt lat="45.99724" lon="6.18266">
        <ele>558.2</ele>
        <time>2021-03-02T13:16:11Z</time>
        <extensions>
          <gpxtpx:TrackPointExtension xmlns:gpxtpx="http://www.garmin.com/xmlschemas/TrackPointExtension/v1">
            <gpxtpx:hr>105</gpxtpx:hr>
          </gpxtpx:TrackPointExtension>
        </extensions>
      </trkpt>
      <trkpt lat="45.99721" lon="6.18265">
        <ele>558.5</ele>
        <time>2021-03-02T13:16:12Z</time>
        <extensions>
          <gpxtpx:TrackPointExtension xmlns:gpxtpx="http://www.garmin.com/xmlschemas/TrackPointExtension/v1">
            <gpxtpx:hr>105</gpxtpx:hr>
          </gpxtpx:TrackPointExtension>
        </extensions>
      </trkpt>
      <trkpt lat="45.99718" lon="6.18264">
        <ele>558.8</ele>
        <time>2021-03-02T13:16:13Z</time>
        <extensions>
          <gpxtpx:TrackPointExtension xmlns:gpxtpx="http://www.garmin.com/xmlschemas/TrackPointExtension/v1">
            <gpxtpx:hr>105</gpxtpx:hr>
          </gpxtpx:TrackPointExtension>
        </extensions>
      </trkpt>
      <trkpt lat="45.99715" lon="6.18263">
        <ele>559.1</ele>
        <time>2021-03-02T13:16:14Z</time>
        <extensions>
          <gpxtpx:TrackPointExtension xmlns:gpxtpx="http://www.garmin.com/xmlschemas/TrackPointExtension/v1">
            <gpxtpx:hr>105</gpxtpx:hr>
          </gpxtpx:TrackPointExtension>
        </extensions>
      </trkpt>
      <trkpt lat="45.99713" lon="6.18263">
        <ele>559.3</ele>
        <time>2021-03-02T13:16:15Z</time>
        <extensions>
          <gpxtpx:TrackPointExtension xmlns:gpxtpx="http://www.garmin.com/xmlschemas/TrackPointExtension/v1">
            <gpxtpx:hr>105</gpxtpx:hr>
          </gpxtpx:TrackPointExtension>
        </extensions>
      </trkpt>
      <trkpt lat="45.9971" lon="6.18262">
        <ele>559.6</ele>
        <time>2021-03-02T13:16:16Z</time>
        <extensions>
          <gpxtpx:TrackPointExtension xmlns:gpxtpx="http://www.garmin.com/xmlschemas/TrackPointExtension/v1">
            <gpxtpx:hr>106</gpxtpx:hr>
          </gpxtpx:TrackPointExtension>
        </extensions>
      </trkpt>
      <trkpt lat="45.99707" lon="6.18261">
        <ele>559.9</ele>
        <time>2021-03-02T13:16:17Z</time>
        <extensions>
          <gpxtpx:TrackPointExtension xmlns:gpxtpx="http://www.garmin.com/xmlschemas/TrackPointExtension/v1">
            <gpxtpx:hr>106</gpxtpx:hr>
          </gpxtpx:TrackPointExtension>
        </extensions>
      </trkpt>
      <trkpt lat="45.99704" lon="6.18261">
        <ele>560.1</ele>
        <time>2021-03-02T13:16:18Z</time>
        <extensions>
          <gpxtpx:TrackPointExtension xmlns:gpxtpx="http://www.garmin.com/xmlschemas/TrackPointExtension/v1">
            <gpxtpx:hr>106</gpxtpx:hr>
          </gpxtpx:TrackPointExtension>
        </extensions>
      </trkpt>
      <trkpt lat="45.99701" lon="6.1826">
        <ele>560.4</ele>
        <time>2021-03-02T13:16:19Z</time>
        <extensions>
          <gpxtpx:TrackPointExtension xmlns:gpxtpx="http://www.garmin.com/xmlschemas/TrackPointExtension/v1">
            <gpxtpx:hr>107</gpxtpx:hr>
          </gpxtpx:TrackPointExtension>
        </extensions>
      </trkpt>
      <trkpt lat="45.99698" lon="6.1826">
        <ele>560.7</ele>
        <time>2021-03-02T13:16:20Z</time>
        <extensions>
          <gpxtpx:TrackPointExtension xmlns:gpxtpx="http://www.garmin.com/xmlschemas/TrackPointExtension/v1">
            <gpxtpx:hr>107</gpxtpx:hr>
          </gpxtpx:TrackPointExtension>
        </extensions>
      </trkpt>
      <trkpt lat="45.99695" lon="6.18259">
        <ele>560.9</ele>
        <time>2021-03-02T13:16:21Z</time>
        <extensions>
          <gpxtpx:TrackPointExtension xmlns:gpxtpx="http://www.garmin.com/xmlschemas/TrackPointExtension/v1">
            <gpxtpx:hr>107</gpxtpx:hr>
          </gpxtpx:TrackPointExtension>
        </extensions>
      </trkpt>
      <trkpt lat="45.99693" lon="6.18259">
        <ele>561.1</ele>
        <time>2021-03-02T13:16:22Z</time>
        <extensions>
          <gpxtpx:TrackPointExtension xmlns:gpxtpx="http://www.garmin.com/xmlschemas/TrackPointExtension/v1">
            <gpxtpx:hr>107</gpxtpx:hr>
          </gpxtpx:TrackPointExtension>
        </extensions>
      </trkpt>
      <trkpt lat="45.9969" lon="6.18257">
        <ele>561.4</ele>
        <time>2021-03-02T13:16:23Z</time>
        <extensions>
          <gpxtpx:TrackPointExtension xmlns:gpxtpx="http://www.garmin.com/xmlschemas/TrackPointExtension/v1">
            <gpxtpx:hr>107</gpxtpx:hr>
          </gpxtpx:TrackPointExtension>
        </extensions>
      </trkpt>
      <trkpt lat="45.99687" lon="6.18256">
        <ele>561.6</ele>
        <time>2021-03-02T13:16:24Z</time>
        <extensions>
          <gpxtpx:TrackPointExtension xmlns:gpxtpx="http://www.garmin.com/xmlschemas/TrackPointExtension/v1">
            <gpxtpx:hr>107</gpxtpx:hr>
          </gpxtpx:TrackPointExtension>
        </extensions>
      </trkpt>
      <trkpt lat="45.99684" lon="6.18255">
        <ele>561.9</ele>
        <time>2021-03-02T13:16:25Z</time>
        <extensions>
          <gpxtpx:TrackPointExtension xmlns:gpxtpx="http://www.garmin.com/xmlschemas/TrackPointExtension/v1">
            <gpxtpx:hr>107</gpxtpx:hr>
          </gpxtpx:TrackPointExtension>
        </extensions>
      </trkpt>
      <trkpt lat="45.99681" lon="6.18254">
        <ele>562.1</ele>
        <time>2021-03-02T13:16:26Z</time>
        <extensions>
          <gpxtpx:TrackPointExtension xmlns:gpxtpx="http://www.garmin.com/xmlschemas/TrackPointExtension/v1">
            <gpxtpx:hr>107</gpxtpx:hr>
          </gpxtpx:TrackPointExtension>
        </extensions>
      </trkpt>
      <trkpt lat="45.99677" lon="6.18253">
        <ele>562.4</ele>
        <time>2021-03-02T13:16:27Z</time>
        <extensions>
          <gpxtpx:TrackPointExtension xmlns:gpxtpx="http://www.garmin.com/xmlschemas/TrackPointExtension/v1">
            <gpxtpx:hr>108</gpxtpx:hr>
          </gpxtpx:TrackPointExtension>
        </extensions>
      </trkpt>
      <trkpt lat="45.99674" lon="6.18252">
        <ele>562.6</ele>
        <time>2021-03-02T13:16:28Z</time>
        <extensions>
          <gpxtpx:TrackPointExtension xmlns:gpxtpx="http://www.garmin.com/xmlschemas/TrackPointExtension/v1">
            <gpxtpx:hr>108</gpxtpx:hr>
          </gpxtpx:TrackPointExtension>
        </extensions>
      </trkpt>
      <trkpt lat="45.99671" lon="6.18251">
        <ele>562.9</ele>
        <time>2021-03-02T13:16:29Z</time>
        <extensions>
          <gpxtpx:TrackPointExtension xmlns:gpxtpx="http://www.garmin.com/xmlschemas/TrackPointExtension/v1">
            <gpxtpx:hr>108</gpxtpx:hr>
          </gpxtpx:TrackPointExtension>
        </extensions>
      </trkpt>
      <trkpt lat="45.99668" lon="6.1825">
        <ele>563.1</ele>
        <time>2021-03-02T13:16:30Z</time>
        <extensions>
          <gpxtpx:TrackPointExtension xmlns:gpxtpx="http://www.garmin.com/xmlschemas/TrackPointExtension/v1">
            <gpxtpx:hr>108</gpxtpx:hr>
          </gpxtpx:TrackPointExtension>
        </extensions>
      </trkpt>
      <trkpt lat="45.99665" lon="6.18249">
        <ele>563.3</ele>
        <time>2021-03-02T13:16:31Z</time>
        <extensions>
          <gpxtpx:TrackPointExtension xmlns:gpxtpx="http://www.garmin.com/xmlschemas/TrackPointExtension/v1">
            <gpxtpx:hr>108</gpxtpx:hr>
          </gpxtpx:TrackPointExtension>
        </extensions>
      </trkpt>
      <trkpt lat="45.99662" lon="6.18248">
        <ele>563.5</ele>
        <time>2021-03-02T13:16:32Z</time>
        <extensions>
          <gpxtpx:TrackPointExtension xmlns:gpxtpx="http://www.garmin.com/xmlschemas/TrackPointExtension/v1">
            <gpxtpx:hr>108</gpxtpx:hr>
          </gpxtpx:TrackPointExtension>
        </extensions>
      </trkpt>
      <trkpt lat="45.99658" lon="6.18247">
        <ele>563.8</ele>
        <time>2021-03-02T13:16:33Z</time>
        <extensions>
          <gpxtpx:TrackPointExtension xmlns:gpxtpx="http://www.garmin.com/xmlschemas/TrackPointExtension/v1">
            <gpxtpx:hr>108</gpxtpx:hr>
          </gpxtpx:TrackPointExtension>
        </extensions>
      </trkpt>
      <trkpt lat="45.99655" lon="6.18245">
        <ele>564</ele>
        <time>2021-03-02T13:16:34Z</time>
        <extensions>
          <gpxtpx:TrackPointExtension xmlns:gpxtpx="http://www.garmin.com/xmlschemas/TrackPointExtension/v1">
            <gpxtpx:hr>108</gpxtpx:hr>
          </gpxtpx:TrackPointExtension>
        </extensions>
      </trkpt>
      <trkpt lat="45.99651" lon="6.18244">
        <ele>564.3</ele>
        <time>2021-03-02T13:16:35Z</time>
        <extensions>
          <gpxtpx:TrackPointExtension xmlns:gpxtpx="http://www.garmin.com/xmlschemas/TrackPointExtension/v1">
            <gpxtpx:hr>108</gpxtpx:hr>
          </gpxtpx:TrackPointExtension>
        </extensions>
      </trkpt>
      <trkpt lat="45.99648" lon="6.18242">
        <ele>564.5</ele>
        <time>2021-03-02T13:16:36Z</time>
        <extensions>
          <gpxtpx:TrackPointExtension xmlns:gpxtpx="http://www.garmin.com/xmlschemas/TrackPointExtension/v1">
            <gpxtpx:hr>108</gpxtpx:hr>
          </gpxtpx:TrackPointExtension>
        </extensions>
      </trkpt>
      <trkpt lat="45.99644" lon="6.1824">
        <ele>564.8</ele>
        <time>2021-03-02T13:16:37Z</time>
        <extensions>
          <gpxtpx:TrackPointExtension xmlns:gpxtpx="http://www.garmin.com/xmlschemas/TrackPointExtension/v1">
            <gpxtpx:hr>108</gpxtpx:hr>
          </gpxtpx:TrackPointExtension>
        </extensions>
      </trkpt>
      <trkpt lat="45.99641" lon="6.18239">
        <ele>565</ele>
        <time>2021-03-02T13:16:38Z</time>
        <extensions>
          <gpxtpx:TrackPointExtension xmlns:gpxtpx="http://www.garmin.com/xmlschemas/TrackPointExtension/v1">
            <gpxtpx:hr>108</gpxtpx:hr>
          </gpxtpx:TrackPointExtension>
        </extensions>
      </trkpt>
      <trkpt lat="45.99638" lon="6.18237">
        <ele>565.3</ele>
        <time>2021-03-02T13:16:39Z</time>
        <extensions>
          <gpxtpx:TrackPointExtension xmlns:gpxtpx="http://www.garmin.com/xmlschemas/TrackPointExtension/v1">
            <gpxtpx:hr>108</gpxtpx:hr>
          </gpxtpx:TrackPointExtension>
        </extensions>
      </trkpt>
      <trkpt lat="45.99635" lon="6.18235">
        <ele>565.5</ele>
        <time>2021-03-02T13:16:40Z</time>
        <extensions>
          <gpxtpx:TrackPointExtension xmlns:gpxtpx="http://www.garmin.com/xmlschemas/TrackPointExtension/v1">
            <gpxtpx:hr>108</gpxtpx:hr>
          </gpxtpx:TrackPointExtension>
        </extensions>
      </trkpt>
      <trkpt lat="45.99632" lon="6.18234">
        <ele>565.7</ele>
        <time>2021-03-02T13:16:41Z</time>
        <extensions>
          <gpxtpx:TrackPointExtension xmlns:gpxtpx="http://www.garmin.com/xmlschemas/TrackPointExtension/v1">
            <gpxtpx:hr>108</gpxtpx:hr>
          </gpxtpx:TrackPointExtension>
        </extensions>
      </trkpt>
      <trkpt lat="45.9963" lon="6.18232">
        <ele>565.9</ele>
        <time>2021-03-02T13:16:42Z</time>
        <extensions>
          <gpxtpx:TrackPointExtension xmlns:gpxtpx="http://www.garmin.com/xmlschemas/TrackPointExtension/v1">
            <gpxtpx:hr>108</gpxtpx:hr>
          </gpxtpx:TrackPointExtension>
        </extensions>
      </trkpt>
      <trkpt lat="45.99627" lon="6.18231">
        <ele>566.1</ele>
        <time>2021-03-02T13:16:43Z</time>
        <extensions>
          <gpxtpx:TrackPointExtension xmlns:gpxtpx="http://www.garmin.com/xmlschemas/TrackPointExtension/v1">
            <gpxtpx:hr>108</gpxtpx:hr>
          </gpxtpx:TrackPointExtension>
        </extensions>
      </trkpt>
      <trkpt lat="45.99624" lon="6.1823">
        <ele>566.3</ele>
        <time>2021-03-02T13:16:44Z</time>
        <extensions>
          <gpxtpx:TrackPointExtension xmlns:gpxtpx="http://www.garmin.com/xmlschemas/TrackPointExtension/v1">
            <gpxtpx:hr>108</gpxtpx:hr>
          </gpxtpx:TrackPointExtension>
        </extensions>
      </trkpt>
      <trkpt lat="45.99621" lon="6.18228">
        <ele>566.5</ele>
        <time>2021-03-02T13:16:45Z</time>
        <extensions>
          <gpxtpx:TrackPointExtension xmlns:gpxtpx="http://www.garmin.com/xmlschemas/TrackPointExtension/v1">
            <gpxtpx:hr>107</gpxtpx:hr>
          </gpxtpx:TrackPointExtension>
        </extensions>
      </trkpt>
      <trkpt lat="45.99619" lon="6.18227">
        <ele>566.7</ele>
        <time>2021-03-02T13:16:46Z</time>
        <extensions>
          <gpxtpx:TrackPointExtension xmlns:gpxtpx="http://www.garmin.com/xmlschemas/TrackPointExtension/v1">
            <gpxtpx:hr>107</gpxtpx:hr>
          </gpxtpx:TrackPointExtension>
        </extensions>
      </trkpt>
      <trkpt lat="45.99616" lon="6.18225">
        <ele>566.9</ele>
        <time>2021-03-02T13:16:47Z</time>
        <extensions>
          <gpxtpx:TrackPointExtension xmlns:gpxtpx="http://www.garmin.com/xmlschemas/TrackPointExtension/v1">
            <gpxtpx:hr>106</gpxtpx:hr>
          </gpxtpx:TrackPointExtension>
        </extensions>
      </trkpt>
      <trkpt lat="45.99613" lon="6.18224">
        <ele>567.1</ele>
        <time>2021-03-02T13:16:48Z</time>
        <extensions>
          <gpxtpx:TrackPointExtension xmlns:gpxtpx="http://www.garmin.com/xmlschemas/TrackPointExtension/v1">
            <gpxtpx:hr>106</gpxtpx:hr>
          </gpxtpx:TrackPointExtension>
        </extensions>
      </trkpt>
      <trkpt lat="45.9961" lon="6.18223">
        <ele>567.4</ele>
        <time>2021-03-02T13:16:49Z</time>
        <extensions>
          <gpxtpx:TrackPointExtension xmlns:gpxtpx="http://www.garmin.com/xmlschemas/TrackPointExtension/v1">
            <gpxtpx:hr>107</gpxtpx:hr>
          </gpxtpx:TrackPointExtension>
        </extensions>
      </trkpt>
      <trkpt lat="45.99607" lon="6.18221">
        <ele>567.6</ele>
        <time>2021-03-02T13:16:50Z</time>
        <extensions>
          <gpxtpx:TrackPointExtension xmlns:gpxtpx="http://www.garmin.com/xmlschemas/TrackPointExtension/v1">
            <gpxtpx:hr>106</gpxtpx:hr>
          </gpxtpx:TrackPointExtension>
        </extensions>
      </trkpt>
      <trkpt lat="45.99605" lon="6.1822">
        <ele>567.8</ele>
        <time>2021-03-02T13:16:51Z</time>
        <extensions>
          <gpxtpx:TrackPointExtension xmlns:gpxtpx="http://www.garmin.com/xmlschemas/TrackPointExtension/v1">
            <gpxtpx:hr>106</gpxtpx:hr>
          </gpxtpx:TrackPointExtension>
        </extensions>
      </trkpt>
      <trkpt lat="45.99602" lon="6.18218">
        <ele>568.1</ele>
        <time>2021-03-02T13:16:52Z</time>
        <extensions>
          <gpxtpx:TrackPointExtension xmlns:gpxtpx="http://www.garmin.com/xmlschemas/TrackPointExtension/v1">
            <gpxtpx:hr>106</gpxtpx:hr>
          </gpxtpx:TrackPointExtension>
        </extensions>
      </trkpt>
      <trkpt lat="45.99599" lon="6.18217">
        <ele>568.3</ele>
        <time>2021-03-02T13:16:53Z</time>
        <extensions>
          <gpxtpx:TrackPointExtension xmlns:gpxtpx="http://www.garmin.com/xmlschemas/TrackPointExtension/v1">
            <gpxtpx:hr>106</gpxtpx:hr>
          </gpxtpx:TrackPointExtension>
        </extensions>
      </trkpt>
      <trkpt lat="45.99596" lon="6.18216">
        <ele>568.5</ele>
        <time>2021-03-02T13:16:54Z</time>
        <extensions>
          <gpxtpx:TrackPointExtension xmlns:gpxtpx="http://www.garmin.com/xmlschemas/TrackPointExtension/v1">
            <gpxtpx:hr>107</gpxtpx:hr>
          </gpxtpx:TrackPointExtension>
        </extensions>
      </trkpt>
      <trkpt lat="45.99594" lon="6.18214">
        <ele>568.7</ele>
        <time>2021-03-02T13:16:55Z</time>
        <extensions>
          <gpxtpx:TrackPointExtension xmlns:gpxtpx="http://www.garmin.com/xmlschemas/TrackPointExtension/v1">
            <gpxtpx:hr>107</gpxtpx:hr>
          </gpxtpx:TrackPointExtension>
        </extensions>
      </trkpt>
      <trkpt lat="45.99591" lon="6.18213">
        <ele>568.9</ele>
        <time>2021-03-02T13:16:56Z</time>
        <extensions>
          <gpxtpx:TrackPointExtension xmlns:gpxtpx="http://www.garmin.com/xmlschemas/TrackPointExtension/v1">
            <gpxtpx:hr>107</gpxtpx:hr>
          </gpxtpx:TrackPointExtension>
        </extensions>
      </trkpt>
      <trkpt lat="45.99589" lon="6.18211">
        <ele>569.2</ele>
        <time>2021-03-02T13:16:57Z</time>
        <extensions>
          <gpxtpx:TrackPointExtension xmlns:gpxtpx="http://www.garmin.com/xmlschemas/TrackPointExtension/v1">
            <gpxtpx:hr>107</gpxtpx:hr>
          </gpxtpx:TrackPointExtension>
        </extensions>
      </trkpt>
      <trkpt lat="45.99586" lon="6.18209">
        <ele>569.4</ele>
        <time>2021-03-02T13:16:58Z</time>
        <extensions>
          <gpxtpx:TrackPointExtension xmlns:gpxtpx="http://www.garmin.com/xmlschemas/TrackPointExtension/v1">
            <gpxtpx:hr>107</gpxtpx:hr>
          </gpxtpx:TrackPointExtension>
        </extensions>
      </trkpt>
      <trkpt lat="45.99584" lon="6.18208">
        <ele>569.6</ele>
        <time>2021-03-02T13:16:59Z</time>
        <extensions>
          <gpxtpx:TrackPointExtension xmlns:gpxtpx="http://www.garmin.com/xmlschemas/TrackPointExtension/v1">
            <gpxtpx:hr>107</gpxtpx:hr>
          </gpxtpx:TrackPointExtension>
        </extensions>
      </trkpt>
      <trkpt lat="45.99582" lon="6.18207">
        <ele>569.8</ele>
        <time>2021-03-02T13:17:00Z</time>
        <extensions>
          <gpxtpx:TrackPointExtension xmlns:gpxtpx="http://www.garmin.com/xmlschemas/TrackPointExtension/v1">
            <gpxtpx:hr>108</gpxtpx:hr>
          </gpxtpx:TrackPointExtension>
        </extensions>
      </trkpt>
      <trkpt lat="45.99579" lon="6.18205">
        <ele>570</ele>
        <time>2021-03-02T13:17:01Z</time>
        <extensions>
          <gpxtpx:TrackPointExtension xmlns:gpxtpx="http://www.garmin.com/xmlschemas/TrackPointExtension/v1">
            <gpxtpx:hr>108</gpxtpx:hr>
          </gpxtpx:TrackPointExtension>
        </extensions>
      </trkpt>
      <trkpt lat="45.99577" lon="6.18203">
        <ele>570.2</ele>
        <time>2021-03-02T13:17:02Z</time>
        <extensions>
          <gpxtpx:TrackPointExtension xmlns:gpxtpx="http://www.garmin.com/xmlschemas/TrackPointExtension/v1">
            <gpxtpx:hr>109</gpxtpx:hr>
          </gpxtpx:TrackPointExtension>
        </extensions>
      </trkpt>
      <trkpt lat="45.99575" lon="6.18202">
        <ele>570.4</ele>
        <time>2021-03-02T13:17:03Z</time>
        <extensions>
          <gpxtpx:TrackPointExtension xmlns:gpxtpx="http://www.garmin.com/xmlschemas/TrackPointExtension/v1">
            <gpxtpx:hr>110</gpxtpx:hr>
          </gpxtpx:TrackPointExtension>
        </extensions>
      </trkpt>
      <trkpt lat="45.99572" lon="6.182">
        <ele>570.6</ele>
        <time>2021-03-02T13:17:04Z</time>
        <extensions>
          <gpxtpx:TrackPointExtension xmlns:gpxtpx="http://www.garmin.com/xmlschemas/TrackPointExtension/v1">
            <gpxtpx:hr>111</gpxtpx:hr>
          </gpxtpx:TrackPointExtension>
        </extensions>
      </trkpt>
      <trkpt lat="45.9957" lon="6.18199">
        <ele>570.8</ele>
        <time>2021-03-02T13:17:05Z</time>
        <extensions>
          <gpxtpx:TrackPointExtension xmlns:gpxtpx="http://www.garmin.com/xmlschemas/TrackPointExtension/v1">
            <gpxtpx:hr>112</gpxtpx:hr>
          </gpxtpx:TrackPointExtension>
        </extensions>
      </trkpt>
      <trkpt lat="45.99567" lon="6.18198">
        <ele>571</ele>
        <time>2021-03-02T13:17:06Z</time>
        <extensions>
          <gpxtpx:TrackPointExtension xmlns:gpxtpx="http://www.garmin.com/xmlschemas/TrackPointExtension/v1">
            <gpxtpx:hr>113</gpxtpx:hr>
          </gpxtpx:TrackPointExtension>
        </extensions>
      </trkpt>
      <trkpt lat="45.99565" lon="6.18196">
        <ele>571.2</ele>
        <time>2021-03-02T13:17:07Z</time>
        <extensions>
          <gpxtpx:TrackPointExtension xmlns:gpxtpx="http://www.garmin.com/xmlschemas/TrackPointExtension/v1">
            <gpxtpx:hr>114</gpxtpx:hr>
          </gpxtpx:TrackPointExtension>
        </extensions>
      </trkpt>
      <trkpt lat="45.99563" lon="6.18195">
        <ele>571.4</ele>
        <time>2021-03-02T13:17:08Z</time>
        <extensions>
          <gpxtpx:TrackPointExtension xmlns:gpxtpx="http://www.garmin.com/xmlschemas/TrackPointExtension/v1">
            <gpxtpx:hr>114</gpxtpx:hr>
          </gpxtpx:TrackPointExtension>
        </extensions>
      </trkpt>
      <trkpt lat="45.9956" lon="6.18193">
        <ele>571.7</ele>
        <time>2021-03-02T13:17:09Z</time>
        <extensions>
          <gpxtpx:TrackPointExtension xmlns:gpxtpx="http://www.garmin.com/xmlschemas/TrackPointExtension/v1">
            <gpxtpx:hr>114</gpxtpx:hr>
          </gpxtpx:TrackPointExtension>
        </extensions>
      </trkpt>
      <trkpt lat="45.99558" lon="6.18192">
        <ele>571.9</ele>
        <time>2021-03-02T13:17:10Z</time>
        <extensions>
          <gpxtpx:TrackPointExtension xmlns:gpxtpx="http://www.garmin.com/xmlschemas/TrackPointExtension/v1">
            <gpxtpx:hr>114</gpxtpx:hr>
          </gpxtpx:TrackPointExtension>
        </extensions>
      </trkpt>
      <trkpt lat="45.99556" lon="6.18191">
        <ele>572</ele>
        <time>2021-03-02T13:17:11Z</time>
        <extensions>
          <gpxtpx:TrackPointExtension xmlns:gpxtpx="http://www.garmin.com/xmlschemas/TrackPointExtension/v1">
            <gpxtpx:hr>114</gpxtpx:hr>
          </gpxtpx:TrackPointExtension>
        </extensions>
      </trkpt>
      <trkpt lat="45.99553" lon="6.18189">
        <ele>572.3</ele>
        <time>2021-03-02T13:17:12Z</time>
        <extensions>
          <gpxtpx:TrackPointExtension xmlns:gpxtpx="http://www.garmin.com/xmlschemas/TrackPointExtension/v1">
            <gpxtpx:hr>114</gpxtpx:hr>
          </gpxtpx:TrackPointExtension>
        </extensions>
      </trkpt>
      <trkpt lat="45.99551" lon="6.18188">
        <ele>572.5</ele>
        <time>2021-03-02T13:17:13Z</time>
        <extensions>
          <gpxtpx:TrackPointExtension xmlns:gpxtpx="http://www.garmin.com/xmlschemas/TrackPointExtension/v1">
            <gpxtpx:hr>113</gpxtpx:hr>
          </gpxtpx:TrackPointExtension>
        </extensions>
      </trkpt>
      <trkpt lat="45.99548" lon="6.18186">
        <ele>572.8</ele>
        <time>2021-03-02T13:17:14Z</time>
        <extensions>
          <gpxtpx:TrackPointExtension xmlns:gpxtpx="http://www.garmin.com/xmlschemas/TrackPointExtension/v1">
            <gpxtpx:hr>113</gpxtpx:hr>
          </gpxtpx:TrackPointExtension>
        </extensions>
      </trkpt>
      <trkpt lat="45.99545" lon="6.18185">
        <ele>573</ele>
        <time>2021-03-02T13:17:15Z</time>
        <extensions>
          <gpxtpx:TrackPointExtension xmlns:gpxtpx="http://www.garmin.com/xmlschemas/TrackPointExtension/v1">
            <gpxtpx:hr>113</gpxtpx:hr>
          </gpxtpx:TrackPointExtension>
        </extensions>
      </trkpt>
      <trkpt lat="45.99543" lon="6.18184">
        <ele>573.2</ele>
        <time>2021-03-02T13:17:16Z</time>
        <extensions>
          <gpxtpx:TrackPointExtension xmlns:gpxtpx="http://www.garmin.com/xmlschemas/TrackPointExtension/v1">
            <gpxtpx:hr>113</gpxtpx:hr>
          </gpxtpx:TrackPointExtension>
        </extensions>
      </trkpt>
      <trkpt lat="45.9954" lon="6.18183">
        <ele>573.5</ele>
        <time>2021-03-02T13:17:17Z</time>
        <extensions>
          <gpxtpx:TrackPointExtension xmlns:gpxtpx="http://www.garmin.com/xmlschemas/TrackPointExtension/v1">
            <gpxtpx:hr>113</gpxtpx:hr>
          </gpxtpx:TrackPointExtension>
        </extensions>
      </trkpt>
      <trkpt lat="45.99537" lon="6.18181">
        <ele>573.8</ele>
        <time>2021-03-02T13:17:18Z</time>
        <extensions>
          <gpxtpx:TrackPointExtension xmlns:gpxtpx="http://www.garmin.com/xmlschemas/TrackPointExtension/v1">
            <gpxtpx:hr>113</gpxtpx:hr>
          </gpxtpx:TrackPointExtension>
        </extensions>
      </trkpt>
      <trkpt lat="45.99535" lon="6.1818">
        <ele>574</ele>
        <time>2021-03-02T13:17:19Z</time>
        <extensions>
          <gpxtpx:TrackPointExtension xmlns:gpxtpx="http://www.garmin.com/xmlschemas/TrackPointExtension/v1">
            <gpxtpx:hr>113</gpxtpx:hr>
          </gpxtpx:TrackPointExtension>
        </extensions>
      </trkpt>
      <trkpt lat="45.99533" lon="6.18179">
        <ele>574.2</ele>
        <time>2021-03-02T13:17:20Z</time>
        <extensions>
          <gpxtpx:TrackPointExtension xmlns:gpxtpx="http://www.garmin.com/xmlschemas/TrackPointExtension/v1">
            <gpxtpx:hr>113</gpxtpx:hr>
          </gpxtpx:TrackPointExtension>
        </extensions>
      </trkpt>
      <trkpt lat="45.9953" lon="6.18178">
        <ele>574.4</ele>
        <time>2021-03-02T13:17:21Z</time>
        <extensions>
          <gpxtpx:TrackPointExtension xmlns:gpxtpx="http://www.garmin.com/xmlschemas/TrackPointExtension/v1">
            <gpxtpx:hr>113</gpxtpx:hr>
          </gpxtpx:TrackPointExtension>
        </extensions>
      </trkpt>
      <trkpt lat="45.99527" lon="6.18177">
        <ele>574.6</ele>
        <time>2021-03-02T13:17:22Z</time>
        <extensions>
          <gpxtpx:TrackPointExtension xmlns:gpxtpx="http://www.garmin.com/xmlschemas/TrackPointExtension/v1">
            <gpxtpx:hr>113</gpxtpx:hr>
          </gpxtpx:TrackPointExtension>
        </extensions>
      </trkpt>
      <trkpt lat="45.99525" lon="6.18175">
        <ele>574.9</ele>
        <time>2021-03-02T13:17:23Z</time>
        <extensions>
          <gpxtpx:TrackPointExtension xmlns:gpxtpx="http://www.garmin.com/xmlschemas/TrackPointExtension/v1">
            <gpxtpx:hr>113</gpxtpx:hr>
          </gpxtpx:TrackPointExtension>
        </extensions>
      </trkpt>
      <trkpt lat="45.99522" lon="6.18174">
        <ele>575.1</ele>
        <time>2021-03-02T13:17:24Z</time>
        <extensions>
          <gpxtpx:TrackPointExtension xmlns:gpxtpx="http://www.garmin.com/xmlschemas/TrackPointExtension/v1">
            <gpxtpx:hr>113</gpxtpx:hr>
          </gpxtpx:TrackPointExtension>
        </extensions>
      </trkpt>
      <trkpt lat="45.99519" lon="6.18173">
        <ele>575.4</ele>
        <time>2021-03-02T13:17:25Z</time>
        <extensions>
          <gpxtpx:TrackPointExtension xmlns:gpxtpx="http://www.garmin.com/xmlschemas/TrackPointExtension/v1">
            <gpxtpx:hr>113</gpxtpx:hr>
          </gpxtpx:TrackPointExtension>
        </extensions>
      </trkpt>
      <trkpt lat="45.99516" lon="6.18172">
        <ele>575.6</ele>
        <time>2021-03-02T13:17:26Z</time>
        <extensions>
          <gpxtpx:TrackPointExtension xmlns:gpxtpx="http://www.garmin.com/xmlschemas/TrackPointExtension/v1">
            <gpxtpx:hr>113</gpxtpx:hr>
          </gpxtpx:TrackPointExtension>
        </extensions>
      </trkpt>
      <trkpt lat="45.99513" lon="6.18171">
        <ele>575.9</ele>
        <time>2021-03-02T13:17:27Z</time>
        <extensions>
          <gpxtpx:TrackPointExtension xmlns:gpxtpx="http://www.garmin.com/xmlschemas/TrackPointExtension/v1">
            <gpxtpx:hr>114</gpxtpx:hr>
          </gpxtpx:TrackPointExtension>
        </extensions>
      </trkpt>
      <trkpt lat="45.9951" lon="6.1817">
        <ele>576.2</ele>
        <time>2021-03-02T13:17:28Z</time>
        <extensions>
          <gpxtpx:TrackPointExtension xmlns:gpxtpx="http://www.garmin.com/xmlschemas/TrackPointExtension/v1">
            <gpxtpx:hr>114</gpxtpx:hr>
          </gpxtpx:TrackPointExtension>
        </extensions>
      </trkpt>
      <trkpt lat="45.99507" lon="6.18169">
        <ele>576.4</ele>
        <time>2021-03-02T13:17:29Z</time>
        <extensions>
          <gpxtpx:TrackPointExtension xmlns:gpxtpx="http://www.garmin.com/xmlschemas/TrackPointExtension/v1">
            <gpxtpx:hr>114</gpxtpx:hr>
          </gpxtpx:TrackPointExtension>
        </extensions>
      </trkpt>
      <trkpt lat="45.99503" lon="6.18168">
        <ele>576.7</ele>
        <time>2021-03-02T13:17:30Z</time>
        <extensions>
          <gpxtpx:TrackPointExtension xmlns:gpxtpx="http://www.garmin.com/xmlschemas/TrackPointExtension/v1">
            <gpxtpx:hr>114</gpxtpx:hr>
          </gpxtpx:TrackPointExtension>
        </extensions>
      </trkpt>
      <trkpt lat="45.99501" lon="6.18167">
        <ele>577</ele>
        <time>2021-03-02T13:17:31Z</time>
        <extensions>
          <gpxtpx:TrackPointExtension xmlns:gpxtpx="http://www.garmin.com/xmlschemas/TrackPointExtension/v1">
            <gpxtpx:hr>114</gpxtpx:hr>
          </gpxtpx:TrackPointExtension>
        </extensions>
      </trkpt>
      <trkpt lat="45.99498" lon="6.18166">
        <ele>577.2</ele>
        <time>2021-03-02T13:17:32Z</time>
        <extensions>
          <gpxtpx:TrackPointExtension xmlns:gpxtpx="http://www.garmin.com/xmlschemas/TrackPointExtension/v1">
            <gpxtpx:hr>114</gpxtpx:hr>
          </gpxtpx:TrackPointExtension>
        </extensions>
      </trkpt>
      <trkpt lat="45.99496" lon="6.18165">
        <ele>577.4</ele>
        <time>2021-03-02T13:17:33Z</time>
        <extensions>
          <gpxtpx:TrackPointExtension xmlns:gpxtpx="http://www.garmin.com/xmlschemas/TrackPointExtension/v1">
            <gpxtpx:hr>114</gpxtpx:hr>
          </gpxtpx:TrackPointExtension>
        </extensions>
      </trkpt>
      <trkpt lat="45.99493" lon="6.18164">
        <ele>577.6</ele>
        <time>2021-03-02T13:17:34Z</time>
        <extensions>
          <gpxtpx:TrackPointExtension xmlns:gpxtpx="http://www.garmin.com/xmlschemas/TrackPointExtension/v1">
            <gpxtpx:hr>114</gpxtpx:hr>
          </gpxtpx:TrackPointExtension>
        </extensions>
      </trkpt>
      <trkpt lat="45.9949" lon="6.18163">
        <ele>577.9</ele>
        <time>2021-03-02T13:17:35Z</time>
        <extensions>
          <gpxtpx:TrackPointExtension xmlns:gpxtpx="http://www.garmin.com/xmlschemas/TrackPointExtension/v1">
            <gpxtpx:hr>114</gpxtpx:hr>
          </gpxtpx:TrackPointExtension>
        </extensions>
      </trkpt>
      <trkpt lat="45.99487" lon="6.18162">
        <ele>578.1</ele>
        <time>2021-03-02T13:17:36Z</time>
        <extensions>
          <gpxtpx:TrackPointExtension xmlns:gpxtpx="http://www.garmin.com/xmlschemas/TrackPointExtension/v1">
            <gpxtpx:hr>115</gpxtpx:hr>
          </gpxtpx:TrackPointExtension>
        </extensions>
      </trkpt>
      <trkpt lat="45.99485" lon="6.18161">
        <ele>578.4</ele>
        <time>2021-03-02T13:17:37Z</time>
        <extensions>
          <gpxtpx:TrackPointExtension xmlns:gpxtpx="http://www.garmin.com/xmlschemas/TrackPointExtension/v1">
            <gpxtpx:hr>115</gpxtpx:hr>
          </gpxtpx:TrackPointExtension>
        </extensions>
      </trkpt>
      <trkpt lat="45.99482" lon="6.1816">
        <ele>578.6</ele>
        <time>2021-03-02T13:17:38Z</time>
        <extensions>
          <gpxtpx:TrackPointExtension xmlns:gpxtpx="http://www.garmin.com/xmlschemas/TrackPointExtension/v1">
            <gpxtpx:hr>115</gpxtpx:hr>
          </gpxtpx:TrackPointExtension>
        </extensions>
      </trkpt>
      <trkpt lat="45.99479" lon="6.18158">
        <ele>578.9</ele>
        <time>2021-03-02T13:17:39Z</time>
        <extensions>
          <gpxtpx:TrackPointExtension xmlns:gpxtpx="http://www.garmin.com/xmlschemas/TrackPointExtension/v1">
            <gpxtpx:hr>115</gpxtpx:hr>
          </gpxtpx:TrackPointExtension>
        </extensions>
      </trkpt>
      <trkpt lat="45.99477" lon="6.18157">
        <ele>579.2</ele>
        <time>2021-03-02T13:17:40Z</time>
        <extensions>
          <gpxtpx:TrackPointExtension xmlns:gpxtpx="http://www.garmin.com/xmlschemas/TrackPointExtension/v1">
            <gpxtpx:hr>115</gpxtpx:hr>
          </gpxtpx:TrackPointExtension>
        </extensions>
      </trkpt>
      <trkpt lat="45.99474" lon="6.18155">
        <ele>579.4</ele>
        <time>2021-03-02T13:17:41Z</time>
        <extensions>
          <gpxtpx:TrackPointExtension xmlns:gpxtpx="http://www.garmin.com/xmlschemas/TrackPointExtension/v1">
            <gpxtpx:hr>115</gpxtpx:hr>
          </gpxtpx:TrackPointExtension>
        </extensions>
      </trkpt>
      <trkpt lat="45.99472" lon="6.18153">
        <ele>579.7</ele>
        <time>2021-03-02T13:17:42Z</time>
        <extensions>
          <gpxtpx:TrackPointExtension xmlns:gpxtpx="http://www.garmin.com/xmlschemas/TrackPointExtension/v1">
            <gpxtpx:hr>115</gpxtpx:hr>
          </gpxtpx:TrackPointExtension>
        </extensions>
      </trkpt>
      <trkpt lat="45.99469" lon="6.18151">
        <ele>580</ele>
        <time>2021-03-02T13:17:43Z</time>
        <extensions>
          <gpxtpx:TrackPointExtension xmlns:gpxtpx="http://www.garmin.com/xmlschemas/TrackPointExtension/v1">
            <gpxtpx:hr>115</gpxtpx:hr>
          </gpxtpx:TrackPointExtension>
        </extensions>
      </trkpt>
      <trkpt lat="45.99467" lon="6.18149">
        <ele>580.2</ele>
        <time>2021-03-02T13:17:44Z</time>
        <extensions>
          <gpxtpx:TrackPointExtension xmlns:gpxtpx="http://www.garmin.com/xmlschemas/TrackPointExtension/v1">
            <gpxtpx:hr>115</gpxtpx:hr>
          </gpxtpx:TrackPointExtension>
        </extensions>
      </trkpt>
      <trkpt lat="45.99465" lon="6.18146">
        <ele>580.5</ele>
        <time>2021-03-02T13:17:45Z</time>
        <extensions>
          <gpxtpx:TrackPointExtension xmlns:gpxtpx="http://www.garmin.com/xmlschemas/TrackPointExtension/v1">
            <gpxtpx:hr>115</gpxtpx:hr>
          </gpxtpx:TrackPointExtension>
        </extensions>
      </trkpt>
      <trkpt lat="45.99463" lon="6.18144">
        <ele>580.7</ele>
        <time>2021-03-02T13:17:46Z</time>
        <extensions>
          <gpxtpx:TrackPointExtension xmlns:gpxtpx="http://www.garmin.com/xmlschemas/TrackPointExtension/v1">
            <gpxtpx:hr>115</gpxtpx:hr>
          </gpxtpx:TrackPointExtension>
        </extensions>
      </trkpt>
      <trkpt lat="45.99462" lon="6.18141">
        <ele>580.9</ele>
        <time>2021-03-02T13:17:47Z</time>
        <extensions>
          <gpxtpx:TrackPointExtension xmlns:gpxtpx="http://www.garmin.com/xmlschemas/TrackPointExtension/v1">
            <gpxtpx:hr>115</gpxtpx:hr>
          </gpxtpx:TrackPointExtension>
        </extensions>
      </trkpt>
      <trkpt lat="45.9946" lon="6.18138">
        <ele>581.2</ele>
        <time>2021-03-02T13:17:48Z</time>
        <extensions>
          <gpxtpx:TrackPointExtension xmlns:gpxtpx="http://www.garmin.com/xmlschemas/TrackPointExtension/v1">
            <gpxtpx:hr>114</gpxtpx:hr>
          </gpxtpx:TrackPointExtension>
        </extensions>
      </trkpt>
      <trkpt lat="45.99458" lon="6.18135">
        <ele>581.5</ele>
        <time>2021-03-02T13:17:49Z</time>
        <extensions>
          <gpxtpx:TrackPointExtension xmlns:gpxtpx="http://www.garmin.com/xmlschemas/TrackPointExtension/v1">
            <gpxtpx:hr>114</gpxtpx:hr>
          </gpxtpx:TrackPointExtension>
        </extensions>
      </trkpt>
      <trkpt lat="45.99456" lon="6.18132">
        <ele>581.7</ele>
        <time>2021-03-02T13:17:50Z</time>
        <extensions>
          <gpxtpx:TrackPointExtension xmlns:gpxtpx="http://www.garmin.com/xmlschemas/TrackPointExtension/v1">
            <gpxtpx:hr>113</gpxtpx:hr>
          </gpxtpx:TrackPointExtension>
        </extensions>
      </trkpt>
      <trkpt lat="45.99454" lon="6.18129">
        <ele>582</ele>
        <time>2021-03-02T13:17:51Z</time>
        <extensions>
          <gpxtpx:TrackPointExtension xmlns:gpxtpx="http://www.garmin.com/xmlschemas/TrackPointExtension/v1">
            <gpxtpx:hr>113</gpxtpx:hr>
          </gpxtpx:TrackPointExtension>
        </extensions>
      </trkpt>
      <trkpt lat="45.99452" lon="6.18126">
        <ele>582.2</ele>
        <time>2021-03-02T13:17:52Z</time>
        <extensions>
          <gpxtpx:TrackPointExtension xmlns:gpxtpx="http://www.garmin.com/xmlschemas/TrackPointExtension/v1">
            <gpxtpx:hr>112</gpxtpx:hr>
          </gpxtpx:TrackPointExtension>
        </extensions>
      </trkpt>
      <trkpt lat="45.9945" lon="6.18123">
        <ele>582.4</ele>
        <time>2021-03-02T13:17:53Z</time>
        <extensions>
          <gpxtpx:TrackPointExtension xmlns:gpxtpx="http://www.garmin.com/xmlschemas/TrackPointExtension/v1">
            <gpxtpx:hr>112</gpxtpx:hr>
          </gpxtpx:TrackPointExtension>
        </extensions>
      </trkpt>
      <trkpt lat="45.99449" lon="6.18119">
        <ele>582.6</ele>
        <time>2021-03-02T13:17:54Z</time>
        <extensions>
          <gpxtpx:TrackPointExtension xmlns:gpxtpx="http://www.garmin.com/xmlschemas/TrackPointExtension/v1">
            <gpxtpx:hr>112</gpxtpx:hr>
          </gpxtpx:TrackPointExtension>
        </extensions>
      </trkpt>
      <trkpt lat="45.99448" lon="6.18116">
        <ele>582.9</ele>
        <time>2021-03-02T13:17:55Z</time>
        <extensions>
          <gpxtpx:TrackPointExtension xmlns:gpxtpx="http://www.garmin.com/xmlschemas/TrackPointExtension/v1">
            <gpxtpx:hr>112</gpxtpx:hr>
          </gpxtpx:TrackPointExtension>
        </extensions>
      </trkpt>
      <trkpt lat="45.99446" lon="6.18113">
        <ele>583.1</ele>
        <time>2021-03-02T13:17:56Z</time>
        <extensions>
          <gpxtpx:TrackPointExtension xmlns:gpxtpx="http://www.garmin.com/xmlschemas/TrackPointExtension/v1">
            <gpxtpx:hr>112</gpxtpx:hr>
          </gpxtpx:TrackPointExtension>
        </extensions>
      </trkpt>
      <trkpt lat="45.99444" lon="6.1811">
        <ele>583.3</ele>
        <time>2021-03-02T13:17:57Z</time>
        <extensions>
          <gpxtpx:TrackPointExtension xmlns:gpxtpx="http://www.garmin.com/xmlschemas/TrackPointExtension/v1">
            <gpxtpx:hr>112</gpxtpx:hr>
          </gpxtpx:TrackPointExtension>
        </extensions>
      </trkpt>
      <trkpt lat="45.99442" lon="6.18107">
        <ele>583.5</ele>
        <time>2021-03-02T13:17:58Z</time>
        <extensions>
          <gpxtpx:TrackPointExtension xmlns:gpxtpx="http://www.garmin.com/xmlschemas/TrackPointExtension/v1">
            <gpxtpx:hr>113</gpxtpx:hr>
          </gpxtpx:TrackPointExtension>
        </extensions>
      </trkpt>
      <trkpt lat="45.9944" lon="6.18104">
        <ele>583.7</ele>
        <time>2021-03-02T13:17:59Z</time>
        <extensions>
          <gpxtpx:TrackPointExtension xmlns:gpxtpx="http://www.garmin.com/xmlschemas/TrackPointExtension/v1">
            <gpxtpx:hr>113</gpxtpx:hr>
          </gpxtpx:TrackPointExtension>
        </extensions>
      </trkpt>
      <trkpt lat="45.99438" lon="6.18102">
        <ele>584</ele>
        <time>2021-03-02T13:18:00Z</time>
        <extensions>
          <gpxtpx:TrackPointExtension xmlns:gpxtpx="http://www.garmin.com/xmlschemas/TrackPointExtension/v1">
            <gpxtpx:hr>113</gpxtpx:hr>
          </gpxtpx:TrackPointExtension>
        </extensions>
      </trkpt>
      <trkpt lat="45.99435" lon="6.18099">
        <ele>584.2</ele>
        <time>2021-03-02T13:18:01Z</time>
        <extensions>
          <gpxtpx:TrackPointExtension xmlns:gpxtpx="http://www.garmin.com/xmlschemas/TrackPointExtension/v1">
            <gpxtpx:hr>112</gpxtpx:hr>
          </gpxtpx:TrackPointExtension>
        </extensions>
      </trkpt>
      <trkpt lat="45.99433" lon="6.18096">
        <ele>584.5</ele>
        <time>2021-03-02T13:18:02Z</time>
        <extensions>
          <gpxtpx:TrackPointExtension xmlns:gpxtpx="http://www.garmin.com/xmlschemas/TrackPointExtension/v1">
            <gpxtpx:hr>112</gpxtpx:hr>
          </gpxtpx:TrackPointExtension>
        </extensions>
      </trkpt>
      <trkpt lat="45.99431" lon="6.18093">
        <ele>584.7</ele>
        <time>2021-03-02T13:18:03Z</time>
        <extensions>
          <gpxtpx:TrackPointExtension xmlns:gpxtpx="http://www.garmin.com/xmlschemas/TrackPointExtension/v1">
            <gpxtpx:hr>112</gpxtpx:hr>
          </gpxtpx:TrackPointExtension>
        </extensions>
      </trkpt>
      <trkpt lat="45.99428" lon="6.18091">
        <ele>584.9</ele>
        <time>2021-03-02T13:18:04Z</time>
        <extensions>
          <gpxtpx:TrackPointExtension xmlns:gpxtpx="http://www.garmin.com/xmlschemas/TrackPointExtension/v1">
            <gpxtpx:hr>112</gpxtpx:hr>
          </gpxtpx:TrackPointExtension>
        </extensions>
      </trkpt>
      <trkpt lat="45.99426" lon="6.18088">
        <ele>585.2</ele>
        <time>2021-03-02T13:18:05Z</time>
        <extensions>
          <gpxtpx:TrackPointExtension xmlns:gpxtpx="http://www.garmin.com/xmlschemas/TrackPointExtension/v1">
            <gpxtpx:hr>112</gpxtpx:hr>
          </gpxtpx:TrackPointExtension>
        </extensions>
      </trkpt>
      <trkpt lat="45.99423" lon="6.18086">
        <ele>585.4</ele>
        <time>2021-03-02T13:18:06Z</time>
        <extensions>
          <gpxtpx:TrackPointExtension xmlns:gpxtpx="http://www.garmin.com/xmlschemas/TrackPointExtension/v1">
            <gpxtpx:hr>113</gpxtpx:hr>
          </gpxtpx:TrackPointExtension>
        </extensions>
      </trkpt>
      <trkpt lat="45.9942" lon="6.18084">
        <ele>585.6</ele>
        <time>2021-03-02T13:18:07Z</time>
        <extensions>
          <gpxtpx:TrackPointExtension xmlns:gpxtpx="http://www.garmin.com/xmlschemas/TrackPointExtension/v1">
            <gpxtpx:hr>113</gpxtpx:hr>
          </gpxtpx:TrackPointExtension>
        </extensions>
      </trkpt>
      <trkpt lat="45.99418" lon="6.18082">
        <ele>585.8</ele>
        <time>2021-03-02T13:18:08Z</time>
        <extensions>
          <gpxtpx:TrackPointExtension xmlns:gpxtpx="http://www.garmin.com/xmlschemas/TrackPointExtension/v1">
            <gpxtpx:hr>113</gpxtpx:hr>
          </gpxtpx:TrackPointExtension>
        </extensions>
      </trkpt>
      <trkpt lat="45.99415" lon="6.1808">
        <ele>586.1</ele>
        <time>2021-03-02T13:18:09Z</time>
        <extensions>
          <gpxtpx:TrackPointExtension xmlns:gpxtpx="http://www.garmin.com/xmlschemas/TrackPointExtension/v1">
            <gpxtpx:hr>114</gpxtpx:hr>
          </gpxtpx:TrackPointExtension>
        </extensions>
      </trkpt>
      <trkpt lat="45.99412" lon="6.18078">
        <ele>586.3</ele>
        <time>2021-03-02T13:18:10Z</time>
        <extensions>
          <gpxtpx:TrackPointExtension xmlns:gpxtpx="http://www.garmin.com/xmlschemas/TrackPointExtension/v1">
            <gpxtpx:hr>114</gpxtpx:hr>
          </gpxtpx:TrackPointExtension>
        </extensions>
      </trkpt>
      <trkpt lat="45.99409" lon="6.18076">
        <ele>586.5</ele>
        <time>2021-03-02T13:18:11Z</time>
        <extensions>
          <gpxtpx:TrackPointExtension xmlns:gpxtpx="http://www.garmin.com/xmlschemas/TrackPointExtension/v1">
            <gpxtpx:hr>115</gpxtpx:hr>
          </gpxtpx:TrackPointExtension>
        </extensions>
      </trkpt>
      <trkpt lat="45.99406" lon="6.18074">
        <ele>586.7</ele>
        <time>2021-03-02T13:18:12Z</time>
        <extensions>
          <gpxtpx:TrackPointExtension xmlns:gpxtpx="http://www.garmin.com/xmlschemas/TrackPointExtension/v1">
            <gpxtpx:hr>115</gpxtpx:hr>
          </gpxtpx:TrackPointExtension>
        </extensions>
      </trkpt>
      <trkpt lat="45.99404" lon="6.18073">
        <ele>587</ele>
        <time>2021-03-02T13:18:13Z</time>
        <extensions>
          <gpxtpx:TrackPointExtension xmlns:gpxtpx="http://www.garmin.com/xmlschemas/TrackPointExtension/v1">
            <gpxtpx:hr>115</gpxtpx:hr>
          </gpxtpx:TrackPointExtension>
        </extensions>
      </trkpt>
      <trkpt lat="45.99401" lon="6.18072">
        <ele>587.2</ele>
        <time>2021-03-02T13:18:14Z</time>
        <extensions>
          <gpxtpx:TrackPointExtension xmlns:gpxtpx="http://www.garmin.com/xmlschemas/TrackPointExtension/v1">
            <gpxtpx:hr>115</gpxtpx:hr>
          </gpxtpx:TrackPointExtension>
        </extensions>
      </trkpt>
      <trkpt lat="45.99398" lon="6.1807">
        <ele>587.4</ele>
        <time>2021-03-02T13:18:15Z</time>
        <extensions>
          <gpxtpx:TrackPointExtension xmlns:gpxtpx="http://www.garmin.com/xmlschemas/TrackPointExtension/v1">
            <gpxtpx:hr>115</gpxtpx:hr>
          </gpxtpx:TrackPointExtension>
        </extensions>
      </trkpt>
      <trkpt lat="45.99395" lon="6.18068">
        <ele>587.6</ele>
        <time>2021-03-02T13:18:16Z</time>
        <extensions>
          <gpxtpx:TrackPointExtension xmlns:gpxtpx="http://www.garmin.com/xmlschemas/TrackPointExtension/v1">
            <gpxtpx:hr>116</gpxtpx:hr>
          </gpxtpx:TrackPointExtension>
        </extensions>
      </trkpt>
      <trkpt lat="45.99392" lon="6.18066">
        <ele>587.9</ele>
        <time>2021-03-02T13:18:17Z</time>
        <extensions>
          <gpxtpx:TrackPointExtension xmlns:gpxtpx="http://www.garmin.com/xmlschemas/TrackPointExtension/v1">
            <gpxtpx:hr>116</gpxtpx:hr>
          </gpxtpx:TrackPointExtension>
        </extensions>
      </trkpt>
      <trkpt lat="45.99389" lon="6.18065">
        <ele>588.1</ele>
        <time>2021-03-02T13:18:18Z</time>
        <extensions>
          <gpxtpx:TrackPointExtension xmlns:gpxtpx="http://www.garmin.com/xmlschemas/TrackPointExtension/v1">
            <gpxtpx:hr>116</gpxtpx:hr>
          </gpxtpx:TrackPointExtension>
        </extensions>
      </trkpt>
      <trkpt lat="45.99386" lon="6.18063">
        <ele>588.3</ele>
        <time>2021-03-02T13:18:19Z</time>
        <extensions>
          <gpxtpx:TrackPointExtension xmlns:gpxtpx="http://www.garmin.com/xmlschemas/TrackPointExtension/v1">
            <gpxtpx:hr>117</gpxtpx:hr>
          </gpxtpx:TrackPointExtension>
        </extensions>
      </trkpt>
      <trkpt lat="45.99383" lon="6.18061">
        <ele>588.5</ele>
        <time>2021-03-02T13:18:20Z</time>
        <extensions>
          <gpxtpx:TrackPointExtension xmlns:gpxtpx="http://www.garmin.com/xmlschemas/TrackPointExtension/v1">
            <gpxtpx:hr>116</gpxtpx:hr>
          </gpxtpx:TrackPointExtension>
        </extensions>
      </trkpt>
      <trkpt lat="45.9938" lon="6.1806">
        <ele>588.8</ele>
        <time>2021-03-02T13:18:21Z</time>
        <extensions>
          <gpxtpx:TrackPointExtension xmlns:gpxtpx="http://www.garmin.com/xmlschemas/TrackPointExtension/v1">
            <gpxtpx:hr>116</gpxtpx:hr>
          </gpxtpx:TrackPointExtension>
        </extensions>
      </trkpt>
      <trkpt lat="45.99377" lon="6.18059">
        <ele>589</ele>
        <time>2021-03-02T13:18:22Z</time>
        <extensions>
          <gpxtpx:TrackPointExtension xmlns:gpxtpx="http://www.garmin.com/xmlschemas/TrackPointExtension/v1">
            <gpxtpx:hr>116</gpxtpx:hr>
          </gpxtpx:TrackPointExtension>
        </extensions>
      </trkpt>
      <trkpt lat="45.99374" lon="6.18057">
        <ele>589.3</ele>
        <time>2021-03-02T13:18:23Z</time>
        <extensions>
          <gpxtpx:TrackPointExtension xmlns:gpxtpx="http://www.garmin.com/xmlschemas/TrackPointExtension/v1">
            <gpxtpx:hr>115</gpxtpx:hr>
          </gpxtpx:TrackPointExtension>
        </extensions>
      </trkpt>
      <trkpt lat="45.99372" lon="6.18056">
        <ele>589.5</ele>
        <time>2021-03-02T13:18:24Z</time>
        <extensions>
          <gpxtpx:TrackPointExtension xmlns:gpxtpx="http://www.garmin.com/xmlschemas/TrackPointExtension/v1">
            <gpxtpx:hr>115</gpxtpx:hr>
          </gpxtpx:TrackPointExtension>
        </extensions>
      </trkpt>
      <trkpt lat="45.9937" lon="6.18055">
        <ele>589.7</ele>
        <time>2021-03-02T13:18:25Z</time>
        <extensions>
          <gpxtpx:TrackPointExtension xmlns:gpxtpx="http://www.garmin.com/xmlschemas/TrackPointExtension/v1">
            <gpxtpx:hr>116</gpxtpx:hr>
          </gpxtpx:TrackPointExtension>
        </extensions>
      </trkpt>
      <trkpt lat="45.99367" lon="6.18054">
        <ele>589.9</ele>
        <time>2021-03-02T13:18:26Z</time>
        <extensions>
          <gpxtpx:TrackPointExtension xmlns:gpxtpx="http://www.garmin.com/xmlschemas/TrackPointExtension/v1">
            <gpxtpx:hr>116</gpxtpx:hr>
          </gpxtpx:TrackPointExtension>
        </extensions>
      </trkpt>
      <trkpt lat="45.99365" lon="6.18053">
        <ele>590.1</ele>
        <time>2021-03-02T13:18:27Z</time>
        <extensions>
          <gpxtpx:TrackPointExtension xmlns:gpxtpx="http://www.garmin.com/xmlschemas/TrackPointExtension/v1">
            <gpxtpx:hr>116</gpxtpx:hr>
          </gpxtpx:TrackPointExtension>
        </extensions>
      </trkpt>
      <trkpt lat="45.99363" lon="6.18053">
        <ele>590.3</ele>
        <time>2021-03-02T13:18:28Z</time>
        <extensions>
          <gpxtpx:TrackPointExtension xmlns:gpxtpx="http://www.garmin.com/xmlschemas/TrackPointExtension/v1">
            <gpxtpx:hr>116</gpxtpx:hr>
          </gpxtpx:TrackPointExtension>
        </extensions>
      </trkpt>
      <trkpt lat="45.9936" lon="6.18052">
        <ele>590.5</ele>
        <time>2021-03-02T13:18:29Z</time>
        <extensions>
          <gpxtpx:TrackPointExtension xmlns:gpxtpx="http://www.garmin.com/xmlschemas/TrackPointExtension/v1">
            <gpxtpx:hr>116</gpxtpx:hr>
          </gpxtpx:TrackPointExtension>
        </extensions>
      </trkpt>
      <trkpt lat="45.99357" lon="6.18051">
        <ele>590.8</ele>
        <time>2021-03-02T13:18:30Z</time>
        <extensions>
          <gpxtpx:TrackPointExtension xmlns:gpxtpx="http://www.garmin.com/xmlschemas/TrackPointExtension/v1">
            <gpxtpx:hr>116</gpxtpx:hr>
          </gpxtpx:TrackPointExtension>
        </extensions>
      </trkpt>
      <trkpt lat="45.99355" lon="6.1805">
        <ele>591</ele>
        <time>2021-03-02T13:18:31Z</time>
        <extensions>
          <gpxtpx:TrackPointExtension xmlns:gpxtpx="http://www.garmin.com/xmlschemas/TrackPointExtension/v1">
            <gpxtpx:hr>116</gpxtpx:hr>
          </gpxtpx:TrackPointExtension>
        </extensions>
      </trkpt>
      <trkpt lat="45.99352" lon="6.1805">
        <ele>591.3</ele>
        <time>2021-03-02T13:18:32Z</time>
        <extensions>
          <gpxtpx:TrackPointExtension xmlns:gpxtpx="http://www.garmin.com/xmlschemas/TrackPointExtension/v1">
            <gpxtpx:hr>116</gpxtpx:hr>
          </gpxtpx:TrackPointExtension>
        </extensions>
      </trkpt>
      <trkpt lat="45.99349" lon="6.1805">
        <ele>591.5</ele>
        <time>2021-03-02T13:18:33Z</time>
        <extensions>
          <gpxtpx:TrackPointExtension xmlns:gpxtpx="http://www.garmin.com/xmlschemas/TrackPointExtension/v1">
            <gpxtpx:hr>116</gpxtpx:hr>
          </gpxtpx:TrackPointExtension>
        </extensions>
      </trkpt>
      <trkpt lat="45.99346" lon="6.1805">
        <ele>591.8</ele>
        <time>2021-03-02T13:18:34Z</time>
        <extensions>
          <gpxtpx:TrackPointExtension xmlns:gpxtpx="http://www.garmin.com/xmlschemas/TrackPointExtension/v1">
            <gpxtpx:hr>116</gpxtpx:hr>
          </gpxtpx:TrackPointExtension>
        </extensions>
      </trkpt>
      <trkpt lat="45.99343" lon="6.18051">
        <ele>592</ele>
        <time>2021-03-02T13:18:35Z</time>
        <extensions>
          <gpxtpx:TrackPointExtension xmlns:gpxtpx="http://www.garmin.com/xmlschemas/TrackPointExtension/v1">
            <gpxtpx:hr>116</gpxtpx:hr>
          </gpxtpx:TrackPointExtension>
        </extensions>
      </trkpt>
      <trkpt lat="45.99341" lon="6.18051">
        <ele>592.3</ele>
        <time>2021-03-02T13:18:36Z</time>
        <extensions>
          <gpxtpx:TrackPointExtension xmlns:gpxtpx="http://www.garmin.com/xmlschemas/TrackPointExtension/v1">
            <gpxtpx:hr>117</gpxtpx:hr>
          </gpxtpx:TrackPointExtension>
        </extensions>
      </trkpt>
      <trkpt lat="45.99338" lon="6.18052">
        <ele>592.5</ele>
        <time>2021-03-02T13:18:37Z</time>
        <extensions>
          <gpxtpx:TrackPointExtension xmlns:gpxtpx="http://www.garmin.com/xmlschemas/TrackPointExtension/v1">
            <gpxtpx:hr>118</gpxtpx:hr>
          </gpxtpx:TrackPointExtension>
        </extensions>
      </trkpt>
      <trkpt lat="45.99335" lon="6.18052">
        <ele>592.8</ele>
        <time>2021-03-02T13:18:38Z</time>
        <extensions>
          <gpxtpx:TrackPointExtension xmlns:gpxtpx="http://www.garmin.com/xmlschemas/TrackPointExtension/v1">
            <gpxtpx:hr>119</gpxtpx:hr>
          </gpxtpx:TrackPointExtension>
        </extensions>
      </trkpt>
      <trkpt lat="45.99332" lon="6.18053">
        <ele>593</ele>
        <time>2021-03-02T13:18:39Z</time>
        <extensions>
          <gpxtpx:TrackPointExtension xmlns:gpxtpx="http://www.garmin.com/xmlschemas/TrackPointExtension/v1">
            <gpxtpx:hr>119</gpxtpx:hr>
          </gpxtpx:TrackPointExtension>
        </extensions>
      </trkpt>
      <trkpt lat="45.9933" lon="6.18054">
        <ele>593.2</ele>
        <time>2021-03-02T13:18:40Z</time>
        <extensions>
          <gpxtpx:TrackPointExtension xmlns:gpxtpx="http://www.garmin.com/xmlschemas/TrackPointExtension/v1">
            <gpxtpx:hr>119</gpxtpx:hr>
          </gpxtpx:TrackPointExtension>
        </extensions>
      </trkpt>
      <trkpt lat="45.99328" lon="6.18055">
        <ele>593.4</ele>
        <time>2021-03-02T13:18:41Z</time>
        <extensions>
          <gpxtpx:TrackPointExtension xmlns:gpxtpx="http://www.garmin.com/xmlschemas/TrackPointExtension/v1">
            <gpxtpx:hr>119</gpxtpx:hr>
          </gpxtpx:TrackPointExtension>
        </extensions>
      </trkpt>
      <trkpt lat="45.99326" lon="6.18056">
        <ele>593.7</ele>
        <time>2021-03-02T13:18:42Z</time>
        <extensions>
          <gpxtpx:TrackPointExtension xmlns:gpxtpx="http://www.garmin.com/xmlschemas/TrackPointExtension/v1">
            <gpxtpx:hr>119</gpxtpx:hr>
          </gpxtpx:TrackPointExtension>
        </extensions>
      </trkpt>
      <trkpt lat="45.99324" lon="6.18057">
        <ele>593.8</ele>
        <time>2021-03-02T13:18:43Z</time>
        <extensions>
          <gpxtpx:TrackPointExtension xmlns:gpxtpx="http://www.garmin.com/xmlschemas/TrackPointExtension/v1">
            <gpxtpx:hr>119</gpxtpx:hr>
          </gpxtpx:TrackPointExtension>
        </extensions>
      </trkpt>
      <trkpt lat="45.99322" lon="6.18059">
        <ele>594.1</ele>
        <time>2021-03-02T13:18:44Z</time>
        <extensions>
          <gpxtpx:TrackPointExtension xmlns:gpxtpx="http://www.garmin.com/xmlschemas/TrackPointExtension/v1">
            <gpxtpx:hr>120</gpxtpx:hr>
          </gpxtpx:TrackPointExtension>
        </extensions>
      </trkpt>
      <trkpt lat="45.9932" lon="6.18061">
        <ele>594.3</ele>
        <time>2021-03-02T13:18:45Z</time>
        <extensions>
          <gpxtpx:TrackPointExtension xmlns:gpxtpx="http://www.garmin.com/xmlschemas/TrackPointExtension/v1">
            <gpxtpx:hr>120</gpxtpx:hr>
          </gpxtpx:TrackPointExtension>
        </extensions>
      </trkpt>
      <trkpt lat="45.99317" lon="6.18063">
        <ele>594.5</ele>
        <time>2021-03-02T13:18:46Z</time>
        <extensions>
          <gpxtpx:TrackPointExtension xmlns:gpxtpx="http://www.garmin.com/xmlschemas/TrackPointExtension/v1">
            <gpxtpx:hr>120</gpxtpx:hr>
          </gpxtpx:TrackPointExtension>
        </extensions>
      </trkpt>
      <trkpt lat="45.99315" lon="6.18065">
        <ele>594.7</ele>
        <time>2021-03-02T13:18:47Z</time>
        <extensions>
          <gpxtpx:TrackPointExtension xmlns:gpxtpx="http://www.garmin.com/xmlschemas/TrackPointExtension/v1">
            <gpxtpx:hr>120</gpxtpx:hr>
          </gpxtpx:TrackPointExtension>
        </extensions>
      </trkpt>
      <trkpt lat="45.99313" lon="6.18067">
        <ele>594.9</ele>
        <time>2021-03-02T13:18:48Z</time>
        <extensions>
          <gpxtpx:TrackPointExtension xmlns:gpxtpx="http://www.garmin.com/xmlschemas/TrackPointExtension/v1">
            <gpxtpx:hr>120</gpxtpx:hr>
          </gpxtpx:TrackPointExtension>
        </extensions>
      </trkpt>
      <trkpt lat="45.99311" lon="6.18069">
        <ele>595.1</ele>
        <time>2021-03-02T13:18:49Z</time>
        <extensions>
          <gpxtpx:TrackPointExtension xmlns:gpxtpx="http://www.garmin.com/xmlschemas/TrackPointExtension/v1">
            <gpxtpx:hr>120</gpxtpx:hr>
          </gpxtpx:TrackPointExtension>
        </extensions>
      </trkpt>
      <trkpt lat="45.99309" lon="6.18072">
        <ele>595.3</ele>
        <time>2021-03-02T13:18:50Z</time>
        <extensions>
          <gpxtpx:TrackPointExtension xmlns:gpxtpx="http://www.garmin.com/xmlschemas/TrackPointExtension/v1">
            <gpxtpx:hr>120</gpxtpx:hr>
          </gpxtpx:TrackPointExtension>
        </extensions>
      </trkpt>
      <trkpt lat="45.99308" lon="6.18075">
        <ele>595.6</ele>
        <time>2021-03-02T13:18:51Z</time>
        <extensions>
          <gpxtpx:TrackPointExtension xmlns:gpxtpx="http://www.garmin.com/xmlschemas/TrackPointExtension/v1">
            <gpxtpx:hr>120</gpxtpx:hr>
          </gpxtpx:TrackPointExtension>
        </extensions>
      </trkpt>
      <trkpt lat="45.99306" lon="6.18078">
        <ele>595.8</ele>
        <time>2021-03-02T13:18:52Z</time>
        <extensions>
          <gpxtpx:TrackPointExtension xmlns:gpxtpx="http://www.garmin.com/xmlschemas/TrackPointExtension/v1">
            <gpxtpx:hr>120</gpxtpx:hr>
          </gpxtpx:TrackPointExtension>
        </extensions>
      </trkpt>
      <trkpt lat="45.99304" lon="6.18081">
        <ele>596</ele>
        <time>2021-03-02T13:18:53Z</time>
        <extensions>
          <gpxtpx:TrackPointExtension xmlns:gpxtpx="http://www.garmin.com/xmlschemas/TrackPointExtension/v1">
            <gpxtpx:hr>120</gpxtpx:hr>
          </gpxtpx:TrackPointExtension>
        </extensions>
      </trkpt>
      <trkpt lat="45.99303" lon="6.18084">
        <ele>596.2</ele>
        <time>2021-03-02T13:18:54Z</time>
        <extensions>
          <gpxtpx:TrackPointExtension xmlns:gpxtpx="http://www.garmin.com/xmlschemas/TrackPointExtension/v1">
            <gpxtpx:hr>120</gpxtpx:hr>
          </gpxtpx:TrackPointExtension>
        </extensions>
      </trkpt>
      <trkpt lat="45.99301" lon="6.18087">
        <ele>596.4</ele>
        <time>2021-03-02T13:18:55Z</time>
        <extensions>
          <gpxtpx:TrackPointExtension xmlns:gpxtpx="http://www.garmin.com/xmlschemas/TrackPointExtension/v1">
            <gpxtpx:hr>120</gpxtpx:hr>
          </gpxtpx:TrackPointExtension>
        </extensions>
      </trkpt>
      <trkpt lat="45.993" lon="6.1809">
        <ele>596.6</ele>
        <time>2021-03-02T13:18:56Z</time>
        <extensions>
          <gpxtpx:TrackPointExtension xmlns:gpxtpx="http://www.garmin.com/xmlschemas/TrackPointExtension/v1">
            <gpxtpx:hr>120</gpxtpx:hr>
          </gpxtpx:TrackPointExtension>
        </extensions>
      </trkpt>
      <trkpt lat="45.99298" lon="6.18093">
        <ele>596.8</ele>
        <time>2021-03-02T13:18:57Z</time>
        <extensions>
          <gpxtpx:TrackPointExtension xmlns:gpxtpx="http://www.garmin.com/xmlschemas/TrackPointExtension/v1">
            <gpxtpx:hr>120</gpxtpx:hr>
          </gpxtpx:TrackPointExtension>
        </extensions>
      </trkpt>
      <trkpt lat="45.99297" lon="6.18097">
        <ele>597</ele>
        <time>2021-03-02T13:18:58Z</time>
        <extensions>
          <gpxtpx:TrackPointExtension xmlns:gpxtpx="http://www.garmin.com/xmlschemas/TrackPointExtension/v1">
            <gpxtpx:hr>120</gpxtpx:hr>
          </gpxtpx:TrackPointExtension>
        </extensions>
      </trkpt>
      <trkpt lat="45.99296" lon="6.18101">
        <ele>597.2</ele>
        <time>2021-03-02T13:18:59Z</time>
        <extensions>
          <gpxtpx:TrackPointExtension xmlns:gpxtpx="http://www.garmin.com/xmlschemas/TrackPointExtension/v1">
            <gpxtpx:hr>120</gpxtpx:hr>
          </gpxtpx:TrackPointExtension>
        </extensions>
      </trkpt>
      <trkpt lat="45.99295" lon="6.18105">
        <ele>597.4</ele>
        <time>2021-03-02T13:19:00Z</time>
        <extensions>
          <gpxtpx:TrackPointExtension xmlns:gpxtpx="http://www.garmin.com/xmlschemas/TrackPointExtension/v1">
            <gpxtpx:hr>120</gpxtpx:hr>
          </gpxtpx:TrackPointExtension>
        </extensions>
      </trkpt>
      <trkpt lat="45.99294" lon="6.18109">
        <ele>597.6</ele>
        <time>2021-03-02T13:19:01Z</time>
        <extensions>
          <gpxtpx:TrackPointExtension xmlns:gpxtpx="http://www.garmin.com/xmlschemas/TrackPointExtension/v1">
            <gpxtpx:hr>120</gpxtpx:hr>
          </gpxtpx:TrackPointExtension>
        </extensions>
      </trkpt>
      <trkpt lat="45.99293" lon="6.18113">
        <ele>597.8</ele>
        <time>2021-03-02T13:19:02Z</time>
        <extensions>
          <gpxtpx:TrackPointExtension xmlns:gpxtpx="http://www.garmin.com/xmlschemas/TrackPointExtension/v1">
            <gpxtpx:hr>119</gpxtpx:hr>
          </gpxtpx:TrackPointExtension>
        </extensions>
      </trkpt>
      <trkpt lat="45.99293" lon="6.18117">
        <ele>598</ele>
        <time>2021-03-02T13:19:03Z</time>
        <extensions>
          <gpxtpx:TrackPointExtension xmlns:gpxtpx="http://www.garmin.com/xmlschemas/TrackPointExtension/v1">
            <gpxtpx:hr>119</gpxtpx:hr>
          </gpxtpx:TrackPointExtension>
        </extensions>
      </trkpt>
      <trkpt lat="45.99292" lon="6.18121">
        <ele>598.1</ele>
        <time>2021-03-02T13:19:04Z</time>
        <extensions>
          <gpxtpx:TrackPointExtension xmlns:gpxtpx="http://www.garmin.com/xmlschemas/TrackPointExtension/v1">
            <gpxtpx:hr>119</gpxtpx:hr>
          </gpxtpx:TrackPointExtension>
        </extensions>
      </trkpt>
      <trkpt lat="45.99291" lon="6.18124">
        <ele>598.3</ele>
        <time>2021-03-02T13:19:05Z</time>
        <extensions>
          <gpxtpx:TrackPointExtension xmlns:gpxtpx="http://www.garmin.com/xmlschemas/TrackPointExtension/v1">
            <gpxtpx:hr>119</gpxtpx:hr>
          </gpxtpx:TrackPointExtension>
        </extensions>
      </trkpt>
      <trkpt lat="45.9929" lon="6.18128">
        <ele>598.5</ele>
        <time>2021-03-02T13:19:06Z</time>
        <extensions>
          <gpxtpx:TrackPointExtension xmlns:gpxtpx="http://www.garmin.com/xmlschemas/TrackPointExtension/v1">
            <gpxtpx:hr>119</gpxtpx:hr>
          </gpxtpx:TrackPointExtension>
        </extensions>
      </trkpt>
      <trkpt lat="45.99289" lon="6.18132">
        <ele>598.7</ele>
        <time>2021-03-02T13:19:07Z</time>
        <extensions>
          <gpxtpx:TrackPointExtension xmlns:gpxtpx="http://www.garmin.com/xmlschemas/TrackPointExtension/v1">
            <gpxtpx:hr>119</gpxtpx:hr>
          </gpxtpx:TrackPointExtension>
        </extensions>
      </trkpt>
      <trkpt lat="45.99288" lon="6.18136">
        <ele>598.9</ele>
        <time>2021-03-02T13:19:08Z</time>
        <extensions>
          <gpxtpx:TrackPointExtension xmlns:gpxtpx="http://www.garmin.com/xmlschemas/TrackPointExtension/v1">
            <gpxtpx:hr>119</gpxtpx:hr>
          </gpxtpx:TrackPointExtension>
        </extensions>
      </trkpt>
      <trkpt lat="45.99288" lon="6.1814">
        <ele>599</ele>
        <time>2021-03-02T13:19:09Z</time>
        <extensions>
          <gpxtpx:TrackPointExtension xmlns:gpxtpx="http://www.garmin.com/xmlschemas/TrackPointExtension/v1">
            <gpxtpx:hr>119</gpxtpx:hr>
          </gpxtpx:TrackPointExtension>
        </extensions>
      </trkpt>
      <trkpt lat="45.99287" lon="6.18144">
        <ele>599.2</ele>
        <time>2021-03-02T13:19:10Z</time>
        <extensions>
          <gpxtpx:TrackPointExtension xmlns:gpxtpx="http://www.garmin.com/xmlschemas/TrackPointExtension/v1">
            <gpxtpx:hr>120</gpxtpx:hr>
          </gpxtpx:TrackPointExtension>
        </extensions>
      </trkpt>
      <trkpt lat="45.99286" lon="6.18149">
        <ele>599.4</ele>
        <time>2021-03-02T13:19:11Z</time>
        <extensions>
          <gpxtpx:TrackPointExtension xmlns:gpxtpx="http://www.garmin.com/xmlschemas/TrackPointExtension/v1">
            <gpxtpx:hr>120</gpxtpx:hr>
          </gpxtpx:TrackPointExtension>
        </extensions>
      </trkpt>
      <trkpt lat="45.99285" lon="6.18153">
        <ele>599.6</ele>
        <time>2021-03-02T13:19:12Z</time>
        <extensions>
          <gpxtpx:TrackPointExtension xmlns:gpxtpx="http://www.garmin.com/xmlschemas/TrackPointExtension/v1">
            <gpxtpx:hr>120</gpxtpx:hr>
          </gpxtpx:TrackPointExtension>
        </extensions>
      </trkpt>
      <trkpt lat="45.99283" lon="6.18157">
        <ele>599.7</ele>
        <time>2021-03-02T13:19:13Z</time>
        <extensions>
          <gpxtpx:TrackPointExtension xmlns:gpxtpx="http://www.garmin.com/xmlschemas/TrackPointExtension/v1">
            <gpxtpx:hr>120</gpxtpx:hr>
          </gpxtpx:TrackPointExtension>
        </extensions>
      </trkpt>
      <trkpt lat="45.99282" lon="6.18161">
        <ele>599.9</ele>
        <time>2021-03-02T13:19:14Z</time>
        <extensions>
          <gpxtpx:TrackPointExtension xmlns:gpxtpx="http://www.garmin.com/xmlschemas/TrackPointExtension/v1">
            <gpxtpx:hr>120</gpxtpx:hr>
          </gpxtpx:TrackPointExtension>
        </extensions>
      </trkpt>
      <trkpt lat="45.9928" lon="6.18165">
        <ele>600.1</ele>
        <time>2021-03-02T13:19:15Z</time>
        <extensions>
          <gpxtpx:TrackPointExtension xmlns:gpxtpx="http://www.garmin.com/xmlschemas/TrackPointExtension/v1">
            <gpxtpx:hr>120</gpxtpx:hr>
          </gpxtpx:TrackPointExtension>
        </extensions>
      </trkpt>
      <trkpt lat="45.99279" lon="6.18169">
        <ele>600.3</ele>
        <time>2021-03-02T13:19:16Z</time>
        <extensions>
          <gpxtpx:TrackPointExtension xmlns:gpxtpx="http://www.garmin.com/xmlschemas/TrackPointExtension/v1">
            <gpxtpx:hr>120</gpxtpx:hr>
          </gpxtpx:TrackPointExtension>
        </extensions>
      </trkpt>
      <trkpt lat="45.99277" lon="6.18173">
        <ele>600.4</ele>
        <time>2021-03-02T13:19:17Z</time>
        <extensions>
          <gpxtpx:TrackPointExtension xmlns:gpxtpx="http://www.garmin.com/xmlschemas/TrackPointExtension/v1">
            <gpxtpx:hr>120</gpxtpx:hr>
          </gpxtpx:TrackPointExtension>
        </extensions>
      </trkpt>
      <trkpt lat="45.99274" lon="6.18176">
        <ele>600.6</ele>
        <time>2021-03-02T13:19:18Z</time>
        <extensions>
          <gpxtpx:TrackPointExtension xmlns:gpxtpx="http://www.garmin.com/xmlschemas/TrackPointExtension/v1">
            <gpxtpx:hr>120</gpxtpx:hr>
          </gpxtpx:TrackPointExtension>
        </extensions>
      </trkpt>
      <trkpt lat="45.99272" lon="6.1818">
        <ele>600.8</ele>
        <time>2021-03-02T13:19:19Z</time>
        <extensions>
          <gpxtpx:TrackPointExtension xmlns:gpxtpx="http://www.garmin.com/xmlschemas/TrackPointExtension/v1">
            <gpxtpx:hr>120</gpxtpx:hr>
          </gpxtpx:TrackPointExtension>
        </extensions>
      </trkpt>
      <trkpt lat="45.9927" lon="6.18183">
        <ele>600.9</ele>
        <time>2021-03-02T13:19:20Z</time>
        <extensions>
          <gpxtpx:TrackPointExtension xmlns:gpxtpx="http://www.garmin.com/xmlschemas/TrackPointExtension/v1">
            <gpxtpx:hr>120</gpxtpx:hr>
          </gpxtpx:TrackPointExtension>
        </extensions>
      </trkpt>
      <trkpt lat="45.99268" lon="6.18186">
        <ele>601.1</ele>
        <time>2021-03-02T13:19:21Z</time>
        <extensions>
          <gpxtpx:TrackPointExtension xmlns:gpxtpx="http://www.garmin.com/xmlschemas/TrackPointExtension/v1">
            <gpxtpx:hr>120</gpxtpx:hr>
          </gpxtpx:TrackPointExtension>
        </extensions>
      </trkpt>
      <trkpt lat="45.99265" lon="6.18189">
        <ele>601.2</ele>
        <time>2021-03-02T13:19:22Z</time>
        <extensions>
          <gpxtpx:TrackPointExtension xmlns:gpxtpx="http://www.garmin.com/xmlschemas/TrackPointExtension/v1">
            <gpxtpx:hr>120</gpxtpx:hr>
          </gpxtpx:TrackPointExtension>
        </extensions>
      </trkpt>
      <trkpt lat="45.99262" lon="6.18192">
        <ele>601.4</ele>
        <time>2021-03-02T13:19:23Z</time>
        <extensions>
          <gpxtpx:TrackPointExtension xmlns:gpxtpx="http://www.garmin.com/xmlschemas/TrackPointExtension/v1">
            <gpxtpx:hr>120</gpxtpx:hr>
          </gpxtpx:TrackPointExtension>
        </extensions>
      </trkpt>
      <trkpt lat="45.99259" lon="6.18194">
        <ele>601.5</ele>
        <time>2021-03-02T13:19:24Z</time>
        <extensions>
          <gpxtpx:TrackPointExtension xmlns:gpxtpx="http://www.garmin.com/xmlschemas/TrackPointExtension/v1">
            <gpxtpx:hr>120</gpxtpx:hr>
          </gpxtpx:TrackPointExtension>
        </extensions>
      </trkpt>
      <trkpt lat="45.99257" lon="6.18196">
        <ele>601.7</ele>
        <time>2021-03-02T13:19:25Z</time>
        <extensions>
          <gpxtpx:TrackPointExtension xmlns:gpxtpx="http://www.garmin.com/xmlschemas/TrackPointExtension/v1">
            <gpxtpx:hr>120</gpxtpx:hr>
          </gpxtpx:TrackPointExtension>
        </extensions>
      </trkpt>
      <trkpt lat="45.99254" lon="6.18198">
        <ele>601.8</ele>
        <time>2021-03-02T13:19:26Z</time>
        <extensions>
          <gpxtpx:TrackPointExtension xmlns:gpxtpx="http://www.garmin.com/xmlschemas/TrackPointExtension/v1">
            <gpxtpx:hr>120</gpxtpx:hr>
          </gpxtpx:TrackPointExtension>
        </extensions>
      </trkpt>
      <trkpt lat="45.99251" lon="6.182">
        <ele>601.9</ele>
        <time>2021-03-02T13:19:27Z</time>
        <extensions>
          <gpxtpx:TrackPointExtension xmlns:gpxtpx="http://www.garmin.com/xmlschemas/TrackPointExtension/v1">
            <gpxtpx:hr>120</gpxtpx:hr>
          </gpxtpx:TrackPointExtension>
        </extensions>
      </trkpt>
      <trkpt lat="45.99247" lon="6.18201">
        <ele>602.1</ele>
        <time>2021-03-02T13:19:28Z</time>
        <extensions>
          <gpxtpx:TrackPointExtension xmlns:gpxtpx="http://www.garmin.com/xmlschemas/TrackPointExtension/v1">
            <gpxtpx:hr>120</gpxtpx:hr>
          </gpxtpx:TrackPointExtension>
        </extensions>
      </trkpt>
      <trkpt lat="45.99244" lon="6.18202">
        <ele>602.2</ele>
        <time>2021-03-02T13:19:29Z</time>
        <extensions>
          <gpxtpx:TrackPointExtension xmlns:gpxtpx="http://www.garmin.com/xmlschemas/TrackPointExtension/v1">
            <gpxtpx:hr>119</gpxtpx:hr>
          </gpxtpx:TrackPointExtension>
        </extensions>
      </trkpt>
      <trkpt lat="45.99241" lon="6.18203">
        <ele>602.4</ele>
        <time>2021-03-02T13:19:30Z</time>
        <extensions>
          <gpxtpx:TrackPointExtension xmlns:gpxtpx="http://www.garmin.com/xmlschemas/TrackPointExtension/v1">
            <gpxtpx:hr>119</gpxtpx:hr>
          </gpxtpx:TrackPointExtension>
        </extensions>
      </trkpt>
      <trkpt lat="45.99237" lon="6.18203">
        <ele>602.6</ele>
        <time>2021-03-02T13:19:31Z</time>
        <extensions>
          <gpxtpx:TrackPointExtension xmlns:gpxtpx="http://www.garmin.com/xmlschemas/TrackPointExtension/v1">
            <gpxtpx:hr>119</gpxtpx:hr>
          </gpxtpx:TrackPointExtension>
        </extensions>
      </trkpt>
      <trkpt lat="45.99233" lon="6.18203">
        <ele>602.7</ele>
        <time>2021-03-02T13:19:32Z</time>
        <extensions>
          <gpxtpx:TrackPointExtension xmlns:gpxtpx="http://www.garmin.com/xmlschemas/TrackPointExtension/v1">
            <gpxtpx:hr>119</gpxtpx:hr>
          </gpxtpx:TrackPointExtension>
        </extensions>
      </trkpt>
      <trkpt lat="45.9923" lon="6.18203">
        <ele>602.9</ele>
        <time>2021-03-02T13:19:33Z</time>
        <extensions>
          <gpxtpx:TrackPointExtension xmlns:gpxtpx="http://www.garmin.com/xmlschemas/TrackPointExtension/v1">
            <gpxtpx:hr>119</gpxtpx:hr>
          </gpxtpx:TrackPointExtension>
        </extensions>
      </trkpt>
      <trkpt lat="45.99226" lon="6.18202">
        <ele>603</ele>
        <time>2021-03-02T13:19:34Z</time>
        <extensions>
          <gpxtpx:TrackPointExtension xmlns:gpxtpx="http://www.garmin.com/xmlschemas/TrackPointExtension/v1">
            <gpxtpx:hr>119</gpxtpx:hr>
          </gpxtpx:TrackPointExtension>
        </extensions>
      </trkpt>
      <trkpt lat="45.99223" lon="6.18201">
        <ele>603.2</ele>
        <time>2021-03-02T13:19:35Z</time>
        <extensions>
          <gpxtpx:TrackPointExtension xmlns:gpxtpx="http://www.garmin.com/xmlschemas/TrackPointExtension/v1">
            <gpxtpx:hr>118</gpxtpx:hr>
          </gpxtpx:TrackPointExtension>
        </extensions>
      </trkpt>
      <trkpt lat="45.99219" lon="6.182">
        <ele>603.4</ele>
        <time>2021-03-02T13:19:36Z</time>
        <extensions>
          <gpxtpx:TrackPointExtension xmlns:gpxtpx="http://www.garmin.com/xmlschemas/TrackPointExtension/v1">
            <gpxtpx:hr>118</gpxtpx:hr>
          </gpxtpx:TrackPointExtension>
        </extensions>
      </trkpt>
      <trkpt lat="45.99216" lon="6.18199">
        <ele>603.5</ele>
        <time>2021-03-02T13:19:37Z</time>
        <extensions>
          <gpxtpx:TrackPointExtension xmlns:gpxtpx="http://www.garmin.com/xmlschemas/TrackPointExtension/v1">
            <gpxtpx:hr>118</gpxtpx:hr>
          </gpxtpx:TrackPointExtension>
        </extensions>
      </trkpt>
      <trkpt lat="45.99212" lon="6.18197">
        <ele>603.8</ele>
        <time>2021-03-02T13:19:38Z</time>
        <extensions>
          <gpxtpx:TrackPointExtension xmlns:gpxtpx="http://www.garmin.com/xmlschemas/TrackPointExtension/v1">
            <gpxtpx:hr>118</gpxtpx:hr>
          </gpxtpx:TrackPointExtension>
        </extensions>
      </trkpt>
      <trkpt lat="45.99209" lon="6.18195">
        <ele>604</ele>
        <time>2021-03-02T13:19:39Z</time>
        <extensions>
          <gpxtpx:TrackPointExtension xmlns:gpxtpx="http://www.garmin.com/xmlschemas/TrackPointExtension/v1">
            <gpxtpx:hr>117</gpxtpx:hr>
          </gpxtpx:TrackPointExtension>
        </extensions>
      </trkpt>
      <trkpt lat="45.99206" lon="6.18193">
        <ele>604.2</ele>
        <time>2021-03-02T13:19:40Z</time>
        <extensions>
          <gpxtpx:TrackPointExtension xmlns:gpxtpx="http://www.garmin.com/xmlschemas/TrackPointExtension/v1">
            <gpxtpx:hr>116</gpxtpx:hr>
          </gpxtpx:TrackPointExtension>
        </extensions>
      </trkpt>
      <trkpt lat="45.99203" lon="6.18191">
        <ele>604.4</ele>
        <time>2021-03-02T13:19:41Z</time>
        <extensions>
          <gpxtpx:TrackPointExtension xmlns:gpxtpx="http://www.garmin.com/xmlschemas/TrackPointExtension/v1">
            <gpxtpx:hr>116</gpxtpx:hr>
          </gpxtpx:TrackPointExtension>
        </extensions>
      </trkpt>
      <trkpt lat="45.992" lon="6.18188">
        <ele>604.6</ele>
        <time>2021-03-02T13:19:42Z</time>
        <extensions>
          <gpxtpx:TrackPointExtension xmlns:gpxtpx="http://www.garmin.com/xmlschemas/TrackPointExtension/v1">
            <gpxtpx:hr>116</gpxtpx:hr>
          </gpxtpx:TrackPointExtension>
        </extensions>
      </trkpt>
      <trkpt lat="45.99197" lon="6.18185">
        <ele>604.8</ele>
        <time>2021-03-02T13:19:43Z</time>
        <extensions>
          <gpxtpx:TrackPointExtension xmlns:gpxtpx="http://www.garmin.com/xmlschemas/TrackPointExtension/v1">
            <gpxtpx:hr>116</gpxtpx:hr>
          </gpxtpx:TrackPointExtension>
        </extensions>
      </trkpt>
      <trkpt lat="45.99195" lon="6.18183">
        <ele>605.1</ele>
        <time>2021-03-02T13:19:44Z</time>
        <extensions>
          <gpxtpx:TrackPointExtension xmlns:gpxtpx="http://www.garmin.com/xmlschemas/TrackPointExtension/v1">
            <gpxtpx:hr>117</gpxtpx:hr>
          </gpxtpx:TrackPointExtension>
        </extensions>
      </trkpt>
      <trkpt lat="45.99192" lon="6.1818">
        <ele>605.3</ele>
        <time>2021-03-02T13:19:45Z</time>
        <extensions>
          <gpxtpx:TrackPointExtension xmlns:gpxtpx="http://www.garmin.com/xmlschemas/TrackPointExtension/v1">
            <gpxtpx:hr>117</gpxtpx:hr>
          </gpxtpx:TrackPointExtension>
        </extensions>
      </trkpt>
      <trkpt lat="45.99189" lon="6.18177">
        <ele>605.6</ele>
        <time>2021-03-02T13:19:46Z</time>
        <extensions>
          <gpxtpx:TrackPointExtension xmlns:gpxtpx="http://www.garmin.com/xmlschemas/TrackPointExtension/v1">
            <gpxtpx:hr>117</gpxtpx:hr>
          </gpxtpx:TrackPointExtension>
        </extensions>
      </trkpt>
      <trkpt lat="45.99187" lon="6.18174">
        <ele>605.8</ele>
        <time>2021-03-02T13:19:47Z</time>
        <extensions>
          <gpxtpx:TrackPointExtension xmlns:gpxtpx="http://www.garmin.com/xmlschemas/TrackPointExtension/v1">
            <gpxtpx:hr>117</gpxtpx:hr>
          </gpxtpx:TrackPointExtension>
        </extensions>
      </trkpt>
      <trkpt lat="45.99184" lon="6.18171">
        <ele>606.1</ele>
        <time>2021-03-02T13:19:48Z</time>
        <extensions>
          <gpxtpx:TrackPointExtension xmlns:gpxtpx="http://www.garmin.com/xmlschemas/TrackPointExtension/v1">
            <gpxtpx:hr>117</gpxtpx:hr>
          </gpxtpx:TrackPointExtension>
        </extensions>
      </trkpt>
      <trkpt lat="45.99182" lon="6.18168">
        <ele>606.3</ele>
        <time>2021-03-02T13:19:49Z</time>
        <extensions>
          <gpxtpx:TrackPointExtension xmlns:gpxtpx="http://www.garmin.com/xmlschemas/TrackPointExtension/v1">
            <gpxtpx:hr>118</gpxtpx:hr>
          </gpxtpx:TrackPointExtension>
        </extensions>
      </trkpt>
      <trkpt lat="45.99179" lon="6.18165">
        <ele>606.6</ele>
        <time>2021-03-02T13:19:50Z</time>
        <extensions>
          <gpxtpx:TrackPointExtension xmlns:gpxtpx="http://www.garmin.com/xmlschemas/TrackPointExtension/v1">
            <gpxtpx:hr>118</gpxtpx:hr>
          </gpxtpx:TrackPointExtension>
        </extensions>
      </trkpt>
      <trkpt lat="45.99177" lon="6.18162">
        <ele>606.8</ele>
        <time>2021-03-02T13:19:51Z</time>
        <extensions>
          <gpxtpx:TrackPointExtension xmlns:gpxtpx="http://www.garmin.com/xmlschemas/TrackPointExtension/v1">
            <gpxtpx:hr>119</gpxtpx:hr>
          </gpxtpx:TrackPointExtension>
        </extensions>
      </trkpt>
      <trkpt lat="45.99174" lon="6.1816">
        <ele>607.1</ele>
        <time>2021-03-02T13:19:52Z</time>
        <extensions>
          <gpxtpx:TrackPointExtension xmlns:gpxtpx="http://www.garmin.com/xmlschemas/TrackPointExtension/v1">
            <gpxtpx:hr>119</gpxtpx:hr>
          </gpxtpx:TrackPointExtension>
        </extensions>
      </trkpt>
      <trkpt lat="45.99171" lon="6.18157">
        <ele>607.3</ele>
        <time>2021-03-02T13:19:53Z</time>
        <extensions>
          <gpxtpx:TrackPointExtension xmlns:gpxtpx="http://www.garmin.com/xmlschemas/TrackPointExtension/v1">
            <gpxtpx:hr>119</gpxtpx:hr>
          </gpxtpx:TrackPointExtension>
        </extensions>
      </trkpt>
      <trkpt lat="45.99168" lon="6.18155">
        <ele>607.6</ele>
        <time>2021-03-02T13:19:54Z</time>
        <extensions>
          <gpxtpx:TrackPointExtension xmlns:gpxtpx="http://www.garmin.com/xmlschemas/TrackPointExtension/v1">
            <gpxtpx:hr>119</gpxtpx:hr>
          </gpxtpx:TrackPointExtension>
        </extensions>
      </trkpt>
      <trkpt lat="45.99166" lon="6.18153">
        <ele>607.8</ele>
        <time>2021-03-02T13:19:55Z</time>
        <extensions>
          <gpxtpx:TrackPointExtension xmlns:gpxtpx="http://www.garmin.com/xmlschemas/TrackPointExtension/v1">
            <gpxtpx:hr>119</gpxtpx:hr>
          </gpxtpx:TrackPointExtension>
        </extensions>
      </trkpt>
      <trkpt lat="45.99163" lon="6.18151">
        <ele>608.1</ele>
        <time>2021-03-02T13:19:56Z</time>
        <extensions>
          <gpxtpx:TrackPointExtension xmlns:gpxtpx="http://www.garmin.com/xmlschemas/TrackPointExtension/v1">
            <gpxtpx:hr>119</gpxtpx:hr>
          </gpxtpx:TrackPointExtension>
        </extensions>
      </trkpt>
      <trkpt lat="45.99159" lon="6.18149">
        <ele>608.4</ele>
        <time>2021-03-02T13:19:57Z</time>
        <extensions>
          <gpxtpx:TrackPointExtension xmlns:gpxtpx="http://www.garmin.com/xmlschemas/TrackPointExtension/v1">
            <gpxtpx:hr>119</gpxtpx:hr>
          </gpxtpx:TrackPointExtension>
        </extensions>
      </trkpt>
      <trkpt lat="45.99156" lon="6.18148">
        <ele>608.6</ele>
        <time>2021-03-02T13:19:58Z</time>
        <extensions>
          <gpxtpx:TrackPointExtension xmlns:gpxtpx="http://www.garmin.com/xmlschemas/TrackPointExtension/v1">
            <gpxtpx:hr>119</gpxtpx:hr>
          </gpxtpx:TrackPointExtension>
        </extensions>
      </trkpt>
      <trkpt lat="45.99153" lon="6.18147">
        <ele>608.9</ele>
        <time>2021-03-02T13:19:59Z</time>
        <extensions>
          <gpxtpx:TrackPointExtension xmlns:gpxtpx="http://www.garmin.com/xmlschemas/TrackPointExtension/v1">
            <gpxtpx:hr>119</gpxtpx:hr>
          </gpxtpx:TrackPointExtension>
        </extensions>
      </trkpt>
      <trkpt lat="45.9915" lon="6.18146">
        <ele>609.1</ele>
        <time>2021-03-02T13:20:00Z</time>
        <extensions>
          <gpxtpx:TrackPointExtension xmlns:gpxtpx="http://www.garmin.com/xmlschemas/TrackPointExtension/v1">
            <gpxtpx:hr>120</gpxtpx:hr>
          </gpxtpx:TrackPointExtension>
        </extensions>
      </trkpt>
      <trkpt lat="45.99147" lon="6.18145">
        <ele>609.3</ele>
        <time>2021-03-02T13:20:01Z</time>
        <extensions>
          <gpxtpx:TrackPointExtension xmlns:gpxtpx="http://www.garmin.com/xmlschemas/TrackPointExtension/v1">
            <gpxtpx:hr>120</gpxtpx:hr>
          </gpxtpx:TrackPointExtension>
        </extensions>
      </trkpt>
      <trkpt lat="45.99144" lon="6.18145">
        <ele>609.5</ele>
        <time>2021-03-02T13:20:02Z</time>
        <extensions>
          <gpxtpx:TrackPointExtension xmlns:gpxtpx="http://www.garmin.com/xmlschemas/TrackPointExtension/v1">
            <gpxtpx:hr>119</gpxtpx:hr>
          </gpxtpx:TrackPointExtension>
        </extensions>
      </trkpt>
      <trkpt lat="45.99141" lon="6.18145">
        <ele>609.8</ele>
        <time>2021-03-02T13:20:03Z</time>
        <extensions>
          <gpxtpx:TrackPointExtension xmlns:gpxtpx="http://www.garmin.com/xmlschemas/TrackPointExtension/v1">
            <gpxtpx:hr>119</gpxtpx:hr>
          </gpxtpx:TrackPointExtension>
        </extensions>
      </trkpt>
      <trkpt lat="45.99138" lon="6.18145">
        <ele>609.9</ele>
        <time>2021-03-02T13:20:04Z</time>
        <extensions>
          <gpxtpx:TrackPointExtension xmlns:gpxtpx="http://www.garmin.com/xmlschemas/TrackPointExtension/v1">
            <gpxtpx:hr>119</gpxtpx:hr>
          </gpxtpx:TrackPointExtension>
        </extensions>
      </trkpt>
      <trkpt lat="45.99135" lon="6.18146">
        <ele>610.2</ele>
        <time>2021-03-02T13:20:05Z</time>
        <extensions>
          <gpxtpx:TrackPointExtension xmlns:gpxtpx="http://www.garmin.com/xmlschemas/TrackPointExtension/v1">
            <gpxtpx:hr>119</gpxtpx:hr>
          </gpxtpx:TrackPointExtension>
        </extensions>
      </trkpt>
      <trkpt lat="45.99132" lon="6.18147">
        <ele>610.4</ele>
        <time>2021-03-02T13:20:06Z</time>
        <extensions>
          <gpxtpx:TrackPointExtension xmlns:gpxtpx="http://www.garmin.com/xmlschemas/TrackPointExtension/v1">
            <gpxtpx:hr>119</gpxtpx:hr>
          </gpxtpx:TrackPointExtension>
        </extensions>
      </trkpt>
      <trkpt lat="45.99129" lon="6.18148">
        <ele>610.6</ele>
        <time>2021-03-02T13:20:07Z</time>
        <extensions>
          <gpxtpx:TrackPointExtension xmlns:gpxtpx="http://www.garmin.com/xmlschemas/TrackPointExtension/v1">
            <gpxtpx:hr>119</gpxtpx:hr>
          </gpxtpx:TrackPointExtension>
        </extensions>
      </trkpt>
      <trkpt lat="45.99126" lon="6.18149">
        <ele>610.8</ele>
        <time>2021-03-02T13:20:08Z</time>
        <extensions>
          <gpxtpx:TrackPointExtension xmlns:gpxtpx="http://www.garmin.com/xmlschemas/TrackPointExtension/v1">
            <gpxtpx:hr>119</gpxtpx:hr>
          </gpxtpx:TrackPointExtension>
        </extensions>
      </trkpt>
      <trkpt lat="45.99123" lon="6.1815">
        <ele>611</ele>
        <time>2021-03-02T13:20:09Z</time>
        <extensions>
          <gpxtpx:TrackPointExtension xmlns:gpxtpx="http://www.garmin.com/xmlschemas/TrackPointExtension/v1">
            <gpxtpx:hr>119</gpxtpx:hr>
          </gpxtpx:TrackPointExtension>
        </extensions>
      </trkpt>
      <trkpt lat="45.99121" lon="6.18152">
        <ele>611.2</ele>
        <time>2021-03-02T13:20:10Z</time>
        <extensions>
          <gpxtpx:TrackPointExtension xmlns:gpxtpx="http://www.garmin.com/xmlschemas/TrackPointExtension/v1">
            <gpxtpx:hr>119</gpxtpx:hr>
          </gpxtpx:TrackPointExtension>
        </extensions>
      </trkpt>
      <trkpt lat="45.99118" lon="6.18154">
        <ele>611.4</ele>
        <time>2021-03-02T13:20:11Z</time>
        <extensions>
          <gpxtpx:TrackPointExtension xmlns:gpxtpx="http://www.garmin.com/xmlschemas/TrackPointExtension/v1">
            <gpxtpx:hr>119</gpxtpx:hr>
          </gpxtpx:TrackPointExtension>
        </extensions>
      </trkpt>
      <trkpt lat="45.99115" lon="6.18156">
        <ele>611.6</ele>
        <time>2021-03-02T13:20:12Z</time>
        <extensions>
          <gpxtpx:TrackPointExtension xmlns:gpxtpx="http://www.garmin.com/xmlschemas/TrackPointExtension/v1">
            <gpxtpx:hr>119</gpxtpx:hr>
          </gpxtpx:TrackPointExtension>
        </extensions>
      </trkpt>
      <trkpt lat="45.99113" lon="6.18157">
        <ele>611.8</ele>
        <time>2021-03-02T13:20:13Z</time>
        <extensions>
          <gpxtpx:TrackPointExtension xmlns:gpxtpx="http://www.garmin.com/xmlschemas/TrackPointExtension/v1">
            <gpxtpx:hr>119</gpxtpx:hr>
          </gpxtpx:TrackPointExtension>
        </extensions>
      </trkpt>
      <trkpt lat="45.9911" lon="6.18159">
        <ele>612</ele>
        <time>2021-03-02T13:20:14Z</time>
        <extensions>
          <gpxtpx:TrackPointExtension xmlns:gpxtpx="http://www.garmin.com/xmlschemas/TrackPointExtension/v1">
            <gpxtpx:hr>119</gpxtpx:hr>
          </gpxtpx:TrackPointExtension>
        </extensions>
      </trkpt>
      <trkpt lat="45.99107" lon="6.18161">
        <ele>612.2</ele>
        <time>2021-03-02T13:20:15Z</time>
        <extensions>
          <gpxtpx:TrackPointExtension xmlns:gpxtpx="http://www.garmin.com/xmlschemas/TrackPointExtension/v1">
            <gpxtpx:hr>119</gpxtpx:hr>
          </gpxtpx:TrackPointExtension>
        </extensions>
      </trkpt>
      <trkpt lat="45.99105" lon="6.18163">
        <ele>612.4</ele>
        <time>2021-03-02T13:20:16Z</time>
        <extensions>
          <gpxtpx:TrackPointExtension xmlns:gpxtpx="http://www.garmin.com/xmlschemas/TrackPointExtension/v1">
            <gpxtpx:hr>118</gpxtpx:hr>
          </gpxtpx:TrackPointExtension>
        </extensions>
      </trkpt>
      <trkpt lat="45.99102" lon="6.18165">
        <ele>612.6</ele>
        <time>2021-03-02T13:20:17Z</time>
        <extensions>
          <gpxtpx:TrackPointExtension xmlns:gpxtpx="http://www.garmin.com/xmlschemas/TrackPointExtension/v1">
            <gpxtpx:hr>118</gpxtpx:hr>
          </gpxtpx:TrackPointExtension>
        </extensions>
      </trkpt>
      <trkpt lat="45.991" lon="6.18167">
        <ele>612.8</ele>
        <time>2021-03-02T13:20:18Z</time>
        <extensions>
          <gpxtpx:TrackPointExtension xmlns:gpxtpx="http://www.garmin.com/xmlschemas/TrackPointExtension/v1">
            <gpxtpx:hr>118</gpxtpx:hr>
          </gpxtpx:TrackPointExtension>
        </extensions>
      </trkpt>
      <trkpt lat="45.99097" lon="6.18169">
        <ele>613</ele>
        <time>2021-03-02T13:20:19Z</time>
        <extensions>
          <gpxtpx:TrackPointExtension xmlns:gpxtpx="http://www.garmin.com/xmlschemas/TrackPointExtension/v1">
            <gpxtpx:hr>118</gpxtpx:hr>
          </gpxtpx:TrackPointExtension>
        </extensions>
      </trkpt>
      <trkpt lat="45.99095" lon="6.18171">
        <ele>613.2</ele>
        <time>2021-03-02T13:20:20Z</time>
        <extensions>
          <gpxtpx:TrackPointExtension xmlns:gpxtpx="http://www.garmin.com/xmlschemas/TrackPointExtension/v1">
            <gpxtpx:hr>118</gpxtpx:hr>
          </gpxtpx:TrackPointExtension>
        </extensions>
      </trkpt>
      <trkpt lat="45.99092" lon="6.18172">
        <ele>613.4</ele>
        <time>2021-03-02T13:20:21Z</time>
        <extensions>
          <gpxtpx:TrackPointExtension xmlns:gpxtpx="http://www.garmin.com/xmlschemas/TrackPointExtension/v1">
            <gpxtpx:hr>118</gpxtpx:hr>
          </gpxtpx:TrackPointExtension>
        </extensions>
      </trkpt>
      <trkpt lat="45.9909" lon="6.18174">
        <ele>613.7</ele>
        <time>2021-03-02T13:20:22Z</time>
        <extensions>
          <gpxtpx:TrackPointExtension xmlns:gpxtpx="http://www.garmin.com/xmlschemas/TrackPointExtension/v1">
            <gpxtpx:hr>118</gpxtpx:hr>
          </gpxtpx:TrackPointExtension>
        </extensions>
      </trkpt>
      <trkpt lat="45.99087" lon="6.18176">
        <ele>613.8</ele>
        <time>2021-03-02T13:20:23Z</time>
        <extensions>
          <gpxtpx:TrackPointExtension xmlns:gpxtpx="http://www.garmin.com/xmlschemas/TrackPointExtension/v1">
            <gpxtpx:hr>118</gpxtpx:hr>
          </gpxtpx:TrackPointExtension>
        </extensions>
      </trkpt>
      <trkpt lat="45.99085" lon="6.18177">
        <ele>614.5</ele>
        <time>2021-03-02T13:20:24Z</time>
        <extensions>
          <gpxtpx:TrackPointExtension xmlns:gpxtpx="http://www.garmin.com/xmlschemas/TrackPointExtension/v1">
            <gpxtpx:hr>118</gpxtpx:hr>
          </gpxtpx:TrackPointExtension>
        </extensions>
      </trkpt>
      <trkpt lat="45.99082" lon="6.18179">
        <ele>614.7</ele>
        <time>2021-03-02T13:20:25Z</time>
        <extensions>
          <gpxtpx:TrackPointExtension xmlns:gpxtpx="http://www.garmin.com/xmlschemas/TrackPointExtension/v1">
            <gpxtpx:hr>118</gpxtpx:hr>
          </gpxtpx:TrackPointExtension>
        </extensions>
      </trkpt>
      <trkpt lat="45.9908" lon="6.1818">
        <ele>614.9</ele>
        <time>2021-03-02T13:20:26Z</time>
        <extensions>
          <gpxtpx:TrackPointExtension xmlns:gpxtpx="http://www.garmin.com/xmlschemas/TrackPointExtension/v1">
            <gpxtpx:hr>118</gpxtpx:hr>
          </gpxtpx:TrackPointExtension>
        </extensions>
      </trkpt>
      <trkpt lat="45.99077" lon="6.18181">
        <ele>615.1</ele>
        <time>2021-03-02T13:20:27Z</time>
        <extensions>
          <gpxtpx:TrackPointExtension xmlns:gpxtpx="http://www.garmin.com/xmlschemas/TrackPointExtension/v1">
            <gpxtpx:hr>118</gpxtpx:hr>
          </gpxtpx:TrackPointExtension>
        </extensions>
      </trkpt>
      <trkpt lat="45.99074" lon="6.18182">
        <ele>615.3</ele>
        <time>2021-03-02T13:20:28Z</time>
        <extensions>
          <gpxtpx:TrackPointExtension xmlns:gpxtpx="http://www.garmin.com/xmlschemas/TrackPointExtension/v1">
            <gpxtpx:hr>118</gpxtpx:hr>
          </gpxtpx:TrackPointExtension>
        </extensions>
      </trkpt>
      <trkpt lat="45.99072" lon="6.18183">
        <ele>615.5</ele>
        <time>2021-03-02T13:20:29Z</time>
        <extensions>
          <gpxtpx:TrackPointExtension xmlns:gpxtpx="http://www.garmin.com/xmlschemas/TrackPointExtension/v1">
            <gpxtpx:hr>118</gpxtpx:hr>
          </gpxtpx:TrackPointExtension>
        </extensions>
      </trkpt>
      <trkpt lat="45.99069" lon="6.18183">
        <ele>615.7</ele>
        <time>2021-03-02T13:20:30Z</time>
        <extensions>
          <gpxtpx:TrackPointExtension xmlns:gpxtpx="http://www.garmin.com/xmlschemas/TrackPointExtension/v1">
            <gpxtpx:hr>118</gpxtpx:hr>
          </gpxtpx:TrackPointExtension>
        </extensions>
      </trkpt>
      <trkpt lat="45.99066" lon="6.18184">
        <ele>615.9</ele>
        <time>2021-03-02T13:20:31Z</time>
        <extensions>
          <gpxtpx:TrackPointExtension xmlns:gpxtpx="http://www.garmin.com/xmlschemas/TrackPointExtension/v1">
            <gpxtpx:hr>118</gpxtpx:hr>
          </gpxtpx:TrackPointExtension>
        </extensions>
      </trkpt>
      <trkpt lat="45.99063" lon="6.18184">
        <ele>616.2</ele>
        <time>2021-03-02T13:20:32Z</time>
        <extensions>
          <gpxtpx:TrackPointExtension xmlns:gpxtpx="http://www.garmin.com/xmlschemas/TrackPointExtension/v1">
            <gpxtpx:hr>118</gpxtpx:hr>
          </gpxtpx:TrackPointExtension>
        </extensions>
      </trkpt>
      <trkpt lat="45.9906" lon="6.18185">
        <ele>616.4</ele>
        <time>2021-03-02T13:20:33Z</time>
        <extensions>
          <gpxtpx:TrackPointExtension xmlns:gpxtpx="http://www.garmin.com/xmlschemas/TrackPointExtension/v1">
            <gpxtpx:hr>118</gpxtpx:hr>
          </gpxtpx:TrackPointExtension>
        </extensions>
      </trkpt>
      <trkpt lat="45.99058" lon="6.18186">
        <ele>616.6</ele>
        <time>2021-03-02T13:20:34Z</time>
        <extensions>
          <gpxtpx:TrackPointExtension xmlns:gpxtpx="http://www.garmin.com/xmlschemas/TrackPointExtension/v1">
            <gpxtpx:hr>118</gpxtpx:hr>
          </gpxtpx:TrackPointExtension>
        </extensions>
      </trkpt>
      <trkpt lat="45.99055" lon="6.18186">
        <ele>616.8</ele>
        <time>2021-03-02T13:20:35Z</time>
        <extensions>
          <gpxtpx:TrackPointExtension xmlns:gpxtpx="http://www.garmin.com/xmlschemas/TrackPointExtension/v1">
            <gpxtpx:hr>118</gpxtpx:hr>
          </gpxtpx:TrackPointExtension>
        </extensions>
      </trkpt>
      <trkpt lat="45.99052" lon="6.18187">
        <ele>617</ele>
        <time>2021-03-02T13:20:36Z</time>
        <extensions>
          <gpxtpx:TrackPointExtension xmlns:gpxtpx="http://www.garmin.com/xmlschemas/TrackPointExtension/v1">
            <gpxtpx:hr>118</gpxtpx:hr>
          </gpxtpx:TrackPointExtension>
        </extensions>
      </trkpt>
      <trkpt lat="45.99049" lon="6.18187">
        <ele>617.2</ele>
        <time>2021-03-02T13:20:37Z</time>
        <extensions>
          <gpxtpx:TrackPointExtension xmlns:gpxtpx="http://www.garmin.com/xmlschemas/TrackPointExtension/v1">
            <gpxtpx:hr>118</gpxtpx:hr>
          </gpxtpx:TrackPointExtension>
        </extensions>
      </trkpt>
      <trkpt lat="45.99046" lon="6.18187">
        <ele>617.4</ele>
        <time>2021-03-02T13:20:38Z</time>
        <extensions>
          <gpxtpx:TrackPointExtension xmlns:gpxtpx="http://www.garmin.com/xmlschemas/TrackPointExtension/v1">
            <gpxtpx:hr>117</gpxtpx:hr>
          </gpxtpx:TrackPointExtension>
        </extensions>
      </trkpt>
      <trkpt lat="45.99043" lon="6.18188">
        <ele>617.6</ele>
        <time>2021-03-02T13:20:39Z</time>
        <extensions>
          <gpxtpx:TrackPointExtension xmlns:gpxtpx="http://www.garmin.com/xmlschemas/TrackPointExtension/v1">
            <gpxtpx:hr>117</gpxtpx:hr>
          </gpxtpx:TrackPointExtension>
        </extensions>
      </trkpt>
      <trkpt lat="45.9904" lon="6.18188">
        <ele>617.8</ele>
        <time>2021-03-02T13:20:40Z</time>
        <extensions>
          <gpxtpx:TrackPointExtension xmlns:gpxtpx="http://www.garmin.com/xmlschemas/TrackPointExtension/v1">
            <gpxtpx:hr>117</gpxtpx:hr>
          </gpxtpx:TrackPointExtension>
        </extensions>
      </trkpt>
      <trkpt lat="45.99037" lon="6.18188">
        <ele>618</ele>
        <time>2021-03-02T13:20:41Z</time>
        <extensions>
          <gpxtpx:TrackPointExtension xmlns:gpxtpx="http://www.garmin.com/xmlschemas/TrackPointExtension/v1">
            <gpxtpx:hr>118</gpxtpx:hr>
          </gpxtpx:TrackPointExtension>
        </extensions>
      </trkpt>
      <trkpt lat="45.99035" lon="6.18189">
        <ele>618.3</ele>
        <time>2021-03-02T13:20:42Z</time>
        <extensions>
          <gpxtpx:TrackPointExtension xmlns:gpxtpx="http://www.garmin.com/xmlschemas/TrackPointExtension/v1">
            <gpxtpx:hr>118</gpxtpx:hr>
          </gpxtpx:TrackPointExtension>
        </extensions>
      </trkpt>
      <trkpt lat="45.99032" lon="6.18189">
        <ele>618.5</ele>
        <time>2021-03-02T13:20:43Z</time>
        <extensions>
          <gpxtpx:TrackPointExtension xmlns:gpxtpx="http://www.garmin.com/xmlschemas/TrackPointExtension/v1">
            <gpxtpx:hr>119</gpxtpx:hr>
          </gpxtpx:TrackPointExtension>
        </extensions>
      </trkpt>
      <trkpt lat="45.99029" lon="6.1819">
        <ele>618.7</ele>
        <time>2021-03-02T13:20:44Z</time>
        <extensions>
          <gpxtpx:TrackPointExtension xmlns:gpxtpx="http://www.garmin.com/xmlschemas/TrackPointExtension/v1">
            <gpxtpx:hr>119</gpxtpx:hr>
          </gpxtpx:TrackPointExtension>
        </extensions>
      </trkpt>
      <trkpt lat="45.99026" lon="6.1819">
        <ele>618.9</ele>
        <time>2021-03-02T13:20:45Z</time>
        <extensions>
          <gpxtpx:TrackPointExtension xmlns:gpxtpx="http://www.garmin.com/xmlschemas/TrackPointExtension/v1">
            <gpxtpx:hr>120</gpxtpx:hr>
          </gpxtpx:TrackPointExtension>
        </extensions>
      </trkpt>
      <trkpt lat="45.99023" lon="6.1819">
        <ele>619.1</ele>
        <time>2021-03-02T13:20:46Z</time>
        <extensions>
          <gpxtpx:TrackPointExtension xmlns:gpxtpx="http://www.garmin.com/xmlschemas/TrackPointExtension/v1">
            <gpxtpx:hr>120</gpxtpx:hr>
          </gpxtpx:TrackPointExtension>
        </extensions>
      </trkpt>
      <trkpt lat="45.9902" lon="6.18191">
        <ele>619.3</ele>
        <time>2021-03-02T13:20:47Z</time>
        <extensions>
          <gpxtpx:TrackPointExtension xmlns:gpxtpx="http://www.garmin.com/xmlschemas/TrackPointExtension/v1">
            <gpxtpx:hr>120</gpxtpx:hr>
          </gpxtpx:TrackPointExtension>
        </extensions>
      </trkpt>
      <trkpt lat="45.99017" lon="6.18191">
        <ele>619.6</ele>
        <time>2021-03-02T13:20:48Z</time>
        <extensions>
          <gpxtpx:TrackPointExtension xmlns:gpxtpx="http://www.garmin.com/xmlschemas/TrackPointExtension/v1">
            <gpxtpx:hr>119</gpxtpx:hr>
          </gpxtpx:TrackPointExtension>
        </extensions>
      </trkpt>
      <trkpt lat="45.99014" lon="6.18191">
        <ele>619.8</ele>
        <time>2021-03-02T13:20:49Z</time>
        <extensions>
          <gpxtpx:TrackPointExtension xmlns:gpxtpx="http://www.garmin.com/xmlschemas/TrackPointExtension/v1">
            <gpxtpx:hr>119</gpxtpx:hr>
          </gpxtpx:TrackPointExtension>
        </extensions>
      </trkpt>
      <trkpt lat="45.99011" lon="6.18191">
        <ele>620</ele>
        <time>2021-03-02T13:20:50Z</time>
        <extensions>
          <gpxtpx:TrackPointExtension xmlns:gpxtpx="http://www.garmin.com/xmlschemas/TrackPointExtension/v1">
            <gpxtpx:hr>119</gpxtpx:hr>
          </gpxtpx:TrackPointExtension>
        </extensions>
      </trkpt>
      <trkpt lat="45.99008" lon="6.18191">
        <ele>620.2</ele>
        <time>2021-03-02T13:20:51Z</time>
        <extensions>
          <gpxtpx:TrackPointExtension xmlns:gpxtpx="http://www.garmin.com/xmlschemas/TrackPointExtension/v1">
            <gpxtpx:hr>119</gpxtpx:hr>
          </gpxtpx:TrackPointExtension>
        </extensions>
      </trkpt>
      <trkpt lat="45.99005" lon="6.18192">
        <ele>620.4</ele>
        <time>2021-03-02T13:20:52Z</time>
        <extensions>
          <gpxtpx:TrackPointExtension xmlns:gpxtpx="http://www.garmin.com/xmlschemas/TrackPointExtension/v1">
            <gpxtpx:hr>120</gpxtpx:hr>
          </gpxtpx:TrackPointExtension>
        </extensions>
      </trkpt>
      <trkpt lat="45.99002" lon="6.18192">
        <ele>620.6</ele>
        <time>2021-03-02T13:20:53Z</time>
        <extensions>
          <gpxtpx:TrackPointExtension xmlns:gpxtpx="http://www.garmin.com/xmlschemas/TrackPointExtension/v1">
            <gpxtpx:hr>120</gpxtpx:hr>
          </gpxtpx:TrackPointExtension>
        </extensions>
      </trkpt>
      <trkpt lat="45.98999" lon="6.18192">
        <ele>620.9</ele>
        <time>2021-03-02T13:20:54Z</time>
        <extensions>
          <gpxtpx:TrackPointExtension xmlns:gpxtpx="http://www.garmin.com/xmlschemas/TrackPointExtension/v1">
            <gpxtpx:hr>121</gpxtpx:hr>
          </gpxtpx:TrackPointExtension>
        </extensions>
      </trkpt>
      <trkpt lat="45.98996" lon="6.18193">
        <ele>621.1</ele>
        <time>2021-03-02T13:20:55Z</time>
        <extensions>
          <gpxtpx:TrackPointExtension xmlns:gpxtpx="http://www.garmin.com/xmlschemas/TrackPointExtension/v1">
            <gpxtpx:hr>121</gpxtpx:hr>
          </gpxtpx:TrackPointExtension>
        </extensions>
      </trkpt>
      <trkpt lat="45.98993" lon="6.18193">
        <ele>621.3</ele>
        <time>2021-03-02T13:20:56Z</time>
        <extensions>
          <gpxtpx:TrackPointExtension xmlns:gpxtpx="http://www.garmin.com/xmlschemas/TrackPointExtension/v1">
            <gpxtpx:hr>122</gpxtpx:hr>
          </gpxtpx:TrackPointExtension>
        </extensions>
      </trkpt>
      <trkpt lat="45.9899" lon="6.18193">
        <ele>621.5</ele>
        <time>2021-03-02T13:20:57Z</time>
        <extensions>
          <gpxtpx:TrackPointExtension xmlns:gpxtpx="http://www.garmin.com/xmlschemas/TrackPointExtension/v1">
            <gpxtpx:hr>122</gpxtpx:hr>
          </gpxtpx:TrackPointExtension>
        </extensions>
      </trkpt>
      <trkpt lat="45.98987" lon="6.18194">
        <ele>621.7</ele>
        <time>2021-03-02T13:20:58Z</time>
        <extensions>
          <gpxtpx:TrackPointExtension xmlns:gpxtpx="http://www.garmin.com/xmlschemas/TrackPointExtension/v1">
            <gpxtpx:hr>123</gpxtpx:hr>
          </gpxtpx:TrackPointExtension>
        </extensions>
      </trkpt>
      <trkpt lat="45.98984" lon="6.18194">
        <ele>621.9</ele>
        <time>2021-03-02T13:20:59Z</time>
        <extensions>
          <gpxtpx:TrackPointExtension xmlns:gpxtpx="http://www.garmin.com/xmlschemas/TrackPointExtension/v1">
            <gpxtpx:hr>124</gpxtpx:hr>
          </gpxtpx:TrackPointExtension>
        </extensions>
      </trkpt>
      <trkpt lat="45.98981" lon="6.18194">
        <ele>622.2</ele>
        <time>2021-03-02T13:21:00Z</time>
        <extensions>
          <gpxtpx:TrackPointExtension xmlns:gpxtpx="http://www.garmin.com/xmlschemas/TrackPointExtension/v1">
            <gpxtpx:hr>125</gpxtpx:hr>
          </gpxtpx:TrackPointExtension>
        </extensions>
      </trkpt>
      <trkpt lat="45.98978" lon="6.18195">
        <ele>622.4</ele>
        <time>2021-03-02T13:21:01Z</time>
        <extensions>
          <gpxtpx:TrackPointExtension xmlns:gpxtpx="http://www.garmin.com/xmlschemas/TrackPointExtension/v1">
            <gpxtpx:hr>125</gpxtpx:hr>
          </gpxtpx:TrackPointExtension>
        </extensions>
      </trkpt>
      <trkpt lat="45.98975" lon="6.18195">
        <ele>622.6</ele>
        <time>2021-03-02T13:21:02Z</time>
        <extensions>
          <gpxtpx:TrackPointExtension xmlns:gpxtpx="http://www.garmin.com/xmlschemas/TrackPointExtension/v1">
            <gpxtpx:hr>125</gpxtpx:hr>
          </gpxtpx:TrackPointExtension>
        </extensions>
      </trkpt>
      <trkpt lat="45.98972" lon="6.18195">
        <ele>622.8</ele>
        <time>2021-03-02T13:21:03Z</time>
        <extensions>
          <gpxtpx:TrackPointExtension xmlns:gpxtpx="http://www.garmin.com/xmlschemas/TrackPointExtension/v1">
            <gpxtpx:hr>125</gpxtpx:hr>
          </gpxtpx:TrackPointExtension>
        </extensions>
      </trkpt>
      <trkpt lat="45.98969" lon="6.18196">
        <ele>623</ele>
        <time>2021-03-02T13:21:04Z</time>
        <extensions>
          <gpxtpx:TrackPointExtension xmlns:gpxtpx="http://www.garmin.com/xmlschemas/TrackPointExtension/v1">
            <gpxtpx:hr>125</gpxtpx:hr>
          </gpxtpx:TrackPointExtension>
        </extensions>
      </trkpt>
      <trkpt lat="45.98966" lon="6.18196">
        <ele>623.2</ele>
        <time>2021-03-02T13:21:05Z</time>
        <extensions>
          <gpxtpx:TrackPointExtension xmlns:gpxtpx="http://www.garmin.com/xmlschemas/TrackPointExtension/v1">
            <gpxtpx:hr>124</gpxtpx:hr>
          </gpxtpx:TrackPointExtension>
        </extensions>
      </trkpt>
      <trkpt lat="45.98963" lon="6.18196">
        <ele>623.5</ele>
        <time>2021-03-02T13:21:06Z</time>
        <extensions>
          <gpxtpx:TrackPointExtension xmlns:gpxtpx="http://www.garmin.com/xmlschemas/TrackPointExtension/v1">
            <gpxtpx:hr>125</gpxtpx:hr>
          </gpxtpx:TrackPointExtension>
        </extensions>
      </trkpt>
      <trkpt lat="45.9896" lon="6.18196">
        <ele>623.7</ele>
        <time>2021-03-02T13:21:07Z</time>
        <extensions>
          <gpxtpx:TrackPointExtension xmlns:gpxtpx="http://www.garmin.com/xmlschemas/TrackPointExtension/v1">
            <gpxtpx:hr>125</gpxtpx:hr>
          </gpxtpx:TrackPointExtension>
        </extensions>
      </trkpt>
      <trkpt lat="45.98957" lon="6.18197">
        <ele>623.9</ele>
        <time>2021-03-02T13:21:08Z</time>
        <extensions>
          <gpxtpx:TrackPointExtension xmlns:gpxtpx="http://www.garmin.com/xmlschemas/TrackPointExtension/v1">
            <gpxtpx:hr>125</gpxtpx:hr>
          </gpxtpx:TrackPointExtension>
        </extensions>
      </trkpt>
      <trkpt lat="45.98954" lon="6.18197">
        <ele>624.1</ele>
        <time>2021-03-02T13:21:09Z</time>
        <extensions>
          <gpxtpx:TrackPointExtension xmlns:gpxtpx="http://www.garmin.com/xmlschemas/TrackPointExtension/v1">
            <gpxtpx:hr>125</gpxtpx:hr>
          </gpxtpx:TrackPointExtension>
        </extensions>
      </trkpt>
      <trkpt lat="45.98952" lon="6.18198">
        <ele>624.2</ele>
        <time>2021-03-02T13:21:10Z</time>
        <extensions>
          <gpxtpx:TrackPointExtension xmlns:gpxtpx="http://www.garmin.com/xmlschemas/TrackPointExtension/v1">
            <gpxtpx:hr>125</gpxtpx:hr>
          </gpxtpx:TrackPointExtension>
        </extensions>
      </trkpt>
      <trkpt lat="45.98949" lon="6.18198">
        <ele>624.4</ele>
        <time>2021-03-02T13:21:11Z</time>
        <extensions>
          <gpxtpx:TrackPointExtension xmlns:gpxtpx="http://www.garmin.com/xmlschemas/TrackPointExtension/v1">
            <gpxtpx:hr>125</gpxtpx:hr>
          </gpxtpx:TrackPointExtension>
        </extensions>
      </trkpt>
      <trkpt lat="45.98946" lon="6.18198">
        <ele>624.6</ele>
        <time>2021-03-02T13:21:12Z</time>
        <extensions>
          <gpxtpx:TrackPointExtension xmlns:gpxtpx="http://www.garmin.com/xmlschemas/TrackPointExtension/v1">
            <gpxtpx:hr>125</gpxtpx:hr>
          </gpxtpx:TrackPointExtension>
        </extensions>
      </trkpt>
      <trkpt lat="45.98943" lon="6.18199">
        <ele>624.8</ele>
        <time>2021-03-02T13:21:13Z</time>
        <extensions>
          <gpxtpx:TrackPointExtension xmlns:gpxtpx="http://www.garmin.com/xmlschemas/TrackPointExtension/v1">
            <gpxtpx:hr>126</gpxtpx:hr>
          </gpxtpx:TrackPointExtension>
        </extensions>
      </trkpt>
      <trkpt lat="45.9894" lon="6.18199">
        <ele>625</ele>
        <time>2021-03-02T13:21:14Z</time>
        <extensions>
          <gpxtpx:TrackPointExtension xmlns:gpxtpx="http://www.garmin.com/xmlschemas/TrackPointExtension/v1">
            <gpxtpx:hr>126</gpxtpx:hr>
          </gpxtpx:TrackPointExtension>
        </extensions>
      </trkpt>
      <trkpt lat="45.98937" lon="6.18199">
        <ele>625.2</ele>
        <time>2021-03-02T13:21:15Z</time>
        <extensions>
          <gpxtpx:TrackPointExtension xmlns:gpxtpx="http://www.garmin.com/xmlschemas/TrackPointExtension/v1">
            <gpxtpx:hr>126</gpxtpx:hr>
          </gpxtpx:TrackPointExtension>
        </extensions>
      </trkpt>
      <trkpt lat="45.98934" lon="6.18199">
        <ele>625.4</ele>
        <time>2021-03-02T13:21:16Z</time>
        <extensions>
          <gpxtpx:TrackPointExtension xmlns:gpxtpx="http://www.garmin.com/xmlschemas/TrackPointExtension/v1">
            <gpxtpx:hr>127</gpxtpx:hr>
          </gpxtpx:TrackPointExtension>
        </extensions>
      </trkpt>
      <trkpt lat="45.98931" lon="6.18199">
        <ele>625.6</ele>
        <time>2021-03-02T13:21:17Z</time>
        <extensions>
          <gpxtpx:TrackPointExtension xmlns:gpxtpx="http://www.garmin.com/xmlschemas/TrackPointExtension/v1">
            <gpxtpx:hr>127</gpxtpx:hr>
          </gpxtpx:TrackPointExtension>
        </extensions>
      </trkpt>
      <trkpt lat="45.98928" lon="6.18198">
        <ele>625.8</ele>
        <time>2021-03-02T13:21:18Z</time>
        <extensions>
          <gpxtpx:TrackPointExtension xmlns:gpxtpx="http://www.garmin.com/xmlschemas/TrackPointExtension/v1">
            <gpxtpx:hr>130</gpxtpx:hr>
          </gpxtpx:TrackPointExtension>
        </extensions>
      </trkpt>
      <trkpt lat="45.98925" lon="6.18198">
        <ele>626</ele>
        <time>2021-03-02T13:21:19Z</time>
        <extensions>
          <gpxtpx:TrackPointExtension xmlns:gpxtpx="http://www.garmin.com/xmlschemas/TrackPointExtension/v1">
            <gpxtpx:hr>131</gpxtpx:hr>
          </gpxtpx:TrackPointExtension>
        </extensions>
      </trkpt>
      <trkpt lat="45.98922" lon="6.18198">
        <ele>626.2</ele>
        <time>2021-03-02T13:21:20Z</time>
        <extensions>
          <gpxtpx:TrackPointExtension xmlns:gpxtpx="http://www.garmin.com/xmlschemas/TrackPointExtension/v1">
            <gpxtpx:hr>133</gpxtpx:hr>
          </gpxtpx:TrackPointExtension>
        </extensions>
      </trkpt>
      <trkpt lat="45.98919" lon="6.18197">
        <ele>626.4</ele>
        <time>2021-03-02T13:21:21Z</time>
        <extensions>
          <gpxtpx:TrackPointExtension xmlns:gpxtpx="http://www.garmin.com/xmlschemas/TrackPointExtension/v1">
            <gpxtpx:hr>134</gpxtpx:hr>
          </gpxtpx:TrackPointExtension>
        </extensions>
      </trkpt>
      <trkpt lat="45.98916" lon="6.18197">
        <ele>626.6</ele>
        <time>2021-03-02T13:21:22Z</time>
        <extensions>
          <gpxtpx:TrackPointExtension xmlns:gpxtpx="http://www.garmin.com/xmlschemas/TrackPointExtension/v1">
            <gpxtpx:hr>134</gpxtpx:hr>
          </gpxtpx:TrackPointExtension>
        </extensions>
      </trkpt>
      <trkpt lat="45.98912" lon="6.18196">
        <ele>626.8</ele>
        <time>2021-03-02T13:21:23Z</time>
        <extensions>
          <gpxtpx:TrackPointExtension xmlns:gpxtpx="http://www.garmin.com/xmlschemas/TrackPointExtension/v1">
            <gpxtpx:hr>134</gpxtpx:hr>
          </gpxtpx:TrackPointExtension>
        </extensions>
      </trkpt>
      <trkpt lat="45.98909" lon="6.18195">
        <ele>627</ele>
        <time>2021-03-02T13:21:24Z</time>
        <extensions>
          <gpxtpx:TrackPointExtension xmlns:gpxtpx="http://www.garmin.com/xmlschemas/TrackPointExtension/v1">
            <gpxtpx:hr>135</gpxtpx:hr>
          </gpxtpx:TrackPointExtension>
        </extensions>
      </trkpt>
      <trkpt lat="45.98906" lon="6.18195">
        <ele>627.2</ele>
        <time>2021-03-02T13:21:25Z</time>
        <extensions>
          <gpxtpx:TrackPointExtension xmlns:gpxtpx="http://www.garmin.com/xmlschemas/TrackPointExtension/v1">
            <gpxtpx:hr>135</gpxtpx:hr>
          </gpxtpx:TrackPointExtension>
        </extensions>
      </trkpt>
      <trkpt lat="45.98903" lon="6.18194">
        <ele>627.4</ele>
        <time>2021-03-02T13:21:26Z</time>
        <extensions>
          <gpxtpx:TrackPointExtension xmlns:gpxtpx="http://www.garmin.com/xmlschemas/TrackPointExtension/v1">
            <gpxtpx:hr>135</gpxtpx:hr>
          </gpxtpx:TrackPointExtension>
        </extensions>
      </trkpt>
      <trkpt lat="45.98899" lon="6.18193">
        <ele>627.6</ele>
        <time>2021-03-02T13:21:27Z</time>
        <extensions>
          <gpxtpx:TrackPointExtension xmlns:gpxtpx="http://www.garmin.com/xmlschemas/TrackPointExtension/v1">
            <gpxtpx:hr>135</gpxtpx:hr>
          </gpxtpx:TrackPointExtension>
        </extensions>
      </trkpt>
      <trkpt lat="45.98896" lon="6.18193">
        <ele>627.8</ele>
        <time>2021-03-02T13:21:28Z</time>
        <extensions>
          <gpxtpx:TrackPointExtension xmlns:gpxtpx="http://www.garmin.com/xmlschemas/TrackPointExtension/v1">
            <gpxtpx:hr>135</gpxtpx:hr>
          </gpxtpx:TrackPointExtension>
        </extensions>
      </trkpt>
      <trkpt lat="45.98893" lon="6.18192">
        <ele>627.9</ele>
        <time>2021-03-02T13:21:29Z</time>
        <extensions>
          <gpxtpx:TrackPointExtension xmlns:gpxtpx="http://www.garmin.com/xmlschemas/TrackPointExtension/v1">
            <gpxtpx:hr>135</gpxtpx:hr>
          </gpxtpx:TrackPointExtension>
        </extensions>
      </trkpt>
      <trkpt lat="45.98889" lon="6.18191">
        <ele>628.1</ele>
        <time>2021-03-02T13:21:30Z</time>
        <extensions>
          <gpxtpx:TrackPointExtension xmlns:gpxtpx="http://www.garmin.com/xmlschemas/TrackPointExtension/v1">
            <gpxtpx:hr>135</gpxtpx:hr>
          </gpxtpx:TrackPointExtension>
        </extensions>
      </trkpt>
      <trkpt lat="45.98886" lon="6.1819">
        <ele>628.4</ele>
        <time>2021-03-02T13:21:31Z</time>
        <extensions>
          <gpxtpx:TrackPointExtension xmlns:gpxtpx="http://www.garmin.com/xmlschemas/TrackPointExtension/v1">
            <gpxtpx:hr>135</gpxtpx:hr>
          </gpxtpx:TrackPointExtension>
        </extensions>
      </trkpt>
      <trkpt lat="45.98882" lon="6.18189">
        <ele>628.5</ele>
        <time>2021-03-02T13:21:32Z</time>
        <extensions>
          <gpxtpx:TrackPointExtension xmlns:gpxtpx="http://www.garmin.com/xmlschemas/TrackPointExtension/v1">
            <gpxtpx:hr>136</gpxtpx:hr>
          </gpxtpx:TrackPointExtension>
        </extensions>
      </trkpt>
      <trkpt lat="45.98879" lon="6.18189">
        <ele>628.7</ele>
        <time>2021-03-02T13:21:33Z</time>
        <extensions>
          <gpxtpx:TrackPointExtension xmlns:gpxtpx="http://www.garmin.com/xmlschemas/TrackPointExtension/v1">
            <gpxtpx:hr>136</gpxtpx:hr>
          </gpxtpx:TrackPointExtension>
        </extensions>
      </trkpt>
      <trkpt lat="45.98876" lon="6.18188">
        <ele>628.9</ele>
        <time>2021-03-02T13:21:34Z</time>
        <extensions>
          <gpxtpx:TrackPointExtension xmlns:gpxtpx="http://www.garmin.com/xmlschemas/TrackPointExtension/v1">
            <gpxtpx:hr>136</gpxtpx:hr>
          </gpxtpx:TrackPointExtension>
        </extensions>
      </trkpt>
      <trkpt lat="45.98872" lon="6.18187">
        <ele>629.1</ele>
        <time>2021-03-02T13:21:35Z</time>
        <extensions>
          <gpxtpx:TrackPointExtension xmlns:gpxtpx="http://www.garmin.com/xmlschemas/TrackPointExtension/v1">
            <gpxtpx:hr>137</gpxtpx:hr>
          </gpxtpx:TrackPointExtension>
        </extensions>
      </trkpt>
      <trkpt lat="45.98869" lon="6.18186">
        <ele>629.3</ele>
        <time>2021-03-02T13:21:36Z</time>
        <extensions>
          <gpxtpx:TrackPointExtension xmlns:gpxtpx="http://www.garmin.com/xmlschemas/TrackPointExtension/v1">
            <gpxtpx:hr>137</gpxtpx:hr>
          </gpxtpx:TrackPointExtension>
        </extensions>
      </trkpt>
      <trkpt lat="45.98865" lon="6.18185">
        <ele>629.5</ele>
        <time>2021-03-02T13:21:37Z</time>
        <extensions>
          <gpxtpx:TrackPointExtension xmlns:gpxtpx="http://www.garmin.com/xmlschemas/TrackPointExtension/v1">
            <gpxtpx:hr>138</gpxtpx:hr>
          </gpxtpx:TrackPointExtension>
        </extensions>
      </trkpt>
      <trkpt lat="45.98862" lon="6.18185">
        <ele>629.6</ele>
        <time>2021-03-02T13:21:38Z</time>
        <extensions>
          <gpxtpx:TrackPointExtension xmlns:gpxtpx="http://www.garmin.com/xmlschemas/TrackPointExtension/v1">
            <gpxtpx:hr>138</gpxtpx:hr>
          </gpxtpx:TrackPointExtension>
        </extensions>
      </trkpt>
      <trkpt lat="45.98858" lon="6.18184">
        <ele>629.8</ele>
        <time>2021-03-02T13:21:39Z</time>
        <extensions>
          <gpxtpx:TrackPointExtension xmlns:gpxtpx="http://www.garmin.com/xmlschemas/TrackPointExtension/v1">
            <gpxtpx:hr>139</gpxtpx:hr>
          </gpxtpx:TrackPointExtension>
        </extensions>
      </trkpt>
      <trkpt lat="45.98855" lon="6.18183">
        <ele>630</ele>
        <time>2021-03-02T13:21:40Z</time>
        <extensions>
          <gpxtpx:TrackPointExtension xmlns:gpxtpx="http://www.garmin.com/xmlschemas/TrackPointExtension/v1">
            <gpxtpx:hr>139</gpxtpx:hr>
          </gpxtpx:TrackPointExtension>
        </extensions>
      </trkpt>
      <trkpt lat="45.98851" lon="6.18182">
        <ele>630.2</ele>
        <time>2021-03-02T13:21:41Z</time>
        <extensions>
          <gpxtpx:TrackPointExtension xmlns:gpxtpx="http://www.garmin.com/xmlschemas/TrackPointExtension/v1">
            <gpxtpx:hr>140</gpxtpx:hr>
          </gpxtpx:TrackPointExtension>
        </extensions>
      </trkpt>
      <trkpt lat="45.98848" lon="6.18182">
        <ele>630.4</ele>
        <time>2021-03-02T13:21:42Z</time>
        <extensions>
          <gpxtpx:TrackPointExtension xmlns:gpxtpx="http://www.garmin.com/xmlschemas/TrackPointExtension/v1">
            <gpxtpx:hr>141</gpxtpx:hr>
          </gpxtpx:TrackPointExtension>
        </extensions>
      </trkpt>
      <trkpt lat="45.98845" lon="6.18181">
        <ele>630.6</ele>
        <time>2021-03-02T13:21:43Z</time>
        <extensions>
          <gpxtpx:TrackPointExtension xmlns:gpxtpx="http://www.garmin.com/xmlschemas/TrackPointExtension/v1">
            <gpxtpx:hr>141</gpxtpx:hr>
          </gpxtpx:TrackPointExtension>
        </extensions>
      </trkpt>
      <trkpt lat="45.98841" lon="6.1818">
        <ele>630.8</ele>
        <time>2021-03-02T13:21:44Z</time>
        <extensions>
          <gpxtpx:TrackPointExtension xmlns:gpxtpx="http://www.garmin.com/xmlschemas/TrackPointExtension/v1">
            <gpxtpx:hr>142</gpxtpx:hr>
          </gpxtpx:TrackPointExtension>
        </extensions>
      </trkpt>
      <trkpt lat="45.98838" lon="6.18179">
        <ele>630.9</ele>
        <time>2021-03-02T13:21:45Z</time>
        <extensions>
          <gpxtpx:TrackPointExtension xmlns:gpxtpx="http://www.garmin.com/xmlschemas/TrackPointExtension/v1">
            <gpxtpx:hr>142</gpxtpx:hr>
          </gpxtpx:TrackPointExtension>
        </extensions>
      </trkpt>
      <trkpt lat="45.98834" lon="6.18178">
        <ele>631.1</ele>
        <time>2021-03-02T13:21:46Z</time>
        <extensions>
          <gpxtpx:TrackPointExtension xmlns:gpxtpx="http://www.garmin.com/xmlschemas/TrackPointExtension/v1">
            <gpxtpx:hr>142</gpxtpx:hr>
          </gpxtpx:TrackPointExtension>
        </extensions>
      </trkpt>
      <trkpt lat="45.98831" lon="6.18177">
        <ele>631.3</ele>
        <time>2021-03-02T13:21:47Z</time>
        <extensions>
          <gpxtpx:TrackPointExtension xmlns:gpxtpx="http://www.garmin.com/xmlschemas/TrackPointExtension/v1">
            <gpxtpx:hr>142</gpxtpx:hr>
          </gpxtpx:TrackPointExtension>
        </extensions>
      </trkpt>
      <trkpt lat="45.98828" lon="6.18176">
        <ele>631.5</ele>
        <time>2021-03-02T13:21:48Z</time>
        <extensions>
          <gpxtpx:TrackPointExtension xmlns:gpxtpx="http://www.garmin.com/xmlschemas/TrackPointExtension/v1">
            <gpxtpx:hr>142</gpxtpx:hr>
          </gpxtpx:TrackPointExtension>
        </extensions>
      </trkpt>
      <trkpt lat="45.98825" lon="6.18175">
        <ele>631.7</ele>
        <time>2021-03-02T13:21:49Z</time>
        <extensions>
          <gpxtpx:TrackPointExtension xmlns:gpxtpx="http://www.garmin.com/xmlschemas/TrackPointExtension/v1">
            <gpxtpx:hr>142</gpxtpx:hr>
          </gpxtpx:TrackPointExtension>
        </extensions>
      </trkpt>
      <trkpt lat="45.98821" lon="6.18175">
        <ele>631.9</ele>
        <time>2021-03-02T13:21:50Z</time>
        <extensions>
          <gpxtpx:TrackPointExtension xmlns:gpxtpx="http://www.garmin.com/xmlschemas/TrackPointExtension/v1">
            <gpxtpx:hr>142</gpxtpx:hr>
          </gpxtpx:TrackPointExtension>
        </extensions>
      </trkpt>
      <trkpt lat="45.98818" lon="6.18174">
        <ele>632.1</ele>
        <time>2021-03-02T13:21:51Z</time>
        <extensions>
          <gpxtpx:TrackPointExtension xmlns:gpxtpx="http://www.garmin.com/xmlschemas/TrackPointExtension/v1">
            <gpxtpx:hr>142</gpxtpx:hr>
          </gpxtpx:TrackPointExtension>
        </extensions>
      </trkpt>
      <trkpt lat="45.98815" lon="6.18173">
        <ele>632.3</ele>
        <time>2021-03-02T13:21:52Z</time>
        <extensions>
          <gpxtpx:TrackPointExtension xmlns:gpxtpx="http://www.garmin.com/xmlschemas/TrackPointExtension/v1">
            <gpxtpx:hr>142</gpxtpx:hr>
          </gpxtpx:TrackPointExtension>
        </extensions>
      </trkpt>
      <trkpt lat="45.98812" lon="6.18172">
        <ele>632.5</ele>
        <time>2021-03-02T13:21:53Z</time>
        <extensions>
          <gpxtpx:TrackPointExtension xmlns:gpxtpx="http://www.garmin.com/xmlschemas/TrackPointExtension/v1">
            <gpxtpx:hr>142</gpxtpx:hr>
          </gpxtpx:TrackPointExtension>
        </extensions>
      </trkpt>
      <trkpt lat="45.98808" lon="6.18171">
        <ele>632.7</ele>
        <time>2021-03-02T13:21:54Z</time>
        <extensions>
          <gpxtpx:TrackPointExtension xmlns:gpxtpx="http://www.garmin.com/xmlschemas/TrackPointExtension/v1">
            <gpxtpx:hr>142</gpxtpx:hr>
          </gpxtpx:TrackPointExtension>
        </extensions>
      </trkpt>
      <trkpt lat="45.98805" lon="6.1817">
        <ele>632.9</ele>
        <time>2021-03-02T13:21:55Z</time>
        <extensions>
          <gpxtpx:TrackPointExtension xmlns:gpxtpx="http://www.garmin.com/xmlschemas/TrackPointExtension/v1">
            <gpxtpx:hr>142</gpxtpx:hr>
          </gpxtpx:TrackPointExtension>
        </extensions>
      </trkpt>
      <trkpt lat="45.98802" lon="6.18169">
        <ele>633.1</ele>
        <time>2021-03-02T13:21:56Z</time>
        <extensions>
          <gpxtpx:TrackPointExtension xmlns:gpxtpx="http://www.garmin.com/xmlschemas/TrackPointExtension/v1">
            <gpxtpx:hr>142</gpxtpx:hr>
          </gpxtpx:TrackPointExtension>
        </extensions>
      </trkpt>
      <trkpt lat="45.98798" lon="6.18169">
        <ele>633.3</ele>
        <time>2021-03-02T13:21:57Z</time>
        <extensions>
          <gpxtpx:TrackPointExtension xmlns:gpxtpx="http://www.garmin.com/xmlschemas/TrackPointExtension/v1">
            <gpxtpx:hr>142</gpxtpx:hr>
          </gpxtpx:TrackPointExtension>
        </extensions>
      </trkpt>
      <trkpt lat="45.98795" lon="6.18168">
        <ele>633.5</ele>
        <time>2021-03-02T13:21:58Z</time>
        <extensions>
          <gpxtpx:TrackPointExtension xmlns:gpxtpx="http://www.garmin.com/xmlschemas/TrackPointExtension/v1">
            <gpxtpx:hr>141</gpxtpx:hr>
          </gpxtpx:TrackPointExtension>
        </extensions>
      </trkpt>
      <trkpt lat="45.98792" lon="6.18167">
        <ele>633.7</ele>
        <time>2021-03-02T13:21:59Z</time>
        <extensions>
          <gpxtpx:TrackPointExtension xmlns:gpxtpx="http://www.garmin.com/xmlschemas/TrackPointExtension/v1">
            <gpxtpx:hr>141</gpxtpx:hr>
          </gpxtpx:TrackPointExtension>
        </extensions>
      </trkpt>
      <trkpt lat="45.98789" lon="6.18166">
        <ele>633.9</ele>
        <time>2021-03-02T13:22:00Z</time>
        <extensions>
          <gpxtpx:TrackPointExtension xmlns:gpxtpx="http://www.garmin.com/xmlschemas/TrackPointExtension/v1">
            <gpxtpx:hr>141</gpxtpx:hr>
          </gpxtpx:TrackPointExtension>
        </extensions>
      </trkpt>
      <trkpt lat="45.98785" lon="6.18165">
        <ele>634.1</ele>
        <time>2021-03-02T13:22:01Z</time>
        <extensions>
          <gpxtpx:TrackPointExtension xmlns:gpxtpx="http://www.garmin.com/xmlschemas/TrackPointExtension/v1">
            <gpxtpx:hr>141</gpxtpx:hr>
          </gpxtpx:TrackPointExtension>
        </extensions>
      </trkpt>
      <trkpt lat="45.98782" lon="6.18164">
        <ele>634.2</ele>
        <time>2021-03-02T13:22:02Z</time>
        <extensions>
          <gpxtpx:TrackPointExtension xmlns:gpxtpx="http://www.garmin.com/xmlschemas/TrackPointExtension/v1">
            <gpxtpx:hr>141</gpxtpx:hr>
          </gpxtpx:TrackPointExtension>
        </extensions>
      </trkpt>
      <trkpt lat="45.98779" lon="6.18163">
        <ele>634.4</ele>
        <time>2021-03-02T13:22:03Z</time>
        <extensions>
          <gpxtpx:TrackPointExtension xmlns:gpxtpx="http://www.garmin.com/xmlschemas/TrackPointExtension/v1">
            <gpxtpx:hr>141</gpxtpx:hr>
          </gpxtpx:TrackPointExtension>
        </extensions>
      </trkpt>
      <trkpt lat="45.98775" lon="6.18162">
        <ele>634.6</ele>
        <time>2021-03-02T13:22:04Z</time>
        <extensions>
          <gpxtpx:TrackPointExtension xmlns:gpxtpx="http://www.garmin.com/xmlschemas/TrackPointExtension/v1">
            <gpxtpx:hr>141</gpxtpx:hr>
          </gpxtpx:TrackPointExtension>
        </extensions>
      </trkpt>
      <trkpt lat="45.98772" lon="6.18161">
        <ele>634.8</ele>
        <time>2021-03-02T13:22:05Z</time>
        <extensions>
          <gpxtpx:TrackPointExtension xmlns:gpxtpx="http://www.garmin.com/xmlschemas/TrackPointExtension/v1">
            <gpxtpx:hr>142</gpxtpx:hr>
          </gpxtpx:TrackPointExtension>
        </extensions>
      </trkpt>
      <trkpt lat="45.98769" lon="6.1816">
        <ele>635</ele>
        <time>2021-03-02T13:22:06Z</time>
        <extensions>
          <gpxtpx:TrackPointExtension xmlns:gpxtpx="http://www.garmin.com/xmlschemas/TrackPointExtension/v1">
            <gpxtpx:hr>142</gpxtpx:hr>
          </gpxtpx:TrackPointExtension>
        </extensions>
      </trkpt>
      <trkpt lat="45.98765" lon="6.18159">
        <ele>635.2</ele>
        <time>2021-03-02T13:22:07Z</time>
        <extensions>
          <gpxtpx:TrackPointExtension xmlns:gpxtpx="http://www.garmin.com/xmlschemas/TrackPointExtension/v1">
            <gpxtpx:hr>142</gpxtpx:hr>
          </gpxtpx:TrackPointExtension>
        </extensions>
      </trkpt>
      <trkpt lat="45.98762" lon="6.18158">
        <ele>635.4</ele>
        <time>2021-03-02T13:22:08Z</time>
        <extensions>
          <gpxtpx:TrackPointExtension xmlns:gpxtpx="http://www.garmin.com/xmlschemas/TrackPointExtension/v1">
            <gpxtpx:hr>142</gpxtpx:hr>
          </gpxtpx:TrackPointExtension>
        </extensions>
      </trkpt>
      <trkpt lat="45.98758" lon="6.18157">
        <ele>635.6</ele>
        <time>2021-03-02T13:22:09Z</time>
        <extensions>
          <gpxtpx:TrackPointExtension xmlns:gpxtpx="http://www.garmin.com/xmlschemas/TrackPointExtension/v1">
            <gpxtpx:hr>142</gpxtpx:hr>
          </gpxtpx:TrackPointExtension>
        </extensions>
      </trkpt>
      <trkpt lat="45.98755" lon="6.18156">
        <ele>635.8</ele>
        <time>2021-03-02T13:22:10Z</time>
        <extensions>
          <gpxtpx:TrackPointExtension xmlns:gpxtpx="http://www.garmin.com/xmlschemas/TrackPointExtension/v1">
            <gpxtpx:hr>142</gpxtpx:hr>
          </gpxtpx:TrackPointExtension>
        </extensions>
      </trkpt>
      <trkpt lat="45.98752" lon="6.18154">
        <ele>636</ele>
        <time>2021-03-02T13:22:11Z</time>
        <extensions>
          <gpxtpx:TrackPointExtension xmlns:gpxtpx="http://www.garmin.com/xmlschemas/TrackPointExtension/v1">
            <gpxtpx:hr>141</gpxtpx:hr>
          </gpxtpx:TrackPointExtension>
        </extensions>
      </trkpt>
      <trkpt lat="45.98749" lon="6.18153">
        <ele>636.2</ele>
        <time>2021-03-02T13:22:12Z</time>
        <extensions>
          <gpxtpx:TrackPointExtension xmlns:gpxtpx="http://www.garmin.com/xmlschemas/TrackPointExtension/v1">
            <gpxtpx:hr>141</gpxtpx:hr>
          </gpxtpx:TrackPointExtension>
        </extensions>
      </trkpt>
      <trkpt lat="45.98745" lon="6.18152">
        <ele>636.4</ele>
        <time>2021-03-02T13:22:13Z</time>
        <extensions>
          <gpxtpx:TrackPointExtension xmlns:gpxtpx="http://www.garmin.com/xmlschemas/TrackPointExtension/v1">
            <gpxtpx:hr>141</gpxtpx:hr>
          </gpxtpx:TrackPointExtension>
        </extensions>
      </trkpt>
      <trkpt lat="45.98742" lon="6.18151">
        <ele>636.6</ele>
        <time>2021-03-02T13:22:14Z</time>
        <extensions>
          <gpxtpx:TrackPointExtension xmlns:gpxtpx="http://www.garmin.com/xmlschemas/TrackPointExtension/v1">
            <gpxtpx:hr>141</gpxtpx:hr>
          </gpxtpx:TrackPointExtension>
        </extensions>
      </trkpt>
      <trkpt lat="45.98739" lon="6.1815">
        <ele>636.8</ele>
        <time>2021-03-02T13:22:15Z</time>
        <extensions>
          <gpxtpx:TrackPointExtension xmlns:gpxtpx="http://www.garmin.com/xmlschemas/TrackPointExtension/v1">
            <gpxtpx:hr>141</gpxtpx:hr>
          </gpxtpx:TrackPointExtension>
        </extensions>
      </trkpt>
      <trkpt lat="45.98736" lon="6.18148">
        <ele>637</ele>
        <time>2021-03-02T13:22:16Z</time>
        <extensions>
          <gpxtpx:TrackPointExtension xmlns:gpxtpx="http://www.garmin.com/xmlschemas/TrackPointExtension/v1">
            <gpxtpx:hr>141</gpxtpx:hr>
          </gpxtpx:TrackPointExtension>
        </extensions>
      </trkpt>
      <trkpt lat="45.98732" lon="6.18147">
        <ele>637.2</ele>
        <time>2021-03-02T13:22:17Z</time>
        <extensions>
          <gpxtpx:TrackPointExtension xmlns:gpxtpx="http://www.garmin.com/xmlschemas/TrackPointExtension/v1">
            <gpxtpx:hr>141</gpxtpx:hr>
          </gpxtpx:TrackPointExtension>
        </extensions>
      </trkpt>
      <trkpt lat="45.98729" lon="6.18146">
        <ele>637.5</ele>
        <time>2021-03-02T13:22:18Z</time>
        <extensions>
          <gpxtpx:TrackPointExtension xmlns:gpxtpx="http://www.garmin.com/xmlschemas/TrackPointExtension/v1">
            <gpxtpx:hr>141</gpxtpx:hr>
          </gpxtpx:TrackPointExtension>
        </extensions>
      </trkpt>
      <trkpt lat="45.98726" lon="6.18145">
        <ele>637.7</ele>
        <time>2021-03-02T13:22:19Z</time>
        <extensions>
          <gpxtpx:TrackPointExtension xmlns:gpxtpx="http://www.garmin.com/xmlschemas/TrackPointExtension/v1">
            <gpxtpx:hr>141</gpxtpx:hr>
          </gpxtpx:TrackPointExtension>
        </extensions>
      </trkpt>
      <trkpt lat="45.98722" lon="6.18144">
        <ele>637.9</ele>
        <time>2021-03-02T13:22:20Z</time>
        <extensions>
          <gpxtpx:TrackPointExtension xmlns:gpxtpx="http://www.garmin.com/xmlschemas/TrackPointExtension/v1">
            <gpxtpx:hr>141</gpxtpx:hr>
          </gpxtpx:TrackPointExtension>
        </extensions>
      </trkpt>
      <trkpt lat="45.98719" lon="6.18143">
        <ele>638.1</ele>
        <time>2021-03-02T13:22:21Z</time>
        <extensions>
          <gpxtpx:TrackPointExtension xmlns:gpxtpx="http://www.garmin.com/xmlschemas/TrackPointExtension/v1">
            <gpxtpx:hr>141</gpxtpx:hr>
          </gpxtpx:TrackPointExtension>
        </extensions>
      </trkpt>
      <trkpt lat="45.98716" lon="6.18142">
        <ele>638.3</ele>
        <time>2021-03-02T13:22:22Z</time>
        <extensions>
          <gpxtpx:TrackPointExtension xmlns:gpxtpx="http://www.garmin.com/xmlschemas/TrackPointExtension/v1">
            <gpxtpx:hr>142</gpxtpx:hr>
          </gpxtpx:TrackPointExtension>
        </extensions>
      </trkpt>
      <trkpt lat="45.98712" lon="6.18141">
        <ele>638.5</ele>
        <time>2021-03-02T13:22:23Z</time>
        <extensions>
          <gpxtpx:TrackPointExtension xmlns:gpxtpx="http://www.garmin.com/xmlschemas/TrackPointExtension/v1">
            <gpxtpx:hr>142</gpxtpx:hr>
          </gpxtpx:TrackPointExtension>
        </extensions>
      </trkpt>
      <trkpt lat="45.98709" lon="6.18139">
        <ele>638.7</ele>
        <time>2021-03-02T13:22:24Z</time>
        <extensions>
          <gpxtpx:TrackPointExtension xmlns:gpxtpx="http://www.garmin.com/xmlschemas/TrackPointExtension/v1">
            <gpxtpx:hr>142</gpxtpx:hr>
          </gpxtpx:TrackPointExtension>
        </extensions>
      </trkpt>
      <trkpt lat="45.98706" lon="6.18138">
        <ele>638.9</ele>
        <time>2021-03-02T13:22:25Z</time>
        <extensions>
          <gpxtpx:TrackPointExtension xmlns:gpxtpx="http://www.garmin.com/xmlschemas/TrackPointExtension/v1">
            <gpxtpx:hr>142</gpxtpx:hr>
          </gpxtpx:TrackPointExtension>
        </extensions>
      </trkpt>
      <trkpt lat="45.98702" lon="6.18137">
        <ele>639.1</ele>
        <time>2021-03-02T13:22:26Z</time>
        <extensions>
          <gpxtpx:TrackPointExtension xmlns:gpxtpx="http://www.garmin.com/xmlschemas/TrackPointExtension/v1">
            <gpxtpx:hr>142</gpxtpx:hr>
          </gpxtpx:TrackPointExtension>
        </extensions>
      </trkpt>
      <trkpt lat="45.98699" lon="6.18135">
        <ele>639.3</ele>
        <time>2021-03-02T13:22:27Z</time>
        <extensions>
          <gpxtpx:TrackPointExtension xmlns:gpxtpx="http://www.garmin.com/xmlschemas/TrackPointExtension/v1">
            <gpxtpx:hr>142</gpxtpx:hr>
          </gpxtpx:TrackPointExtension>
        </extensions>
      </trkpt>
      <trkpt lat="45.98697" lon="6.18134">
        <ele>639.5</ele>
        <time>2021-03-02T13:22:28Z</time>
        <extensions>
          <gpxtpx:TrackPointExtension xmlns:gpxtpx="http://www.garmin.com/xmlschemas/TrackPointExtension/v1">
            <gpxtpx:hr>141</gpxtpx:hr>
          </gpxtpx:TrackPointExtension>
        </extensions>
      </trkpt>
      <trkpt lat="45.98695" lon="6.18133">
        <ele>639.6</ele>
        <time>2021-03-02T13:22:29Z</time>
        <extensions>
          <gpxtpx:TrackPointExtension xmlns:gpxtpx="http://www.garmin.com/xmlschemas/TrackPointExtension/v1">
            <gpxtpx:hr>141</gpxtpx:hr>
          </gpxtpx:TrackPointExtension>
        </extensions>
      </trkpt>
      <trkpt lat="45.98693" lon="6.18132">
        <ele>639.7</ele>
        <time>2021-03-02T13:22:30Z</time>
        <extensions>
          <gpxtpx:TrackPointExtension xmlns:gpxtpx="http://www.garmin.com/xmlschemas/TrackPointExtension/v1">
            <gpxtpx:hr>141</gpxtpx:hr>
          </gpxtpx:TrackPointExtension>
        </extensions>
      </trkpt>
      <trkpt lat="45.98693" lon="6.18132">
        <ele>639.7</ele>
        <time>2021-03-02T13:22:31Z</time>
        <extensions>
          <gpxtpx:TrackPointExtension xmlns:gpxtpx="http://www.garmin.com/xmlschemas/TrackPointExtension/v1">
            <gpxtpx:hr>141</gpxtpx:hr>
          </gpxtpx:TrackPointExtension>
        </extensions>
      </trkpt>
      <trkpt lat="45.98693" lon="6.18132">
        <ele>639.7</ele>
        <time>2021-03-02T13:22:32Z</time>
        <extensions>
          <gpxtpx:TrackPointExtension xmlns:gpxtpx="http://www.garmin.com/xmlschemas/TrackPointExtension/v1">
            <gpxtpx:hr>141</gpxtpx:hr>
          </gpxtpx:TrackPointExtension>
        </extensions>
      </trkpt>
      <trkpt lat="45.98693" lon="6.18132">
        <ele>639.7</ele>
        <time>2021-03-02T13:22:33Z</time>
        <extensions>
          <gpxtpx:TrackPointExtension xmlns:gpxtpx="http://www.garmin.com/xmlschemas/TrackPointExtension/v1">
            <gpxtpx:hr>141</gpxtpx:hr>
          </gpxtpx:TrackPointExtension>
        </extensions>
      </trkpt>
      <trkpt lat="45.98693" lon="6.18132">
        <ele>639.7</ele>
        <time>2021-03-02T13:22:34Z</time>
        <extensions>
          <gpxtpx:TrackPointExtension xmlns:gpxtpx="http://www.garmin.com/xmlschemas/TrackPointExtension/v1">
            <gpxtpx:hr>107</gpxtpx:hr>
          </gpxtpx:TrackPointExtension>
        </extensions>
      </trkpt>
      <trkpt lat="45.9869" lon="6.18131">
        <ele>639.9</ele>
        <time>2021-03-02T13:23:48Z</time>
        <extensions>
          <gpxtpx:TrackPointExtension xmlns:gpxtpx="http://www.garmin.com/xmlschemas/TrackPointExtension/v1">
            <gpxtpx:hr>106</gpxtpx:hr>
          </gpxtpx:TrackPointExtension>
        </extensions>
      </trkpt>
      <trkpt lat="45.98689" lon="6.1813">
        <ele>640</ele>
        <time>2021-03-02T13:23:49Z</time>
        <extensions>
          <gpxtpx:TrackPointExtension xmlns:gpxtpx="http://www.garmin.com/xmlschemas/TrackPointExtension/v1">
            <gpxtpx:hr>105</gpxtpx:hr>
          </gpxtpx:TrackPointExtension>
        </extensions>
      </trkpt>
      <trkpt lat="45.98688" lon="6.18129">
        <ele>640</ele>
        <time>2021-03-02T13:23:50Z</time>
        <extensions>
          <gpxtpx:TrackPointExtension xmlns:gpxtpx="http://www.garmin.com/xmlschemas/TrackPointExtension/v1">
            <gpxtpx:hr>104</gpxtpx:hr>
          </gpxtpx:TrackPointExtension>
        </extensions>
      </trkpt>
      <trkpt lat="45.98686" lon="6.18128">
        <ele>640.1</ele>
        <time>2021-03-02T13:23:51Z</time>
        <extensions>
          <gpxtpx:TrackPointExtension xmlns:gpxtpx="http://www.garmin.com/xmlschemas/TrackPointExtension/v1">
            <gpxtpx:hr>103</gpxtpx:hr>
          </gpxtpx:TrackPointExtension>
        </extensions>
      </trkpt>
      <trkpt lat="45.98684" lon="6.18128">
        <ele>640.2</ele>
        <time>2021-03-02T13:23:52Z</time>
        <extensions>
          <gpxtpx:TrackPointExtension xmlns:gpxtpx="http://www.garmin.com/xmlschemas/TrackPointExtension/v1">
            <gpxtpx:hr>101</gpxtpx:hr>
          </gpxtpx:TrackPointExtension>
        </extensions>
      </trkpt>
      <trkpt lat="45.98682" lon="6.18127">
        <ele>640.4</ele>
        <time>2021-03-02T13:23:53Z</time>
        <extensions>
          <gpxtpx:TrackPointExtension xmlns:gpxtpx="http://www.garmin.com/xmlschemas/TrackPointExtension/v1">
            <gpxtpx:hr>100</gpxtpx:hr>
          </gpxtpx:TrackPointExtension>
        </extensions>
      </trkpt>
      <trkpt lat="45.98679" lon="6.18126">
        <ele>640.6</ele>
        <time>2021-03-02T13:23:54Z</time>
        <extensions>
          <gpxtpx:TrackPointExtension xmlns:gpxtpx="http://www.garmin.com/xmlschemas/TrackPointExtension/v1">
            <gpxtpx:hr>100</gpxtpx:hr>
          </gpxtpx:TrackPointExtension>
        </extensions>
      </trkpt>
      <trkpt lat="45.98676" lon="6.18125">
        <ele>640.8</ele>
        <time>2021-03-02T13:23:55Z</time>
        <extensions>
          <gpxtpx:TrackPointExtension xmlns:gpxtpx="http://www.garmin.com/xmlschemas/TrackPointExtension/v1">
            <gpxtpx:hr>100</gpxtpx:hr>
          </gpxtpx:TrackPointExtension>
        </extensions>
      </trkpt>
      <trkpt lat="45.98672" lon="6.18123">
        <ele>641</ele>
        <time>2021-03-02T13:23:56Z</time>
        <extensions>
          <gpxtpx:TrackPointExtension xmlns:gpxtpx="http://www.garmin.com/xmlschemas/TrackPointExtension/v1">
            <gpxtpx:hr>100</gpxtpx:hr>
          </gpxtpx:TrackPointExtension>
        </extensions>
      </trkpt>
      <trkpt lat="45.98669" lon="6.18121">
        <ele>641.2</ele>
        <time>2021-03-02T13:23:57Z</time>
        <extensions>
          <gpxtpx:TrackPointExtension xmlns:gpxtpx="http://www.garmin.com/xmlschemas/TrackPointExtension/v1">
            <gpxtpx:hr>100</gpxtpx:hr>
          </gpxtpx:TrackPointExtension>
        </extensions>
      </trkpt>
      <trkpt lat="45.98665" lon="6.18119">
        <ele>641.5</ele>
        <time>2021-03-02T13:23:58Z</time>
        <extensions>
          <gpxtpx:TrackPointExtension xmlns:gpxtpx="http://www.garmin.com/xmlschemas/TrackPointExtension/v1">
            <gpxtpx:hr>100</gpxtpx:hr>
          </gpxtpx:TrackPointExtension>
        </extensions>
      </trkpt>
      <trkpt lat="45.98662" lon="6.18118">
        <ele>641.7</ele>
        <time>2021-03-02T13:23:59Z</time>
        <extensions>
          <gpxtpx:TrackPointExtension xmlns:gpxtpx="http://www.garmin.com/xmlschemas/TrackPointExtension/v1">
            <gpxtpx:hr>100</gpxtpx:hr>
          </gpxtpx:TrackPointExtension>
        </extensions>
      </trkpt>
      <trkpt lat="45.98658" lon="6.18116">
        <ele>642</ele>
        <time>2021-03-02T13:24:00Z</time>
        <extensions>
          <gpxtpx:TrackPointExtension xmlns:gpxtpx="http://www.garmin.com/xmlschemas/TrackPointExtension/v1">
            <gpxtpx:hr>100</gpxtpx:hr>
          </gpxtpx:TrackPointExtension>
        </extensions>
      </trkpt>
      <trkpt lat="45.98655" lon="6.18114">
        <ele>642.2</ele>
        <time>2021-03-02T13:24:01Z</time>
        <extensions>
          <gpxtpx:TrackPointExtension xmlns:gpxtpx="http://www.garmin.com/xmlschemas/TrackPointExtension/v1">
            <gpxtpx:hr>100</gpxtpx:hr>
          </gpxtpx:TrackPointExtension>
        </extensions>
      </trkpt>
      <trkpt lat="45.98651" lon="6.18113">
        <ele>642.5</ele>
        <time>2021-03-02T13:24:02Z</time>
        <extensions>
          <gpxtpx:TrackPointExtension xmlns:gpxtpx="http://www.garmin.com/xmlschemas/TrackPointExtension/v1">
            <gpxtpx:hr>100</gpxtpx:hr>
          </gpxtpx:TrackPointExtension>
        </extensions>
      </trkpt>
      <trkpt lat="45.98648" lon="6.18111">
        <ele>642.8</ele>
        <time>2021-03-02T13:24:03Z</time>
        <extensions>
          <gpxtpx:TrackPointExtension xmlns:gpxtpx="http://www.garmin.com/xmlschemas/TrackPointExtension/v1">
            <gpxtpx:hr>100</gpxtpx:hr>
          </gpxtpx:TrackPointExtension>
        </extensions>
      </trkpt>
      <trkpt lat="45.98645" lon="6.18109">
        <ele>643</ele>
        <time>2021-03-02T13:24:04Z</time>
        <extensions>
          <gpxtpx:TrackPointExtension xmlns:gpxtpx="http://www.garmin.com/xmlschemas/TrackPointExtension/v1">
            <gpxtpx:hr>100</gpxtpx:hr>
          </gpxtpx:TrackPointExtension>
        </extensions>
      </trkpt>
      <trkpt lat="45.98641" lon="6.18107">
        <ele>643.3</ele>
        <time>2021-03-02T13:24:05Z</time>
        <extensions>
          <gpxtpx:TrackPointExtension xmlns:gpxtpx="http://www.garmin.com/xmlschemas/TrackPointExtension/v1">
            <gpxtpx:hr>100</gpxtpx:hr>
          </gpxtpx:TrackPointExtension>
        </extensions>
      </trkpt>
      <trkpt lat="45.98638" lon="6.18105">
        <ele>643.6</ele>
        <time>2021-03-02T13:24:06Z</time>
        <extensions>
          <gpxtpx:TrackPointExtension xmlns:gpxtpx="http://www.garmin.com/xmlschemas/TrackPointExtension/v1">
            <gpxtpx:hr>101</gpxtpx:hr>
          </gpxtpx:TrackPointExtension>
        </extensions>
      </trkpt>
      <trkpt lat="45.98635" lon="6.18103">
        <ele>643.9</ele>
        <time>2021-03-02T13:24:07Z</time>
        <extensions>
          <gpxtpx:TrackPointExtension xmlns:gpxtpx="http://www.garmin.com/xmlschemas/TrackPointExtension/v1">
            <gpxtpx:hr>101</gpxtpx:hr>
          </gpxtpx:TrackPointExtension>
        </extensions>
      </trkpt>
      <trkpt lat="45.98631" lon="6.18101">
        <ele>644.2</ele>
        <time>2021-03-02T13:24:08Z</time>
        <extensions>
          <gpxtpx:TrackPointExtension xmlns:gpxtpx="http://www.garmin.com/xmlschemas/TrackPointExtension/v1">
            <gpxtpx:hr>101</gpxtpx:hr>
          </gpxtpx:TrackPointExtension>
        </extensions>
      </trkpt>
      <trkpt lat="45.98628" lon="6.181">
        <ele>644.5</ele>
        <time>2021-03-02T13:24:09Z</time>
        <extensions>
          <gpxtpx:TrackPointExtension xmlns:gpxtpx="http://www.garmin.com/xmlschemas/TrackPointExtension/v1">
            <gpxtpx:hr>101</gpxtpx:hr>
          </gpxtpx:TrackPointExtension>
        </extensions>
      </trkpt>
      <trkpt lat="45.98625" lon="6.18098">
        <ele>644.8</ele>
        <time>2021-03-02T13:24:10Z</time>
        <extensions>
          <gpxtpx:TrackPointExtension xmlns:gpxtpx="http://www.garmin.com/xmlschemas/TrackPointExtension/v1">
            <gpxtpx:hr>101</gpxtpx:hr>
          </gpxtpx:TrackPointExtension>
        </extensions>
      </trkpt>
      <trkpt lat="45.98621" lon="6.18096">
        <ele>645.1</ele>
        <time>2021-03-02T13:24:11Z</time>
        <extensions>
          <gpxtpx:TrackPointExtension xmlns:gpxtpx="http://www.garmin.com/xmlschemas/TrackPointExtension/v1">
            <gpxtpx:hr>102</gpxtpx:hr>
          </gpxtpx:TrackPointExtension>
        </extensions>
      </trkpt>
      <trkpt lat="45.98618" lon="6.18095">
        <ele>645.4</ele>
        <time>2021-03-02T13:24:12Z</time>
        <extensions>
          <gpxtpx:TrackPointExtension xmlns:gpxtpx="http://www.garmin.com/xmlschemas/TrackPointExtension/v1">
            <gpxtpx:hr>102</gpxtpx:hr>
          </gpxtpx:TrackPointExtension>
        </extensions>
      </trkpt>
      <trkpt lat="45.98614" lon="6.18093">
        <ele>645.7</ele>
        <time>2021-03-02T13:24:13Z</time>
        <extensions>
          <gpxtpx:TrackPointExtension xmlns:gpxtpx="http://www.garmin.com/xmlschemas/TrackPointExtension/v1">
            <gpxtpx:hr>103</gpxtpx:hr>
          </gpxtpx:TrackPointExtension>
        </extensions>
      </trkpt>
      <trkpt lat="45.98611" lon="6.18092">
        <ele>646</ele>
        <time>2021-03-02T13:24:14Z</time>
        <extensions>
          <gpxtpx:TrackPointExtension xmlns:gpxtpx="http://www.garmin.com/xmlschemas/TrackPointExtension/v1">
            <gpxtpx:hr>104</gpxtpx:hr>
          </gpxtpx:TrackPointExtension>
        </extensions>
      </trkpt>
      <trkpt lat="45.98608" lon="6.1809">
        <ele>646.3</ele>
        <time>2021-03-02T13:24:15Z</time>
        <extensions>
          <gpxtpx:TrackPointExtension xmlns:gpxtpx="http://www.garmin.com/xmlschemas/TrackPointExtension/v1">
            <gpxtpx:hr>104</gpxtpx:hr>
          </gpxtpx:TrackPointExtension>
        </extensions>
      </trkpt>
      <trkpt lat="45.98604" lon="6.18088">
        <ele>646.6</ele>
        <time>2021-03-02T13:24:16Z</time>
        <extensions>
          <gpxtpx:TrackPointExtension xmlns:gpxtpx="http://www.garmin.com/xmlschemas/TrackPointExtension/v1">
            <gpxtpx:hr>106</gpxtpx:hr>
          </gpxtpx:TrackPointExtension>
        </extensions>
      </trkpt>
      <trkpt lat="45.98601" lon="6.18087">
        <ele>646.8</ele>
        <time>2021-03-02T13:24:17Z</time>
        <extensions>
          <gpxtpx:TrackPointExtension xmlns:gpxtpx="http://www.garmin.com/xmlschemas/TrackPointExtension/v1">
            <gpxtpx:hr>107</gpxtpx:hr>
          </gpxtpx:TrackPointExtension>
        </extensions>
      </trkpt>
      <trkpt lat="45.98597" lon="6.18087">
        <ele>647.1</ele>
        <time>2021-03-02T13:24:18Z</time>
        <extensions>
          <gpxtpx:TrackPointExtension xmlns:gpxtpx="http://www.garmin.com/xmlschemas/TrackPointExtension/v1">
            <gpxtpx:hr>107</gpxtpx:hr>
          </gpxtpx:TrackPointExtension>
        </extensions>
      </trkpt>
      <trkpt lat="45.98594" lon="6.18086">
        <ele>647.4</ele>
        <time>2021-03-02T13:24:19Z</time>
        <extensions>
          <gpxtpx:TrackPointExtension xmlns:gpxtpx="http://www.garmin.com/xmlschemas/TrackPointExtension/v1">
            <gpxtpx:hr>107</gpxtpx:hr>
          </gpxtpx:TrackPointExtension>
        </extensions>
      </trkpt>
      <trkpt lat="45.9859" lon="6.18084">
        <ele>647.7</ele>
        <time>2021-03-02T13:24:20Z</time>
        <extensions>
          <gpxtpx:TrackPointExtension xmlns:gpxtpx="http://www.garmin.com/xmlschemas/TrackPointExtension/v1">
            <gpxtpx:hr>108</gpxtpx:hr>
          </gpxtpx:TrackPointExtension>
        </extensions>
      </trkpt>
      <trkpt lat="45.98587" lon="6.18083">
        <ele>647.9</ele>
        <time>2021-03-02T13:24:21Z</time>
        <extensions>
          <gpxtpx:TrackPointExtension xmlns:gpxtpx="http://www.garmin.com/xmlschemas/TrackPointExtension/v1">
            <gpxtpx:hr>108</gpxtpx:hr>
          </gpxtpx:TrackPointExtension>
        </extensions>
      </trkpt>
      <trkpt lat="45.98583" lon="6.18082">
        <ele>648.2</ele>
        <time>2021-03-02T13:24:22Z</time>
        <extensions>
          <gpxtpx:TrackPointExtension xmlns:gpxtpx="http://www.garmin.com/xmlschemas/TrackPointExtension/v1">
            <gpxtpx:hr>108</gpxtpx:hr>
          </gpxtpx:TrackPointExtension>
        </extensions>
      </trkpt>
      <trkpt lat="45.9858" lon="6.1808">
        <ele>648.5</ele>
        <time>2021-03-02T13:24:23Z</time>
        <extensions>
          <gpxtpx:TrackPointExtension xmlns:gpxtpx="http://www.garmin.com/xmlschemas/TrackPointExtension/v1">
            <gpxtpx:hr>108</gpxtpx:hr>
          </gpxtpx:TrackPointExtension>
        </extensions>
      </trkpt>
      <trkpt lat="45.98577" lon="6.18079">
        <ele>648.7</ele>
        <time>2021-03-02T13:24:24Z</time>
        <extensions>
          <gpxtpx:TrackPointExtension xmlns:gpxtpx="http://www.garmin.com/xmlschemas/TrackPointExtension/v1">
            <gpxtpx:hr>108</gpxtpx:hr>
          </gpxtpx:TrackPointExtension>
        </extensions>
      </trkpt>
      <trkpt lat="45.98573" lon="6.18078">
        <ele>649</ele>
        <time>2021-03-02T13:24:25Z</time>
        <extensions>
          <gpxtpx:TrackPointExtension xmlns:gpxtpx="http://www.garmin.com/xmlschemas/TrackPointExtension/v1">
            <gpxtpx:hr>108</gpxtpx:hr>
          </gpxtpx:TrackPointExtension>
        </extensions>
      </trkpt>
      <trkpt lat="45.9857" lon="6.18077">
        <ele>649.2</ele>
        <time>2021-03-02T13:24:26Z</time>
        <extensions>
          <gpxtpx:TrackPointExtension xmlns:gpxtpx="http://www.garmin.com/xmlschemas/TrackPointExtension/v1">
            <gpxtpx:hr>108</gpxtpx:hr>
          </gpxtpx:TrackPointExtension>
        </extensions>
      </trkpt>
      <trkpt lat="45.98566" lon="6.18075">
        <ele>649.5</ele>
        <time>2021-03-02T13:24:27Z</time>
        <extensions>
          <gpxtpx:TrackPointExtension xmlns:gpxtpx="http://www.garmin.com/xmlschemas/TrackPointExtension/v1">
            <gpxtpx:hr>108</gpxtpx:hr>
          </gpxtpx:TrackPointExtension>
        </extensions>
      </trkpt>
      <trkpt lat="45.98563" lon="6.18074">
        <ele>649.7</ele>
        <time>2021-03-02T13:24:28Z</time>
        <extensions>
          <gpxtpx:TrackPointExtension xmlns:gpxtpx="http://www.garmin.com/xmlschemas/TrackPointExtension/v1">
            <gpxtpx:hr>108</gpxtpx:hr>
          </gpxtpx:TrackPointExtension>
        </extensions>
      </trkpt>
      <trkpt lat="45.9856" lon="6.18073">
        <ele>650</ele>
        <time>2021-03-02T13:24:29Z</time>
        <extensions>
          <gpxtpx:TrackPointExtension xmlns:gpxtpx="http://www.garmin.com/xmlschemas/TrackPointExtension/v1">
            <gpxtpx:hr>108</gpxtpx:hr>
          </gpxtpx:TrackPointExtension>
        </extensions>
      </trkpt>
      <trkpt lat="45.98556" lon="6.18071">
        <ele>650.3</ele>
        <time>2021-03-02T13:24:30Z</time>
        <extensions>
          <gpxtpx:TrackPointExtension xmlns:gpxtpx="http://www.garmin.com/xmlschemas/TrackPointExtension/v1">
            <gpxtpx:hr>108</gpxtpx:hr>
          </gpxtpx:TrackPointExtension>
        </extensions>
      </trkpt>
      <trkpt lat="45.98553" lon="6.1807">
        <ele>650.5</ele>
        <time>2021-03-02T13:24:31Z</time>
        <extensions>
          <gpxtpx:TrackPointExtension xmlns:gpxtpx="http://www.garmin.com/xmlschemas/TrackPointExtension/v1">
            <gpxtpx:hr>107</gpxtpx:hr>
          </gpxtpx:TrackPointExtension>
        </extensions>
      </trkpt>
      <trkpt lat="45.9855" lon="6.18069">
        <ele>650.8</ele>
        <time>2021-03-02T13:24:32Z</time>
        <extensions>
          <gpxtpx:TrackPointExtension xmlns:gpxtpx="http://www.garmin.com/xmlschemas/TrackPointExtension/v1">
            <gpxtpx:hr>107</gpxtpx:hr>
          </gpxtpx:TrackPointExtension>
        </extensions>
      </trkpt>
      <trkpt lat="45.98546" lon="6.18067">
        <ele>651.1</ele>
        <time>2021-03-02T13:24:33Z</time>
        <extensions>
          <gpxtpx:TrackPointExtension xmlns:gpxtpx="http://www.garmin.com/xmlschemas/TrackPointExtension/v1">
            <gpxtpx:hr>107</gpxtpx:hr>
          </gpxtpx:TrackPointExtension>
        </extensions>
      </trkpt>
      <trkpt lat="45.98543" lon="6.18065">
        <ele>651.3</ele>
        <time>2021-03-02T13:24:34Z</time>
        <extensions>
          <gpxtpx:TrackPointExtension xmlns:gpxtpx="http://www.garmin.com/xmlschemas/TrackPointExtension/v1">
            <gpxtpx:hr>106</gpxtpx:hr>
          </gpxtpx:TrackPointExtension>
        </extensions>
      </trkpt>
      <trkpt lat="45.9854" lon="6.18063">
        <ele>651.6</ele>
        <time>2021-03-02T13:24:35Z</time>
        <extensions>
          <gpxtpx:TrackPointExtension xmlns:gpxtpx="http://www.garmin.com/xmlschemas/TrackPointExtension/v1">
            <gpxtpx:hr>106</gpxtpx:hr>
          </gpxtpx:TrackPointExtension>
        </extensions>
      </trkpt>
      <trkpt lat="45.98536" lon="6.18062">
        <ele>651.8</ele>
        <time>2021-03-02T13:24:36Z</time>
        <extensions>
          <gpxtpx:TrackPointExtension xmlns:gpxtpx="http://www.garmin.com/xmlschemas/TrackPointExtension/v1">
            <gpxtpx:hr>105</gpxtpx:hr>
          </gpxtpx:TrackPointExtension>
        </extensions>
      </trkpt>
      <trkpt lat="45.98533" lon="6.1806">
        <ele>652.1</ele>
        <time>2021-03-02T13:24:37Z</time>
        <extensions>
          <gpxtpx:TrackPointExtension xmlns:gpxtpx="http://www.garmin.com/xmlschemas/TrackPointExtension/v1">
            <gpxtpx:hr>105</gpxtpx:hr>
          </gpxtpx:TrackPointExtension>
        </extensions>
      </trkpt>
      <trkpt lat="45.9853" lon="6.18058">
        <ele>652.4</ele>
        <time>2021-03-02T13:24:38Z</time>
        <extensions>
          <gpxtpx:TrackPointExtension xmlns:gpxtpx="http://www.garmin.com/xmlschemas/TrackPointExtension/v1">
            <gpxtpx:hr>104</gpxtpx:hr>
          </gpxtpx:TrackPointExtension>
        </extensions>
      </trkpt>
      <trkpt lat="45.98527" lon="6.18056">
        <ele>652.6</ele>
        <time>2021-03-02T13:24:39Z</time>
        <extensions>
          <gpxtpx:TrackPointExtension xmlns:gpxtpx="http://www.garmin.com/xmlschemas/TrackPointExtension/v1">
            <gpxtpx:hr>104</gpxtpx:hr>
          </gpxtpx:TrackPointExtension>
        </extensions>
      </trkpt>
      <trkpt lat="45.98523" lon="6.18054">
        <ele>652.9</ele>
        <time>2021-03-02T13:24:40Z</time>
        <extensions>
          <gpxtpx:TrackPointExtension xmlns:gpxtpx="http://www.garmin.com/xmlschemas/TrackPointExtension/v1">
            <gpxtpx:hr>103</gpxtpx:hr>
          </gpxtpx:TrackPointExtension>
        </extensions>
      </trkpt>
      <trkpt lat="45.9852" lon="6.18052">
        <ele>653.1</ele>
        <time>2021-03-02T13:24:41Z</time>
        <extensions>
          <gpxtpx:TrackPointExtension xmlns:gpxtpx="http://www.garmin.com/xmlschemas/TrackPointExtension/v1">
            <gpxtpx:hr>103</gpxtpx:hr>
          </gpxtpx:TrackPointExtension>
        </extensions>
      </trkpt>
      <trkpt lat="45.98517" lon="6.1805">
        <ele>653.4</ele>
        <time>2021-03-02T13:24:42Z</time>
        <extensions>
          <gpxtpx:TrackPointExtension xmlns:gpxtpx="http://www.garmin.com/xmlschemas/TrackPointExtension/v1">
            <gpxtpx:hr>104</gpxtpx:hr>
          </gpxtpx:TrackPointExtension>
        </extensions>
      </trkpt>
      <trkpt lat="45.98514" lon="6.18048">
        <ele>653.6</ele>
        <time>2021-03-02T13:24:43Z</time>
        <extensions>
          <gpxtpx:TrackPointExtension xmlns:gpxtpx="http://www.garmin.com/xmlschemas/TrackPointExtension/v1">
            <gpxtpx:hr>104</gpxtpx:hr>
          </gpxtpx:TrackPointExtension>
        </extensions>
      </trkpt>
      <trkpt lat="45.9851" lon="6.18046">
        <ele>653.9</ele>
        <time>2021-03-02T13:24:44Z</time>
        <extensions>
          <gpxtpx:TrackPointExtension xmlns:gpxtpx="http://www.garmin.com/xmlschemas/TrackPointExtension/v1">
            <gpxtpx:hr>105</gpxtpx:hr>
          </gpxtpx:TrackPointExtension>
        </extensions>
      </trkpt>
      <trkpt lat="45.98507" lon="6.18044">
        <ele>654.1</ele>
        <time>2021-03-02T13:24:45Z</time>
        <extensions>
          <gpxtpx:TrackPointExtension xmlns:gpxtpx="http://www.garmin.com/xmlschemas/TrackPointExtension/v1">
            <gpxtpx:hr>105</gpxtpx:hr>
          </gpxtpx:TrackPointExtension>
        </extensions>
      </trkpt>
      <trkpt lat="45.98504" lon="6.18042">
        <ele>654.4</ele>
        <time>2021-03-02T13:24:46Z</time>
        <extensions>
          <gpxtpx:TrackPointExtension xmlns:gpxtpx="http://www.garmin.com/xmlschemas/TrackPointExtension/v1">
            <gpxtpx:hr>105</gpxtpx:hr>
          </gpxtpx:TrackPointExtension>
        </extensions>
      </trkpt>
      <trkpt lat="45.98501" lon="6.18039">
        <ele>654.6</ele>
        <time>2021-03-02T13:24:47Z</time>
        <extensions>
          <gpxtpx:TrackPointExtension xmlns:gpxtpx="http://www.garmin.com/xmlschemas/TrackPointExtension/v1">
            <gpxtpx:hr>105</gpxtpx:hr>
          </gpxtpx:TrackPointExtension>
        </extensions>
      </trkpt>
      <trkpt lat="45.98498" lon="6.18037">
        <ele>654.9</ele>
        <time>2021-03-02T13:24:48Z</time>
        <extensions>
          <gpxtpx:TrackPointExtension xmlns:gpxtpx="http://www.garmin.com/xmlschemas/TrackPointExtension/v1">
            <gpxtpx:hr>105</gpxtpx:hr>
          </gpxtpx:TrackPointExtension>
        </extensions>
      </trkpt>
      <trkpt lat="45.98495" lon="6.18035">
        <ele>655.1</ele>
        <time>2021-03-02T13:24:49Z</time>
        <extensions>
          <gpxtpx:TrackPointExtension xmlns:gpxtpx="http://www.garmin.com/xmlschemas/TrackPointExtension/v1">
            <gpxtpx:hr>105</gpxtpx:hr>
          </gpxtpx:TrackPointExtension>
        </extensions>
      </trkpt>
      <trkpt lat="45.98492" lon="6.18033">
        <ele>655.4</ele>
        <time>2021-03-02T13:24:50Z</time>
        <extensions>
          <gpxtpx:TrackPointExtension xmlns:gpxtpx="http://www.garmin.com/xmlschemas/TrackPointExtension/v1">
            <gpxtpx:hr>105</gpxtpx:hr>
          </gpxtpx:TrackPointExtension>
        </extensions>
      </trkpt>
      <trkpt lat="45.98488" lon="6.18031">
        <ele>655.6</ele>
        <time>2021-03-02T13:24:51Z</time>
        <extensions>
          <gpxtpx:TrackPointExtension xmlns:gpxtpx="http://www.garmin.com/xmlschemas/TrackPointExtension/v1">
            <gpxtpx:hr>106</gpxtpx:hr>
          </gpxtpx:TrackPointExtension>
        </extensions>
      </trkpt>
      <trkpt lat="45.98485" lon="6.18028">
        <ele>655.9</ele>
        <time>2021-03-02T13:24:52Z</time>
        <extensions>
          <gpxtpx:TrackPointExtension xmlns:gpxtpx="http://www.garmin.com/xmlschemas/TrackPointExtension/v1">
            <gpxtpx:hr>106</gpxtpx:hr>
          </gpxtpx:TrackPointExtension>
        </extensions>
      </trkpt>
      <trkpt lat="45.98482" lon="6.18026">
        <ele>656.2</ele>
        <time>2021-03-02T13:24:53Z</time>
        <extensions>
          <gpxtpx:TrackPointExtension xmlns:gpxtpx="http://www.garmin.com/xmlschemas/TrackPointExtension/v1">
            <gpxtpx:hr>106</gpxtpx:hr>
          </gpxtpx:TrackPointExtension>
        </extensions>
      </trkpt>
      <trkpt lat="45.98479" lon="6.18024">
        <ele>656.4</ele>
        <time>2021-03-02T13:24:54Z</time>
        <extensions>
          <gpxtpx:TrackPointExtension xmlns:gpxtpx="http://www.garmin.com/xmlschemas/TrackPointExtension/v1">
            <gpxtpx:hr>106</gpxtpx:hr>
          </gpxtpx:TrackPointExtension>
        </extensions>
      </trkpt>
      <trkpt lat="45.98476" lon="6.18022">
        <ele>656.7</ele>
        <time>2021-03-02T13:24:55Z</time>
        <extensions>
          <gpxtpx:TrackPointExtension xmlns:gpxtpx="http://www.garmin.com/xmlschemas/TrackPointExtension/v1">
            <gpxtpx:hr>106</gpxtpx:hr>
          </gpxtpx:TrackPointExtension>
        </extensions>
      </trkpt>
      <trkpt lat="45.98473" lon="6.18019">
        <ele>656.9</ele>
        <time>2021-03-02T13:24:56Z</time>
        <extensions>
          <gpxtpx:TrackPointExtension xmlns:gpxtpx="http://www.garmin.com/xmlschemas/TrackPointExtension/v1">
            <gpxtpx:hr>106</gpxtpx:hr>
          </gpxtpx:TrackPointExtension>
        </extensions>
      </trkpt>
      <trkpt lat="45.9847" lon="6.18017">
        <ele>657.2</ele>
        <time>2021-03-02T13:24:57Z</time>
        <extensions>
          <gpxtpx:TrackPointExtension xmlns:gpxtpx="http://www.garmin.com/xmlschemas/TrackPointExtension/v1">
            <gpxtpx:hr>107</gpxtpx:hr>
          </gpxtpx:TrackPointExtension>
        </extensions>
      </trkpt>
      <trkpt lat="45.98467" lon="6.18015">
        <ele>657.4</ele>
        <time>2021-03-02T13:24:58Z</time>
        <extensions>
          <gpxtpx:TrackPointExtension xmlns:gpxtpx="http://www.garmin.com/xmlschemas/TrackPointExtension/v1">
            <gpxtpx:hr>107</gpxtpx:hr>
          </gpxtpx:TrackPointExtension>
        </extensions>
      </trkpt>
      <trkpt lat="45.98464" lon="6.18013">
        <ele>657.6</ele>
        <time>2021-03-02T13:24:59Z</time>
        <extensions>
          <gpxtpx:TrackPointExtension xmlns:gpxtpx="http://www.garmin.com/xmlschemas/TrackPointExtension/v1">
            <gpxtpx:hr>107</gpxtpx:hr>
          </gpxtpx:TrackPointExtension>
        </extensions>
      </trkpt>
      <trkpt lat="45.98461" lon="6.18011">
        <ele>657.9</ele>
        <time>2021-03-02T13:25:00Z</time>
        <extensions>
          <gpxtpx:TrackPointExtension xmlns:gpxtpx="http://www.garmin.com/xmlschemas/TrackPointExtension/v1">
            <gpxtpx:hr>107</gpxtpx:hr>
          </gpxtpx:TrackPointExtension>
        </extensions>
      </trkpt>
      <trkpt lat="45.98459" lon="6.18008">
        <ele>658.1</ele>
        <time>2021-03-02T13:25:01Z</time>
        <extensions>
          <gpxtpx:TrackPointExtension xmlns:gpxtpx="http://www.garmin.com/xmlschemas/TrackPointExtension/v1">
            <gpxtpx:hr>107</gpxtpx:hr>
          </gpxtpx:TrackPointExtension>
        </extensions>
      </trkpt>
      <trkpt lat="45.98456" lon="6.18006">
        <ele>658.4</ele>
        <time>2021-03-02T13:25:02Z</time>
        <extensions>
          <gpxtpx:TrackPointExtension xmlns:gpxtpx="http://www.garmin.com/xmlschemas/TrackPointExtension/v1">
            <gpxtpx:hr>108</gpxtpx:hr>
          </gpxtpx:TrackPointExtension>
        </extensions>
      </trkpt>
      <trkpt lat="45.98453" lon="6.18004">
        <ele>658.6</ele>
        <time>2021-03-02T13:25:03Z</time>
        <extensions>
          <gpxtpx:TrackPointExtension xmlns:gpxtpx="http://www.garmin.com/xmlschemas/TrackPointExtension/v1">
            <gpxtpx:hr>108</gpxtpx:hr>
          </gpxtpx:TrackPointExtension>
        </extensions>
      </trkpt>
      <trkpt lat="45.9845" lon="6.18002">
        <ele>658.8</ele>
        <time>2021-03-02T13:25:04Z</time>
        <extensions>
          <gpxtpx:TrackPointExtension xmlns:gpxtpx="http://www.garmin.com/xmlschemas/TrackPointExtension/v1">
            <gpxtpx:hr>110</gpxtpx:hr>
          </gpxtpx:TrackPointExtension>
        </extensions>
      </trkpt>
      <trkpt lat="45.98447" lon="6.18">
        <ele>659.1</ele>
        <time>2021-03-02T13:25:05Z</time>
        <extensions>
          <gpxtpx:TrackPointExtension xmlns:gpxtpx="http://www.garmin.com/xmlschemas/TrackPointExtension/v1">
            <gpxtpx:hr>111</gpxtpx:hr>
          </gpxtpx:TrackPointExtension>
        </extensions>
      </trkpt>
      <trkpt lat="45.98445" lon="6.17998">
        <ele>659.3</ele>
        <time>2021-03-02T13:25:06Z</time>
        <extensions>
          <gpxtpx:TrackPointExtension xmlns:gpxtpx="http://www.garmin.com/xmlschemas/TrackPointExtension/v1">
            <gpxtpx:hr>111</gpxtpx:hr>
          </gpxtpx:TrackPointExtension>
        </extensions>
      </trkpt>
      <trkpt lat="45.98442" lon="6.17997">
        <ele>659.5</ele>
        <time>2021-03-02T13:25:07Z</time>
        <extensions>
          <gpxtpx:TrackPointExtension xmlns:gpxtpx="http://www.garmin.com/xmlschemas/TrackPointExtension/v1">
            <gpxtpx:hr>112</gpxtpx:hr>
          </gpxtpx:TrackPointExtension>
        </extensions>
      </trkpt>
      <trkpt lat="45.98439" lon="6.17995">
        <ele>659.8</ele>
        <time>2021-03-02T13:25:08Z</time>
        <extensions>
          <gpxtpx:TrackPointExtension xmlns:gpxtpx="http://www.garmin.com/xmlschemas/TrackPointExtension/v1">
            <gpxtpx:hr>112</gpxtpx:hr>
          </gpxtpx:TrackPointExtension>
        </extensions>
      </trkpt>
      <trkpt lat="45.98436" lon="6.17994">
        <ele>660</ele>
        <time>2021-03-02T13:25:09Z</time>
        <extensions>
          <gpxtpx:TrackPointExtension xmlns:gpxtpx="http://www.garmin.com/xmlschemas/TrackPointExtension/v1">
            <gpxtpx:hr>113</gpxtpx:hr>
          </gpxtpx:TrackPointExtension>
        </extensions>
      </trkpt>
      <trkpt lat="45.98433" lon="6.17992">
        <ele>660.3</ele>
        <time>2021-03-02T13:25:10Z</time>
        <extensions>
          <gpxtpx:TrackPointExtension xmlns:gpxtpx="http://www.garmin.com/xmlschemas/TrackPointExtension/v1">
            <gpxtpx:hr>115</gpxtpx:hr>
          </gpxtpx:TrackPointExtension>
        </extensions>
      </trkpt>
      <trkpt lat="45.9843" lon="6.1799">
        <ele>660.5</ele>
        <time>2021-03-02T13:25:11Z</time>
        <extensions>
          <gpxtpx:TrackPointExtension xmlns:gpxtpx="http://www.garmin.com/xmlschemas/TrackPointExtension/v1">
            <gpxtpx:hr>116</gpxtpx:hr>
          </gpxtpx:TrackPointExtension>
        </extensions>
      </trkpt>
      <trkpt lat="45.98427" lon="6.17988">
        <ele>660.8</ele>
        <time>2021-03-02T13:25:12Z</time>
        <extensions>
          <gpxtpx:TrackPointExtension xmlns:gpxtpx="http://www.garmin.com/xmlschemas/TrackPointExtension/v1">
            <gpxtpx:hr>117</gpxtpx:hr>
          </gpxtpx:TrackPointExtension>
        </extensions>
      </trkpt>
      <trkpt lat="45.98424" lon="6.17986">
        <ele>661</ele>
        <time>2021-03-02T13:25:13Z</time>
        <extensions>
          <gpxtpx:TrackPointExtension xmlns:gpxtpx="http://www.garmin.com/xmlschemas/TrackPointExtension/v1">
            <gpxtpx:hr>117</gpxtpx:hr>
          </gpxtpx:TrackPointExtension>
        </extensions>
      </trkpt>
      <trkpt lat="45.98421" lon="6.17985">
        <ele>661.3</ele>
        <time>2021-03-02T13:25:14Z</time>
        <extensions>
          <gpxtpx:TrackPointExtension xmlns:gpxtpx="http://www.garmin.com/xmlschemas/TrackPointExtension/v1">
            <gpxtpx:hr>117</gpxtpx:hr>
          </gpxtpx:TrackPointExtension>
        </extensions>
      </trkpt>
      <trkpt lat="45.98418" lon="6.17982">
        <ele>661.5</ele>
        <time>2021-03-02T13:25:15Z</time>
        <extensions>
          <gpxtpx:TrackPointExtension xmlns:gpxtpx="http://www.garmin.com/xmlschemas/TrackPointExtension/v1">
            <gpxtpx:hr>117</gpxtpx:hr>
          </gpxtpx:TrackPointExtension>
        </extensions>
      </trkpt>
      <trkpt lat="45.98416" lon="6.17979">
        <ele>661.7</ele>
        <time>2021-03-02T13:25:16Z</time>
        <extensions>
          <gpxtpx:TrackPointExtension xmlns:gpxtpx="http://www.garmin.com/xmlschemas/TrackPointExtension/v1">
            <gpxtpx:hr>117</gpxtpx:hr>
          </gpxtpx:TrackPointExtension>
        </extensions>
      </trkpt>
      <trkpt lat="45.98413" lon="6.17976">
        <ele>662</ele>
        <time>2021-03-02T13:25:17Z</time>
        <extensions>
          <gpxtpx:TrackPointExtension xmlns:gpxtpx="http://www.garmin.com/xmlschemas/TrackPointExtension/v1">
            <gpxtpx:hr>117</gpxtpx:hr>
          </gpxtpx:TrackPointExtension>
        </extensions>
      </trkpt>
      <trkpt lat="45.98411" lon="6.17973">
        <ele>662.2</ele>
        <time>2021-03-02T13:25:18Z</time>
        <extensions>
          <gpxtpx:TrackPointExtension xmlns:gpxtpx="http://www.garmin.com/xmlschemas/TrackPointExtension/v1">
            <gpxtpx:hr>117</gpxtpx:hr>
          </gpxtpx:TrackPointExtension>
        </extensions>
      </trkpt>
      <trkpt lat="45.98409" lon="6.1797">
        <ele>662.4</ele>
        <time>2021-03-02T13:25:19Z</time>
        <extensions>
          <gpxtpx:TrackPointExtension xmlns:gpxtpx="http://www.garmin.com/xmlschemas/TrackPointExtension/v1">
            <gpxtpx:hr>117</gpxtpx:hr>
          </gpxtpx:TrackPointExtension>
        </extensions>
      </trkpt>
      <trkpt lat="45.98407" lon="6.17967">
        <ele>662.7</ele>
        <time>2021-03-02T13:25:20Z</time>
        <extensions>
          <gpxtpx:TrackPointExtension xmlns:gpxtpx="http://www.garmin.com/xmlschemas/TrackPointExtension/v1">
            <gpxtpx:hr>117</gpxtpx:hr>
          </gpxtpx:TrackPointExtension>
        </extensions>
      </trkpt>
      <trkpt lat="45.98406" lon="6.17963">
        <ele>662.9</ele>
        <time>2021-03-02T13:25:21Z</time>
        <extensions>
          <gpxtpx:TrackPointExtension xmlns:gpxtpx="http://www.garmin.com/xmlschemas/TrackPointExtension/v1">
            <gpxtpx:hr>117</gpxtpx:hr>
          </gpxtpx:TrackPointExtension>
        </extensions>
      </trkpt>
      <trkpt lat="45.98404" lon="6.1796">
        <ele>663.1</ele>
        <time>2021-03-02T13:25:22Z</time>
        <extensions>
          <gpxtpx:TrackPointExtension xmlns:gpxtpx="http://www.garmin.com/xmlschemas/TrackPointExtension/v1">
            <gpxtpx:hr>117</gpxtpx:hr>
          </gpxtpx:TrackPointExtension>
        </extensions>
      </trkpt>
      <trkpt lat="45.98402" lon="6.17956">
        <ele>663.4</ele>
        <time>2021-03-02T13:25:23Z</time>
        <extensions>
          <gpxtpx:TrackPointExtension xmlns:gpxtpx="http://www.garmin.com/xmlschemas/TrackPointExtension/v1">
            <gpxtpx:hr>117</gpxtpx:hr>
          </gpxtpx:TrackPointExtension>
        </extensions>
      </trkpt>
      <trkpt lat="45.984" lon="6.17953">
        <ele>663.6</ele>
        <time>2021-03-02T13:25:24Z</time>
        <extensions>
          <gpxtpx:TrackPointExtension xmlns:gpxtpx="http://www.garmin.com/xmlschemas/TrackPointExtension/v1">
            <gpxtpx:hr>117</gpxtpx:hr>
          </gpxtpx:TrackPointExtension>
        </extensions>
      </trkpt>
      <trkpt lat="45.98398" lon="6.17949">
        <ele>663.8</ele>
        <time>2021-03-02T13:25:25Z</time>
        <extensions>
          <gpxtpx:TrackPointExtension xmlns:gpxtpx="http://www.garmin.com/xmlschemas/TrackPointExtension/v1">
            <gpxtpx:hr>117</gpxtpx:hr>
          </gpxtpx:TrackPointExtension>
        </extensions>
      </trkpt>
      <trkpt lat="45.98396" lon="6.17946">
        <ele>664.1</ele>
        <time>2021-03-02T13:25:26Z</time>
        <extensions>
          <gpxtpx:TrackPointExtension xmlns:gpxtpx="http://www.garmin.com/xmlschemas/TrackPointExtension/v1">
            <gpxtpx:hr>118</gpxtpx:hr>
          </gpxtpx:TrackPointExtension>
        </extensions>
      </trkpt>
      <trkpt lat="45.98394" lon="6.17943">
        <ele>664.3</ele>
        <time>2021-03-02T13:25:27Z</time>
        <extensions>
          <gpxtpx:TrackPointExtension xmlns:gpxtpx="http://www.garmin.com/xmlschemas/TrackPointExtension/v1">
            <gpxtpx:hr>118</gpxtpx:hr>
          </gpxtpx:TrackPointExtension>
        </extensions>
      </trkpt>
      <trkpt lat="45.98392" lon="6.17939">
        <ele>664.6</ele>
        <time>2021-03-02T13:25:28Z</time>
        <extensions>
          <gpxtpx:TrackPointExtension xmlns:gpxtpx="http://www.garmin.com/xmlschemas/TrackPointExtension/v1">
            <gpxtpx:hr>118</gpxtpx:hr>
          </gpxtpx:TrackPointExtension>
        </extensions>
      </trkpt>
      <trkpt lat="45.98389" lon="6.17937">
        <ele>664.8</ele>
        <time>2021-03-02T13:25:29Z</time>
        <extensions>
          <gpxtpx:TrackPointExtension xmlns:gpxtpx="http://www.garmin.com/xmlschemas/TrackPointExtension/v1">
            <gpxtpx:hr>118</gpxtpx:hr>
          </gpxtpx:TrackPointExtension>
        </extensions>
      </trkpt>
      <trkpt lat="45.98387" lon="6.17934">
        <ele>665</ele>
        <time>2021-03-02T13:25:30Z</time>
        <extensions>
          <gpxtpx:TrackPointExtension xmlns:gpxtpx="http://www.garmin.com/xmlschemas/TrackPointExtension/v1">
            <gpxtpx:hr>118</gpxtpx:hr>
          </gpxtpx:TrackPointExtension>
        </extensions>
      </trkpt>
      <trkpt lat="45.98384" lon="6.17932">
        <ele>665.3</ele>
        <time>2021-03-02T13:25:31Z</time>
        <extensions>
          <gpxtpx:TrackPointExtension xmlns:gpxtpx="http://www.garmin.com/xmlschemas/TrackPointExtension/v1">
            <gpxtpx:hr>118</gpxtpx:hr>
          </gpxtpx:TrackPointExtension>
        </extensions>
      </trkpt>
      <trkpt lat="45.98381" lon="6.1793">
        <ele>665.5</ele>
        <time>2021-03-02T13:25:32Z</time>
        <extensions>
          <gpxtpx:TrackPointExtension xmlns:gpxtpx="http://www.garmin.com/xmlschemas/TrackPointExtension/v1">
            <gpxtpx:hr>119</gpxtpx:hr>
          </gpxtpx:TrackPointExtension>
        </extensions>
      </trkpt>
      <trkpt lat="45.98378" lon="6.17928">
        <ele>665.7</ele>
        <time>2021-03-02T13:25:33Z</time>
        <extensions>
          <gpxtpx:TrackPointExtension xmlns:gpxtpx="http://www.garmin.com/xmlschemas/TrackPointExtension/v1">
            <gpxtpx:hr>120</gpxtpx:hr>
          </gpxtpx:TrackPointExtension>
        </extensions>
      </trkpt>
      <trkpt lat="45.98375" lon="6.17927">
        <ele>665.9</ele>
        <time>2021-03-02T13:25:34Z</time>
        <extensions>
          <gpxtpx:TrackPointExtension xmlns:gpxtpx="http://www.garmin.com/xmlschemas/TrackPointExtension/v1">
            <gpxtpx:hr>121</gpxtpx:hr>
          </gpxtpx:TrackPointExtension>
        </extensions>
      </trkpt>
      <trkpt lat="45.98372" lon="6.17925">
        <ele>666.1</ele>
        <time>2021-03-02T13:25:35Z</time>
        <extensions>
          <gpxtpx:TrackPointExtension xmlns:gpxtpx="http://www.garmin.com/xmlschemas/TrackPointExtension/v1">
            <gpxtpx:hr>122</gpxtpx:hr>
          </gpxtpx:TrackPointExtension>
        </extensions>
      </trkpt>
      <trkpt lat="45.98369" lon="6.17924">
        <ele>666.4</ele>
        <time>2021-03-02T13:25:36Z</time>
        <extensions>
          <gpxtpx:TrackPointExtension xmlns:gpxtpx="http://www.garmin.com/xmlschemas/TrackPointExtension/v1">
            <gpxtpx:hr>122</gpxtpx:hr>
          </gpxtpx:TrackPointExtension>
        </extensions>
      </trkpt>
      <trkpt lat="45.98366" lon="6.17923">
        <ele>666.6</ele>
        <time>2021-03-02T13:25:37Z</time>
        <extensions>
          <gpxtpx:TrackPointExtension xmlns:gpxtpx="http://www.garmin.com/xmlschemas/TrackPointExtension/v1">
            <gpxtpx:hr>122</gpxtpx:hr>
          </gpxtpx:TrackPointExtension>
        </extensions>
      </trkpt>
      <trkpt lat="45.98363" lon="6.17923">
        <ele>666.8</ele>
        <time>2021-03-02T13:25:38Z</time>
        <extensions>
          <gpxtpx:TrackPointExtension xmlns:gpxtpx="http://www.garmin.com/xmlschemas/TrackPointExtension/v1">
            <gpxtpx:hr>123</gpxtpx:hr>
          </gpxtpx:TrackPointExtension>
        </extensions>
      </trkpt>
      <trkpt lat="45.9836" lon="6.17922">
        <ele>667</ele>
        <time>2021-03-02T13:25:39Z</time>
        <extensions>
          <gpxtpx:TrackPointExtension xmlns:gpxtpx="http://www.garmin.com/xmlschemas/TrackPointExtension/v1">
            <gpxtpx:hr>124</gpxtpx:hr>
          </gpxtpx:TrackPointExtension>
        </extensions>
      </trkpt>
      <trkpt lat="45.98357" lon="6.17922">
        <ele>667.3</ele>
        <time>2021-03-02T13:25:40Z</time>
        <extensions>
          <gpxtpx:TrackPointExtension xmlns:gpxtpx="http://www.garmin.com/xmlschemas/TrackPointExtension/v1">
            <gpxtpx:hr>124</gpxtpx:hr>
          </gpxtpx:TrackPointExtension>
        </extensions>
      </trkpt>
      <trkpt lat="45.98354" lon="6.17922">
        <ele>667.5</ele>
        <time>2021-03-02T13:25:41Z</time>
        <extensions>
          <gpxtpx:TrackPointExtension xmlns:gpxtpx="http://www.garmin.com/xmlschemas/TrackPointExtension/v1">
            <gpxtpx:hr>124</gpxtpx:hr>
          </gpxtpx:TrackPointExtension>
        </extensions>
      </trkpt>
      <trkpt lat="45.9835" lon="6.17923">
        <ele>667.7</ele>
        <time>2021-03-02T13:25:42Z</time>
        <extensions>
          <gpxtpx:TrackPointExtension xmlns:gpxtpx="http://www.garmin.com/xmlschemas/TrackPointExtension/v1">
            <gpxtpx:hr>124</gpxtpx:hr>
          </gpxtpx:TrackPointExtension>
        </extensions>
      </trkpt>
      <trkpt lat="45.98347" lon="6.17924">
        <ele>667.9</ele>
        <time>2021-03-02T13:25:43Z</time>
        <extensions>
          <gpxtpx:TrackPointExtension xmlns:gpxtpx="http://www.garmin.com/xmlschemas/TrackPointExtension/v1">
            <gpxtpx:hr>124</gpxtpx:hr>
          </gpxtpx:TrackPointExtension>
        </extensions>
      </trkpt>
      <trkpt lat="45.98344" lon="6.17925">
        <ele>668.2</ele>
        <time>2021-03-02T13:25:44Z</time>
        <extensions>
          <gpxtpx:TrackPointExtension xmlns:gpxtpx="http://www.garmin.com/xmlschemas/TrackPointExtension/v1">
            <gpxtpx:hr>124</gpxtpx:hr>
          </gpxtpx:TrackPointExtension>
        </extensions>
      </trkpt>
      <trkpt lat="45.98342" lon="6.17927">
        <ele>668.4</ele>
        <time>2021-03-02T13:25:45Z</time>
        <extensions>
          <gpxtpx:TrackPointExtension xmlns:gpxtpx="http://www.garmin.com/xmlschemas/TrackPointExtension/v1">
            <gpxtpx:hr>124</gpxtpx:hr>
          </gpxtpx:TrackPointExtension>
        </extensions>
      </trkpt>
      <trkpt lat="45.98339" lon="6.1793">
        <ele>668.6</ele>
        <time>2021-03-02T13:25:46Z</time>
        <extensions>
          <gpxtpx:TrackPointExtension xmlns:gpxtpx="http://www.garmin.com/xmlschemas/TrackPointExtension/v1">
            <gpxtpx:hr>124</gpxtpx:hr>
          </gpxtpx:TrackPointExtension>
        </extensions>
      </trkpt>
      <trkpt lat="45.98336" lon="6.17932">
        <ele>668.8</ele>
        <time>2021-03-02T13:25:47Z</time>
        <extensions>
          <gpxtpx:TrackPointExtension xmlns:gpxtpx="http://www.garmin.com/xmlschemas/TrackPointExtension/v1">
            <gpxtpx:hr>124</gpxtpx:hr>
          </gpxtpx:TrackPointExtension>
        </extensions>
      </trkpt>
      <trkpt lat="45.98334" lon="6.17935">
        <ele>669.1</ele>
        <time>2021-03-02T13:25:48Z</time>
        <extensions>
          <gpxtpx:TrackPointExtension xmlns:gpxtpx="http://www.garmin.com/xmlschemas/TrackPointExtension/v1">
            <gpxtpx:hr>125</gpxtpx:hr>
          </gpxtpx:TrackPointExtension>
        </extensions>
      </trkpt>
      <trkpt lat="45.98331" lon="6.17939">
        <ele>669.3</ele>
        <time>2021-03-02T13:25:49Z</time>
        <extensions>
          <gpxtpx:TrackPointExtension xmlns:gpxtpx="http://www.garmin.com/xmlschemas/TrackPointExtension/v1">
            <gpxtpx:hr>125</gpxtpx:hr>
          </gpxtpx:TrackPointExtension>
        </extensions>
      </trkpt>
      <trkpt lat="45.98329" lon="6.17942">
        <ele>669.5</ele>
        <time>2021-03-02T13:25:50Z</time>
        <extensions>
          <gpxtpx:TrackPointExtension xmlns:gpxtpx="http://www.garmin.com/xmlschemas/TrackPointExtension/v1">
            <gpxtpx:hr>126</gpxtpx:hr>
          </gpxtpx:TrackPointExtension>
        </extensions>
      </trkpt>
      <trkpt lat="45.98327" lon="6.17945">
        <ele>669.7</ele>
        <time>2021-03-02T13:25:51Z</time>
        <extensions>
          <gpxtpx:TrackPointExtension xmlns:gpxtpx="http://www.garmin.com/xmlschemas/TrackPointExtension/v1">
            <gpxtpx:hr>126</gpxtpx:hr>
          </gpxtpx:TrackPointExtension>
        </extensions>
      </trkpt>
      <trkpt lat="45.98325" lon="6.17949">
        <ele>670</ele>
        <time>2021-03-02T13:25:52Z</time>
        <extensions>
          <gpxtpx:TrackPointExtension xmlns:gpxtpx="http://www.garmin.com/xmlschemas/TrackPointExtension/v1">
            <gpxtpx:hr>126</gpxtpx:hr>
          </gpxtpx:TrackPointExtension>
        </extensions>
      </trkpt>
      <trkpt lat="45.98323" lon="6.17952">
        <ele>670.2</ele>
        <time>2021-03-02T13:25:53Z</time>
        <extensions>
          <gpxtpx:TrackPointExtension xmlns:gpxtpx="http://www.garmin.com/xmlschemas/TrackPointExtension/v1">
            <gpxtpx:hr>127</gpxtpx:hr>
          </gpxtpx:TrackPointExtension>
        </extensions>
      </trkpt>
      <trkpt lat="45.9832" lon="6.17955">
        <ele>670.4</ele>
        <time>2021-03-02T13:25:54Z</time>
        <extensions>
          <gpxtpx:TrackPointExtension xmlns:gpxtpx="http://www.garmin.com/xmlschemas/TrackPointExtension/v1">
            <gpxtpx:hr>127</gpxtpx:hr>
          </gpxtpx:TrackPointExtension>
        </extensions>
      </trkpt>
      <trkpt lat="45.98318" lon="6.17958">
        <ele>670.6</ele>
        <time>2021-03-02T13:25:55Z</time>
        <extensions>
          <gpxtpx:TrackPointExtension xmlns:gpxtpx="http://www.garmin.com/xmlschemas/TrackPointExtension/v1">
            <gpxtpx:hr>127</gpxtpx:hr>
          </gpxtpx:TrackPointExtension>
        </extensions>
      </trkpt>
      <trkpt lat="45.98316" lon="6.17962">
        <ele>670.8</ele>
        <time>2021-03-02T13:25:56Z</time>
        <extensions>
          <gpxtpx:TrackPointExtension xmlns:gpxtpx="http://www.garmin.com/xmlschemas/TrackPointExtension/v1">
            <gpxtpx:hr>127</gpxtpx:hr>
          </gpxtpx:TrackPointExtension>
        </extensions>
      </trkpt>
      <trkpt lat="45.98314" lon="6.17965">
        <ele>671</ele>
        <time>2021-03-02T13:25:57Z</time>
        <extensions>
          <gpxtpx:TrackPointExtension xmlns:gpxtpx="http://www.garmin.com/xmlschemas/TrackPointExtension/v1">
            <gpxtpx:hr>127</gpxtpx:hr>
          </gpxtpx:TrackPointExtension>
        </extensions>
      </trkpt>
      <trkpt lat="45.98312" lon="6.17968">
        <ele>671.3</ele>
        <time>2021-03-02T13:25:58Z</time>
        <extensions>
          <gpxtpx:TrackPointExtension xmlns:gpxtpx="http://www.garmin.com/xmlschemas/TrackPointExtension/v1">
            <gpxtpx:hr>127</gpxtpx:hr>
          </gpxtpx:TrackPointExtension>
        </extensions>
      </trkpt>
      <trkpt lat="45.9831" lon="6.17971">
        <ele>671.5</ele>
        <time>2021-03-02T13:25:59Z</time>
        <extensions>
          <gpxtpx:TrackPointExtension xmlns:gpxtpx="http://www.garmin.com/xmlschemas/TrackPointExtension/v1">
            <gpxtpx:hr>127</gpxtpx:hr>
          </gpxtpx:TrackPointExtension>
        </extensions>
      </trkpt>
      <trkpt lat="45.98308" lon="6.17975">
        <ele>671.7</ele>
        <time>2021-03-02T13:26:00Z</time>
        <extensions>
          <gpxtpx:TrackPointExtension xmlns:gpxtpx="http://www.garmin.com/xmlschemas/TrackPointExtension/v1">
            <gpxtpx:hr>127</gpxtpx:hr>
          </gpxtpx:TrackPointExtension>
        </extensions>
      </trkpt>
      <trkpt lat="45.98306" lon="6.17978">
        <ele>671.9</ele>
        <time>2021-03-02T13:26:01Z</time>
        <extensions>
          <gpxtpx:TrackPointExtension xmlns:gpxtpx="http://www.garmin.com/xmlschemas/TrackPointExtension/v1">
            <gpxtpx:hr>126</gpxtpx:hr>
          </gpxtpx:TrackPointExtension>
        </extensions>
      </trkpt>
      <trkpt lat="45.98303" lon="6.17981">
        <ele>672.2</ele>
        <time>2021-03-02T13:26:02Z</time>
        <extensions>
          <gpxtpx:TrackPointExtension xmlns:gpxtpx="http://www.garmin.com/xmlschemas/TrackPointExtension/v1">
            <gpxtpx:hr>127</gpxtpx:hr>
          </gpxtpx:TrackPointExtension>
        </extensions>
      </trkpt>
      <trkpt lat="45.98301" lon="6.17984">
        <ele>672.4</ele>
        <time>2021-03-02T13:26:03Z</time>
        <extensions>
          <gpxtpx:TrackPointExtension xmlns:gpxtpx="http://www.garmin.com/xmlschemas/TrackPointExtension/v1">
            <gpxtpx:hr>127</gpxtpx:hr>
          </gpxtpx:TrackPointExtension>
        </extensions>
      </trkpt>
      <trkpt lat="45.98299" lon="6.17987">
        <ele>672.6</ele>
        <time>2021-03-02T13:26:04Z</time>
        <extensions>
          <gpxtpx:TrackPointExtension xmlns:gpxtpx="http://www.garmin.com/xmlschemas/TrackPointExtension/v1">
            <gpxtpx:hr>127</gpxtpx:hr>
          </gpxtpx:TrackPointExtension>
        </extensions>
      </trkpt>
      <trkpt lat="45.98296" lon="6.1799">
        <ele>672.9</ele>
        <time>2021-03-02T13:26:05Z</time>
        <extensions>
          <gpxtpx:TrackPointExtension xmlns:gpxtpx="http://www.garmin.com/xmlschemas/TrackPointExtension/v1">
            <gpxtpx:hr>127</gpxtpx:hr>
          </gpxtpx:TrackPointExtension>
        </extensions>
      </trkpt>
      <trkpt lat="45.98294" lon="6.17994">
        <ele>673.1</ele>
        <time>2021-03-02T13:26:06Z</time>
        <extensions>
          <gpxtpx:TrackPointExtension xmlns:gpxtpx="http://www.garmin.com/xmlschemas/TrackPointExtension/v1">
            <gpxtpx:hr>127</gpxtpx:hr>
          </gpxtpx:TrackPointExtension>
        </extensions>
      </trkpt>
      <trkpt lat="45.98292" lon="6.17997">
        <ele>673.3</ele>
        <time>2021-03-02T13:26:07Z</time>
        <extensions>
          <gpxtpx:TrackPointExtension xmlns:gpxtpx="http://www.garmin.com/xmlschemas/TrackPointExtension/v1">
            <gpxtpx:hr>127</gpxtpx:hr>
          </gpxtpx:TrackPointExtension>
        </extensions>
      </trkpt>
      <trkpt lat="45.98289" lon="6.18">
        <ele>673.5</ele>
        <time>2021-03-02T13:26:08Z</time>
        <extensions>
          <gpxtpx:TrackPointExtension xmlns:gpxtpx="http://www.garmin.com/xmlschemas/TrackPointExtension/v1">
            <gpxtpx:hr>127</gpxtpx:hr>
          </gpxtpx:TrackPointExtension>
        </extensions>
      </trkpt>
      <trkpt lat="45.98287" lon="6.18003">
        <ele>673.8</ele>
        <time>2021-03-02T13:26:09Z</time>
        <extensions>
          <gpxtpx:TrackPointExtension xmlns:gpxtpx="http://www.garmin.com/xmlschemas/TrackPointExtension/v1">
            <gpxtpx:hr>127</gpxtpx:hr>
          </gpxtpx:TrackPointExtension>
        </extensions>
      </trkpt>
      <trkpt lat="45.98284" lon="6.18006">
        <ele>674</ele>
        <time>2021-03-02T13:26:10Z</time>
        <extensions>
          <gpxtpx:TrackPointExtension xmlns:gpxtpx="http://www.garmin.com/xmlschemas/TrackPointExtension/v1">
            <gpxtpx:hr>127</gpxtpx:hr>
          </gpxtpx:TrackPointExtension>
        </extensions>
      </trkpt>
      <trkpt lat="45.98282" lon="6.18009">
        <ele>674.2</ele>
        <time>2021-03-02T13:26:11Z</time>
        <extensions>
          <gpxtpx:TrackPointExtension xmlns:gpxtpx="http://www.garmin.com/xmlschemas/TrackPointExtension/v1">
            <gpxtpx:hr>127</gpxtpx:hr>
          </gpxtpx:TrackPointExtension>
        </extensions>
      </trkpt>
      <trkpt lat="45.9828" lon="6.18011">
        <ele>674.4</ele>
        <time>2021-03-02T13:26:12Z</time>
        <extensions>
          <gpxtpx:TrackPointExtension xmlns:gpxtpx="http://www.garmin.com/xmlschemas/TrackPointExtension/v1">
            <gpxtpx:hr>127</gpxtpx:hr>
          </gpxtpx:TrackPointExtension>
        </extensions>
      </trkpt>
      <trkpt lat="45.98277" lon="6.18014">
        <ele>674.6</ele>
        <time>2021-03-02T13:26:13Z</time>
        <extensions>
          <gpxtpx:TrackPointExtension xmlns:gpxtpx="http://www.garmin.com/xmlschemas/TrackPointExtension/v1">
            <gpxtpx:hr>127</gpxtpx:hr>
          </gpxtpx:TrackPointExtension>
        </extensions>
      </trkpt>
      <trkpt lat="45.98275" lon="6.18018">
        <ele>674.9</ele>
        <time>2021-03-02T13:26:14Z</time>
        <extensions>
          <gpxtpx:TrackPointExtension xmlns:gpxtpx="http://www.garmin.com/xmlschemas/TrackPointExtension/v1">
            <gpxtpx:hr>127</gpxtpx:hr>
          </gpxtpx:TrackPointExtension>
        </extensions>
      </trkpt>
      <trkpt lat="45.98273" lon="6.18021">
        <ele>675.1</ele>
        <time>2021-03-02T13:26:15Z</time>
        <extensions>
          <gpxtpx:TrackPointExtension xmlns:gpxtpx="http://www.garmin.com/xmlschemas/TrackPointExtension/v1">
            <gpxtpx:hr>127</gpxtpx:hr>
          </gpxtpx:TrackPointExtension>
        </extensions>
      </trkpt>
      <trkpt lat="45.98271" lon="6.18024">
        <ele>675.4</ele>
        <time>2021-03-02T13:26:16Z</time>
        <extensions>
          <gpxtpx:TrackPointExtension xmlns:gpxtpx="http://www.garmin.com/xmlschemas/TrackPointExtension/v1">
            <gpxtpx:hr>127</gpxtpx:hr>
          </gpxtpx:TrackPointExtension>
        </extensions>
      </trkpt>
      <trkpt lat="45.98269" lon="6.18028">
        <ele>675.6</ele>
        <time>2021-03-02T13:26:17Z</time>
        <extensions>
          <gpxtpx:TrackPointExtension xmlns:gpxtpx="http://www.garmin.com/xmlschemas/TrackPointExtension/v1">
            <gpxtpx:hr>127</gpxtpx:hr>
          </gpxtpx:TrackPointExtension>
        </extensions>
      </trkpt>
      <trkpt lat="45.98267" lon="6.18031">
        <ele>675.8</ele>
        <time>2021-03-02T13:26:18Z</time>
        <extensions>
          <gpxtpx:TrackPointExtension xmlns:gpxtpx="http://www.garmin.com/xmlschemas/TrackPointExtension/v1">
            <gpxtpx:hr>127</gpxtpx:hr>
          </gpxtpx:TrackPointExtension>
        </extensions>
      </trkpt>
      <trkpt lat="45.98265" lon="6.18035">
        <ele>676.1</ele>
        <time>2021-03-02T13:26:19Z</time>
        <extensions>
          <gpxtpx:TrackPointExtension xmlns:gpxtpx="http://www.garmin.com/xmlschemas/TrackPointExtension/v1">
            <gpxtpx:hr>127</gpxtpx:hr>
          </gpxtpx:TrackPointExtension>
        </extensions>
      </trkpt>
      <trkpt lat="45.98264" lon="6.18039">
        <ele>676.3</ele>
        <time>2021-03-02T13:26:20Z</time>
        <extensions>
          <gpxtpx:TrackPointExtension xmlns:gpxtpx="http://www.garmin.com/xmlschemas/TrackPointExtension/v1">
            <gpxtpx:hr>127</gpxtpx:hr>
          </gpxtpx:TrackPointExtension>
        </extensions>
      </trkpt>
      <trkpt lat="45.98262" lon="6.18044">
        <ele>676.5</ele>
        <time>2021-03-02T13:26:21Z</time>
        <extensions>
          <gpxtpx:TrackPointExtension xmlns:gpxtpx="http://www.garmin.com/xmlschemas/TrackPointExtension/v1">
            <gpxtpx:hr>127</gpxtpx:hr>
          </gpxtpx:TrackPointExtension>
        </extensions>
      </trkpt>
      <trkpt lat="45.98261" lon="6.18048">
        <ele>676.8</ele>
        <time>2021-03-02T13:26:22Z</time>
        <extensions>
          <gpxtpx:TrackPointExtension xmlns:gpxtpx="http://www.garmin.com/xmlschemas/TrackPointExtension/v1">
            <gpxtpx:hr>127</gpxtpx:hr>
          </gpxtpx:TrackPointExtension>
        </extensions>
      </trkpt>
      <trkpt lat="45.9826" lon="6.18052">
        <ele>677</ele>
        <time>2021-03-02T13:26:23Z</time>
        <extensions>
          <gpxtpx:TrackPointExtension xmlns:gpxtpx="http://www.garmin.com/xmlschemas/TrackPointExtension/v1">
            <gpxtpx:hr>127</gpxtpx:hr>
          </gpxtpx:TrackPointExtension>
        </extensions>
      </trkpt>
      <trkpt lat="45.98259" lon="6.18057">
        <ele>677.3</ele>
        <time>2021-03-02T13:26:24Z</time>
        <extensions>
          <gpxtpx:TrackPointExtension xmlns:gpxtpx="http://www.garmin.com/xmlschemas/TrackPointExtension/v1">
            <gpxtpx:hr>126</gpxtpx:hr>
          </gpxtpx:TrackPointExtension>
        </extensions>
      </trkpt>
      <trkpt lat="45.98258" lon="6.18061">
        <ele>677.5</ele>
        <time>2021-03-02T13:26:25Z</time>
        <extensions>
          <gpxtpx:TrackPointExtension xmlns:gpxtpx="http://www.garmin.com/xmlschemas/TrackPointExtension/v1">
            <gpxtpx:hr>126</gpxtpx:hr>
          </gpxtpx:TrackPointExtension>
        </extensions>
      </trkpt>
      <trkpt lat="45.98257" lon="6.18066">
        <ele>677.7</ele>
        <time>2021-03-02T13:26:26Z</time>
        <extensions>
          <gpxtpx:TrackPointExtension xmlns:gpxtpx="http://www.garmin.com/xmlschemas/TrackPointExtension/v1">
            <gpxtpx:hr>126</gpxtpx:hr>
          </gpxtpx:TrackPointExtension>
        </extensions>
      </trkpt>
      <trkpt lat="45.98256" lon="6.18071">
        <ele>678</ele>
        <time>2021-03-02T13:26:27Z</time>
        <extensions>
          <gpxtpx:TrackPointExtension xmlns:gpxtpx="http://www.garmin.com/xmlschemas/TrackPointExtension/v1">
            <gpxtpx:hr>125</gpxtpx:hr>
          </gpxtpx:TrackPointExtension>
        </extensions>
      </trkpt>
      <trkpt lat="45.98256" lon="6.18076">
        <ele>678.2</ele>
        <time>2021-03-02T13:26:28Z</time>
        <extensions>
          <gpxtpx:TrackPointExtension xmlns:gpxtpx="http://www.garmin.com/xmlschemas/TrackPointExtension/v1">
            <gpxtpx:hr>124</gpxtpx:hr>
          </gpxtpx:TrackPointExtension>
        </extensions>
      </trkpt>
      <trkpt lat="45.98255" lon="6.18081">
        <ele>678.4</ele>
        <time>2021-03-02T13:26:29Z</time>
        <extensions>
          <gpxtpx:TrackPointExtension xmlns:gpxtpx="http://www.garmin.com/xmlschemas/TrackPointExtension/v1">
            <gpxtpx:hr>123</gpxtpx:hr>
          </gpxtpx:TrackPointExtension>
        </extensions>
      </trkpt>
      <trkpt lat="45.98254" lon="6.18086">
        <ele>678.6</ele>
        <time>2021-03-02T13:26:30Z</time>
        <extensions>
          <gpxtpx:TrackPointExtension xmlns:gpxtpx="http://www.garmin.com/xmlschemas/TrackPointExtension/v1">
            <gpxtpx:hr>122</gpxtpx:hr>
          </gpxtpx:TrackPointExtension>
        </extensions>
      </trkpt>
      <trkpt lat="45.98254" lon="6.18091">
        <ele>678.8</ele>
        <time>2021-03-02T13:26:31Z</time>
        <extensions>
          <gpxtpx:TrackPointExtension xmlns:gpxtpx="http://www.garmin.com/xmlschemas/TrackPointExtension/v1">
            <gpxtpx:hr>122</gpxtpx:hr>
          </gpxtpx:TrackPointExtension>
        </extensions>
      </trkpt>
      <trkpt lat="45.98253" lon="6.18095">
        <ele>679</ele>
        <time>2021-03-02T13:26:32Z</time>
        <extensions>
          <gpxtpx:TrackPointExtension xmlns:gpxtpx="http://www.garmin.com/xmlschemas/TrackPointExtension/v1">
            <gpxtpx:hr>122</gpxtpx:hr>
          </gpxtpx:TrackPointExtension>
        </extensions>
      </trkpt>
      <trkpt lat="45.98253" lon="6.181">
        <ele>679.2</ele>
        <time>2021-03-02T13:26:33Z</time>
        <extensions>
          <gpxtpx:TrackPointExtension xmlns:gpxtpx="http://www.garmin.com/xmlschemas/TrackPointExtension/v1">
            <gpxtpx:hr>122</gpxtpx:hr>
          </gpxtpx:TrackPointExtension>
        </extensions>
      </trkpt>
      <trkpt lat="45.98252" lon="6.18105">
        <ele>679.4</ele>
        <time>2021-03-02T13:26:34Z</time>
        <extensions>
          <gpxtpx:TrackPointExtension xmlns:gpxtpx="http://www.garmin.com/xmlschemas/TrackPointExtension/v1">
            <gpxtpx:hr>122</gpxtpx:hr>
          </gpxtpx:TrackPointExtension>
        </extensions>
      </trkpt>
      <trkpt lat="45.98251" lon="6.1811">
        <ele>679.6</ele>
        <time>2021-03-02T13:26:35Z</time>
        <extensions>
          <gpxtpx:TrackPointExtension xmlns:gpxtpx="http://www.garmin.com/xmlschemas/TrackPointExtension/v1">
            <gpxtpx:hr>122</gpxtpx:hr>
          </gpxtpx:TrackPointExtension>
        </extensions>
      </trkpt>
      <trkpt lat="45.98251" lon="6.18115">
        <ele>679.8</ele>
        <time>2021-03-02T13:26:36Z</time>
        <extensions>
          <gpxtpx:TrackPointExtension xmlns:gpxtpx="http://www.garmin.com/xmlschemas/TrackPointExtension/v1">
            <gpxtpx:hr>122</gpxtpx:hr>
          </gpxtpx:TrackPointExtension>
        </extensions>
      </trkpt>
      <trkpt lat="45.9825" lon="6.18119">
        <ele>680.1</ele>
        <time>2021-03-02T13:26:37Z</time>
        <extensions>
          <gpxtpx:TrackPointExtension xmlns:gpxtpx="http://www.garmin.com/xmlschemas/TrackPointExtension/v1">
            <gpxtpx:hr>122</gpxtpx:hr>
          </gpxtpx:TrackPointExtension>
        </extensions>
      </trkpt>
      <trkpt lat="45.9825" lon="6.18124">
        <ele>680.3</ele>
        <time>2021-03-02T13:26:38Z</time>
        <extensions>
          <gpxtpx:TrackPointExtension xmlns:gpxtpx="http://www.garmin.com/xmlschemas/TrackPointExtension/v1">
            <gpxtpx:hr>122</gpxtpx:hr>
          </gpxtpx:TrackPointExtension>
        </extensions>
      </trkpt>
      <trkpt lat="45.98249" lon="6.18129">
        <ele>680.5</ele>
        <time>2021-03-02T13:26:39Z</time>
        <extensions>
          <gpxtpx:TrackPointExtension xmlns:gpxtpx="http://www.garmin.com/xmlschemas/TrackPointExtension/v1">
            <gpxtpx:hr>122</gpxtpx:hr>
          </gpxtpx:TrackPointExtension>
        </extensions>
      </trkpt>
      <trkpt lat="45.98249" lon="6.18134">
        <ele>680.7</ele>
        <time>2021-03-02T13:26:40Z</time>
        <extensions>
          <gpxtpx:TrackPointExtension xmlns:gpxtpx="http://www.garmin.com/xmlschemas/TrackPointExtension/v1">
            <gpxtpx:hr>122</gpxtpx:hr>
          </gpxtpx:TrackPointExtension>
        </extensions>
      </trkpt>
      <trkpt lat="45.98248" lon="6.18139">
        <ele>680.9</ele>
        <time>2021-03-02T13:26:41Z</time>
        <extensions>
          <gpxtpx:TrackPointExtension xmlns:gpxtpx="http://www.garmin.com/xmlschemas/TrackPointExtension/v1">
            <gpxtpx:hr>123</gpxtpx:hr>
          </gpxtpx:TrackPointExtension>
        </extensions>
      </trkpt>
      <trkpt lat="45.98248" lon="6.18144">
        <ele>681.1</ele>
        <time>2021-03-02T13:26:42Z</time>
        <extensions>
          <gpxtpx:TrackPointExtension xmlns:gpxtpx="http://www.garmin.com/xmlschemas/TrackPointExtension/v1">
            <gpxtpx:hr>123</gpxtpx:hr>
          </gpxtpx:TrackPointExtension>
        </extensions>
      </trkpt>
      <trkpt lat="45.98247" lon="6.18149">
        <ele>681.3</ele>
        <time>2021-03-02T13:26:43Z</time>
        <extensions>
          <gpxtpx:TrackPointExtension xmlns:gpxtpx="http://www.garmin.com/xmlschemas/TrackPointExtension/v1">
            <gpxtpx:hr>124</gpxtpx:hr>
          </gpxtpx:TrackPointExtension>
        </extensions>
      </trkpt>
      <trkpt lat="45.98247" lon="6.18154">
        <ele>681.5</ele>
        <time>2021-03-02T13:26:44Z</time>
        <extensions>
          <gpxtpx:TrackPointExtension xmlns:gpxtpx="http://www.garmin.com/xmlschemas/TrackPointExtension/v1">
            <gpxtpx:hr>125</gpxtpx:hr>
          </gpxtpx:TrackPointExtension>
        </extensions>
      </trkpt>
      <trkpt lat="45.98246" lon="6.18159">
        <ele>681.7</ele>
        <time>2021-03-02T13:26:45Z</time>
        <extensions>
          <gpxtpx:TrackPointExtension xmlns:gpxtpx="http://www.garmin.com/xmlschemas/TrackPointExtension/v1">
            <gpxtpx:hr>126</gpxtpx:hr>
          </gpxtpx:TrackPointExtension>
        </extensions>
      </trkpt>
      <trkpt lat="45.98245" lon="6.18164">
        <ele>681.9</ele>
        <time>2021-03-02T13:26:46Z</time>
        <extensions>
          <gpxtpx:TrackPointExtension xmlns:gpxtpx="http://www.garmin.com/xmlschemas/TrackPointExtension/v1">
            <gpxtpx:hr>128</gpxtpx:hr>
          </gpxtpx:TrackPointExtension>
        </extensions>
      </trkpt>
      <trkpt lat="45.98244" lon="6.18168">
        <ele>682.1</ele>
        <time>2021-03-02T13:26:47Z</time>
        <extensions>
          <gpxtpx:TrackPointExtension xmlns:gpxtpx="http://www.garmin.com/xmlschemas/TrackPointExtension/v1">
            <gpxtpx:hr>129</gpxtpx:hr>
          </gpxtpx:TrackPointExtension>
        </extensions>
      </trkpt>
      <trkpt lat="45.98243" lon="6.18173">
        <ele>682.3</ele>
        <time>2021-03-02T13:26:48Z</time>
        <extensions>
          <gpxtpx:TrackPointExtension xmlns:gpxtpx="http://www.garmin.com/xmlschemas/TrackPointExtension/v1">
            <gpxtpx:hr>129</gpxtpx:hr>
          </gpxtpx:TrackPointExtension>
        </extensions>
      </trkpt>
      <trkpt lat="45.98242" lon="6.18177">
        <ele>682.5</ele>
        <time>2021-03-02T13:26:49Z</time>
        <extensions>
          <gpxtpx:TrackPointExtension xmlns:gpxtpx="http://www.garmin.com/xmlschemas/TrackPointExtension/v1">
            <gpxtpx:hr>129</gpxtpx:hr>
          </gpxtpx:TrackPointExtension>
        </extensions>
      </trkpt>
      <trkpt lat="45.9824" lon="6.18181">
        <ele>682.7</ele>
        <time>2021-03-02T13:26:50Z</time>
        <extensions>
          <gpxtpx:TrackPointExtension xmlns:gpxtpx="http://www.garmin.com/xmlschemas/TrackPointExtension/v1">
            <gpxtpx:hr>129</gpxtpx:hr>
          </gpxtpx:TrackPointExtension>
        </extensions>
      </trkpt>
      <trkpt lat="45.98238" lon="6.18184">
        <ele>682.9</ele>
        <time>2021-03-02T13:26:51Z</time>
        <extensions>
          <gpxtpx:TrackPointExtension xmlns:gpxtpx="http://www.garmin.com/xmlschemas/TrackPointExtension/v1">
            <gpxtpx:hr>130</gpxtpx:hr>
          </gpxtpx:TrackPointExtension>
        </extensions>
      </trkpt>
      <trkpt lat="45.98236" lon="6.18188">
        <ele>683.1</ele>
        <time>2021-03-02T13:26:52Z</time>
        <extensions>
          <gpxtpx:TrackPointExtension xmlns:gpxtpx="http://www.garmin.com/xmlschemas/TrackPointExtension/v1">
            <gpxtpx:hr>130</gpxtpx:hr>
          </gpxtpx:TrackPointExtension>
        </extensions>
      </trkpt>
      <trkpt lat="45.98233" lon="6.18191">
        <ele>683.3</ele>
        <time>2021-03-02T13:26:53Z</time>
        <extensions>
          <gpxtpx:TrackPointExtension xmlns:gpxtpx="http://www.garmin.com/xmlschemas/TrackPointExtension/v1">
            <gpxtpx:hr>130</gpxtpx:hr>
          </gpxtpx:TrackPointExtension>
        </extensions>
      </trkpt>
      <trkpt lat="45.9823" lon="6.18194">
        <ele>683.5</ele>
        <time>2021-03-02T13:26:54Z</time>
        <extensions>
          <gpxtpx:TrackPointExtension xmlns:gpxtpx="http://www.garmin.com/xmlschemas/TrackPointExtension/v1">
            <gpxtpx:hr>131</gpxtpx:hr>
          </gpxtpx:TrackPointExtension>
        </extensions>
      </trkpt>
      <trkpt lat="45.98227" lon="6.18196">
        <ele>683.7</ele>
        <time>2021-03-02T13:26:55Z</time>
        <extensions>
          <gpxtpx:TrackPointExtension xmlns:gpxtpx="http://www.garmin.com/xmlschemas/TrackPointExtension/v1">
            <gpxtpx:hr>131</gpxtpx:hr>
          </gpxtpx:TrackPointExtension>
        </extensions>
      </trkpt>
      <trkpt lat="45.98225" lon="6.18198">
        <ele>683.9</ele>
        <time>2021-03-02T13:26:56Z</time>
        <extensions>
          <gpxtpx:TrackPointExtension xmlns:gpxtpx="http://www.garmin.com/xmlschemas/TrackPointExtension/v1">
            <gpxtpx:hr>132</gpxtpx:hr>
          </gpxtpx:TrackPointExtension>
        </extensions>
      </trkpt>
      <trkpt lat="45.98222" lon="6.182">
        <ele>684.1</ele>
        <time>2021-03-02T13:26:57Z</time>
        <extensions>
          <gpxtpx:TrackPointExtension xmlns:gpxtpx="http://www.garmin.com/xmlschemas/TrackPointExtension/v1">
            <gpxtpx:hr>133</gpxtpx:hr>
          </gpxtpx:TrackPointExtension>
        </extensions>
      </trkpt>
      <trkpt lat="45.98218" lon="6.18202">
        <ele>684.3</ele>
        <time>2021-03-02T13:26:58Z</time>
        <extensions>
          <gpxtpx:TrackPointExtension xmlns:gpxtpx="http://www.garmin.com/xmlschemas/TrackPointExtension/v1">
            <gpxtpx:hr>133</gpxtpx:hr>
          </gpxtpx:TrackPointExtension>
        </extensions>
      </trkpt>
      <trkpt lat="45.98215" lon="6.18203">
        <ele>684.5</ele>
        <time>2021-03-02T13:26:59Z</time>
        <extensions>
          <gpxtpx:TrackPointExtension xmlns:gpxtpx="http://www.garmin.com/xmlschemas/TrackPointExtension/v1">
            <gpxtpx:hr>134</gpxtpx:hr>
          </gpxtpx:TrackPointExtension>
        </extensions>
      </trkpt>
      <trkpt lat="45.98211" lon="6.18204">
        <ele>684.8</ele>
        <time>2021-03-02T13:27:00Z</time>
        <extensions>
          <gpxtpx:TrackPointExtension xmlns:gpxtpx="http://www.garmin.com/xmlschemas/TrackPointExtension/v1">
            <gpxtpx:hr>134</gpxtpx:hr>
          </gpxtpx:TrackPointExtension>
        </extensions>
      </trkpt>
      <trkpt lat="45.98208" lon="6.18204">
        <ele>684.9</ele>
        <time>2021-03-02T13:27:01Z</time>
        <extensions>
          <gpxtpx:TrackPointExtension xmlns:gpxtpx="http://www.garmin.com/xmlschemas/TrackPointExtension/v1">
            <gpxtpx:hr>134</gpxtpx:hr>
          </gpxtpx:TrackPointExtension>
        </extensions>
      </trkpt>
      <trkpt lat="45.98204" lon="6.18205">
        <ele>685.2</ele>
        <time>2021-03-02T13:27:02Z</time>
        <extensions>
          <gpxtpx:TrackPointExtension xmlns:gpxtpx="http://www.garmin.com/xmlschemas/TrackPointExtension/v1">
            <gpxtpx:hr>134</gpxtpx:hr>
          </gpxtpx:TrackPointExtension>
        </extensions>
      </trkpt>
      <trkpt lat="45.98201" lon="6.18204">
        <ele>685.4</ele>
        <time>2021-03-02T13:27:03Z</time>
        <extensions>
          <gpxtpx:TrackPointExtension xmlns:gpxtpx="http://www.garmin.com/xmlschemas/TrackPointExtension/v1">
            <gpxtpx:hr>134</gpxtpx:hr>
          </gpxtpx:TrackPointExtension>
        </extensions>
      </trkpt>
      <trkpt lat="45.98198" lon="6.18203">
        <ele>685.6</ele>
        <time>2021-03-02T13:27:04Z</time>
        <extensions>
          <gpxtpx:TrackPointExtension xmlns:gpxtpx="http://www.garmin.com/xmlschemas/TrackPointExtension/v1">
            <gpxtpx:hr>134</gpxtpx:hr>
          </gpxtpx:TrackPointExtension>
        </extensions>
      </trkpt>
      <trkpt lat="45.98195" lon="6.18201">
        <ele>685.8</ele>
        <time>2021-03-02T13:27:05Z</time>
        <extensions>
          <gpxtpx:TrackPointExtension xmlns:gpxtpx="http://www.garmin.com/xmlschemas/TrackPointExtension/v1">
            <gpxtpx:hr>134</gpxtpx:hr>
          </gpxtpx:TrackPointExtension>
        </extensions>
      </trkpt>
      <trkpt lat="45.98192" lon="6.18199">
        <ele>685.9</ele>
        <time>2021-03-02T13:27:06Z</time>
        <extensions>
          <gpxtpx:TrackPointExtension xmlns:gpxtpx="http://www.garmin.com/xmlschemas/TrackPointExtension/v1">
            <gpxtpx:hr>133</gpxtpx:hr>
          </gpxtpx:TrackPointExtension>
        </extensions>
      </trkpt>
      <trkpt lat="45.98189" lon="6.18197">
        <ele>686.2</ele>
        <time>2021-03-02T13:27:07Z</time>
        <extensions>
          <gpxtpx:TrackPointExtension xmlns:gpxtpx="http://www.garmin.com/xmlschemas/TrackPointExtension/v1">
            <gpxtpx:hr>133</gpxtpx:hr>
          </gpxtpx:TrackPointExtension>
        </extensions>
      </trkpt>
      <trkpt lat="45.98186" lon="6.18194">
        <ele>686.4</ele>
        <time>2021-03-02T13:27:08Z</time>
        <extensions>
          <gpxtpx:TrackPointExtension xmlns:gpxtpx="http://www.garmin.com/xmlschemas/TrackPointExtension/v1">
            <gpxtpx:hr>133</gpxtpx:hr>
          </gpxtpx:TrackPointExtension>
        </extensions>
      </trkpt>
      <trkpt lat="45.98183" lon="6.18192">
        <ele>686.6</ele>
        <time>2021-03-02T13:27:09Z</time>
        <extensions>
          <gpxtpx:TrackPointExtension xmlns:gpxtpx="http://www.garmin.com/xmlschemas/TrackPointExtension/v1">
            <gpxtpx:hr>133</gpxtpx:hr>
          </gpxtpx:TrackPointExtension>
        </extensions>
      </trkpt>
      <trkpt lat="45.9818" lon="6.18189">
        <ele>686.8</ele>
        <time>2021-03-02T13:27:10Z</time>
        <extensions>
          <gpxtpx:TrackPointExtension xmlns:gpxtpx="http://www.garmin.com/xmlschemas/TrackPointExtension/v1">
            <gpxtpx:hr>133</gpxtpx:hr>
          </gpxtpx:TrackPointExtension>
        </extensions>
      </trkpt>
      <trkpt lat="45.98178" lon="6.18186">
        <ele>686.9</ele>
        <time>2021-03-02T13:27:11Z</time>
        <extensions>
          <gpxtpx:TrackPointExtension xmlns:gpxtpx="http://www.garmin.com/xmlschemas/TrackPointExtension/v1">
            <gpxtpx:hr>133</gpxtpx:hr>
          </gpxtpx:TrackPointExtension>
        </extensions>
      </trkpt>
      <trkpt lat="45.98175" lon="6.18183">
        <ele>687.1</ele>
        <time>2021-03-02T13:27:12Z</time>
        <extensions>
          <gpxtpx:TrackPointExtension xmlns:gpxtpx="http://www.garmin.com/xmlschemas/TrackPointExtension/v1">
            <gpxtpx:hr>134</gpxtpx:hr>
          </gpxtpx:TrackPointExtension>
        </extensions>
      </trkpt>
      <trkpt lat="45.98172" lon="6.1818">
        <ele>687.3</ele>
        <time>2021-03-02T13:27:13Z</time>
        <extensions>
          <gpxtpx:TrackPointExtension xmlns:gpxtpx="http://www.garmin.com/xmlschemas/TrackPointExtension/v1">
            <gpxtpx:hr>134</gpxtpx:hr>
          </gpxtpx:TrackPointExtension>
        </extensions>
      </trkpt>
      <trkpt lat="45.98168" lon="6.18177">
        <ele>687.5</ele>
        <time>2021-03-02T13:27:14Z</time>
        <extensions>
          <gpxtpx:TrackPointExtension xmlns:gpxtpx="http://www.garmin.com/xmlschemas/TrackPointExtension/v1">
            <gpxtpx:hr>134</gpxtpx:hr>
          </gpxtpx:TrackPointExtension>
        </extensions>
      </trkpt>
      <trkpt lat="45.98165" lon="6.18174">
        <ele>687.7</ele>
        <time>2021-03-02T13:27:15Z</time>
        <extensions>
          <gpxtpx:TrackPointExtension xmlns:gpxtpx="http://www.garmin.com/xmlschemas/TrackPointExtension/v1">
            <gpxtpx:hr>133</gpxtpx:hr>
          </gpxtpx:TrackPointExtension>
        </extensions>
      </trkpt>
      <trkpt lat="45.98162" lon="6.18171">
        <ele>687.8</ele>
        <time>2021-03-02T13:27:16Z</time>
        <extensions>
          <gpxtpx:TrackPointExtension xmlns:gpxtpx="http://www.garmin.com/xmlschemas/TrackPointExtension/v1">
            <gpxtpx:hr>133</gpxtpx:hr>
          </gpxtpx:TrackPointExtension>
        </extensions>
      </trkpt>
      <trkpt lat="45.98159" lon="6.18168">
        <ele>688</ele>
        <time>2021-03-02T13:27:17Z</time>
        <extensions>
          <gpxtpx:TrackPointExtension xmlns:gpxtpx="http://www.garmin.com/xmlschemas/TrackPointExtension/v1">
            <gpxtpx:hr>133</gpxtpx:hr>
          </gpxtpx:TrackPointExtension>
        </extensions>
      </trkpt>
      <trkpt lat="45.98157" lon="6.18165">
        <ele>688.2</ele>
        <time>2021-03-02T13:27:18Z</time>
        <extensions>
          <gpxtpx:TrackPointExtension xmlns:gpxtpx="http://www.garmin.com/xmlschemas/TrackPointExtension/v1">
            <gpxtpx:hr>133</gpxtpx:hr>
          </gpxtpx:TrackPointExtension>
        </extensions>
      </trkpt>
      <trkpt lat="45.98154" lon="6.18163">
        <ele>688.4</ele>
        <time>2021-03-02T13:27:19Z</time>
        <extensions>
          <gpxtpx:TrackPointExtension xmlns:gpxtpx="http://www.garmin.com/xmlschemas/TrackPointExtension/v1">
            <gpxtpx:hr>133</gpxtpx:hr>
          </gpxtpx:TrackPointExtension>
        </extensions>
      </trkpt>
      <trkpt lat="45.98151" lon="6.1816">
        <ele>688.5</ele>
        <time>2021-03-02T13:27:20Z</time>
        <extensions>
          <gpxtpx:TrackPointExtension xmlns:gpxtpx="http://www.garmin.com/xmlschemas/TrackPointExtension/v1">
            <gpxtpx:hr>133</gpxtpx:hr>
          </gpxtpx:TrackPointExtension>
        </extensions>
      </trkpt>
      <trkpt lat="45.98147" lon="6.18158">
        <ele>688.7</ele>
        <time>2021-03-02T13:27:21Z</time>
        <extensions>
          <gpxtpx:TrackPointExtension xmlns:gpxtpx="http://www.garmin.com/xmlschemas/TrackPointExtension/v1">
            <gpxtpx:hr>133</gpxtpx:hr>
          </gpxtpx:TrackPointExtension>
        </extensions>
      </trkpt>
      <trkpt lat="45.98144" lon="6.18156">
        <ele>688.9</ele>
        <time>2021-03-02T13:27:22Z</time>
        <extensions>
          <gpxtpx:TrackPointExtension xmlns:gpxtpx="http://www.garmin.com/xmlschemas/TrackPointExtension/v1">
            <gpxtpx:hr>133</gpxtpx:hr>
          </gpxtpx:TrackPointExtension>
        </extensions>
      </trkpt>
      <trkpt lat="45.9814" lon="6.18154">
        <ele>689.1</ele>
        <time>2021-03-02T13:27:23Z</time>
        <extensions>
          <gpxtpx:TrackPointExtension xmlns:gpxtpx="http://www.garmin.com/xmlschemas/TrackPointExtension/v1">
            <gpxtpx:hr>132</gpxtpx:hr>
          </gpxtpx:TrackPointExtension>
        </extensions>
      </trkpt>
      <trkpt lat="45.98136" lon="6.18153">
        <ele>689.3</ele>
        <time>2021-03-02T13:27:24Z</time>
        <extensions>
          <gpxtpx:TrackPointExtension xmlns:gpxtpx="http://www.garmin.com/xmlschemas/TrackPointExtension/v1">
            <gpxtpx:hr>132</gpxtpx:hr>
          </gpxtpx:TrackPointExtension>
        </extensions>
      </trkpt>
      <trkpt lat="45.98132" lon="6.18152">
        <ele>689.5</ele>
        <time>2021-03-02T13:27:25Z</time>
        <extensions>
          <gpxtpx:TrackPointExtension xmlns:gpxtpx="http://www.garmin.com/xmlschemas/TrackPointExtension/v1">
            <gpxtpx:hr>132</gpxtpx:hr>
          </gpxtpx:TrackPointExtension>
        </extensions>
      </trkpt>
      <trkpt lat="45.98128" lon="6.18152">
        <ele>689.7</ele>
        <time>2021-03-02T13:27:26Z</time>
        <extensions>
          <gpxtpx:TrackPointExtension xmlns:gpxtpx="http://www.garmin.com/xmlschemas/TrackPointExtension/v1">
            <gpxtpx:hr>133</gpxtpx:hr>
          </gpxtpx:TrackPointExtension>
        </extensions>
      </trkpt>
      <trkpt lat="45.98124" lon="6.18151">
        <ele>689.9</ele>
        <time>2021-03-02T13:27:27Z</time>
        <extensions>
          <gpxtpx:TrackPointExtension xmlns:gpxtpx="http://www.garmin.com/xmlschemas/TrackPointExtension/v1">
            <gpxtpx:hr>133</gpxtpx:hr>
          </gpxtpx:TrackPointExtension>
        </extensions>
      </trkpt>
      <trkpt lat="45.9812" lon="6.18151">
        <ele>690</ele>
        <time>2021-03-02T13:27:28Z</time>
        <extensions>
          <gpxtpx:TrackPointExtension xmlns:gpxtpx="http://www.garmin.com/xmlschemas/TrackPointExtension/v1">
            <gpxtpx:hr>133</gpxtpx:hr>
          </gpxtpx:TrackPointExtension>
        </extensions>
      </trkpt>
      <trkpt lat="45.98116" lon="6.18151">
        <ele>690.2</ele>
        <time>2021-03-02T13:27:29Z</time>
        <extensions>
          <gpxtpx:TrackPointExtension xmlns:gpxtpx="http://www.garmin.com/xmlschemas/TrackPointExtension/v1">
            <gpxtpx:hr>134</gpxtpx:hr>
          </gpxtpx:TrackPointExtension>
        </extensions>
      </trkpt>
      <trkpt lat="45.98111" lon="6.18151">
        <ele>690.4</ele>
        <time>2021-03-02T13:27:30Z</time>
        <extensions>
          <gpxtpx:TrackPointExtension xmlns:gpxtpx="http://www.garmin.com/xmlschemas/TrackPointExtension/v1">
            <gpxtpx:hr>134</gpxtpx:hr>
          </gpxtpx:TrackPointExtension>
        </extensions>
      </trkpt>
      <trkpt lat="45.98107" lon="6.18151">
        <ele>690.5</ele>
        <time>2021-03-02T13:27:31Z</time>
        <extensions>
          <gpxtpx:TrackPointExtension xmlns:gpxtpx="http://www.garmin.com/xmlschemas/TrackPointExtension/v1">
            <gpxtpx:hr>135</gpxtpx:hr>
          </gpxtpx:TrackPointExtension>
        </extensions>
      </trkpt>
      <trkpt lat="45.98103" lon="6.18151">
        <ele>690.7</ele>
        <time>2021-03-02T13:27:32Z</time>
        <extensions>
          <gpxtpx:TrackPointExtension xmlns:gpxtpx="http://www.garmin.com/xmlschemas/TrackPointExtension/v1">
            <gpxtpx:hr>135</gpxtpx:hr>
          </gpxtpx:TrackPointExtension>
        </extensions>
      </trkpt>
      <trkpt lat="45.98099" lon="6.18151">
        <ele>690.8</ele>
        <time>2021-03-02T13:27:33Z</time>
        <extensions>
          <gpxtpx:TrackPointExtension xmlns:gpxtpx="http://www.garmin.com/xmlschemas/TrackPointExtension/v1">
            <gpxtpx:hr>135</gpxtpx:hr>
          </gpxtpx:TrackPointExtension>
        </extensions>
      </trkpt>
      <trkpt lat="45.98095" lon="6.18151">
        <ele>691</ele>
        <time>2021-03-02T13:27:34Z</time>
        <extensions>
          <gpxtpx:TrackPointExtension xmlns:gpxtpx="http://www.garmin.com/xmlschemas/TrackPointExtension/v1">
            <gpxtpx:hr>135</gpxtpx:hr>
          </gpxtpx:TrackPointExtension>
        </extensions>
      </trkpt>
      <trkpt lat="45.98091" lon="6.18151">
        <ele>691.1</ele>
        <time>2021-03-02T13:27:35Z</time>
        <extensions>
          <gpxtpx:TrackPointExtension xmlns:gpxtpx="http://www.garmin.com/xmlschemas/TrackPointExtension/v1">
            <gpxtpx:hr>135</gpxtpx:hr>
          </gpxtpx:TrackPointExtension>
        </extensions>
      </trkpt>
      <trkpt lat="45.98087" lon="6.18151">
        <ele>691.3</ele>
        <time>2021-03-02T13:27:36Z</time>
        <extensions>
          <gpxtpx:TrackPointExtension xmlns:gpxtpx="http://www.garmin.com/xmlschemas/TrackPointExtension/v1">
            <gpxtpx:hr>135</gpxtpx:hr>
          </gpxtpx:TrackPointExtension>
        </extensions>
      </trkpt>
      <trkpt lat="45.98082" lon="6.18151">
        <ele>691.4</ele>
        <time>2021-03-02T13:27:37Z</time>
        <extensions>
          <gpxtpx:TrackPointExtension xmlns:gpxtpx="http://www.garmin.com/xmlschemas/TrackPointExtension/v1">
            <gpxtpx:hr>135</gpxtpx:hr>
          </gpxtpx:TrackPointExtension>
        </extensions>
      </trkpt>
      <trkpt lat="45.98078" lon="6.18152">
        <ele>691.6</ele>
        <time>2021-03-02T13:27:38Z</time>
        <extensions>
          <gpxtpx:TrackPointExtension xmlns:gpxtpx="http://www.garmin.com/xmlschemas/TrackPointExtension/v1">
            <gpxtpx:hr>135</gpxtpx:hr>
          </gpxtpx:TrackPointExtension>
        </extensions>
      </trkpt>
      <trkpt lat="45.98074" lon="6.18152">
        <ele>691.7</ele>
        <time>2021-03-02T13:27:39Z</time>
        <extensions>
          <gpxtpx:TrackPointExtension xmlns:gpxtpx="http://www.garmin.com/xmlschemas/TrackPointExtension/v1">
            <gpxtpx:hr>136</gpxtpx:hr>
          </gpxtpx:TrackPointExtension>
        </extensions>
      </trkpt>
      <trkpt lat="45.9807" lon="6.18153">
        <ele>691.8</ele>
        <time>2021-03-02T13:27:40Z</time>
        <extensions>
          <gpxtpx:TrackPointExtension xmlns:gpxtpx="http://www.garmin.com/xmlschemas/TrackPointExtension/v1">
            <gpxtpx:hr>136</gpxtpx:hr>
          </gpxtpx:TrackPointExtension>
        </extensions>
      </trkpt>
      <trkpt lat="45.98065" lon="6.18153">
        <ele>691.9</ele>
        <time>2021-03-02T13:27:41Z</time>
        <extensions>
          <gpxtpx:TrackPointExtension xmlns:gpxtpx="http://www.garmin.com/xmlschemas/TrackPointExtension/v1">
            <gpxtpx:hr>136</gpxtpx:hr>
          </gpxtpx:TrackPointExtension>
        </extensions>
      </trkpt>
      <trkpt lat="45.98061" lon="6.18154">
        <ele>692</ele>
        <time>2021-03-02T13:27:42Z</time>
        <extensions>
          <gpxtpx:TrackPointExtension xmlns:gpxtpx="http://www.garmin.com/xmlschemas/TrackPointExtension/v1">
            <gpxtpx:hr>136</gpxtpx:hr>
          </gpxtpx:TrackPointExtension>
        </extensions>
      </trkpt>
      <trkpt lat="45.98056" lon="6.18155">
        <ele>692.1</ele>
        <time>2021-03-02T13:27:43Z</time>
        <extensions>
          <gpxtpx:TrackPointExtension xmlns:gpxtpx="http://www.garmin.com/xmlschemas/TrackPointExtension/v1">
            <gpxtpx:hr>136</gpxtpx:hr>
          </gpxtpx:TrackPointExtension>
        </extensions>
      </trkpt>
      <trkpt lat="45.98052" lon="6.18157">
        <ele>692.2</ele>
        <time>2021-03-02T13:27:44Z</time>
        <extensions>
          <gpxtpx:TrackPointExtension xmlns:gpxtpx="http://www.garmin.com/xmlschemas/TrackPointExtension/v1">
            <gpxtpx:hr>135</gpxtpx:hr>
          </gpxtpx:TrackPointExtension>
        </extensions>
      </trkpt>
      <trkpt lat="45.98047" lon="6.18159">
        <ele>692.3</ele>
        <time>2021-03-02T13:27:45Z</time>
        <extensions>
          <gpxtpx:TrackPointExtension xmlns:gpxtpx="http://www.garmin.com/xmlschemas/TrackPointExtension/v1">
            <gpxtpx:hr>135</gpxtpx:hr>
          </gpxtpx:TrackPointExtension>
        </extensions>
      </trkpt>
      <trkpt lat="45.98043" lon="6.18161">
        <ele>692.4</ele>
        <time>2021-03-02T13:27:46Z</time>
        <extensions>
          <gpxtpx:TrackPointExtension xmlns:gpxtpx="http://www.garmin.com/xmlschemas/TrackPointExtension/v1">
            <gpxtpx:hr>135</gpxtpx:hr>
          </gpxtpx:TrackPointExtension>
        </extensions>
      </trkpt>
      <trkpt lat="45.98038" lon="6.18164">
        <ele>692.5</ele>
        <time>2021-03-02T13:27:47Z</time>
        <extensions>
          <gpxtpx:TrackPointExtension xmlns:gpxtpx="http://www.garmin.com/xmlschemas/TrackPointExtension/v1">
            <gpxtpx:hr>135</gpxtpx:hr>
          </gpxtpx:TrackPointExtension>
        </extensions>
      </trkpt>
      <trkpt lat="45.98034" lon="6.18167">
        <ele>692.6</ele>
        <time>2021-03-02T13:27:48Z</time>
        <extensions>
          <gpxtpx:TrackPointExtension xmlns:gpxtpx="http://www.garmin.com/xmlschemas/TrackPointExtension/v1">
            <gpxtpx:hr>135</gpxtpx:hr>
          </gpxtpx:TrackPointExtension>
        </extensions>
      </trkpt>
      <trkpt lat="45.98029" lon="6.1817">
        <ele>692.7</ele>
        <time>2021-03-02T13:27:49Z</time>
        <extensions>
          <gpxtpx:TrackPointExtension xmlns:gpxtpx="http://www.garmin.com/xmlschemas/TrackPointExtension/v1">
            <gpxtpx:hr>135</gpxtpx:hr>
          </gpxtpx:TrackPointExtension>
        </extensions>
      </trkpt>
      <trkpt lat="45.98025" lon="6.18173">
        <ele>692.7</ele>
        <time>2021-03-02T13:27:50Z</time>
        <extensions>
          <gpxtpx:TrackPointExtension xmlns:gpxtpx="http://www.garmin.com/xmlschemas/TrackPointExtension/v1">
            <gpxtpx:hr>135</gpxtpx:hr>
          </gpxtpx:TrackPointExtension>
        </extensions>
      </trkpt>
      <trkpt lat="45.9802" lon="6.18177">
        <ele>692.8</ele>
        <time>2021-03-02T13:27:51Z</time>
        <extensions>
          <gpxtpx:TrackPointExtension xmlns:gpxtpx="http://www.garmin.com/xmlschemas/TrackPointExtension/v1">
            <gpxtpx:hr>135</gpxtpx:hr>
          </gpxtpx:TrackPointExtension>
        </extensions>
      </trkpt>
      <trkpt lat="45.98016" lon="6.18181">
        <ele>692.9</ele>
        <time>2021-03-02T13:27:52Z</time>
        <extensions>
          <gpxtpx:TrackPointExtension xmlns:gpxtpx="http://www.garmin.com/xmlschemas/TrackPointExtension/v1">
            <gpxtpx:hr>135</gpxtpx:hr>
          </gpxtpx:TrackPointExtension>
        </extensions>
      </trkpt>
      <trkpt lat="45.98011" lon="6.18185">
        <ele>692.9</ele>
        <time>2021-03-02T13:27:53Z</time>
        <extensions>
          <gpxtpx:TrackPointExtension xmlns:gpxtpx="http://www.garmin.com/xmlschemas/TrackPointExtension/v1">
            <gpxtpx:hr>135</gpxtpx:hr>
          </gpxtpx:TrackPointExtension>
        </extensions>
      </trkpt>
      <trkpt lat="45.98007" lon="6.18189">
        <ele>692.9</ele>
        <time>2021-03-02T13:27:54Z</time>
        <extensions>
          <gpxtpx:TrackPointExtension xmlns:gpxtpx="http://www.garmin.com/xmlschemas/TrackPointExtension/v1">
            <gpxtpx:hr>135</gpxtpx:hr>
          </gpxtpx:TrackPointExtension>
        </extensions>
      </trkpt>
      <trkpt lat="45.98002" lon="6.18193">
        <ele>693</ele>
        <time>2021-03-02T13:27:55Z</time>
        <extensions>
          <gpxtpx:TrackPointExtension xmlns:gpxtpx="http://www.garmin.com/xmlschemas/TrackPointExtension/v1">
            <gpxtpx:hr>135</gpxtpx:hr>
          </gpxtpx:TrackPointExtension>
        </extensions>
      </trkpt>
      <trkpt lat="45.97997" lon="6.18197">
        <ele>693</ele>
        <time>2021-03-02T13:27:56Z</time>
        <extensions>
          <gpxtpx:TrackPointExtension xmlns:gpxtpx="http://www.garmin.com/xmlschemas/TrackPointExtension/v1">
            <gpxtpx:hr>135</gpxtpx:hr>
          </gpxtpx:TrackPointExtension>
        </extensions>
      </trkpt>
      <trkpt lat="45.97992" lon="6.18201">
        <ele>693</ele>
        <time>2021-03-02T13:27:57Z</time>
        <extensions>
          <gpxtpx:TrackPointExtension xmlns:gpxtpx="http://www.garmin.com/xmlschemas/TrackPointExtension/v1">
            <gpxtpx:hr>135</gpxtpx:hr>
          </gpxtpx:TrackPointExtension>
        </extensions>
      </trkpt>
      <trkpt lat="45.97987" lon="6.18205">
        <ele>693.1</ele>
        <time>2021-03-02T13:27:58Z</time>
        <extensions>
          <gpxtpx:TrackPointExtension xmlns:gpxtpx="http://www.garmin.com/xmlschemas/TrackPointExtension/v1">
            <gpxtpx:hr>134</gpxtpx:hr>
          </gpxtpx:TrackPointExtension>
        </extensions>
      </trkpt>
      <trkpt lat="45.97982" lon="6.18209">
        <ele>693.1</ele>
        <time>2021-03-02T13:27:59Z</time>
        <extensions>
          <gpxtpx:TrackPointExtension xmlns:gpxtpx="http://www.garmin.com/xmlschemas/TrackPointExtension/v1">
            <gpxtpx:hr>134</gpxtpx:hr>
          </gpxtpx:TrackPointExtension>
        </extensions>
      </trkpt>
      <trkpt lat="45.97977" lon="6.18213">
        <ele>693.2</ele>
        <time>2021-03-02T13:28:00Z</time>
        <extensions>
          <gpxtpx:TrackPointExtension xmlns:gpxtpx="http://www.garmin.com/xmlschemas/TrackPointExtension/v1">
            <gpxtpx:hr>134</gpxtpx:hr>
          </gpxtpx:TrackPointExtension>
        </extensions>
      </trkpt>
      <trkpt lat="45.97971" lon="6.18217">
        <ele>693.2</ele>
        <time>2021-03-02T13:28:01Z</time>
        <extensions>
          <gpxtpx:TrackPointExtension xmlns:gpxtpx="http://www.garmin.com/xmlschemas/TrackPointExtension/v1">
            <gpxtpx:hr>133</gpxtpx:hr>
          </gpxtpx:TrackPointExtension>
        </extensions>
      </trkpt>
      <trkpt lat="45.97966" lon="6.18219">
        <ele>693.3</ele>
        <time>2021-03-02T13:28:02Z</time>
        <extensions>
          <gpxtpx:TrackPointExtension xmlns:gpxtpx="http://www.garmin.com/xmlschemas/TrackPointExtension/v1">
            <gpxtpx:hr>133</gpxtpx:hr>
          </gpxtpx:TrackPointExtension>
        </extensions>
      </trkpt>
      <trkpt lat="45.9796" lon="6.18221">
        <ele>693.4</ele>
        <time>2021-03-02T13:28:03Z</time>
        <extensions>
          <gpxtpx:TrackPointExtension xmlns:gpxtpx="http://www.garmin.com/xmlschemas/TrackPointExtension/v1">
            <gpxtpx:hr>132</gpxtpx:hr>
          </gpxtpx:TrackPointExtension>
        </extensions>
      </trkpt>
      <trkpt lat="45.97955" lon="6.18223">
        <ele>693.5</ele>
        <time>2021-03-02T13:28:04Z</time>
        <extensions>
          <gpxtpx:TrackPointExtension xmlns:gpxtpx="http://www.garmin.com/xmlschemas/TrackPointExtension/v1">
            <gpxtpx:hr>131</gpxtpx:hr>
          </gpxtpx:TrackPointExtension>
        </extensions>
      </trkpt>
      <trkpt lat="45.97949" lon="6.18223">
        <ele>693.5</ele>
        <time>2021-03-02T13:28:05Z</time>
        <extensions>
          <gpxtpx:TrackPointExtension xmlns:gpxtpx="http://www.garmin.com/xmlschemas/TrackPointExtension/v1">
            <gpxtpx:hr>129</gpxtpx:hr>
          </gpxtpx:TrackPointExtension>
        </extensions>
      </trkpt>
      <trkpt lat="45.97943" lon="6.18222">
        <ele>693.6</ele>
        <time>2021-03-02T13:28:06Z</time>
        <extensions>
          <gpxtpx:TrackPointExtension xmlns:gpxtpx="http://www.garmin.com/xmlschemas/TrackPointExtension/v1">
            <gpxtpx:hr>129</gpxtpx:hr>
          </gpxtpx:TrackPointExtension>
        </extensions>
      </trkpt>
      <trkpt lat="45.97937" lon="6.1822">
        <ele>693.6</ele>
        <time>2021-03-02T13:28:07Z</time>
        <extensions>
          <gpxtpx:TrackPointExtension xmlns:gpxtpx="http://www.garmin.com/xmlschemas/TrackPointExtension/v1">
            <gpxtpx:hr>128</gpxtpx:hr>
          </gpxtpx:TrackPointExtension>
        </extensions>
      </trkpt>
      <trkpt lat="45.97932" lon="6.18217">
        <ele>693.7</ele>
        <time>2021-03-02T13:28:08Z</time>
        <extensions>
          <gpxtpx:TrackPointExtension xmlns:gpxtpx="http://www.garmin.com/xmlschemas/TrackPointExtension/v1">
            <gpxtpx:hr>128</gpxtpx:hr>
          </gpxtpx:TrackPointExtension>
        </extensions>
      </trkpt>
      <trkpt lat="45.97926" lon="6.18214">
        <ele>693.8</ele>
        <time>2021-03-02T13:28:09Z</time>
        <extensions>
          <gpxtpx:TrackPointExtension xmlns:gpxtpx="http://www.garmin.com/xmlschemas/TrackPointExtension/v1">
            <gpxtpx:hr>128</gpxtpx:hr>
          </gpxtpx:TrackPointExtension>
        </extensions>
      </trkpt>
      <trkpt lat="45.97921" lon="6.1821">
        <ele>694</ele>
        <time>2021-03-02T13:28:10Z</time>
        <extensions>
          <gpxtpx:TrackPointExtension xmlns:gpxtpx="http://www.garmin.com/xmlschemas/TrackPointExtension/v1">
            <gpxtpx:hr>128</gpxtpx:hr>
          </gpxtpx:TrackPointExtension>
        </extensions>
      </trkpt>
      <trkpt lat="45.97916" lon="6.18206">
        <ele>694.1</ele>
        <time>2021-03-02T13:28:11Z</time>
        <extensions>
          <gpxtpx:TrackPointExtension xmlns:gpxtpx="http://www.garmin.com/xmlschemas/TrackPointExtension/v1">
            <gpxtpx:hr>128</gpxtpx:hr>
          </gpxtpx:TrackPointExtension>
        </extensions>
      </trkpt>
      <trkpt lat="45.97911" lon="6.18203">
        <ele>694.3</ele>
        <time>2021-03-02T13:28:12Z</time>
        <extensions>
          <gpxtpx:TrackPointExtension xmlns:gpxtpx="http://www.garmin.com/xmlschemas/TrackPointExtension/v1">
            <gpxtpx:hr>128</gpxtpx:hr>
          </gpxtpx:TrackPointExtension>
        </extensions>
      </trkpt>
      <trkpt lat="45.97906" lon="6.182">
        <ele>694.4</ele>
        <time>2021-03-02T13:28:13Z</time>
        <extensions>
          <gpxtpx:TrackPointExtension xmlns:gpxtpx="http://www.garmin.com/xmlschemas/TrackPointExtension/v1">
            <gpxtpx:hr>128</gpxtpx:hr>
          </gpxtpx:TrackPointExtension>
        </extensions>
      </trkpt>
      <trkpt lat="45.97901" lon="6.18197">
        <ele>694.6</ele>
        <time>2021-03-02T13:28:14Z</time>
        <extensions>
          <gpxtpx:TrackPointExtension xmlns:gpxtpx="http://www.garmin.com/xmlschemas/TrackPointExtension/v1">
            <gpxtpx:hr>129</gpxtpx:hr>
          </gpxtpx:TrackPointExtension>
        </extensions>
      </trkpt>
      <trkpt lat="45.97896" lon="6.18195">
        <ele>694.9</ele>
        <time>2021-03-02T13:28:15Z</time>
        <extensions>
          <gpxtpx:TrackPointExtension xmlns:gpxtpx="http://www.garmin.com/xmlschemas/TrackPointExtension/v1">
            <gpxtpx:hr>129</gpxtpx:hr>
          </gpxtpx:TrackPointExtension>
        </extensions>
      </trkpt>
      <trkpt lat="45.97891" lon="6.18195">
        <ele>695.1</ele>
        <time>2021-03-02T13:28:16Z</time>
        <extensions>
          <gpxtpx:TrackPointExtension xmlns:gpxtpx="http://www.garmin.com/xmlschemas/TrackPointExtension/v1">
            <gpxtpx:hr>130</gpxtpx:hr>
          </gpxtpx:TrackPointExtension>
        </extensions>
      </trkpt>
      <trkpt lat="45.97886" lon="6.18196">
        <ele>695.3</ele>
        <time>2021-03-02T13:28:17Z</time>
        <extensions>
          <gpxtpx:TrackPointExtension xmlns:gpxtpx="http://www.garmin.com/xmlschemas/TrackPointExtension/v1">
            <gpxtpx:hr>131</gpxtpx:hr>
          </gpxtpx:TrackPointExtension>
        </extensions>
      </trkpt>
      <trkpt lat="45.97882" lon="6.18198">
        <ele>695.6</ele>
        <time>2021-03-02T13:28:18Z</time>
        <extensions>
          <gpxtpx:TrackPointExtension xmlns:gpxtpx="http://www.garmin.com/xmlschemas/TrackPointExtension/v1">
            <gpxtpx:hr>132</gpxtpx:hr>
          </gpxtpx:TrackPointExtension>
        </extensions>
      </trkpt>
      <trkpt lat="45.97879" lon="6.18201">
        <ele>695.7</ele>
        <time>2021-03-02T13:28:19Z</time>
        <extensions>
          <gpxtpx:TrackPointExtension xmlns:gpxtpx="http://www.garmin.com/xmlschemas/TrackPointExtension/v1">
            <gpxtpx:hr>133</gpxtpx:hr>
          </gpxtpx:TrackPointExtension>
        </extensions>
      </trkpt>
      <trkpt lat="45.97877" lon="6.18204">
        <ele>695.9</ele>
        <time>2021-03-02T13:28:20Z</time>
        <extensions>
          <gpxtpx:TrackPointExtension xmlns:gpxtpx="http://www.garmin.com/xmlschemas/TrackPointExtension/v1">
            <gpxtpx:hr>133</gpxtpx:hr>
          </gpxtpx:TrackPointExtension>
        </extensions>
      </trkpt>
      <trkpt lat="45.97877" lon="6.18207">
        <ele>696</ele>
        <time>2021-03-02T13:28:21Z</time>
        <extensions>
          <gpxtpx:TrackPointExtension xmlns:gpxtpx="http://www.garmin.com/xmlschemas/TrackPointExtension/v1">
            <gpxtpx:hr>134</gpxtpx:hr>
          </gpxtpx:TrackPointExtension>
        </extensions>
      </trkpt>
      <trkpt lat="45.97877" lon="6.18211">
        <ele>696.2</ele>
        <time>2021-03-02T13:28:22Z</time>
        <extensions>
          <gpxtpx:TrackPointExtension xmlns:gpxtpx="http://www.garmin.com/xmlschemas/TrackPointExtension/v1">
            <gpxtpx:hr>134</gpxtpx:hr>
          </gpxtpx:TrackPointExtension>
        </extensions>
      </trkpt>
      <trkpt lat="45.97879" lon="6.18215">
        <ele>696.3</ele>
        <time>2021-03-02T13:28:23Z</time>
        <extensions>
          <gpxtpx:TrackPointExtension xmlns:gpxtpx="http://www.garmin.com/xmlschemas/TrackPointExtension/v1">
            <gpxtpx:hr>135</gpxtpx:hr>
          </gpxtpx:TrackPointExtension>
        </extensions>
      </trkpt>
      <trkpt lat="45.97881" lon="6.18219">
        <ele>696.4</ele>
        <time>2021-03-02T13:28:24Z</time>
        <extensions>
          <gpxtpx:TrackPointExtension xmlns:gpxtpx="http://www.garmin.com/xmlschemas/TrackPointExtension/v1">
            <gpxtpx:hr>135</gpxtpx:hr>
          </gpxtpx:TrackPointExtension>
        </extensions>
      </trkpt>
      <trkpt lat="45.97884" lon="6.18223">
        <ele>696.5</ele>
        <time>2021-03-02T13:28:25Z</time>
        <extensions>
          <gpxtpx:TrackPointExtension xmlns:gpxtpx="http://www.garmin.com/xmlschemas/TrackPointExtension/v1">
            <gpxtpx:hr>136</gpxtpx:hr>
          </gpxtpx:TrackPointExtension>
        </extensions>
      </trkpt>
      <trkpt lat="45.97886" lon="6.18228">
        <ele>696.6</ele>
        <time>2021-03-02T13:28:26Z</time>
        <extensions>
          <gpxtpx:TrackPointExtension xmlns:gpxtpx="http://www.garmin.com/xmlschemas/TrackPointExtension/v1">
            <gpxtpx:hr>136</gpxtpx:hr>
          </gpxtpx:TrackPointExtension>
        </extensions>
      </trkpt>
      <trkpt lat="45.97889" lon="6.18233">
        <ele>696.6</ele>
        <time>2021-03-02T13:28:27Z</time>
        <extensions>
          <gpxtpx:TrackPointExtension xmlns:gpxtpx="http://www.garmin.com/xmlschemas/TrackPointExtension/v1">
            <gpxtpx:hr>136</gpxtpx:hr>
          </gpxtpx:TrackPointExtension>
        </extensions>
      </trkpt>
      <trkpt lat="45.97892" lon="6.18238">
        <ele>696.7</ele>
        <time>2021-03-02T13:28:28Z</time>
        <extensions>
          <gpxtpx:TrackPointExtension xmlns:gpxtpx="http://www.garmin.com/xmlschemas/TrackPointExtension/v1">
            <gpxtpx:hr>136</gpxtpx:hr>
          </gpxtpx:TrackPointExtension>
        </extensions>
      </trkpt>
      <trkpt lat="45.97895" lon="6.18243">
        <ele>696.9</ele>
        <time>2021-03-02T13:28:29Z</time>
        <extensions>
          <gpxtpx:TrackPointExtension xmlns:gpxtpx="http://www.garmin.com/xmlschemas/TrackPointExtension/v1">
            <gpxtpx:hr>136</gpxtpx:hr>
          </gpxtpx:TrackPointExtension>
        </extensions>
      </trkpt>
      <trkpt lat="45.97898" lon="6.18248">
        <ele>697.1</ele>
        <time>2021-03-02T13:28:30Z</time>
        <extensions>
          <gpxtpx:TrackPointExtension xmlns:gpxtpx="http://www.garmin.com/xmlschemas/TrackPointExtension/v1">
            <gpxtpx:hr>136</gpxtpx:hr>
          </gpxtpx:TrackPointExtension>
        </extensions>
      </trkpt>
      <trkpt lat="45.97901" lon="6.18252">
        <ele>697.4</ele>
        <time>2021-03-02T13:28:31Z</time>
        <extensions>
          <gpxtpx:TrackPointExtension xmlns:gpxtpx="http://www.garmin.com/xmlschemas/TrackPointExtension/v1">
            <gpxtpx:hr>136</gpxtpx:hr>
          </gpxtpx:TrackPointExtension>
        </extensions>
      </trkpt>
      <trkpt lat="45.97904" lon="6.18257">
        <ele>697.7</ele>
        <time>2021-03-02T13:28:32Z</time>
        <extensions>
          <gpxtpx:TrackPointExtension xmlns:gpxtpx="http://www.garmin.com/xmlschemas/TrackPointExtension/v1">
            <gpxtpx:hr>136</gpxtpx:hr>
          </gpxtpx:TrackPointExtension>
        </extensions>
      </trkpt>
      <trkpt lat="45.97907" lon="6.18262">
        <ele>698</ele>
        <time>2021-03-02T13:28:33Z</time>
        <extensions>
          <gpxtpx:TrackPointExtension xmlns:gpxtpx="http://www.garmin.com/xmlschemas/TrackPointExtension/v1">
            <gpxtpx:hr>136</gpxtpx:hr>
          </gpxtpx:TrackPointExtension>
        </extensions>
      </trkpt>
      <trkpt lat="45.9791" lon="6.18266">
        <ele>698.2</ele>
        <time>2021-03-02T13:28:34Z</time>
        <extensions>
          <gpxtpx:TrackPointExtension xmlns:gpxtpx="http://www.garmin.com/xmlschemas/TrackPointExtension/v1">
            <gpxtpx:hr>136</gpxtpx:hr>
          </gpxtpx:TrackPointExtension>
        </extensions>
      </trkpt>
      <trkpt lat="45.97912" lon="6.1827">
        <ele>698.6</ele>
        <time>2021-03-02T13:28:35Z</time>
        <extensions>
          <gpxtpx:TrackPointExtension xmlns:gpxtpx="http://www.garmin.com/xmlschemas/TrackPointExtension/v1">
            <gpxtpx:hr>136</gpxtpx:hr>
          </gpxtpx:TrackPointExtension>
        </extensions>
      </trkpt>
      <trkpt lat="45.97915" lon="6.18274">
        <ele>698.9</ele>
        <time>2021-03-02T13:28:36Z</time>
        <extensions>
          <gpxtpx:TrackPointExtension xmlns:gpxtpx="http://www.garmin.com/xmlschemas/TrackPointExtension/v1">
            <gpxtpx:hr>136</gpxtpx:hr>
          </gpxtpx:TrackPointExtension>
        </extensions>
      </trkpt>
      <trkpt lat="45.97918" lon="6.18278">
        <ele>699.2</ele>
        <time>2021-03-02T13:28:37Z</time>
        <extensions>
          <gpxtpx:TrackPointExtension xmlns:gpxtpx="http://www.garmin.com/xmlschemas/TrackPointExtension/v1">
            <gpxtpx:hr>136</gpxtpx:hr>
          </gpxtpx:TrackPointExtension>
        </extensions>
      </trkpt>
      <trkpt lat="45.9792" lon="6.18281">
        <ele>699.5</ele>
        <time>2021-03-02T13:28:38Z</time>
        <extensions>
          <gpxtpx:TrackPointExtension xmlns:gpxtpx="http://www.garmin.com/xmlschemas/TrackPointExtension/v1">
            <gpxtpx:hr>136</gpxtpx:hr>
          </gpxtpx:TrackPointExtension>
        </extensions>
      </trkpt>
      <trkpt lat="45.97923" lon="6.18284">
        <ele>699.8</ele>
        <time>2021-03-02T13:28:39Z</time>
        <extensions>
          <gpxtpx:TrackPointExtension xmlns:gpxtpx="http://www.garmin.com/xmlschemas/TrackPointExtension/v1">
            <gpxtpx:hr>136</gpxtpx:hr>
          </gpxtpx:TrackPointExtension>
        </extensions>
      </trkpt>
      <trkpt lat="45.97926" lon="6.18287">
        <ele>700.1</ele>
        <time>2021-03-02T13:28:40Z</time>
        <extensions>
          <gpxtpx:TrackPointExtension xmlns:gpxtpx="http://www.garmin.com/xmlschemas/TrackPointExtension/v1">
            <gpxtpx:hr>137</gpxtpx:hr>
          </gpxtpx:TrackPointExtension>
        </extensions>
      </trkpt>
      <trkpt lat="45.97929" lon="6.1829">
        <ele>700.4</ele>
        <time>2021-03-02T13:28:41Z</time>
        <extensions>
          <gpxtpx:TrackPointExtension xmlns:gpxtpx="http://www.garmin.com/xmlschemas/TrackPointExtension/v1">
            <gpxtpx:hr>137</gpxtpx:hr>
          </gpxtpx:TrackPointExtension>
        </extensions>
      </trkpt>
      <trkpt lat="45.97932" lon="6.18293">
        <ele>700.8</ele>
        <time>2021-03-02T13:28:42Z</time>
        <extensions>
          <gpxtpx:TrackPointExtension xmlns:gpxtpx="http://www.garmin.com/xmlschemas/TrackPointExtension/v1">
            <gpxtpx:hr>137</gpxtpx:hr>
          </gpxtpx:TrackPointExtension>
        </extensions>
      </trkpt>
      <trkpt lat="45.97935" lon="6.18296">
        <ele>701.1</ele>
        <time>2021-03-02T13:28:43Z</time>
        <extensions>
          <gpxtpx:TrackPointExtension xmlns:gpxtpx="http://www.garmin.com/xmlschemas/TrackPointExtension/v1">
            <gpxtpx:hr>138</gpxtpx:hr>
          </gpxtpx:TrackPointExtension>
        </extensions>
      </trkpt>
      <trkpt lat="45.97937" lon="6.18299">
        <ele>701.4</ele>
        <time>2021-03-02T13:28:44Z</time>
        <extensions>
          <gpxtpx:TrackPointExtension xmlns:gpxtpx="http://www.garmin.com/xmlschemas/TrackPointExtension/v1">
            <gpxtpx:hr>138</gpxtpx:hr>
          </gpxtpx:TrackPointExtension>
        </extensions>
      </trkpt>
      <trkpt lat="45.9794" lon="6.18301">
        <ele>701.8</ele>
        <time>2021-03-02T13:28:45Z</time>
        <extensions>
          <gpxtpx:TrackPointExtension xmlns:gpxtpx="http://www.garmin.com/xmlschemas/TrackPointExtension/v1">
            <gpxtpx:hr>139</gpxtpx:hr>
          </gpxtpx:TrackPointExtension>
        </extensions>
      </trkpt>
      <trkpt lat="45.97943" lon="6.18304">
        <ele>702.1</ele>
        <time>2021-03-02T13:28:46Z</time>
        <extensions>
          <gpxtpx:TrackPointExtension xmlns:gpxtpx="http://www.garmin.com/xmlschemas/TrackPointExtension/v1">
            <gpxtpx:hr>139</gpxtpx:hr>
          </gpxtpx:TrackPointExtension>
        </extensions>
      </trkpt>
      <trkpt lat="45.97946" lon="6.18306">
        <ele>702.4</ele>
        <time>2021-03-02T13:28:47Z</time>
        <extensions>
          <gpxtpx:TrackPointExtension xmlns:gpxtpx="http://www.garmin.com/xmlschemas/TrackPointExtension/v1">
            <gpxtpx:hr>140</gpxtpx:hr>
          </gpxtpx:TrackPointExtension>
        </extensions>
      </trkpt>
      <trkpt lat="45.97949" lon="6.18309">
        <ele>702.8</ele>
        <time>2021-03-02T13:28:48Z</time>
        <extensions>
          <gpxtpx:TrackPointExtension xmlns:gpxtpx="http://www.garmin.com/xmlschemas/TrackPointExtension/v1">
            <gpxtpx:hr>140</gpxtpx:hr>
          </gpxtpx:TrackPointExtension>
        </extensions>
      </trkpt>
      <trkpt lat="45.97951" lon="6.18313">
        <ele>703.1</ele>
        <time>2021-03-02T13:28:49Z</time>
        <extensions>
          <gpxtpx:TrackPointExtension xmlns:gpxtpx="http://www.garmin.com/xmlschemas/TrackPointExtension/v1">
            <gpxtpx:hr>141</gpxtpx:hr>
          </gpxtpx:TrackPointExtension>
        </extensions>
      </trkpt>
      <trkpt lat="45.97954" lon="6.18316">
        <ele>703.4</ele>
        <time>2021-03-02T13:28:50Z</time>
        <extensions>
          <gpxtpx:TrackPointExtension xmlns:gpxtpx="http://www.garmin.com/xmlschemas/TrackPointExtension/v1">
            <gpxtpx:hr>141</gpxtpx:hr>
          </gpxtpx:TrackPointExtension>
        </extensions>
      </trkpt>
      <trkpt lat="45.97956" lon="6.1832">
        <ele>703.7</ele>
        <time>2021-03-02T13:28:51Z</time>
        <extensions>
          <gpxtpx:TrackPointExtension xmlns:gpxtpx="http://www.garmin.com/xmlschemas/TrackPointExtension/v1">
            <gpxtpx:hr>141</gpxtpx:hr>
          </gpxtpx:TrackPointExtension>
        </extensions>
      </trkpt>
      <trkpt lat="45.97958" lon="6.18324">
        <ele>704</ele>
        <time>2021-03-02T13:28:52Z</time>
        <extensions>
          <gpxtpx:TrackPointExtension xmlns:gpxtpx="http://www.garmin.com/xmlschemas/TrackPointExtension/v1">
            <gpxtpx:hr>142</gpxtpx:hr>
          </gpxtpx:TrackPointExtension>
        </extensions>
      </trkpt>
      <trkpt lat="45.97959" lon="6.18328">
        <ele>704.3</ele>
        <time>2021-03-02T13:28:53Z</time>
        <extensions>
          <gpxtpx:TrackPointExtension xmlns:gpxtpx="http://www.garmin.com/xmlschemas/TrackPointExtension/v1">
            <gpxtpx:hr>142</gpxtpx:hr>
          </gpxtpx:TrackPointExtension>
        </extensions>
      </trkpt>
      <trkpt lat="45.97961" lon="6.18332">
        <ele>704.6</ele>
        <time>2021-03-02T13:28:54Z</time>
        <extensions>
          <gpxtpx:TrackPointExtension xmlns:gpxtpx="http://www.garmin.com/xmlschemas/TrackPointExtension/v1">
            <gpxtpx:hr>142</gpxtpx:hr>
          </gpxtpx:TrackPointExtension>
        </extensions>
      </trkpt>
      <trkpt lat="45.97962" lon="6.18336">
        <ele>704.9</ele>
        <time>2021-03-02T13:28:55Z</time>
        <extensions>
          <gpxtpx:TrackPointExtension xmlns:gpxtpx="http://www.garmin.com/xmlschemas/TrackPointExtension/v1">
            <gpxtpx:hr>143</gpxtpx:hr>
          </gpxtpx:TrackPointExtension>
        </extensions>
      </trkpt>
      <trkpt lat="45.97963" lon="6.18341">
        <ele>705.2</ele>
        <time>2021-03-02T13:28:56Z</time>
        <extensions>
          <gpxtpx:TrackPointExtension xmlns:gpxtpx="http://www.garmin.com/xmlschemas/TrackPointExtension/v1">
            <gpxtpx:hr>143</gpxtpx:hr>
          </gpxtpx:TrackPointExtension>
        </extensions>
      </trkpt>
      <trkpt lat="45.97963" lon="6.18345">
        <ele>705.5</ele>
        <time>2021-03-02T13:28:57Z</time>
        <extensions>
          <gpxtpx:TrackPointExtension xmlns:gpxtpx="http://www.garmin.com/xmlschemas/TrackPointExtension/v1">
            <gpxtpx:hr>143</gpxtpx:hr>
          </gpxtpx:TrackPointExtension>
        </extensions>
      </trkpt>
      <trkpt lat="45.97963" lon="6.1835">
        <ele>705.8</ele>
        <time>2021-03-02T13:28:58Z</time>
        <extensions>
          <gpxtpx:TrackPointExtension xmlns:gpxtpx="http://www.garmin.com/xmlschemas/TrackPointExtension/v1">
            <gpxtpx:hr>144</gpxtpx:hr>
          </gpxtpx:TrackPointExtension>
        </extensions>
      </trkpt>
      <trkpt lat="45.97964" lon="6.18355">
        <ele>706.1</ele>
        <time>2021-03-02T13:28:59Z</time>
        <extensions>
          <gpxtpx:TrackPointExtension xmlns:gpxtpx="http://www.garmin.com/xmlschemas/TrackPointExtension/v1">
            <gpxtpx:hr>144</gpxtpx:hr>
          </gpxtpx:TrackPointExtension>
        </extensions>
      </trkpt>
      <trkpt lat="45.97964" lon="6.18359">
        <ele>706.4</ele>
        <time>2021-03-02T13:29:00Z</time>
        <extensions>
          <gpxtpx:TrackPointExtension xmlns:gpxtpx="http://www.garmin.com/xmlschemas/TrackPointExtension/v1">
            <gpxtpx:hr>144</gpxtpx:hr>
          </gpxtpx:TrackPointExtension>
        </extensions>
      </trkpt>
      <trkpt lat="45.97964" lon="6.18364">
        <ele>706.6</ele>
        <time>2021-03-02T13:29:01Z</time>
        <extensions>
          <gpxtpx:TrackPointExtension xmlns:gpxtpx="http://www.garmin.com/xmlschemas/TrackPointExtension/v1">
            <gpxtpx:hr>145</gpxtpx:hr>
          </gpxtpx:TrackPointExtension>
        </extensions>
      </trkpt>
      <trkpt lat="45.97963" lon="6.18368">
        <ele>706.9</ele>
        <time>2021-03-02T13:29:02Z</time>
        <extensions>
          <gpxtpx:TrackPointExtension xmlns:gpxtpx="http://www.garmin.com/xmlschemas/TrackPointExtension/v1">
            <gpxtpx:hr>145</gpxtpx:hr>
          </gpxtpx:TrackPointExtension>
        </extensions>
      </trkpt>
      <trkpt lat="45.97961" lon="6.18372">
        <ele>707.2</ele>
        <time>2021-03-02T13:29:03Z</time>
        <extensions>
          <gpxtpx:TrackPointExtension xmlns:gpxtpx="http://www.garmin.com/xmlschemas/TrackPointExtension/v1">
            <gpxtpx:hr>145</gpxtpx:hr>
          </gpxtpx:TrackPointExtension>
        </extensions>
      </trkpt>
      <trkpt lat="45.97959" lon="6.18376">
        <ele>707.7</ele>
        <time>2021-03-02T13:29:04Z</time>
        <extensions>
          <gpxtpx:TrackPointExtension xmlns:gpxtpx="http://www.garmin.com/xmlschemas/TrackPointExtension/v1">
            <gpxtpx:hr>146</gpxtpx:hr>
          </gpxtpx:TrackPointExtension>
        </extensions>
      </trkpt>
      <trkpt lat="45.97956" lon="6.18378">
        <ele>707.8</ele>
        <time>2021-03-02T13:29:05Z</time>
        <extensions>
          <gpxtpx:TrackPointExtension xmlns:gpxtpx="http://www.garmin.com/xmlschemas/TrackPointExtension/v1">
            <gpxtpx:hr>146</gpxtpx:hr>
          </gpxtpx:TrackPointExtension>
        </extensions>
      </trkpt>
      <trkpt lat="45.97953" lon="6.1838">
        <ele>707.9</ele>
        <time>2021-03-02T13:29:06Z</time>
        <extensions>
          <gpxtpx:TrackPointExtension xmlns:gpxtpx="http://www.garmin.com/xmlschemas/TrackPointExtension/v1">
            <gpxtpx:hr>146</gpxtpx:hr>
          </gpxtpx:TrackPointExtension>
        </extensions>
      </trkpt>
      <trkpt lat="45.9795" lon="6.18382">
        <ele>707.9</ele>
        <time>2021-03-02T13:29:07Z</time>
        <extensions>
          <gpxtpx:TrackPointExtension xmlns:gpxtpx="http://www.garmin.com/xmlschemas/TrackPointExtension/v1">
            <gpxtpx:hr>147</gpxtpx:hr>
          </gpxtpx:TrackPointExtension>
        </extensions>
      </trkpt>
      <trkpt lat="45.97947" lon="6.18384">
        <ele>708</ele>
        <time>2021-03-02T13:29:08Z</time>
        <extensions>
          <gpxtpx:TrackPointExtension xmlns:gpxtpx="http://www.garmin.com/xmlschemas/TrackPointExtension/v1">
            <gpxtpx:hr>147</gpxtpx:hr>
          </gpxtpx:TrackPointExtension>
        </extensions>
      </trkpt>
      <trkpt lat="45.97943" lon="6.18385">
        <ele>708.1</ele>
        <time>2021-03-02T13:29:09Z</time>
        <extensions>
          <gpxtpx:TrackPointExtension xmlns:gpxtpx="http://www.garmin.com/xmlschemas/TrackPointExtension/v1">
            <gpxtpx:hr>147</gpxtpx:hr>
          </gpxtpx:TrackPointExtension>
        </extensions>
      </trkpt>
      <trkpt lat="45.9794" lon="6.18387">
        <ele>708.2</ele>
        <time>2021-03-02T13:29:10Z</time>
        <extensions>
          <gpxtpx:TrackPointExtension xmlns:gpxtpx="http://www.garmin.com/xmlschemas/TrackPointExtension/v1">
            <gpxtpx:hr>147</gpxtpx:hr>
          </gpxtpx:TrackPointExtension>
        </extensions>
      </trkpt>
      <trkpt lat="45.97936" lon="6.18388">
        <ele>708.3</ele>
        <time>2021-03-02T13:29:11Z</time>
        <extensions>
          <gpxtpx:TrackPointExtension xmlns:gpxtpx="http://www.garmin.com/xmlschemas/TrackPointExtension/v1">
            <gpxtpx:hr>147</gpxtpx:hr>
          </gpxtpx:TrackPointExtension>
        </extensions>
      </trkpt>
      <trkpt lat="45.97933" lon="6.18389">
        <ele>708.4</ele>
        <time>2021-03-02T13:29:12Z</time>
        <extensions>
          <gpxtpx:TrackPointExtension xmlns:gpxtpx="http://www.garmin.com/xmlschemas/TrackPointExtension/v1">
            <gpxtpx:hr>148</gpxtpx:hr>
          </gpxtpx:TrackPointExtension>
        </extensions>
      </trkpt>
      <trkpt lat="45.97929" lon="6.18391">
        <ele>708.5</ele>
        <time>2021-03-02T13:29:13Z</time>
        <extensions>
          <gpxtpx:TrackPointExtension xmlns:gpxtpx="http://www.garmin.com/xmlschemas/TrackPointExtension/v1">
            <gpxtpx:hr>148</gpxtpx:hr>
          </gpxtpx:TrackPointExtension>
        </extensions>
      </trkpt>
      <trkpt lat="45.97925" lon="6.18392">
        <ele>708.6</ele>
        <time>2021-03-02T13:29:14Z</time>
        <extensions>
          <gpxtpx:TrackPointExtension xmlns:gpxtpx="http://www.garmin.com/xmlschemas/TrackPointExtension/v1">
            <gpxtpx:hr>148</gpxtpx:hr>
          </gpxtpx:TrackPointExtension>
        </extensions>
      </trkpt>
      <trkpt lat="45.97921" lon="6.18393">
        <ele>708.8</ele>
        <time>2021-03-02T13:29:15Z</time>
        <extensions>
          <gpxtpx:TrackPointExtension xmlns:gpxtpx="http://www.garmin.com/xmlschemas/TrackPointExtension/v1">
            <gpxtpx:hr>148</gpxtpx:hr>
          </gpxtpx:TrackPointExtension>
        </extensions>
      </trkpt>
      <trkpt lat="45.97918" lon="6.18394">
        <ele>708.9</ele>
        <time>2021-03-02T13:29:16Z</time>
        <extensions>
          <gpxtpx:TrackPointExtension xmlns:gpxtpx="http://www.garmin.com/xmlschemas/TrackPointExtension/v1">
            <gpxtpx:hr>148</gpxtpx:hr>
          </gpxtpx:TrackPointExtension>
        </extensions>
      </trkpt>
      <trkpt lat="45.97914" lon="6.18396">
        <ele>709</ele>
        <time>2021-03-02T13:29:17Z</time>
        <extensions>
          <gpxtpx:TrackPointExtension xmlns:gpxtpx="http://www.garmin.com/xmlschemas/TrackPointExtension/v1">
            <gpxtpx:hr>148</gpxtpx:hr>
          </gpxtpx:TrackPointExtension>
        </extensions>
      </trkpt>
      <trkpt lat="45.9791" lon="6.18397">
        <ele>709.2</ele>
        <time>2021-03-02T13:29:18Z</time>
        <extensions>
          <gpxtpx:TrackPointExtension xmlns:gpxtpx="http://www.garmin.com/xmlschemas/TrackPointExtension/v1">
            <gpxtpx:hr>148</gpxtpx:hr>
          </gpxtpx:TrackPointExtension>
        </extensions>
      </trkpt>
      <trkpt lat="45.97906" lon="6.18398">
        <ele>709.4</ele>
        <time>2021-03-02T13:29:19Z</time>
        <extensions>
          <gpxtpx:TrackPointExtension xmlns:gpxtpx="http://www.garmin.com/xmlschemas/TrackPointExtension/v1">
            <gpxtpx:hr>147</gpxtpx:hr>
          </gpxtpx:TrackPointExtension>
        </extensions>
      </trkpt>
      <trkpt lat="45.97902" lon="6.18399">
        <ele>709.6</ele>
        <time>2021-03-02T13:29:20Z</time>
        <extensions>
          <gpxtpx:TrackPointExtension xmlns:gpxtpx="http://www.garmin.com/xmlschemas/TrackPointExtension/v1">
            <gpxtpx:hr>147</gpxtpx:hr>
          </gpxtpx:TrackPointExtension>
        </extensions>
      </trkpt>
      <trkpt lat="45.97898" lon="6.18401">
        <ele>709.8</ele>
        <time>2021-03-02T13:29:21Z</time>
        <extensions>
          <gpxtpx:TrackPointExtension xmlns:gpxtpx="http://www.garmin.com/xmlschemas/TrackPointExtension/v1">
            <gpxtpx:hr>147</gpxtpx:hr>
          </gpxtpx:TrackPointExtension>
        </extensions>
      </trkpt>
      <trkpt lat="45.97894" lon="6.18402">
        <ele>710.1</ele>
        <time>2021-03-02T13:29:22Z</time>
        <extensions>
          <gpxtpx:TrackPointExtension xmlns:gpxtpx="http://www.garmin.com/xmlschemas/TrackPointExtension/v1">
            <gpxtpx:hr>148</gpxtpx:hr>
          </gpxtpx:TrackPointExtension>
        </extensions>
      </trkpt>
      <trkpt lat="45.97891" lon="6.18403">
        <ele>710.3</ele>
        <time>2021-03-02T13:29:23Z</time>
        <extensions>
          <gpxtpx:TrackPointExtension xmlns:gpxtpx="http://www.garmin.com/xmlschemas/TrackPointExtension/v1">
            <gpxtpx:hr>148</gpxtpx:hr>
          </gpxtpx:TrackPointExtension>
        </extensions>
      </trkpt>
      <trkpt lat="45.97887" lon="6.18405">
        <ele>710.6</ele>
        <time>2021-03-02T13:29:24Z</time>
        <extensions>
          <gpxtpx:TrackPointExtension xmlns:gpxtpx="http://www.garmin.com/xmlschemas/TrackPointExtension/v1">
            <gpxtpx:hr>148</gpxtpx:hr>
          </gpxtpx:TrackPointExtension>
        </extensions>
      </trkpt>
      <trkpt lat="45.97884" lon="6.18406">
        <ele>710.9</ele>
        <time>2021-03-02T13:29:25Z</time>
        <extensions>
          <gpxtpx:TrackPointExtension xmlns:gpxtpx="http://www.garmin.com/xmlschemas/TrackPointExtension/v1">
            <gpxtpx:hr>148</gpxtpx:hr>
          </gpxtpx:TrackPointExtension>
        </extensions>
      </trkpt>
      <trkpt lat="45.9788" lon="6.18407">
        <ele>711.2</ele>
        <time>2021-03-02T13:29:26Z</time>
        <extensions>
          <gpxtpx:TrackPointExtension xmlns:gpxtpx="http://www.garmin.com/xmlschemas/TrackPointExtension/v1">
            <gpxtpx:hr>148</gpxtpx:hr>
          </gpxtpx:TrackPointExtension>
        </extensions>
      </trkpt>
      <trkpt lat="45.97877" lon="6.18409">
        <ele>711.5</ele>
        <time>2021-03-02T13:29:27Z</time>
        <extensions>
          <gpxtpx:TrackPointExtension xmlns:gpxtpx="http://www.garmin.com/xmlschemas/TrackPointExtension/v1">
            <gpxtpx:hr>148</gpxtpx:hr>
          </gpxtpx:TrackPointExtension>
        </extensions>
      </trkpt>
      <trkpt lat="45.97873" lon="6.18411">
        <ele>711.8</ele>
        <time>2021-03-02T13:29:28Z</time>
        <extensions>
          <gpxtpx:TrackPointExtension xmlns:gpxtpx="http://www.garmin.com/xmlschemas/TrackPointExtension/v1">
            <gpxtpx:hr>149</gpxtpx:hr>
          </gpxtpx:TrackPointExtension>
        </extensions>
      </trkpt>
      <trkpt lat="45.9787" lon="6.18412">
        <ele>712.1</ele>
        <time>2021-03-02T13:29:29Z</time>
        <extensions>
          <gpxtpx:TrackPointExtension xmlns:gpxtpx="http://www.garmin.com/xmlschemas/TrackPointExtension/v1">
            <gpxtpx:hr>149</gpxtpx:hr>
          </gpxtpx:TrackPointExtension>
        </extensions>
      </trkpt>
      <trkpt lat="45.97867" lon="6.18413">
        <ele>712.4</ele>
        <time>2021-03-02T13:29:30Z</time>
        <extensions>
          <gpxtpx:TrackPointExtension xmlns:gpxtpx="http://www.garmin.com/xmlschemas/TrackPointExtension/v1">
            <gpxtpx:hr>149</gpxtpx:hr>
          </gpxtpx:TrackPointExtension>
        </extensions>
      </trkpt>
      <trkpt lat="45.97865" lon="6.18415">
        <ele>712.7</ele>
        <time>2021-03-02T13:29:31Z</time>
        <extensions>
          <gpxtpx:TrackPointExtension xmlns:gpxtpx="http://www.garmin.com/xmlschemas/TrackPointExtension/v1">
            <gpxtpx:hr>149</gpxtpx:hr>
          </gpxtpx:TrackPointExtension>
        </extensions>
      </trkpt>
      <trkpt lat="45.97862" lon="6.18417">
        <ele>713</ele>
        <time>2021-03-02T13:29:32Z</time>
        <extensions>
          <gpxtpx:TrackPointExtension xmlns:gpxtpx="http://www.garmin.com/xmlschemas/TrackPointExtension/v1">
            <gpxtpx:hr>149</gpxtpx:hr>
          </gpxtpx:TrackPointExtension>
        </extensions>
      </trkpt>
      <trkpt lat="45.97859" lon="6.18419">
        <ele>713.4</ele>
        <time>2021-03-02T13:29:33Z</time>
        <extensions>
          <gpxtpx:TrackPointExtension xmlns:gpxtpx="http://www.garmin.com/xmlschemas/TrackPointExtension/v1">
            <gpxtpx:hr>149</gpxtpx:hr>
          </gpxtpx:TrackPointExtension>
        </extensions>
      </trkpt>
      <trkpt lat="45.97857" lon="6.18422">
        <ele>713.7</ele>
        <time>2021-03-02T13:29:34Z</time>
        <extensions>
          <gpxtpx:TrackPointExtension xmlns:gpxtpx="http://www.garmin.com/xmlschemas/TrackPointExtension/v1">
            <gpxtpx:hr>149</gpxtpx:hr>
          </gpxtpx:TrackPointExtension>
        </extensions>
      </trkpt>
      <trkpt lat="45.97854" lon="6.18424">
        <ele>714</ele>
        <time>2021-03-02T13:29:35Z</time>
        <extensions>
          <gpxtpx:TrackPointExtension xmlns:gpxtpx="http://www.garmin.com/xmlschemas/TrackPointExtension/v1">
            <gpxtpx:hr>149</gpxtpx:hr>
          </gpxtpx:TrackPointExtension>
        </extensions>
      </trkpt>
      <trkpt lat="45.97852" lon="6.18426">
        <ele>714.3</ele>
        <time>2021-03-02T13:29:36Z</time>
        <extensions>
          <gpxtpx:TrackPointExtension xmlns:gpxtpx="http://www.garmin.com/xmlschemas/TrackPointExtension/v1">
            <gpxtpx:hr>149</gpxtpx:hr>
          </gpxtpx:TrackPointExtension>
        </extensions>
      </trkpt>
      <trkpt lat="45.9785" lon="6.18429">
        <ele>714.6</ele>
        <time>2021-03-02T13:29:37Z</time>
        <extensions>
          <gpxtpx:TrackPointExtension xmlns:gpxtpx="http://www.garmin.com/xmlschemas/TrackPointExtension/v1">
            <gpxtpx:hr>149</gpxtpx:hr>
          </gpxtpx:TrackPointExtension>
        </extensions>
      </trkpt>
      <trkpt lat="45.97848" lon="6.18432">
        <ele>714.9</ele>
        <time>2021-03-02T13:29:38Z</time>
        <extensions>
          <gpxtpx:TrackPointExtension xmlns:gpxtpx="http://www.garmin.com/xmlschemas/TrackPointExtension/v1">
            <gpxtpx:hr>149</gpxtpx:hr>
          </gpxtpx:TrackPointExtension>
        </extensions>
      </trkpt>
      <trkpt lat="45.97846" lon="6.18435">
        <ele>715.2</ele>
        <time>2021-03-02T13:29:39Z</time>
        <extensions>
          <gpxtpx:TrackPointExtension xmlns:gpxtpx="http://www.garmin.com/xmlschemas/TrackPointExtension/v1">
            <gpxtpx:hr>148</gpxtpx:hr>
          </gpxtpx:TrackPointExtension>
        </extensions>
      </trkpt>
      <trkpt lat="45.97844" lon="6.18438">
        <ele>715.5</ele>
        <time>2021-03-02T13:29:40Z</time>
        <extensions>
          <gpxtpx:TrackPointExtension xmlns:gpxtpx="http://www.garmin.com/xmlschemas/TrackPointExtension/v1">
            <gpxtpx:hr>148</gpxtpx:hr>
          </gpxtpx:TrackPointExtension>
        </extensions>
      </trkpt>
      <trkpt lat="45.97842" lon="6.18442">
        <ele>715.8</ele>
        <time>2021-03-02T13:29:41Z</time>
        <extensions>
          <gpxtpx:TrackPointExtension xmlns:gpxtpx="http://www.garmin.com/xmlschemas/TrackPointExtension/v1">
            <gpxtpx:hr>148</gpxtpx:hr>
          </gpxtpx:TrackPointExtension>
        </extensions>
      </trkpt>
      <trkpt lat="45.97841" lon="6.18445">
        <ele>716</ele>
        <time>2021-03-02T13:29:42Z</time>
        <extensions>
          <gpxtpx:TrackPointExtension xmlns:gpxtpx="http://www.garmin.com/xmlschemas/TrackPointExtension/v1">
            <gpxtpx:hr>148</gpxtpx:hr>
          </gpxtpx:TrackPointExtension>
        </extensions>
      </trkpt>
      <trkpt lat="45.9784" lon="6.18449">
        <ele>716.3</ele>
        <time>2021-03-02T13:29:43Z</time>
        <extensions>
          <gpxtpx:TrackPointExtension xmlns:gpxtpx="http://www.garmin.com/xmlschemas/TrackPointExtension/v1">
            <gpxtpx:hr>148</gpxtpx:hr>
          </gpxtpx:TrackPointExtension>
        </extensions>
      </trkpt>
      <trkpt lat="45.97839" lon="6.18453">
        <ele>716.5</ele>
        <time>2021-03-02T13:29:44Z</time>
        <extensions>
          <gpxtpx:TrackPointExtension xmlns:gpxtpx="http://www.garmin.com/xmlschemas/TrackPointExtension/v1">
            <gpxtpx:hr>148</gpxtpx:hr>
          </gpxtpx:TrackPointExtension>
        </extensions>
      </trkpt>
      <trkpt lat="45.97838" lon="6.18457">
        <ele>716.8</ele>
        <time>2021-03-02T13:29:45Z</time>
        <extensions>
          <gpxtpx:TrackPointExtension xmlns:gpxtpx="http://www.garmin.com/xmlschemas/TrackPointExtension/v1">
            <gpxtpx:hr>148</gpxtpx:hr>
          </gpxtpx:TrackPointExtension>
        </extensions>
      </trkpt>
      <trkpt lat="45.97837" lon="6.18461">
        <ele>717</ele>
        <time>2021-03-02T13:29:46Z</time>
        <extensions>
          <gpxtpx:TrackPointExtension xmlns:gpxtpx="http://www.garmin.com/xmlschemas/TrackPointExtension/v1">
            <gpxtpx:hr>148</gpxtpx:hr>
          </gpxtpx:TrackPointExtension>
        </extensions>
      </trkpt>
      <trkpt lat="45.97837" lon="6.18466">
        <ele>717.2</ele>
        <time>2021-03-02T13:29:47Z</time>
        <extensions>
          <gpxtpx:TrackPointExtension xmlns:gpxtpx="http://www.garmin.com/xmlschemas/TrackPointExtension/v1">
            <gpxtpx:hr>148</gpxtpx:hr>
          </gpxtpx:TrackPointExtension>
        </extensions>
      </trkpt>
      <trkpt lat="45.97836" lon="6.1847">
        <ele>717.4</ele>
        <time>2021-03-02T13:29:48Z</time>
        <extensions>
          <gpxtpx:TrackPointExtension xmlns:gpxtpx="http://www.garmin.com/xmlschemas/TrackPointExtension/v1">
            <gpxtpx:hr>149</gpxtpx:hr>
          </gpxtpx:TrackPointExtension>
        </extensions>
      </trkpt>
      <trkpt lat="45.97836" lon="6.18474">
        <ele>717.6</ele>
        <time>2021-03-02T13:29:49Z</time>
        <extensions>
          <gpxtpx:TrackPointExtension xmlns:gpxtpx="http://www.garmin.com/xmlschemas/TrackPointExtension/v1">
            <gpxtpx:hr>149</gpxtpx:hr>
          </gpxtpx:TrackPointExtension>
        </extensions>
      </trkpt>
      <trkpt lat="45.97836" lon="6.18478">
        <ele>717.8</ele>
        <time>2021-03-02T13:29:50Z</time>
        <extensions>
          <gpxtpx:TrackPointExtension xmlns:gpxtpx="http://www.garmin.com/xmlschemas/TrackPointExtension/v1">
            <gpxtpx:hr>149</gpxtpx:hr>
          </gpxtpx:TrackPointExtension>
        </extensions>
      </trkpt>
      <trkpt lat="45.97836" lon="6.18482">
        <ele>718</ele>
        <time>2021-03-02T13:29:51Z</time>
        <extensions>
          <gpxtpx:TrackPointExtension xmlns:gpxtpx="http://www.garmin.com/xmlschemas/TrackPointExtension/v1">
            <gpxtpx:hr>149</gpxtpx:hr>
          </gpxtpx:TrackPointExtension>
        </extensions>
      </trkpt>
      <trkpt lat="45.97836" lon="6.18487">
        <ele>718.2</ele>
        <time>2021-03-02T13:29:52Z</time>
        <extensions>
          <gpxtpx:TrackPointExtension xmlns:gpxtpx="http://www.garmin.com/xmlschemas/TrackPointExtension/v1">
            <gpxtpx:hr>149</gpxtpx:hr>
          </gpxtpx:TrackPointExtension>
        </extensions>
      </trkpt>
      <trkpt lat="45.97836" lon="6.18491">
        <ele>718.4</ele>
        <time>2021-03-02T13:29:53Z</time>
        <extensions>
          <gpxtpx:TrackPointExtension xmlns:gpxtpx="http://www.garmin.com/xmlschemas/TrackPointExtension/v1">
            <gpxtpx:hr>150</gpxtpx:hr>
          </gpxtpx:TrackPointExtension>
        </extensions>
      </trkpt>
      <trkpt lat="45.97836" lon="6.18495">
        <ele>718.6</ele>
        <time>2021-03-02T13:29:54Z</time>
        <extensions>
          <gpxtpx:TrackPointExtension xmlns:gpxtpx="http://www.garmin.com/xmlschemas/TrackPointExtension/v1">
            <gpxtpx:hr>150</gpxtpx:hr>
          </gpxtpx:TrackPointExtension>
        </extensions>
      </trkpt>
      <trkpt lat="45.97837" lon="6.18499">
        <ele>718.8</ele>
        <time>2021-03-02T13:29:55Z</time>
        <extensions>
          <gpxtpx:TrackPointExtension xmlns:gpxtpx="http://www.garmin.com/xmlschemas/TrackPointExtension/v1">
            <gpxtpx:hr>149</gpxtpx:hr>
          </gpxtpx:TrackPointExtension>
        </extensions>
      </trkpt>
      <trkpt lat="45.97837" lon="6.18503">
        <ele>719.1</ele>
        <time>2021-03-02T13:29:56Z</time>
        <extensions>
          <gpxtpx:TrackPointExtension xmlns:gpxtpx="http://www.garmin.com/xmlschemas/TrackPointExtension/v1">
            <gpxtpx:hr>149</gpxtpx:hr>
          </gpxtpx:TrackPointExtension>
        </extensions>
      </trkpt>
      <trkpt lat="45.97837" lon="6.18507">
        <ele>719.3</ele>
        <time>2021-03-02T13:29:57Z</time>
        <extensions>
          <gpxtpx:TrackPointExtension xmlns:gpxtpx="http://www.garmin.com/xmlschemas/TrackPointExtension/v1">
            <gpxtpx:hr>149</gpxtpx:hr>
          </gpxtpx:TrackPointExtension>
        </extensions>
      </trkpt>
      <trkpt lat="45.97837" lon="6.18511">
        <ele>719.5</ele>
        <time>2021-03-02T13:29:58Z</time>
        <extensions>
          <gpxtpx:TrackPointExtension xmlns:gpxtpx="http://www.garmin.com/xmlschemas/TrackPointExtension/v1">
            <gpxtpx:hr>149</gpxtpx:hr>
          </gpxtpx:TrackPointExtension>
        </extensions>
      </trkpt>
      <trkpt lat="45.97837" lon="6.18514">
        <ele>719.7</ele>
        <time>2021-03-02T13:29:59Z</time>
        <extensions>
          <gpxtpx:TrackPointExtension xmlns:gpxtpx="http://www.garmin.com/xmlschemas/TrackPointExtension/v1">
            <gpxtpx:hr>149</gpxtpx:hr>
          </gpxtpx:TrackPointExtension>
        </extensions>
      </trkpt>
      <trkpt lat="45.97837" lon="6.18518">
        <ele>720</ele>
        <time>2021-03-02T13:30:00Z</time>
        <extensions>
          <gpxtpx:TrackPointExtension xmlns:gpxtpx="http://www.garmin.com/xmlschemas/TrackPointExtension/v1">
            <gpxtpx:hr>149</gpxtpx:hr>
          </gpxtpx:TrackPointExtension>
        </extensions>
      </trkpt>
      <trkpt lat="45.97837" lon="6.18522">
        <ele>720.2</ele>
        <time>2021-03-02T13:30:01Z</time>
        <extensions>
          <gpxtpx:TrackPointExtension xmlns:gpxtpx="http://www.garmin.com/xmlschemas/TrackPointExtension/v1">
            <gpxtpx:hr>149</gpxtpx:hr>
          </gpxtpx:TrackPointExtension>
        </extensions>
      </trkpt>
      <trkpt lat="45.97836" lon="6.18526">
        <ele>720.4</ele>
        <time>2021-03-02T13:30:02Z</time>
        <extensions>
          <gpxtpx:TrackPointExtension xmlns:gpxtpx="http://www.garmin.com/xmlschemas/TrackPointExtension/v1">
            <gpxtpx:hr>149</gpxtpx:hr>
          </gpxtpx:TrackPointExtension>
        </extensions>
      </trkpt>
      <trkpt lat="45.97835" lon="6.1853">
        <ele>720.7</ele>
        <time>2021-03-02T13:30:03Z</time>
        <extensions>
          <gpxtpx:TrackPointExtension xmlns:gpxtpx="http://www.garmin.com/xmlschemas/TrackPointExtension/v1">
            <gpxtpx:hr>149</gpxtpx:hr>
          </gpxtpx:TrackPointExtension>
        </extensions>
      </trkpt>
      <trkpt lat="45.97834" lon="6.18534">
        <ele>720.9</ele>
        <time>2021-03-02T13:30:04Z</time>
        <extensions>
          <gpxtpx:TrackPointExtension xmlns:gpxtpx="http://www.garmin.com/xmlschemas/TrackPointExtension/v1">
            <gpxtpx:hr>149</gpxtpx:hr>
          </gpxtpx:TrackPointExtension>
        </extensions>
      </trkpt>
      <trkpt lat="45.97833" lon="6.18538">
        <ele>721.2</ele>
        <time>2021-03-02T13:30:05Z</time>
        <extensions>
          <gpxtpx:TrackPointExtension xmlns:gpxtpx="http://www.garmin.com/xmlschemas/TrackPointExtension/v1">
            <gpxtpx:hr>150</gpxtpx:hr>
          </gpxtpx:TrackPointExtension>
        </extensions>
      </trkpt>
      <trkpt lat="45.97832" lon="6.18541">
        <ele>721.4</ele>
        <time>2021-03-02T13:30:06Z</time>
        <extensions>
          <gpxtpx:TrackPointExtension xmlns:gpxtpx="http://www.garmin.com/xmlschemas/TrackPointExtension/v1">
            <gpxtpx:hr>150</gpxtpx:hr>
          </gpxtpx:TrackPointExtension>
        </extensions>
      </trkpt>
      <trkpt lat="45.97831" lon="6.18545">
        <ele>721.7</ele>
        <time>2021-03-02T13:30:07Z</time>
        <extensions>
          <gpxtpx:TrackPointExtension xmlns:gpxtpx="http://www.garmin.com/xmlschemas/TrackPointExtension/v1">
            <gpxtpx:hr>149</gpxtpx:hr>
          </gpxtpx:TrackPointExtension>
        </extensions>
      </trkpt>
      <trkpt lat="45.9783" lon="6.18549">
        <ele>721.9</ele>
        <time>2021-03-02T13:30:08Z</time>
        <extensions>
          <gpxtpx:TrackPointExtension xmlns:gpxtpx="http://www.garmin.com/xmlschemas/TrackPointExtension/v1">
            <gpxtpx:hr>150</gpxtpx:hr>
          </gpxtpx:TrackPointExtension>
        </extensions>
      </trkpt>
      <trkpt lat="45.97829" lon="6.18552">
        <ele>722.2</ele>
        <time>2021-03-02T13:30:09Z</time>
        <extensions>
          <gpxtpx:TrackPointExtension xmlns:gpxtpx="http://www.garmin.com/xmlschemas/TrackPointExtension/v1">
            <gpxtpx:hr>150</gpxtpx:hr>
          </gpxtpx:TrackPointExtension>
        </extensions>
      </trkpt>
      <trkpt lat="45.97827" lon="6.18556">
        <ele>722.4</ele>
        <time>2021-03-02T13:30:10Z</time>
        <extensions>
          <gpxtpx:TrackPointExtension xmlns:gpxtpx="http://www.garmin.com/xmlschemas/TrackPointExtension/v1">
            <gpxtpx:hr>150</gpxtpx:hr>
          </gpxtpx:TrackPointExtension>
        </extensions>
      </trkpt>
      <trkpt lat="45.97826" lon="6.18559">
        <ele>722.7</ele>
        <time>2021-03-02T13:30:11Z</time>
        <extensions>
          <gpxtpx:TrackPointExtension xmlns:gpxtpx="http://www.garmin.com/xmlschemas/TrackPointExtension/v1">
            <gpxtpx:hr>150</gpxtpx:hr>
          </gpxtpx:TrackPointExtension>
        </extensions>
      </trkpt>
      <trkpt lat="45.97825" lon="6.18562">
        <ele>722.9</ele>
        <time>2021-03-02T13:30:12Z</time>
        <extensions>
          <gpxtpx:TrackPointExtension xmlns:gpxtpx="http://www.garmin.com/xmlschemas/TrackPointExtension/v1">
            <gpxtpx:hr>150</gpxtpx:hr>
          </gpxtpx:TrackPointExtension>
        </extensions>
      </trkpt>
      <trkpt lat="45.97823" lon="6.18566">
        <ele>723.2</ele>
        <time>2021-03-02T13:30:13Z</time>
        <extensions>
          <gpxtpx:TrackPointExtension xmlns:gpxtpx="http://www.garmin.com/xmlschemas/TrackPointExtension/v1">
            <gpxtpx:hr>149</gpxtpx:hr>
          </gpxtpx:TrackPointExtension>
        </extensions>
      </trkpt>
      <trkpt lat="45.97822" lon="6.18569">
        <ele>723.4</ele>
        <time>2021-03-02T13:30:14Z</time>
        <extensions>
          <gpxtpx:TrackPointExtension xmlns:gpxtpx="http://www.garmin.com/xmlschemas/TrackPointExtension/v1">
            <gpxtpx:hr>150</gpxtpx:hr>
          </gpxtpx:TrackPointExtension>
        </extensions>
      </trkpt>
      <trkpt lat="45.97821" lon="6.18573">
        <ele>723.6</ele>
        <time>2021-03-02T13:30:15Z</time>
        <extensions>
          <gpxtpx:TrackPointExtension xmlns:gpxtpx="http://www.garmin.com/xmlschemas/TrackPointExtension/v1">
            <gpxtpx:hr>150</gpxtpx:hr>
          </gpxtpx:TrackPointExtension>
        </extensions>
      </trkpt>
      <trkpt lat="45.97819" lon="6.18576">
        <ele>723.9</ele>
        <time>2021-03-02T13:30:16Z</time>
        <extensions>
          <gpxtpx:TrackPointExtension xmlns:gpxtpx="http://www.garmin.com/xmlschemas/TrackPointExtension/v1">
            <gpxtpx:hr>150</gpxtpx:hr>
          </gpxtpx:TrackPointExtension>
        </extensions>
      </trkpt>
      <trkpt lat="45.97818" lon="6.1858">
        <ele>724.1</ele>
        <time>2021-03-02T13:30:17Z</time>
        <extensions>
          <gpxtpx:TrackPointExtension xmlns:gpxtpx="http://www.garmin.com/xmlschemas/TrackPointExtension/v1">
            <gpxtpx:hr>150</gpxtpx:hr>
          </gpxtpx:TrackPointExtension>
        </extensions>
      </trkpt>
      <trkpt lat="45.97816" lon="6.18583">
        <ele>724.4</ele>
        <time>2021-03-02T13:30:18Z</time>
        <extensions>
          <gpxtpx:TrackPointExtension xmlns:gpxtpx="http://www.garmin.com/xmlschemas/TrackPointExtension/v1">
            <gpxtpx:hr>150</gpxtpx:hr>
          </gpxtpx:TrackPointExtension>
        </extensions>
      </trkpt>
      <trkpt lat="45.97815" lon="6.18586">
        <ele>724.6</ele>
        <time>2021-03-02T13:30:19Z</time>
        <extensions>
          <gpxtpx:TrackPointExtension xmlns:gpxtpx="http://www.garmin.com/xmlschemas/TrackPointExtension/v1">
            <gpxtpx:hr>150</gpxtpx:hr>
          </gpxtpx:TrackPointExtension>
        </extensions>
      </trkpt>
      <trkpt lat="45.97813" lon="6.1859">
        <ele>724.9</ele>
        <time>2021-03-02T13:30:20Z</time>
        <extensions>
          <gpxtpx:TrackPointExtension xmlns:gpxtpx="http://www.garmin.com/xmlschemas/TrackPointExtension/v1">
            <gpxtpx:hr>151</gpxtpx:hr>
          </gpxtpx:TrackPointExtension>
        </extensions>
      </trkpt>
      <trkpt lat="45.97812" lon="6.18593">
        <ele>725.1</ele>
        <time>2021-03-02T13:30:21Z</time>
        <extensions>
          <gpxtpx:TrackPointExtension xmlns:gpxtpx="http://www.garmin.com/xmlschemas/TrackPointExtension/v1">
            <gpxtpx:hr>151</gpxtpx:hr>
          </gpxtpx:TrackPointExtension>
        </extensions>
      </trkpt>
      <trkpt lat="45.9781" lon="6.18596">
        <ele>725.4</ele>
        <time>2021-03-02T13:30:22Z</time>
        <extensions>
          <gpxtpx:TrackPointExtension xmlns:gpxtpx="http://www.garmin.com/xmlschemas/TrackPointExtension/v1">
            <gpxtpx:hr>151</gpxtpx:hr>
          </gpxtpx:TrackPointExtension>
        </extensions>
      </trkpt>
      <trkpt lat="45.97808" lon="6.18599">
        <ele>725.6</ele>
        <time>2021-03-02T13:30:23Z</time>
        <extensions>
          <gpxtpx:TrackPointExtension xmlns:gpxtpx="http://www.garmin.com/xmlschemas/TrackPointExtension/v1">
            <gpxtpx:hr>151</gpxtpx:hr>
          </gpxtpx:TrackPointExtension>
        </extensions>
      </trkpt>
      <trkpt lat="45.97806" lon="6.18603">
        <ele>725.8</ele>
        <time>2021-03-02T13:30:24Z</time>
        <extensions>
          <gpxtpx:TrackPointExtension xmlns:gpxtpx="http://www.garmin.com/xmlschemas/TrackPointExtension/v1">
            <gpxtpx:hr>151</gpxtpx:hr>
          </gpxtpx:TrackPointExtension>
        </extensions>
      </trkpt>
      <trkpt lat="45.97805" lon="6.18606">
        <ele>726.1</ele>
        <time>2021-03-02T13:30:25Z</time>
        <extensions>
          <gpxtpx:TrackPointExtension xmlns:gpxtpx="http://www.garmin.com/xmlschemas/TrackPointExtension/v1">
            <gpxtpx:hr>151</gpxtpx:hr>
          </gpxtpx:TrackPointExtension>
        </extensions>
      </trkpt>
      <trkpt lat="45.97803" lon="6.1861">
        <ele>726.3</ele>
        <time>2021-03-02T13:30:26Z</time>
        <extensions>
          <gpxtpx:TrackPointExtension xmlns:gpxtpx="http://www.garmin.com/xmlschemas/TrackPointExtension/v1">
            <gpxtpx:hr>151</gpxtpx:hr>
          </gpxtpx:TrackPointExtension>
        </extensions>
      </trkpt>
      <trkpt lat="45.97802" lon="6.18613">
        <ele>726.6</ele>
        <time>2021-03-02T13:30:27Z</time>
        <extensions>
          <gpxtpx:TrackPointExtension xmlns:gpxtpx="http://www.garmin.com/xmlschemas/TrackPointExtension/v1">
            <gpxtpx:hr>151</gpxtpx:hr>
          </gpxtpx:TrackPointExtension>
        </extensions>
      </trkpt>
      <trkpt lat="45.97801" lon="6.18617">
        <ele>726.8</ele>
        <time>2021-03-02T13:30:28Z</time>
        <extensions>
          <gpxtpx:TrackPointExtension xmlns:gpxtpx="http://www.garmin.com/xmlschemas/TrackPointExtension/v1">
            <gpxtpx:hr>151</gpxtpx:hr>
          </gpxtpx:TrackPointExtension>
        </extensions>
      </trkpt>
      <trkpt lat="45.97799" lon="6.1862">
        <ele>727.1</ele>
        <time>2021-03-02T13:30:29Z</time>
        <extensions>
          <gpxtpx:TrackPointExtension xmlns:gpxtpx="http://www.garmin.com/xmlschemas/TrackPointExtension/v1">
            <gpxtpx:hr>151</gpxtpx:hr>
          </gpxtpx:TrackPointExtension>
        </extensions>
      </trkpt>
      <trkpt lat="45.97798" lon="6.18624">
        <ele>727.3</ele>
        <time>2021-03-02T13:30:30Z</time>
        <extensions>
          <gpxtpx:TrackPointExtension xmlns:gpxtpx="http://www.garmin.com/xmlschemas/TrackPointExtension/v1">
            <gpxtpx:hr>151</gpxtpx:hr>
          </gpxtpx:TrackPointExtension>
        </extensions>
      </trkpt>
      <trkpt lat="45.97796" lon="6.18627">
        <ele>727.6</ele>
        <time>2021-03-02T13:30:31Z</time>
        <extensions>
          <gpxtpx:TrackPointExtension xmlns:gpxtpx="http://www.garmin.com/xmlschemas/TrackPointExtension/v1">
            <gpxtpx:hr>151</gpxtpx:hr>
          </gpxtpx:TrackPointExtension>
        </extensions>
      </trkpt>
      <trkpt lat="45.97794" lon="6.18631">
        <ele>727.8</ele>
        <time>2021-03-02T13:30:32Z</time>
        <extensions>
          <gpxtpx:TrackPointExtension xmlns:gpxtpx="http://www.garmin.com/xmlschemas/TrackPointExtension/v1">
            <gpxtpx:hr>151</gpxtpx:hr>
          </gpxtpx:TrackPointExtension>
        </extensions>
      </trkpt>
      <trkpt lat="45.97792" lon="6.18634">
        <ele>728.1</ele>
        <time>2021-03-02T13:30:33Z</time>
        <extensions>
          <gpxtpx:TrackPointExtension xmlns:gpxtpx="http://www.garmin.com/xmlschemas/TrackPointExtension/v1">
            <gpxtpx:hr>151</gpxtpx:hr>
          </gpxtpx:TrackPointExtension>
        </extensions>
      </trkpt>
      <trkpt lat="45.97791" lon="6.18637">
        <ele>728.3</ele>
        <time>2021-03-02T13:30:34Z</time>
        <extensions>
          <gpxtpx:TrackPointExtension xmlns:gpxtpx="http://www.garmin.com/xmlschemas/TrackPointExtension/v1">
            <gpxtpx:hr>151</gpxtpx:hr>
          </gpxtpx:TrackPointExtension>
        </extensions>
      </trkpt>
      <trkpt lat="45.97789" lon="6.18641">
        <ele>728.6</ele>
        <time>2021-03-02T13:30:35Z</time>
        <extensions>
          <gpxtpx:TrackPointExtension xmlns:gpxtpx="http://www.garmin.com/xmlschemas/TrackPointExtension/v1">
            <gpxtpx:hr>151</gpxtpx:hr>
          </gpxtpx:TrackPointExtension>
        </extensions>
      </trkpt>
      <trkpt lat="45.97787" lon="6.18644">
        <ele>728.9</ele>
        <time>2021-03-02T13:30:36Z</time>
        <extensions>
          <gpxtpx:TrackPointExtension xmlns:gpxtpx="http://www.garmin.com/xmlschemas/TrackPointExtension/v1">
            <gpxtpx:hr>151</gpxtpx:hr>
          </gpxtpx:TrackPointExtension>
        </extensions>
      </trkpt>
      <trkpt lat="45.97786" lon="6.18647">
        <ele>729.1</ele>
        <time>2021-03-02T13:30:37Z</time>
        <extensions>
          <gpxtpx:TrackPointExtension xmlns:gpxtpx="http://www.garmin.com/xmlschemas/TrackPointExtension/v1">
            <gpxtpx:hr>151</gpxtpx:hr>
          </gpxtpx:TrackPointExtension>
        </extensions>
      </trkpt>
      <trkpt lat="45.97784" lon="6.1865">
        <ele>729.4</ele>
        <time>2021-03-02T13:30:38Z</time>
        <extensions>
          <gpxtpx:TrackPointExtension xmlns:gpxtpx="http://www.garmin.com/xmlschemas/TrackPointExtension/v1">
            <gpxtpx:hr>152</gpxtpx:hr>
          </gpxtpx:TrackPointExtension>
        </extensions>
      </trkpt>
      <trkpt lat="45.97782" lon="6.18653">
        <ele>729.6</ele>
        <time>2021-03-02T13:30:39Z</time>
        <extensions>
          <gpxtpx:TrackPointExtension xmlns:gpxtpx="http://www.garmin.com/xmlschemas/TrackPointExtension/v1">
            <gpxtpx:hr>152</gpxtpx:hr>
          </gpxtpx:TrackPointExtension>
        </extensions>
      </trkpt>
      <trkpt lat="45.9778" lon="6.18656">
        <ele>729.9</ele>
        <time>2021-03-02T13:30:40Z</time>
        <extensions>
          <gpxtpx:TrackPointExtension xmlns:gpxtpx="http://www.garmin.com/xmlschemas/TrackPointExtension/v1">
            <gpxtpx:hr>152</gpxtpx:hr>
          </gpxtpx:TrackPointExtension>
        </extensions>
      </trkpt>
      <trkpt lat="45.97778" lon="6.18659">
        <ele>730.2</ele>
        <time>2021-03-02T13:30:41Z</time>
        <extensions>
          <gpxtpx:TrackPointExtension xmlns:gpxtpx="http://www.garmin.com/xmlschemas/TrackPointExtension/v1">
            <gpxtpx:hr>152</gpxtpx:hr>
          </gpxtpx:TrackPointExtension>
        </extensions>
      </trkpt>
      <trkpt lat="45.97776" lon="6.18662">
        <ele>730.5</ele>
        <time>2021-03-02T13:30:42Z</time>
        <extensions>
          <gpxtpx:TrackPointExtension xmlns:gpxtpx="http://www.garmin.com/xmlschemas/TrackPointExtension/v1">
            <gpxtpx:hr>152</gpxtpx:hr>
          </gpxtpx:TrackPointExtension>
        </extensions>
      </trkpt>
      <trkpt lat="45.97774" lon="6.18665">
        <ele>730.8</ele>
        <time>2021-03-02T13:30:43Z</time>
        <extensions>
          <gpxtpx:TrackPointExtension xmlns:gpxtpx="http://www.garmin.com/xmlschemas/TrackPointExtension/v1">
            <gpxtpx:hr>152</gpxtpx:hr>
          </gpxtpx:TrackPointExtension>
        </extensions>
      </trkpt>
      <trkpt lat="45.97772" lon="6.18667">
        <ele>731</ele>
        <time>2021-03-02T13:30:44Z</time>
        <extensions>
          <gpxtpx:TrackPointExtension xmlns:gpxtpx="http://www.garmin.com/xmlschemas/TrackPointExtension/v1">
            <gpxtpx:hr>152</gpxtpx:hr>
          </gpxtpx:TrackPointExtension>
        </extensions>
      </trkpt>
      <trkpt lat="45.9777" lon="6.1867">
        <ele>731.3</ele>
        <time>2021-03-02T13:30:45Z</time>
        <extensions>
          <gpxtpx:TrackPointExtension xmlns:gpxtpx="http://www.garmin.com/xmlschemas/TrackPointExtension/v1">
            <gpxtpx:hr>152</gpxtpx:hr>
          </gpxtpx:TrackPointExtension>
        </extensions>
      </trkpt>
      <trkpt lat="45.97768" lon="6.18672">
        <ele>731.6</ele>
        <time>2021-03-02T13:30:46Z</time>
        <extensions>
          <gpxtpx:TrackPointExtension xmlns:gpxtpx="http://www.garmin.com/xmlschemas/TrackPointExtension/v1">
            <gpxtpx:hr>152</gpxtpx:hr>
          </gpxtpx:TrackPointExtension>
        </extensions>
      </trkpt>
      <trkpt lat="45.97766" lon="6.18675">
        <ele>731.9</ele>
        <time>2021-03-02T13:30:47Z</time>
        <extensions>
          <gpxtpx:TrackPointExtension xmlns:gpxtpx="http://www.garmin.com/xmlschemas/TrackPointExtension/v1">
            <gpxtpx:hr>152</gpxtpx:hr>
          </gpxtpx:TrackPointExtension>
        </extensions>
      </trkpt>
      <trkpt lat="45.97764" lon="6.18678">
        <ele>732.1</ele>
        <time>2021-03-02T13:30:48Z</time>
        <extensions>
          <gpxtpx:TrackPointExtension xmlns:gpxtpx="http://www.garmin.com/xmlschemas/TrackPointExtension/v1">
            <gpxtpx:hr>152</gpxtpx:hr>
          </gpxtpx:TrackPointExtension>
        </extensions>
      </trkpt>
      <trkpt lat="45.97762" lon="6.18681">
        <ele>732.4</ele>
        <time>2021-03-02T13:30:49Z</time>
        <extensions>
          <gpxtpx:TrackPointExtension xmlns:gpxtpx="http://www.garmin.com/xmlschemas/TrackPointExtension/v1">
            <gpxtpx:hr>152</gpxtpx:hr>
          </gpxtpx:TrackPointExtension>
        </extensions>
      </trkpt>
      <trkpt lat="45.97761" lon="6.18685">
        <ele>732.7</ele>
        <time>2021-03-02T13:30:50Z</time>
        <extensions>
          <gpxtpx:TrackPointExtension xmlns:gpxtpx="http://www.garmin.com/xmlschemas/TrackPointExtension/v1">
            <gpxtpx:hr>152</gpxtpx:hr>
          </gpxtpx:TrackPointExtension>
        </extensions>
      </trkpt>
      <trkpt lat="45.97759" lon="6.18688">
        <ele>733.1</ele>
        <time>2021-03-02T13:30:51Z</time>
        <extensions>
          <gpxtpx:TrackPointExtension xmlns:gpxtpx="http://www.garmin.com/xmlschemas/TrackPointExtension/v1">
            <gpxtpx:hr>152</gpxtpx:hr>
          </gpxtpx:TrackPointExtension>
        </extensions>
      </trkpt>
      <trkpt lat="45.97758" lon="6.18692">
        <ele>733.4</ele>
        <time>2021-03-02T13:30:52Z</time>
        <extensions>
          <gpxtpx:TrackPointExtension xmlns:gpxtpx="http://www.garmin.com/xmlschemas/TrackPointExtension/v1">
            <gpxtpx:hr>152</gpxtpx:hr>
          </gpxtpx:TrackPointExtension>
        </extensions>
      </trkpt>
      <trkpt lat="45.97758" lon="6.18696">
        <ele>733.7</ele>
        <time>2021-03-02T13:30:53Z</time>
        <extensions>
          <gpxtpx:TrackPointExtension xmlns:gpxtpx="http://www.garmin.com/xmlschemas/TrackPointExtension/v1">
            <gpxtpx:hr>152</gpxtpx:hr>
          </gpxtpx:TrackPointExtension>
        </extensions>
      </trkpt>
      <trkpt lat="45.97757" lon="6.187">
        <ele>734.1</ele>
        <time>2021-03-02T13:30:54Z</time>
        <extensions>
          <gpxtpx:TrackPointExtension xmlns:gpxtpx="http://www.garmin.com/xmlschemas/TrackPointExtension/v1">
            <gpxtpx:hr>152</gpxtpx:hr>
          </gpxtpx:TrackPointExtension>
        </extensions>
      </trkpt>
      <trkpt lat="45.97757" lon="6.18704">
        <ele>734.4</ele>
        <time>2021-03-02T13:30:55Z</time>
        <extensions>
          <gpxtpx:TrackPointExtension xmlns:gpxtpx="http://www.garmin.com/xmlschemas/TrackPointExtension/v1">
            <gpxtpx:hr>152</gpxtpx:hr>
          </gpxtpx:TrackPointExtension>
        </extensions>
      </trkpt>
      <trkpt lat="45.97758" lon="6.18708">
        <ele>734.7</ele>
        <time>2021-03-02T13:30:56Z</time>
        <extensions>
          <gpxtpx:TrackPointExtension xmlns:gpxtpx="http://www.garmin.com/xmlschemas/TrackPointExtension/v1">
            <gpxtpx:hr>152</gpxtpx:hr>
          </gpxtpx:TrackPointExtension>
        </extensions>
      </trkpt>
      <trkpt lat="45.97758" lon="6.18711">
        <ele>734.9</ele>
        <time>2021-03-02T13:30:57Z</time>
        <extensions>
          <gpxtpx:TrackPointExtension xmlns:gpxtpx="http://www.garmin.com/xmlschemas/TrackPointExtension/v1">
            <gpxtpx:hr>152</gpxtpx:hr>
          </gpxtpx:TrackPointExtension>
        </extensions>
      </trkpt>
      <trkpt lat="45.97759" lon="6.18714">
        <ele>735.2</ele>
        <time>2021-03-02T13:30:58Z</time>
        <extensions>
          <gpxtpx:TrackPointExtension xmlns:gpxtpx="http://www.garmin.com/xmlschemas/TrackPointExtension/v1">
            <gpxtpx:hr>152</gpxtpx:hr>
          </gpxtpx:TrackPointExtension>
        </extensions>
      </trkpt>
      <trkpt lat="45.9776" lon="6.18717">
        <ele>735.4</ele>
        <time>2021-03-02T13:30:59Z</time>
        <extensions>
          <gpxtpx:TrackPointExtension xmlns:gpxtpx="http://www.garmin.com/xmlschemas/TrackPointExtension/v1">
            <gpxtpx:hr>152</gpxtpx:hr>
          </gpxtpx:TrackPointExtension>
        </extensions>
      </trkpt>
      <trkpt lat="45.97762" lon="6.18719">
        <ele>735.6</ele>
        <time>2021-03-02T13:31:00Z</time>
        <extensions>
          <gpxtpx:TrackPointExtension xmlns:gpxtpx="http://www.garmin.com/xmlschemas/TrackPointExtension/v1">
            <gpxtpx:hr>152</gpxtpx:hr>
          </gpxtpx:TrackPointExtension>
        </extensions>
      </trkpt>
      <trkpt lat="45.97764" lon="6.18721">
        <ele>735.8</ele>
        <time>2021-03-02T13:31:01Z</time>
        <extensions>
          <gpxtpx:TrackPointExtension xmlns:gpxtpx="http://www.garmin.com/xmlschemas/TrackPointExtension/v1">
            <gpxtpx:hr>152</gpxtpx:hr>
          </gpxtpx:TrackPointExtension>
        </extensions>
      </trkpt>
      <trkpt lat="45.97766" lon="6.18723">
        <ele>736</ele>
        <time>2021-03-02T13:31:02Z</time>
        <extensions>
          <gpxtpx:TrackPointExtension xmlns:gpxtpx="http://www.garmin.com/xmlschemas/TrackPointExtension/v1">
            <gpxtpx:hr>152</gpxtpx:hr>
          </gpxtpx:TrackPointExtension>
        </extensions>
      </trkpt>
      <trkpt lat="45.97768" lon="6.18724">
        <ele>736.2</ele>
        <time>2021-03-02T13:31:03Z</time>
        <extensions>
          <gpxtpx:TrackPointExtension xmlns:gpxtpx="http://www.garmin.com/xmlschemas/TrackPointExtension/v1">
            <gpxtpx:hr>152</gpxtpx:hr>
          </gpxtpx:TrackPointExtension>
        </extensions>
      </trkpt>
      <trkpt lat="45.97771" lon="6.18725">
        <ele>736.4</ele>
        <time>2021-03-02T13:31:04Z</time>
        <extensions>
          <gpxtpx:TrackPointExtension xmlns:gpxtpx="http://www.garmin.com/xmlschemas/TrackPointExtension/v1">
            <gpxtpx:hr>152</gpxtpx:hr>
          </gpxtpx:TrackPointExtension>
        </extensions>
      </trkpt>
      <trkpt lat="45.97774" lon="6.18725">
        <ele>736.5</ele>
        <time>2021-03-02T13:31:05Z</time>
        <extensions>
          <gpxtpx:TrackPointExtension xmlns:gpxtpx="http://www.garmin.com/xmlschemas/TrackPointExtension/v1">
            <gpxtpx:hr>152</gpxtpx:hr>
          </gpxtpx:TrackPointExtension>
        </extensions>
      </trkpt>
      <trkpt lat="45.97777" lon="6.18725">
        <ele>736.7</ele>
        <time>2021-03-02T13:31:06Z</time>
        <extensions>
          <gpxtpx:TrackPointExtension xmlns:gpxtpx="http://www.garmin.com/xmlschemas/TrackPointExtension/v1">
            <gpxtpx:hr>152</gpxtpx:hr>
          </gpxtpx:TrackPointExtension>
        </extensions>
      </trkpt>
      <trkpt lat="45.9778" lon="6.18724">
        <ele>736.8</ele>
        <time>2021-03-02T13:31:07Z</time>
        <extensions>
          <gpxtpx:TrackPointExtension xmlns:gpxtpx="http://www.garmin.com/xmlschemas/TrackPointExtension/v1">
            <gpxtpx:hr>152</gpxtpx:hr>
          </gpxtpx:TrackPointExtension>
        </extensions>
      </trkpt>
      <trkpt lat="45.97783" lon="6.18723">
        <ele>736.9</ele>
        <time>2021-03-02T13:31:08Z</time>
        <extensions>
          <gpxtpx:TrackPointExtension xmlns:gpxtpx="http://www.garmin.com/xmlschemas/TrackPointExtension/v1">
            <gpxtpx:hr>152</gpxtpx:hr>
          </gpxtpx:TrackPointExtension>
        </extensions>
      </trkpt>
      <trkpt lat="45.97786" lon="6.18722">
        <ele>737.1</ele>
        <time>2021-03-02T13:31:09Z</time>
        <extensions>
          <gpxtpx:TrackPointExtension xmlns:gpxtpx="http://www.garmin.com/xmlschemas/TrackPointExtension/v1">
            <gpxtpx:hr>152</gpxtpx:hr>
          </gpxtpx:TrackPointExtension>
        </extensions>
      </trkpt>
      <trkpt lat="45.97789" lon="6.18721">
        <ele>737.2</ele>
        <time>2021-03-02T13:31:10Z</time>
        <extensions>
          <gpxtpx:TrackPointExtension xmlns:gpxtpx="http://www.garmin.com/xmlschemas/TrackPointExtension/v1">
            <gpxtpx:hr>152</gpxtpx:hr>
          </gpxtpx:TrackPointExtension>
        </extensions>
      </trkpt>
      <trkpt lat="45.97791" lon="6.1872">
        <ele>737.3</ele>
        <time>2021-03-02T13:31:11Z</time>
        <extensions>
          <gpxtpx:TrackPointExtension xmlns:gpxtpx="http://www.garmin.com/xmlschemas/TrackPointExtension/v1">
            <gpxtpx:hr>152</gpxtpx:hr>
          </gpxtpx:TrackPointExtension>
        </extensions>
      </trkpt>
      <trkpt lat="45.97794" lon="6.18719">
        <ele>737.4</ele>
        <time>2021-03-02T13:31:12Z</time>
        <extensions>
          <gpxtpx:TrackPointExtension xmlns:gpxtpx="http://www.garmin.com/xmlschemas/TrackPointExtension/v1">
            <gpxtpx:hr>152</gpxtpx:hr>
          </gpxtpx:TrackPointExtension>
        </extensions>
      </trkpt>
      <trkpt lat="45.97797" lon="6.18718">
        <ele>737.5</ele>
        <time>2021-03-02T13:31:13Z</time>
        <extensions>
          <gpxtpx:TrackPointExtension xmlns:gpxtpx="http://www.garmin.com/xmlschemas/TrackPointExtension/v1">
            <gpxtpx:hr>151</gpxtpx:hr>
          </gpxtpx:TrackPointExtension>
        </extensions>
      </trkpt>
      <trkpt lat="45.97799" lon="6.18717">
        <ele>737.7</ele>
        <time>2021-03-02T13:31:14Z</time>
        <extensions>
          <gpxtpx:TrackPointExtension xmlns:gpxtpx="http://www.garmin.com/xmlschemas/TrackPointExtension/v1">
            <gpxtpx:hr>151</gpxtpx:hr>
          </gpxtpx:TrackPointExtension>
        </extensions>
      </trkpt>
      <trkpt lat="45.97802" lon="6.18715">
        <ele>737.8</ele>
        <time>2021-03-02T13:31:15Z</time>
        <extensions>
          <gpxtpx:TrackPointExtension xmlns:gpxtpx="http://www.garmin.com/xmlschemas/TrackPointExtension/v1">
            <gpxtpx:hr>151</gpxtpx:hr>
          </gpxtpx:TrackPointExtension>
        </extensions>
      </trkpt>
      <trkpt lat="45.97805" lon="6.18714">
        <ele>738</ele>
        <time>2021-03-02T13:31:16Z</time>
        <extensions>
          <gpxtpx:TrackPointExtension xmlns:gpxtpx="http://www.garmin.com/xmlschemas/TrackPointExtension/v1">
            <gpxtpx:hr>151</gpxtpx:hr>
          </gpxtpx:TrackPointExtension>
        </extensions>
      </trkpt>
      <trkpt lat="45.97808" lon="6.18712">
        <ele>738.2</ele>
        <time>2021-03-02T13:31:17Z</time>
        <extensions>
          <gpxtpx:TrackPointExtension xmlns:gpxtpx="http://www.garmin.com/xmlschemas/TrackPointExtension/v1">
            <gpxtpx:hr>151</gpxtpx:hr>
          </gpxtpx:TrackPointExtension>
        </extensions>
      </trkpt>
      <trkpt lat="45.97811" lon="6.1871">
        <ele>738.3</ele>
        <time>2021-03-02T13:31:18Z</time>
        <extensions>
          <gpxtpx:TrackPointExtension xmlns:gpxtpx="http://www.garmin.com/xmlschemas/TrackPointExtension/v1">
            <gpxtpx:hr>151</gpxtpx:hr>
          </gpxtpx:TrackPointExtension>
        </extensions>
      </trkpt>
      <trkpt lat="45.97814" lon="6.18709">
        <ele>738.6</ele>
        <time>2021-03-02T13:31:19Z</time>
        <extensions>
          <gpxtpx:TrackPointExtension xmlns:gpxtpx="http://www.garmin.com/xmlschemas/TrackPointExtension/v1">
            <gpxtpx:hr>150</gpxtpx:hr>
          </gpxtpx:TrackPointExtension>
        </extensions>
      </trkpt>
      <trkpt lat="45.97818" lon="6.18708">
        <ele>738.8</ele>
        <time>2021-03-02T13:31:20Z</time>
        <extensions>
          <gpxtpx:TrackPointExtension xmlns:gpxtpx="http://www.garmin.com/xmlschemas/TrackPointExtension/v1">
            <gpxtpx:hr>150</gpxtpx:hr>
          </gpxtpx:TrackPointExtension>
        </extensions>
      </trkpt>
      <trkpt lat="45.97821" lon="6.18708">
        <ele>739</ele>
        <time>2021-03-02T13:31:21Z</time>
        <extensions>
          <gpxtpx:TrackPointExtension xmlns:gpxtpx="http://www.garmin.com/xmlschemas/TrackPointExtension/v1">
            <gpxtpx:hr>150</gpxtpx:hr>
          </gpxtpx:TrackPointExtension>
        </extensions>
      </trkpt>
      <trkpt lat="45.97824" lon="6.18708">
        <ele>739.3</ele>
        <time>2021-03-02T13:31:22Z</time>
        <extensions>
          <gpxtpx:TrackPointExtension xmlns:gpxtpx="http://www.garmin.com/xmlschemas/TrackPointExtension/v1">
            <gpxtpx:hr>150</gpxtpx:hr>
          </gpxtpx:TrackPointExtension>
        </extensions>
      </trkpt>
      <trkpt lat="45.97827" lon="6.18708">
        <ele>739.5</ele>
        <time>2021-03-02T13:31:23Z</time>
        <extensions>
          <gpxtpx:TrackPointExtension xmlns:gpxtpx="http://www.garmin.com/xmlschemas/TrackPointExtension/v1">
            <gpxtpx:hr>149</gpxtpx:hr>
          </gpxtpx:TrackPointExtension>
        </extensions>
      </trkpt>
      <trkpt lat="45.9783" lon="6.18707">
        <ele>739.8</ele>
        <time>2021-03-02T13:31:24Z</time>
        <extensions>
          <gpxtpx:TrackPointExtension xmlns:gpxtpx="http://www.garmin.com/xmlschemas/TrackPointExtension/v1">
            <gpxtpx:hr>149</gpxtpx:hr>
          </gpxtpx:TrackPointExtension>
        </extensions>
      </trkpt>
      <trkpt lat="45.97833" lon="6.18708">
        <ele>740</ele>
        <time>2021-03-02T13:31:25Z</time>
        <extensions>
          <gpxtpx:TrackPointExtension xmlns:gpxtpx="http://www.garmin.com/xmlschemas/TrackPointExtension/v1">
            <gpxtpx:hr>149</gpxtpx:hr>
          </gpxtpx:TrackPointExtension>
        </extensions>
      </trkpt>
      <trkpt lat="45.97836" lon="6.18708">
        <ele>740.3</ele>
        <time>2021-03-02T13:31:26Z</time>
        <extensions>
          <gpxtpx:TrackPointExtension xmlns:gpxtpx="http://www.garmin.com/xmlschemas/TrackPointExtension/v1">
            <gpxtpx:hr>149</gpxtpx:hr>
          </gpxtpx:TrackPointExtension>
        </extensions>
      </trkpt>
      <trkpt lat="45.97838" lon="6.18709">
        <ele>740.5</ele>
        <time>2021-03-02T13:31:27Z</time>
        <extensions>
          <gpxtpx:TrackPointExtension xmlns:gpxtpx="http://www.garmin.com/xmlschemas/TrackPointExtension/v1">
            <gpxtpx:hr>149</gpxtpx:hr>
          </gpxtpx:TrackPointExtension>
        </extensions>
      </trkpt>
      <trkpt lat="45.97841" lon="6.1871">
        <ele>740.8</ele>
        <time>2021-03-02T13:31:28Z</time>
        <extensions>
          <gpxtpx:TrackPointExtension xmlns:gpxtpx="http://www.garmin.com/xmlschemas/TrackPointExtension/v1">
            <gpxtpx:hr>148</gpxtpx:hr>
          </gpxtpx:TrackPointExtension>
        </extensions>
      </trkpt>
      <trkpt lat="45.97844" lon="6.18711">
        <ele>741</ele>
        <time>2021-03-02T13:31:29Z</time>
        <extensions>
          <gpxtpx:TrackPointExtension xmlns:gpxtpx="http://www.garmin.com/xmlschemas/TrackPointExtension/v1">
            <gpxtpx:hr>148</gpxtpx:hr>
          </gpxtpx:TrackPointExtension>
        </extensions>
      </trkpt>
      <trkpt lat="45.97847" lon="6.18712">
        <ele>741.3</ele>
        <time>2021-03-02T13:31:30Z</time>
        <extensions>
          <gpxtpx:TrackPointExtension xmlns:gpxtpx="http://www.garmin.com/xmlschemas/TrackPointExtension/v1">
            <gpxtpx:hr>148</gpxtpx:hr>
          </gpxtpx:TrackPointExtension>
        </extensions>
      </trkpt>
      <trkpt lat="45.97849" lon="6.18713">
        <ele>741.5</ele>
        <time>2021-03-02T13:31:31Z</time>
        <extensions>
          <gpxtpx:TrackPointExtension xmlns:gpxtpx="http://www.garmin.com/xmlschemas/TrackPointExtension/v1">
            <gpxtpx:hr>148</gpxtpx:hr>
          </gpxtpx:TrackPointExtension>
        </extensions>
      </trkpt>
      <trkpt lat="45.97851" lon="6.18715">
        <ele>741.7</ele>
        <time>2021-03-02T13:31:32Z</time>
        <extensions>
          <gpxtpx:TrackPointExtension xmlns:gpxtpx="http://www.garmin.com/xmlschemas/TrackPointExtension/v1">
            <gpxtpx:hr>148</gpxtpx:hr>
          </gpxtpx:TrackPointExtension>
        </extensions>
      </trkpt>
      <trkpt lat="45.97854" lon="6.18716">
        <ele>742</ele>
        <time>2021-03-02T13:31:33Z</time>
        <extensions>
          <gpxtpx:TrackPointExtension xmlns:gpxtpx="http://www.garmin.com/xmlschemas/TrackPointExtension/v1">
            <gpxtpx:hr>148</gpxtpx:hr>
          </gpxtpx:TrackPointExtension>
        </extensions>
      </trkpt>
      <trkpt lat="45.97857" lon="6.18718">
        <ele>742.2</ele>
        <time>2021-03-02T13:31:34Z</time>
        <extensions>
          <gpxtpx:TrackPointExtension xmlns:gpxtpx="http://www.garmin.com/xmlschemas/TrackPointExtension/v1">
            <gpxtpx:hr>148</gpxtpx:hr>
          </gpxtpx:TrackPointExtension>
        </extensions>
      </trkpt>
      <trkpt lat="45.97859" lon="6.18719">
        <ele>742.4</ele>
        <time>2021-03-02T13:31:35Z</time>
        <extensions>
          <gpxtpx:TrackPointExtension xmlns:gpxtpx="http://www.garmin.com/xmlschemas/TrackPointExtension/v1">
            <gpxtpx:hr>147</gpxtpx:hr>
          </gpxtpx:TrackPointExtension>
        </extensions>
      </trkpt>
      <trkpt lat="45.97862" lon="6.18721">
        <ele>742.7</ele>
        <time>2021-03-02T13:31:36Z</time>
        <extensions>
          <gpxtpx:TrackPointExtension xmlns:gpxtpx="http://www.garmin.com/xmlschemas/TrackPointExtension/v1">
            <gpxtpx:hr>147</gpxtpx:hr>
          </gpxtpx:TrackPointExtension>
        </extensions>
      </trkpt>
      <trkpt lat="45.97864" lon="6.18722">
        <ele>742.9</ele>
        <time>2021-03-02T13:31:37Z</time>
        <extensions>
          <gpxtpx:TrackPointExtension xmlns:gpxtpx="http://www.garmin.com/xmlschemas/TrackPointExtension/v1">
            <gpxtpx:hr>147</gpxtpx:hr>
          </gpxtpx:TrackPointExtension>
        </extensions>
      </trkpt>
      <trkpt lat="45.97867" lon="6.18724">
        <ele>743.2</ele>
        <time>2021-03-02T13:31:38Z</time>
        <extensions>
          <gpxtpx:TrackPointExtension xmlns:gpxtpx="http://www.garmin.com/xmlschemas/TrackPointExtension/v1">
            <gpxtpx:hr>147</gpxtpx:hr>
          </gpxtpx:TrackPointExtension>
        </extensions>
      </trkpt>
      <trkpt lat="45.97869" lon="6.18726">
        <ele>743.4</ele>
        <time>2021-03-02T13:31:39Z</time>
        <extensions>
          <gpxtpx:TrackPointExtension xmlns:gpxtpx="http://www.garmin.com/xmlschemas/TrackPointExtension/v1">
            <gpxtpx:hr>148</gpxtpx:hr>
          </gpxtpx:TrackPointExtension>
        </extensions>
      </trkpt>
      <trkpt lat="45.97872" lon="6.18728">
        <ele>743.6</ele>
        <time>2021-03-02T13:31:40Z</time>
        <extensions>
          <gpxtpx:TrackPointExtension xmlns:gpxtpx="http://www.garmin.com/xmlschemas/TrackPointExtension/v1">
            <gpxtpx:hr>148</gpxtpx:hr>
          </gpxtpx:TrackPointExtension>
        </extensions>
      </trkpt>
      <trkpt lat="45.97875" lon="6.1873">
        <ele>743.9</ele>
        <time>2021-03-02T13:31:41Z</time>
        <extensions>
          <gpxtpx:TrackPointExtension xmlns:gpxtpx="http://www.garmin.com/xmlschemas/TrackPointExtension/v1">
            <gpxtpx:hr>148</gpxtpx:hr>
          </gpxtpx:TrackPointExtension>
        </extensions>
      </trkpt>
      <trkpt lat="45.97877" lon="6.18732">
        <ele>744.1</ele>
        <time>2021-03-02T13:31:42Z</time>
        <extensions>
          <gpxtpx:TrackPointExtension xmlns:gpxtpx="http://www.garmin.com/xmlschemas/TrackPointExtension/v1">
            <gpxtpx:hr>148</gpxtpx:hr>
          </gpxtpx:TrackPointExtension>
        </extensions>
      </trkpt>
      <trkpt lat="45.9788" lon="6.18734">
        <ele>744.4</ele>
        <time>2021-03-02T13:31:43Z</time>
        <extensions>
          <gpxtpx:TrackPointExtension xmlns:gpxtpx="http://www.garmin.com/xmlschemas/TrackPointExtension/v1">
            <gpxtpx:hr>148</gpxtpx:hr>
          </gpxtpx:TrackPointExtension>
        </extensions>
      </trkpt>
      <trkpt lat="45.97882" lon="6.18736">
        <ele>744.6</ele>
        <time>2021-03-02T13:31:44Z</time>
        <extensions>
          <gpxtpx:TrackPointExtension xmlns:gpxtpx="http://www.garmin.com/xmlschemas/TrackPointExtension/v1">
            <gpxtpx:hr>148</gpxtpx:hr>
          </gpxtpx:TrackPointExtension>
        </extensions>
      </trkpt>
      <trkpt lat="45.97885" lon="6.18738">
        <ele>744.8</ele>
        <time>2021-03-02T13:31:45Z</time>
        <extensions>
          <gpxtpx:TrackPointExtension xmlns:gpxtpx="http://www.garmin.com/xmlschemas/TrackPointExtension/v1">
            <gpxtpx:hr>148</gpxtpx:hr>
          </gpxtpx:TrackPointExtension>
        </extensions>
      </trkpt>
      <trkpt lat="45.97887" lon="6.1874">
        <ele>745</ele>
        <time>2021-03-02T13:31:46Z</time>
        <extensions>
          <gpxtpx:TrackPointExtension xmlns:gpxtpx="http://www.garmin.com/xmlschemas/TrackPointExtension/v1">
            <gpxtpx:hr>148</gpxtpx:hr>
          </gpxtpx:TrackPointExtension>
        </extensions>
      </trkpt>
      <trkpt lat="45.9789" lon="6.18742">
        <ele>745.2</ele>
        <time>2021-03-02T13:31:47Z</time>
        <extensions>
          <gpxtpx:TrackPointExtension xmlns:gpxtpx="http://www.garmin.com/xmlschemas/TrackPointExtension/v1">
            <gpxtpx:hr>148</gpxtpx:hr>
          </gpxtpx:TrackPointExtension>
        </extensions>
      </trkpt>
      <trkpt lat="45.97892" lon="6.18744">
        <ele>745.5</ele>
        <time>2021-03-02T13:31:48Z</time>
        <extensions>
          <gpxtpx:TrackPointExtension xmlns:gpxtpx="http://www.garmin.com/xmlschemas/TrackPointExtension/v1">
            <gpxtpx:hr>148</gpxtpx:hr>
          </gpxtpx:TrackPointExtension>
        </extensions>
      </trkpt>
      <trkpt lat="45.97895" lon="6.18746">
        <ele>745.7</ele>
        <time>2021-03-02T13:31:49Z</time>
        <extensions>
          <gpxtpx:TrackPointExtension xmlns:gpxtpx="http://www.garmin.com/xmlschemas/TrackPointExtension/v1">
            <gpxtpx:hr>148</gpxtpx:hr>
          </gpxtpx:TrackPointExtension>
        </extensions>
      </trkpt>
      <trkpt lat="45.97897" lon="6.18749">
        <ele>745.9</ele>
        <time>2021-03-02T13:31:50Z</time>
        <extensions>
          <gpxtpx:TrackPointExtension xmlns:gpxtpx="http://www.garmin.com/xmlschemas/TrackPointExtension/v1">
            <gpxtpx:hr>148</gpxtpx:hr>
          </gpxtpx:TrackPointExtension>
        </extensions>
      </trkpt>
      <trkpt lat="45.97899" lon="6.18751">
        <ele>746.1</ele>
        <time>2021-03-02T13:31:51Z</time>
        <extensions>
          <gpxtpx:TrackPointExtension xmlns:gpxtpx="http://www.garmin.com/xmlschemas/TrackPointExtension/v1">
            <gpxtpx:hr>148</gpxtpx:hr>
          </gpxtpx:TrackPointExtension>
        </extensions>
      </trkpt>
      <trkpt lat="45.97902" lon="6.18753">
        <ele>746.3</ele>
        <time>2021-03-02T13:31:52Z</time>
        <extensions>
          <gpxtpx:TrackPointExtension xmlns:gpxtpx="http://www.garmin.com/xmlschemas/TrackPointExtension/v1">
            <gpxtpx:hr>148</gpxtpx:hr>
          </gpxtpx:TrackPointExtension>
        </extensions>
      </trkpt>
      <trkpt lat="45.97904" lon="6.18755">
        <ele>746.6</ele>
        <time>2021-03-02T13:31:53Z</time>
        <extensions>
          <gpxtpx:TrackPointExtension xmlns:gpxtpx="http://www.garmin.com/xmlschemas/TrackPointExtension/v1">
            <gpxtpx:hr>148</gpxtpx:hr>
          </gpxtpx:TrackPointExtension>
        </extensions>
      </trkpt>
      <trkpt lat="45.97906" lon="6.18757">
        <ele>746.8</ele>
        <time>2021-03-02T13:31:54Z</time>
        <extensions>
          <gpxtpx:TrackPointExtension xmlns:gpxtpx="http://www.garmin.com/xmlschemas/TrackPointExtension/v1">
            <gpxtpx:hr>148</gpxtpx:hr>
          </gpxtpx:TrackPointExtension>
        </extensions>
      </trkpt>
      <trkpt lat="45.97909" lon="6.18759">
        <ele>747.1</ele>
        <time>2021-03-02T13:31:55Z</time>
        <extensions>
          <gpxtpx:TrackPointExtension xmlns:gpxtpx="http://www.garmin.com/xmlschemas/TrackPointExtension/v1">
            <gpxtpx:hr>148</gpxtpx:hr>
          </gpxtpx:TrackPointExtension>
        </extensions>
      </trkpt>
      <trkpt lat="45.97911" lon="6.18761">
        <ele>747.3</ele>
        <time>2021-03-02T13:31:56Z</time>
        <extensions>
          <gpxtpx:TrackPointExtension xmlns:gpxtpx="http://www.garmin.com/xmlschemas/TrackPointExtension/v1">
            <gpxtpx:hr>148</gpxtpx:hr>
          </gpxtpx:TrackPointExtension>
        </extensions>
      </trkpt>
      <trkpt lat="45.97913" lon="6.18763">
        <ele>747.6</ele>
        <time>2021-03-02T13:31:57Z</time>
        <extensions>
          <gpxtpx:TrackPointExtension xmlns:gpxtpx="http://www.garmin.com/xmlschemas/TrackPointExtension/v1">
            <gpxtpx:hr>148</gpxtpx:hr>
          </gpxtpx:TrackPointExtension>
        </extensions>
      </trkpt>
      <trkpt lat="45.97916" lon="6.18765">
        <ele>747.9</ele>
        <time>2021-03-02T13:31:58Z</time>
        <extensions>
          <gpxtpx:TrackPointExtension xmlns:gpxtpx="http://www.garmin.com/xmlschemas/TrackPointExtension/v1">
            <gpxtpx:hr>148</gpxtpx:hr>
          </gpxtpx:TrackPointExtension>
        </extensions>
      </trkpt>
      <trkpt lat="45.97918" lon="6.18767">
        <ele>748.1</ele>
        <time>2021-03-02T13:31:59Z</time>
        <extensions>
          <gpxtpx:TrackPointExtension xmlns:gpxtpx="http://www.garmin.com/xmlschemas/TrackPointExtension/v1">
            <gpxtpx:hr>148</gpxtpx:hr>
          </gpxtpx:TrackPointExtension>
        </extensions>
      </trkpt>
      <trkpt lat="45.9792" lon="6.18769">
        <ele>748.4</ele>
        <time>2021-03-02T13:32:00Z</time>
        <extensions>
          <gpxtpx:TrackPointExtension xmlns:gpxtpx="http://www.garmin.com/xmlschemas/TrackPointExtension/v1">
            <gpxtpx:hr>148</gpxtpx:hr>
          </gpxtpx:TrackPointExtension>
        </extensions>
      </trkpt>
      <trkpt lat="45.97922" lon="6.18771">
        <ele>748.7</ele>
        <time>2021-03-02T13:32:01Z</time>
        <extensions>
          <gpxtpx:TrackPointExtension xmlns:gpxtpx="http://www.garmin.com/xmlschemas/TrackPointExtension/v1">
            <gpxtpx:hr>148</gpxtpx:hr>
          </gpxtpx:TrackPointExtension>
        </extensions>
      </trkpt>
      <trkpt lat="45.97924" lon="6.18773">
        <ele>749</ele>
        <time>2021-03-02T13:32:02Z</time>
        <extensions>
          <gpxtpx:TrackPointExtension xmlns:gpxtpx="http://www.garmin.com/xmlschemas/TrackPointExtension/v1">
            <gpxtpx:hr>148</gpxtpx:hr>
          </gpxtpx:TrackPointExtension>
        </extensions>
      </trkpt>
      <trkpt lat="45.97927" lon="6.18776">
        <ele>749.3</ele>
        <time>2021-03-02T13:32:03Z</time>
        <extensions>
          <gpxtpx:TrackPointExtension xmlns:gpxtpx="http://www.garmin.com/xmlschemas/TrackPointExtension/v1">
            <gpxtpx:hr>147</gpxtpx:hr>
          </gpxtpx:TrackPointExtension>
        </extensions>
      </trkpt>
      <trkpt lat="45.97929" lon="6.18778">
        <ele>749.5</ele>
        <time>2021-03-02T13:32:04Z</time>
        <extensions>
          <gpxtpx:TrackPointExtension xmlns:gpxtpx="http://www.garmin.com/xmlschemas/TrackPointExtension/v1">
            <gpxtpx:hr>147</gpxtpx:hr>
          </gpxtpx:TrackPointExtension>
        </extensions>
      </trkpt>
      <trkpt lat="45.97931" lon="6.1878">
        <ele>749.8</ele>
        <time>2021-03-02T13:32:05Z</time>
        <extensions>
          <gpxtpx:TrackPointExtension xmlns:gpxtpx="http://www.garmin.com/xmlschemas/TrackPointExtension/v1">
            <gpxtpx:hr>147</gpxtpx:hr>
          </gpxtpx:TrackPointExtension>
        </extensions>
      </trkpt>
      <trkpt lat="45.97933" lon="6.18782">
        <ele>750.1</ele>
        <time>2021-03-02T13:32:06Z</time>
        <extensions>
          <gpxtpx:TrackPointExtension xmlns:gpxtpx="http://www.garmin.com/xmlschemas/TrackPointExtension/v1">
            <gpxtpx:hr>147</gpxtpx:hr>
          </gpxtpx:TrackPointExtension>
        </extensions>
      </trkpt>
      <trkpt lat="45.97935" lon="6.18784">
        <ele>750.3</ele>
        <time>2021-03-02T13:32:07Z</time>
        <extensions>
          <gpxtpx:TrackPointExtension xmlns:gpxtpx="http://www.garmin.com/xmlschemas/TrackPointExtension/v1">
            <gpxtpx:hr>147</gpxtpx:hr>
          </gpxtpx:TrackPointExtension>
        </extensions>
      </trkpt>
      <trkpt lat="45.97937" lon="6.18786">
        <ele>750.6</ele>
        <time>2021-03-02T13:32:08Z</time>
        <extensions>
          <gpxtpx:TrackPointExtension xmlns:gpxtpx="http://www.garmin.com/xmlschemas/TrackPointExtension/v1">
            <gpxtpx:hr>147</gpxtpx:hr>
          </gpxtpx:TrackPointExtension>
        </extensions>
      </trkpt>
      <trkpt lat="45.9794" lon="6.18788">
        <ele>750.9</ele>
        <time>2021-03-02T13:32:09Z</time>
        <extensions>
          <gpxtpx:TrackPointExtension xmlns:gpxtpx="http://www.garmin.com/xmlschemas/TrackPointExtension/v1">
            <gpxtpx:hr>147</gpxtpx:hr>
          </gpxtpx:TrackPointExtension>
        </extensions>
      </trkpt>
      <trkpt lat="45.97942" lon="6.1879">
        <ele>751.1</ele>
        <time>2021-03-02T13:32:10Z</time>
        <extensions>
          <gpxtpx:TrackPointExtension xmlns:gpxtpx="http://www.garmin.com/xmlschemas/TrackPointExtension/v1">
            <gpxtpx:hr>148</gpxtpx:hr>
          </gpxtpx:TrackPointExtension>
        </extensions>
      </trkpt>
      <trkpt lat="45.97944" lon="6.18792">
        <ele>751.4</ele>
        <time>2021-03-02T13:32:11Z</time>
        <extensions>
          <gpxtpx:TrackPointExtension xmlns:gpxtpx="http://www.garmin.com/xmlschemas/TrackPointExtension/v1">
            <gpxtpx:hr>148</gpxtpx:hr>
          </gpxtpx:TrackPointExtension>
        </extensions>
      </trkpt>
      <trkpt lat="45.97946" lon="6.18795">
        <ele>751.6</ele>
        <time>2021-03-02T13:32:12Z</time>
        <extensions>
          <gpxtpx:TrackPointExtension xmlns:gpxtpx="http://www.garmin.com/xmlschemas/TrackPointExtension/v1">
            <gpxtpx:hr>149</gpxtpx:hr>
          </gpxtpx:TrackPointExtension>
        </extensions>
      </trkpt>
      <trkpt lat="45.97948" lon="6.18797">
        <ele>751.9</ele>
        <time>2021-03-02T13:32:13Z</time>
        <extensions>
          <gpxtpx:TrackPointExtension xmlns:gpxtpx="http://www.garmin.com/xmlschemas/TrackPointExtension/v1">
            <gpxtpx:hr>149</gpxtpx:hr>
          </gpxtpx:TrackPointExtension>
        </extensions>
      </trkpt>
      <trkpt lat="45.9795" lon="6.18799">
        <ele>752.2</ele>
        <time>2021-03-02T13:32:14Z</time>
        <extensions>
          <gpxtpx:TrackPointExtension xmlns:gpxtpx="http://www.garmin.com/xmlschemas/TrackPointExtension/v1">
            <gpxtpx:hr>149</gpxtpx:hr>
          </gpxtpx:TrackPointExtension>
        </extensions>
      </trkpt>
      <trkpt lat="45.97952" lon="6.18802">
        <ele>752.4</ele>
        <time>2021-03-02T13:32:15Z</time>
        <extensions>
          <gpxtpx:TrackPointExtension xmlns:gpxtpx="http://www.garmin.com/xmlschemas/TrackPointExtension/v1">
            <gpxtpx:hr>149</gpxtpx:hr>
          </gpxtpx:TrackPointExtension>
        </extensions>
      </trkpt>
      <trkpt lat="45.97954" lon="6.18804">
        <ele>752.7</ele>
        <time>2021-03-02T13:32:16Z</time>
        <extensions>
          <gpxtpx:TrackPointExtension xmlns:gpxtpx="http://www.garmin.com/xmlschemas/TrackPointExtension/v1">
            <gpxtpx:hr>149</gpxtpx:hr>
          </gpxtpx:TrackPointExtension>
        </extensions>
      </trkpt>
      <trkpt lat="45.97956" lon="6.18806">
        <ele>752.9</ele>
        <time>2021-03-02T13:32:17Z</time>
        <extensions>
          <gpxtpx:TrackPointExtension xmlns:gpxtpx="http://www.garmin.com/xmlschemas/TrackPointExtension/v1">
            <gpxtpx:hr>149</gpxtpx:hr>
          </gpxtpx:TrackPointExtension>
        </extensions>
      </trkpt>
      <trkpt lat="45.97958" lon="6.18809">
        <ele>753.2</ele>
        <time>2021-03-02T13:32:18Z</time>
        <extensions>
          <gpxtpx:TrackPointExtension xmlns:gpxtpx="http://www.garmin.com/xmlschemas/TrackPointExtension/v1">
            <gpxtpx:hr>149</gpxtpx:hr>
          </gpxtpx:TrackPointExtension>
        </extensions>
      </trkpt>
      <trkpt lat="45.9796" lon="6.18811">
        <ele>753.4</ele>
        <time>2021-03-02T13:32:19Z</time>
        <extensions>
          <gpxtpx:TrackPointExtension xmlns:gpxtpx="http://www.garmin.com/xmlschemas/TrackPointExtension/v1">
            <gpxtpx:hr>149</gpxtpx:hr>
          </gpxtpx:TrackPointExtension>
        </extensions>
      </trkpt>
      <trkpt lat="45.97962" lon="6.18814">
        <ele>753.7</ele>
        <time>2021-03-02T13:32:20Z</time>
        <extensions>
          <gpxtpx:TrackPointExtension xmlns:gpxtpx="http://www.garmin.com/xmlschemas/TrackPointExtension/v1">
            <gpxtpx:hr>149</gpxtpx:hr>
          </gpxtpx:TrackPointExtension>
        </extensions>
      </trkpt>
      <trkpt lat="45.97963" lon="6.18816">
        <ele>754</ele>
        <time>2021-03-02T13:32:21Z</time>
        <extensions>
          <gpxtpx:TrackPointExtension xmlns:gpxtpx="http://www.garmin.com/xmlschemas/TrackPointExtension/v1">
            <gpxtpx:hr>149</gpxtpx:hr>
          </gpxtpx:TrackPointExtension>
        </extensions>
      </trkpt>
      <trkpt lat="45.97965" lon="6.18819">
        <ele>754.3</ele>
        <time>2021-03-02T13:32:22Z</time>
        <extensions>
          <gpxtpx:TrackPointExtension xmlns:gpxtpx="http://www.garmin.com/xmlschemas/TrackPointExtension/v1">
            <gpxtpx:hr>149</gpxtpx:hr>
          </gpxtpx:TrackPointExtension>
        </extensions>
      </trkpt>
      <trkpt lat="45.97967" lon="6.18822">
        <ele>754.5</ele>
        <time>2021-03-02T13:32:23Z</time>
        <extensions>
          <gpxtpx:TrackPointExtension xmlns:gpxtpx="http://www.garmin.com/xmlschemas/TrackPointExtension/v1">
            <gpxtpx:hr>149</gpxtpx:hr>
          </gpxtpx:TrackPointExtension>
        </extensions>
      </trkpt>
      <trkpt lat="45.97969" lon="6.18824">
        <ele>754.8</ele>
        <time>2021-03-02T13:32:24Z</time>
        <extensions>
          <gpxtpx:TrackPointExtension xmlns:gpxtpx="http://www.garmin.com/xmlschemas/TrackPointExtension/v1">
            <gpxtpx:hr>149</gpxtpx:hr>
          </gpxtpx:TrackPointExtension>
        </extensions>
      </trkpt>
      <trkpt lat="45.97971" lon="6.18827">
        <ele>755.1</ele>
        <time>2021-03-02T13:32:25Z</time>
        <extensions>
          <gpxtpx:TrackPointExtension xmlns:gpxtpx="http://www.garmin.com/xmlschemas/TrackPointExtension/v1">
            <gpxtpx:hr>149</gpxtpx:hr>
          </gpxtpx:TrackPointExtension>
        </extensions>
      </trkpt>
      <trkpt lat="45.97973" lon="6.1883">
        <ele>755.4</ele>
        <time>2021-03-02T13:32:26Z</time>
        <extensions>
          <gpxtpx:TrackPointExtension xmlns:gpxtpx="http://www.garmin.com/xmlschemas/TrackPointExtension/v1">
            <gpxtpx:hr>149</gpxtpx:hr>
          </gpxtpx:TrackPointExtension>
        </extensions>
      </trkpt>
      <trkpt lat="45.97975" lon="6.18832">
        <ele>755.6</ele>
        <time>2021-03-02T13:32:27Z</time>
        <extensions>
          <gpxtpx:TrackPointExtension xmlns:gpxtpx="http://www.garmin.com/xmlschemas/TrackPointExtension/v1">
            <gpxtpx:hr>150</gpxtpx:hr>
          </gpxtpx:TrackPointExtension>
        </extensions>
      </trkpt>
      <trkpt lat="45.97977" lon="6.18835">
        <ele>755.9</ele>
        <time>2021-03-02T13:32:28Z</time>
        <extensions>
          <gpxtpx:TrackPointExtension xmlns:gpxtpx="http://www.garmin.com/xmlschemas/TrackPointExtension/v1">
            <gpxtpx:hr>150</gpxtpx:hr>
          </gpxtpx:TrackPointExtension>
        </extensions>
      </trkpt>
      <trkpt lat="45.97979" lon="6.18838">
        <ele>756.1</ele>
        <time>2021-03-02T13:32:29Z</time>
        <extensions>
          <gpxtpx:TrackPointExtension xmlns:gpxtpx="http://www.garmin.com/xmlschemas/TrackPointExtension/v1">
            <gpxtpx:hr>150</gpxtpx:hr>
          </gpxtpx:TrackPointExtension>
        </extensions>
      </trkpt>
      <trkpt lat="45.97981" lon="6.18841">
        <ele>756.3</ele>
        <time>2021-03-02T13:32:30Z</time>
        <extensions>
          <gpxtpx:TrackPointExtension xmlns:gpxtpx="http://www.garmin.com/xmlschemas/TrackPointExtension/v1">
            <gpxtpx:hr>150</gpxtpx:hr>
          </gpxtpx:TrackPointExtension>
        </extensions>
      </trkpt>
      <trkpt lat="45.97983" lon="6.18844">
        <ele>756.5</ele>
        <time>2021-03-02T13:32:31Z</time>
        <extensions>
          <gpxtpx:TrackPointExtension xmlns:gpxtpx="http://www.garmin.com/xmlschemas/TrackPointExtension/v1">
            <gpxtpx:hr>150</gpxtpx:hr>
          </gpxtpx:TrackPointExtension>
        </extensions>
      </trkpt>
      <trkpt lat="45.97985" lon="6.18847">
        <ele>756.7</ele>
        <time>2021-03-02T13:32:32Z</time>
        <extensions>
          <gpxtpx:TrackPointExtension xmlns:gpxtpx="http://www.garmin.com/xmlschemas/TrackPointExtension/v1">
            <gpxtpx:hr>150</gpxtpx:hr>
          </gpxtpx:TrackPointExtension>
        </extensions>
      </trkpt>
      <trkpt lat="45.97987" lon="6.1885">
        <ele>756.9</ele>
        <time>2021-03-02T13:32:33Z</time>
        <extensions>
          <gpxtpx:TrackPointExtension xmlns:gpxtpx="http://www.garmin.com/xmlschemas/TrackPointExtension/v1">
            <gpxtpx:hr>150</gpxtpx:hr>
          </gpxtpx:TrackPointExtension>
        </extensions>
      </trkpt>
      <trkpt lat="45.9799" lon="6.18853">
        <ele>757.1</ele>
        <time>2021-03-02T13:32:34Z</time>
        <extensions>
          <gpxtpx:TrackPointExtension xmlns:gpxtpx="http://www.garmin.com/xmlschemas/TrackPointExtension/v1">
            <gpxtpx:hr>150</gpxtpx:hr>
          </gpxtpx:TrackPointExtension>
        </extensions>
      </trkpt>
      <trkpt lat="45.97992" lon="6.18856">
        <ele>757.3</ele>
        <time>2021-03-02T13:32:35Z</time>
        <extensions>
          <gpxtpx:TrackPointExtension xmlns:gpxtpx="http://www.garmin.com/xmlschemas/TrackPointExtension/v1">
            <gpxtpx:hr>150</gpxtpx:hr>
          </gpxtpx:TrackPointExtension>
        </extensions>
      </trkpt>
      <trkpt lat="45.97994" lon="6.18859">
        <ele>757.5</ele>
        <time>2021-03-02T13:32:36Z</time>
        <extensions>
          <gpxtpx:TrackPointExtension xmlns:gpxtpx="http://www.garmin.com/xmlschemas/TrackPointExtension/v1">
            <gpxtpx:hr>150</gpxtpx:hr>
          </gpxtpx:TrackPointExtension>
        </extensions>
      </trkpt>
      <trkpt lat="45.97996" lon="6.18862">
        <ele>757.7</ele>
        <time>2021-03-02T13:32:37Z</time>
        <extensions>
          <gpxtpx:TrackPointExtension xmlns:gpxtpx="http://www.garmin.com/xmlschemas/TrackPointExtension/v1">
            <gpxtpx:hr>151</gpxtpx:hr>
          </gpxtpx:TrackPointExtension>
        </extensions>
      </trkpt>
      <trkpt lat="45.97998" lon="6.18865">
        <ele>757.9</ele>
        <time>2021-03-02T13:32:38Z</time>
        <extensions>
          <gpxtpx:TrackPointExtension xmlns:gpxtpx="http://www.garmin.com/xmlschemas/TrackPointExtension/v1">
            <gpxtpx:hr>151</gpxtpx:hr>
          </gpxtpx:TrackPointExtension>
        </extensions>
      </trkpt>
      <trkpt lat="45.98" lon="6.18868">
        <ele>758.1</ele>
        <time>2021-03-02T13:32:39Z</time>
        <extensions>
          <gpxtpx:TrackPointExtension xmlns:gpxtpx="http://www.garmin.com/xmlschemas/TrackPointExtension/v1">
            <gpxtpx:hr>151</gpxtpx:hr>
          </gpxtpx:TrackPointExtension>
        </extensions>
      </trkpt>
      <trkpt lat="45.98002" lon="6.18872">
        <ele>758.3</ele>
        <time>2021-03-02T13:32:40Z</time>
        <extensions>
          <gpxtpx:TrackPointExtension xmlns:gpxtpx="http://www.garmin.com/xmlschemas/TrackPointExtension/v1">
            <gpxtpx:hr>151</gpxtpx:hr>
          </gpxtpx:TrackPointExtension>
        </extensions>
      </trkpt>
      <trkpt lat="45.98004" lon="6.18875">
        <ele>758.5</ele>
        <time>2021-03-02T13:32:41Z</time>
        <extensions>
          <gpxtpx:TrackPointExtension xmlns:gpxtpx="http://www.garmin.com/xmlschemas/TrackPointExtension/v1">
            <gpxtpx:hr>151</gpxtpx:hr>
          </gpxtpx:TrackPointExtension>
        </extensions>
      </trkpt>
      <trkpt lat="45.98007" lon="6.18878">
        <ele>758.7</ele>
        <time>2021-03-02T13:32:42Z</time>
        <extensions>
          <gpxtpx:TrackPointExtension xmlns:gpxtpx="http://www.garmin.com/xmlschemas/TrackPointExtension/v1">
            <gpxtpx:hr>152</gpxtpx:hr>
          </gpxtpx:TrackPointExtension>
        </extensions>
      </trkpt>
      <trkpt lat="45.98009" lon="6.18881">
        <ele>758.8</ele>
        <time>2021-03-02T13:32:43Z</time>
        <extensions>
          <gpxtpx:TrackPointExtension xmlns:gpxtpx="http://www.garmin.com/xmlschemas/TrackPointExtension/v1">
            <gpxtpx:hr>152</gpxtpx:hr>
          </gpxtpx:TrackPointExtension>
        </extensions>
      </trkpt>
      <trkpt lat="45.98011" lon="6.18885">
        <ele>759</ele>
        <time>2021-03-02T13:32:44Z</time>
        <extensions>
          <gpxtpx:TrackPointExtension xmlns:gpxtpx="http://www.garmin.com/xmlschemas/TrackPointExtension/v1">
            <gpxtpx:hr>152</gpxtpx:hr>
          </gpxtpx:TrackPointExtension>
        </extensions>
      </trkpt>
      <trkpt lat="45.98013" lon="6.18888">
        <ele>759.1</ele>
        <time>2021-03-02T13:32:45Z</time>
        <extensions>
          <gpxtpx:TrackPointExtension xmlns:gpxtpx="http://www.garmin.com/xmlschemas/TrackPointExtension/v1">
            <gpxtpx:hr>152</gpxtpx:hr>
          </gpxtpx:TrackPointExtension>
        </extensions>
      </trkpt>
      <trkpt lat="45.98015" lon="6.18891">
        <ele>759.2</ele>
        <time>2021-03-02T13:32:46Z</time>
        <extensions>
          <gpxtpx:TrackPointExtension xmlns:gpxtpx="http://www.garmin.com/xmlschemas/TrackPointExtension/v1">
            <gpxtpx:hr>152</gpxtpx:hr>
          </gpxtpx:TrackPointExtension>
        </extensions>
      </trkpt>
      <trkpt lat="45.98018" lon="6.18895">
        <ele>759.4</ele>
        <time>2021-03-02T13:32:47Z</time>
        <extensions>
          <gpxtpx:TrackPointExtension xmlns:gpxtpx="http://www.garmin.com/xmlschemas/TrackPointExtension/v1">
            <gpxtpx:hr>152</gpxtpx:hr>
          </gpxtpx:TrackPointExtension>
        </extensions>
      </trkpt>
      <trkpt lat="45.9802" lon="6.18899">
        <ele>759.5</ele>
        <time>2021-03-02T13:32:48Z</time>
        <extensions>
          <gpxtpx:TrackPointExtension xmlns:gpxtpx="http://www.garmin.com/xmlschemas/TrackPointExtension/v1">
            <gpxtpx:hr>152</gpxtpx:hr>
          </gpxtpx:TrackPointExtension>
        </extensions>
      </trkpt>
      <trkpt lat="45.98022" lon="6.18903">
        <ele>759.6</ele>
        <time>2021-03-02T13:32:49Z</time>
        <extensions>
          <gpxtpx:TrackPointExtension xmlns:gpxtpx="http://www.garmin.com/xmlschemas/TrackPointExtension/v1">
            <gpxtpx:hr>153</gpxtpx:hr>
          </gpxtpx:TrackPointExtension>
        </extensions>
      </trkpt>
      <trkpt lat="45.98024" lon="6.18907">
        <ele>759.7</ele>
        <time>2021-03-02T13:32:50Z</time>
        <extensions>
          <gpxtpx:TrackPointExtension xmlns:gpxtpx="http://www.garmin.com/xmlschemas/TrackPointExtension/v1">
            <gpxtpx:hr>153</gpxtpx:hr>
          </gpxtpx:TrackPointExtension>
        </extensions>
      </trkpt>
      <trkpt lat="45.98026" lon="6.18911">
        <ele>759.8</ele>
        <time>2021-03-02T13:32:51Z</time>
        <extensions>
          <gpxtpx:TrackPointExtension xmlns:gpxtpx="http://www.garmin.com/xmlschemas/TrackPointExtension/v1">
            <gpxtpx:hr>153</gpxtpx:hr>
          </gpxtpx:TrackPointExtension>
        </extensions>
      </trkpt>
      <trkpt lat="45.98029" lon="6.18915">
        <ele>759.9</ele>
        <time>2021-03-02T13:32:52Z</time>
        <extensions>
          <gpxtpx:TrackPointExtension xmlns:gpxtpx="http://www.garmin.com/xmlschemas/TrackPointExtension/v1">
            <gpxtpx:hr>153</gpxtpx:hr>
          </gpxtpx:TrackPointExtension>
        </extensions>
      </trkpt>
      <trkpt lat="45.98031" lon="6.18919">
        <ele>759.9</ele>
        <time>2021-03-02T13:32:53Z</time>
        <extensions>
          <gpxtpx:TrackPointExtension xmlns:gpxtpx="http://www.garmin.com/xmlschemas/TrackPointExtension/v1">
            <gpxtpx:hr>153</gpxtpx:hr>
          </gpxtpx:TrackPointExtension>
        </extensions>
      </trkpt>
      <trkpt lat="45.98033" lon="6.18924">
        <ele>760</ele>
        <time>2021-03-02T13:32:54Z</time>
        <extensions>
          <gpxtpx:TrackPointExtension xmlns:gpxtpx="http://www.garmin.com/xmlschemas/TrackPointExtension/v1">
            <gpxtpx:hr>152</gpxtpx:hr>
          </gpxtpx:TrackPointExtension>
        </extensions>
      </trkpt>
      <trkpt lat="45.98035" lon="6.18928">
        <ele>760.1</ele>
        <time>2021-03-02T13:32:55Z</time>
        <extensions>
          <gpxtpx:TrackPointExtension xmlns:gpxtpx="http://www.garmin.com/xmlschemas/TrackPointExtension/v1">
            <gpxtpx:hr>152</gpxtpx:hr>
          </gpxtpx:TrackPointExtension>
        </extensions>
      </trkpt>
      <trkpt lat="45.98037" lon="6.18932">
        <ele>760.1</ele>
        <time>2021-03-02T13:32:56Z</time>
        <extensions>
          <gpxtpx:TrackPointExtension xmlns:gpxtpx="http://www.garmin.com/xmlschemas/TrackPointExtension/v1">
            <gpxtpx:hr>152</gpxtpx:hr>
          </gpxtpx:TrackPointExtension>
        </extensions>
      </trkpt>
      <trkpt lat="45.98039" lon="6.18937">
        <ele>760.2</ele>
        <time>2021-03-02T13:32:57Z</time>
        <extensions>
          <gpxtpx:TrackPointExtension xmlns:gpxtpx="http://www.garmin.com/xmlschemas/TrackPointExtension/v1">
            <gpxtpx:hr>152</gpxtpx:hr>
          </gpxtpx:TrackPointExtension>
        </extensions>
      </trkpt>
      <trkpt lat="45.98041" lon="6.18942">
        <ele>760.2</ele>
        <time>2021-03-02T13:32:58Z</time>
        <extensions>
          <gpxtpx:TrackPointExtension xmlns:gpxtpx="http://www.garmin.com/xmlschemas/TrackPointExtension/v1">
            <gpxtpx:hr>151</gpxtpx:hr>
          </gpxtpx:TrackPointExtension>
        </extensions>
      </trkpt>
      <trkpt lat="45.98043" lon="6.18947">
        <ele>760.3</ele>
        <time>2021-03-02T13:32:59Z</time>
        <extensions>
          <gpxtpx:TrackPointExtension xmlns:gpxtpx="http://www.garmin.com/xmlschemas/TrackPointExtension/v1">
            <gpxtpx:hr>151</gpxtpx:hr>
          </gpxtpx:TrackPointExtension>
        </extensions>
      </trkpt>
      <trkpt lat="45.98045" lon="6.18952">
        <ele>760.4</ele>
        <time>2021-03-02T13:33:00Z</time>
        <extensions>
          <gpxtpx:TrackPointExtension xmlns:gpxtpx="http://www.garmin.com/xmlschemas/TrackPointExtension/v1">
            <gpxtpx:hr>151</gpxtpx:hr>
          </gpxtpx:TrackPointExtension>
        </extensions>
      </trkpt>
      <trkpt lat="45.98047" lon="6.18957">
        <ele>760.4</ele>
        <time>2021-03-02T13:33:01Z</time>
        <extensions>
          <gpxtpx:TrackPointExtension xmlns:gpxtpx="http://www.garmin.com/xmlschemas/TrackPointExtension/v1">
            <gpxtpx:hr>151</gpxtpx:hr>
          </gpxtpx:TrackPointExtension>
        </extensions>
      </trkpt>
      <trkpt lat="45.98049" lon="6.18962">
        <ele>760.6</ele>
        <time>2021-03-02T13:33:02Z</time>
        <extensions>
          <gpxtpx:TrackPointExtension xmlns:gpxtpx="http://www.garmin.com/xmlschemas/TrackPointExtension/v1">
            <gpxtpx:hr>151</gpxtpx:hr>
          </gpxtpx:TrackPointExtension>
        </extensions>
      </trkpt>
      <trkpt lat="45.98051" lon="6.18967">
        <ele>760.7</ele>
        <time>2021-03-02T13:33:03Z</time>
        <extensions>
          <gpxtpx:TrackPointExtension xmlns:gpxtpx="http://www.garmin.com/xmlschemas/TrackPointExtension/v1">
            <gpxtpx:hr>151</gpxtpx:hr>
          </gpxtpx:TrackPointExtension>
        </extensions>
      </trkpt>
      <trkpt lat="45.98053" lon="6.18973">
        <ele>760.9</ele>
        <time>2021-03-02T13:33:04Z</time>
        <extensions>
          <gpxtpx:TrackPointExtension xmlns:gpxtpx="http://www.garmin.com/xmlschemas/TrackPointExtension/v1">
            <gpxtpx:hr>151</gpxtpx:hr>
          </gpxtpx:TrackPointExtension>
        </extensions>
      </trkpt>
      <trkpt lat="45.98055" lon="6.18978">
        <ele>761.1</ele>
        <time>2021-03-02T13:33:05Z</time>
        <extensions>
          <gpxtpx:TrackPointExtension xmlns:gpxtpx="http://www.garmin.com/xmlschemas/TrackPointExtension/v1">
            <gpxtpx:hr>151</gpxtpx:hr>
          </gpxtpx:TrackPointExtension>
        </extensions>
      </trkpt>
      <trkpt lat="45.98056" lon="6.18983">
        <ele>761.3</ele>
        <time>2021-03-02T13:33:06Z</time>
        <extensions>
          <gpxtpx:TrackPointExtension xmlns:gpxtpx="http://www.garmin.com/xmlschemas/TrackPointExtension/v1">
            <gpxtpx:hr>151</gpxtpx:hr>
          </gpxtpx:TrackPointExtension>
        </extensions>
      </trkpt>
      <trkpt lat="45.98058" lon="6.18988">
        <ele>761.5</ele>
        <time>2021-03-02T13:33:07Z</time>
        <extensions>
          <gpxtpx:TrackPointExtension xmlns:gpxtpx="http://www.garmin.com/xmlschemas/TrackPointExtension/v1">
            <gpxtpx:hr>151</gpxtpx:hr>
          </gpxtpx:TrackPointExtension>
        </extensions>
      </trkpt>
      <trkpt lat="45.98059" lon="6.18994">
        <ele>761.7</ele>
        <time>2021-03-02T13:33:08Z</time>
        <extensions>
          <gpxtpx:TrackPointExtension xmlns:gpxtpx="http://www.garmin.com/xmlschemas/TrackPointExtension/v1">
            <gpxtpx:hr>151</gpxtpx:hr>
          </gpxtpx:TrackPointExtension>
        </extensions>
      </trkpt>
      <trkpt lat="45.98061" lon="6.19">
        <ele>761.9</ele>
        <time>2021-03-02T13:33:09Z</time>
        <extensions>
          <gpxtpx:TrackPointExtension xmlns:gpxtpx="http://www.garmin.com/xmlschemas/TrackPointExtension/v1">
            <gpxtpx:hr>151</gpxtpx:hr>
          </gpxtpx:TrackPointExtension>
        </extensions>
      </trkpt>
      <trkpt lat="45.98062" lon="6.19005">
        <ele>762.1</ele>
        <time>2021-03-02T13:33:10Z</time>
        <extensions>
          <gpxtpx:TrackPointExtension xmlns:gpxtpx="http://www.garmin.com/xmlschemas/TrackPointExtension/v1">
            <gpxtpx:hr>151</gpxtpx:hr>
          </gpxtpx:TrackPointExtension>
        </extensions>
      </trkpt>
      <trkpt lat="45.98063" lon="6.19011">
        <ele>762.4</ele>
        <time>2021-03-02T13:33:11Z</time>
        <extensions>
          <gpxtpx:TrackPointExtension xmlns:gpxtpx="http://www.garmin.com/xmlschemas/TrackPointExtension/v1">
            <gpxtpx:hr>151</gpxtpx:hr>
          </gpxtpx:TrackPointExtension>
        </extensions>
      </trkpt>
      <trkpt lat="45.98065" lon="6.19016">
        <ele>762.6</ele>
        <time>2021-03-02T13:33:12Z</time>
        <extensions>
          <gpxtpx:TrackPointExtension xmlns:gpxtpx="http://www.garmin.com/xmlschemas/TrackPointExtension/v1">
            <gpxtpx:hr>151</gpxtpx:hr>
          </gpxtpx:TrackPointExtension>
        </extensions>
      </trkpt>
      <trkpt lat="45.98066" lon="6.19021">
        <ele>762.9</ele>
        <time>2021-03-02T13:33:13Z</time>
        <extensions>
          <gpxtpx:TrackPointExtension xmlns:gpxtpx="http://www.garmin.com/xmlschemas/TrackPointExtension/v1">
            <gpxtpx:hr>151</gpxtpx:hr>
          </gpxtpx:TrackPointExtension>
        </extensions>
      </trkpt>
      <trkpt lat="45.98067" lon="6.19026">
        <ele>763.1</ele>
        <time>2021-03-02T13:33:14Z</time>
        <extensions>
          <gpxtpx:TrackPointExtension xmlns:gpxtpx="http://www.garmin.com/xmlschemas/TrackPointExtension/v1">
            <gpxtpx:hr>151</gpxtpx:hr>
          </gpxtpx:TrackPointExtension>
        </extensions>
      </trkpt>
      <trkpt lat="45.98069" lon="6.19031">
        <ele>763.4</ele>
        <time>2021-03-02T13:33:15Z</time>
        <extensions>
          <gpxtpx:TrackPointExtension xmlns:gpxtpx="http://www.garmin.com/xmlschemas/TrackPointExtension/v1">
            <gpxtpx:hr>151</gpxtpx:hr>
          </gpxtpx:TrackPointExtension>
        </extensions>
      </trkpt>
      <trkpt lat="45.98069" lon="6.19036">
        <ele>763.6</ele>
        <time>2021-03-02T13:33:16Z</time>
        <extensions>
          <gpxtpx:TrackPointExtension xmlns:gpxtpx="http://www.garmin.com/xmlschemas/TrackPointExtension/v1">
            <gpxtpx:hr>150</gpxtpx:hr>
          </gpxtpx:TrackPointExtension>
        </extensions>
      </trkpt>
      <trkpt lat="45.9807" lon="6.19042">
        <ele>763.9</ele>
        <time>2021-03-02T13:33:17Z</time>
        <extensions>
          <gpxtpx:TrackPointExtension xmlns:gpxtpx="http://www.garmin.com/xmlschemas/TrackPointExtension/v1">
            <gpxtpx:hr>150</gpxtpx:hr>
          </gpxtpx:TrackPointExtension>
        </extensions>
      </trkpt>
      <trkpt lat="45.98071" lon="6.19047">
        <ele>764.2</ele>
        <time>2021-03-02T13:33:18Z</time>
        <extensions>
          <gpxtpx:TrackPointExtension xmlns:gpxtpx="http://www.garmin.com/xmlschemas/TrackPointExtension/v1">
            <gpxtpx:hr>149</gpxtpx:hr>
          </gpxtpx:TrackPointExtension>
        </extensions>
      </trkpt>
      <trkpt lat="45.98072" lon="6.19052">
        <ele>764.4</ele>
        <time>2021-03-02T13:33:19Z</time>
        <extensions>
          <gpxtpx:TrackPointExtension xmlns:gpxtpx="http://www.garmin.com/xmlschemas/TrackPointExtension/v1">
            <gpxtpx:hr>149</gpxtpx:hr>
          </gpxtpx:TrackPointExtension>
        </extensions>
      </trkpt>
      <trkpt lat="45.98073" lon="6.19057">
        <ele>764.7</ele>
        <time>2021-03-02T13:33:20Z</time>
        <extensions>
          <gpxtpx:TrackPointExtension xmlns:gpxtpx="http://www.garmin.com/xmlschemas/TrackPointExtension/v1">
            <gpxtpx:hr>149</gpxtpx:hr>
          </gpxtpx:TrackPointExtension>
        </extensions>
      </trkpt>
      <trkpt lat="45.98074" lon="6.19062">
        <ele>765</ele>
        <time>2021-03-02T13:33:21Z</time>
        <extensions>
          <gpxtpx:TrackPointExtension xmlns:gpxtpx="http://www.garmin.com/xmlschemas/TrackPointExtension/v1">
            <gpxtpx:hr>148</gpxtpx:hr>
          </gpxtpx:TrackPointExtension>
        </extensions>
      </trkpt>
      <trkpt lat="45.98075" lon="6.19067">
        <ele>765.2</ele>
        <time>2021-03-02T13:33:22Z</time>
        <extensions>
          <gpxtpx:TrackPointExtension xmlns:gpxtpx="http://www.garmin.com/xmlschemas/TrackPointExtension/v1">
            <gpxtpx:hr>148</gpxtpx:hr>
          </gpxtpx:TrackPointExtension>
        </extensions>
      </trkpt>
      <trkpt lat="45.98076" lon="6.19072">
        <ele>765.5</ele>
        <time>2021-03-02T13:33:23Z</time>
        <extensions>
          <gpxtpx:TrackPointExtension xmlns:gpxtpx="http://www.garmin.com/xmlschemas/TrackPointExtension/v1">
            <gpxtpx:hr>148</gpxtpx:hr>
          </gpxtpx:TrackPointExtension>
        </extensions>
      </trkpt>
      <trkpt lat="45.98077" lon="6.19077">
        <ele>765.7</ele>
        <time>2021-03-02T13:33:24Z</time>
        <extensions>
          <gpxtpx:TrackPointExtension xmlns:gpxtpx="http://www.garmin.com/xmlschemas/TrackPointExtension/v1">
            <gpxtpx:hr>148</gpxtpx:hr>
          </gpxtpx:TrackPointExtension>
        </extensions>
      </trkpt>
      <trkpt lat="45.98077" lon="6.19082">
        <ele>766</ele>
        <time>2021-03-02T13:33:25Z</time>
        <extensions>
          <gpxtpx:TrackPointExtension xmlns:gpxtpx="http://www.garmin.com/xmlschemas/TrackPointExtension/v1">
            <gpxtpx:hr>147</gpxtpx:hr>
          </gpxtpx:TrackPointExtension>
        </extensions>
      </trkpt>
      <trkpt lat="45.98078" lon="6.19087">
        <ele>766.2</ele>
        <time>2021-03-02T13:33:26Z</time>
        <extensions>
          <gpxtpx:TrackPointExtension xmlns:gpxtpx="http://www.garmin.com/xmlschemas/TrackPointExtension/v1">
            <gpxtpx:hr>147</gpxtpx:hr>
          </gpxtpx:TrackPointExtension>
        </extensions>
      </trkpt>
      <trkpt lat="45.98079" lon="6.19092">
        <ele>766.4</ele>
        <time>2021-03-02T13:33:27Z</time>
        <extensions>
          <gpxtpx:TrackPointExtension xmlns:gpxtpx="http://www.garmin.com/xmlschemas/TrackPointExtension/v1">
            <gpxtpx:hr>147</gpxtpx:hr>
          </gpxtpx:TrackPointExtension>
        </extensions>
      </trkpt>
      <trkpt lat="45.9808" lon="6.19097">
        <ele>766.7</ele>
        <time>2021-03-02T13:33:28Z</time>
        <extensions>
          <gpxtpx:TrackPointExtension xmlns:gpxtpx="http://www.garmin.com/xmlschemas/TrackPointExtension/v1">
            <gpxtpx:hr>147</gpxtpx:hr>
          </gpxtpx:TrackPointExtension>
        </extensions>
      </trkpt>
      <trkpt lat="45.98081" lon="6.19102">
        <ele>766.9</ele>
        <time>2021-03-02T13:33:29Z</time>
        <extensions>
          <gpxtpx:TrackPointExtension xmlns:gpxtpx="http://www.garmin.com/xmlschemas/TrackPointExtension/v1">
            <gpxtpx:hr>147</gpxtpx:hr>
          </gpxtpx:TrackPointExtension>
        </extensions>
      </trkpt>
      <trkpt lat="45.98082" lon="6.19108">
        <ele>767.1</ele>
        <time>2021-03-02T13:33:30Z</time>
        <extensions>
          <gpxtpx:TrackPointExtension xmlns:gpxtpx="http://www.garmin.com/xmlschemas/TrackPointExtension/v1">
            <gpxtpx:hr>147</gpxtpx:hr>
          </gpxtpx:TrackPointExtension>
        </extensions>
      </trkpt>
      <trkpt lat="45.98083" lon="6.19113">
        <ele>767.3</ele>
        <time>2021-03-02T13:33:31Z</time>
        <extensions>
          <gpxtpx:TrackPointExtension xmlns:gpxtpx="http://www.garmin.com/xmlschemas/TrackPointExtension/v1">
            <gpxtpx:hr>146</gpxtpx:hr>
          </gpxtpx:TrackPointExtension>
        </extensions>
      </trkpt>
      <trkpt lat="45.98083" lon="6.19118">
        <ele>767.4</ele>
        <time>2021-03-02T13:33:32Z</time>
        <extensions>
          <gpxtpx:TrackPointExtension xmlns:gpxtpx="http://www.garmin.com/xmlschemas/TrackPointExtension/v1">
            <gpxtpx:hr>146</gpxtpx:hr>
          </gpxtpx:TrackPointExtension>
        </extensions>
      </trkpt>
      <trkpt lat="45.98084" lon="6.19123">
        <ele>767.6</ele>
        <time>2021-03-02T13:33:33Z</time>
        <extensions>
          <gpxtpx:TrackPointExtension xmlns:gpxtpx="http://www.garmin.com/xmlschemas/TrackPointExtension/v1">
            <gpxtpx:hr>146</gpxtpx:hr>
          </gpxtpx:TrackPointExtension>
        </extensions>
      </trkpt>
      <trkpt lat="45.98084" lon="6.19128">
        <ele>767.7</ele>
        <time>2021-03-02T13:33:34Z</time>
        <extensions>
          <gpxtpx:TrackPointExtension xmlns:gpxtpx="http://www.garmin.com/xmlschemas/TrackPointExtension/v1">
            <gpxtpx:hr>146</gpxtpx:hr>
          </gpxtpx:TrackPointExtension>
        </extensions>
      </trkpt>
      <trkpt lat="45.98085" lon="6.19133">
        <ele>767.8</ele>
        <time>2021-03-02T13:33:35Z</time>
        <extensions>
          <gpxtpx:TrackPointExtension xmlns:gpxtpx="http://www.garmin.com/xmlschemas/TrackPointExtension/v1">
            <gpxtpx:hr>146</gpxtpx:hr>
          </gpxtpx:TrackPointExtension>
        </extensions>
      </trkpt>
      <trkpt lat="45.98086" lon="6.19137">
        <ele>767.9</ele>
        <time>2021-03-02T13:33:36Z</time>
        <extensions>
          <gpxtpx:TrackPointExtension xmlns:gpxtpx="http://www.garmin.com/xmlschemas/TrackPointExtension/v1">
            <gpxtpx:hr>146</gpxtpx:hr>
          </gpxtpx:TrackPointExtension>
        </extensions>
      </trkpt>
      <trkpt lat="45.98087" lon="6.19142">
        <ele>768</ele>
        <time>2021-03-02T13:33:37Z</time>
        <extensions>
          <gpxtpx:TrackPointExtension xmlns:gpxtpx="http://www.garmin.com/xmlschemas/TrackPointExtension/v1">
            <gpxtpx:hr>147</gpxtpx:hr>
          </gpxtpx:TrackPointExtension>
        </extensions>
      </trkpt>
      <trkpt lat="45.98087" lon="6.19147">
        <ele>768</ele>
        <time>2021-03-02T13:33:38Z</time>
        <extensions>
          <gpxtpx:TrackPointExtension xmlns:gpxtpx="http://www.garmin.com/xmlschemas/TrackPointExtension/v1">
            <gpxtpx:hr>147</gpxtpx:hr>
          </gpxtpx:TrackPointExtension>
        </extensions>
      </trkpt>
      <trkpt lat="45.98088" lon="6.19151">
        <ele>768.1</ele>
        <time>2021-03-02T13:33:39Z</time>
        <extensions>
          <gpxtpx:TrackPointExtension xmlns:gpxtpx="http://www.garmin.com/xmlschemas/TrackPointExtension/v1">
            <gpxtpx:hr>147</gpxtpx:hr>
          </gpxtpx:TrackPointExtension>
        </extensions>
      </trkpt>
      <trkpt lat="45.98088" lon="6.19155">
        <ele>768.1</ele>
        <time>2021-03-02T13:33:40Z</time>
        <extensions>
          <gpxtpx:TrackPointExtension xmlns:gpxtpx="http://www.garmin.com/xmlschemas/TrackPointExtension/v1">
            <gpxtpx:hr>147</gpxtpx:hr>
          </gpxtpx:TrackPointExtension>
        </extensions>
      </trkpt>
      <trkpt lat="45.98089" lon="6.19158">
        <ele>768.1</ele>
        <time>2021-03-02T13:33:41Z</time>
        <extensions>
          <gpxtpx:TrackPointExtension xmlns:gpxtpx="http://www.garmin.com/xmlschemas/TrackPointExtension/v1">
            <gpxtpx:hr>147</gpxtpx:hr>
          </gpxtpx:TrackPointExtension>
        </extensions>
      </trkpt>
      <trkpt lat="45.9809" lon="6.19162">
        <ele>768.1</ele>
        <time>2021-03-02T13:33:42Z</time>
        <extensions>
          <gpxtpx:TrackPointExtension xmlns:gpxtpx="http://www.garmin.com/xmlschemas/TrackPointExtension/v1">
            <gpxtpx:hr>147</gpxtpx:hr>
          </gpxtpx:TrackPointExtension>
        </extensions>
      </trkpt>
      <trkpt lat="45.9809" lon="6.19166">
        <ele>768.1</ele>
        <time>2021-03-02T13:33:43Z</time>
        <extensions>
          <gpxtpx:TrackPointExtension xmlns:gpxtpx="http://www.garmin.com/xmlschemas/TrackPointExtension/v1">
            <gpxtpx:hr>147</gpxtpx:hr>
          </gpxtpx:TrackPointExtension>
        </extensions>
      </trkpt>
      <trkpt lat="45.9809" lon="6.19169">
        <ele>768</ele>
        <time>2021-03-02T13:33:44Z</time>
        <extensions>
          <gpxtpx:TrackPointExtension xmlns:gpxtpx="http://www.garmin.com/xmlschemas/TrackPointExtension/v1">
            <gpxtpx:hr>147</gpxtpx:hr>
          </gpxtpx:TrackPointExtension>
        </extensions>
      </trkpt>
      <trkpt lat="45.98091" lon="6.19173">
        <ele>768</ele>
        <time>2021-03-02T13:33:45Z</time>
        <extensions>
          <gpxtpx:TrackPointExtension xmlns:gpxtpx="http://www.garmin.com/xmlschemas/TrackPointExtension/v1">
            <gpxtpx:hr>147</gpxtpx:hr>
          </gpxtpx:TrackPointExtension>
        </extensions>
      </trkpt>
      <trkpt lat="45.98091" lon="6.19176">
        <ele>768</ele>
        <time>2021-03-02T13:33:46Z</time>
        <extensions>
          <gpxtpx:TrackPointExtension xmlns:gpxtpx="http://www.garmin.com/xmlschemas/TrackPointExtension/v1">
            <gpxtpx:hr>146</gpxtpx:hr>
          </gpxtpx:TrackPointExtension>
        </extensions>
      </trkpt>
      <trkpt lat="45.98092" lon="6.1918">
        <ele>767.9</ele>
        <time>2021-03-02T13:33:47Z</time>
        <extensions>
          <gpxtpx:TrackPointExtension xmlns:gpxtpx="http://www.garmin.com/xmlschemas/TrackPointExtension/v1">
            <gpxtpx:hr>146</gpxtpx:hr>
          </gpxtpx:TrackPointExtension>
        </extensions>
      </trkpt>
      <trkpt lat="45.98092" lon="6.19184">
        <ele>767.9</ele>
        <time>2021-03-02T13:33:48Z</time>
        <extensions>
          <gpxtpx:TrackPointExtension xmlns:gpxtpx="http://www.garmin.com/xmlschemas/TrackPointExtension/v1">
            <gpxtpx:hr>145</gpxtpx:hr>
          </gpxtpx:TrackPointExtension>
        </extensions>
      </trkpt>
      <trkpt lat="45.98093" lon="6.19188">
        <ele>767.8</ele>
        <time>2021-03-02T13:33:49Z</time>
        <extensions>
          <gpxtpx:TrackPointExtension xmlns:gpxtpx="http://www.garmin.com/xmlschemas/TrackPointExtension/v1">
            <gpxtpx:hr>144</gpxtpx:hr>
          </gpxtpx:TrackPointExtension>
        </extensions>
      </trkpt>
      <trkpt lat="45.98093" lon="6.19192">
        <ele>767.7</ele>
        <time>2021-03-02T13:33:50Z</time>
        <extensions>
          <gpxtpx:TrackPointExtension xmlns:gpxtpx="http://www.garmin.com/xmlschemas/TrackPointExtension/v1">
            <gpxtpx:hr>143</gpxtpx:hr>
          </gpxtpx:TrackPointExtension>
        </extensions>
      </trkpt>
      <trkpt lat="45.98093" lon="6.19196">
        <ele>767.7</ele>
        <time>2021-03-02T13:33:51Z</time>
        <extensions>
          <gpxtpx:TrackPointExtension xmlns:gpxtpx="http://www.garmin.com/xmlschemas/TrackPointExtension/v1">
            <gpxtpx:hr>142</gpxtpx:hr>
          </gpxtpx:TrackPointExtension>
        </extensions>
      </trkpt>
      <trkpt lat="45.98093" lon="6.192">
        <ele>767.6</ele>
        <time>2021-03-02T13:33:52Z</time>
        <extensions>
          <gpxtpx:TrackPointExtension xmlns:gpxtpx="http://www.garmin.com/xmlschemas/TrackPointExtension/v1">
            <gpxtpx:hr>141</gpxtpx:hr>
          </gpxtpx:TrackPointExtension>
        </extensions>
      </trkpt>
      <trkpt lat="45.98093" lon="6.19205">
        <ele>767.5</ele>
        <time>2021-03-02T13:33:53Z</time>
        <extensions>
          <gpxtpx:TrackPointExtension xmlns:gpxtpx="http://www.garmin.com/xmlschemas/TrackPointExtension/v1">
            <gpxtpx:hr>141</gpxtpx:hr>
          </gpxtpx:TrackPointExtension>
        </extensions>
      </trkpt>
      <trkpt lat="45.98093" lon="6.19209">
        <ele>767.4</ele>
        <time>2021-03-02T13:33:54Z</time>
        <extensions>
          <gpxtpx:TrackPointExtension xmlns:gpxtpx="http://www.garmin.com/xmlschemas/TrackPointExtension/v1">
            <gpxtpx:hr>140</gpxtpx:hr>
          </gpxtpx:TrackPointExtension>
        </extensions>
      </trkpt>
      <trkpt lat="45.98092" lon="6.19213">
        <ele>767.4</ele>
        <time>2021-03-02T13:33:55Z</time>
        <extensions>
          <gpxtpx:TrackPointExtension xmlns:gpxtpx="http://www.garmin.com/xmlschemas/TrackPointExtension/v1">
            <gpxtpx:hr>140</gpxtpx:hr>
          </gpxtpx:TrackPointExtension>
        </extensions>
      </trkpt>
      <trkpt lat="45.98092" lon="6.19217">
        <ele>767.3</ele>
        <time>2021-03-02T13:33:56Z</time>
        <extensions>
          <gpxtpx:TrackPointExtension xmlns:gpxtpx="http://www.garmin.com/xmlschemas/TrackPointExtension/v1">
            <gpxtpx:hr>140</gpxtpx:hr>
          </gpxtpx:TrackPointExtension>
        </extensions>
      </trkpt>
      <trkpt lat="45.98091" lon="6.1922">
        <ele>767.2</ele>
        <time>2021-03-02T13:33:57Z</time>
        <extensions>
          <gpxtpx:TrackPointExtension xmlns:gpxtpx="http://www.garmin.com/xmlschemas/TrackPointExtension/v1">
            <gpxtpx:hr>140</gpxtpx:hr>
          </gpxtpx:TrackPointExtension>
        </extensions>
      </trkpt>
      <trkpt lat="45.9809" lon="6.19224">
        <ele>767.1</ele>
        <time>2021-03-02T13:33:58Z</time>
        <extensions>
          <gpxtpx:TrackPointExtension xmlns:gpxtpx="http://www.garmin.com/xmlschemas/TrackPointExtension/v1">
            <gpxtpx:hr>139</gpxtpx:hr>
          </gpxtpx:TrackPointExtension>
        </extensions>
      </trkpt>
      <trkpt lat="45.9809" lon="6.19228">
        <ele>767.1</ele>
        <time>2021-03-02T13:33:59Z</time>
        <extensions>
          <gpxtpx:TrackPointExtension xmlns:gpxtpx="http://www.garmin.com/xmlschemas/TrackPointExtension/v1">
            <gpxtpx:hr>139</gpxtpx:hr>
          </gpxtpx:TrackPointExtension>
        </extensions>
      </trkpt>
      <trkpt lat="45.98089" lon="6.19232">
        <ele>767</ele>
        <time>2021-03-02T13:34:00Z</time>
        <extensions>
          <gpxtpx:TrackPointExtension xmlns:gpxtpx="http://www.garmin.com/xmlschemas/TrackPointExtension/v1">
            <gpxtpx:hr>139</gpxtpx:hr>
          </gpxtpx:TrackPointExtension>
        </extensions>
      </trkpt>
      <trkpt lat="45.98088" lon="6.19236">
        <ele>766.9</ele>
        <time>2021-03-02T13:34:01Z</time>
        <extensions>
          <gpxtpx:TrackPointExtension xmlns:gpxtpx="http://www.garmin.com/xmlschemas/TrackPointExtension/v1">
            <gpxtpx:hr>139</gpxtpx:hr>
          </gpxtpx:TrackPointExtension>
        </extensions>
      </trkpt>
      <trkpt lat="45.98087" lon="6.19241">
        <ele>766.8</ele>
        <time>2021-03-02T13:34:02Z</time>
        <extensions>
          <gpxtpx:TrackPointExtension xmlns:gpxtpx="http://www.garmin.com/xmlschemas/TrackPointExtension/v1">
            <gpxtpx:hr>139</gpxtpx:hr>
          </gpxtpx:TrackPointExtension>
        </extensions>
      </trkpt>
      <trkpt lat="45.98086" lon="6.19245">
        <ele>766.7</ele>
        <time>2021-03-02T13:34:03Z</time>
        <extensions>
          <gpxtpx:TrackPointExtension xmlns:gpxtpx="http://www.garmin.com/xmlschemas/TrackPointExtension/v1">
            <gpxtpx:hr>139</gpxtpx:hr>
          </gpxtpx:TrackPointExtension>
        </extensions>
      </trkpt>
      <trkpt lat="45.98084" lon="6.1925">
        <ele>766.6</ele>
        <time>2021-03-02T13:34:04Z</time>
        <extensions>
          <gpxtpx:TrackPointExtension xmlns:gpxtpx="http://www.garmin.com/xmlschemas/TrackPointExtension/v1">
            <gpxtpx:hr>139</gpxtpx:hr>
          </gpxtpx:TrackPointExtension>
        </extensions>
      </trkpt>
      <trkpt lat="45.98083" lon="6.19254">
        <ele>766.5</ele>
        <time>2021-03-02T13:34:05Z</time>
        <extensions>
          <gpxtpx:TrackPointExtension xmlns:gpxtpx="http://www.garmin.com/xmlschemas/TrackPointExtension/v1">
            <gpxtpx:hr>139</gpxtpx:hr>
          </gpxtpx:TrackPointExtension>
        </extensions>
      </trkpt>
      <trkpt lat="45.98081" lon="6.19259">
        <ele>766.4</ele>
        <time>2021-03-02T13:34:06Z</time>
        <extensions>
          <gpxtpx:TrackPointExtension xmlns:gpxtpx="http://www.garmin.com/xmlschemas/TrackPointExtension/v1">
            <gpxtpx:hr>139</gpxtpx:hr>
          </gpxtpx:TrackPointExtension>
        </extensions>
      </trkpt>
      <trkpt lat="45.98079" lon="6.19263">
        <ele>766.3</ele>
        <time>2021-03-02T13:34:07Z</time>
        <extensions>
          <gpxtpx:TrackPointExtension xmlns:gpxtpx="http://www.garmin.com/xmlschemas/TrackPointExtension/v1">
            <gpxtpx:hr>139</gpxtpx:hr>
          </gpxtpx:TrackPointExtension>
        </extensions>
      </trkpt>
      <trkpt lat="45.98077" lon="6.19269">
        <ele>766.2</ele>
        <time>2021-03-02T13:34:08Z</time>
        <extensions>
          <gpxtpx:TrackPointExtension xmlns:gpxtpx="http://www.garmin.com/xmlschemas/TrackPointExtension/v1">
            <gpxtpx:hr>139</gpxtpx:hr>
          </gpxtpx:TrackPointExtension>
        </extensions>
      </trkpt>
      <trkpt lat="45.98075" lon="6.19273">
        <ele>766.1</ele>
        <time>2021-03-02T13:34:09Z</time>
        <extensions>
          <gpxtpx:TrackPointExtension xmlns:gpxtpx="http://www.garmin.com/xmlschemas/TrackPointExtension/v1">
            <gpxtpx:hr>139</gpxtpx:hr>
          </gpxtpx:TrackPointExtension>
        </extensions>
      </trkpt>
      <trkpt lat="45.98072" lon="6.19278">
        <ele>766</ele>
        <time>2021-03-02T13:34:10Z</time>
        <extensions>
          <gpxtpx:TrackPointExtension xmlns:gpxtpx="http://www.garmin.com/xmlschemas/TrackPointExtension/v1">
            <gpxtpx:hr>139</gpxtpx:hr>
          </gpxtpx:TrackPointExtension>
        </extensions>
      </trkpt>
      <trkpt lat="45.9807" lon="6.19283">
        <ele>765.9</ele>
        <time>2021-03-02T13:34:11Z</time>
        <extensions>
          <gpxtpx:TrackPointExtension xmlns:gpxtpx="http://www.garmin.com/xmlschemas/TrackPointExtension/v1">
            <gpxtpx:hr>139</gpxtpx:hr>
          </gpxtpx:TrackPointExtension>
        </extensions>
      </trkpt>
      <trkpt lat="45.98067" lon="6.19288">
        <ele>765.7</ele>
        <time>2021-03-02T13:34:12Z</time>
        <extensions>
          <gpxtpx:TrackPointExtension xmlns:gpxtpx="http://www.garmin.com/xmlschemas/TrackPointExtension/v1">
            <gpxtpx:hr>140</gpxtpx:hr>
          </gpxtpx:TrackPointExtension>
        </extensions>
      </trkpt>
      <trkpt lat="45.98064" lon="6.19293">
        <ele>765.6</ele>
        <time>2021-03-02T13:34:13Z</time>
        <extensions>
          <gpxtpx:TrackPointExtension xmlns:gpxtpx="http://www.garmin.com/xmlschemas/TrackPointExtension/v1">
            <gpxtpx:hr>140</gpxtpx:hr>
          </gpxtpx:TrackPointExtension>
        </extensions>
      </trkpt>
      <trkpt lat="45.98062" lon="6.19298">
        <ele>765.5</ele>
        <time>2021-03-02T13:34:14Z</time>
        <extensions>
          <gpxtpx:TrackPointExtension xmlns:gpxtpx="http://www.garmin.com/xmlschemas/TrackPointExtension/v1">
            <gpxtpx:hr>140</gpxtpx:hr>
          </gpxtpx:TrackPointExtension>
        </extensions>
      </trkpt>
      <trkpt lat="45.98059" lon="6.19303">
        <ele>765.3</ele>
        <time>2021-03-02T13:34:15Z</time>
        <extensions>
          <gpxtpx:TrackPointExtension xmlns:gpxtpx="http://www.garmin.com/xmlschemas/TrackPointExtension/v1">
            <gpxtpx:hr>140</gpxtpx:hr>
          </gpxtpx:TrackPointExtension>
        </extensions>
      </trkpt>
      <trkpt lat="45.98056" lon="6.19308">
        <ele>765.2</ele>
        <time>2021-03-02T13:34:16Z</time>
        <extensions>
          <gpxtpx:TrackPointExtension xmlns:gpxtpx="http://www.garmin.com/xmlschemas/TrackPointExtension/v1">
            <gpxtpx:hr>140</gpxtpx:hr>
          </gpxtpx:TrackPointExtension>
        </extensions>
      </trkpt>
      <trkpt lat="45.98053" lon="6.19314">
        <ele>765.1</ele>
        <time>2021-03-02T13:34:17Z</time>
        <extensions>
          <gpxtpx:TrackPointExtension xmlns:gpxtpx="http://www.garmin.com/xmlschemas/TrackPointExtension/v1">
            <gpxtpx:hr>140</gpxtpx:hr>
          </gpxtpx:TrackPointExtension>
        </extensions>
      </trkpt>
      <trkpt lat="45.9805" lon="6.1932">
        <ele>764.9</ele>
        <time>2021-03-02T13:34:18Z</time>
        <extensions>
          <gpxtpx:TrackPointExtension xmlns:gpxtpx="http://www.garmin.com/xmlschemas/TrackPointExtension/v1">
            <gpxtpx:hr>140</gpxtpx:hr>
          </gpxtpx:TrackPointExtension>
        </extensions>
      </trkpt>
      <trkpt lat="45.98047" lon="6.19326">
        <ele>764.8</ele>
        <time>2021-03-02T13:34:19Z</time>
        <extensions>
          <gpxtpx:TrackPointExtension xmlns:gpxtpx="http://www.garmin.com/xmlschemas/TrackPointExtension/v1">
            <gpxtpx:hr>140</gpxtpx:hr>
          </gpxtpx:TrackPointExtension>
        </extensions>
      </trkpt>
      <trkpt lat="45.98044" lon="6.19332">
        <ele>764.7</ele>
        <time>2021-03-02T13:34:20Z</time>
        <extensions>
          <gpxtpx:TrackPointExtension xmlns:gpxtpx="http://www.garmin.com/xmlschemas/TrackPointExtension/v1">
            <gpxtpx:hr>139</gpxtpx:hr>
          </gpxtpx:TrackPointExtension>
        </extensions>
      </trkpt>
      <trkpt lat="45.9804" lon="6.19338">
        <ele>764.6</ele>
        <time>2021-03-02T13:34:21Z</time>
        <extensions>
          <gpxtpx:TrackPointExtension xmlns:gpxtpx="http://www.garmin.com/xmlschemas/TrackPointExtension/v1">
            <gpxtpx:hr>139</gpxtpx:hr>
          </gpxtpx:TrackPointExtension>
        </extensions>
      </trkpt>
      <trkpt lat="45.98036" lon="6.19344">
        <ele>764.4</ele>
        <time>2021-03-02T13:34:22Z</time>
        <extensions>
          <gpxtpx:TrackPointExtension xmlns:gpxtpx="http://www.garmin.com/xmlschemas/TrackPointExtension/v1">
            <gpxtpx:hr>139</gpxtpx:hr>
          </gpxtpx:TrackPointExtension>
        </extensions>
      </trkpt>
      <trkpt lat="45.98033" lon="6.19351">
        <ele>764.3</ele>
        <time>2021-03-02T13:34:23Z</time>
        <extensions>
          <gpxtpx:TrackPointExtension xmlns:gpxtpx="http://www.garmin.com/xmlschemas/TrackPointExtension/v1">
            <gpxtpx:hr>138</gpxtpx:hr>
          </gpxtpx:TrackPointExtension>
        </extensions>
      </trkpt>
      <trkpt lat="45.98029" lon="6.19357">
        <ele>764.2</ele>
        <time>2021-03-02T13:34:24Z</time>
        <extensions>
          <gpxtpx:TrackPointExtension xmlns:gpxtpx="http://www.garmin.com/xmlschemas/TrackPointExtension/v1">
            <gpxtpx:hr>137</gpxtpx:hr>
          </gpxtpx:TrackPointExtension>
        </extensions>
      </trkpt>
      <trkpt lat="45.98026" lon="6.19364">
        <ele>764.2</ele>
        <time>2021-03-02T13:34:25Z</time>
        <extensions>
          <gpxtpx:TrackPointExtension xmlns:gpxtpx="http://www.garmin.com/xmlschemas/TrackPointExtension/v1">
            <gpxtpx:hr>136</gpxtpx:hr>
          </gpxtpx:TrackPointExtension>
        </extensions>
      </trkpt>
      <trkpt lat="45.98023" lon="6.1937">
        <ele>764.2</ele>
        <time>2021-03-02T13:34:26Z</time>
        <extensions>
          <gpxtpx:TrackPointExtension xmlns:gpxtpx="http://www.garmin.com/xmlschemas/TrackPointExtension/v1">
            <gpxtpx:hr>134</gpxtpx:hr>
          </gpxtpx:TrackPointExtension>
        </extensions>
      </trkpt>
      <trkpt lat="45.98019" lon="6.19376">
        <ele>764.2</ele>
        <time>2021-03-02T13:34:27Z</time>
        <extensions>
          <gpxtpx:TrackPointExtension xmlns:gpxtpx="http://www.garmin.com/xmlschemas/TrackPointExtension/v1">
            <gpxtpx:hr>133</gpxtpx:hr>
          </gpxtpx:TrackPointExtension>
        </extensions>
      </trkpt>
      <trkpt lat="45.98016" lon="6.19381">
        <ele>764.3</ele>
        <time>2021-03-02T13:34:28Z</time>
        <extensions>
          <gpxtpx:TrackPointExtension xmlns:gpxtpx="http://www.garmin.com/xmlschemas/TrackPointExtension/v1">
            <gpxtpx:hr>132</gpxtpx:hr>
          </gpxtpx:TrackPointExtension>
        </extensions>
      </trkpt>
      <trkpt lat="45.98012" lon="6.19387">
        <ele>764.4</ele>
        <time>2021-03-02T13:34:29Z</time>
        <extensions>
          <gpxtpx:TrackPointExtension xmlns:gpxtpx="http://www.garmin.com/xmlschemas/TrackPointExtension/v1">
            <gpxtpx:hr>131</gpxtpx:hr>
          </gpxtpx:TrackPointExtension>
        </extensions>
      </trkpt>
      <trkpt lat="45.98009" lon="6.19392">
        <ele>764.6</ele>
        <time>2021-03-02T13:34:30Z</time>
        <extensions>
          <gpxtpx:TrackPointExtension xmlns:gpxtpx="http://www.garmin.com/xmlschemas/TrackPointExtension/v1">
            <gpxtpx:hr>129</gpxtpx:hr>
          </gpxtpx:TrackPointExtension>
        </extensions>
      </trkpt>
      <trkpt lat="45.98006" lon="6.19398">
        <ele>764.7</ele>
        <time>2021-03-02T13:34:31Z</time>
        <extensions>
          <gpxtpx:TrackPointExtension xmlns:gpxtpx="http://www.garmin.com/xmlschemas/TrackPointExtension/v1">
            <gpxtpx:hr>127</gpxtpx:hr>
          </gpxtpx:TrackPointExtension>
        </extensions>
      </trkpt>
      <trkpt lat="45.98003" lon="6.19403">
        <ele>764.9</ele>
        <time>2021-03-02T13:34:32Z</time>
        <extensions>
          <gpxtpx:TrackPointExtension xmlns:gpxtpx="http://www.garmin.com/xmlschemas/TrackPointExtension/v1">
            <gpxtpx:hr>127</gpxtpx:hr>
          </gpxtpx:TrackPointExtension>
        </extensions>
      </trkpt>
      <trkpt lat="45.98" lon="6.19408">
        <ele>765.2</ele>
        <time>2021-03-02T13:34:33Z</time>
        <extensions>
          <gpxtpx:TrackPointExtension xmlns:gpxtpx="http://www.garmin.com/xmlschemas/TrackPointExtension/v1">
            <gpxtpx:hr>127</gpxtpx:hr>
          </gpxtpx:TrackPointExtension>
        </extensions>
      </trkpt>
      <trkpt lat="45.97998" lon="6.19412">
        <ele>765.4</ele>
        <time>2021-03-02T13:34:34Z</time>
        <extensions>
          <gpxtpx:TrackPointExtension xmlns:gpxtpx="http://www.garmin.com/xmlschemas/TrackPointExtension/v1">
            <gpxtpx:hr>127</gpxtpx:hr>
          </gpxtpx:TrackPointExtension>
        </extensions>
      </trkpt>
      <trkpt lat="45.97995" lon="6.19417">
        <ele>765.6</ele>
        <time>2021-03-02T13:34:35Z</time>
        <extensions>
          <gpxtpx:TrackPointExtension xmlns:gpxtpx="http://www.garmin.com/xmlschemas/TrackPointExtension/v1">
            <gpxtpx:hr>126</gpxtpx:hr>
          </gpxtpx:TrackPointExtension>
        </extensions>
      </trkpt>
      <trkpt lat="45.97992" lon="6.19421">
        <ele>765.9</ele>
        <time>2021-03-02T13:34:36Z</time>
        <extensions>
          <gpxtpx:TrackPointExtension xmlns:gpxtpx="http://www.garmin.com/xmlschemas/TrackPointExtension/v1">
            <gpxtpx:hr>126</gpxtpx:hr>
          </gpxtpx:TrackPointExtension>
        </extensions>
      </trkpt>
      <trkpt lat="45.9799" lon="6.19425">
        <ele>766.1</ele>
        <time>2021-03-02T13:34:37Z</time>
        <extensions>
          <gpxtpx:TrackPointExtension xmlns:gpxtpx="http://www.garmin.com/xmlschemas/TrackPointExtension/v1">
            <gpxtpx:hr>125</gpxtpx:hr>
          </gpxtpx:TrackPointExtension>
        </extensions>
      </trkpt>
      <trkpt lat="45.97988" lon="6.19428">
        <ele>766.3</ele>
        <time>2021-03-02T13:34:38Z</time>
        <extensions>
          <gpxtpx:TrackPointExtension xmlns:gpxtpx="http://www.garmin.com/xmlschemas/TrackPointExtension/v1">
            <gpxtpx:hr>124</gpxtpx:hr>
          </gpxtpx:TrackPointExtension>
        </extensions>
      </trkpt>
      <trkpt lat="45.97986" lon="6.19432">
        <ele>766.5</ele>
        <time>2021-03-02T13:34:39Z</time>
        <extensions>
          <gpxtpx:TrackPointExtension xmlns:gpxtpx="http://www.garmin.com/xmlschemas/TrackPointExtension/v1">
            <gpxtpx:hr>123</gpxtpx:hr>
          </gpxtpx:TrackPointExtension>
        </extensions>
      </trkpt>
      <trkpt lat="45.97984" lon="6.19435">
        <ele>766.7</ele>
        <time>2021-03-02T13:34:40Z</time>
        <extensions>
          <gpxtpx:TrackPointExtension xmlns:gpxtpx="http://www.garmin.com/xmlschemas/TrackPointExtension/v1">
            <gpxtpx:hr>122</gpxtpx:hr>
          </gpxtpx:TrackPointExtension>
        </extensions>
      </trkpt>
      <trkpt lat="45.97982" lon="6.19439">
        <ele>767</ele>
        <time>2021-03-02T13:34:41Z</time>
        <extensions>
          <gpxtpx:TrackPointExtension xmlns:gpxtpx="http://www.garmin.com/xmlschemas/TrackPointExtension/v1">
            <gpxtpx:hr>121</gpxtpx:hr>
          </gpxtpx:TrackPointExtension>
        </extensions>
      </trkpt>
      <trkpt lat="45.9798" lon="6.19442">
        <ele>767.2</ele>
        <time>2021-03-02T13:34:42Z</time>
        <extensions>
          <gpxtpx:TrackPointExtension xmlns:gpxtpx="http://www.garmin.com/xmlschemas/TrackPointExtension/v1">
            <gpxtpx:hr>120</gpxtpx:hr>
          </gpxtpx:TrackPointExtension>
        </extensions>
      </trkpt>
      <trkpt lat="45.97979" lon="6.19445">
        <ele>767.4</ele>
        <time>2021-03-02T13:34:43Z</time>
        <extensions>
          <gpxtpx:TrackPointExtension xmlns:gpxtpx="http://www.garmin.com/xmlschemas/TrackPointExtension/v1">
            <gpxtpx:hr>119</gpxtpx:hr>
          </gpxtpx:TrackPointExtension>
        </extensions>
      </trkpt>
      <trkpt lat="45.97977" lon="6.19449">
        <ele>767.8</ele>
        <time>2021-03-02T13:34:44Z</time>
        <extensions>
          <gpxtpx:TrackPointExtension xmlns:gpxtpx="http://www.garmin.com/xmlschemas/TrackPointExtension/v1">
            <gpxtpx:hr>120</gpxtpx:hr>
          </gpxtpx:TrackPointExtension>
        </extensions>
      </trkpt>
      <trkpt lat="45.97975" lon="6.19453">
        <ele>768</ele>
        <time>2021-03-02T13:34:45Z</time>
        <extensions>
          <gpxtpx:TrackPointExtension xmlns:gpxtpx="http://www.garmin.com/xmlschemas/TrackPointExtension/v1">
            <gpxtpx:hr>120</gpxtpx:hr>
          </gpxtpx:TrackPointExtension>
        </extensions>
      </trkpt>
      <trkpt lat="45.97973" lon="6.19458">
        <ele>768.1</ele>
        <time>2021-03-02T13:34:46Z</time>
        <extensions>
          <gpxtpx:TrackPointExtension xmlns:gpxtpx="http://www.garmin.com/xmlschemas/TrackPointExtension/v1">
            <gpxtpx:hr>120</gpxtpx:hr>
          </gpxtpx:TrackPointExtension>
        </extensions>
      </trkpt>
      <trkpt lat="45.97972" lon="6.19463">
        <ele>768.2</ele>
        <time>2021-03-02T13:34:47Z</time>
        <extensions>
          <gpxtpx:TrackPointExtension xmlns:gpxtpx="http://www.garmin.com/xmlschemas/TrackPointExtension/v1">
            <gpxtpx:hr>120</gpxtpx:hr>
          </gpxtpx:TrackPointExtension>
        </extensions>
      </trkpt>
      <trkpt lat="45.97971" lon="6.19469">
        <ele>768.3</ele>
        <time>2021-03-02T13:34:48Z</time>
        <extensions>
          <gpxtpx:TrackPointExtension xmlns:gpxtpx="http://www.garmin.com/xmlschemas/TrackPointExtension/v1">
            <gpxtpx:hr>120</gpxtpx:hr>
          </gpxtpx:TrackPointExtension>
        </extensions>
      </trkpt>
      <trkpt lat="45.9797" lon="6.19475">
        <ele>768.3</ele>
        <time>2021-03-02T13:34:49Z</time>
        <extensions>
          <gpxtpx:TrackPointExtension xmlns:gpxtpx="http://www.garmin.com/xmlschemas/TrackPointExtension/v1">
            <gpxtpx:hr>120</gpxtpx:hr>
          </gpxtpx:TrackPointExtension>
        </extensions>
      </trkpt>
      <trkpt lat="45.97969" lon="6.19481">
        <ele>768.3</ele>
        <time>2021-03-02T13:34:50Z</time>
        <extensions>
          <gpxtpx:TrackPointExtension xmlns:gpxtpx="http://www.garmin.com/xmlschemas/TrackPointExtension/v1">
            <gpxtpx:hr>121</gpxtpx:hr>
          </gpxtpx:TrackPointExtension>
        </extensions>
      </trkpt>
      <trkpt lat="45.97969" lon="6.19488">
        <ele>768.3</ele>
        <time>2021-03-02T13:34:51Z</time>
        <extensions>
          <gpxtpx:TrackPointExtension xmlns:gpxtpx="http://www.garmin.com/xmlschemas/TrackPointExtension/v1">
            <gpxtpx:hr>121</gpxtpx:hr>
          </gpxtpx:TrackPointExtension>
        </extensions>
      </trkpt>
      <trkpt lat="45.97969" lon="6.19495">
        <ele>768.3</ele>
        <time>2021-03-02T13:34:52Z</time>
        <extensions>
          <gpxtpx:TrackPointExtension xmlns:gpxtpx="http://www.garmin.com/xmlschemas/TrackPointExtension/v1">
            <gpxtpx:hr>121</gpxtpx:hr>
          </gpxtpx:TrackPointExtension>
        </extensions>
      </trkpt>
      <trkpt lat="45.97971" lon="6.19502">
        <ele>768.2</ele>
        <time>2021-03-02T13:34:53Z</time>
        <extensions>
          <gpxtpx:TrackPointExtension xmlns:gpxtpx="http://www.garmin.com/xmlschemas/TrackPointExtension/v1">
            <gpxtpx:hr>121</gpxtpx:hr>
          </gpxtpx:TrackPointExtension>
        </extensions>
      </trkpt>
      <trkpt lat="45.97973" lon="6.19509">
        <ele>768.1</ele>
        <time>2021-03-02T13:34:54Z</time>
        <extensions>
          <gpxtpx:TrackPointExtension xmlns:gpxtpx="http://www.garmin.com/xmlschemas/TrackPointExtension/v1">
            <gpxtpx:hr>122</gpxtpx:hr>
          </gpxtpx:TrackPointExtension>
        </extensions>
      </trkpt>
      <trkpt lat="45.97975" lon="6.19517">
        <ele>768</ele>
        <time>2021-03-02T13:34:55Z</time>
        <extensions>
          <gpxtpx:TrackPointExtension xmlns:gpxtpx="http://www.garmin.com/xmlschemas/TrackPointExtension/v1">
            <gpxtpx:hr>122</gpxtpx:hr>
          </gpxtpx:TrackPointExtension>
        </extensions>
      </trkpt>
      <trkpt lat="45.97978" lon="6.19525">
        <ele>767.9</ele>
        <time>2021-03-02T13:34:56Z</time>
        <extensions>
          <gpxtpx:TrackPointExtension xmlns:gpxtpx="http://www.garmin.com/xmlschemas/TrackPointExtension/v1">
            <gpxtpx:hr>122</gpxtpx:hr>
          </gpxtpx:TrackPointExtension>
        </extensions>
      </trkpt>
      <trkpt lat="45.9798" lon="6.19532">
        <ele>767.8</ele>
        <time>2021-03-02T13:34:57Z</time>
        <extensions>
          <gpxtpx:TrackPointExtension xmlns:gpxtpx="http://www.garmin.com/xmlschemas/TrackPointExtension/v1">
            <gpxtpx:hr>122</gpxtpx:hr>
          </gpxtpx:TrackPointExtension>
        </extensions>
      </trkpt>
      <trkpt lat="45.97983" lon="6.19541">
        <ele>767.7</ele>
        <time>2021-03-02T13:34:58Z</time>
        <extensions>
          <gpxtpx:TrackPointExtension xmlns:gpxtpx="http://www.garmin.com/xmlschemas/TrackPointExtension/v1">
            <gpxtpx:hr>123</gpxtpx:hr>
          </gpxtpx:TrackPointExtension>
        </extensions>
      </trkpt>
      <trkpt lat="45.97986" lon="6.19549">
        <ele>767.6</ele>
        <time>2021-03-02T13:34:59Z</time>
        <extensions>
          <gpxtpx:TrackPointExtension xmlns:gpxtpx="http://www.garmin.com/xmlschemas/TrackPointExtension/v1">
            <gpxtpx:hr>124</gpxtpx:hr>
          </gpxtpx:TrackPointExtension>
        </extensions>
      </trkpt>
      <trkpt lat="45.9799" lon="6.19558">
        <ele>767.4</ele>
        <time>2021-03-02T13:35:00Z</time>
        <extensions>
          <gpxtpx:TrackPointExtension xmlns:gpxtpx="http://www.garmin.com/xmlschemas/TrackPointExtension/v1">
            <gpxtpx:hr>125</gpxtpx:hr>
          </gpxtpx:TrackPointExtension>
        </extensions>
      </trkpt>
      <trkpt lat="45.97993" lon="6.19566">
        <ele>767.2</ele>
        <time>2021-03-02T13:35:01Z</time>
        <extensions>
          <gpxtpx:TrackPointExtension xmlns:gpxtpx="http://www.garmin.com/xmlschemas/TrackPointExtension/v1">
            <gpxtpx:hr>126</gpxtpx:hr>
          </gpxtpx:TrackPointExtension>
        </extensions>
      </trkpt>
      <trkpt lat="45.97996" lon="6.19575">
        <ele>766.9</ele>
        <time>2021-03-02T13:35:02Z</time>
        <extensions>
          <gpxtpx:TrackPointExtension xmlns:gpxtpx="http://www.garmin.com/xmlschemas/TrackPointExtension/v1">
            <gpxtpx:hr>126</gpxtpx:hr>
          </gpxtpx:TrackPointExtension>
        </extensions>
      </trkpt>
      <trkpt lat="45.97999" lon="6.19584">
        <ele>766.6</ele>
        <time>2021-03-02T13:35:03Z</time>
        <extensions>
          <gpxtpx:TrackPointExtension xmlns:gpxtpx="http://www.garmin.com/xmlschemas/TrackPointExtension/v1">
            <gpxtpx:hr>127</gpxtpx:hr>
          </gpxtpx:TrackPointExtension>
        </extensions>
      </trkpt>
      <trkpt lat="45.98002" lon="6.19593">
        <ele>766.4</ele>
        <time>2021-03-02T13:35:04Z</time>
        <extensions>
          <gpxtpx:TrackPointExtension xmlns:gpxtpx="http://www.garmin.com/xmlschemas/TrackPointExtension/v1">
            <gpxtpx:hr>128</gpxtpx:hr>
          </gpxtpx:TrackPointExtension>
        </extensions>
      </trkpt>
      <trkpt lat="45.98006" lon="6.19602">
        <ele>766.1</ele>
        <time>2021-03-02T13:35:05Z</time>
        <extensions>
          <gpxtpx:TrackPointExtension xmlns:gpxtpx="http://www.garmin.com/xmlschemas/TrackPointExtension/v1">
            <gpxtpx:hr>128</gpxtpx:hr>
          </gpxtpx:TrackPointExtension>
        </extensions>
      </trkpt>
      <trkpt lat="45.9801" lon="6.19612">
        <ele>765.9</ele>
        <time>2021-03-02T13:35:06Z</time>
        <extensions>
          <gpxtpx:TrackPointExtension xmlns:gpxtpx="http://www.garmin.com/xmlschemas/TrackPointExtension/v1">
            <gpxtpx:hr>128</gpxtpx:hr>
          </gpxtpx:TrackPointExtension>
        </extensions>
      </trkpt>
      <trkpt lat="45.98013" lon="6.19622">
        <ele>765.7</ele>
        <time>2021-03-02T13:35:07Z</time>
        <extensions>
          <gpxtpx:TrackPointExtension xmlns:gpxtpx="http://www.garmin.com/xmlschemas/TrackPointExtension/v1">
            <gpxtpx:hr>128</gpxtpx:hr>
          </gpxtpx:TrackPointExtension>
        </extensions>
      </trkpt>
      <trkpt lat="45.98017" lon="6.19632">
        <ele>765.4</ele>
        <time>2021-03-02T13:35:08Z</time>
        <extensions>
          <gpxtpx:TrackPointExtension xmlns:gpxtpx="http://www.garmin.com/xmlschemas/TrackPointExtension/v1">
            <gpxtpx:hr>128</gpxtpx:hr>
          </gpxtpx:TrackPointExtension>
        </extensions>
      </trkpt>
      <trkpt lat="45.9802" lon="6.19641">
        <ele>765.3</ele>
        <time>2021-03-02T13:35:09Z</time>
        <extensions>
          <gpxtpx:TrackPointExtension xmlns:gpxtpx="http://www.garmin.com/xmlschemas/TrackPointExtension/v1">
            <gpxtpx:hr>128</gpxtpx:hr>
          </gpxtpx:TrackPointExtension>
        </extensions>
      </trkpt>
      <trkpt lat="45.98024" lon="6.19651">
        <ele>765.1</ele>
        <time>2021-03-02T13:35:10Z</time>
        <extensions>
          <gpxtpx:TrackPointExtension xmlns:gpxtpx="http://www.garmin.com/xmlschemas/TrackPointExtension/v1">
            <gpxtpx:hr>127</gpxtpx:hr>
          </gpxtpx:TrackPointExtension>
        </extensions>
      </trkpt>
      <trkpt lat="45.98028" lon="6.1966">
        <ele>765</ele>
        <time>2021-03-02T13:35:11Z</time>
        <extensions>
          <gpxtpx:TrackPointExtension xmlns:gpxtpx="http://www.garmin.com/xmlschemas/TrackPointExtension/v1">
            <gpxtpx:hr>127</gpxtpx:hr>
          </gpxtpx:TrackPointExtension>
        </extensions>
      </trkpt>
      <trkpt lat="45.98031" lon="6.1967">
        <ele>765</ele>
        <time>2021-03-02T13:35:12Z</time>
        <extensions>
          <gpxtpx:TrackPointExtension xmlns:gpxtpx="http://www.garmin.com/xmlschemas/TrackPointExtension/v1">
            <gpxtpx:hr>127</gpxtpx:hr>
          </gpxtpx:TrackPointExtension>
        </extensions>
      </trkpt>
      <trkpt lat="45.98034" lon="6.1968">
        <ele>764.9</ele>
        <time>2021-03-02T13:35:13Z</time>
        <extensions>
          <gpxtpx:TrackPointExtension xmlns:gpxtpx="http://www.garmin.com/xmlschemas/TrackPointExtension/v1">
            <gpxtpx:hr>127</gpxtpx:hr>
          </gpxtpx:TrackPointExtension>
        </extensions>
      </trkpt>
      <trkpt lat="45.98037" lon="6.1969">
        <ele>764.9</ele>
        <time>2021-03-02T13:35:14Z</time>
        <extensions>
          <gpxtpx:TrackPointExtension xmlns:gpxtpx="http://www.garmin.com/xmlschemas/TrackPointExtension/v1">
            <gpxtpx:hr>127</gpxtpx:hr>
          </gpxtpx:TrackPointExtension>
        </extensions>
      </trkpt>
      <trkpt lat="45.98038" lon="6.197">
        <ele>764.9</ele>
        <time>2021-03-02T13:35:15Z</time>
        <extensions>
          <gpxtpx:TrackPointExtension xmlns:gpxtpx="http://www.garmin.com/xmlschemas/TrackPointExtension/v1">
            <gpxtpx:hr>127</gpxtpx:hr>
          </gpxtpx:TrackPointExtension>
        </extensions>
      </trkpt>
      <trkpt lat="45.9804" lon="6.19709">
        <ele>764.8</ele>
        <time>2021-03-02T13:35:16Z</time>
        <extensions>
          <gpxtpx:TrackPointExtension xmlns:gpxtpx="http://www.garmin.com/xmlschemas/TrackPointExtension/v1">
            <gpxtpx:hr>127</gpxtpx:hr>
          </gpxtpx:TrackPointExtension>
        </extensions>
      </trkpt>
      <trkpt lat="45.98041" lon="6.19719">
        <ele>764.8</ele>
        <time>2021-03-02T13:35:17Z</time>
        <extensions>
          <gpxtpx:TrackPointExtension xmlns:gpxtpx="http://www.garmin.com/xmlschemas/TrackPointExtension/v1">
            <gpxtpx:hr>127</gpxtpx:hr>
          </gpxtpx:TrackPointExtension>
        </extensions>
      </trkpt>
      <trkpt lat="45.98043" lon="6.19729">
        <ele>764.8</ele>
        <time>2021-03-02T13:35:18Z</time>
        <extensions>
          <gpxtpx:TrackPointExtension xmlns:gpxtpx="http://www.garmin.com/xmlschemas/TrackPointExtension/v1">
            <gpxtpx:hr>127</gpxtpx:hr>
          </gpxtpx:TrackPointExtension>
        </extensions>
      </trkpt>
      <trkpt lat="45.98044" lon="6.19739">
        <ele>764.8</ele>
        <time>2021-03-02T13:35:19Z</time>
        <extensions>
          <gpxtpx:TrackPointExtension xmlns:gpxtpx="http://www.garmin.com/xmlschemas/TrackPointExtension/v1">
            <gpxtpx:hr>127</gpxtpx:hr>
          </gpxtpx:TrackPointExtension>
        </extensions>
      </trkpt>
      <trkpt lat="45.98046" lon="6.19749">
        <ele>764.8</ele>
        <time>2021-03-02T13:35:20Z</time>
        <extensions>
          <gpxtpx:TrackPointExtension xmlns:gpxtpx="http://www.garmin.com/xmlschemas/TrackPointExtension/v1">
            <gpxtpx:hr>127</gpxtpx:hr>
          </gpxtpx:TrackPointExtension>
        </extensions>
      </trkpt>
      <trkpt lat="45.98049" lon="6.19758">
        <ele>764.9</ele>
        <time>2021-03-02T13:35:21Z</time>
        <extensions>
          <gpxtpx:TrackPointExtension xmlns:gpxtpx="http://www.garmin.com/xmlschemas/TrackPointExtension/v1">
            <gpxtpx:hr>127</gpxtpx:hr>
          </gpxtpx:TrackPointExtension>
        </extensions>
      </trkpt>
      <trkpt lat="45.98051" lon="6.19768">
        <ele>765</ele>
        <time>2021-03-02T13:35:22Z</time>
        <extensions>
          <gpxtpx:TrackPointExtension xmlns:gpxtpx="http://www.garmin.com/xmlschemas/TrackPointExtension/v1">
            <gpxtpx:hr>127</gpxtpx:hr>
          </gpxtpx:TrackPointExtension>
        </extensions>
      </trkpt>
      <trkpt lat="45.98054" lon="6.19777">
        <ele>765</ele>
        <time>2021-03-02T13:35:23Z</time>
        <extensions>
          <gpxtpx:TrackPointExtension xmlns:gpxtpx="http://www.garmin.com/xmlschemas/TrackPointExtension/v1">
            <gpxtpx:hr>126</gpxtpx:hr>
          </gpxtpx:TrackPointExtension>
        </extensions>
      </trkpt>
      <trkpt lat="45.98058" lon="6.19786">
        <ele>765.1</ele>
        <time>2021-03-02T13:35:24Z</time>
        <extensions>
          <gpxtpx:TrackPointExtension xmlns:gpxtpx="http://www.garmin.com/xmlschemas/TrackPointExtension/v1">
            <gpxtpx:hr>126</gpxtpx:hr>
          </gpxtpx:TrackPointExtension>
        </extensions>
      </trkpt>
      <trkpt lat="45.98061" lon="6.19794">
        <ele>765.1</ele>
        <time>2021-03-02T13:35:25Z</time>
        <extensions>
          <gpxtpx:TrackPointExtension xmlns:gpxtpx="http://www.garmin.com/xmlschemas/TrackPointExtension/v1">
            <gpxtpx:hr>126</gpxtpx:hr>
          </gpxtpx:TrackPointExtension>
        </extensions>
      </trkpt>
      <trkpt lat="45.98065" lon="6.19802">
        <ele>765.2</ele>
        <time>2021-03-02T13:35:26Z</time>
        <extensions>
          <gpxtpx:TrackPointExtension xmlns:gpxtpx="http://www.garmin.com/xmlschemas/TrackPointExtension/v1">
            <gpxtpx:hr>126</gpxtpx:hr>
          </gpxtpx:TrackPointExtension>
        </extensions>
      </trkpt>
      <trkpt lat="45.98069" lon="6.19811">
        <ele>765.2</ele>
        <time>2021-03-02T13:35:27Z</time>
        <extensions>
          <gpxtpx:TrackPointExtension xmlns:gpxtpx="http://www.garmin.com/xmlschemas/TrackPointExtension/v1">
            <gpxtpx:hr>126</gpxtpx:hr>
          </gpxtpx:TrackPointExtension>
        </extensions>
      </trkpt>
      <trkpt lat="45.98073" lon="6.19819">
        <ele>765.3</ele>
        <time>2021-03-02T13:35:28Z</time>
        <extensions>
          <gpxtpx:TrackPointExtension xmlns:gpxtpx="http://www.garmin.com/xmlschemas/TrackPointExtension/v1">
            <gpxtpx:hr>126</gpxtpx:hr>
          </gpxtpx:TrackPointExtension>
        </extensions>
      </trkpt>
      <trkpt lat="45.98077" lon="6.19828">
        <ele>765.4</ele>
        <time>2021-03-02T13:35:29Z</time>
        <extensions>
          <gpxtpx:TrackPointExtension xmlns:gpxtpx="http://www.garmin.com/xmlschemas/TrackPointExtension/v1">
            <gpxtpx:hr>126</gpxtpx:hr>
          </gpxtpx:TrackPointExtension>
        </extensions>
      </trkpt>
      <trkpt lat="45.9808" lon="6.19837">
        <ele>765.4</ele>
        <time>2021-03-02T13:35:30Z</time>
        <extensions>
          <gpxtpx:TrackPointExtension xmlns:gpxtpx="http://www.garmin.com/xmlschemas/TrackPointExtension/v1">
            <gpxtpx:hr>125</gpxtpx:hr>
          </gpxtpx:TrackPointExtension>
        </extensions>
      </trkpt>
      <trkpt lat="45.98083" lon="6.19846">
        <ele>765.5</ele>
        <time>2021-03-02T13:35:31Z</time>
        <extensions>
          <gpxtpx:TrackPointExtension xmlns:gpxtpx="http://www.garmin.com/xmlschemas/TrackPointExtension/v1">
            <gpxtpx:hr>124</gpxtpx:hr>
          </gpxtpx:TrackPointExtension>
        </extensions>
      </trkpt>
      <trkpt lat="45.98085" lon="6.19856">
        <ele>765.6</ele>
        <time>2021-03-02T13:35:32Z</time>
        <extensions>
          <gpxtpx:TrackPointExtension xmlns:gpxtpx="http://www.garmin.com/xmlschemas/TrackPointExtension/v1">
            <gpxtpx:hr>123</gpxtpx:hr>
          </gpxtpx:TrackPointExtension>
        </extensions>
      </trkpt>
      <trkpt lat="45.98086" lon="6.19866">
        <ele>765.7</ele>
        <time>2021-03-02T13:35:33Z</time>
        <extensions>
          <gpxtpx:TrackPointExtension xmlns:gpxtpx="http://www.garmin.com/xmlschemas/TrackPointExtension/v1">
            <gpxtpx:hr>122</gpxtpx:hr>
          </gpxtpx:TrackPointExtension>
        </extensions>
      </trkpt>
      <trkpt lat="45.98086" lon="6.19876">
        <ele>765.8</ele>
        <time>2021-03-02T13:35:34Z</time>
        <extensions>
          <gpxtpx:TrackPointExtension xmlns:gpxtpx="http://www.garmin.com/xmlschemas/TrackPointExtension/v1">
            <gpxtpx:hr>122</gpxtpx:hr>
          </gpxtpx:TrackPointExtension>
        </extensions>
      </trkpt>
      <trkpt lat="45.98086" lon="6.19886">
        <ele>766</ele>
        <time>2021-03-02T13:35:35Z</time>
        <extensions>
          <gpxtpx:TrackPointExtension xmlns:gpxtpx="http://www.garmin.com/xmlschemas/TrackPointExtension/v1">
            <gpxtpx:hr>122</gpxtpx:hr>
          </gpxtpx:TrackPointExtension>
        </extensions>
      </trkpt>
      <trkpt lat="45.98085" lon="6.19896">
        <ele>766.1</ele>
        <time>2021-03-02T13:35:36Z</time>
        <extensions>
          <gpxtpx:TrackPointExtension xmlns:gpxtpx="http://www.garmin.com/xmlschemas/TrackPointExtension/v1">
            <gpxtpx:hr>121</gpxtpx:hr>
          </gpxtpx:TrackPointExtension>
        </extensions>
      </trkpt>
      <trkpt lat="45.98085" lon="6.19906">
        <ele>766.4</ele>
        <time>2021-03-02T13:35:37Z</time>
        <extensions>
          <gpxtpx:TrackPointExtension xmlns:gpxtpx="http://www.garmin.com/xmlschemas/TrackPointExtension/v1">
            <gpxtpx:hr>121</gpxtpx:hr>
          </gpxtpx:TrackPointExtension>
        </extensions>
      </trkpt>
      <trkpt lat="45.98083" lon="6.19915">
        <ele>766.7</ele>
        <time>2021-03-02T13:35:38Z</time>
        <extensions>
          <gpxtpx:TrackPointExtension xmlns:gpxtpx="http://www.garmin.com/xmlschemas/TrackPointExtension/v1">
            <gpxtpx:hr>121</gpxtpx:hr>
          </gpxtpx:TrackPointExtension>
        </extensions>
      </trkpt>
      <trkpt lat="45.98082" lon="6.19923">
        <ele>767</ele>
        <time>2021-03-02T13:35:39Z</time>
        <extensions>
          <gpxtpx:TrackPointExtension xmlns:gpxtpx="http://www.garmin.com/xmlschemas/TrackPointExtension/v1">
            <gpxtpx:hr>120</gpxtpx:hr>
          </gpxtpx:TrackPointExtension>
        </extensions>
      </trkpt>
      <trkpt lat="45.9808" lon="6.19932">
        <ele>767.4</ele>
        <time>2021-03-02T13:35:40Z</time>
        <extensions>
          <gpxtpx:TrackPointExtension xmlns:gpxtpx="http://www.garmin.com/xmlschemas/TrackPointExtension/v1">
            <gpxtpx:hr>121</gpxtpx:hr>
          </gpxtpx:TrackPointExtension>
        </extensions>
      </trkpt>
      <trkpt lat="45.98079" lon="6.19939">
        <ele>767.7</ele>
        <time>2021-03-02T13:35:41Z</time>
        <extensions>
          <gpxtpx:TrackPointExtension xmlns:gpxtpx="http://www.garmin.com/xmlschemas/TrackPointExtension/v1">
            <gpxtpx:hr>121</gpxtpx:hr>
          </gpxtpx:TrackPointExtension>
        </extensions>
      </trkpt>
      <trkpt lat="45.98078" lon="6.19946">
        <ele>768</ele>
        <time>2021-03-02T13:35:42Z</time>
        <extensions>
          <gpxtpx:TrackPointExtension xmlns:gpxtpx="http://www.garmin.com/xmlschemas/TrackPointExtension/v1">
            <gpxtpx:hr>120</gpxtpx:hr>
          </gpxtpx:TrackPointExtension>
        </extensions>
      </trkpt>
      <trkpt lat="45.98077" lon="6.19953">
        <ele>768.4</ele>
        <time>2021-03-02T13:35:43Z</time>
        <extensions>
          <gpxtpx:TrackPointExtension xmlns:gpxtpx="http://www.garmin.com/xmlschemas/TrackPointExtension/v1">
            <gpxtpx:hr>120</gpxtpx:hr>
          </gpxtpx:TrackPointExtension>
        </extensions>
      </trkpt>
      <trkpt lat="45.98076" lon="6.19959">
        <ele>768.8</ele>
        <time>2021-03-02T13:35:44Z</time>
        <extensions>
          <gpxtpx:TrackPointExtension xmlns:gpxtpx="http://www.garmin.com/xmlschemas/TrackPointExtension/v1">
            <gpxtpx:hr>120</gpxtpx:hr>
          </gpxtpx:TrackPointExtension>
        </extensions>
      </trkpt>
      <trkpt lat="45.98074" lon="6.19966">
        <ele>769.1</ele>
        <time>2021-03-02T13:35:45Z</time>
        <extensions>
          <gpxtpx:TrackPointExtension xmlns:gpxtpx="http://www.garmin.com/xmlschemas/TrackPointExtension/v1">
            <gpxtpx:hr>120</gpxtpx:hr>
          </gpxtpx:TrackPointExtension>
        </extensions>
      </trkpt>
      <trkpt lat="45.98073" lon="6.19971">
        <ele>769.5</ele>
        <time>2021-03-02T13:35:46Z</time>
        <extensions>
          <gpxtpx:TrackPointExtension xmlns:gpxtpx="http://www.garmin.com/xmlschemas/TrackPointExtension/v1">
            <gpxtpx:hr>120</gpxtpx:hr>
          </gpxtpx:TrackPointExtension>
        </extensions>
      </trkpt>
      <trkpt lat="45.98072" lon="6.19977">
        <ele>769.9</ele>
        <time>2021-03-02T13:35:47Z</time>
        <extensions>
          <gpxtpx:TrackPointExtension xmlns:gpxtpx="http://www.garmin.com/xmlschemas/TrackPointExtension/v1">
            <gpxtpx:hr>120</gpxtpx:hr>
          </gpxtpx:TrackPointExtension>
        </extensions>
      </trkpt>
      <trkpt lat="45.98071" lon="6.19983">
        <ele>770.2</ele>
        <time>2021-03-02T13:35:48Z</time>
        <extensions>
          <gpxtpx:TrackPointExtension xmlns:gpxtpx="http://www.garmin.com/xmlschemas/TrackPointExtension/v1">
            <gpxtpx:hr>121</gpxtpx:hr>
          </gpxtpx:TrackPointExtension>
        </extensions>
      </trkpt>
      <trkpt lat="45.9807" lon="6.19989">
        <ele>770.6</ele>
        <time>2021-03-02T13:35:49Z</time>
        <extensions>
          <gpxtpx:TrackPointExtension xmlns:gpxtpx="http://www.garmin.com/xmlschemas/TrackPointExtension/v1">
            <gpxtpx:hr>121</gpxtpx:hr>
          </gpxtpx:TrackPointExtension>
        </extensions>
      </trkpt>
      <trkpt lat="45.98069" lon="6.19995">
        <ele>770.9</ele>
        <time>2021-03-02T13:35:50Z</time>
        <extensions>
          <gpxtpx:TrackPointExtension xmlns:gpxtpx="http://www.garmin.com/xmlschemas/TrackPointExtension/v1">
            <gpxtpx:hr>121</gpxtpx:hr>
          </gpxtpx:TrackPointExtension>
        </extensions>
      </trkpt>
      <trkpt lat="45.98068" lon="6.20001">
        <ele>771.2</ele>
        <time>2021-03-02T13:35:51Z</time>
        <extensions>
          <gpxtpx:TrackPointExtension xmlns:gpxtpx="http://www.garmin.com/xmlschemas/TrackPointExtension/v1">
            <gpxtpx:hr>122</gpxtpx:hr>
          </gpxtpx:TrackPointExtension>
        </extensions>
      </trkpt>
      <trkpt lat="45.98067" lon="6.20007">
        <ele>771.6</ele>
        <time>2021-03-02T13:35:52Z</time>
        <extensions>
          <gpxtpx:TrackPointExtension xmlns:gpxtpx="http://www.garmin.com/xmlschemas/TrackPointExtension/v1">
            <gpxtpx:hr>122</gpxtpx:hr>
          </gpxtpx:TrackPointExtension>
        </extensions>
      </trkpt>
      <trkpt lat="45.98066" lon="6.20013">
        <ele>771.9</ele>
        <time>2021-03-02T13:35:53Z</time>
        <extensions>
          <gpxtpx:TrackPointExtension xmlns:gpxtpx="http://www.garmin.com/xmlschemas/TrackPointExtension/v1">
            <gpxtpx:hr>122</gpxtpx:hr>
          </gpxtpx:TrackPointExtension>
        </extensions>
      </trkpt>
      <trkpt lat="45.98066" lon="6.20019">
        <ele>772.2</ele>
        <time>2021-03-02T13:35:54Z</time>
        <extensions>
          <gpxtpx:TrackPointExtension xmlns:gpxtpx="http://www.garmin.com/xmlschemas/TrackPointExtension/v1">
            <gpxtpx:hr>122</gpxtpx:hr>
          </gpxtpx:TrackPointExtension>
        </extensions>
      </trkpt>
      <trkpt lat="45.98065" lon="6.20024">
        <ele>772.5</ele>
        <time>2021-03-02T13:35:55Z</time>
        <extensions>
          <gpxtpx:TrackPointExtension xmlns:gpxtpx="http://www.garmin.com/xmlschemas/TrackPointExtension/v1">
            <gpxtpx:hr>122</gpxtpx:hr>
          </gpxtpx:TrackPointExtension>
        </extensions>
      </trkpt>
      <trkpt lat="45.98065" lon="6.2003">
        <ele>772.8</ele>
        <time>2021-03-02T13:35:56Z</time>
        <extensions>
          <gpxtpx:TrackPointExtension xmlns:gpxtpx="http://www.garmin.com/xmlschemas/TrackPointExtension/v1">
            <gpxtpx:hr>123</gpxtpx:hr>
          </gpxtpx:TrackPointExtension>
        </extensions>
      </trkpt>
      <trkpt lat="45.98065" lon="6.20036">
        <ele>773</ele>
        <time>2021-03-02T13:35:57Z</time>
        <extensions>
          <gpxtpx:TrackPointExtension xmlns:gpxtpx="http://www.garmin.com/xmlschemas/TrackPointExtension/v1">
            <gpxtpx:hr>123</gpxtpx:hr>
          </gpxtpx:TrackPointExtension>
        </extensions>
      </trkpt>
      <trkpt lat="45.98064" lon="6.20041">
        <ele>773.3</ele>
        <time>2021-03-02T13:35:58Z</time>
        <extensions>
          <gpxtpx:TrackPointExtension xmlns:gpxtpx="http://www.garmin.com/xmlschemas/TrackPointExtension/v1">
            <gpxtpx:hr>123</gpxtpx:hr>
          </gpxtpx:TrackPointExtension>
        </extensions>
      </trkpt>
      <trkpt lat="45.98064" lon="6.20047">
        <ele>773.5</ele>
        <time>2021-03-02T13:35:59Z</time>
        <extensions>
          <gpxtpx:TrackPointExtension xmlns:gpxtpx="http://www.garmin.com/xmlschemas/TrackPointExtension/v1">
            <gpxtpx:hr>123</gpxtpx:hr>
          </gpxtpx:TrackPointExtension>
        </extensions>
      </trkpt>
      <trkpt lat="45.98064" lon="6.20053">
        <ele>773.8</ele>
        <time>2021-03-02T13:36:00Z</time>
        <extensions>
          <gpxtpx:TrackPointExtension xmlns:gpxtpx="http://www.garmin.com/xmlschemas/TrackPointExtension/v1">
            <gpxtpx:hr>123</gpxtpx:hr>
          </gpxtpx:TrackPointExtension>
        </extensions>
      </trkpt>
      <trkpt lat="45.98065" lon="6.20059">
        <ele>774</ele>
        <time>2021-03-02T13:36:01Z</time>
        <extensions>
          <gpxtpx:TrackPointExtension xmlns:gpxtpx="http://www.garmin.com/xmlschemas/TrackPointExtension/v1">
            <gpxtpx:hr>123</gpxtpx:hr>
          </gpxtpx:TrackPointExtension>
        </extensions>
      </trkpt>
      <trkpt lat="45.98065" lon="6.20066">
        <ele>774.2</ele>
        <time>2021-03-02T13:36:02Z</time>
        <extensions>
          <gpxtpx:TrackPointExtension xmlns:gpxtpx="http://www.garmin.com/xmlschemas/TrackPointExtension/v1">
            <gpxtpx:hr>123</gpxtpx:hr>
          </gpxtpx:TrackPointExtension>
        </extensions>
      </trkpt>
      <trkpt lat="45.98065" lon="6.20072">
        <ele>774.3</ele>
        <time>2021-03-02T13:36:03Z</time>
        <extensions>
          <gpxtpx:TrackPointExtension xmlns:gpxtpx="http://www.garmin.com/xmlschemas/TrackPointExtension/v1">
            <gpxtpx:hr>123</gpxtpx:hr>
          </gpxtpx:TrackPointExtension>
        </extensions>
      </trkpt>
      <trkpt lat="45.98065" lon="6.20078">
        <ele>774.5</ele>
        <time>2021-03-02T13:36:04Z</time>
        <extensions>
          <gpxtpx:TrackPointExtension xmlns:gpxtpx="http://www.garmin.com/xmlschemas/TrackPointExtension/v1">
            <gpxtpx:hr>124</gpxtpx:hr>
          </gpxtpx:TrackPointExtension>
        </extensions>
      </trkpt>
      <trkpt lat="45.98066" lon="6.20085">
        <ele>774.7</ele>
        <time>2021-03-02T13:36:05Z</time>
        <extensions>
          <gpxtpx:TrackPointExtension xmlns:gpxtpx="http://www.garmin.com/xmlschemas/TrackPointExtension/v1">
            <gpxtpx:hr>124</gpxtpx:hr>
          </gpxtpx:TrackPointExtension>
        </extensions>
      </trkpt>
      <trkpt lat="45.98066" lon="6.20091">
        <ele>774.8</ele>
        <time>2021-03-02T13:36:06Z</time>
        <extensions>
          <gpxtpx:TrackPointExtension xmlns:gpxtpx="http://www.garmin.com/xmlschemas/TrackPointExtension/v1">
            <gpxtpx:hr>124</gpxtpx:hr>
          </gpxtpx:TrackPointExtension>
        </extensions>
      </trkpt>
      <trkpt lat="45.98067" lon="6.20097">
        <ele>774.9</ele>
        <time>2021-03-02T13:36:07Z</time>
        <extensions>
          <gpxtpx:TrackPointExtension xmlns:gpxtpx="http://www.garmin.com/xmlschemas/TrackPointExtension/v1">
            <gpxtpx:hr>124</gpxtpx:hr>
          </gpxtpx:TrackPointExtension>
        </extensions>
      </trkpt>
      <trkpt lat="45.98067" lon="6.20104">
        <ele>775</ele>
        <time>2021-03-02T13:36:08Z</time>
        <extensions>
          <gpxtpx:TrackPointExtension xmlns:gpxtpx="http://www.garmin.com/xmlschemas/TrackPointExtension/v1">
            <gpxtpx:hr>125</gpxtpx:hr>
          </gpxtpx:TrackPointExtension>
        </extensions>
      </trkpt>
      <trkpt lat="45.98068" lon="6.20111">
        <ele>775.2</ele>
        <time>2021-03-02T13:36:09Z</time>
        <extensions>
          <gpxtpx:TrackPointExtension xmlns:gpxtpx="http://www.garmin.com/xmlschemas/TrackPointExtension/v1">
            <gpxtpx:hr>126</gpxtpx:hr>
          </gpxtpx:TrackPointExtension>
        </extensions>
      </trkpt>
      <trkpt lat="45.98068" lon="6.20117">
        <ele>775.3</ele>
        <time>2021-03-02T13:36:10Z</time>
        <extensions>
          <gpxtpx:TrackPointExtension xmlns:gpxtpx="http://www.garmin.com/xmlschemas/TrackPointExtension/v1">
            <gpxtpx:hr>127</gpxtpx:hr>
          </gpxtpx:TrackPointExtension>
        </extensions>
      </trkpt>
      <trkpt lat="45.98068" lon="6.20124">
        <ele>775.4</ele>
        <time>2021-03-02T13:36:11Z</time>
        <extensions>
          <gpxtpx:TrackPointExtension xmlns:gpxtpx="http://www.garmin.com/xmlschemas/TrackPointExtension/v1">
            <gpxtpx:hr>128</gpxtpx:hr>
          </gpxtpx:TrackPointExtension>
        </extensions>
      </trkpt>
      <trkpt lat="45.98067" lon="6.2013">
        <ele>775.6</ele>
        <time>2021-03-02T13:36:12Z</time>
        <extensions>
          <gpxtpx:TrackPointExtension xmlns:gpxtpx="http://www.garmin.com/xmlschemas/TrackPointExtension/v1">
            <gpxtpx:hr>133</gpxtpx:hr>
          </gpxtpx:TrackPointExtension>
        </extensions>
      </trkpt>
      <trkpt lat="45.98067" lon="6.20137">
        <ele>775.7</ele>
        <time>2021-03-02T13:36:13Z</time>
        <extensions>
          <gpxtpx:TrackPointExtension xmlns:gpxtpx="http://www.garmin.com/xmlschemas/TrackPointExtension/v1">
            <gpxtpx:hr>136</gpxtpx:hr>
          </gpxtpx:TrackPointExtension>
        </extensions>
      </trkpt>
      <trkpt lat="45.98067" lon="6.20143">
        <ele>775.8</ele>
        <time>2021-03-02T13:36:14Z</time>
        <extensions>
          <gpxtpx:TrackPointExtension xmlns:gpxtpx="http://www.garmin.com/xmlschemas/TrackPointExtension/v1">
            <gpxtpx:hr>138</gpxtpx:hr>
          </gpxtpx:TrackPointExtension>
        </extensions>
      </trkpt>
      <trkpt lat="45.98067" lon="6.2015">
        <ele>776</ele>
        <time>2021-03-02T13:36:15Z</time>
        <extensions>
          <gpxtpx:TrackPointExtension xmlns:gpxtpx="http://www.garmin.com/xmlschemas/TrackPointExtension/v1">
            <gpxtpx:hr>140</gpxtpx:hr>
          </gpxtpx:TrackPointExtension>
        </extensions>
      </trkpt>
      <trkpt lat="45.98068" lon="6.20157">
        <ele>776.2</ele>
        <time>2021-03-02T13:36:16Z</time>
        <extensions>
          <gpxtpx:TrackPointExtension xmlns:gpxtpx="http://www.garmin.com/xmlschemas/TrackPointExtension/v1">
            <gpxtpx:hr>142</gpxtpx:hr>
          </gpxtpx:TrackPointExtension>
        </extensions>
      </trkpt>
      <trkpt lat="45.98068" lon="6.20163">
        <ele>776.3</ele>
        <time>2021-03-02T13:36:17Z</time>
        <extensions>
          <gpxtpx:TrackPointExtension xmlns:gpxtpx="http://www.garmin.com/xmlschemas/TrackPointExtension/v1">
            <gpxtpx:hr>143</gpxtpx:hr>
          </gpxtpx:TrackPointExtension>
        </extensions>
      </trkpt>
      <trkpt lat="45.98068" lon="6.2017">
        <ele>776.5</ele>
        <time>2021-03-02T13:36:18Z</time>
        <extensions>
          <gpxtpx:TrackPointExtension xmlns:gpxtpx="http://www.garmin.com/xmlschemas/TrackPointExtension/v1">
            <gpxtpx:hr>144</gpxtpx:hr>
          </gpxtpx:TrackPointExtension>
        </extensions>
      </trkpt>
      <trkpt lat="45.98068" lon="6.20176">
        <ele>776.6</ele>
        <time>2021-03-02T13:36:19Z</time>
        <extensions>
          <gpxtpx:TrackPointExtension xmlns:gpxtpx="http://www.garmin.com/xmlschemas/TrackPointExtension/v1">
            <gpxtpx:hr>144</gpxtpx:hr>
          </gpxtpx:TrackPointExtension>
        </extensions>
      </trkpt>
      <trkpt lat="45.98068" lon="6.20183">
        <ele>776.8</ele>
        <time>2021-03-02T13:36:20Z</time>
        <extensions>
          <gpxtpx:TrackPointExtension xmlns:gpxtpx="http://www.garmin.com/xmlschemas/TrackPointExtension/v1">
            <gpxtpx:hr>145</gpxtpx:hr>
          </gpxtpx:TrackPointExtension>
        </extensions>
      </trkpt>
      <trkpt lat="45.98068" lon="6.2019">
        <ele>777</ele>
        <time>2021-03-02T13:36:21Z</time>
        <extensions>
          <gpxtpx:TrackPointExtension xmlns:gpxtpx="http://www.garmin.com/xmlschemas/TrackPointExtension/v1">
            <gpxtpx:hr>145</gpxtpx:hr>
          </gpxtpx:TrackPointExtension>
        </extensions>
      </trkpt>
      <trkpt lat="45.98069" lon="6.20196">
        <ele>777.1</ele>
        <time>2021-03-02T13:36:22Z</time>
        <extensions>
          <gpxtpx:TrackPointExtension xmlns:gpxtpx="http://www.garmin.com/xmlschemas/TrackPointExtension/v1">
            <gpxtpx:hr>145</gpxtpx:hr>
          </gpxtpx:TrackPointExtension>
        </extensions>
      </trkpt>
      <trkpt lat="45.98069" lon="6.20203">
        <ele>777.3</ele>
        <time>2021-03-02T13:36:23Z</time>
        <extensions>
          <gpxtpx:TrackPointExtension xmlns:gpxtpx="http://www.garmin.com/xmlschemas/TrackPointExtension/v1">
            <gpxtpx:hr>145</gpxtpx:hr>
          </gpxtpx:TrackPointExtension>
        </extensions>
      </trkpt>
      <trkpt lat="45.98069" lon="6.2021">
        <ele>777.5</ele>
        <time>2021-03-02T13:36:24Z</time>
        <extensions>
          <gpxtpx:TrackPointExtension xmlns:gpxtpx="http://www.garmin.com/xmlschemas/TrackPointExtension/v1">
            <gpxtpx:hr>146</gpxtpx:hr>
          </gpxtpx:TrackPointExtension>
        </extensions>
      </trkpt>
      <trkpt lat="45.98069" lon="6.20216">
        <ele>777.7</ele>
        <time>2021-03-02T13:36:25Z</time>
        <extensions>
          <gpxtpx:TrackPointExtension xmlns:gpxtpx="http://www.garmin.com/xmlschemas/TrackPointExtension/v1">
            <gpxtpx:hr>146</gpxtpx:hr>
          </gpxtpx:TrackPointExtension>
        </extensions>
      </trkpt>
      <trkpt lat="45.9807" lon="6.20223">
        <ele>777.8</ele>
        <time>2021-03-02T13:36:26Z</time>
        <extensions>
          <gpxtpx:TrackPointExtension xmlns:gpxtpx="http://www.garmin.com/xmlschemas/TrackPointExtension/v1">
            <gpxtpx:hr>146</gpxtpx:hr>
          </gpxtpx:TrackPointExtension>
        </extensions>
      </trkpt>
      <trkpt lat="45.9807" lon="6.2023">
        <ele>778</ele>
        <time>2021-03-02T13:36:27Z</time>
        <extensions>
          <gpxtpx:TrackPointExtension xmlns:gpxtpx="http://www.garmin.com/xmlschemas/TrackPointExtension/v1">
            <gpxtpx:hr>146</gpxtpx:hr>
          </gpxtpx:TrackPointExtension>
        </extensions>
      </trkpt>
      <trkpt lat="45.9807" lon="6.20236">
        <ele>778.2</ele>
        <time>2021-03-02T13:36:28Z</time>
        <extensions>
          <gpxtpx:TrackPointExtension xmlns:gpxtpx="http://www.garmin.com/xmlschemas/TrackPointExtension/v1">
            <gpxtpx:hr>146</gpxtpx:hr>
          </gpxtpx:TrackPointExtension>
        </extensions>
      </trkpt>
      <trkpt lat="45.9807" lon="6.20243">
        <ele>778.4</ele>
        <time>2021-03-02T13:36:29Z</time>
        <extensions>
          <gpxtpx:TrackPointExtension xmlns:gpxtpx="http://www.garmin.com/xmlschemas/TrackPointExtension/v1">
            <gpxtpx:hr>146</gpxtpx:hr>
          </gpxtpx:TrackPointExtension>
        </extensions>
      </trkpt>
      <trkpt lat="45.9807" lon="6.20249">
        <ele>778.6</ele>
        <time>2021-03-02T13:36:30Z</time>
        <extensions>
          <gpxtpx:TrackPointExtension xmlns:gpxtpx="http://www.garmin.com/xmlschemas/TrackPointExtension/v1">
            <gpxtpx:hr>146</gpxtpx:hr>
          </gpxtpx:TrackPointExtension>
        </extensions>
      </trkpt>
      <trkpt lat="45.9807" lon="6.20255">
        <ele>778.9</ele>
        <time>2021-03-02T13:36:31Z</time>
        <extensions>
          <gpxtpx:TrackPointExtension xmlns:gpxtpx="http://www.garmin.com/xmlschemas/TrackPointExtension/v1">
            <gpxtpx:hr>146</gpxtpx:hr>
          </gpxtpx:TrackPointExtension>
        </extensions>
      </trkpt>
      <trkpt lat="45.9807" lon="6.20261">
        <ele>779.1</ele>
        <time>2021-03-02T13:36:32Z</time>
        <extensions>
          <gpxtpx:TrackPointExtension xmlns:gpxtpx="http://www.garmin.com/xmlschemas/TrackPointExtension/v1">
            <gpxtpx:hr>146</gpxtpx:hr>
          </gpxtpx:TrackPointExtension>
        </extensions>
      </trkpt>
      <trkpt lat="45.9807" lon="6.20267">
        <ele>779.4</ele>
        <time>2021-03-02T13:36:33Z</time>
        <extensions>
          <gpxtpx:TrackPointExtension xmlns:gpxtpx="http://www.garmin.com/xmlschemas/TrackPointExtension/v1">
            <gpxtpx:hr>146</gpxtpx:hr>
          </gpxtpx:TrackPointExtension>
        </extensions>
      </trkpt>
      <trkpt lat="45.9807" lon="6.20273">
        <ele>779.6</ele>
        <time>2021-03-02T13:36:34Z</time>
        <extensions>
          <gpxtpx:TrackPointExtension xmlns:gpxtpx="http://www.garmin.com/xmlschemas/TrackPointExtension/v1">
            <gpxtpx:hr>146</gpxtpx:hr>
          </gpxtpx:TrackPointExtension>
        </extensions>
      </trkpt>
      <trkpt lat="45.9807" lon="6.20278">
        <ele>779.9</ele>
        <time>2021-03-02T13:36:35Z</time>
        <extensions>
          <gpxtpx:TrackPointExtension xmlns:gpxtpx="http://www.garmin.com/xmlschemas/TrackPointExtension/v1">
            <gpxtpx:hr>146</gpxtpx:hr>
          </gpxtpx:TrackPointExtension>
        </extensions>
      </trkpt>
      <trkpt lat="45.9807" lon="6.20283">
        <ele>780.2</ele>
        <time>2021-03-02T13:36:36Z</time>
        <extensions>
          <gpxtpx:TrackPointExtension xmlns:gpxtpx="http://www.garmin.com/xmlschemas/TrackPointExtension/v1">
            <gpxtpx:hr>146</gpxtpx:hr>
          </gpxtpx:TrackPointExtension>
        </extensions>
      </trkpt>
      <trkpt lat="45.9807" lon="6.20288">
        <ele>780.5</ele>
        <time>2021-03-02T13:36:37Z</time>
        <extensions>
          <gpxtpx:TrackPointExtension xmlns:gpxtpx="http://www.garmin.com/xmlschemas/TrackPointExtension/v1">
            <gpxtpx:hr>146</gpxtpx:hr>
          </gpxtpx:TrackPointExtension>
        </extensions>
      </trkpt>
      <trkpt lat="45.9807" lon="6.20292">
        <ele>780.7</ele>
        <time>2021-03-02T13:36:38Z</time>
        <extensions>
          <gpxtpx:TrackPointExtension xmlns:gpxtpx="http://www.garmin.com/xmlschemas/TrackPointExtension/v1">
            <gpxtpx:hr>146</gpxtpx:hr>
          </gpxtpx:TrackPointExtension>
        </extensions>
      </trkpt>
      <trkpt lat="45.9807" lon="6.20296">
        <ele>781</ele>
        <time>2021-03-02T13:36:39Z</time>
        <extensions>
          <gpxtpx:TrackPointExtension xmlns:gpxtpx="http://www.garmin.com/xmlschemas/TrackPointExtension/v1">
            <gpxtpx:hr>146</gpxtpx:hr>
          </gpxtpx:TrackPointExtension>
        </extensions>
      </trkpt>
      <trkpt lat="45.9807" lon="6.20301">
        <ele>781.2</ele>
        <time>2021-03-02T13:36:40Z</time>
        <extensions>
          <gpxtpx:TrackPointExtension xmlns:gpxtpx="http://www.garmin.com/xmlschemas/TrackPointExtension/v1">
            <gpxtpx:hr>146</gpxtpx:hr>
          </gpxtpx:TrackPointExtension>
        </extensions>
      </trkpt>
      <trkpt lat="45.9807" lon="6.20305">
        <ele>781.5</ele>
        <time>2021-03-02T13:36:41Z</time>
        <extensions>
          <gpxtpx:TrackPointExtension xmlns:gpxtpx="http://www.garmin.com/xmlschemas/TrackPointExtension/v1">
            <gpxtpx:hr>146</gpxtpx:hr>
          </gpxtpx:TrackPointExtension>
        </extensions>
      </trkpt>
      <trkpt lat="45.9807" lon="6.20308">
        <ele>781.7</ele>
        <time>2021-03-02T13:36:42Z</time>
        <extensions>
          <gpxtpx:TrackPointExtension xmlns:gpxtpx="http://www.garmin.com/xmlschemas/TrackPointExtension/v1">
            <gpxtpx:hr>146</gpxtpx:hr>
          </gpxtpx:TrackPointExtension>
        </extensions>
      </trkpt>
      <trkpt lat="45.9807" lon="6.20313">
        <ele>782</ele>
        <time>2021-03-02T13:36:43Z</time>
        <extensions>
          <gpxtpx:TrackPointExtension xmlns:gpxtpx="http://www.garmin.com/xmlschemas/TrackPointExtension/v1">
            <gpxtpx:hr>146</gpxtpx:hr>
          </gpxtpx:TrackPointExtension>
        </extensions>
      </trkpt>
      <trkpt lat="45.9807" lon="6.20317">
        <ele>782.3</ele>
        <time>2021-03-02T13:36:44Z</time>
        <extensions>
          <gpxtpx:TrackPointExtension xmlns:gpxtpx="http://www.garmin.com/xmlschemas/TrackPointExtension/v1">
            <gpxtpx:hr>145</gpxtpx:hr>
          </gpxtpx:TrackPointExtension>
        </extensions>
      </trkpt>
      <trkpt lat="45.98071" lon="6.20321">
        <ele>782.5</ele>
        <time>2021-03-02T13:36:45Z</time>
        <extensions>
          <gpxtpx:TrackPointExtension xmlns:gpxtpx="http://www.garmin.com/xmlschemas/TrackPointExtension/v1">
            <gpxtpx:hr>144</gpxtpx:hr>
          </gpxtpx:TrackPointExtension>
        </extensions>
      </trkpt>
      <trkpt lat="45.98071" lon="6.20325">
        <ele>782.8</ele>
        <time>2021-03-02T13:36:46Z</time>
        <extensions>
          <gpxtpx:TrackPointExtension xmlns:gpxtpx="http://www.garmin.com/xmlschemas/TrackPointExtension/v1">
            <gpxtpx:hr>144</gpxtpx:hr>
          </gpxtpx:TrackPointExtension>
        </extensions>
      </trkpt>
      <trkpt lat="45.98072" lon="6.2033">
        <ele>783</ele>
        <time>2021-03-02T13:36:47Z</time>
        <extensions>
          <gpxtpx:TrackPointExtension xmlns:gpxtpx="http://www.garmin.com/xmlschemas/TrackPointExtension/v1">
            <gpxtpx:hr>143</gpxtpx:hr>
          </gpxtpx:TrackPointExtension>
        </extensions>
      </trkpt>
      <trkpt lat="45.98073" lon="6.20334">
        <ele>783.3</ele>
        <time>2021-03-02T13:36:48Z</time>
        <extensions>
          <gpxtpx:TrackPointExtension xmlns:gpxtpx="http://www.garmin.com/xmlschemas/TrackPointExtension/v1">
            <gpxtpx:hr>143</gpxtpx:hr>
          </gpxtpx:TrackPointExtension>
        </extensions>
      </trkpt>
      <trkpt lat="45.98073" lon="6.20339">
        <ele>783.5</ele>
        <time>2021-03-02T13:36:49Z</time>
        <extensions>
          <gpxtpx:TrackPointExtension xmlns:gpxtpx="http://www.garmin.com/xmlschemas/TrackPointExtension/v1">
            <gpxtpx:hr>143</gpxtpx:hr>
          </gpxtpx:TrackPointExtension>
        </extensions>
      </trkpt>
      <trkpt lat="45.98074" lon="6.20344">
        <ele>783.7</ele>
        <time>2021-03-02T13:36:50Z</time>
        <extensions>
          <gpxtpx:TrackPointExtension xmlns:gpxtpx="http://www.garmin.com/xmlschemas/TrackPointExtension/v1">
            <gpxtpx:hr>144</gpxtpx:hr>
          </gpxtpx:TrackPointExtension>
        </extensions>
      </trkpt>
      <trkpt lat="45.98075" lon="6.20349">
        <ele>783.9</ele>
        <time>2021-03-02T13:36:51Z</time>
        <extensions>
          <gpxtpx:TrackPointExtension xmlns:gpxtpx="http://www.garmin.com/xmlschemas/TrackPointExtension/v1">
            <gpxtpx:hr>144</gpxtpx:hr>
          </gpxtpx:TrackPointExtension>
        </extensions>
      </trkpt>
      <trkpt lat="45.98076" lon="6.20354">
        <ele>784.1</ele>
        <time>2021-03-02T13:36:52Z</time>
        <extensions>
          <gpxtpx:TrackPointExtension xmlns:gpxtpx="http://www.garmin.com/xmlschemas/TrackPointExtension/v1">
            <gpxtpx:hr>144</gpxtpx:hr>
          </gpxtpx:TrackPointExtension>
        </extensions>
      </trkpt>
      <trkpt lat="45.98076" lon="6.2036">
        <ele>784.3</ele>
        <time>2021-03-02T13:36:53Z</time>
        <extensions>
          <gpxtpx:TrackPointExtension xmlns:gpxtpx="http://www.garmin.com/xmlschemas/TrackPointExtension/v1">
            <gpxtpx:hr>144</gpxtpx:hr>
          </gpxtpx:TrackPointExtension>
        </extensions>
      </trkpt>
      <trkpt lat="45.98077" lon="6.20365">
        <ele>784.5</ele>
        <time>2021-03-02T13:36:54Z</time>
        <extensions>
          <gpxtpx:TrackPointExtension xmlns:gpxtpx="http://www.garmin.com/xmlschemas/TrackPointExtension/v1">
            <gpxtpx:hr>144</gpxtpx:hr>
          </gpxtpx:TrackPointExtension>
        </extensions>
      </trkpt>
      <trkpt lat="45.98077" lon="6.20371">
        <ele>784.6</ele>
        <time>2021-03-02T13:36:55Z</time>
        <extensions>
          <gpxtpx:TrackPointExtension xmlns:gpxtpx="http://www.garmin.com/xmlschemas/TrackPointExtension/v1">
            <gpxtpx:hr>145</gpxtpx:hr>
          </gpxtpx:TrackPointExtension>
        </extensions>
      </trkpt>
      <trkpt lat="45.98077" lon="6.20376">
        <ele>784.8</ele>
        <time>2021-03-02T13:36:56Z</time>
        <extensions>
          <gpxtpx:TrackPointExtension xmlns:gpxtpx="http://www.garmin.com/xmlschemas/TrackPointExtension/v1">
            <gpxtpx:hr>145</gpxtpx:hr>
          </gpxtpx:TrackPointExtension>
        </extensions>
      </trkpt>
      <trkpt lat="45.98077" lon="6.20382">
        <ele>784.9</ele>
        <time>2021-03-02T13:36:57Z</time>
        <extensions>
          <gpxtpx:TrackPointExtension xmlns:gpxtpx="http://www.garmin.com/xmlschemas/TrackPointExtension/v1">
            <gpxtpx:hr>146</gpxtpx:hr>
          </gpxtpx:TrackPointExtension>
        </extensions>
      </trkpt>
      <trkpt lat="45.98077" lon="6.20388">
        <ele>785.1</ele>
        <time>2021-03-02T13:36:58Z</time>
        <extensions>
          <gpxtpx:TrackPointExtension xmlns:gpxtpx="http://www.garmin.com/xmlschemas/TrackPointExtension/v1">
            <gpxtpx:hr>146</gpxtpx:hr>
          </gpxtpx:TrackPointExtension>
        </extensions>
      </trkpt>
      <trkpt lat="45.98076" lon="6.20394">
        <ele>785.2</ele>
        <time>2021-03-02T13:36:59Z</time>
        <extensions>
          <gpxtpx:TrackPointExtension xmlns:gpxtpx="http://www.garmin.com/xmlschemas/TrackPointExtension/v1">
            <gpxtpx:hr>146</gpxtpx:hr>
          </gpxtpx:TrackPointExtension>
        </extensions>
      </trkpt>
      <trkpt lat="45.98075" lon="6.204">
        <ele>785.3</ele>
        <time>2021-03-02T13:37:00Z</time>
        <extensions>
          <gpxtpx:TrackPointExtension xmlns:gpxtpx="http://www.garmin.com/xmlschemas/TrackPointExtension/v1">
            <gpxtpx:hr>147</gpxtpx:hr>
          </gpxtpx:TrackPointExtension>
        </extensions>
      </trkpt>
      <trkpt lat="45.98074" lon="6.20405">
        <ele>785.5</ele>
        <time>2021-03-02T13:37:01Z</time>
        <extensions>
          <gpxtpx:TrackPointExtension xmlns:gpxtpx="http://www.garmin.com/xmlschemas/TrackPointExtension/v1">
            <gpxtpx:hr>147</gpxtpx:hr>
          </gpxtpx:TrackPointExtension>
        </extensions>
      </trkpt>
      <trkpt lat="45.98073" lon="6.20411">
        <ele>785.6</ele>
        <time>2021-03-02T13:37:02Z</time>
        <extensions>
          <gpxtpx:TrackPointExtension xmlns:gpxtpx="http://www.garmin.com/xmlschemas/TrackPointExtension/v1">
            <gpxtpx:hr>147</gpxtpx:hr>
          </gpxtpx:TrackPointExtension>
        </extensions>
      </trkpt>
      <trkpt lat="45.98072" lon="6.20417">
        <ele>785.7</ele>
        <time>2021-03-02T13:37:03Z</time>
        <extensions>
          <gpxtpx:TrackPointExtension xmlns:gpxtpx="http://www.garmin.com/xmlschemas/TrackPointExtension/v1">
            <gpxtpx:hr>147</gpxtpx:hr>
          </gpxtpx:TrackPointExtension>
        </extensions>
      </trkpt>
      <trkpt lat="45.98071" lon="6.20424">
        <ele>785.8</ele>
        <time>2021-03-02T13:37:04Z</time>
        <extensions>
          <gpxtpx:TrackPointExtension xmlns:gpxtpx="http://www.garmin.com/xmlschemas/TrackPointExtension/v1">
            <gpxtpx:hr>147</gpxtpx:hr>
          </gpxtpx:TrackPointExtension>
        </extensions>
      </trkpt>
      <trkpt lat="45.9807" lon="6.2043">
        <ele>786</ele>
        <time>2021-03-02T13:37:05Z</time>
        <extensions>
          <gpxtpx:TrackPointExtension xmlns:gpxtpx="http://www.garmin.com/xmlschemas/TrackPointExtension/v1">
            <gpxtpx:hr>147</gpxtpx:hr>
          </gpxtpx:TrackPointExtension>
        </extensions>
      </trkpt>
      <trkpt lat="45.98069" lon="6.20436">
        <ele>786.1</ele>
        <time>2021-03-02T13:37:06Z</time>
        <extensions>
          <gpxtpx:TrackPointExtension xmlns:gpxtpx="http://www.garmin.com/xmlschemas/TrackPointExtension/v1">
            <gpxtpx:hr>147</gpxtpx:hr>
          </gpxtpx:TrackPointExtension>
        </extensions>
      </trkpt>
      <trkpt lat="45.98068" lon="6.20442">
        <ele>786.3</ele>
        <time>2021-03-02T13:37:07Z</time>
        <extensions>
          <gpxtpx:TrackPointExtension xmlns:gpxtpx="http://www.garmin.com/xmlschemas/TrackPointExtension/v1">
            <gpxtpx:hr>148</gpxtpx:hr>
          </gpxtpx:TrackPointExtension>
        </extensions>
      </trkpt>
      <trkpt lat="45.98066" lon="6.20448">
        <ele>786.4</ele>
        <time>2021-03-02T13:37:08Z</time>
        <extensions>
          <gpxtpx:TrackPointExtension xmlns:gpxtpx="http://www.garmin.com/xmlschemas/TrackPointExtension/v1">
            <gpxtpx:hr>148</gpxtpx:hr>
          </gpxtpx:TrackPointExtension>
        </extensions>
      </trkpt>
      <trkpt lat="45.98065" lon="6.20454">
        <ele>786.6</ele>
        <time>2021-03-02T13:37:09Z</time>
        <extensions>
          <gpxtpx:TrackPointExtension xmlns:gpxtpx="http://www.garmin.com/xmlschemas/TrackPointExtension/v1">
            <gpxtpx:hr>148</gpxtpx:hr>
          </gpxtpx:TrackPointExtension>
        </extensions>
      </trkpt>
      <trkpt lat="45.98064" lon="6.20459">
        <ele>786.8</ele>
        <time>2021-03-02T13:37:10Z</time>
        <extensions>
          <gpxtpx:TrackPointExtension xmlns:gpxtpx="http://www.garmin.com/xmlschemas/TrackPointExtension/v1">
            <gpxtpx:hr>148</gpxtpx:hr>
          </gpxtpx:TrackPointExtension>
        </extensions>
      </trkpt>
      <trkpt lat="45.98063" lon="6.20465">
        <ele>787</ele>
        <time>2021-03-02T13:37:11Z</time>
        <extensions>
          <gpxtpx:TrackPointExtension xmlns:gpxtpx="http://www.garmin.com/xmlschemas/TrackPointExtension/v1">
            <gpxtpx:hr>147</gpxtpx:hr>
          </gpxtpx:TrackPointExtension>
        </extensions>
      </trkpt>
      <trkpt lat="45.98062" lon="6.2047">
        <ele>787.2</ele>
        <time>2021-03-02T13:37:12Z</time>
        <extensions>
          <gpxtpx:TrackPointExtension xmlns:gpxtpx="http://www.garmin.com/xmlschemas/TrackPointExtension/v1">
            <gpxtpx:hr>147</gpxtpx:hr>
          </gpxtpx:TrackPointExtension>
        </extensions>
      </trkpt>
      <trkpt lat="45.9806" lon="6.20476">
        <ele>787.4</ele>
        <time>2021-03-02T13:37:13Z</time>
        <extensions>
          <gpxtpx:TrackPointExtension xmlns:gpxtpx="http://www.garmin.com/xmlschemas/TrackPointExtension/v1">
            <gpxtpx:hr>147</gpxtpx:hr>
          </gpxtpx:TrackPointExtension>
        </extensions>
      </trkpt>
      <trkpt lat="45.98059" lon="6.2048">
        <ele>787.6</ele>
        <time>2021-03-02T13:37:14Z</time>
        <extensions>
          <gpxtpx:TrackPointExtension xmlns:gpxtpx="http://www.garmin.com/xmlschemas/TrackPointExtension/v1">
            <gpxtpx:hr>147</gpxtpx:hr>
          </gpxtpx:TrackPointExtension>
        </extensions>
      </trkpt>
      <trkpt lat="45.98058" lon="6.20485">
        <ele>787.8</ele>
        <time>2021-03-02T13:37:15Z</time>
        <extensions>
          <gpxtpx:TrackPointExtension xmlns:gpxtpx="http://www.garmin.com/xmlschemas/TrackPointExtension/v1">
            <gpxtpx:hr>146</gpxtpx:hr>
          </gpxtpx:TrackPointExtension>
        </extensions>
      </trkpt>
      <trkpt lat="45.98057" lon="6.2049">
        <ele>788.1</ele>
        <time>2021-03-02T13:37:16Z</time>
        <extensions>
          <gpxtpx:TrackPointExtension xmlns:gpxtpx="http://www.garmin.com/xmlschemas/TrackPointExtension/v1">
            <gpxtpx:hr>146</gpxtpx:hr>
          </gpxtpx:TrackPointExtension>
        </extensions>
      </trkpt>
      <trkpt lat="45.98056" lon="6.20495">
        <ele>788.3</ele>
        <time>2021-03-02T13:37:17Z</time>
        <extensions>
          <gpxtpx:TrackPointExtension xmlns:gpxtpx="http://www.garmin.com/xmlschemas/TrackPointExtension/v1">
            <gpxtpx:hr>146</gpxtpx:hr>
          </gpxtpx:TrackPointExtension>
        </extensions>
      </trkpt>
      <trkpt lat="45.98055" lon="6.205">
        <ele>788.5</ele>
        <time>2021-03-02T13:37:18Z</time>
        <extensions>
          <gpxtpx:TrackPointExtension xmlns:gpxtpx="http://www.garmin.com/xmlschemas/TrackPointExtension/v1">
            <gpxtpx:hr>146</gpxtpx:hr>
          </gpxtpx:TrackPointExtension>
        </extensions>
      </trkpt>
      <trkpt lat="45.98054" lon="6.20505">
        <ele>788.7</ele>
        <time>2021-03-02T13:37:19Z</time>
        <extensions>
          <gpxtpx:TrackPointExtension xmlns:gpxtpx="http://www.garmin.com/xmlschemas/TrackPointExtension/v1">
            <gpxtpx:hr>146</gpxtpx:hr>
          </gpxtpx:TrackPointExtension>
        </extensions>
      </trkpt>
      <trkpt lat="45.98052" lon="6.2051">
        <ele>788.9</ele>
        <time>2021-03-02T13:37:20Z</time>
        <extensions>
          <gpxtpx:TrackPointExtension xmlns:gpxtpx="http://www.garmin.com/xmlschemas/TrackPointExtension/v1">
            <gpxtpx:hr>146</gpxtpx:hr>
          </gpxtpx:TrackPointExtension>
        </extensions>
      </trkpt>
      <trkpt lat="45.98051" lon="6.20515">
        <ele>789.2</ele>
        <time>2021-03-02T13:37:21Z</time>
        <extensions>
          <gpxtpx:TrackPointExtension xmlns:gpxtpx="http://www.garmin.com/xmlschemas/TrackPointExtension/v1">
            <gpxtpx:hr>146</gpxtpx:hr>
          </gpxtpx:TrackPointExtension>
        </extensions>
      </trkpt>
      <trkpt lat="45.9805" lon="6.20521">
        <ele>789.4</ele>
        <time>2021-03-02T13:37:22Z</time>
        <extensions>
          <gpxtpx:TrackPointExtension xmlns:gpxtpx="http://www.garmin.com/xmlschemas/TrackPointExtension/v1">
            <gpxtpx:hr>146</gpxtpx:hr>
          </gpxtpx:TrackPointExtension>
        </extensions>
      </trkpt>
      <trkpt lat="45.98049" lon="6.20526">
        <ele>789.6</ele>
        <time>2021-03-02T13:37:23Z</time>
        <extensions>
          <gpxtpx:TrackPointExtension xmlns:gpxtpx="http://www.garmin.com/xmlschemas/TrackPointExtension/v1">
            <gpxtpx:hr>147</gpxtpx:hr>
          </gpxtpx:TrackPointExtension>
        </extensions>
      </trkpt>
      <trkpt lat="45.98048" lon="6.20531">
        <ele>789.8</ele>
        <time>2021-03-02T13:37:24Z</time>
        <extensions>
          <gpxtpx:TrackPointExtension xmlns:gpxtpx="http://www.garmin.com/xmlschemas/TrackPointExtension/v1">
            <gpxtpx:hr>147</gpxtpx:hr>
          </gpxtpx:TrackPointExtension>
        </extensions>
      </trkpt>
      <trkpt lat="45.98047" lon="6.20537">
        <ele>790</ele>
        <time>2021-03-02T13:37:25Z</time>
        <extensions>
          <gpxtpx:TrackPointExtension xmlns:gpxtpx="http://www.garmin.com/xmlschemas/TrackPointExtension/v1">
            <gpxtpx:hr>147</gpxtpx:hr>
          </gpxtpx:TrackPointExtension>
        </extensions>
      </trkpt>
      <trkpt lat="45.98046" lon="6.20542">
        <ele>790.2</ele>
        <time>2021-03-02T13:37:26Z</time>
        <extensions>
          <gpxtpx:TrackPointExtension xmlns:gpxtpx="http://www.garmin.com/xmlschemas/TrackPointExtension/v1">
            <gpxtpx:hr>147</gpxtpx:hr>
          </gpxtpx:TrackPointExtension>
        </extensions>
      </trkpt>
      <trkpt lat="45.98045" lon="6.20547">
        <ele>790.4</ele>
        <time>2021-03-02T13:37:27Z</time>
        <extensions>
          <gpxtpx:TrackPointExtension xmlns:gpxtpx="http://www.garmin.com/xmlschemas/TrackPointExtension/v1">
            <gpxtpx:hr>148</gpxtpx:hr>
          </gpxtpx:TrackPointExtension>
        </extensions>
      </trkpt>
      <trkpt lat="45.98044" lon="6.20553">
        <ele>790.5</ele>
        <time>2021-03-02T13:37:28Z</time>
        <extensions>
          <gpxtpx:TrackPointExtension xmlns:gpxtpx="http://www.garmin.com/xmlschemas/TrackPointExtension/v1">
            <gpxtpx:hr>148</gpxtpx:hr>
          </gpxtpx:TrackPointExtension>
        </extensions>
      </trkpt>
      <trkpt lat="45.98044" lon="6.20558">
        <ele>790.6</ele>
        <time>2021-03-02T13:37:29Z</time>
        <extensions>
          <gpxtpx:TrackPointExtension xmlns:gpxtpx="http://www.garmin.com/xmlschemas/TrackPointExtension/v1">
            <gpxtpx:hr>148</gpxtpx:hr>
          </gpxtpx:TrackPointExtension>
        </extensions>
      </trkpt>
      <trkpt lat="45.98044" lon="6.20563">
        <ele>790.8</ele>
        <time>2021-03-02T13:37:30Z</time>
        <extensions>
          <gpxtpx:TrackPointExtension xmlns:gpxtpx="http://www.garmin.com/xmlschemas/TrackPointExtension/v1">
            <gpxtpx:hr>148</gpxtpx:hr>
          </gpxtpx:TrackPointExtension>
        </extensions>
      </trkpt>
      <trkpt lat="45.98043" lon="6.20568">
        <ele>790.9</ele>
        <time>2021-03-02T13:37:31Z</time>
        <extensions>
          <gpxtpx:TrackPointExtension xmlns:gpxtpx="http://www.garmin.com/xmlschemas/TrackPointExtension/v1">
            <gpxtpx:hr>148</gpxtpx:hr>
          </gpxtpx:TrackPointExtension>
        </extensions>
      </trkpt>
      <trkpt lat="45.98043" lon="6.20573">
        <ele>791</ele>
        <time>2021-03-02T13:37:32Z</time>
        <extensions>
          <gpxtpx:TrackPointExtension xmlns:gpxtpx="http://www.garmin.com/xmlschemas/TrackPointExtension/v1">
            <gpxtpx:hr>148</gpxtpx:hr>
          </gpxtpx:TrackPointExtension>
        </extensions>
      </trkpt>
      <trkpt lat="45.98043" lon="6.20577">
        <ele>791.1</ele>
        <time>2021-03-02T13:37:33Z</time>
        <extensions>
          <gpxtpx:TrackPointExtension xmlns:gpxtpx="http://www.garmin.com/xmlschemas/TrackPointExtension/v1">
            <gpxtpx:hr>148</gpxtpx:hr>
          </gpxtpx:TrackPointExtension>
        </extensions>
      </trkpt>
      <trkpt lat="45.98043" lon="6.20581">
        <ele>791.1</ele>
        <time>2021-03-02T13:37:34Z</time>
        <extensions>
          <gpxtpx:TrackPointExtension xmlns:gpxtpx="http://www.garmin.com/xmlschemas/TrackPointExtension/v1">
            <gpxtpx:hr>148</gpxtpx:hr>
          </gpxtpx:TrackPointExtension>
        </extensions>
      </trkpt>
      <trkpt lat="45.98042" lon="6.20585">
        <ele>791.2</ele>
        <time>2021-03-02T13:37:35Z</time>
        <extensions>
          <gpxtpx:TrackPointExtension xmlns:gpxtpx="http://www.garmin.com/xmlschemas/TrackPointExtension/v1">
            <gpxtpx:hr>147</gpxtpx:hr>
          </gpxtpx:TrackPointExtension>
        </extensions>
      </trkpt>
      <trkpt lat="45.98043" lon="6.20589">
        <ele>791.3</ele>
        <time>2021-03-02T13:37:36Z</time>
        <extensions>
          <gpxtpx:TrackPointExtension xmlns:gpxtpx="http://www.garmin.com/xmlschemas/TrackPointExtension/v1">
            <gpxtpx:hr>147</gpxtpx:hr>
          </gpxtpx:TrackPointExtension>
        </extensions>
      </trkpt>
      <trkpt lat="45.98044" lon="6.20594">
        <ele>791.5</ele>
        <time>2021-03-02T13:37:37Z</time>
        <extensions>
          <gpxtpx:TrackPointExtension xmlns:gpxtpx="http://www.garmin.com/xmlschemas/TrackPointExtension/v1">
            <gpxtpx:hr>147</gpxtpx:hr>
          </gpxtpx:TrackPointExtension>
        </extensions>
      </trkpt>
      <trkpt lat="45.98045" lon="6.20599">
        <ele>791.6</ele>
        <time>2021-03-02T13:37:38Z</time>
        <extensions>
          <gpxtpx:TrackPointExtension xmlns:gpxtpx="http://www.garmin.com/xmlschemas/TrackPointExtension/v1">
            <gpxtpx:hr>146</gpxtpx:hr>
          </gpxtpx:TrackPointExtension>
        </extensions>
      </trkpt>
      <trkpt lat="45.98046" lon="6.20604">
        <ele>791.8</ele>
        <time>2021-03-02T13:37:39Z</time>
        <extensions>
          <gpxtpx:TrackPointExtension xmlns:gpxtpx="http://www.garmin.com/xmlschemas/TrackPointExtension/v1">
            <gpxtpx:hr>146</gpxtpx:hr>
          </gpxtpx:TrackPointExtension>
        </extensions>
      </trkpt>
      <trkpt lat="45.98046" lon="6.2061">
        <ele>791.9</ele>
        <time>2021-03-02T13:37:40Z</time>
        <extensions>
          <gpxtpx:TrackPointExtension xmlns:gpxtpx="http://www.garmin.com/xmlschemas/TrackPointExtension/v1">
            <gpxtpx:hr>145</gpxtpx:hr>
          </gpxtpx:TrackPointExtension>
        </extensions>
      </trkpt>
      <trkpt lat="45.98047" lon="6.20615">
        <ele>792.1</ele>
        <time>2021-03-02T13:37:41Z</time>
        <extensions>
          <gpxtpx:TrackPointExtension xmlns:gpxtpx="http://www.garmin.com/xmlschemas/TrackPointExtension/v1">
            <gpxtpx:hr>145</gpxtpx:hr>
          </gpxtpx:TrackPointExtension>
        </extensions>
      </trkpt>
      <trkpt lat="45.98048" lon="6.2062">
        <ele>792.2</ele>
        <time>2021-03-02T13:37:42Z</time>
        <extensions>
          <gpxtpx:TrackPointExtension xmlns:gpxtpx="http://www.garmin.com/xmlschemas/TrackPointExtension/v1">
            <gpxtpx:hr>145</gpxtpx:hr>
          </gpxtpx:TrackPointExtension>
        </extensions>
      </trkpt>
      <trkpt lat="45.98049" lon="6.20626">
        <ele>792.4</ele>
        <time>2021-03-02T13:37:43Z</time>
        <extensions>
          <gpxtpx:TrackPointExtension xmlns:gpxtpx="http://www.garmin.com/xmlschemas/TrackPointExtension/v1">
            <gpxtpx:hr>145</gpxtpx:hr>
          </gpxtpx:TrackPointExtension>
        </extensions>
      </trkpt>
      <trkpt lat="45.98049" lon="6.20631">
        <ele>792.5</ele>
        <time>2021-03-02T13:37:44Z</time>
        <extensions>
          <gpxtpx:TrackPointExtension xmlns:gpxtpx="http://www.garmin.com/xmlschemas/TrackPointExtension/v1">
            <gpxtpx:hr>145</gpxtpx:hr>
          </gpxtpx:TrackPointExtension>
        </extensions>
      </trkpt>
      <trkpt lat="45.98049" lon="6.20636">
        <ele>792.7</ele>
        <time>2021-03-02T13:37:45Z</time>
        <extensions>
          <gpxtpx:TrackPointExtension xmlns:gpxtpx="http://www.garmin.com/xmlschemas/TrackPointExtension/v1">
            <gpxtpx:hr>145</gpxtpx:hr>
          </gpxtpx:TrackPointExtension>
        </extensions>
      </trkpt>
      <trkpt lat="45.98049" lon="6.20642">
        <ele>792.9</ele>
        <time>2021-03-02T13:37:46Z</time>
        <extensions>
          <gpxtpx:TrackPointExtension xmlns:gpxtpx="http://www.garmin.com/xmlschemas/TrackPointExtension/v1">
            <gpxtpx:hr>145</gpxtpx:hr>
          </gpxtpx:TrackPointExtension>
        </extensions>
      </trkpt>
      <trkpt lat="45.98049" lon="6.20647">
        <ele>793.1</ele>
        <time>2021-03-02T13:37:47Z</time>
        <extensions>
          <gpxtpx:TrackPointExtension xmlns:gpxtpx="http://www.garmin.com/xmlschemas/TrackPointExtension/v1">
            <gpxtpx:hr>144</gpxtpx:hr>
          </gpxtpx:TrackPointExtension>
        </extensions>
      </trkpt>
      <trkpt lat="45.98048" lon="6.20653">
        <ele>793.3</ele>
        <time>2021-03-02T13:37:48Z</time>
        <extensions>
          <gpxtpx:TrackPointExtension xmlns:gpxtpx="http://www.garmin.com/xmlschemas/TrackPointExtension/v1">
            <gpxtpx:hr>144</gpxtpx:hr>
          </gpxtpx:TrackPointExtension>
        </extensions>
      </trkpt>
      <trkpt lat="45.98047" lon="6.20658">
        <ele>793.5</ele>
        <time>2021-03-02T13:37:49Z</time>
        <extensions>
          <gpxtpx:TrackPointExtension xmlns:gpxtpx="http://www.garmin.com/xmlschemas/TrackPointExtension/v1">
            <gpxtpx:hr>144</gpxtpx:hr>
          </gpxtpx:TrackPointExtension>
        </extensions>
      </trkpt>
      <trkpt lat="45.98046" lon="6.20663">
        <ele>793.7</ele>
        <time>2021-03-02T13:37:50Z</time>
        <extensions>
          <gpxtpx:TrackPointExtension xmlns:gpxtpx="http://www.garmin.com/xmlschemas/TrackPointExtension/v1">
            <gpxtpx:hr>143</gpxtpx:hr>
          </gpxtpx:TrackPointExtension>
        </extensions>
      </trkpt>
      <trkpt lat="45.98044" lon="6.20668">
        <ele>793.9</ele>
        <time>2021-03-02T13:37:51Z</time>
        <extensions>
          <gpxtpx:TrackPointExtension xmlns:gpxtpx="http://www.garmin.com/xmlschemas/TrackPointExtension/v1">
            <gpxtpx:hr>143</gpxtpx:hr>
          </gpxtpx:TrackPointExtension>
        </extensions>
      </trkpt>
      <trkpt lat="45.98042" lon="6.20672">
        <ele>794.2</ele>
        <time>2021-03-02T13:37:52Z</time>
        <extensions>
          <gpxtpx:TrackPointExtension xmlns:gpxtpx="http://www.garmin.com/xmlschemas/TrackPointExtension/v1">
            <gpxtpx:hr>143</gpxtpx:hr>
          </gpxtpx:TrackPointExtension>
        </extensions>
      </trkpt>
      <trkpt lat="45.9804" lon="6.20676">
        <ele>794.4</ele>
        <time>2021-03-02T13:37:53Z</time>
        <extensions>
          <gpxtpx:TrackPointExtension xmlns:gpxtpx="http://www.garmin.com/xmlschemas/TrackPointExtension/v1">
            <gpxtpx:hr>142</gpxtpx:hr>
          </gpxtpx:TrackPointExtension>
        </extensions>
      </trkpt>
      <trkpt lat="45.98038" lon="6.2068">
        <ele>794.6</ele>
        <time>2021-03-02T13:37:54Z</time>
        <extensions>
          <gpxtpx:TrackPointExtension xmlns:gpxtpx="http://www.garmin.com/xmlschemas/TrackPointExtension/v1">
            <gpxtpx:hr>142</gpxtpx:hr>
          </gpxtpx:TrackPointExtension>
        </extensions>
      </trkpt>
      <trkpt lat="45.98035" lon="6.20682">
        <ele>794.8</ele>
        <time>2021-03-02T13:37:55Z</time>
        <extensions>
          <gpxtpx:TrackPointExtension xmlns:gpxtpx="http://www.garmin.com/xmlschemas/TrackPointExtension/v1">
            <gpxtpx:hr>142</gpxtpx:hr>
          </gpxtpx:TrackPointExtension>
        </extensions>
      </trkpt>
      <trkpt lat="45.98033" lon="6.20685">
        <ele>795.1</ele>
        <time>2021-03-02T13:37:56Z</time>
        <extensions>
          <gpxtpx:TrackPointExtension xmlns:gpxtpx="http://www.garmin.com/xmlschemas/TrackPointExtension/v1">
            <gpxtpx:hr>142</gpxtpx:hr>
          </gpxtpx:TrackPointExtension>
        </extensions>
      </trkpt>
      <trkpt lat="45.9803" lon="6.20688">
        <ele>795.3</ele>
        <time>2021-03-02T13:37:57Z</time>
        <extensions>
          <gpxtpx:TrackPointExtension xmlns:gpxtpx="http://www.garmin.com/xmlschemas/TrackPointExtension/v1">
            <gpxtpx:hr>142</gpxtpx:hr>
          </gpxtpx:TrackPointExtension>
        </extensions>
      </trkpt>
      <trkpt lat="45.98027" lon="6.2069">
        <ele>795.6</ele>
        <time>2021-03-02T13:37:58Z</time>
        <extensions>
          <gpxtpx:TrackPointExtension xmlns:gpxtpx="http://www.garmin.com/xmlschemas/TrackPointExtension/v1">
            <gpxtpx:hr>142</gpxtpx:hr>
          </gpxtpx:TrackPointExtension>
        </extensions>
      </trkpt>
      <trkpt lat="45.98024" lon="6.20692">
        <ele>795.9</ele>
        <time>2021-03-02T13:37:59Z</time>
        <extensions>
          <gpxtpx:TrackPointExtension xmlns:gpxtpx="http://www.garmin.com/xmlschemas/TrackPointExtension/v1">
            <gpxtpx:hr>141</gpxtpx:hr>
          </gpxtpx:TrackPointExtension>
        </extensions>
      </trkpt>
      <trkpt lat="45.98021" lon="6.20695">
        <ele>796.1</ele>
        <time>2021-03-02T13:38:00Z</time>
        <extensions>
          <gpxtpx:TrackPointExtension xmlns:gpxtpx="http://www.garmin.com/xmlschemas/TrackPointExtension/v1">
            <gpxtpx:hr>141</gpxtpx:hr>
          </gpxtpx:TrackPointExtension>
        </extensions>
      </trkpt>
      <trkpt lat="45.98019" lon="6.20697">
        <ele>796.4</ele>
        <time>2021-03-02T13:38:01Z</time>
        <extensions>
          <gpxtpx:TrackPointExtension xmlns:gpxtpx="http://www.garmin.com/xmlschemas/TrackPointExtension/v1">
            <gpxtpx:hr>141</gpxtpx:hr>
          </gpxtpx:TrackPointExtension>
        </extensions>
      </trkpt>
      <trkpt lat="45.98017" lon="6.207">
        <ele>796.7</ele>
        <time>2021-03-02T13:38:02Z</time>
        <extensions>
          <gpxtpx:TrackPointExtension xmlns:gpxtpx="http://www.garmin.com/xmlschemas/TrackPointExtension/v1">
            <gpxtpx:hr>141</gpxtpx:hr>
          </gpxtpx:TrackPointExtension>
        </extensions>
      </trkpt>
      <trkpt lat="45.98015" lon="6.20703">
        <ele>796.9</ele>
        <time>2021-03-02T13:38:03Z</time>
        <extensions>
          <gpxtpx:TrackPointExtension xmlns:gpxtpx="http://www.garmin.com/xmlschemas/TrackPointExtension/v1">
            <gpxtpx:hr>141</gpxtpx:hr>
          </gpxtpx:TrackPointExtension>
        </extensions>
      </trkpt>
      <trkpt lat="45.98012" lon="6.20706">
        <ele>797.3</ele>
        <time>2021-03-02T13:38:04Z</time>
        <extensions>
          <gpxtpx:TrackPointExtension xmlns:gpxtpx="http://www.garmin.com/xmlschemas/TrackPointExtension/v1">
            <gpxtpx:hr>141</gpxtpx:hr>
          </gpxtpx:TrackPointExtension>
        </extensions>
      </trkpt>
      <trkpt lat="45.9801" lon="6.2071">
        <ele>797.6</ele>
        <time>2021-03-02T13:38:05Z</time>
        <extensions>
          <gpxtpx:TrackPointExtension xmlns:gpxtpx="http://www.garmin.com/xmlschemas/TrackPointExtension/v1">
            <gpxtpx:hr>140</gpxtpx:hr>
          </gpxtpx:TrackPointExtension>
        </extensions>
      </trkpt>
      <trkpt lat="45.98008" lon="6.20713">
        <ele>797.9</ele>
        <time>2021-03-02T13:38:06Z</time>
        <extensions>
          <gpxtpx:TrackPointExtension xmlns:gpxtpx="http://www.garmin.com/xmlschemas/TrackPointExtension/v1">
            <gpxtpx:hr>141</gpxtpx:hr>
          </gpxtpx:TrackPointExtension>
        </extensions>
      </trkpt>
      <trkpt lat="45.98007" lon="6.20717">
        <ele>798.2</ele>
        <time>2021-03-02T13:38:07Z</time>
        <extensions>
          <gpxtpx:TrackPointExtension xmlns:gpxtpx="http://www.garmin.com/xmlschemas/TrackPointExtension/v1">
            <gpxtpx:hr>141</gpxtpx:hr>
          </gpxtpx:TrackPointExtension>
        </extensions>
      </trkpt>
      <trkpt lat="45.98006" lon="6.20721">
        <ele>798.5</ele>
        <time>2021-03-02T13:38:08Z</time>
        <extensions>
          <gpxtpx:TrackPointExtension xmlns:gpxtpx="http://www.garmin.com/xmlschemas/TrackPointExtension/v1">
            <gpxtpx:hr>141</gpxtpx:hr>
          </gpxtpx:TrackPointExtension>
        </extensions>
      </trkpt>
      <trkpt lat="45.98005" lon="6.20724">
        <ele>798.8</ele>
        <time>2021-03-02T13:38:09Z</time>
        <extensions>
          <gpxtpx:TrackPointExtension xmlns:gpxtpx="http://www.garmin.com/xmlschemas/TrackPointExtension/v1">
            <gpxtpx:hr>141</gpxtpx:hr>
          </gpxtpx:TrackPointExtension>
        </extensions>
      </trkpt>
      <trkpt lat="45.98004" lon="6.20728">
        <ele>799.1</ele>
        <time>2021-03-02T13:38:10Z</time>
        <extensions>
          <gpxtpx:TrackPointExtension xmlns:gpxtpx="http://www.garmin.com/xmlschemas/TrackPointExtension/v1">
            <gpxtpx:hr>142</gpxtpx:hr>
          </gpxtpx:TrackPointExtension>
        </extensions>
      </trkpt>
      <trkpt lat="45.98003" lon="6.20731">
        <ele>799.4</ele>
        <time>2021-03-02T13:38:11Z</time>
        <extensions>
          <gpxtpx:TrackPointExtension xmlns:gpxtpx="http://www.garmin.com/xmlschemas/TrackPointExtension/v1">
            <gpxtpx:hr>142</gpxtpx:hr>
          </gpxtpx:TrackPointExtension>
        </extensions>
      </trkpt>
      <trkpt lat="45.98002" lon="6.20735">
        <ele>799.7</ele>
        <time>2021-03-02T13:38:12Z</time>
        <extensions>
          <gpxtpx:TrackPointExtension xmlns:gpxtpx="http://www.garmin.com/xmlschemas/TrackPointExtension/v1">
            <gpxtpx:hr>142</gpxtpx:hr>
          </gpxtpx:TrackPointExtension>
        </extensions>
      </trkpt>
      <trkpt lat="45.98001" lon="6.20739">
        <ele>800</ele>
        <time>2021-03-02T13:38:13Z</time>
        <extensions>
          <gpxtpx:TrackPointExtension xmlns:gpxtpx="http://www.garmin.com/xmlschemas/TrackPointExtension/v1">
            <gpxtpx:hr>142</gpxtpx:hr>
          </gpxtpx:TrackPointExtension>
        </extensions>
      </trkpt>
      <trkpt lat="45.98" lon="6.20742">
        <ele>800.3</ele>
        <time>2021-03-02T13:38:14Z</time>
        <extensions>
          <gpxtpx:TrackPointExtension xmlns:gpxtpx="http://www.garmin.com/xmlschemas/TrackPointExtension/v1">
            <gpxtpx:hr>142</gpxtpx:hr>
          </gpxtpx:TrackPointExtension>
        </extensions>
      </trkpt>
      <trkpt lat="45.98" lon="6.20746">
        <ele>800.6</ele>
        <time>2021-03-02T13:38:15Z</time>
        <extensions>
          <gpxtpx:TrackPointExtension xmlns:gpxtpx="http://www.garmin.com/xmlschemas/TrackPointExtension/v1">
            <gpxtpx:hr>143</gpxtpx:hr>
          </gpxtpx:TrackPointExtension>
        </extensions>
      </trkpt>
      <trkpt lat="45.97999" lon="6.20749">
        <ele>800.9</ele>
        <time>2021-03-02T13:38:16Z</time>
        <extensions>
          <gpxtpx:TrackPointExtension xmlns:gpxtpx="http://www.garmin.com/xmlschemas/TrackPointExtension/v1">
            <gpxtpx:hr>143</gpxtpx:hr>
          </gpxtpx:TrackPointExtension>
        </extensions>
      </trkpt>
      <trkpt lat="45.97998" lon="6.20753">
        <ele>801.2</ele>
        <time>2021-03-02T13:38:17Z</time>
        <extensions>
          <gpxtpx:TrackPointExtension xmlns:gpxtpx="http://www.garmin.com/xmlschemas/TrackPointExtension/v1">
            <gpxtpx:hr>143</gpxtpx:hr>
          </gpxtpx:TrackPointExtension>
        </extensions>
      </trkpt>
      <trkpt lat="45.97997" lon="6.20757">
        <ele>801.5</ele>
        <time>2021-03-02T13:38:18Z</time>
        <extensions>
          <gpxtpx:TrackPointExtension xmlns:gpxtpx="http://www.garmin.com/xmlschemas/TrackPointExtension/v1">
            <gpxtpx:hr>143</gpxtpx:hr>
          </gpxtpx:TrackPointExtension>
        </extensions>
      </trkpt>
      <trkpt lat="45.97996" lon="6.2076">
        <ele>801.8</ele>
        <time>2021-03-02T13:38:19Z</time>
        <extensions>
          <gpxtpx:TrackPointExtension xmlns:gpxtpx="http://www.garmin.com/xmlschemas/TrackPointExtension/v1">
            <gpxtpx:hr>143</gpxtpx:hr>
          </gpxtpx:TrackPointExtension>
        </extensions>
      </trkpt>
      <trkpt lat="45.97996" lon="6.20764">
        <ele>802.1</ele>
        <time>2021-03-02T13:38:20Z</time>
        <extensions>
          <gpxtpx:TrackPointExtension xmlns:gpxtpx="http://www.garmin.com/xmlschemas/TrackPointExtension/v1">
            <gpxtpx:hr>143</gpxtpx:hr>
          </gpxtpx:TrackPointExtension>
        </extensions>
      </trkpt>
      <trkpt lat="45.97995" lon="6.20768">
        <ele>802.4</ele>
        <time>2021-03-02T13:38:21Z</time>
        <extensions>
          <gpxtpx:TrackPointExtension xmlns:gpxtpx="http://www.garmin.com/xmlschemas/TrackPointExtension/v1">
            <gpxtpx:hr>143</gpxtpx:hr>
          </gpxtpx:TrackPointExtension>
        </extensions>
      </trkpt>
      <trkpt lat="45.97994" lon="6.20771">
        <ele>802.7</ele>
        <time>2021-03-02T13:38:22Z</time>
        <extensions>
          <gpxtpx:TrackPointExtension xmlns:gpxtpx="http://www.garmin.com/xmlschemas/TrackPointExtension/v1">
            <gpxtpx:hr>144</gpxtpx:hr>
          </gpxtpx:TrackPointExtension>
        </extensions>
      </trkpt>
      <trkpt lat="45.97993" lon="6.20775">
        <ele>803</ele>
        <time>2021-03-02T13:38:23Z</time>
        <extensions>
          <gpxtpx:TrackPointExtension xmlns:gpxtpx="http://www.garmin.com/xmlschemas/TrackPointExtension/v1">
            <gpxtpx:hr>144</gpxtpx:hr>
          </gpxtpx:TrackPointExtension>
        </extensions>
      </trkpt>
      <trkpt lat="45.97993" lon="6.20778">
        <ele>803.3</ele>
        <time>2021-03-02T13:38:24Z</time>
        <extensions>
          <gpxtpx:TrackPointExtension xmlns:gpxtpx="http://www.garmin.com/xmlschemas/TrackPointExtension/v1">
            <gpxtpx:hr>144</gpxtpx:hr>
          </gpxtpx:TrackPointExtension>
        </extensions>
      </trkpt>
      <trkpt lat="45.97992" lon="6.20781">
        <ele>803.6</ele>
        <time>2021-03-02T13:38:25Z</time>
        <extensions>
          <gpxtpx:TrackPointExtension xmlns:gpxtpx="http://www.garmin.com/xmlschemas/TrackPointExtension/v1">
            <gpxtpx:hr>145</gpxtpx:hr>
          </gpxtpx:TrackPointExtension>
        </extensions>
      </trkpt>
      <trkpt lat="45.97991" lon="6.20785">
        <ele>803.9</ele>
        <time>2021-03-02T13:38:26Z</time>
        <extensions>
          <gpxtpx:TrackPointExtension xmlns:gpxtpx="http://www.garmin.com/xmlschemas/TrackPointExtension/v1">
            <gpxtpx:hr>145</gpxtpx:hr>
          </gpxtpx:TrackPointExtension>
        </extensions>
      </trkpt>
      <trkpt lat="45.9799" lon="6.20788">
        <ele>804.2</ele>
        <time>2021-03-02T13:38:27Z</time>
        <extensions>
          <gpxtpx:TrackPointExtension xmlns:gpxtpx="http://www.garmin.com/xmlschemas/TrackPointExtension/v1">
            <gpxtpx:hr>146</gpxtpx:hr>
          </gpxtpx:TrackPointExtension>
        </extensions>
      </trkpt>
      <trkpt lat="45.9799" lon="6.20791">
        <ele>804.4</ele>
        <time>2021-03-02T13:38:28Z</time>
        <extensions>
          <gpxtpx:TrackPointExtension xmlns:gpxtpx="http://www.garmin.com/xmlschemas/TrackPointExtension/v1">
            <gpxtpx:hr>146</gpxtpx:hr>
          </gpxtpx:TrackPointExtension>
        </extensions>
      </trkpt>
      <trkpt lat="45.97989" lon="6.20795">
        <ele>804.7</ele>
        <time>2021-03-02T13:38:29Z</time>
        <extensions>
          <gpxtpx:TrackPointExtension xmlns:gpxtpx="http://www.garmin.com/xmlschemas/TrackPointExtension/v1">
            <gpxtpx:hr>146</gpxtpx:hr>
          </gpxtpx:TrackPointExtension>
        </extensions>
      </trkpt>
      <trkpt lat="45.97988" lon="6.20798">
        <ele>805</ele>
        <time>2021-03-02T13:38:30Z</time>
        <extensions>
          <gpxtpx:TrackPointExtension xmlns:gpxtpx="http://www.garmin.com/xmlschemas/TrackPointExtension/v1">
            <gpxtpx:hr>146</gpxtpx:hr>
          </gpxtpx:TrackPointExtension>
        </extensions>
      </trkpt>
      <trkpt lat="45.97987" lon="6.20801">
        <ele>805.3</ele>
        <time>2021-03-02T13:38:31Z</time>
        <extensions>
          <gpxtpx:TrackPointExtension xmlns:gpxtpx="http://www.garmin.com/xmlschemas/TrackPointExtension/v1">
            <gpxtpx:hr>146</gpxtpx:hr>
          </gpxtpx:TrackPointExtension>
        </extensions>
      </trkpt>
      <trkpt lat="45.97986" lon="6.20804">
        <ele>805.6</ele>
        <time>2021-03-02T13:38:32Z</time>
        <extensions>
          <gpxtpx:TrackPointExtension xmlns:gpxtpx="http://www.garmin.com/xmlschemas/TrackPointExtension/v1">
            <gpxtpx:hr>146</gpxtpx:hr>
          </gpxtpx:TrackPointExtension>
        </extensions>
      </trkpt>
      <trkpt lat="45.97985" lon="6.20807">
        <ele>805.8</ele>
        <time>2021-03-02T13:38:33Z</time>
        <extensions>
          <gpxtpx:TrackPointExtension xmlns:gpxtpx="http://www.garmin.com/xmlschemas/TrackPointExtension/v1">
            <gpxtpx:hr>146</gpxtpx:hr>
          </gpxtpx:TrackPointExtension>
        </extensions>
      </trkpt>
      <trkpt lat="45.97984" lon="6.20811">
        <ele>806.1</ele>
        <time>2021-03-02T13:38:34Z</time>
        <extensions>
          <gpxtpx:TrackPointExtension xmlns:gpxtpx="http://www.garmin.com/xmlschemas/TrackPointExtension/v1">
            <gpxtpx:hr>146</gpxtpx:hr>
          </gpxtpx:TrackPointExtension>
        </extensions>
      </trkpt>
      <trkpt lat="45.97984" lon="6.20814">
        <ele>806.3</ele>
        <time>2021-03-02T13:38:35Z</time>
        <extensions>
          <gpxtpx:TrackPointExtension xmlns:gpxtpx="http://www.garmin.com/xmlschemas/TrackPointExtension/v1">
            <gpxtpx:hr>146</gpxtpx:hr>
          </gpxtpx:TrackPointExtension>
        </extensions>
      </trkpt>
      <trkpt lat="45.97983" lon="6.20818">
        <ele>806.6</ele>
        <time>2021-03-02T13:38:36Z</time>
        <extensions>
          <gpxtpx:TrackPointExtension xmlns:gpxtpx="http://www.garmin.com/xmlschemas/TrackPointExtension/v1">
            <gpxtpx:hr>147</gpxtpx:hr>
          </gpxtpx:TrackPointExtension>
        </extensions>
      </trkpt>
      <trkpt lat="45.97982" lon="6.20821">
        <ele>806.9</ele>
        <time>2021-03-02T13:38:37Z</time>
        <extensions>
          <gpxtpx:TrackPointExtension xmlns:gpxtpx="http://www.garmin.com/xmlschemas/TrackPointExtension/v1">
            <gpxtpx:hr>147</gpxtpx:hr>
          </gpxtpx:TrackPointExtension>
        </extensions>
      </trkpt>
      <trkpt lat="45.97981" lon="6.20825">
        <ele>807.1</ele>
        <time>2021-03-02T13:38:38Z</time>
        <extensions>
          <gpxtpx:TrackPointExtension xmlns:gpxtpx="http://www.garmin.com/xmlschemas/TrackPointExtension/v1">
            <gpxtpx:hr>148</gpxtpx:hr>
          </gpxtpx:TrackPointExtension>
        </extensions>
      </trkpt>
      <trkpt lat="45.9798" lon="6.20828">
        <ele>807.4</ele>
        <time>2021-03-02T13:38:39Z</time>
        <extensions>
          <gpxtpx:TrackPointExtension xmlns:gpxtpx="http://www.garmin.com/xmlschemas/TrackPointExtension/v1">
            <gpxtpx:hr>148</gpxtpx:hr>
          </gpxtpx:TrackPointExtension>
        </extensions>
      </trkpt>
      <trkpt lat="45.97979" lon="6.20831">
        <ele>807.6</ele>
        <time>2021-03-02T13:38:40Z</time>
        <extensions>
          <gpxtpx:TrackPointExtension xmlns:gpxtpx="http://www.garmin.com/xmlschemas/TrackPointExtension/v1">
            <gpxtpx:hr>149</gpxtpx:hr>
          </gpxtpx:TrackPointExtension>
        </extensions>
      </trkpt>
      <trkpt lat="45.97979" lon="6.20835">
        <ele>807.9</ele>
        <time>2021-03-02T13:38:41Z</time>
        <extensions>
          <gpxtpx:TrackPointExtension xmlns:gpxtpx="http://www.garmin.com/xmlschemas/TrackPointExtension/v1">
            <gpxtpx:hr>150</gpxtpx:hr>
          </gpxtpx:TrackPointExtension>
        </extensions>
      </trkpt>
      <trkpt lat="45.97979" lon="6.20838">
        <ele>808.1</ele>
        <time>2021-03-02T13:38:42Z</time>
        <extensions>
          <gpxtpx:TrackPointExtension xmlns:gpxtpx="http://www.garmin.com/xmlschemas/TrackPointExtension/v1">
            <gpxtpx:hr>150</gpxtpx:hr>
          </gpxtpx:TrackPointExtension>
        </extensions>
      </trkpt>
      <trkpt lat="45.97978" lon="6.20842">
        <ele>808.3</ele>
        <time>2021-03-02T13:38:43Z</time>
        <extensions>
          <gpxtpx:TrackPointExtension xmlns:gpxtpx="http://www.garmin.com/xmlschemas/TrackPointExtension/v1">
            <gpxtpx:hr>149</gpxtpx:hr>
          </gpxtpx:TrackPointExtension>
        </extensions>
      </trkpt>
      <trkpt lat="45.97978" lon="6.20845">
        <ele>808.6</ele>
        <time>2021-03-02T13:38:44Z</time>
        <extensions>
          <gpxtpx:TrackPointExtension xmlns:gpxtpx="http://www.garmin.com/xmlschemas/TrackPointExtension/v1">
            <gpxtpx:hr>149</gpxtpx:hr>
          </gpxtpx:TrackPointExtension>
        </extensions>
      </trkpt>
      <trkpt lat="45.97979" lon="6.20848">
        <ele>808.8</ele>
        <time>2021-03-02T13:38:45Z</time>
        <extensions>
          <gpxtpx:TrackPointExtension xmlns:gpxtpx="http://www.garmin.com/xmlschemas/TrackPointExtension/v1">
            <gpxtpx:hr>148</gpxtpx:hr>
          </gpxtpx:TrackPointExtension>
        </extensions>
      </trkpt>
      <trkpt lat="45.9798" lon="6.20851">
        <ele>809</ele>
        <time>2021-03-02T13:38:46Z</time>
        <extensions>
          <gpxtpx:TrackPointExtension xmlns:gpxtpx="http://www.garmin.com/xmlschemas/TrackPointExtension/v1">
            <gpxtpx:hr>148</gpxtpx:hr>
          </gpxtpx:TrackPointExtension>
        </extensions>
      </trkpt>
      <trkpt lat="45.97981" lon="6.20855">
        <ele>809.3</ele>
        <time>2021-03-02T13:38:47Z</time>
        <extensions>
          <gpxtpx:TrackPointExtension xmlns:gpxtpx="http://www.garmin.com/xmlschemas/TrackPointExtension/v1">
            <gpxtpx:hr>148</gpxtpx:hr>
          </gpxtpx:TrackPointExtension>
        </extensions>
      </trkpt>
      <trkpt lat="45.97982" lon="6.20858">
        <ele>809.5</ele>
        <time>2021-03-02T13:38:48Z</time>
        <extensions>
          <gpxtpx:TrackPointExtension xmlns:gpxtpx="http://www.garmin.com/xmlschemas/TrackPointExtension/v1">
            <gpxtpx:hr>147</gpxtpx:hr>
          </gpxtpx:TrackPointExtension>
        </extensions>
      </trkpt>
      <trkpt lat="45.97983" lon="6.20861">
        <ele>809.7</ele>
        <time>2021-03-02T13:38:49Z</time>
        <extensions>
          <gpxtpx:TrackPointExtension xmlns:gpxtpx="http://www.garmin.com/xmlschemas/TrackPointExtension/v1">
            <gpxtpx:hr>147</gpxtpx:hr>
          </gpxtpx:TrackPointExtension>
        </extensions>
      </trkpt>
      <trkpt lat="45.97985" lon="6.20864">
        <ele>810</ele>
        <time>2021-03-02T13:38:50Z</time>
        <extensions>
          <gpxtpx:TrackPointExtension xmlns:gpxtpx="http://www.garmin.com/xmlschemas/TrackPointExtension/v1">
            <gpxtpx:hr>148</gpxtpx:hr>
          </gpxtpx:TrackPointExtension>
        </extensions>
      </trkpt>
      <trkpt lat="45.97986" lon="6.20867">
        <ele>810.2</ele>
        <time>2021-03-02T13:38:51Z</time>
        <extensions>
          <gpxtpx:TrackPointExtension xmlns:gpxtpx="http://www.garmin.com/xmlschemas/TrackPointExtension/v1">
            <gpxtpx:hr>149</gpxtpx:hr>
          </gpxtpx:TrackPointExtension>
        </extensions>
      </trkpt>
      <trkpt lat="45.97987" lon="6.2087">
        <ele>810.5</ele>
        <time>2021-03-02T13:38:52Z</time>
        <extensions>
          <gpxtpx:TrackPointExtension xmlns:gpxtpx="http://www.garmin.com/xmlschemas/TrackPointExtension/v1">
            <gpxtpx:hr>150</gpxtpx:hr>
          </gpxtpx:TrackPointExtension>
        </extensions>
      </trkpt>
      <trkpt lat="45.97989" lon="6.20873">
        <ele>810.8</ele>
        <time>2021-03-02T13:38:53Z</time>
        <extensions>
          <gpxtpx:TrackPointExtension xmlns:gpxtpx="http://www.garmin.com/xmlschemas/TrackPointExtension/v1">
            <gpxtpx:hr>150</gpxtpx:hr>
          </gpxtpx:TrackPointExtension>
        </extensions>
      </trkpt>
      <trkpt lat="45.9799" lon="6.20875">
        <ele>811</ele>
        <time>2021-03-02T13:38:54Z</time>
        <extensions>
          <gpxtpx:TrackPointExtension xmlns:gpxtpx="http://www.garmin.com/xmlschemas/TrackPointExtension/v1">
            <gpxtpx:hr>150</gpxtpx:hr>
          </gpxtpx:TrackPointExtension>
        </extensions>
      </trkpt>
      <trkpt lat="45.97992" lon="6.20878">
        <ele>811.3</ele>
        <time>2021-03-02T13:38:55Z</time>
        <extensions>
          <gpxtpx:TrackPointExtension xmlns:gpxtpx="http://www.garmin.com/xmlschemas/TrackPointExtension/v1">
            <gpxtpx:hr>149</gpxtpx:hr>
          </gpxtpx:TrackPointExtension>
        </extensions>
      </trkpt>
      <trkpt lat="45.97993" lon="6.20881">
        <ele>811.5</ele>
        <time>2021-03-02T13:38:56Z</time>
        <extensions>
          <gpxtpx:TrackPointExtension xmlns:gpxtpx="http://www.garmin.com/xmlschemas/TrackPointExtension/v1">
            <gpxtpx:hr>149</gpxtpx:hr>
          </gpxtpx:TrackPointExtension>
        </extensions>
      </trkpt>
      <trkpt lat="45.97994" lon="6.20884">
        <ele>811.8</ele>
        <time>2021-03-02T13:38:57Z</time>
        <extensions>
          <gpxtpx:TrackPointExtension xmlns:gpxtpx="http://www.garmin.com/xmlschemas/TrackPointExtension/v1">
            <gpxtpx:hr>148</gpxtpx:hr>
          </gpxtpx:TrackPointExtension>
        </extensions>
      </trkpt>
      <trkpt lat="45.97995" lon="6.20887">
        <ele>812</ele>
        <time>2021-03-02T13:38:58Z</time>
        <extensions>
          <gpxtpx:TrackPointExtension xmlns:gpxtpx="http://www.garmin.com/xmlschemas/TrackPointExtension/v1">
            <gpxtpx:hr>148</gpxtpx:hr>
          </gpxtpx:TrackPointExtension>
        </extensions>
      </trkpt>
      <trkpt lat="45.97995" lon="6.2089">
        <ele>812.3</ele>
        <time>2021-03-02T13:38:59Z</time>
        <extensions>
          <gpxtpx:TrackPointExtension xmlns:gpxtpx="http://www.garmin.com/xmlschemas/TrackPointExtension/v1">
            <gpxtpx:hr>148</gpxtpx:hr>
          </gpxtpx:TrackPointExtension>
        </extensions>
      </trkpt>
      <trkpt lat="45.97996" lon="6.20893">
        <ele>812.5</ele>
        <time>2021-03-02T13:39:00Z</time>
        <extensions>
          <gpxtpx:TrackPointExtension xmlns:gpxtpx="http://www.garmin.com/xmlschemas/TrackPointExtension/v1">
            <gpxtpx:hr>148</gpxtpx:hr>
          </gpxtpx:TrackPointExtension>
        </extensions>
      </trkpt>
      <trkpt lat="45.97996" lon="6.20897">
        <ele>812.8</ele>
        <time>2021-03-02T13:39:01Z</time>
        <extensions>
          <gpxtpx:TrackPointExtension xmlns:gpxtpx="http://www.garmin.com/xmlschemas/TrackPointExtension/v1">
            <gpxtpx:hr>148</gpxtpx:hr>
          </gpxtpx:TrackPointExtension>
        </extensions>
      </trkpt>
      <trkpt lat="45.97996" lon="6.209">
        <ele>813</ele>
        <time>2021-03-02T13:39:02Z</time>
        <extensions>
          <gpxtpx:TrackPointExtension xmlns:gpxtpx="http://www.garmin.com/xmlschemas/TrackPointExtension/v1">
            <gpxtpx:hr>148</gpxtpx:hr>
          </gpxtpx:TrackPointExtension>
        </extensions>
      </trkpt>
      <trkpt lat="45.97995" lon="6.20904">
        <ele>813.3</ele>
        <time>2021-03-02T13:39:03Z</time>
        <extensions>
          <gpxtpx:TrackPointExtension xmlns:gpxtpx="http://www.garmin.com/xmlschemas/TrackPointExtension/v1">
            <gpxtpx:hr>148</gpxtpx:hr>
          </gpxtpx:TrackPointExtension>
        </extensions>
      </trkpt>
      <trkpt lat="45.97994" lon="6.20907">
        <ele>813.6</ele>
        <time>2021-03-02T13:39:04Z</time>
        <extensions>
          <gpxtpx:TrackPointExtension xmlns:gpxtpx="http://www.garmin.com/xmlschemas/TrackPointExtension/v1">
            <gpxtpx:hr>148</gpxtpx:hr>
          </gpxtpx:TrackPointExtension>
        </extensions>
      </trkpt>
      <trkpt lat="45.97993" lon="6.2091">
        <ele>813.8</ele>
        <time>2021-03-02T13:39:05Z</time>
        <extensions>
          <gpxtpx:TrackPointExtension xmlns:gpxtpx="http://www.garmin.com/xmlschemas/TrackPointExtension/v1">
            <gpxtpx:hr>148</gpxtpx:hr>
          </gpxtpx:TrackPointExtension>
        </extensions>
      </trkpt>
      <trkpt lat="45.97992" lon="6.20914">
        <ele>814.1</ele>
        <time>2021-03-02T13:39:06Z</time>
        <extensions>
          <gpxtpx:TrackPointExtension xmlns:gpxtpx="http://www.garmin.com/xmlschemas/TrackPointExtension/v1">
            <gpxtpx:hr>148</gpxtpx:hr>
          </gpxtpx:TrackPointExtension>
        </extensions>
      </trkpt>
      <trkpt lat="45.97991" lon="6.20917">
        <ele>814.4</ele>
        <time>2021-03-02T13:39:07Z</time>
        <extensions>
          <gpxtpx:TrackPointExtension xmlns:gpxtpx="http://www.garmin.com/xmlschemas/TrackPointExtension/v1">
            <gpxtpx:hr>148</gpxtpx:hr>
          </gpxtpx:TrackPointExtension>
        </extensions>
      </trkpt>
      <trkpt lat="45.9799" lon="6.2092">
        <ele>814.6</ele>
        <time>2021-03-02T13:39:08Z</time>
        <extensions>
          <gpxtpx:TrackPointExtension xmlns:gpxtpx="http://www.garmin.com/xmlschemas/TrackPointExtension/v1">
            <gpxtpx:hr>149</gpxtpx:hr>
          </gpxtpx:TrackPointExtension>
        </extensions>
      </trkpt>
      <trkpt lat="45.97989" lon="6.20923">
        <ele>814.9</ele>
        <time>2021-03-02T13:39:09Z</time>
        <extensions>
          <gpxtpx:TrackPointExtension xmlns:gpxtpx="http://www.garmin.com/xmlschemas/TrackPointExtension/v1">
            <gpxtpx:hr>149</gpxtpx:hr>
          </gpxtpx:TrackPointExtension>
        </extensions>
      </trkpt>
      <trkpt lat="45.97988" lon="6.20926">
        <ele>815.1</ele>
        <time>2021-03-02T13:39:10Z</time>
        <extensions>
          <gpxtpx:TrackPointExtension xmlns:gpxtpx="http://www.garmin.com/xmlschemas/TrackPointExtension/v1">
            <gpxtpx:hr>149</gpxtpx:hr>
          </gpxtpx:TrackPointExtension>
        </extensions>
      </trkpt>
      <trkpt lat="45.97987" lon="6.20929">
        <ele>815.4</ele>
        <time>2021-03-02T13:39:11Z</time>
        <extensions>
          <gpxtpx:TrackPointExtension xmlns:gpxtpx="http://www.garmin.com/xmlschemas/TrackPointExtension/v1">
            <gpxtpx:hr>149</gpxtpx:hr>
          </gpxtpx:TrackPointExtension>
        </extensions>
      </trkpt>
      <trkpt lat="45.97985" lon="6.20932">
        <ele>815.7</ele>
        <time>2021-03-02T13:39:12Z</time>
        <extensions>
          <gpxtpx:TrackPointExtension xmlns:gpxtpx="http://www.garmin.com/xmlschemas/TrackPointExtension/v1">
            <gpxtpx:hr>150</gpxtpx:hr>
          </gpxtpx:TrackPointExtension>
        </extensions>
      </trkpt>
      <trkpt lat="45.97984" lon="6.20935">
        <ele>815.9</ele>
        <time>2021-03-02T13:39:13Z</time>
        <extensions>
          <gpxtpx:TrackPointExtension xmlns:gpxtpx="http://www.garmin.com/xmlschemas/TrackPointExtension/v1">
            <gpxtpx:hr>151</gpxtpx:hr>
          </gpxtpx:TrackPointExtension>
        </extensions>
      </trkpt>
      <trkpt lat="45.97983" lon="6.20938">
        <ele>816.2</ele>
        <time>2021-03-02T13:39:14Z</time>
        <extensions>
          <gpxtpx:TrackPointExtension xmlns:gpxtpx="http://www.garmin.com/xmlschemas/TrackPointExtension/v1">
            <gpxtpx:hr>151</gpxtpx:hr>
          </gpxtpx:TrackPointExtension>
        </extensions>
      </trkpt>
      <trkpt lat="45.97982" lon="6.20941">
        <ele>816.5</ele>
        <time>2021-03-02T13:39:15Z</time>
        <extensions>
          <gpxtpx:TrackPointExtension xmlns:gpxtpx="http://www.garmin.com/xmlschemas/TrackPointExtension/v1">
            <gpxtpx:hr>152</gpxtpx:hr>
          </gpxtpx:TrackPointExtension>
        </extensions>
      </trkpt>
      <trkpt lat="45.9798" lon="6.20944">
        <ele>816.8</ele>
        <time>2021-03-02T13:39:16Z</time>
        <extensions>
          <gpxtpx:TrackPointExtension xmlns:gpxtpx="http://www.garmin.com/xmlschemas/TrackPointExtension/v1">
            <gpxtpx:hr>153</gpxtpx:hr>
          </gpxtpx:TrackPointExtension>
        </extensions>
      </trkpt>
      <trkpt lat="45.9798" lon="6.20947">
        <ele>817</ele>
        <time>2021-03-02T13:39:17Z</time>
        <extensions>
          <gpxtpx:TrackPointExtension xmlns:gpxtpx="http://www.garmin.com/xmlschemas/TrackPointExtension/v1">
            <gpxtpx:hr>153</gpxtpx:hr>
          </gpxtpx:TrackPointExtension>
        </extensions>
      </trkpt>
      <trkpt lat="45.97979" lon="6.2095">
        <ele>817.3</ele>
        <time>2021-03-02T13:39:18Z</time>
        <extensions>
          <gpxtpx:TrackPointExtension xmlns:gpxtpx="http://www.garmin.com/xmlschemas/TrackPointExtension/v1">
            <gpxtpx:hr>154</gpxtpx:hr>
          </gpxtpx:TrackPointExtension>
        </extensions>
      </trkpt>
      <trkpt lat="45.97978" lon="6.20953">
        <ele>817.5</ele>
        <time>2021-03-02T13:39:19Z</time>
        <extensions>
          <gpxtpx:TrackPointExtension xmlns:gpxtpx="http://www.garmin.com/xmlschemas/TrackPointExtension/v1">
            <gpxtpx:hr>154</gpxtpx:hr>
          </gpxtpx:TrackPointExtension>
        </extensions>
      </trkpt>
      <trkpt lat="45.97977" lon="6.20956">
        <ele>817.8</ele>
        <time>2021-03-02T13:39:20Z</time>
        <extensions>
          <gpxtpx:TrackPointExtension xmlns:gpxtpx="http://www.garmin.com/xmlschemas/TrackPointExtension/v1">
            <gpxtpx:hr>154</gpxtpx:hr>
          </gpxtpx:TrackPointExtension>
        </extensions>
      </trkpt>
      <trkpt lat="45.97975" lon="6.20959">
        <ele>818</ele>
        <time>2021-03-02T13:39:21Z</time>
        <extensions>
          <gpxtpx:TrackPointExtension xmlns:gpxtpx="http://www.garmin.com/xmlschemas/TrackPointExtension/v1">
            <gpxtpx:hr>155</gpxtpx:hr>
          </gpxtpx:TrackPointExtension>
        </extensions>
      </trkpt>
      <trkpt lat="45.97974" lon="6.20962">
        <ele>818.3</ele>
        <time>2021-03-02T13:39:22Z</time>
        <extensions>
          <gpxtpx:TrackPointExtension xmlns:gpxtpx="http://www.garmin.com/xmlschemas/TrackPointExtension/v1">
            <gpxtpx:hr>155</gpxtpx:hr>
          </gpxtpx:TrackPointExtension>
        </extensions>
      </trkpt>
      <trkpt lat="45.97973" lon="6.20965">
        <ele>818.5</ele>
        <time>2021-03-02T13:39:23Z</time>
        <extensions>
          <gpxtpx:TrackPointExtension xmlns:gpxtpx="http://www.garmin.com/xmlschemas/TrackPointExtension/v1">
            <gpxtpx:hr>155</gpxtpx:hr>
          </gpxtpx:TrackPointExtension>
        </extensions>
      </trkpt>
      <trkpt lat="45.97971" lon="6.20968">
        <ele>818.8</ele>
        <time>2021-03-02T13:39:24Z</time>
        <extensions>
          <gpxtpx:TrackPointExtension xmlns:gpxtpx="http://www.garmin.com/xmlschemas/TrackPointExtension/v1">
            <gpxtpx:hr>155</gpxtpx:hr>
          </gpxtpx:TrackPointExtension>
        </extensions>
      </trkpt>
      <trkpt lat="45.9797" lon="6.20971">
        <ele>819.1</ele>
        <time>2021-03-02T13:39:25Z</time>
        <extensions>
          <gpxtpx:TrackPointExtension xmlns:gpxtpx="http://www.garmin.com/xmlschemas/TrackPointExtension/v1">
            <gpxtpx:hr>155</gpxtpx:hr>
          </gpxtpx:TrackPointExtension>
        </extensions>
      </trkpt>
      <trkpt lat="45.97969" lon="6.20975">
        <ele>819.3</ele>
        <time>2021-03-02T13:39:26Z</time>
        <extensions>
          <gpxtpx:TrackPointExtension xmlns:gpxtpx="http://www.garmin.com/xmlschemas/TrackPointExtension/v1">
            <gpxtpx:hr>155</gpxtpx:hr>
          </gpxtpx:TrackPointExtension>
        </extensions>
      </trkpt>
      <trkpt lat="45.97968" lon="6.20978">
        <ele>819.6</ele>
        <time>2021-03-02T13:39:27Z</time>
        <extensions>
          <gpxtpx:TrackPointExtension xmlns:gpxtpx="http://www.garmin.com/xmlschemas/TrackPointExtension/v1">
            <gpxtpx:hr>155</gpxtpx:hr>
          </gpxtpx:TrackPointExtension>
        </extensions>
      </trkpt>
      <trkpt lat="45.97967" lon="6.20981">
        <ele>819.8</ele>
        <time>2021-03-02T13:39:28Z</time>
        <extensions>
          <gpxtpx:TrackPointExtension xmlns:gpxtpx="http://www.garmin.com/xmlschemas/TrackPointExtension/v1">
            <gpxtpx:hr>156</gpxtpx:hr>
          </gpxtpx:TrackPointExtension>
        </extensions>
      </trkpt>
      <trkpt lat="45.97966" lon="6.20985">
        <ele>820.1</ele>
        <time>2021-03-02T13:39:29Z</time>
        <extensions>
          <gpxtpx:TrackPointExtension xmlns:gpxtpx="http://www.garmin.com/xmlschemas/TrackPointExtension/v1">
            <gpxtpx:hr>156</gpxtpx:hr>
          </gpxtpx:TrackPointExtension>
        </extensions>
      </trkpt>
      <trkpt lat="45.97965" lon="6.20988">
        <ele>820.3</ele>
        <time>2021-03-02T13:39:30Z</time>
        <extensions>
          <gpxtpx:TrackPointExtension xmlns:gpxtpx="http://www.garmin.com/xmlschemas/TrackPointExtension/v1">
            <gpxtpx:hr>155</gpxtpx:hr>
          </gpxtpx:TrackPointExtension>
        </extensions>
      </trkpt>
      <trkpt lat="45.97964" lon="6.20992">
        <ele>820.5</ele>
        <time>2021-03-02T13:39:31Z</time>
        <extensions>
          <gpxtpx:TrackPointExtension xmlns:gpxtpx="http://www.garmin.com/xmlschemas/TrackPointExtension/v1">
            <gpxtpx:hr>154</gpxtpx:hr>
          </gpxtpx:TrackPointExtension>
        </extensions>
      </trkpt>
      <trkpt lat="45.97962" lon="6.20995">
        <ele>820.8</ele>
        <time>2021-03-02T13:39:32Z</time>
        <extensions>
          <gpxtpx:TrackPointExtension xmlns:gpxtpx="http://www.garmin.com/xmlschemas/TrackPointExtension/v1">
            <gpxtpx:hr>153</gpxtpx:hr>
          </gpxtpx:TrackPointExtension>
        </extensions>
      </trkpt>
      <trkpt lat="45.97961" lon="6.20998">
        <ele>821</ele>
        <time>2021-03-02T13:39:33Z</time>
        <extensions>
          <gpxtpx:TrackPointExtension xmlns:gpxtpx="http://www.garmin.com/xmlschemas/TrackPointExtension/v1">
            <gpxtpx:hr>152</gpxtpx:hr>
          </gpxtpx:TrackPointExtension>
        </extensions>
      </trkpt>
      <trkpt lat="45.9796" lon="6.21001">
        <ele>821.2</ele>
        <time>2021-03-02T13:39:34Z</time>
        <extensions>
          <gpxtpx:TrackPointExtension xmlns:gpxtpx="http://www.garmin.com/xmlschemas/TrackPointExtension/v1">
            <gpxtpx:hr>154</gpxtpx:hr>
          </gpxtpx:TrackPointExtension>
        </extensions>
      </trkpt>
      <trkpt lat="45.97959" lon="6.21005">
        <ele>821.4</ele>
        <time>2021-03-02T13:39:35Z</time>
        <extensions>
          <gpxtpx:TrackPointExtension xmlns:gpxtpx="http://www.garmin.com/xmlschemas/TrackPointExtension/v1">
            <gpxtpx:hr>155</gpxtpx:hr>
          </gpxtpx:TrackPointExtension>
        </extensions>
      </trkpt>
      <trkpt lat="45.97958" lon="6.21008">
        <ele>821.6</ele>
        <time>2021-03-02T13:39:36Z</time>
        <extensions>
          <gpxtpx:TrackPointExtension xmlns:gpxtpx="http://www.garmin.com/xmlschemas/TrackPointExtension/v1">
            <gpxtpx:hr>155</gpxtpx:hr>
          </gpxtpx:TrackPointExtension>
        </extensions>
      </trkpt>
      <trkpt lat="45.97956" lon="6.21011">
        <ele>821.8</ele>
        <time>2021-03-02T13:39:37Z</time>
        <extensions>
          <gpxtpx:TrackPointExtension xmlns:gpxtpx="http://www.garmin.com/xmlschemas/TrackPointExtension/v1">
            <gpxtpx:hr>156</gpxtpx:hr>
          </gpxtpx:TrackPointExtension>
        </extensions>
      </trkpt>
      <trkpt lat="45.97955" lon="6.21014">
        <ele>822</ele>
        <time>2021-03-02T13:39:38Z</time>
        <extensions>
          <gpxtpx:TrackPointExtension xmlns:gpxtpx="http://www.garmin.com/xmlschemas/TrackPointExtension/v1">
            <gpxtpx:hr>156</gpxtpx:hr>
          </gpxtpx:TrackPointExtension>
        </extensions>
      </trkpt>
      <trkpt lat="45.97954" lon="6.21017">
        <ele>822.2</ele>
        <time>2021-03-02T13:39:39Z</time>
        <extensions>
          <gpxtpx:TrackPointExtension xmlns:gpxtpx="http://www.garmin.com/xmlschemas/TrackPointExtension/v1">
            <gpxtpx:hr>156</gpxtpx:hr>
          </gpxtpx:TrackPointExtension>
        </extensions>
      </trkpt>
      <trkpt lat="45.97953" lon="6.21021">
        <ele>822.5</ele>
        <time>2021-03-02T13:39:40Z</time>
        <extensions>
          <gpxtpx:TrackPointExtension xmlns:gpxtpx="http://www.garmin.com/xmlschemas/TrackPointExtension/v1">
            <gpxtpx:hr>156</gpxtpx:hr>
          </gpxtpx:TrackPointExtension>
        </extensions>
      </trkpt>
      <trkpt lat="45.97951" lon="6.21024">
        <ele>822.7</ele>
        <time>2021-03-02T13:39:41Z</time>
        <extensions>
          <gpxtpx:TrackPointExtension xmlns:gpxtpx="http://www.garmin.com/xmlschemas/TrackPointExtension/v1">
            <gpxtpx:hr>156</gpxtpx:hr>
          </gpxtpx:TrackPointExtension>
        </extensions>
      </trkpt>
      <trkpt lat="45.97949" lon="6.21027">
        <ele>822.9</ele>
        <time>2021-03-02T13:39:42Z</time>
        <extensions>
          <gpxtpx:TrackPointExtension xmlns:gpxtpx="http://www.garmin.com/xmlschemas/TrackPointExtension/v1">
            <gpxtpx:hr>156</gpxtpx:hr>
          </gpxtpx:TrackPointExtension>
        </extensions>
      </trkpt>
      <trkpt lat="45.97948" lon="6.2103">
        <ele>823.1</ele>
        <time>2021-03-02T13:39:43Z</time>
        <extensions>
          <gpxtpx:TrackPointExtension xmlns:gpxtpx="http://www.garmin.com/xmlschemas/TrackPointExtension/v1">
            <gpxtpx:hr>156</gpxtpx:hr>
          </gpxtpx:TrackPointExtension>
        </extensions>
      </trkpt>
      <trkpt lat="45.97947" lon="6.21034">
        <ele>823.3</ele>
        <time>2021-03-02T13:39:44Z</time>
        <extensions>
          <gpxtpx:TrackPointExtension xmlns:gpxtpx="http://www.garmin.com/xmlschemas/TrackPointExtension/v1">
            <gpxtpx:hr>156</gpxtpx:hr>
          </gpxtpx:TrackPointExtension>
        </extensions>
      </trkpt>
      <trkpt lat="45.97945" lon="6.21037">
        <ele>823.5</ele>
        <time>2021-03-02T13:39:45Z</time>
        <extensions>
          <gpxtpx:TrackPointExtension xmlns:gpxtpx="http://www.garmin.com/xmlschemas/TrackPointExtension/v1">
            <gpxtpx:hr>156</gpxtpx:hr>
          </gpxtpx:TrackPointExtension>
        </extensions>
      </trkpt>
      <trkpt lat="45.97944" lon="6.21041">
        <ele>823.8</ele>
        <time>2021-03-02T13:39:46Z</time>
        <extensions>
          <gpxtpx:TrackPointExtension xmlns:gpxtpx="http://www.garmin.com/xmlschemas/TrackPointExtension/v1">
            <gpxtpx:hr>156</gpxtpx:hr>
          </gpxtpx:TrackPointExtension>
        </extensions>
      </trkpt>
      <trkpt lat="45.97943" lon="6.21044">
        <ele>824</ele>
        <time>2021-03-02T13:39:47Z</time>
        <extensions>
          <gpxtpx:TrackPointExtension xmlns:gpxtpx="http://www.garmin.com/xmlschemas/TrackPointExtension/v1">
            <gpxtpx:hr>156</gpxtpx:hr>
          </gpxtpx:TrackPointExtension>
        </extensions>
      </trkpt>
      <trkpt lat="45.97942" lon="6.21048">
        <ele>824.2</ele>
        <time>2021-03-02T13:39:48Z</time>
        <extensions>
          <gpxtpx:TrackPointExtension xmlns:gpxtpx="http://www.garmin.com/xmlschemas/TrackPointExtension/v1">
            <gpxtpx:hr>155</gpxtpx:hr>
          </gpxtpx:TrackPointExtension>
        </extensions>
      </trkpt>
      <trkpt lat="45.97941" lon="6.21051">
        <ele>824.4</ele>
        <time>2021-03-02T13:39:49Z</time>
        <extensions>
          <gpxtpx:TrackPointExtension xmlns:gpxtpx="http://www.garmin.com/xmlschemas/TrackPointExtension/v1">
            <gpxtpx:hr>155</gpxtpx:hr>
          </gpxtpx:TrackPointExtension>
        </extensions>
      </trkpt>
      <trkpt lat="45.9794" lon="6.21055">
        <ele>824.6</ele>
        <time>2021-03-02T13:39:50Z</time>
        <extensions>
          <gpxtpx:TrackPointExtension xmlns:gpxtpx="http://www.garmin.com/xmlschemas/TrackPointExtension/v1">
            <gpxtpx:hr>154</gpxtpx:hr>
          </gpxtpx:TrackPointExtension>
        </extensions>
      </trkpt>
      <trkpt lat="45.97939" lon="6.21058">
        <ele>824.8</ele>
        <time>2021-03-02T13:39:51Z</time>
        <extensions>
          <gpxtpx:TrackPointExtension xmlns:gpxtpx="http://www.garmin.com/xmlschemas/TrackPointExtension/v1">
            <gpxtpx:hr>154</gpxtpx:hr>
          </gpxtpx:TrackPointExtension>
        </extensions>
      </trkpt>
      <trkpt lat="45.97938" lon="6.21062">
        <ele>825</ele>
        <time>2021-03-02T13:39:52Z</time>
        <extensions>
          <gpxtpx:TrackPointExtension xmlns:gpxtpx="http://www.garmin.com/xmlschemas/TrackPointExtension/v1">
            <gpxtpx:hr>154</gpxtpx:hr>
          </gpxtpx:TrackPointExtension>
        </extensions>
      </trkpt>
      <trkpt lat="45.97937" lon="6.21066">
        <ele>825.2</ele>
        <time>2021-03-02T13:39:53Z</time>
        <extensions>
          <gpxtpx:TrackPointExtension xmlns:gpxtpx="http://www.garmin.com/xmlschemas/TrackPointExtension/v1">
            <gpxtpx:hr>154</gpxtpx:hr>
          </gpxtpx:TrackPointExtension>
        </extensions>
      </trkpt>
      <trkpt lat="45.97935" lon="6.21069">
        <ele>825.4</ele>
        <time>2021-03-02T13:39:54Z</time>
        <extensions>
          <gpxtpx:TrackPointExtension xmlns:gpxtpx="http://www.garmin.com/xmlschemas/TrackPointExtension/v1">
            <gpxtpx:hr>154</gpxtpx:hr>
          </gpxtpx:TrackPointExtension>
        </extensions>
      </trkpt>
      <trkpt lat="45.97934" lon="6.21073">
        <ele>825.7</ele>
        <time>2021-03-02T13:39:55Z</time>
        <extensions>
          <gpxtpx:TrackPointExtension xmlns:gpxtpx="http://www.garmin.com/xmlschemas/TrackPointExtension/v1">
            <gpxtpx:hr>154</gpxtpx:hr>
          </gpxtpx:TrackPointExtension>
        </extensions>
      </trkpt>
      <trkpt lat="45.97933" lon="6.21078">
        <ele>825.9</ele>
        <time>2021-03-02T13:39:56Z</time>
        <extensions>
          <gpxtpx:TrackPointExtension xmlns:gpxtpx="http://www.garmin.com/xmlschemas/TrackPointExtension/v1">
            <gpxtpx:hr>154</gpxtpx:hr>
          </gpxtpx:TrackPointExtension>
        </extensions>
      </trkpt>
      <trkpt lat="45.97931" lon="6.21082">
        <ele>826</ele>
        <time>2021-03-02T13:39:57Z</time>
        <extensions>
          <gpxtpx:TrackPointExtension xmlns:gpxtpx="http://www.garmin.com/xmlschemas/TrackPointExtension/v1">
            <gpxtpx:hr>154</gpxtpx:hr>
          </gpxtpx:TrackPointExtension>
        </extensions>
      </trkpt>
      <trkpt lat="45.9793" lon="6.21086">
        <ele>826.1</ele>
        <time>2021-03-02T13:39:58Z</time>
        <extensions>
          <gpxtpx:TrackPointExtension xmlns:gpxtpx="http://www.garmin.com/xmlschemas/TrackPointExtension/v1">
            <gpxtpx:hr>154</gpxtpx:hr>
          </gpxtpx:TrackPointExtension>
        </extensions>
      </trkpt>
      <trkpt lat="45.97928" lon="6.2109">
        <ele>826.2</ele>
        <time>2021-03-02T13:39:59Z</time>
        <extensions>
          <gpxtpx:TrackPointExtension xmlns:gpxtpx="http://www.garmin.com/xmlschemas/TrackPointExtension/v1">
            <gpxtpx:hr>154</gpxtpx:hr>
          </gpxtpx:TrackPointExtension>
        </extensions>
      </trkpt>
      <trkpt lat="45.97927" lon="6.21095">
        <ele>826.3</ele>
        <time>2021-03-02T13:40:00Z</time>
        <extensions>
          <gpxtpx:TrackPointExtension xmlns:gpxtpx="http://www.garmin.com/xmlschemas/TrackPointExtension/v1">
            <gpxtpx:hr>153</gpxtpx:hr>
          </gpxtpx:TrackPointExtension>
        </extensions>
      </trkpt>
      <trkpt lat="45.97925" lon="6.211">
        <ele>826.4</ele>
        <time>2021-03-02T13:40:01Z</time>
        <extensions>
          <gpxtpx:TrackPointExtension xmlns:gpxtpx="http://www.garmin.com/xmlschemas/TrackPointExtension/v1">
            <gpxtpx:hr>153</gpxtpx:hr>
          </gpxtpx:TrackPointExtension>
        </extensions>
      </trkpt>
      <trkpt lat="45.97923" lon="6.21105">
        <ele>826.4</ele>
        <time>2021-03-02T13:40:02Z</time>
        <extensions>
          <gpxtpx:TrackPointExtension xmlns:gpxtpx="http://www.garmin.com/xmlschemas/TrackPointExtension/v1">
            <gpxtpx:hr>153</gpxtpx:hr>
          </gpxtpx:TrackPointExtension>
        </extensions>
      </trkpt>
      <trkpt lat="45.97922" lon="6.2111">
        <ele>826.4</ele>
        <time>2021-03-02T13:40:03Z</time>
        <extensions>
          <gpxtpx:TrackPointExtension xmlns:gpxtpx="http://www.garmin.com/xmlschemas/TrackPointExtension/v1">
            <gpxtpx:hr>153</gpxtpx:hr>
          </gpxtpx:TrackPointExtension>
        </extensions>
      </trkpt>
      <trkpt lat="45.9792" lon="6.21115">
        <ele>826.5</ele>
        <time>2021-03-02T13:40:04Z</time>
        <extensions>
          <gpxtpx:TrackPointExtension xmlns:gpxtpx="http://www.garmin.com/xmlschemas/TrackPointExtension/v1">
            <gpxtpx:hr>153</gpxtpx:hr>
          </gpxtpx:TrackPointExtension>
        </extensions>
      </trkpt>
      <trkpt lat="45.97918" lon="6.2112">
        <ele>826.5</ele>
        <time>2021-03-02T13:40:05Z</time>
        <extensions>
          <gpxtpx:TrackPointExtension xmlns:gpxtpx="http://www.garmin.com/xmlschemas/TrackPointExtension/v1">
            <gpxtpx:hr>152</gpxtpx:hr>
          </gpxtpx:TrackPointExtension>
        </extensions>
      </trkpt>
      <trkpt lat="45.97916" lon="6.21126">
        <ele>826.5</ele>
        <time>2021-03-02T13:40:06Z</time>
        <extensions>
          <gpxtpx:TrackPointExtension xmlns:gpxtpx="http://www.garmin.com/xmlschemas/TrackPointExtension/v1">
            <gpxtpx:hr>152</gpxtpx:hr>
          </gpxtpx:TrackPointExtension>
        </extensions>
      </trkpt>
      <trkpt lat="45.97914" lon="6.21132">
        <ele>826.5</ele>
        <time>2021-03-02T13:40:07Z</time>
        <extensions>
          <gpxtpx:TrackPointExtension xmlns:gpxtpx="http://www.garmin.com/xmlschemas/TrackPointExtension/v1">
            <gpxtpx:hr>152</gpxtpx:hr>
          </gpxtpx:TrackPointExtension>
        </extensions>
      </trkpt>
      <trkpt lat="45.97911" lon="6.21138">
        <ele>826.5</ele>
        <time>2021-03-02T13:40:08Z</time>
        <extensions>
          <gpxtpx:TrackPointExtension xmlns:gpxtpx="http://www.garmin.com/xmlschemas/TrackPointExtension/v1">
            <gpxtpx:hr>152</gpxtpx:hr>
          </gpxtpx:TrackPointExtension>
        </extensions>
      </trkpt>
      <trkpt lat="45.97909" lon="6.21144">
        <ele>826.5</ele>
        <time>2021-03-02T13:40:09Z</time>
        <extensions>
          <gpxtpx:TrackPointExtension xmlns:gpxtpx="http://www.garmin.com/xmlschemas/TrackPointExtension/v1">
            <gpxtpx:hr>151</gpxtpx:hr>
          </gpxtpx:TrackPointExtension>
        </extensions>
      </trkpt>
      <trkpt lat="45.97907" lon="6.21151">
        <ele>826.5</ele>
        <time>2021-03-02T13:40:10Z</time>
        <extensions>
          <gpxtpx:TrackPointExtension xmlns:gpxtpx="http://www.garmin.com/xmlschemas/TrackPointExtension/v1">
            <gpxtpx:hr>151</gpxtpx:hr>
          </gpxtpx:TrackPointExtension>
        </extensions>
      </trkpt>
      <trkpt lat="45.97904" lon="6.21157">
        <ele>826.6</ele>
        <time>2021-03-02T13:40:11Z</time>
        <extensions>
          <gpxtpx:TrackPointExtension xmlns:gpxtpx="http://www.garmin.com/xmlschemas/TrackPointExtension/v1">
            <gpxtpx:hr>151</gpxtpx:hr>
          </gpxtpx:TrackPointExtension>
        </extensions>
      </trkpt>
      <trkpt lat="45.97902" lon="6.21163">
        <ele>826.7</ele>
        <time>2021-03-02T13:40:12Z</time>
        <extensions>
          <gpxtpx:TrackPointExtension xmlns:gpxtpx="http://www.garmin.com/xmlschemas/TrackPointExtension/v1">
            <gpxtpx:hr>151</gpxtpx:hr>
          </gpxtpx:TrackPointExtension>
        </extensions>
      </trkpt>
      <trkpt lat="45.979" lon="6.2117">
        <ele>826.8</ele>
        <time>2021-03-02T13:40:13Z</time>
        <extensions>
          <gpxtpx:TrackPointExtension xmlns:gpxtpx="http://www.garmin.com/xmlschemas/TrackPointExtension/v1">
            <gpxtpx:hr>151</gpxtpx:hr>
          </gpxtpx:TrackPointExtension>
        </extensions>
      </trkpt>
      <trkpt lat="45.97898" lon="6.21176">
        <ele>827</ele>
        <time>2021-03-02T13:40:14Z</time>
        <extensions>
          <gpxtpx:TrackPointExtension xmlns:gpxtpx="http://www.garmin.com/xmlschemas/TrackPointExtension/v1">
            <gpxtpx:hr>150</gpxtpx:hr>
          </gpxtpx:TrackPointExtension>
        </extensions>
      </trkpt>
      <trkpt lat="45.97896" lon="6.21182">
        <ele>827.1</ele>
        <time>2021-03-02T13:40:15Z</time>
        <extensions>
          <gpxtpx:TrackPointExtension xmlns:gpxtpx="http://www.garmin.com/xmlschemas/TrackPointExtension/v1">
            <gpxtpx:hr>150</gpxtpx:hr>
          </gpxtpx:TrackPointExtension>
        </extensions>
      </trkpt>
      <trkpt lat="45.97893" lon="6.21188">
        <ele>827.3</ele>
        <time>2021-03-02T13:40:16Z</time>
        <extensions>
          <gpxtpx:TrackPointExtension xmlns:gpxtpx="http://www.garmin.com/xmlschemas/TrackPointExtension/v1">
            <gpxtpx:hr>149</gpxtpx:hr>
          </gpxtpx:TrackPointExtension>
        </extensions>
      </trkpt>
      <trkpt lat="45.97891" lon="6.21194">
        <ele>827.4</ele>
        <time>2021-03-02T13:40:17Z</time>
        <extensions>
          <gpxtpx:TrackPointExtension xmlns:gpxtpx="http://www.garmin.com/xmlschemas/TrackPointExtension/v1">
            <gpxtpx:hr>149</gpxtpx:hr>
          </gpxtpx:TrackPointExtension>
        </extensions>
      </trkpt>
      <trkpt lat="45.97889" lon="6.212">
        <ele>827.6</ele>
        <time>2021-03-02T13:40:18Z</time>
        <extensions>
          <gpxtpx:TrackPointExtension xmlns:gpxtpx="http://www.garmin.com/xmlschemas/TrackPointExtension/v1">
            <gpxtpx:hr>148</gpxtpx:hr>
          </gpxtpx:TrackPointExtension>
        </extensions>
      </trkpt>
      <trkpt lat="45.97887" lon="6.21205">
        <ele>827.8</ele>
        <time>2021-03-02T13:40:19Z</time>
        <extensions>
          <gpxtpx:TrackPointExtension xmlns:gpxtpx="http://www.garmin.com/xmlschemas/TrackPointExtension/v1">
            <gpxtpx:hr>148</gpxtpx:hr>
          </gpxtpx:TrackPointExtension>
        </extensions>
      </trkpt>
      <trkpt lat="45.97885" lon="6.21211">
        <ele>827.9</ele>
        <time>2021-03-02T13:40:20Z</time>
        <extensions>
          <gpxtpx:TrackPointExtension xmlns:gpxtpx="http://www.garmin.com/xmlschemas/TrackPointExtension/v1">
            <gpxtpx:hr>149</gpxtpx:hr>
          </gpxtpx:TrackPointExtension>
        </extensions>
      </trkpt>
      <trkpt lat="45.97883" lon="6.21217">
        <ele>828.1</ele>
        <time>2021-03-02T13:40:21Z</time>
        <extensions>
          <gpxtpx:TrackPointExtension xmlns:gpxtpx="http://www.garmin.com/xmlschemas/TrackPointExtension/v1">
            <gpxtpx:hr>149</gpxtpx:hr>
          </gpxtpx:TrackPointExtension>
        </extensions>
      </trkpt>
      <trkpt lat="45.9788" lon="6.21221">
        <ele>828.3</ele>
        <time>2021-03-02T13:40:22Z</time>
        <extensions>
          <gpxtpx:TrackPointExtension xmlns:gpxtpx="http://www.garmin.com/xmlschemas/TrackPointExtension/v1">
            <gpxtpx:hr>149</gpxtpx:hr>
          </gpxtpx:TrackPointExtension>
        </extensions>
      </trkpt>
      <trkpt lat="45.97878" lon="6.21227">
        <ele>828.4</ele>
        <time>2021-03-02T13:40:23Z</time>
        <extensions>
          <gpxtpx:TrackPointExtension xmlns:gpxtpx="http://www.garmin.com/xmlschemas/TrackPointExtension/v1">
            <gpxtpx:hr>148</gpxtpx:hr>
          </gpxtpx:TrackPointExtension>
        </extensions>
      </trkpt>
      <trkpt lat="45.97876" lon="6.21232">
        <ele>828.6</ele>
        <time>2021-03-02T13:40:24Z</time>
        <extensions>
          <gpxtpx:TrackPointExtension xmlns:gpxtpx="http://www.garmin.com/xmlschemas/TrackPointExtension/v1">
            <gpxtpx:hr>147</gpxtpx:hr>
          </gpxtpx:TrackPointExtension>
        </extensions>
      </trkpt>
      <trkpt lat="45.97874" lon="6.21238">
        <ele>828.8</ele>
        <time>2021-03-02T13:40:25Z</time>
        <extensions>
          <gpxtpx:TrackPointExtension xmlns:gpxtpx="http://www.garmin.com/xmlschemas/TrackPointExtension/v1">
            <gpxtpx:hr>146</gpxtpx:hr>
          </gpxtpx:TrackPointExtension>
        </extensions>
      </trkpt>
      <trkpt lat="45.97873" lon="6.21243">
        <ele>828.9</ele>
        <time>2021-03-02T13:40:26Z</time>
        <extensions>
          <gpxtpx:TrackPointExtension xmlns:gpxtpx="http://www.garmin.com/xmlschemas/TrackPointExtension/v1">
            <gpxtpx:hr>146</gpxtpx:hr>
          </gpxtpx:TrackPointExtension>
        </extensions>
      </trkpt>
      <trkpt lat="45.97871" lon="6.21248">
        <ele>829</ele>
        <time>2021-03-02T13:40:27Z</time>
        <extensions>
          <gpxtpx:TrackPointExtension xmlns:gpxtpx="http://www.garmin.com/xmlschemas/TrackPointExtension/v1">
            <gpxtpx:hr>145</gpxtpx:hr>
          </gpxtpx:TrackPointExtension>
        </extensions>
      </trkpt>
      <trkpt lat="45.97869" lon="6.21254">
        <ele>829.1</ele>
        <time>2021-03-02T13:40:28Z</time>
        <extensions>
          <gpxtpx:TrackPointExtension xmlns:gpxtpx="http://www.garmin.com/xmlschemas/TrackPointExtension/v1">
            <gpxtpx:hr>145</gpxtpx:hr>
          </gpxtpx:TrackPointExtension>
        </extensions>
      </trkpt>
      <trkpt lat="45.97868" lon="6.2126">
        <ele>829.2</ele>
        <time>2021-03-02T13:40:29Z</time>
        <extensions>
          <gpxtpx:TrackPointExtension xmlns:gpxtpx="http://www.garmin.com/xmlschemas/TrackPointExtension/v1">
            <gpxtpx:hr>145</gpxtpx:hr>
          </gpxtpx:TrackPointExtension>
        </extensions>
      </trkpt>
      <trkpt lat="45.97865" lon="6.21266">
        <ele>829.3</ele>
        <time>2021-03-02T13:40:30Z</time>
        <extensions>
          <gpxtpx:TrackPointExtension xmlns:gpxtpx="http://www.garmin.com/xmlschemas/TrackPointExtension/v1">
            <gpxtpx:hr>144</gpxtpx:hr>
          </gpxtpx:TrackPointExtension>
        </extensions>
      </trkpt>
      <trkpt lat="45.97863" lon="6.21272">
        <ele>829.3</ele>
        <time>2021-03-02T13:40:31Z</time>
        <extensions>
          <gpxtpx:TrackPointExtension xmlns:gpxtpx="http://www.garmin.com/xmlschemas/TrackPointExtension/v1">
            <gpxtpx:hr>144</gpxtpx:hr>
          </gpxtpx:TrackPointExtension>
        </extensions>
      </trkpt>
      <trkpt lat="45.9786" lon="6.21278">
        <ele>829.4</ele>
        <time>2021-03-02T13:40:32Z</time>
        <extensions>
          <gpxtpx:TrackPointExtension xmlns:gpxtpx="http://www.garmin.com/xmlschemas/TrackPointExtension/v1">
            <gpxtpx:hr>144</gpxtpx:hr>
          </gpxtpx:TrackPointExtension>
        </extensions>
      </trkpt>
      <trkpt lat="45.97858" lon="6.21284">
        <ele>829.4</ele>
        <time>2021-03-02T13:40:33Z</time>
        <extensions>
          <gpxtpx:TrackPointExtension xmlns:gpxtpx="http://www.garmin.com/xmlschemas/TrackPointExtension/v1">
            <gpxtpx:hr>144</gpxtpx:hr>
          </gpxtpx:TrackPointExtension>
        </extensions>
      </trkpt>
      <trkpt lat="45.97855" lon="6.21291">
        <ele>829.4</ele>
        <time>2021-03-02T13:40:34Z</time>
        <extensions>
          <gpxtpx:TrackPointExtension xmlns:gpxtpx="http://www.garmin.com/xmlschemas/TrackPointExtension/v1">
            <gpxtpx:hr>143</gpxtpx:hr>
          </gpxtpx:TrackPointExtension>
        </extensions>
      </trkpt>
      <trkpt lat="45.97852" lon="6.21298">
        <ele>829.3</ele>
        <time>2021-03-02T13:40:35Z</time>
        <extensions>
          <gpxtpx:TrackPointExtension xmlns:gpxtpx="http://www.garmin.com/xmlschemas/TrackPointExtension/v1">
            <gpxtpx:hr>143</gpxtpx:hr>
          </gpxtpx:TrackPointExtension>
        </extensions>
      </trkpt>
      <trkpt lat="45.97849" lon="6.21305">
        <ele>829.3</ele>
        <time>2021-03-02T13:40:36Z</time>
        <extensions>
          <gpxtpx:TrackPointExtension xmlns:gpxtpx="http://www.garmin.com/xmlschemas/TrackPointExtension/v1">
            <gpxtpx:hr>143</gpxtpx:hr>
          </gpxtpx:TrackPointExtension>
        </extensions>
      </trkpt>
      <trkpt lat="45.97846" lon="6.21314">
        <ele>829.2</ele>
        <time>2021-03-02T13:40:37Z</time>
        <extensions>
          <gpxtpx:TrackPointExtension xmlns:gpxtpx="http://www.garmin.com/xmlschemas/TrackPointExtension/v1">
            <gpxtpx:hr>143</gpxtpx:hr>
          </gpxtpx:TrackPointExtension>
        </extensions>
      </trkpt>
      <trkpt lat="45.97844" lon="6.21323">
        <ele>829.2</ele>
        <time>2021-03-02T13:40:38Z</time>
        <extensions>
          <gpxtpx:TrackPointExtension xmlns:gpxtpx="http://www.garmin.com/xmlschemas/TrackPointExtension/v1">
            <gpxtpx:hr>142</gpxtpx:hr>
          </gpxtpx:TrackPointExtension>
        </extensions>
      </trkpt>
      <trkpt lat="45.9784" lon="6.21332">
        <ele>829.1</ele>
        <time>2021-03-02T13:40:39Z</time>
        <extensions>
          <gpxtpx:TrackPointExtension xmlns:gpxtpx="http://www.garmin.com/xmlschemas/TrackPointExtension/v1">
            <gpxtpx:hr>141</gpxtpx:hr>
          </gpxtpx:TrackPointExtension>
        </extensions>
      </trkpt>
      <trkpt lat="45.97837" lon="6.2134">
        <ele>829</ele>
        <time>2021-03-02T13:40:40Z</time>
        <extensions>
          <gpxtpx:TrackPointExtension xmlns:gpxtpx="http://www.garmin.com/xmlschemas/TrackPointExtension/v1">
            <gpxtpx:hr>140</gpxtpx:hr>
          </gpxtpx:TrackPointExtension>
        </extensions>
      </trkpt>
      <trkpt lat="45.97833" lon="6.21348">
        <ele>828.9</ele>
        <time>2021-03-02T13:40:41Z</time>
        <extensions>
          <gpxtpx:TrackPointExtension xmlns:gpxtpx="http://www.garmin.com/xmlschemas/TrackPointExtension/v1">
            <gpxtpx:hr>139</gpxtpx:hr>
          </gpxtpx:TrackPointExtension>
        </extensions>
      </trkpt>
      <trkpt lat="45.97828" lon="6.21355">
        <ele>828.9</ele>
        <time>2021-03-02T13:40:42Z</time>
        <extensions>
          <gpxtpx:TrackPointExtension xmlns:gpxtpx="http://www.garmin.com/xmlschemas/TrackPointExtension/v1">
            <gpxtpx:hr>140</gpxtpx:hr>
          </gpxtpx:TrackPointExtension>
        </extensions>
      </trkpt>
      <trkpt lat="45.97823" lon="6.21362">
        <ele>828.8</ele>
        <time>2021-03-02T13:40:43Z</time>
        <extensions>
          <gpxtpx:TrackPointExtension xmlns:gpxtpx="http://www.garmin.com/xmlschemas/TrackPointExtension/v1">
            <gpxtpx:hr>140</gpxtpx:hr>
          </gpxtpx:TrackPointExtension>
        </extensions>
      </trkpt>
      <trkpt lat="45.97819" lon="6.21369">
        <ele>828.7</ele>
        <time>2021-03-02T13:40:44Z</time>
        <extensions>
          <gpxtpx:TrackPointExtension xmlns:gpxtpx="http://www.garmin.com/xmlschemas/TrackPointExtension/v1">
            <gpxtpx:hr>140</gpxtpx:hr>
          </gpxtpx:TrackPointExtension>
        </extensions>
      </trkpt>
      <trkpt lat="45.97815" lon="6.21375">
        <ele>828.6</ele>
        <time>2021-03-02T13:40:45Z</time>
        <extensions>
          <gpxtpx:TrackPointExtension xmlns:gpxtpx="http://www.garmin.com/xmlschemas/TrackPointExtension/v1">
            <gpxtpx:hr>140</gpxtpx:hr>
          </gpxtpx:TrackPointExtension>
        </extensions>
      </trkpt>
      <trkpt lat="45.9781" lon="6.21382">
        <ele>828.5</ele>
        <time>2021-03-02T13:40:46Z</time>
        <extensions>
          <gpxtpx:TrackPointExtension xmlns:gpxtpx="http://www.garmin.com/xmlschemas/TrackPointExtension/v1">
            <gpxtpx:hr>139</gpxtpx:hr>
          </gpxtpx:TrackPointExtension>
        </extensions>
      </trkpt>
      <trkpt lat="45.97806" lon="6.21389">
        <ele>828.3</ele>
        <time>2021-03-02T13:40:47Z</time>
        <extensions>
          <gpxtpx:TrackPointExtension xmlns:gpxtpx="http://www.garmin.com/xmlschemas/TrackPointExtension/v1">
            <gpxtpx:hr>139</gpxtpx:hr>
          </gpxtpx:TrackPointExtension>
        </extensions>
      </trkpt>
      <trkpt lat="45.97802" lon="6.21397">
        <ele>828</ele>
        <time>2021-03-02T13:40:48Z</time>
        <extensions>
          <gpxtpx:TrackPointExtension xmlns:gpxtpx="http://www.garmin.com/xmlschemas/TrackPointExtension/v1">
            <gpxtpx:hr>138</gpxtpx:hr>
          </gpxtpx:TrackPointExtension>
        </extensions>
      </trkpt>
      <trkpt lat="45.97797" lon="6.21405">
        <ele>827.6</ele>
        <time>2021-03-02T13:40:49Z</time>
        <extensions>
          <gpxtpx:TrackPointExtension xmlns:gpxtpx="http://www.garmin.com/xmlschemas/TrackPointExtension/v1">
            <gpxtpx:hr>138</gpxtpx:hr>
          </gpxtpx:TrackPointExtension>
        </extensions>
      </trkpt>
      <trkpt lat="45.97793" lon="6.21413">
        <ele>827.2</ele>
        <time>2021-03-02T13:40:50Z</time>
        <extensions>
          <gpxtpx:TrackPointExtension xmlns:gpxtpx="http://www.garmin.com/xmlschemas/TrackPointExtension/v1">
            <gpxtpx:hr>137</gpxtpx:hr>
          </gpxtpx:TrackPointExtension>
        </extensions>
      </trkpt>
      <trkpt lat="45.97789" lon="6.2142">
        <ele>826.8</ele>
        <time>2021-03-02T13:40:51Z</time>
        <extensions>
          <gpxtpx:TrackPointExtension xmlns:gpxtpx="http://www.garmin.com/xmlschemas/TrackPointExtension/v1">
            <gpxtpx:hr>136</gpxtpx:hr>
          </gpxtpx:TrackPointExtension>
        </extensions>
      </trkpt>
      <trkpt lat="45.97785" lon="6.21427">
        <ele>826.4</ele>
        <time>2021-03-02T13:40:52Z</time>
        <extensions>
          <gpxtpx:TrackPointExtension xmlns:gpxtpx="http://www.garmin.com/xmlschemas/TrackPointExtension/v1">
            <gpxtpx:hr>136</gpxtpx:hr>
          </gpxtpx:TrackPointExtension>
        </extensions>
      </trkpt>
      <trkpt lat="45.97782" lon="6.21432">
        <ele>826.2</ele>
        <time>2021-03-02T13:40:53Z</time>
        <extensions>
          <gpxtpx:TrackPointExtension xmlns:gpxtpx="http://www.garmin.com/xmlschemas/TrackPointExtension/v1">
            <gpxtpx:hr>135</gpxtpx:hr>
          </gpxtpx:TrackPointExtension>
        </extensions>
      </trkpt>
      <trkpt lat="45.9778" lon="6.21436">
        <ele>826</ele>
        <time>2021-03-02T13:40:54Z</time>
        <extensions>
          <gpxtpx:TrackPointExtension xmlns:gpxtpx="http://www.garmin.com/xmlschemas/TrackPointExtension/v1">
            <gpxtpx:hr>134</gpxtpx:hr>
          </gpxtpx:TrackPointExtension>
        </extensions>
      </trkpt>
      <trkpt lat="45.97779" lon="6.21439">
        <ele>825.8</ele>
        <time>2021-03-02T13:40:55Z</time>
        <extensions>
          <gpxtpx:TrackPointExtension xmlns:gpxtpx="http://www.garmin.com/xmlschemas/TrackPointExtension/v1">
            <gpxtpx:hr>134</gpxtpx:hr>
          </gpxtpx:TrackPointExtension>
        </extensions>
      </trkpt>
      <trkpt lat="45.97778" lon="6.2144">
        <ele>825.7</ele>
        <time>2021-03-02T13:40:56Z</time>
        <extensions>
          <gpxtpx:TrackPointExtension xmlns:gpxtpx="http://www.garmin.com/xmlschemas/TrackPointExtension/v1">
            <gpxtpx:hr>134</gpxtpx:hr>
          </gpxtpx:TrackPointExtension>
        </extensions>
      </trkpt>
      <trkpt lat="45.97778" lon="6.2144">
        <ele>825.7</ele>
        <time>2021-03-02T13:40:57Z</time>
        <extensions>
          <gpxtpx:TrackPointExtension xmlns:gpxtpx="http://www.garmin.com/xmlschemas/TrackPointExtension/v1">
            <gpxtpx:hr>134</gpxtpx:hr>
          </gpxtpx:TrackPointExtension>
        </extensions>
      </trkpt>
      <trkpt lat="45.97778" lon="6.21441">
        <ele>825.7</ele>
        <time>2021-03-02T13:40:58Z</time>
        <extensions>
          <gpxtpx:TrackPointExtension xmlns:gpxtpx="http://www.garmin.com/xmlschemas/TrackPointExtension/v1">
            <gpxtpx:hr>133</gpxtpx:hr>
          </gpxtpx:TrackPointExtension>
        </extensions>
      </trkpt>
      <trkpt lat="45.97778" lon="6.21441">
        <ele>825.7</ele>
        <time>2021-03-02T13:40:59Z</time>
        <extensions>
          <gpxtpx:TrackPointExtension xmlns:gpxtpx="http://www.garmin.com/xmlschemas/TrackPointExtension/v1">
            <gpxtpx:hr>132</gpxtpx:hr>
          </gpxtpx:TrackPointExtension>
        </extensions>
      </trkpt>
      <trkpt lat="45.97778" lon="6.21441">
        <ele>825.7</ele>
        <time>2021-03-02T13:41:00Z</time>
        <extensions>
          <gpxtpx:TrackPointExtension xmlns:gpxtpx="http://www.garmin.com/xmlschemas/TrackPointExtension/v1">
            <gpxtpx:hr>108</gpxtpx:hr>
          </gpxtpx:TrackPointExtension>
        </extensions>
      </trkpt>
      <trkpt lat="45.9778" lon="6.21442">
        <ele>825.6</ele>
        <time>2021-03-02T13:43:39Z</time>
        <extensions>
          <gpxtpx:TrackPointExtension xmlns:gpxtpx="http://www.garmin.com/xmlschemas/TrackPointExtension/v1">
            <gpxtpx:hr>108</gpxtpx:hr>
          </gpxtpx:TrackPointExtension>
        </extensions>
      </trkpt>
      <trkpt lat="45.9778" lon="6.21442">
        <ele>825.6</ele>
        <time>2021-03-02T13:43:40Z</time>
        <extensions>
          <gpxtpx:TrackPointExtension xmlns:gpxtpx="http://www.garmin.com/xmlschemas/TrackPointExtension/v1">
            <gpxtpx:hr>108</gpxtpx:hr>
          </gpxtpx:TrackPointExtension>
        </extensions>
      </trkpt>
      <trkpt lat="45.9778" lon="6.21441">
        <ele>825.5</ele>
        <time>2021-03-02T13:43:44Z</time>
        <extensions>
          <gpxtpx:TrackPointExtension xmlns:gpxtpx="http://www.garmin.com/xmlschemas/TrackPointExtension/v1">
            <gpxtpx:hr>108</gpxtpx:hr>
          </gpxtpx:TrackPointExtension>
        </extensions>
      </trkpt>
      <trkpt lat="45.9778" lon="6.21441">
        <ele>825.5</ele>
        <time>2021-03-02T13:43:45Z</time>
        <extensions>
          <gpxtpx:TrackPointExtension xmlns:gpxtpx="http://www.garmin.com/xmlschemas/TrackPointExtension/v1">
            <gpxtpx:hr>108</gpxtpx:hr>
          </gpxtpx:TrackPointExtension>
        </extensions>
      </trkpt>
      <trkpt lat="45.9778" lon="6.21441">
        <ele>825.5</ele>
        <time>2021-03-02T13:43:46Z</time>
        <extensions>
          <gpxtpx:TrackPointExtension xmlns:gpxtpx="http://www.garmin.com/xmlschemas/TrackPointExtension/v1">
            <gpxtpx:hr>107</gpxtpx:hr>
          </gpxtpx:TrackPointExtension>
        </extensions>
      </trkpt>
      <trkpt lat="45.9778" lon="6.21441">
        <ele>825.5</ele>
        <time>2021-03-02T13:43:47Z</time>
        <extensions>
          <gpxtpx:TrackPointExtension xmlns:gpxtpx="http://www.garmin.com/xmlschemas/TrackPointExtension/v1">
            <gpxtpx:hr>105</gpxtpx:hr>
          </gpxtpx:TrackPointExtension>
        </extensions>
      </trkpt>
      <trkpt lat="45.97779" lon="6.21443">
        <ele>825.4</ele>
        <time>2021-03-02T13:43:55Z</time>
        <extensions>
          <gpxtpx:TrackPointExtension xmlns:gpxtpx="http://www.garmin.com/xmlschemas/TrackPointExtension/v1">
            <gpxtpx:hr>105</gpxtpx:hr>
          </gpxtpx:TrackPointExtension>
        </extensions>
      </trkpt>
      <trkpt lat="45.97778" lon="6.21446">
        <ele>825.3</ele>
        <time>2021-03-02T13:43:56Z</time>
        <extensions>
          <gpxtpx:TrackPointExtension xmlns:gpxtpx="http://www.garmin.com/xmlschemas/TrackPointExtension/v1">
            <gpxtpx:hr>105</gpxtpx:hr>
          </gpxtpx:TrackPointExtension>
        </extensions>
      </trkpt>
      <trkpt lat="45.97777" lon="6.21448">
        <ele>825.2</ele>
        <time>2021-03-02T13:43:57Z</time>
        <extensions>
          <gpxtpx:TrackPointExtension xmlns:gpxtpx="http://www.garmin.com/xmlschemas/TrackPointExtension/v1">
            <gpxtpx:hr>105</gpxtpx:hr>
          </gpxtpx:TrackPointExtension>
        </extensions>
      </trkpt>
      <trkpt lat="45.97776" lon="6.2145">
        <ele>825.1</ele>
        <time>2021-03-02T13:43:58Z</time>
        <extensions>
          <gpxtpx:TrackPointExtension xmlns:gpxtpx="http://www.garmin.com/xmlschemas/TrackPointExtension/v1">
            <gpxtpx:hr>106</gpxtpx:hr>
          </gpxtpx:TrackPointExtension>
        </extensions>
      </trkpt>
      <trkpt lat="45.97774" lon="6.21453">
        <ele>824.9</ele>
        <time>2021-03-02T13:43:59Z</time>
        <extensions>
          <gpxtpx:TrackPointExtension xmlns:gpxtpx="http://www.garmin.com/xmlschemas/TrackPointExtension/v1">
            <gpxtpx:hr>106</gpxtpx:hr>
          </gpxtpx:TrackPointExtension>
        </extensions>
      </trkpt>
      <trkpt lat="45.97773" lon="6.21454">
        <ele>824.8</ele>
        <time>2021-03-02T13:44:00Z</time>
        <extensions>
          <gpxtpx:TrackPointExtension xmlns:gpxtpx="http://www.garmin.com/xmlschemas/TrackPointExtension/v1">
            <gpxtpx:hr>106</gpxtpx:hr>
          </gpxtpx:TrackPointExtension>
        </extensions>
      </trkpt>
      <trkpt lat="45.97772" lon="6.21455">
        <ele>824.8</ele>
        <time>2021-03-02T13:44:01Z</time>
        <extensions>
          <gpxtpx:TrackPointExtension xmlns:gpxtpx="http://www.garmin.com/xmlschemas/TrackPointExtension/v1">
            <gpxtpx:hr>107</gpxtpx:hr>
          </gpxtpx:TrackPointExtension>
        </extensions>
      </trkpt>
      <trkpt lat="45.97771" lon="6.21456">
        <ele>824.8</ele>
        <time>2021-03-02T13:44:02Z</time>
        <extensions>
          <gpxtpx:TrackPointExtension xmlns:gpxtpx="http://www.garmin.com/xmlschemas/TrackPointExtension/v1">
            <gpxtpx:hr>108</gpxtpx:hr>
          </gpxtpx:TrackPointExtension>
        </extensions>
      </trkpt>
      <trkpt lat="45.97771" lon="6.21456">
        <ele>824.7</ele>
        <time>2021-03-02T13:44:03Z</time>
        <extensions>
          <gpxtpx:TrackPointExtension xmlns:gpxtpx="http://www.garmin.com/xmlschemas/TrackPointExtension/v1">
            <gpxtpx:hr>109</gpxtpx:hr>
          </gpxtpx:TrackPointExtension>
        </extensions>
      </trkpt>
      <trkpt lat="45.97771" lon="6.21456">
        <ele>824.7</ele>
        <time>2021-03-02T13:44:04Z</time>
        <extensions>
          <gpxtpx:TrackPointExtension xmlns:gpxtpx="http://www.garmin.com/xmlschemas/TrackPointExtension/v1">
            <gpxtpx:hr>109</gpxtpx:hr>
          </gpxtpx:TrackPointExtension>
        </extensions>
      </trkpt>
      <trkpt lat="45.97771" lon="6.21457">
        <ele>824.7</ele>
        <time>2021-03-02T13:44:05Z</time>
        <extensions>
          <gpxtpx:TrackPointExtension xmlns:gpxtpx="http://www.garmin.com/xmlschemas/TrackPointExtension/v1">
            <gpxtpx:hr>110</gpxtpx:hr>
          </gpxtpx:TrackPointExtension>
        </extensions>
      </trkpt>
      <trkpt lat="45.9777" lon="6.21459">
        <ele>824.6</ele>
        <time>2021-03-02T13:44:06Z</time>
        <extensions>
          <gpxtpx:TrackPointExtension xmlns:gpxtpx="http://www.garmin.com/xmlschemas/TrackPointExtension/v1">
            <gpxtpx:hr>110</gpxtpx:hr>
          </gpxtpx:TrackPointExtension>
        </extensions>
      </trkpt>
      <trkpt lat="45.97769" lon="6.21462">
        <ele>824.5</ele>
        <time>2021-03-02T13:44:07Z</time>
        <extensions>
          <gpxtpx:TrackPointExtension xmlns:gpxtpx="http://www.garmin.com/xmlschemas/TrackPointExtension/v1">
            <gpxtpx:hr>110</gpxtpx:hr>
          </gpxtpx:TrackPointExtension>
        </extensions>
      </trkpt>
      <trkpt lat="45.97767" lon="6.21465">
        <ele>824.3</ele>
        <time>2021-03-02T13:44:08Z</time>
        <extensions>
          <gpxtpx:TrackPointExtension xmlns:gpxtpx="http://www.garmin.com/xmlschemas/TrackPointExtension/v1">
            <gpxtpx:hr>109</gpxtpx:hr>
          </gpxtpx:TrackPointExtension>
        </extensions>
      </trkpt>
      <trkpt lat="45.97765" lon="6.21468">
        <ele>824.2</ele>
        <time>2021-03-02T13:44:09Z</time>
        <extensions>
          <gpxtpx:TrackPointExtension xmlns:gpxtpx="http://www.garmin.com/xmlschemas/TrackPointExtension/v1">
            <gpxtpx:hr>109</gpxtpx:hr>
          </gpxtpx:TrackPointExtension>
        </extensions>
      </trkpt>
      <trkpt lat="45.97764" lon="6.21471">
        <ele>824</ele>
        <time>2021-03-02T13:44:10Z</time>
        <extensions>
          <gpxtpx:TrackPointExtension xmlns:gpxtpx="http://www.garmin.com/xmlschemas/TrackPointExtension/v1">
            <gpxtpx:hr>109</gpxtpx:hr>
          </gpxtpx:TrackPointExtension>
        </extensions>
      </trkpt>
      <trkpt lat="45.97762" lon="6.21475">
        <ele>823.8</ele>
        <time>2021-03-02T13:44:11Z</time>
        <extensions>
          <gpxtpx:TrackPointExtension xmlns:gpxtpx="http://www.garmin.com/xmlschemas/TrackPointExtension/v1">
            <gpxtpx:hr>109</gpxtpx:hr>
          </gpxtpx:TrackPointExtension>
        </extensions>
      </trkpt>
      <trkpt lat="45.97759" lon="6.21479">
        <ele>823.6</ele>
        <time>2021-03-02T13:44:12Z</time>
        <extensions>
          <gpxtpx:TrackPointExtension xmlns:gpxtpx="http://www.garmin.com/xmlschemas/TrackPointExtension/v1">
            <gpxtpx:hr>109</gpxtpx:hr>
          </gpxtpx:TrackPointExtension>
        </extensions>
      </trkpt>
      <trkpt lat="45.97757" lon="6.21484">
        <ele>823.4</ele>
        <time>2021-03-02T13:44:13Z</time>
        <extensions>
          <gpxtpx:TrackPointExtension xmlns:gpxtpx="http://www.garmin.com/xmlschemas/TrackPointExtension/v1">
            <gpxtpx:hr>109</gpxtpx:hr>
          </gpxtpx:TrackPointExtension>
        </extensions>
      </trkpt>
      <trkpt lat="45.97754" lon="6.21488">
        <ele>823.1</ele>
        <time>2021-03-02T13:44:14Z</time>
        <extensions>
          <gpxtpx:TrackPointExtension xmlns:gpxtpx="http://www.garmin.com/xmlschemas/TrackPointExtension/v1">
            <gpxtpx:hr>109</gpxtpx:hr>
          </gpxtpx:TrackPointExtension>
        </extensions>
      </trkpt>
      <trkpt lat="45.97752" lon="6.21493">
        <ele>822.9</ele>
        <time>2021-03-02T13:44:15Z</time>
        <extensions>
          <gpxtpx:TrackPointExtension xmlns:gpxtpx="http://www.garmin.com/xmlschemas/TrackPointExtension/v1">
            <gpxtpx:hr>109</gpxtpx:hr>
          </gpxtpx:TrackPointExtension>
        </extensions>
      </trkpt>
      <trkpt lat="45.97748" lon="6.21499">
        <ele>822.6</ele>
        <time>2021-03-02T13:44:16Z</time>
        <extensions>
          <gpxtpx:TrackPointExtension xmlns:gpxtpx="http://www.garmin.com/xmlschemas/TrackPointExtension/v1">
            <gpxtpx:hr>109</gpxtpx:hr>
          </gpxtpx:TrackPointExtension>
        </extensions>
      </trkpt>
      <trkpt lat="45.97745" lon="6.21504">
        <ele>822.2</ele>
        <time>2021-03-02T13:44:17Z</time>
        <extensions>
          <gpxtpx:TrackPointExtension xmlns:gpxtpx="http://www.garmin.com/xmlschemas/TrackPointExtension/v1">
            <gpxtpx:hr>109</gpxtpx:hr>
          </gpxtpx:TrackPointExtension>
        </extensions>
      </trkpt>
      <trkpt lat="45.97742" lon="6.2151">
        <ele>821.9</ele>
        <time>2021-03-02T13:44:18Z</time>
        <extensions>
          <gpxtpx:TrackPointExtension xmlns:gpxtpx="http://www.garmin.com/xmlschemas/TrackPointExtension/v1">
            <gpxtpx:hr>108</gpxtpx:hr>
          </gpxtpx:TrackPointExtension>
        </extensions>
      </trkpt>
      <trkpt lat="45.97738" lon="6.21516">
        <ele>821.5</ele>
        <time>2021-03-02T13:44:19Z</time>
        <extensions>
          <gpxtpx:TrackPointExtension xmlns:gpxtpx="http://www.garmin.com/xmlschemas/TrackPointExtension/v1">
            <gpxtpx:hr>109</gpxtpx:hr>
          </gpxtpx:TrackPointExtension>
        </extensions>
      </trkpt>
      <trkpt lat="45.97735" lon="6.21522">
        <ele>821.2</ele>
        <time>2021-03-02T13:44:20Z</time>
        <extensions>
          <gpxtpx:TrackPointExtension xmlns:gpxtpx="http://www.garmin.com/xmlschemas/TrackPointExtension/v1">
            <gpxtpx:hr>109</gpxtpx:hr>
          </gpxtpx:TrackPointExtension>
        </extensions>
      </trkpt>
      <trkpt lat="45.97731" lon="6.21528">
        <ele>820.7</ele>
        <time>2021-03-02T13:44:21Z</time>
        <extensions>
          <gpxtpx:TrackPointExtension xmlns:gpxtpx="http://www.garmin.com/xmlschemas/TrackPointExtension/v1">
            <gpxtpx:hr>109</gpxtpx:hr>
          </gpxtpx:TrackPointExtension>
        </extensions>
      </trkpt>
      <trkpt lat="45.97728" lon="6.21534">
        <ele>820.3</ele>
        <time>2021-03-02T13:44:22Z</time>
        <extensions>
          <gpxtpx:TrackPointExtension xmlns:gpxtpx="http://www.garmin.com/xmlschemas/TrackPointExtension/v1">
            <gpxtpx:hr>109</gpxtpx:hr>
          </gpxtpx:TrackPointExtension>
        </extensions>
      </trkpt>
      <trkpt lat="45.97724" lon="6.21541">
        <ele>819.8</ele>
        <time>2021-03-02T13:44:23Z</time>
        <extensions>
          <gpxtpx:TrackPointExtension xmlns:gpxtpx="http://www.garmin.com/xmlschemas/TrackPointExtension/v1">
            <gpxtpx:hr>109</gpxtpx:hr>
          </gpxtpx:TrackPointExtension>
        </extensions>
      </trkpt>
      <trkpt lat="45.9772" lon="6.21548">
        <ele>819.3</ele>
        <time>2021-03-02T13:44:24Z</time>
        <extensions>
          <gpxtpx:TrackPointExtension xmlns:gpxtpx="http://www.garmin.com/xmlschemas/TrackPointExtension/v1">
            <gpxtpx:hr>109</gpxtpx:hr>
          </gpxtpx:TrackPointExtension>
        </extensions>
      </trkpt>
      <trkpt lat="45.97717" lon="6.21555">
        <ele>818.7</ele>
        <time>2021-03-02T13:44:25Z</time>
        <extensions>
          <gpxtpx:TrackPointExtension xmlns:gpxtpx="http://www.garmin.com/xmlschemas/TrackPointExtension/v1">
            <gpxtpx:hr>110</gpxtpx:hr>
          </gpxtpx:TrackPointExtension>
        </extensions>
      </trkpt>
      <trkpt lat="45.97713" lon="6.21561">
        <ele>818.2</ele>
        <time>2021-03-02T13:44:26Z</time>
        <extensions>
          <gpxtpx:TrackPointExtension xmlns:gpxtpx="http://www.garmin.com/xmlschemas/TrackPointExtension/v1">
            <gpxtpx:hr>110</gpxtpx:hr>
          </gpxtpx:TrackPointExtension>
        </extensions>
      </trkpt>
      <trkpt lat="45.97709" lon="6.21568">
        <ele>817.6</ele>
        <time>2021-03-02T13:44:27Z</time>
        <extensions>
          <gpxtpx:TrackPointExtension xmlns:gpxtpx="http://www.garmin.com/xmlschemas/TrackPointExtension/v1">
            <gpxtpx:hr>111</gpxtpx:hr>
          </gpxtpx:TrackPointExtension>
        </extensions>
      </trkpt>
      <trkpt lat="45.97705" lon="6.21574">
        <ele>817</ele>
        <time>2021-03-02T13:44:28Z</time>
        <extensions>
          <gpxtpx:TrackPointExtension xmlns:gpxtpx="http://www.garmin.com/xmlschemas/TrackPointExtension/v1">
            <gpxtpx:hr>112</gpxtpx:hr>
          </gpxtpx:TrackPointExtension>
        </extensions>
      </trkpt>
      <trkpt lat="45.97702" lon="6.21581">
        <ele>816.5</ele>
        <time>2021-03-02T13:44:29Z</time>
        <extensions>
          <gpxtpx:TrackPointExtension xmlns:gpxtpx="http://www.garmin.com/xmlschemas/TrackPointExtension/v1">
            <gpxtpx:hr>113</gpxtpx:hr>
          </gpxtpx:TrackPointExtension>
        </extensions>
      </trkpt>
      <trkpt lat="45.97698" lon="6.21588">
        <ele>816</ele>
        <time>2021-03-02T13:44:30Z</time>
        <extensions>
          <gpxtpx:TrackPointExtension xmlns:gpxtpx="http://www.garmin.com/xmlschemas/TrackPointExtension/v1">
            <gpxtpx:hr>114</gpxtpx:hr>
          </gpxtpx:TrackPointExtension>
        </extensions>
      </trkpt>
      <trkpt lat="45.97694" lon="6.21595">
        <ele>815.4</ele>
        <time>2021-03-02T13:44:31Z</time>
        <extensions>
          <gpxtpx:TrackPointExtension xmlns:gpxtpx="http://www.garmin.com/xmlschemas/TrackPointExtension/v1">
            <gpxtpx:hr>114</gpxtpx:hr>
          </gpxtpx:TrackPointExtension>
        </extensions>
      </trkpt>
      <trkpt lat="45.9769" lon="6.21602">
        <ele>814.8</ele>
        <time>2021-03-02T13:44:32Z</time>
        <extensions>
          <gpxtpx:TrackPointExtension xmlns:gpxtpx="http://www.garmin.com/xmlschemas/TrackPointExtension/v1">
            <gpxtpx:hr>114</gpxtpx:hr>
          </gpxtpx:TrackPointExtension>
        </extensions>
      </trkpt>
      <trkpt lat="45.97686" lon="6.2161">
        <ele>814.2</ele>
        <time>2021-03-02T13:44:33Z</time>
        <extensions>
          <gpxtpx:TrackPointExtension xmlns:gpxtpx="http://www.garmin.com/xmlschemas/TrackPointExtension/v1">
            <gpxtpx:hr>114</gpxtpx:hr>
          </gpxtpx:TrackPointExtension>
        </extensions>
      </trkpt>
      <trkpt lat="45.97681" lon="6.21617">
        <ele>813.7</ele>
        <time>2021-03-02T13:44:34Z</time>
        <extensions>
          <gpxtpx:TrackPointExtension xmlns:gpxtpx="http://www.garmin.com/xmlschemas/TrackPointExtension/v1">
            <gpxtpx:hr>114</gpxtpx:hr>
          </gpxtpx:TrackPointExtension>
        </extensions>
      </trkpt>
      <trkpt lat="45.97677" lon="6.21625">
        <ele>813.1</ele>
        <time>2021-03-02T13:44:35Z</time>
        <extensions>
          <gpxtpx:TrackPointExtension xmlns:gpxtpx="http://www.garmin.com/xmlschemas/TrackPointExtension/v1">
            <gpxtpx:hr>113</gpxtpx:hr>
          </gpxtpx:TrackPointExtension>
        </extensions>
      </trkpt>
      <trkpt lat="45.97673" lon="6.21632">
        <ele>812.6</ele>
        <time>2021-03-02T13:44:36Z</time>
        <extensions>
          <gpxtpx:TrackPointExtension xmlns:gpxtpx="http://www.garmin.com/xmlschemas/TrackPointExtension/v1">
            <gpxtpx:hr>113</gpxtpx:hr>
          </gpxtpx:TrackPointExtension>
        </extensions>
      </trkpt>
      <trkpt lat="45.97669" lon="6.21639">
        <ele>812.2</ele>
        <time>2021-03-02T13:44:37Z</time>
        <extensions>
          <gpxtpx:TrackPointExtension xmlns:gpxtpx="http://www.garmin.com/xmlschemas/TrackPointExtension/v1">
            <gpxtpx:hr>113</gpxtpx:hr>
          </gpxtpx:TrackPointExtension>
        </extensions>
      </trkpt>
      <trkpt lat="45.97665" lon="6.21646">
        <ele>811.7</ele>
        <time>2021-03-02T13:44:38Z</time>
        <extensions>
          <gpxtpx:TrackPointExtension xmlns:gpxtpx="http://www.garmin.com/xmlschemas/TrackPointExtension/v1">
            <gpxtpx:hr>113</gpxtpx:hr>
          </gpxtpx:TrackPointExtension>
        </extensions>
      </trkpt>
      <trkpt lat="45.97661" lon="6.21653">
        <ele>811.1</ele>
        <time>2021-03-02T13:44:39Z</time>
        <extensions>
          <gpxtpx:TrackPointExtension xmlns:gpxtpx="http://www.garmin.com/xmlschemas/TrackPointExtension/v1">
            <gpxtpx:hr>113</gpxtpx:hr>
          </gpxtpx:TrackPointExtension>
        </extensions>
      </trkpt>
      <trkpt lat="45.97657" lon="6.21659">
        <ele>810.9</ele>
        <time>2021-03-02T13:44:40Z</time>
        <extensions>
          <gpxtpx:TrackPointExtension xmlns:gpxtpx="http://www.garmin.com/xmlschemas/TrackPointExtension/v1">
            <gpxtpx:hr>113</gpxtpx:hr>
          </gpxtpx:TrackPointExtension>
        </extensions>
      </trkpt>
      <trkpt lat="45.97652" lon="6.21664">
        <ele>810.7</ele>
        <time>2021-03-02T13:44:41Z</time>
        <extensions>
          <gpxtpx:TrackPointExtension xmlns:gpxtpx="http://www.garmin.com/xmlschemas/TrackPointExtension/v1">
            <gpxtpx:hr>113</gpxtpx:hr>
          </gpxtpx:TrackPointExtension>
        </extensions>
      </trkpt>
      <trkpt lat="45.97647" lon="6.21666">
        <ele>810.3</ele>
        <time>2021-03-02T13:44:42Z</time>
        <extensions>
          <gpxtpx:TrackPointExtension xmlns:gpxtpx="http://www.garmin.com/xmlschemas/TrackPointExtension/v1">
            <gpxtpx:hr>113</gpxtpx:hr>
          </gpxtpx:TrackPointExtension>
        </extensions>
      </trkpt>
      <trkpt lat="45.97641" lon="6.21667">
        <ele>809.7</ele>
        <time>2021-03-02T13:44:43Z</time>
        <extensions>
          <gpxtpx:TrackPointExtension xmlns:gpxtpx="http://www.garmin.com/xmlschemas/TrackPointExtension/v1">
            <gpxtpx:hr>113</gpxtpx:hr>
          </gpxtpx:TrackPointExtension>
        </extensions>
      </trkpt>
      <trkpt lat="45.97635" lon="6.21665">
        <ele>809.1</ele>
        <time>2021-03-02T13:44:44Z</time>
        <extensions>
          <gpxtpx:TrackPointExtension xmlns:gpxtpx="http://www.garmin.com/xmlschemas/TrackPointExtension/v1">
            <gpxtpx:hr>114</gpxtpx:hr>
          </gpxtpx:TrackPointExtension>
        </extensions>
      </trkpt>
      <trkpt lat="45.97629" lon="6.21663">
        <ele>808.5</ele>
        <time>2021-03-02T13:44:45Z</time>
        <extensions>
          <gpxtpx:TrackPointExtension xmlns:gpxtpx="http://www.garmin.com/xmlschemas/TrackPointExtension/v1">
            <gpxtpx:hr>114</gpxtpx:hr>
          </gpxtpx:TrackPointExtension>
        </extensions>
      </trkpt>
      <trkpt lat="45.97623" lon="6.21661">
        <ele>807.9</ele>
        <time>2021-03-02T13:44:46Z</time>
        <extensions>
          <gpxtpx:TrackPointExtension xmlns:gpxtpx="http://www.garmin.com/xmlschemas/TrackPointExtension/v1">
            <gpxtpx:hr>114</gpxtpx:hr>
          </gpxtpx:TrackPointExtension>
        </extensions>
      </trkpt>
      <trkpt lat="45.97617" lon="6.21658">
        <ele>807.2</ele>
        <time>2021-03-02T13:44:47Z</time>
        <extensions>
          <gpxtpx:TrackPointExtension xmlns:gpxtpx="http://www.garmin.com/xmlschemas/TrackPointExtension/v1">
            <gpxtpx:hr>115</gpxtpx:hr>
          </gpxtpx:TrackPointExtension>
        </extensions>
      </trkpt>
      <trkpt lat="45.97611" lon="6.21656">
        <ele>806.6</ele>
        <time>2021-03-02T13:44:48Z</time>
        <extensions>
          <gpxtpx:TrackPointExtension xmlns:gpxtpx="http://www.garmin.com/xmlschemas/TrackPointExtension/v1">
            <gpxtpx:hr>117</gpxtpx:hr>
          </gpxtpx:TrackPointExtension>
        </extensions>
      </trkpt>
      <trkpt lat="45.97605" lon="6.21654">
        <ele>805.9</ele>
        <time>2021-03-02T13:44:49Z</time>
        <extensions>
          <gpxtpx:TrackPointExtension xmlns:gpxtpx="http://www.garmin.com/xmlschemas/TrackPointExtension/v1">
            <gpxtpx:hr>118</gpxtpx:hr>
          </gpxtpx:TrackPointExtension>
        </extensions>
      </trkpt>
      <trkpt lat="45.97599" lon="6.21652">
        <ele>805.2</ele>
        <time>2021-03-02T13:44:50Z</time>
        <extensions>
          <gpxtpx:TrackPointExtension xmlns:gpxtpx="http://www.garmin.com/xmlschemas/TrackPointExtension/v1">
            <gpxtpx:hr>118</gpxtpx:hr>
          </gpxtpx:TrackPointExtension>
        </extensions>
      </trkpt>
      <trkpt lat="45.97593" lon="6.21649">
        <ele>804.4</ele>
        <time>2021-03-02T13:44:51Z</time>
        <extensions>
          <gpxtpx:TrackPointExtension xmlns:gpxtpx="http://www.garmin.com/xmlschemas/TrackPointExtension/v1">
            <gpxtpx:hr>119</gpxtpx:hr>
          </gpxtpx:TrackPointExtension>
        </extensions>
      </trkpt>
      <trkpt lat="45.97587" lon="6.21646">
        <ele>803.7</ele>
        <time>2021-03-02T13:44:52Z</time>
        <extensions>
          <gpxtpx:TrackPointExtension xmlns:gpxtpx="http://www.garmin.com/xmlschemas/TrackPointExtension/v1">
            <gpxtpx:hr>119</gpxtpx:hr>
          </gpxtpx:TrackPointExtension>
        </extensions>
      </trkpt>
      <trkpt lat="45.97581" lon="6.21644">
        <ele>803</ele>
        <time>2021-03-02T13:44:53Z</time>
        <extensions>
          <gpxtpx:TrackPointExtension xmlns:gpxtpx="http://www.garmin.com/xmlschemas/TrackPointExtension/v1">
            <gpxtpx:hr>119</gpxtpx:hr>
          </gpxtpx:TrackPointExtension>
        </extensions>
      </trkpt>
      <trkpt lat="45.97575" lon="6.21641">
        <ele>802.2</ele>
        <time>2021-03-02T13:44:54Z</time>
        <extensions>
          <gpxtpx:TrackPointExtension xmlns:gpxtpx="http://www.garmin.com/xmlschemas/TrackPointExtension/v1">
            <gpxtpx:hr>118</gpxtpx:hr>
          </gpxtpx:TrackPointExtension>
        </extensions>
      </trkpt>
      <trkpt lat="45.97569" lon="6.21639">
        <ele>801.5</ele>
        <time>2021-03-02T13:44:55Z</time>
        <extensions>
          <gpxtpx:TrackPointExtension xmlns:gpxtpx="http://www.garmin.com/xmlschemas/TrackPointExtension/v1">
            <gpxtpx:hr>118</gpxtpx:hr>
          </gpxtpx:TrackPointExtension>
        </extensions>
      </trkpt>
      <trkpt lat="45.97564" lon="6.21637">
        <ele>800.9</ele>
        <time>2021-03-02T13:44:56Z</time>
        <extensions>
          <gpxtpx:TrackPointExtension xmlns:gpxtpx="http://www.garmin.com/xmlschemas/TrackPointExtension/v1">
            <gpxtpx:hr>118</gpxtpx:hr>
          </gpxtpx:TrackPointExtension>
        </extensions>
      </trkpt>
      <trkpt lat="45.97559" lon="6.21635">
        <ele>800.2</ele>
        <time>2021-03-02T13:44:57Z</time>
        <extensions>
          <gpxtpx:TrackPointExtension xmlns:gpxtpx="http://www.garmin.com/xmlschemas/TrackPointExtension/v1">
            <gpxtpx:hr>117</gpxtpx:hr>
          </gpxtpx:TrackPointExtension>
        </extensions>
      </trkpt>
      <trkpt lat="45.97553" lon="6.21635">
        <ele>799.4</ele>
        <time>2021-03-02T13:44:58Z</time>
        <extensions>
          <gpxtpx:TrackPointExtension xmlns:gpxtpx="http://www.garmin.com/xmlschemas/TrackPointExtension/v1">
            <gpxtpx:hr>117</gpxtpx:hr>
          </gpxtpx:TrackPointExtension>
        </extensions>
      </trkpt>
      <trkpt lat="45.97548" lon="6.21636">
        <ele>798.6</ele>
        <time>2021-03-02T13:44:59Z</time>
        <extensions>
          <gpxtpx:TrackPointExtension xmlns:gpxtpx="http://www.garmin.com/xmlschemas/TrackPointExtension/v1">
            <gpxtpx:hr>117</gpxtpx:hr>
          </gpxtpx:TrackPointExtension>
        </extensions>
      </trkpt>
      <trkpt lat="45.97544" lon="6.2164">
        <ele>797.8</ele>
        <time>2021-03-02T13:45:00Z</time>
        <extensions>
          <gpxtpx:TrackPointExtension xmlns:gpxtpx="http://www.garmin.com/xmlschemas/TrackPointExtension/v1">
            <gpxtpx:hr>116</gpxtpx:hr>
          </gpxtpx:TrackPointExtension>
        </extensions>
      </trkpt>
      <trkpt lat="45.9754" lon="6.21644">
        <ele>797</ele>
        <time>2021-03-02T13:45:01Z</time>
        <extensions>
          <gpxtpx:TrackPointExtension xmlns:gpxtpx="http://www.garmin.com/xmlschemas/TrackPointExtension/v1">
            <gpxtpx:hr>115</gpxtpx:hr>
          </gpxtpx:TrackPointExtension>
        </extensions>
      </trkpt>
      <trkpt lat="45.97536" lon="6.2165">
        <ele>796.1</ele>
        <time>2021-03-02T13:45:02Z</time>
        <extensions>
          <gpxtpx:TrackPointExtension xmlns:gpxtpx="http://www.garmin.com/xmlschemas/TrackPointExtension/v1">
            <gpxtpx:hr>114</gpxtpx:hr>
          </gpxtpx:TrackPointExtension>
        </extensions>
      </trkpt>
      <trkpt lat="45.97532" lon="6.21657">
        <ele>795.4</ele>
        <time>2021-03-02T13:45:03Z</time>
        <extensions>
          <gpxtpx:TrackPointExtension xmlns:gpxtpx="http://www.garmin.com/xmlschemas/TrackPointExtension/v1">
            <gpxtpx:hr>113</gpxtpx:hr>
          </gpxtpx:TrackPointExtension>
        </extensions>
      </trkpt>
      <trkpt lat="45.97529" lon="6.21666">
        <ele>794.4</ele>
        <time>2021-03-02T13:45:04Z</time>
        <extensions>
          <gpxtpx:TrackPointExtension xmlns:gpxtpx="http://www.garmin.com/xmlschemas/TrackPointExtension/v1">
            <gpxtpx:hr>112</gpxtpx:hr>
          </gpxtpx:TrackPointExtension>
        </extensions>
      </trkpt>
      <trkpt lat="45.97527" lon="6.21677">
        <ele>793.5</ele>
        <time>2021-03-02T13:45:05Z</time>
        <extensions>
          <gpxtpx:TrackPointExtension xmlns:gpxtpx="http://www.garmin.com/xmlschemas/TrackPointExtension/v1">
            <gpxtpx:hr>112</gpxtpx:hr>
          </gpxtpx:TrackPointExtension>
        </extensions>
      </trkpt>
      <trkpt lat="45.97526" lon="6.21688">
        <ele>792.6</ele>
        <time>2021-03-02T13:45:06Z</time>
        <extensions>
          <gpxtpx:TrackPointExtension xmlns:gpxtpx="http://www.garmin.com/xmlschemas/TrackPointExtension/v1">
            <gpxtpx:hr>112</gpxtpx:hr>
          </gpxtpx:TrackPointExtension>
        </extensions>
      </trkpt>
      <trkpt lat="45.97525" lon="6.217">
        <ele>791.9</ele>
        <time>2021-03-02T13:45:07Z</time>
        <extensions>
          <gpxtpx:TrackPointExtension xmlns:gpxtpx="http://www.garmin.com/xmlschemas/TrackPointExtension/v1">
            <gpxtpx:hr>111</gpxtpx:hr>
          </gpxtpx:TrackPointExtension>
        </extensions>
      </trkpt>
      <trkpt lat="45.97525" lon="6.21713">
        <ele>791.1</ele>
        <time>2021-03-02T13:45:08Z</time>
        <extensions>
          <gpxtpx:TrackPointExtension xmlns:gpxtpx="http://www.garmin.com/xmlschemas/TrackPointExtension/v1">
            <gpxtpx:hr>111</gpxtpx:hr>
          </gpxtpx:TrackPointExtension>
        </extensions>
      </trkpt>
      <trkpt lat="45.97526" lon="6.21727">
        <ele>790.4</ele>
        <time>2021-03-02T13:45:09Z</time>
        <extensions>
          <gpxtpx:TrackPointExtension xmlns:gpxtpx="http://www.garmin.com/xmlschemas/TrackPointExtension/v1">
            <gpxtpx:hr>110</gpxtpx:hr>
          </gpxtpx:TrackPointExtension>
        </extensions>
      </trkpt>
      <trkpt lat="45.97526" lon="6.2174">
        <ele>789.8</ele>
        <time>2021-03-02T13:45:10Z</time>
        <extensions>
          <gpxtpx:TrackPointExtension xmlns:gpxtpx="http://www.garmin.com/xmlschemas/TrackPointExtension/v1">
            <gpxtpx:hr>110</gpxtpx:hr>
          </gpxtpx:TrackPointExtension>
        </extensions>
      </trkpt>
      <trkpt lat="45.97527" lon="6.21754">
        <ele>789.1</ele>
        <time>2021-03-02T13:45:11Z</time>
        <extensions>
          <gpxtpx:TrackPointExtension xmlns:gpxtpx="http://www.garmin.com/xmlschemas/TrackPointExtension/v1">
            <gpxtpx:hr>110</gpxtpx:hr>
          </gpxtpx:TrackPointExtension>
        </extensions>
      </trkpt>
      <trkpt lat="45.97528" lon="6.21768">
        <ele>788.3</ele>
        <time>2021-03-02T13:45:12Z</time>
        <extensions>
          <gpxtpx:TrackPointExtension xmlns:gpxtpx="http://www.garmin.com/xmlschemas/TrackPointExtension/v1">
            <gpxtpx:hr>109</gpxtpx:hr>
          </gpxtpx:TrackPointExtension>
        </extensions>
      </trkpt>
      <trkpt lat="45.97529" lon="6.21782">
        <ele>787.6</ele>
        <time>2021-03-02T13:45:13Z</time>
        <extensions>
          <gpxtpx:TrackPointExtension xmlns:gpxtpx="http://www.garmin.com/xmlschemas/TrackPointExtension/v1">
            <gpxtpx:hr>109</gpxtpx:hr>
          </gpxtpx:TrackPointExtension>
        </extensions>
      </trkpt>
      <trkpt lat="45.9753" lon="6.21797">
        <ele>786.9</ele>
        <time>2021-03-02T13:45:14Z</time>
        <extensions>
          <gpxtpx:TrackPointExtension xmlns:gpxtpx="http://www.garmin.com/xmlschemas/TrackPointExtension/v1">
            <gpxtpx:hr>108</gpxtpx:hr>
          </gpxtpx:TrackPointExtension>
        </extensions>
      </trkpt>
      <trkpt lat="45.97532" lon="6.2181">
        <ele>786.1</ele>
        <time>2021-03-02T13:45:15Z</time>
        <extensions>
          <gpxtpx:TrackPointExtension xmlns:gpxtpx="http://www.garmin.com/xmlschemas/TrackPointExtension/v1">
            <gpxtpx:hr>107</gpxtpx:hr>
          </gpxtpx:TrackPointExtension>
        </extensions>
      </trkpt>
      <trkpt lat="45.97535" lon="6.21824">
        <ele>785.4</ele>
        <time>2021-03-02T13:45:16Z</time>
        <extensions>
          <gpxtpx:TrackPointExtension xmlns:gpxtpx="http://www.garmin.com/xmlschemas/TrackPointExtension/v1">
            <gpxtpx:hr>108</gpxtpx:hr>
          </gpxtpx:TrackPointExtension>
        </extensions>
      </trkpt>
      <trkpt lat="45.97539" lon="6.21838">
        <ele>784.6</ele>
        <time>2021-03-02T13:45:17Z</time>
        <extensions>
          <gpxtpx:TrackPointExtension xmlns:gpxtpx="http://www.garmin.com/xmlschemas/TrackPointExtension/v1">
            <gpxtpx:hr>108</gpxtpx:hr>
          </gpxtpx:TrackPointExtension>
        </extensions>
      </trkpt>
      <trkpt lat="45.97545" lon="6.2185">
        <ele>783.8</ele>
        <time>2021-03-02T13:45:18Z</time>
        <extensions>
          <gpxtpx:TrackPointExtension xmlns:gpxtpx="http://www.garmin.com/xmlschemas/TrackPointExtension/v1">
            <gpxtpx:hr>108</gpxtpx:hr>
          </gpxtpx:TrackPointExtension>
        </extensions>
      </trkpt>
      <trkpt lat="45.97551" lon="6.21862">
        <ele>782.9</ele>
        <time>2021-03-02T13:45:19Z</time>
        <extensions>
          <gpxtpx:TrackPointExtension xmlns:gpxtpx="http://www.garmin.com/xmlschemas/TrackPointExtension/v1">
            <gpxtpx:hr>108</gpxtpx:hr>
          </gpxtpx:TrackPointExtension>
        </extensions>
      </trkpt>
      <trkpt lat="45.97556" lon="6.21874">
        <ele>782.2</ele>
        <time>2021-03-02T13:45:20Z</time>
        <extensions>
          <gpxtpx:TrackPointExtension xmlns:gpxtpx="http://www.garmin.com/xmlschemas/TrackPointExtension/v1">
            <gpxtpx:hr>108</gpxtpx:hr>
          </gpxtpx:TrackPointExtension>
        </extensions>
      </trkpt>
      <trkpt lat="45.9756" lon="6.21886">
        <ele>781.5</ele>
        <time>2021-03-02T13:45:21Z</time>
        <extensions>
          <gpxtpx:TrackPointExtension xmlns:gpxtpx="http://www.garmin.com/xmlschemas/TrackPointExtension/v1">
            <gpxtpx:hr>109</gpxtpx:hr>
          </gpxtpx:TrackPointExtension>
        </extensions>
      </trkpt>
      <trkpt lat="45.97564" lon="6.21898">
        <ele>781.1</ele>
        <time>2021-03-02T13:45:22Z</time>
        <extensions>
          <gpxtpx:TrackPointExtension xmlns:gpxtpx="http://www.garmin.com/xmlschemas/TrackPointExtension/v1">
            <gpxtpx:hr>108</gpxtpx:hr>
          </gpxtpx:TrackPointExtension>
        </extensions>
      </trkpt>
      <trkpt lat="45.97566" lon="6.21911">
        <ele>780.8</ele>
        <time>2021-03-02T13:45:23Z</time>
        <extensions>
          <gpxtpx:TrackPointExtension xmlns:gpxtpx="http://www.garmin.com/xmlschemas/TrackPointExtension/v1">
            <gpxtpx:hr>108</gpxtpx:hr>
          </gpxtpx:TrackPointExtension>
        </extensions>
      </trkpt>
      <trkpt lat="45.97566" lon="6.21923">
        <ele>780.4</ele>
        <time>2021-03-02T13:45:24Z</time>
        <extensions>
          <gpxtpx:TrackPointExtension xmlns:gpxtpx="http://www.garmin.com/xmlschemas/TrackPointExtension/v1">
            <gpxtpx:hr>108</gpxtpx:hr>
          </gpxtpx:TrackPointExtension>
        </extensions>
      </trkpt>
      <trkpt lat="45.97565" lon="6.21934">
        <ele>780</ele>
        <time>2021-03-02T13:45:25Z</time>
        <extensions>
          <gpxtpx:TrackPointExtension xmlns:gpxtpx="http://www.garmin.com/xmlschemas/TrackPointExtension/v1">
            <gpxtpx:hr>108</gpxtpx:hr>
          </gpxtpx:TrackPointExtension>
        </extensions>
      </trkpt>
      <trkpt lat="45.97563" lon="6.21944">
        <ele>779.4</ele>
        <time>2021-03-02T13:45:26Z</time>
        <extensions>
          <gpxtpx:TrackPointExtension xmlns:gpxtpx="http://www.garmin.com/xmlschemas/TrackPointExtension/v1">
            <gpxtpx:hr>108</gpxtpx:hr>
          </gpxtpx:TrackPointExtension>
        </extensions>
      </trkpt>
      <trkpt lat="45.9756" lon="6.21951">
        <ele>779</ele>
        <time>2021-03-02T13:45:27Z</time>
        <extensions>
          <gpxtpx:TrackPointExtension xmlns:gpxtpx="http://www.garmin.com/xmlschemas/TrackPointExtension/v1">
            <gpxtpx:hr>108</gpxtpx:hr>
          </gpxtpx:TrackPointExtension>
        </extensions>
      </trkpt>
      <trkpt lat="45.97558" lon="6.21957">
        <ele>778.6</ele>
        <time>2021-03-02T13:45:28Z</time>
        <extensions>
          <gpxtpx:TrackPointExtension xmlns:gpxtpx="http://www.garmin.com/xmlschemas/TrackPointExtension/v1">
            <gpxtpx:hr>109</gpxtpx:hr>
          </gpxtpx:TrackPointExtension>
        </extensions>
      </trkpt>
      <trkpt lat="45.97557" lon="6.21961">
        <ele>778.3</ele>
        <time>2021-03-02T13:45:29Z</time>
        <extensions>
          <gpxtpx:TrackPointExtension xmlns:gpxtpx="http://www.garmin.com/xmlschemas/TrackPointExtension/v1">
            <gpxtpx:hr>109</gpxtpx:hr>
          </gpxtpx:TrackPointExtension>
        </extensions>
      </trkpt>
      <trkpt lat="45.97556" lon="6.21965">
        <ele>778.1</ele>
        <time>2021-03-02T13:45:30Z</time>
        <extensions>
          <gpxtpx:TrackPointExtension xmlns:gpxtpx="http://www.garmin.com/xmlschemas/TrackPointExtension/v1">
            <gpxtpx:hr>109</gpxtpx:hr>
          </gpxtpx:TrackPointExtension>
        </extensions>
      </trkpt>
      <trkpt lat="45.97555" lon="6.21968">
        <ele>777.9</ele>
        <time>2021-03-02T13:45:31Z</time>
        <extensions>
          <gpxtpx:TrackPointExtension xmlns:gpxtpx="http://www.garmin.com/xmlschemas/TrackPointExtension/v1">
            <gpxtpx:hr>109</gpxtpx:hr>
          </gpxtpx:TrackPointExtension>
        </extensions>
      </trkpt>
      <trkpt lat="45.97554" lon="6.21972">
        <ele>777.7</ele>
        <time>2021-03-02T13:45:32Z</time>
        <extensions>
          <gpxtpx:TrackPointExtension xmlns:gpxtpx="http://www.garmin.com/xmlschemas/TrackPointExtension/v1">
            <gpxtpx:hr>109</gpxtpx:hr>
          </gpxtpx:TrackPointExtension>
        </extensions>
      </trkpt>
      <trkpt lat="45.97554" lon="6.21976">
        <ele>777.5</ele>
        <time>2021-03-02T13:45:33Z</time>
        <extensions>
          <gpxtpx:TrackPointExtension xmlns:gpxtpx="http://www.garmin.com/xmlschemas/TrackPointExtension/v1">
            <gpxtpx:hr>109</gpxtpx:hr>
          </gpxtpx:TrackPointExtension>
        </extensions>
      </trkpt>
      <trkpt lat="45.97555" lon="6.2198">
        <ele>777.3</ele>
        <time>2021-03-02T13:45:34Z</time>
        <extensions>
          <gpxtpx:TrackPointExtension xmlns:gpxtpx="http://www.garmin.com/xmlschemas/TrackPointExtension/v1">
            <gpxtpx:hr>109</gpxtpx:hr>
          </gpxtpx:TrackPointExtension>
        </extensions>
      </trkpt>
      <trkpt lat="45.97557" lon="6.21985">
        <ele>777</ele>
        <time>2021-03-02T13:45:35Z</time>
        <extensions>
          <gpxtpx:TrackPointExtension xmlns:gpxtpx="http://www.garmin.com/xmlschemas/TrackPointExtension/v1">
            <gpxtpx:hr>109</gpxtpx:hr>
          </gpxtpx:TrackPointExtension>
        </extensions>
      </trkpt>
      <trkpt lat="45.97561" lon="6.21988">
        <ele>776.9</ele>
        <time>2021-03-02T13:45:36Z</time>
        <extensions>
          <gpxtpx:TrackPointExtension xmlns:gpxtpx="http://www.garmin.com/xmlschemas/TrackPointExtension/v1">
            <gpxtpx:hr>108</gpxtpx:hr>
          </gpxtpx:TrackPointExtension>
        </extensions>
      </trkpt>
      <trkpt lat="45.97566" lon="6.21992">
        <ele>776.7</ele>
        <time>2021-03-02T13:45:37Z</time>
        <extensions>
          <gpxtpx:TrackPointExtension xmlns:gpxtpx="http://www.garmin.com/xmlschemas/TrackPointExtension/v1">
            <gpxtpx:hr>108</gpxtpx:hr>
          </gpxtpx:TrackPointExtension>
        </extensions>
      </trkpt>
      <trkpt lat="45.97571" lon="6.21996">
        <ele>776.4</ele>
        <time>2021-03-02T13:45:38Z</time>
        <extensions>
          <gpxtpx:TrackPointExtension xmlns:gpxtpx="http://www.garmin.com/xmlschemas/TrackPointExtension/v1">
            <gpxtpx:hr>108</gpxtpx:hr>
          </gpxtpx:TrackPointExtension>
        </extensions>
      </trkpt>
      <trkpt lat="45.97576" lon="6.21998">
        <ele>776.2</ele>
        <time>2021-03-02T13:45:39Z</time>
        <extensions>
          <gpxtpx:TrackPointExtension xmlns:gpxtpx="http://www.garmin.com/xmlschemas/TrackPointExtension/v1">
            <gpxtpx:hr>108</gpxtpx:hr>
          </gpxtpx:TrackPointExtension>
        </extensions>
      </trkpt>
      <trkpt lat="45.97582" lon="6.22001">
        <ele>776</ele>
        <time>2021-03-02T13:45:40Z</time>
        <extensions>
          <gpxtpx:TrackPointExtension xmlns:gpxtpx="http://www.garmin.com/xmlschemas/TrackPointExtension/v1">
            <gpxtpx:hr>108</gpxtpx:hr>
          </gpxtpx:TrackPointExtension>
        </extensions>
      </trkpt>
      <trkpt lat="45.97589" lon="6.22002">
        <ele>775.7</ele>
        <time>2021-03-02T13:45:41Z</time>
        <extensions>
          <gpxtpx:TrackPointExtension xmlns:gpxtpx="http://www.garmin.com/xmlschemas/TrackPointExtension/v1">
            <gpxtpx:hr>107</gpxtpx:hr>
          </gpxtpx:TrackPointExtension>
        </extensions>
      </trkpt>
      <trkpt lat="45.97595" lon="6.22004">
        <ele>775.4</ele>
        <time>2021-03-02T13:45:42Z</time>
        <extensions>
          <gpxtpx:TrackPointExtension xmlns:gpxtpx="http://www.garmin.com/xmlschemas/TrackPointExtension/v1">
            <gpxtpx:hr>107</gpxtpx:hr>
          </gpxtpx:TrackPointExtension>
        </extensions>
      </trkpt>
      <trkpt lat="45.97602" lon="6.22005">
        <ele>775.1</ele>
        <time>2021-03-02T13:45:43Z</time>
        <extensions>
          <gpxtpx:TrackPointExtension xmlns:gpxtpx="http://www.garmin.com/xmlschemas/TrackPointExtension/v1">
            <gpxtpx:hr>106</gpxtpx:hr>
          </gpxtpx:TrackPointExtension>
        </extensions>
      </trkpt>
      <trkpt lat="45.97609" lon="6.22005">
        <ele>774.7</ele>
        <time>2021-03-02T13:45:44Z</time>
        <extensions>
          <gpxtpx:TrackPointExtension xmlns:gpxtpx="http://www.garmin.com/xmlschemas/TrackPointExtension/v1">
            <gpxtpx:hr>105</gpxtpx:hr>
          </gpxtpx:TrackPointExtension>
        </extensions>
      </trkpt>
      <trkpt lat="45.97616" lon="6.22006">
        <ele>774.4</ele>
        <time>2021-03-02T13:45:45Z</time>
        <extensions>
          <gpxtpx:TrackPointExtension xmlns:gpxtpx="http://www.garmin.com/xmlschemas/TrackPointExtension/v1">
            <gpxtpx:hr>105</gpxtpx:hr>
          </gpxtpx:TrackPointExtension>
        </extensions>
      </trkpt>
      <trkpt lat="45.97624" lon="6.22007">
        <ele>773.9</ele>
        <time>2021-03-02T13:45:46Z</time>
        <extensions>
          <gpxtpx:TrackPointExtension xmlns:gpxtpx="http://www.garmin.com/xmlschemas/TrackPointExtension/v1">
            <gpxtpx:hr>104</gpxtpx:hr>
          </gpxtpx:TrackPointExtension>
        </extensions>
      </trkpt>
      <trkpt lat="45.97632" lon="6.22008">
        <ele>773.4</ele>
        <time>2021-03-02T13:45:47Z</time>
        <extensions>
          <gpxtpx:TrackPointExtension xmlns:gpxtpx="http://www.garmin.com/xmlschemas/TrackPointExtension/v1">
            <gpxtpx:hr>104</gpxtpx:hr>
          </gpxtpx:TrackPointExtension>
        </extensions>
      </trkpt>
      <trkpt lat="45.97641" lon="6.2201">
        <ele>772.8</ele>
        <time>2021-03-02T13:45:48Z</time>
        <extensions>
          <gpxtpx:TrackPointExtension xmlns:gpxtpx="http://www.garmin.com/xmlschemas/TrackPointExtension/v1">
            <gpxtpx:hr>105</gpxtpx:hr>
          </gpxtpx:TrackPointExtension>
        </extensions>
      </trkpt>
      <trkpt lat="45.9765" lon="6.22012">
        <ele>772.2</ele>
        <time>2021-03-02T13:45:49Z</time>
        <extensions>
          <gpxtpx:TrackPointExtension xmlns:gpxtpx="http://www.garmin.com/xmlschemas/TrackPointExtension/v1">
            <gpxtpx:hr>105</gpxtpx:hr>
          </gpxtpx:TrackPointExtension>
        </extensions>
      </trkpt>
      <trkpt lat="45.97658" lon="6.22016">
        <ele>771.5</ele>
        <time>2021-03-02T13:45:50Z</time>
        <extensions>
          <gpxtpx:TrackPointExtension xmlns:gpxtpx="http://www.garmin.com/xmlschemas/TrackPointExtension/v1">
            <gpxtpx:hr>105</gpxtpx:hr>
          </gpxtpx:TrackPointExtension>
        </extensions>
      </trkpt>
      <trkpt lat="45.97667" lon="6.22022">
        <ele>770.8</ele>
        <time>2021-03-02T13:45:51Z</time>
        <extensions>
          <gpxtpx:TrackPointExtension xmlns:gpxtpx="http://www.garmin.com/xmlschemas/TrackPointExtension/v1">
            <gpxtpx:hr>105</gpxtpx:hr>
          </gpxtpx:TrackPointExtension>
        </extensions>
      </trkpt>
      <trkpt lat="45.97676" lon="6.22028">
        <ele>770</ele>
        <time>2021-03-02T13:45:52Z</time>
        <extensions>
          <gpxtpx:TrackPointExtension xmlns:gpxtpx="http://www.garmin.com/xmlschemas/TrackPointExtension/v1">
            <gpxtpx:hr>105</gpxtpx:hr>
          </gpxtpx:TrackPointExtension>
        </extensions>
      </trkpt>
      <trkpt lat="45.97685" lon="6.22037">
        <ele>769.3</ele>
        <time>2021-03-02T13:45:53Z</time>
        <extensions>
          <gpxtpx:TrackPointExtension xmlns:gpxtpx="http://www.garmin.com/xmlschemas/TrackPointExtension/v1">
            <gpxtpx:hr>106</gpxtpx:hr>
          </gpxtpx:TrackPointExtension>
        </extensions>
      </trkpt>
      <trkpt lat="45.97693" lon="6.22046">
        <ele>768.5</ele>
        <time>2021-03-02T13:45:54Z</time>
        <extensions>
          <gpxtpx:TrackPointExtension xmlns:gpxtpx="http://www.garmin.com/xmlschemas/TrackPointExtension/v1">
            <gpxtpx:hr>106</gpxtpx:hr>
          </gpxtpx:TrackPointExtension>
        </extensions>
      </trkpt>
      <trkpt lat="45.97701" lon="6.22058">
        <ele>767.6</ele>
        <time>2021-03-02T13:45:55Z</time>
        <extensions>
          <gpxtpx:TrackPointExtension xmlns:gpxtpx="http://www.garmin.com/xmlschemas/TrackPointExtension/v1">
            <gpxtpx:hr>106</gpxtpx:hr>
          </gpxtpx:TrackPointExtension>
        </extensions>
      </trkpt>
      <trkpt lat="45.97708" lon="6.2207">
        <ele>766.8</ele>
        <time>2021-03-02T13:45:56Z</time>
        <extensions>
          <gpxtpx:TrackPointExtension xmlns:gpxtpx="http://www.garmin.com/xmlschemas/TrackPointExtension/v1">
            <gpxtpx:hr>107</gpxtpx:hr>
          </gpxtpx:TrackPointExtension>
        </extensions>
      </trkpt>
      <trkpt lat="45.97714" lon="6.22083">
        <ele>766</ele>
        <time>2021-03-02T13:45:57Z</time>
        <extensions>
          <gpxtpx:TrackPointExtension xmlns:gpxtpx="http://www.garmin.com/xmlschemas/TrackPointExtension/v1">
            <gpxtpx:hr>108</gpxtpx:hr>
          </gpxtpx:TrackPointExtension>
        </extensions>
      </trkpt>
      <trkpt lat="45.9772" lon="6.22095">
        <ele>765.1</ele>
        <time>2021-03-02T13:45:58Z</time>
        <extensions>
          <gpxtpx:TrackPointExtension xmlns:gpxtpx="http://www.garmin.com/xmlschemas/TrackPointExtension/v1">
            <gpxtpx:hr>109</gpxtpx:hr>
          </gpxtpx:TrackPointExtension>
        </extensions>
      </trkpt>
      <trkpt lat="45.97726" lon="6.22107">
        <ele>764.3</ele>
        <time>2021-03-02T13:45:59Z</time>
        <extensions>
          <gpxtpx:TrackPointExtension xmlns:gpxtpx="http://www.garmin.com/xmlschemas/TrackPointExtension/v1">
            <gpxtpx:hr>108</gpxtpx:hr>
          </gpxtpx:TrackPointExtension>
        </extensions>
      </trkpt>
      <trkpt lat="45.97732" lon="6.22119">
        <ele>763.8</ele>
        <time>2021-03-02T13:46:00Z</time>
        <extensions>
          <gpxtpx:TrackPointExtension xmlns:gpxtpx="http://www.garmin.com/xmlschemas/TrackPointExtension/v1">
            <gpxtpx:hr>108</gpxtpx:hr>
          </gpxtpx:TrackPointExtension>
        </extensions>
      </trkpt>
      <trkpt lat="45.97738" lon="6.22132">
        <ele>763.3</ele>
        <time>2021-03-02T13:46:01Z</time>
        <extensions>
          <gpxtpx:TrackPointExtension xmlns:gpxtpx="http://www.garmin.com/xmlschemas/TrackPointExtension/v1">
            <gpxtpx:hr>108</gpxtpx:hr>
          </gpxtpx:TrackPointExtension>
        </extensions>
      </trkpt>
      <trkpt lat="45.97744" lon="6.22144">
        <ele>762.9</ele>
        <time>2021-03-02T13:46:02Z</time>
        <extensions>
          <gpxtpx:TrackPointExtension xmlns:gpxtpx="http://www.garmin.com/xmlschemas/TrackPointExtension/v1">
            <gpxtpx:hr>107</gpxtpx:hr>
          </gpxtpx:TrackPointExtension>
        </extensions>
      </trkpt>
      <trkpt lat="45.97748" lon="6.22155">
        <ele>762.4</ele>
        <time>2021-03-02T13:46:03Z</time>
        <extensions>
          <gpxtpx:TrackPointExtension xmlns:gpxtpx="http://www.garmin.com/xmlschemas/TrackPointExtension/v1">
            <gpxtpx:hr>107</gpxtpx:hr>
          </gpxtpx:TrackPointExtension>
        </extensions>
      </trkpt>
      <trkpt lat="45.97753" lon="6.22164">
        <ele>761.9</ele>
        <time>2021-03-02T13:46:04Z</time>
        <extensions>
          <gpxtpx:TrackPointExtension xmlns:gpxtpx="http://www.garmin.com/xmlschemas/TrackPointExtension/v1">
            <gpxtpx:hr>107</gpxtpx:hr>
          </gpxtpx:TrackPointExtension>
        </extensions>
      </trkpt>
      <trkpt lat="45.97757" lon="6.22173">
        <ele>761.6</ele>
        <time>2021-03-02T13:46:05Z</time>
        <extensions>
          <gpxtpx:TrackPointExtension xmlns:gpxtpx="http://www.garmin.com/xmlschemas/TrackPointExtension/v1">
            <gpxtpx:hr>108</gpxtpx:hr>
          </gpxtpx:TrackPointExtension>
        </extensions>
      </trkpt>
      <trkpt lat="45.97762" lon="6.22182">
        <ele>761.3</ele>
        <time>2021-03-02T13:46:06Z</time>
        <extensions>
          <gpxtpx:TrackPointExtension xmlns:gpxtpx="http://www.garmin.com/xmlschemas/TrackPointExtension/v1">
            <gpxtpx:hr>108</gpxtpx:hr>
          </gpxtpx:TrackPointExtension>
        </extensions>
      </trkpt>
      <trkpt lat="45.97767" lon="6.22191">
        <ele>761.2</ele>
        <time>2021-03-02T13:46:07Z</time>
        <extensions>
          <gpxtpx:TrackPointExtension xmlns:gpxtpx="http://www.garmin.com/xmlschemas/TrackPointExtension/v1">
            <gpxtpx:hr>108</gpxtpx:hr>
          </gpxtpx:TrackPointExtension>
        </extensions>
      </trkpt>
      <trkpt lat="45.97772" lon="6.222">
        <ele>761.1</ele>
        <time>2021-03-02T13:46:08Z</time>
        <extensions>
          <gpxtpx:TrackPointExtension xmlns:gpxtpx="http://www.garmin.com/xmlschemas/TrackPointExtension/v1">
            <gpxtpx:hr>108</gpxtpx:hr>
          </gpxtpx:TrackPointExtension>
        </extensions>
      </trkpt>
      <trkpt lat="45.97777" lon="6.22209">
        <ele>761</ele>
        <time>2021-03-02T13:46:09Z</time>
        <extensions>
          <gpxtpx:TrackPointExtension xmlns:gpxtpx="http://www.garmin.com/xmlschemas/TrackPointExtension/v1">
            <gpxtpx:hr>107</gpxtpx:hr>
          </gpxtpx:TrackPointExtension>
        </extensions>
      </trkpt>
      <trkpt lat="45.97782" lon="6.22218">
        <ele>761</ele>
        <time>2021-03-02T13:46:10Z</time>
        <extensions>
          <gpxtpx:TrackPointExtension xmlns:gpxtpx="http://www.garmin.com/xmlschemas/TrackPointExtension/v1">
            <gpxtpx:hr>107</gpxtpx:hr>
          </gpxtpx:TrackPointExtension>
        </extensions>
      </trkpt>
      <trkpt lat="45.97788" lon="6.22227">
        <ele>760.5</ele>
        <time>2021-03-02T13:46:11Z</time>
        <extensions>
          <gpxtpx:TrackPointExtension xmlns:gpxtpx="http://www.garmin.com/xmlschemas/TrackPointExtension/v1">
            <gpxtpx:hr>106</gpxtpx:hr>
          </gpxtpx:TrackPointExtension>
        </extensions>
      </trkpt>
      <trkpt lat="45.97794" lon="6.22235">
        <ele>760</ele>
        <time>2021-03-02T13:46:12Z</time>
        <extensions>
          <gpxtpx:TrackPointExtension xmlns:gpxtpx="http://www.garmin.com/xmlschemas/TrackPointExtension/v1">
            <gpxtpx:hr>106</gpxtpx:hr>
          </gpxtpx:TrackPointExtension>
        </extensions>
      </trkpt>
      <trkpt lat="45.978" lon="6.22244">
        <ele>759.6</ele>
        <time>2021-03-02T13:46:13Z</time>
        <extensions>
          <gpxtpx:TrackPointExtension xmlns:gpxtpx="http://www.garmin.com/xmlschemas/TrackPointExtension/v1">
            <gpxtpx:hr>107</gpxtpx:hr>
          </gpxtpx:TrackPointExtension>
        </extensions>
      </trkpt>
      <trkpt lat="45.97806" lon="6.22252">
        <ele>759.2</ele>
        <time>2021-03-02T13:46:14Z</time>
        <extensions>
          <gpxtpx:TrackPointExtension xmlns:gpxtpx="http://www.garmin.com/xmlschemas/TrackPointExtension/v1">
            <gpxtpx:hr>107</gpxtpx:hr>
          </gpxtpx:TrackPointExtension>
        </extensions>
      </trkpt>
      <trkpt lat="45.97813" lon="6.22261">
        <ele>758.8</ele>
        <time>2021-03-02T13:46:15Z</time>
        <extensions>
          <gpxtpx:TrackPointExtension xmlns:gpxtpx="http://www.garmin.com/xmlschemas/TrackPointExtension/v1">
            <gpxtpx:hr>108</gpxtpx:hr>
          </gpxtpx:TrackPointExtension>
        </extensions>
      </trkpt>
      <trkpt lat="45.9782" lon="6.22269">
        <ele>758.6</ele>
        <time>2021-03-02T13:46:16Z</time>
        <extensions>
          <gpxtpx:TrackPointExtension xmlns:gpxtpx="http://www.garmin.com/xmlschemas/TrackPointExtension/v1">
            <gpxtpx:hr>108</gpxtpx:hr>
          </gpxtpx:TrackPointExtension>
        </extensions>
      </trkpt>
      <trkpt lat="45.97827" lon="6.22277">
        <ele>758.5</ele>
        <time>2021-03-02T13:46:17Z</time>
        <extensions>
          <gpxtpx:TrackPointExtension xmlns:gpxtpx="http://www.garmin.com/xmlschemas/TrackPointExtension/v1">
            <gpxtpx:hr>109</gpxtpx:hr>
          </gpxtpx:TrackPointExtension>
        </extensions>
      </trkpt>
      <trkpt lat="45.97834" lon="6.22285">
        <ele>758.4</ele>
        <time>2021-03-02T13:46:18Z</time>
        <extensions>
          <gpxtpx:TrackPointExtension xmlns:gpxtpx="http://www.garmin.com/xmlschemas/TrackPointExtension/v1">
            <gpxtpx:hr>109</gpxtpx:hr>
          </gpxtpx:TrackPointExtension>
        </extensions>
      </trkpt>
      <trkpt lat="45.97841" lon="6.22294">
        <ele>758.3</ele>
        <time>2021-03-02T13:46:19Z</time>
        <extensions>
          <gpxtpx:TrackPointExtension xmlns:gpxtpx="http://www.garmin.com/xmlschemas/TrackPointExtension/v1">
            <gpxtpx:hr>110</gpxtpx:hr>
          </gpxtpx:TrackPointExtension>
        </extensions>
      </trkpt>
      <trkpt lat="45.97847" lon="6.22303">
        <ele>758.2</ele>
        <time>2021-03-02T13:46:20Z</time>
        <extensions>
          <gpxtpx:TrackPointExtension xmlns:gpxtpx="http://www.garmin.com/xmlschemas/TrackPointExtension/v1">
            <gpxtpx:hr>111</gpxtpx:hr>
          </gpxtpx:TrackPointExtension>
        </extensions>
      </trkpt>
      <trkpt lat="45.97854" lon="6.22313">
        <ele>758.1</ele>
        <time>2021-03-02T13:46:21Z</time>
        <extensions>
          <gpxtpx:TrackPointExtension xmlns:gpxtpx="http://www.garmin.com/xmlschemas/TrackPointExtension/v1">
            <gpxtpx:hr>112</gpxtpx:hr>
          </gpxtpx:TrackPointExtension>
        </extensions>
      </trkpt>
      <trkpt lat="45.97861" lon="6.22322">
        <ele>757.9</ele>
        <time>2021-03-02T13:46:22Z</time>
        <extensions>
          <gpxtpx:TrackPointExtension xmlns:gpxtpx="http://www.garmin.com/xmlschemas/TrackPointExtension/v1">
            <gpxtpx:hr>113</gpxtpx:hr>
          </gpxtpx:TrackPointExtension>
        </extensions>
      </trkpt>
      <trkpt lat="45.97867" lon="6.22332">
        <ele>757.8</ele>
        <time>2021-03-02T13:46:23Z</time>
        <extensions>
          <gpxtpx:TrackPointExtension xmlns:gpxtpx="http://www.garmin.com/xmlschemas/TrackPointExtension/v1">
            <gpxtpx:hr>114</gpxtpx:hr>
          </gpxtpx:TrackPointExtension>
        </extensions>
      </trkpt>
      <trkpt lat="45.97873" lon="6.22343">
        <ele>757.6</ele>
        <time>2021-03-02T13:46:24Z</time>
        <extensions>
          <gpxtpx:TrackPointExtension xmlns:gpxtpx="http://www.garmin.com/xmlschemas/TrackPointExtension/v1">
            <gpxtpx:hr>116</gpxtpx:hr>
          </gpxtpx:TrackPointExtension>
        </extensions>
      </trkpt>
      <trkpt lat="45.97878" lon="6.22355">
        <ele>757.4</ele>
        <time>2021-03-02T13:46:25Z</time>
        <extensions>
          <gpxtpx:TrackPointExtension xmlns:gpxtpx="http://www.garmin.com/xmlschemas/TrackPointExtension/v1">
            <gpxtpx:hr>118</gpxtpx:hr>
          </gpxtpx:TrackPointExtension>
        </extensions>
      </trkpt>
      <trkpt lat="45.97882" lon="6.22367">
        <ele>757.2</ele>
        <time>2021-03-02T13:46:26Z</time>
        <extensions>
          <gpxtpx:TrackPointExtension xmlns:gpxtpx="http://www.garmin.com/xmlschemas/TrackPointExtension/v1">
            <gpxtpx:hr>120</gpxtpx:hr>
          </gpxtpx:TrackPointExtension>
        </extensions>
      </trkpt>
      <trkpt lat="45.97887" lon="6.22379">
        <ele>757.1</ele>
        <time>2021-03-02T13:46:27Z</time>
        <extensions>
          <gpxtpx:TrackPointExtension xmlns:gpxtpx="http://www.garmin.com/xmlschemas/TrackPointExtension/v1">
            <gpxtpx:hr>122</gpxtpx:hr>
          </gpxtpx:TrackPointExtension>
        </extensions>
      </trkpt>
      <trkpt lat="45.97891" lon="6.22392">
        <ele>756.9</ele>
        <time>2021-03-02T13:46:28Z</time>
        <extensions>
          <gpxtpx:TrackPointExtension xmlns:gpxtpx="http://www.garmin.com/xmlschemas/TrackPointExtension/v1">
            <gpxtpx:hr>123</gpxtpx:hr>
          </gpxtpx:TrackPointExtension>
        </extensions>
      </trkpt>
      <trkpt lat="45.97895" lon="6.22404">
        <ele>756.8</ele>
        <time>2021-03-02T13:46:29Z</time>
        <extensions>
          <gpxtpx:TrackPointExtension xmlns:gpxtpx="http://www.garmin.com/xmlschemas/TrackPointExtension/v1">
            <gpxtpx:hr>124</gpxtpx:hr>
          </gpxtpx:TrackPointExtension>
        </extensions>
      </trkpt>
      <trkpt lat="45.97899" lon="6.22417">
        <ele>756.7</ele>
        <time>2021-03-02T13:46:30Z</time>
        <extensions>
          <gpxtpx:TrackPointExtension xmlns:gpxtpx="http://www.garmin.com/xmlschemas/TrackPointExtension/v1">
            <gpxtpx:hr>124</gpxtpx:hr>
          </gpxtpx:TrackPointExtension>
        </extensions>
      </trkpt>
      <trkpt lat="45.97903" lon="6.22429">
        <ele>756.6</ele>
        <time>2021-03-02T13:46:31Z</time>
        <extensions>
          <gpxtpx:TrackPointExtension xmlns:gpxtpx="http://www.garmin.com/xmlschemas/TrackPointExtension/v1">
            <gpxtpx:hr>124</gpxtpx:hr>
          </gpxtpx:TrackPointExtension>
        </extensions>
      </trkpt>
      <trkpt lat="45.97907" lon="6.22441">
        <ele>756.4</ele>
        <time>2021-03-02T13:46:32Z</time>
        <extensions>
          <gpxtpx:TrackPointExtension xmlns:gpxtpx="http://www.garmin.com/xmlschemas/TrackPointExtension/v1">
            <gpxtpx:hr>123</gpxtpx:hr>
          </gpxtpx:TrackPointExtension>
        </extensions>
      </trkpt>
      <trkpt lat="45.97911" lon="6.22452">
        <ele>756.3</ele>
        <time>2021-03-02T13:46:33Z</time>
        <extensions>
          <gpxtpx:TrackPointExtension xmlns:gpxtpx="http://www.garmin.com/xmlschemas/TrackPointExtension/v1">
            <gpxtpx:hr>123</gpxtpx:hr>
          </gpxtpx:TrackPointExtension>
        </extensions>
      </trkpt>
      <trkpt lat="45.97916" lon="6.22463">
        <ele>756.2</ele>
        <time>2021-03-02T13:46:34Z</time>
        <extensions>
          <gpxtpx:TrackPointExtension xmlns:gpxtpx="http://www.garmin.com/xmlschemas/TrackPointExtension/v1">
            <gpxtpx:hr>123</gpxtpx:hr>
          </gpxtpx:TrackPointExtension>
        </extensions>
      </trkpt>
      <trkpt lat="45.97921" lon="6.22473">
        <ele>756.1</ele>
        <time>2021-03-02T13:46:35Z</time>
        <extensions>
          <gpxtpx:TrackPointExtension xmlns:gpxtpx="http://www.garmin.com/xmlschemas/TrackPointExtension/v1">
            <gpxtpx:hr>122</gpxtpx:hr>
          </gpxtpx:TrackPointExtension>
        </extensions>
      </trkpt>
      <trkpt lat="45.97926" lon="6.22483">
        <ele>756</ele>
        <time>2021-03-02T13:46:36Z</time>
        <extensions>
          <gpxtpx:TrackPointExtension xmlns:gpxtpx="http://www.garmin.com/xmlschemas/TrackPointExtension/v1">
            <gpxtpx:hr>122</gpxtpx:hr>
          </gpxtpx:TrackPointExtension>
        </extensions>
      </trkpt>
      <trkpt lat="45.97932" lon="6.22492">
        <ele>756</ele>
        <time>2021-03-02T13:46:37Z</time>
        <extensions>
          <gpxtpx:TrackPointExtension xmlns:gpxtpx="http://www.garmin.com/xmlschemas/TrackPointExtension/v1">
            <gpxtpx:hr>122</gpxtpx:hr>
          </gpxtpx:TrackPointExtension>
        </extensions>
      </trkpt>
      <trkpt lat="45.97938" lon="6.225">
        <ele>755.9</ele>
        <time>2021-03-02T13:46:38Z</time>
        <extensions>
          <gpxtpx:TrackPointExtension xmlns:gpxtpx="http://www.garmin.com/xmlschemas/TrackPointExtension/v1">
            <gpxtpx:hr>121</gpxtpx:hr>
          </gpxtpx:TrackPointExtension>
        </extensions>
      </trkpt>
      <trkpt lat="45.97945" lon="6.22508">
        <ele>755.8</ele>
        <time>2021-03-02T13:46:39Z</time>
        <extensions>
          <gpxtpx:TrackPointExtension xmlns:gpxtpx="http://www.garmin.com/xmlschemas/TrackPointExtension/v1">
            <gpxtpx:hr>121</gpxtpx:hr>
          </gpxtpx:TrackPointExtension>
        </extensions>
      </trkpt>
      <trkpt lat="45.97951" lon="6.22516">
        <ele>755.7</ele>
        <time>2021-03-02T13:46:40Z</time>
        <extensions>
          <gpxtpx:TrackPointExtension xmlns:gpxtpx="http://www.garmin.com/xmlschemas/TrackPointExtension/v1">
            <gpxtpx:hr>121</gpxtpx:hr>
          </gpxtpx:TrackPointExtension>
        </extensions>
      </trkpt>
      <trkpt lat="45.97958" lon="6.22523">
        <ele>755.6</ele>
        <time>2021-03-02T13:46:41Z</time>
        <extensions>
          <gpxtpx:TrackPointExtension xmlns:gpxtpx="http://www.garmin.com/xmlschemas/TrackPointExtension/v1">
            <gpxtpx:hr>121</gpxtpx:hr>
          </gpxtpx:TrackPointExtension>
        </extensions>
      </trkpt>
      <trkpt lat="45.97965" lon="6.22531">
        <ele>755.5</ele>
        <time>2021-03-02T13:46:42Z</time>
        <extensions>
          <gpxtpx:TrackPointExtension xmlns:gpxtpx="http://www.garmin.com/xmlschemas/TrackPointExtension/v1">
            <gpxtpx:hr>120</gpxtpx:hr>
          </gpxtpx:TrackPointExtension>
        </extensions>
      </trkpt>
      <trkpt lat="45.97972" lon="6.22538">
        <ele>755.4</ele>
        <time>2021-03-02T13:46:43Z</time>
        <extensions>
          <gpxtpx:TrackPointExtension xmlns:gpxtpx="http://www.garmin.com/xmlschemas/TrackPointExtension/v1">
            <gpxtpx:hr>120</gpxtpx:hr>
          </gpxtpx:TrackPointExtension>
        </extensions>
      </trkpt>
      <trkpt lat="45.97979" lon="6.22545">
        <ele>755.3</ele>
        <time>2021-03-02T13:46:44Z</time>
        <extensions>
          <gpxtpx:TrackPointExtension xmlns:gpxtpx="http://www.garmin.com/xmlschemas/TrackPointExtension/v1">
            <gpxtpx:hr>120</gpxtpx:hr>
          </gpxtpx:TrackPointExtension>
        </extensions>
      </trkpt>
      <trkpt lat="45.97986" lon="6.22553">
        <ele>755.1</ele>
        <time>2021-03-02T13:46:45Z</time>
        <extensions>
          <gpxtpx:TrackPointExtension xmlns:gpxtpx="http://www.garmin.com/xmlschemas/TrackPointExtension/v1">
            <gpxtpx:hr>120</gpxtpx:hr>
          </gpxtpx:TrackPointExtension>
        </extensions>
      </trkpt>
      <trkpt lat="45.97993" lon="6.2256">
        <ele>755</ele>
        <time>2021-03-02T13:46:46Z</time>
        <extensions>
          <gpxtpx:TrackPointExtension xmlns:gpxtpx="http://www.garmin.com/xmlschemas/TrackPointExtension/v1">
            <gpxtpx:hr>120</gpxtpx:hr>
          </gpxtpx:TrackPointExtension>
        </extensions>
      </trkpt>
      <trkpt lat="45.98" lon="6.22568">
        <ele>754.9</ele>
        <time>2021-03-02T13:46:47Z</time>
        <extensions>
          <gpxtpx:TrackPointExtension xmlns:gpxtpx="http://www.garmin.com/xmlschemas/TrackPointExtension/v1">
            <gpxtpx:hr>119</gpxtpx:hr>
          </gpxtpx:TrackPointExtension>
        </extensions>
      </trkpt>
      <trkpt lat="45.98007" lon="6.22577">
        <ele>754.8</ele>
        <time>2021-03-02T13:46:48Z</time>
        <extensions>
          <gpxtpx:TrackPointExtension xmlns:gpxtpx="http://www.garmin.com/xmlschemas/TrackPointExtension/v1">
            <gpxtpx:hr>119</gpxtpx:hr>
          </gpxtpx:TrackPointExtension>
        </extensions>
      </trkpt>
      <trkpt lat="45.98014" lon="6.22585">
        <ele>754.7</ele>
        <time>2021-03-02T13:46:49Z</time>
        <extensions>
          <gpxtpx:TrackPointExtension xmlns:gpxtpx="http://www.garmin.com/xmlschemas/TrackPointExtension/v1">
            <gpxtpx:hr>119</gpxtpx:hr>
          </gpxtpx:TrackPointExtension>
        </extensions>
      </trkpt>
      <trkpt lat="45.98021" lon="6.22594">
        <ele>754.6</ele>
        <time>2021-03-02T13:46:50Z</time>
        <extensions>
          <gpxtpx:TrackPointExtension xmlns:gpxtpx="http://www.garmin.com/xmlschemas/TrackPointExtension/v1">
            <gpxtpx:hr>119</gpxtpx:hr>
          </gpxtpx:TrackPointExtension>
        </extensions>
      </trkpt>
      <trkpt lat="45.98028" lon="6.22602">
        <ele>754.6</ele>
        <time>2021-03-02T13:46:51Z</time>
        <extensions>
          <gpxtpx:TrackPointExtension xmlns:gpxtpx="http://www.garmin.com/xmlschemas/TrackPointExtension/v1">
            <gpxtpx:hr>119</gpxtpx:hr>
          </gpxtpx:TrackPointExtension>
        </extensions>
      </trkpt>
      <trkpt lat="45.98034" lon="6.22611">
        <ele>754.5</ele>
        <time>2021-03-02T13:46:52Z</time>
        <extensions>
          <gpxtpx:TrackPointExtension xmlns:gpxtpx="http://www.garmin.com/xmlschemas/TrackPointExtension/v1">
            <gpxtpx:hr>118</gpxtpx:hr>
          </gpxtpx:TrackPointExtension>
        </extensions>
      </trkpt>
      <trkpt lat="45.9804" lon="6.22619">
        <ele>754.4</ele>
        <time>2021-03-02T13:46:53Z</time>
        <extensions>
          <gpxtpx:TrackPointExtension xmlns:gpxtpx="http://www.garmin.com/xmlschemas/TrackPointExtension/v1">
            <gpxtpx:hr>118</gpxtpx:hr>
          </gpxtpx:TrackPointExtension>
        </extensions>
      </trkpt>
      <trkpt lat="45.98045" lon="6.22627">
        <ele>754.3</ele>
        <time>2021-03-02T13:46:54Z</time>
        <extensions>
          <gpxtpx:TrackPointExtension xmlns:gpxtpx="http://www.garmin.com/xmlschemas/TrackPointExtension/v1">
            <gpxtpx:hr>117</gpxtpx:hr>
          </gpxtpx:TrackPointExtension>
        </extensions>
      </trkpt>
      <trkpt lat="45.98051" lon="6.22635">
        <ele>754.2</ele>
        <time>2021-03-02T13:46:55Z</time>
        <extensions>
          <gpxtpx:TrackPointExtension xmlns:gpxtpx="http://www.garmin.com/xmlschemas/TrackPointExtension/v1">
            <gpxtpx:hr>117</gpxtpx:hr>
          </gpxtpx:TrackPointExtension>
        </extensions>
      </trkpt>
      <trkpt lat="45.98057" lon="6.22643">
        <ele>754.1</ele>
        <time>2021-03-02T13:46:56Z</time>
        <extensions>
          <gpxtpx:TrackPointExtension xmlns:gpxtpx="http://www.garmin.com/xmlschemas/TrackPointExtension/v1">
            <gpxtpx:hr>115</gpxtpx:hr>
          </gpxtpx:TrackPointExtension>
        </extensions>
      </trkpt>
      <trkpt lat="45.98063" lon="6.22651">
        <ele>754</ele>
        <time>2021-03-02T13:46:57Z</time>
        <extensions>
          <gpxtpx:TrackPointExtension xmlns:gpxtpx="http://www.garmin.com/xmlschemas/TrackPointExtension/v1">
            <gpxtpx:hr>114</gpxtpx:hr>
          </gpxtpx:TrackPointExtension>
        </extensions>
      </trkpt>
      <trkpt lat="45.98069" lon="6.22659">
        <ele>754</ele>
        <time>2021-03-02T13:46:58Z</time>
        <extensions>
          <gpxtpx:TrackPointExtension xmlns:gpxtpx="http://www.garmin.com/xmlschemas/TrackPointExtension/v1">
            <gpxtpx:hr>113</gpxtpx:hr>
          </gpxtpx:TrackPointExtension>
        </extensions>
      </trkpt>
      <trkpt lat="45.98075" lon="6.22668">
        <ele>753.9</ele>
        <time>2021-03-02T13:46:59Z</time>
        <extensions>
          <gpxtpx:TrackPointExtension xmlns:gpxtpx="http://www.garmin.com/xmlschemas/TrackPointExtension/v1">
            <gpxtpx:hr>112</gpxtpx:hr>
          </gpxtpx:TrackPointExtension>
        </extensions>
      </trkpt>
      <trkpt lat="45.98081" lon="6.22676">
        <ele>753.9</ele>
        <time>2021-03-02T13:47:00Z</time>
        <extensions>
          <gpxtpx:TrackPointExtension xmlns:gpxtpx="http://www.garmin.com/xmlschemas/TrackPointExtension/v1">
            <gpxtpx:hr>112</gpxtpx:hr>
          </gpxtpx:TrackPointExtension>
        </extensions>
      </trkpt>
      <trkpt lat="45.98088" lon="6.22685">
        <ele>753.9</ele>
        <time>2021-03-02T13:47:01Z</time>
        <extensions>
          <gpxtpx:TrackPointExtension xmlns:gpxtpx="http://www.garmin.com/xmlschemas/TrackPointExtension/v1">
            <gpxtpx:hr>112</gpxtpx:hr>
          </gpxtpx:TrackPointExtension>
        </extensions>
      </trkpt>
      <trkpt lat="45.98094" lon="6.22693">
        <ele>753.9</ele>
        <time>2021-03-02T13:47:02Z</time>
        <extensions>
          <gpxtpx:TrackPointExtension xmlns:gpxtpx="http://www.garmin.com/xmlschemas/TrackPointExtension/v1">
            <gpxtpx:hr>111</gpxtpx:hr>
          </gpxtpx:TrackPointExtension>
        </extensions>
      </trkpt>
      <trkpt lat="45.981" lon="6.22702">
        <ele>753.8</ele>
        <time>2021-03-02T13:47:03Z</time>
        <extensions>
          <gpxtpx:TrackPointExtension xmlns:gpxtpx="http://www.garmin.com/xmlschemas/TrackPointExtension/v1">
            <gpxtpx:hr>111</gpxtpx:hr>
          </gpxtpx:TrackPointExtension>
        </extensions>
      </trkpt>
      <trkpt lat="45.98106" lon="6.2271">
        <ele>753.9</ele>
        <time>2021-03-02T13:47:04Z</time>
        <extensions>
          <gpxtpx:TrackPointExtension xmlns:gpxtpx="http://www.garmin.com/xmlschemas/TrackPointExtension/v1">
            <gpxtpx:hr>111</gpxtpx:hr>
          </gpxtpx:TrackPointExtension>
        </extensions>
      </trkpt>
      <trkpt lat="45.98112" lon="6.22719">
        <ele>753.9</ele>
        <time>2021-03-02T13:47:05Z</time>
        <extensions>
          <gpxtpx:TrackPointExtension xmlns:gpxtpx="http://www.garmin.com/xmlschemas/TrackPointExtension/v1">
            <gpxtpx:hr>112</gpxtpx:hr>
          </gpxtpx:TrackPointExtension>
        </extensions>
      </trkpt>
      <trkpt lat="45.98118" lon="6.22728">
        <ele>753.9</ele>
        <time>2021-03-02T13:47:06Z</time>
        <extensions>
          <gpxtpx:TrackPointExtension xmlns:gpxtpx="http://www.garmin.com/xmlschemas/TrackPointExtension/v1">
            <gpxtpx:hr>112</gpxtpx:hr>
          </gpxtpx:TrackPointExtension>
        </extensions>
      </trkpt>
      <trkpt lat="45.98125" lon="6.22736">
        <ele>754</ele>
        <time>2021-03-02T13:47:07Z</time>
        <extensions>
          <gpxtpx:TrackPointExtension xmlns:gpxtpx="http://www.garmin.com/xmlschemas/TrackPointExtension/v1">
            <gpxtpx:hr>112</gpxtpx:hr>
          </gpxtpx:TrackPointExtension>
        </extensions>
      </trkpt>
      <trkpt lat="45.98131" lon="6.22744">
        <ele>754</ele>
        <time>2021-03-02T13:47:08Z</time>
        <extensions>
          <gpxtpx:TrackPointExtension xmlns:gpxtpx="http://www.garmin.com/xmlschemas/TrackPointExtension/v1">
            <gpxtpx:hr>112</gpxtpx:hr>
          </gpxtpx:TrackPointExtension>
        </extensions>
      </trkpt>
      <trkpt lat="45.98137" lon="6.22753">
        <ele>754</ele>
        <time>2021-03-02T13:47:09Z</time>
        <extensions>
          <gpxtpx:TrackPointExtension xmlns:gpxtpx="http://www.garmin.com/xmlschemas/TrackPointExtension/v1">
            <gpxtpx:hr>112</gpxtpx:hr>
          </gpxtpx:TrackPointExtension>
        </extensions>
      </trkpt>
      <trkpt lat="45.98143" lon="6.22761">
        <ele>754</ele>
        <time>2021-03-02T13:47:10Z</time>
        <extensions>
          <gpxtpx:TrackPointExtension xmlns:gpxtpx="http://www.garmin.com/xmlschemas/TrackPointExtension/v1">
            <gpxtpx:hr>112</gpxtpx:hr>
          </gpxtpx:TrackPointExtension>
        </extensions>
      </trkpt>
      <trkpt lat="45.98148" lon="6.2277">
        <ele>754</ele>
        <time>2021-03-02T13:47:11Z</time>
        <extensions>
          <gpxtpx:TrackPointExtension xmlns:gpxtpx="http://www.garmin.com/xmlschemas/TrackPointExtension/v1">
            <gpxtpx:hr>112</gpxtpx:hr>
          </gpxtpx:TrackPointExtension>
        </extensions>
      </trkpt>
      <trkpt lat="45.98154" lon="6.22779">
        <ele>754</ele>
        <time>2021-03-02T13:47:12Z</time>
        <extensions>
          <gpxtpx:TrackPointExtension xmlns:gpxtpx="http://www.garmin.com/xmlschemas/TrackPointExtension/v1">
            <gpxtpx:hr>112</gpxtpx:hr>
          </gpxtpx:TrackPointExtension>
        </extensions>
      </trkpt>
      <trkpt lat="45.98159" lon="6.22788">
        <ele>754</ele>
        <time>2021-03-02T13:47:13Z</time>
        <extensions>
          <gpxtpx:TrackPointExtension xmlns:gpxtpx="http://www.garmin.com/xmlschemas/TrackPointExtension/v1">
            <gpxtpx:hr>112</gpxtpx:hr>
          </gpxtpx:TrackPointExtension>
        </extensions>
      </trkpt>
      <trkpt lat="45.98165" lon="6.22797">
        <ele>754</ele>
        <time>2021-03-02T13:47:14Z</time>
        <extensions>
          <gpxtpx:TrackPointExtension xmlns:gpxtpx="http://www.garmin.com/xmlschemas/TrackPointExtension/v1">
            <gpxtpx:hr>112</gpxtpx:hr>
          </gpxtpx:TrackPointExtension>
        </extensions>
      </trkpt>
      <trkpt lat="45.9817" lon="6.22807">
        <ele>754</ele>
        <time>2021-03-02T13:47:15Z</time>
        <extensions>
          <gpxtpx:TrackPointExtension xmlns:gpxtpx="http://www.garmin.com/xmlschemas/TrackPointExtension/v1">
            <gpxtpx:hr>111</gpxtpx:hr>
          </gpxtpx:TrackPointExtension>
        </extensions>
      </trkpt>
      <trkpt lat="45.98175" lon="6.22816">
        <ele>754</ele>
        <time>2021-03-02T13:47:16Z</time>
        <extensions>
          <gpxtpx:TrackPointExtension xmlns:gpxtpx="http://www.garmin.com/xmlschemas/TrackPointExtension/v1">
            <gpxtpx:hr>111</gpxtpx:hr>
          </gpxtpx:TrackPointExtension>
        </extensions>
      </trkpt>
      <trkpt lat="45.9818" lon="6.22826">
        <ele>754.1</ele>
        <time>2021-03-02T13:47:17Z</time>
        <extensions>
          <gpxtpx:TrackPointExtension xmlns:gpxtpx="http://www.garmin.com/xmlschemas/TrackPointExtension/v1">
            <gpxtpx:hr>110</gpxtpx:hr>
          </gpxtpx:TrackPointExtension>
        </extensions>
      </trkpt>
      <trkpt lat="45.98185" lon="6.22835">
        <ele>754.1</ele>
        <time>2021-03-02T13:47:18Z</time>
        <extensions>
          <gpxtpx:TrackPointExtension xmlns:gpxtpx="http://www.garmin.com/xmlschemas/TrackPointExtension/v1">
            <gpxtpx:hr>110</gpxtpx:hr>
          </gpxtpx:TrackPointExtension>
        </extensions>
      </trkpt>
      <trkpt lat="45.9819" lon="6.22845">
        <ele>754.2</ele>
        <time>2021-03-02T13:47:19Z</time>
        <extensions>
          <gpxtpx:TrackPointExtension xmlns:gpxtpx="http://www.garmin.com/xmlschemas/TrackPointExtension/v1">
            <gpxtpx:hr>109</gpxtpx:hr>
          </gpxtpx:TrackPointExtension>
        </extensions>
      </trkpt>
      <trkpt lat="45.98195" lon="6.22854">
        <ele>754.3</ele>
        <time>2021-03-02T13:47:20Z</time>
        <extensions>
          <gpxtpx:TrackPointExtension xmlns:gpxtpx="http://www.garmin.com/xmlschemas/TrackPointExtension/v1">
            <gpxtpx:hr>109</gpxtpx:hr>
          </gpxtpx:TrackPointExtension>
        </extensions>
      </trkpt>
      <trkpt lat="45.982" lon="6.22863">
        <ele>754.4</ele>
        <time>2021-03-02T13:47:21Z</time>
        <extensions>
          <gpxtpx:TrackPointExtension xmlns:gpxtpx="http://www.garmin.com/xmlschemas/TrackPointExtension/v1">
            <gpxtpx:hr>109</gpxtpx:hr>
          </gpxtpx:TrackPointExtension>
        </extensions>
      </trkpt>
      <trkpt lat="45.98205" lon="6.22872">
        <ele>754.5</ele>
        <time>2021-03-02T13:47:22Z</time>
        <extensions>
          <gpxtpx:TrackPointExtension xmlns:gpxtpx="http://www.garmin.com/xmlschemas/TrackPointExtension/v1">
            <gpxtpx:hr>109</gpxtpx:hr>
          </gpxtpx:TrackPointExtension>
        </extensions>
      </trkpt>
      <trkpt lat="45.9821" lon="6.22882">
        <ele>754.6</ele>
        <time>2021-03-02T13:47:23Z</time>
        <extensions>
          <gpxtpx:TrackPointExtension xmlns:gpxtpx="http://www.garmin.com/xmlschemas/TrackPointExtension/v1">
            <gpxtpx:hr>108</gpxtpx:hr>
          </gpxtpx:TrackPointExtension>
        </extensions>
      </trkpt>
      <trkpt lat="45.98214" lon="6.22891">
        <ele>754.7</ele>
        <time>2021-03-02T13:47:24Z</time>
        <extensions>
          <gpxtpx:TrackPointExtension xmlns:gpxtpx="http://www.garmin.com/xmlschemas/TrackPointExtension/v1">
            <gpxtpx:hr>108</gpxtpx:hr>
          </gpxtpx:TrackPointExtension>
        </extensions>
      </trkpt>
      <trkpt lat="45.98219" lon="6.229">
        <ele>754.8</ele>
        <time>2021-03-02T13:47:25Z</time>
        <extensions>
          <gpxtpx:TrackPointExtension xmlns:gpxtpx="http://www.garmin.com/xmlschemas/TrackPointExtension/v1">
            <gpxtpx:hr>107</gpxtpx:hr>
          </gpxtpx:TrackPointExtension>
        </extensions>
      </trkpt>
      <trkpt lat="45.98224" lon="6.22909">
        <ele>754.9</ele>
        <time>2021-03-02T13:47:26Z</time>
        <extensions>
          <gpxtpx:TrackPointExtension xmlns:gpxtpx="http://www.garmin.com/xmlschemas/TrackPointExtension/v1">
            <gpxtpx:hr>107</gpxtpx:hr>
          </gpxtpx:TrackPointExtension>
        </extensions>
      </trkpt>
      <trkpt lat="45.98228" lon="6.22918">
        <ele>754.9</ele>
        <time>2021-03-02T13:47:27Z</time>
        <extensions>
          <gpxtpx:TrackPointExtension xmlns:gpxtpx="http://www.garmin.com/xmlschemas/TrackPointExtension/v1">
            <gpxtpx:hr>106</gpxtpx:hr>
          </gpxtpx:TrackPointExtension>
        </extensions>
      </trkpt>
      <trkpt lat="45.98233" lon="6.22926">
        <ele>755</ele>
        <time>2021-03-02T13:47:28Z</time>
        <extensions>
          <gpxtpx:TrackPointExtension xmlns:gpxtpx="http://www.garmin.com/xmlschemas/TrackPointExtension/v1">
            <gpxtpx:hr>105</gpxtpx:hr>
          </gpxtpx:TrackPointExtension>
        </extensions>
      </trkpt>
      <trkpt lat="45.98239" lon="6.22933">
        <ele>755</ele>
        <time>2021-03-02T13:47:29Z</time>
        <extensions>
          <gpxtpx:TrackPointExtension xmlns:gpxtpx="http://www.garmin.com/xmlschemas/TrackPointExtension/v1">
            <gpxtpx:hr>104</gpxtpx:hr>
          </gpxtpx:TrackPointExtension>
        </extensions>
      </trkpt>
      <trkpt lat="45.98244" lon="6.22939">
        <ele>755</ele>
        <time>2021-03-02T13:47:30Z</time>
        <extensions>
          <gpxtpx:TrackPointExtension xmlns:gpxtpx="http://www.garmin.com/xmlschemas/TrackPointExtension/v1">
            <gpxtpx:hr>104</gpxtpx:hr>
          </gpxtpx:TrackPointExtension>
        </extensions>
      </trkpt>
      <trkpt lat="45.98249" lon="6.22943">
        <ele>755</ele>
        <time>2021-03-02T13:47:31Z</time>
        <extensions>
          <gpxtpx:TrackPointExtension xmlns:gpxtpx="http://www.garmin.com/xmlschemas/TrackPointExtension/v1">
            <gpxtpx:hr>102</gpxtpx:hr>
          </gpxtpx:TrackPointExtension>
        </extensions>
      </trkpt>
      <trkpt lat="45.98253" lon="6.22946">
        <ele>754.9</ele>
        <time>2021-03-02T13:47:32Z</time>
        <extensions>
          <gpxtpx:TrackPointExtension xmlns:gpxtpx="http://www.garmin.com/xmlschemas/TrackPointExtension/v1">
            <gpxtpx:hr>101</gpxtpx:hr>
          </gpxtpx:TrackPointExtension>
        </extensions>
      </trkpt>
      <trkpt lat="45.98256" lon="6.2295">
        <ele>754.9</ele>
        <time>2021-03-02T13:47:33Z</time>
        <extensions>
          <gpxtpx:TrackPointExtension xmlns:gpxtpx="http://www.garmin.com/xmlschemas/TrackPointExtension/v1">
            <gpxtpx:hr>100</gpxtpx:hr>
          </gpxtpx:TrackPointExtension>
        </extensions>
      </trkpt>
      <trkpt lat="45.98258" lon="6.22954">
        <ele>754.8</ele>
        <time>2021-03-02T13:47:34Z</time>
        <extensions>
          <gpxtpx:TrackPointExtension xmlns:gpxtpx="http://www.garmin.com/xmlschemas/TrackPointExtension/v1">
            <gpxtpx:hr>99</gpxtpx:hr>
          </gpxtpx:TrackPointExtension>
        </extensions>
      </trkpt>
      <trkpt lat="45.98259" lon="6.22955">
        <ele>754.8</ele>
        <time>2021-03-02T13:47:35Z</time>
        <extensions>
          <gpxtpx:TrackPointExtension xmlns:gpxtpx="http://www.garmin.com/xmlschemas/TrackPointExtension/v1">
            <gpxtpx:hr>98</gpxtpx:hr>
          </gpxtpx:TrackPointExtension>
        </extensions>
      </trkpt>
      <trkpt lat="45.98259" lon="6.22955">
        <ele>754.8</ele>
        <time>2021-03-02T13:47:36Z</time>
        <extensions>
          <gpxtpx:TrackPointExtension xmlns:gpxtpx="http://www.garmin.com/xmlschemas/TrackPointExtension/v1">
            <gpxtpx:hr>97</gpxtpx:hr>
          </gpxtpx:TrackPointExtension>
        </extensions>
      </trkpt>
      <trkpt lat="45.9826" lon="6.22955">
        <ele>754.8</ele>
        <time>2021-03-02T13:47:37Z</time>
        <extensions>
          <gpxtpx:TrackPointExtension xmlns:gpxtpx="http://www.garmin.com/xmlschemas/TrackPointExtension/v1">
            <gpxtpx:hr>97</gpxtpx:hr>
          </gpxtpx:TrackPointExtension>
        </extensions>
      </trkpt>
      <trkpt lat="45.9826" lon="6.22956">
        <ele>754.8</ele>
        <time>2021-03-02T13:47:38Z</time>
        <extensions>
          <gpxtpx:TrackPointExtension xmlns:gpxtpx="http://www.garmin.com/xmlschemas/TrackPointExtension/v1">
            <gpxtpx:hr>97</gpxtpx:hr>
          </gpxtpx:TrackPointExtension>
        </extensions>
      </trkpt>
      <trkpt lat="45.9826" lon="6.22956">
        <ele>754.8</ele>
        <time>2021-03-02T13:47:39Z</time>
        <extensions>
          <gpxtpx:TrackPointExtension xmlns:gpxtpx="http://www.garmin.com/xmlschemas/TrackPointExtension/v1">
            <gpxtpx:hr>92</gpxtpx:hr>
          </gpxtpx:TrackPointExtension>
        </extensions>
      </trkpt>
      <trkpt lat="45.98259" lon="6.22955">
        <ele>754.8</ele>
        <time>2021-03-02T13:49:08Z</time>
        <extensions>
          <gpxtpx:TrackPointExtension xmlns:gpxtpx="http://www.garmin.com/xmlschemas/TrackPointExtension/v1">
            <gpxtpx:hr>93</gpxtpx:hr>
          </gpxtpx:TrackPointExtension>
        </extensions>
      </trkpt>
      <trkpt lat="45.98261" lon="6.22953">
        <ele>754.8</ele>
        <time>2021-03-02T13:49:09Z</time>
        <extensions>
          <gpxtpx:TrackPointExtension xmlns:gpxtpx="http://www.garmin.com/xmlschemas/TrackPointExtension/v1">
            <gpxtpx:hr>94</gpxtpx:hr>
          </gpxtpx:TrackPointExtension>
        </extensions>
      </trkpt>
      <trkpt lat="45.98262" lon="6.22953">
        <ele>754.8</ele>
        <time>2021-03-02T13:49:10Z</time>
        <extensions>
          <gpxtpx:TrackPointExtension xmlns:gpxtpx="http://www.garmin.com/xmlschemas/TrackPointExtension/v1">
            <gpxtpx:hr>95</gpxtpx:hr>
          </gpxtpx:TrackPointExtension>
        </extensions>
      </trkpt>
      <trkpt lat="45.98264" lon="6.22953">
        <ele>754.7</ele>
        <time>2021-03-02T13:49:11Z</time>
        <extensions>
          <gpxtpx:TrackPointExtension xmlns:gpxtpx="http://www.garmin.com/xmlschemas/TrackPointExtension/v1">
            <gpxtpx:hr>96</gpxtpx:hr>
          </gpxtpx:TrackPointExtension>
        </extensions>
      </trkpt>
      <trkpt lat="45.98267" lon="6.22952">
        <ele>754.7</ele>
        <time>2021-03-02T13:49:12Z</time>
        <extensions>
          <gpxtpx:TrackPointExtension xmlns:gpxtpx="http://www.garmin.com/xmlschemas/TrackPointExtension/v1">
            <gpxtpx:hr>96</gpxtpx:hr>
          </gpxtpx:TrackPointExtension>
        </extensions>
      </trkpt>
      <trkpt lat="45.9827" lon="6.22952">
        <ele>754.6</ele>
        <time>2021-03-02T13:49:13Z</time>
        <extensions>
          <gpxtpx:TrackPointExtension xmlns:gpxtpx="http://www.garmin.com/xmlschemas/TrackPointExtension/v1">
            <gpxtpx:hr>97</gpxtpx:hr>
          </gpxtpx:TrackPointExtension>
        </extensions>
      </trkpt>
      <trkpt lat="45.98273" lon="6.22951">
        <ele>754.6</ele>
        <time>2021-03-02T13:49:14Z</time>
        <extensions>
          <gpxtpx:TrackPointExtension xmlns:gpxtpx="http://www.garmin.com/xmlschemas/TrackPointExtension/v1">
            <gpxtpx:hr>97</gpxtpx:hr>
          </gpxtpx:TrackPointExtension>
        </extensions>
      </trkpt>
      <trkpt lat="45.98276" lon="6.2295">
        <ele>754.5</ele>
        <time>2021-03-02T13:49:15Z</time>
        <extensions>
          <gpxtpx:TrackPointExtension xmlns:gpxtpx="http://www.garmin.com/xmlschemas/TrackPointExtension/v1">
            <gpxtpx:hr>97</gpxtpx:hr>
          </gpxtpx:TrackPointExtension>
        </extensions>
      </trkpt>
      <trkpt lat="45.9828" lon="6.22949">
        <ele>754.4</ele>
        <time>2021-03-02T13:49:16Z</time>
        <extensions>
          <gpxtpx:TrackPointExtension xmlns:gpxtpx="http://www.garmin.com/xmlschemas/TrackPointExtension/v1">
            <gpxtpx:hr>97</gpxtpx:hr>
          </gpxtpx:TrackPointExtension>
        </extensions>
      </trkpt>
      <trkpt lat="45.98284" lon="6.22947">
        <ele>754.3</ele>
        <time>2021-03-02T13:49:17Z</time>
        <extensions>
          <gpxtpx:TrackPointExtension xmlns:gpxtpx="http://www.garmin.com/xmlschemas/TrackPointExtension/v1">
            <gpxtpx:hr>97</gpxtpx:hr>
          </gpxtpx:TrackPointExtension>
        </extensions>
      </trkpt>
      <trkpt lat="45.98288" lon="6.22945">
        <ele>754.2</ele>
        <time>2021-03-02T13:49:18Z</time>
        <extensions>
          <gpxtpx:TrackPointExtension xmlns:gpxtpx="http://www.garmin.com/xmlschemas/TrackPointExtension/v1">
            <gpxtpx:hr>97</gpxtpx:hr>
          </gpxtpx:TrackPointExtension>
        </extensions>
      </trkpt>
      <trkpt lat="45.98293" lon="6.22942">
        <ele>754.1</ele>
        <time>2021-03-02T13:49:19Z</time>
        <extensions>
          <gpxtpx:TrackPointExtension xmlns:gpxtpx="http://www.garmin.com/xmlschemas/TrackPointExtension/v1">
            <gpxtpx:hr>97</gpxtpx:hr>
          </gpxtpx:TrackPointExtension>
        </extensions>
      </trkpt>
      <trkpt lat="45.98298" lon="6.22939">
        <ele>754</ele>
        <time>2021-03-02T13:49:20Z</time>
        <extensions>
          <gpxtpx:TrackPointExtension xmlns:gpxtpx="http://www.garmin.com/xmlschemas/TrackPointExtension/v1">
            <gpxtpx:hr>97</gpxtpx:hr>
          </gpxtpx:TrackPointExtension>
        </extensions>
      </trkpt>
      <trkpt lat="45.98303" lon="6.22935">
        <ele>753.8</ele>
        <time>2021-03-02T13:49:21Z</time>
        <extensions>
          <gpxtpx:TrackPointExtension xmlns:gpxtpx="http://www.garmin.com/xmlschemas/TrackPointExtension/v1">
            <gpxtpx:hr>97</gpxtpx:hr>
          </gpxtpx:TrackPointExtension>
        </extensions>
      </trkpt>
      <trkpt lat="45.98308" lon="6.22931">
        <ele>753.6</ele>
        <time>2021-03-02T13:49:22Z</time>
        <extensions>
          <gpxtpx:TrackPointExtension xmlns:gpxtpx="http://www.garmin.com/xmlschemas/TrackPointExtension/v1">
            <gpxtpx:hr>98</gpxtpx:hr>
          </gpxtpx:TrackPointExtension>
        </extensions>
      </trkpt>
      <trkpt lat="45.98314" lon="6.22927">
        <ele>753.4</ele>
        <time>2021-03-02T13:49:23Z</time>
        <extensions>
          <gpxtpx:TrackPointExtension xmlns:gpxtpx="http://www.garmin.com/xmlschemas/TrackPointExtension/v1">
            <gpxtpx:hr>98</gpxtpx:hr>
          </gpxtpx:TrackPointExtension>
        </extensions>
      </trkpt>
      <trkpt lat="45.98321" lon="6.22923">
        <ele>753.2</ele>
        <time>2021-03-02T13:49:24Z</time>
        <extensions>
          <gpxtpx:TrackPointExtension xmlns:gpxtpx="http://www.garmin.com/xmlschemas/TrackPointExtension/v1">
            <gpxtpx:hr>98</gpxtpx:hr>
          </gpxtpx:TrackPointExtension>
        </extensions>
      </trkpt>
      <trkpt lat="45.98328" lon="6.2292">
        <ele>752.9</ele>
        <time>2021-03-02T13:49:25Z</time>
        <extensions>
          <gpxtpx:TrackPointExtension xmlns:gpxtpx="http://www.garmin.com/xmlschemas/TrackPointExtension/v1">
            <gpxtpx:hr>98</gpxtpx:hr>
          </gpxtpx:TrackPointExtension>
        </extensions>
      </trkpt>
      <trkpt lat="45.98335" lon="6.22915">
        <ele>752.7</ele>
        <time>2021-03-02T13:49:26Z</time>
        <extensions>
          <gpxtpx:TrackPointExtension xmlns:gpxtpx="http://www.garmin.com/xmlschemas/TrackPointExtension/v1">
            <gpxtpx:hr>99</gpxtpx:hr>
          </gpxtpx:TrackPointExtension>
        </extensions>
      </trkpt>
      <trkpt lat="45.98342" lon="6.22911">
        <ele>752.5</ele>
        <time>2021-03-02T13:49:27Z</time>
        <extensions>
          <gpxtpx:TrackPointExtension xmlns:gpxtpx="http://www.garmin.com/xmlschemas/TrackPointExtension/v1">
            <gpxtpx:hr>99</gpxtpx:hr>
          </gpxtpx:TrackPointExtension>
        </extensions>
      </trkpt>
      <trkpt lat="45.98349" lon="6.22907">
        <ele>752.2</ele>
        <time>2021-03-02T13:49:28Z</time>
        <extensions>
          <gpxtpx:TrackPointExtension xmlns:gpxtpx="http://www.garmin.com/xmlschemas/TrackPointExtension/v1">
            <gpxtpx:hr>100</gpxtpx:hr>
          </gpxtpx:TrackPointExtension>
        </extensions>
      </trkpt>
      <trkpt lat="45.98357" lon="6.22902">
        <ele>751.9</ele>
        <time>2021-03-02T13:49:29Z</time>
        <extensions>
          <gpxtpx:TrackPointExtension xmlns:gpxtpx="http://www.garmin.com/xmlschemas/TrackPointExtension/v1">
            <gpxtpx:hr>100</gpxtpx:hr>
          </gpxtpx:TrackPointExtension>
        </extensions>
      </trkpt>
      <trkpt lat="45.98365" lon="6.22897">
        <ele>751.7</ele>
        <time>2021-03-02T13:49:30Z</time>
        <extensions>
          <gpxtpx:TrackPointExtension xmlns:gpxtpx="http://www.garmin.com/xmlschemas/TrackPointExtension/v1">
            <gpxtpx:hr>100</gpxtpx:hr>
          </gpxtpx:TrackPointExtension>
        </extensions>
      </trkpt>
      <trkpt lat="45.98373" lon="6.22892">
        <ele>751.4</ele>
        <time>2021-03-02T13:49:31Z</time>
        <extensions>
          <gpxtpx:TrackPointExtension xmlns:gpxtpx="http://www.garmin.com/xmlschemas/TrackPointExtension/v1">
            <gpxtpx:hr>101</gpxtpx:hr>
          </gpxtpx:TrackPointExtension>
        </extensions>
      </trkpt>
      <trkpt lat="45.98381" lon="6.22887">
        <ele>751.1</ele>
        <time>2021-03-02T13:49:32Z</time>
        <extensions>
          <gpxtpx:TrackPointExtension xmlns:gpxtpx="http://www.garmin.com/xmlschemas/TrackPointExtension/v1">
            <gpxtpx:hr>101</gpxtpx:hr>
          </gpxtpx:TrackPointExtension>
        </extensions>
      </trkpt>
      <trkpt lat="45.98389" lon="6.22882">
        <ele>750.7</ele>
        <time>2021-03-02T13:49:33Z</time>
        <extensions>
          <gpxtpx:TrackPointExtension xmlns:gpxtpx="http://www.garmin.com/xmlschemas/TrackPointExtension/v1">
            <gpxtpx:hr>102</gpxtpx:hr>
          </gpxtpx:TrackPointExtension>
        </extensions>
      </trkpt>
      <trkpt lat="45.98398" lon="6.22877">
        <ele>750.4</ele>
        <time>2021-03-02T13:49:34Z</time>
        <extensions>
          <gpxtpx:TrackPointExtension xmlns:gpxtpx="http://www.garmin.com/xmlschemas/TrackPointExtension/v1">
            <gpxtpx:hr>103</gpxtpx:hr>
          </gpxtpx:TrackPointExtension>
        </extensions>
      </trkpt>
      <trkpt lat="45.98406" lon="6.22872">
        <ele>750.1</ele>
        <time>2021-03-02T13:49:35Z</time>
        <extensions>
          <gpxtpx:TrackPointExtension xmlns:gpxtpx="http://www.garmin.com/xmlschemas/TrackPointExtension/v1">
            <gpxtpx:hr>103</gpxtpx:hr>
          </gpxtpx:TrackPointExtension>
        </extensions>
      </trkpt>
      <trkpt lat="45.98414" lon="6.22866">
        <ele>749.7</ele>
        <time>2021-03-02T13:49:36Z</time>
        <extensions>
          <gpxtpx:TrackPointExtension xmlns:gpxtpx="http://www.garmin.com/xmlschemas/TrackPointExtension/v1">
            <gpxtpx:hr>105</gpxtpx:hr>
          </gpxtpx:TrackPointExtension>
        </extensions>
      </trkpt>
      <trkpt lat="45.98423" lon="6.22861">
        <ele>749.3</ele>
        <time>2021-03-02T13:49:37Z</time>
        <extensions>
          <gpxtpx:TrackPointExtension xmlns:gpxtpx="http://www.garmin.com/xmlschemas/TrackPointExtension/v1">
            <gpxtpx:hr>106</gpxtpx:hr>
          </gpxtpx:TrackPointExtension>
        </extensions>
      </trkpt>
      <trkpt lat="45.98432" lon="6.22855">
        <ele>748.9</ele>
        <time>2021-03-02T13:49:38Z</time>
        <extensions>
          <gpxtpx:TrackPointExtension xmlns:gpxtpx="http://www.garmin.com/xmlschemas/TrackPointExtension/v1">
            <gpxtpx:hr>107</gpxtpx:hr>
          </gpxtpx:TrackPointExtension>
        </extensions>
      </trkpt>
      <trkpt lat="45.98441" lon="6.2285">
        <ele>748.4</ele>
        <time>2021-03-02T13:49:39Z</time>
        <extensions>
          <gpxtpx:TrackPointExtension xmlns:gpxtpx="http://www.garmin.com/xmlschemas/TrackPointExtension/v1">
            <gpxtpx:hr>108</gpxtpx:hr>
          </gpxtpx:TrackPointExtension>
        </extensions>
      </trkpt>
      <trkpt lat="45.9845" lon="6.22844">
        <ele>748</ele>
        <time>2021-03-02T13:49:40Z</time>
        <extensions>
          <gpxtpx:TrackPointExtension xmlns:gpxtpx="http://www.garmin.com/xmlschemas/TrackPointExtension/v1">
            <gpxtpx:hr>109</gpxtpx:hr>
          </gpxtpx:TrackPointExtension>
        </extensions>
      </trkpt>
      <trkpt lat="45.98459" lon="6.22839">
        <ele>747.6</ele>
        <time>2021-03-02T13:49:41Z</time>
        <extensions>
          <gpxtpx:TrackPointExtension xmlns:gpxtpx="http://www.garmin.com/xmlschemas/TrackPointExtension/v1">
            <gpxtpx:hr>110</gpxtpx:hr>
          </gpxtpx:TrackPointExtension>
        </extensions>
      </trkpt>
      <trkpt lat="45.98468" lon="6.22834">
        <ele>747.1</ele>
        <time>2021-03-02T13:49:42Z</time>
        <extensions>
          <gpxtpx:TrackPointExtension xmlns:gpxtpx="http://www.garmin.com/xmlschemas/TrackPointExtension/v1">
            <gpxtpx:hr>110</gpxtpx:hr>
          </gpxtpx:TrackPointExtension>
        </extensions>
      </trkpt>
      <trkpt lat="45.98478" lon="6.22829">
        <ele>746.6</ele>
        <time>2021-03-02T13:49:43Z</time>
        <extensions>
          <gpxtpx:TrackPointExtension xmlns:gpxtpx="http://www.garmin.com/xmlschemas/TrackPointExtension/v1">
            <gpxtpx:hr>110</gpxtpx:hr>
          </gpxtpx:TrackPointExtension>
        </extensions>
      </trkpt>
      <trkpt lat="45.98488" lon="6.22826">
        <ele>745.9</ele>
        <time>2021-03-02T13:49:44Z</time>
        <extensions>
          <gpxtpx:TrackPointExtension xmlns:gpxtpx="http://www.garmin.com/xmlschemas/TrackPointExtension/v1">
            <gpxtpx:hr>110</gpxtpx:hr>
          </gpxtpx:TrackPointExtension>
        </extensions>
      </trkpt>
      <trkpt lat="45.98499" lon="6.22823">
        <ele>745.3</ele>
        <time>2021-03-02T13:49:45Z</time>
        <extensions>
          <gpxtpx:TrackPointExtension xmlns:gpxtpx="http://www.garmin.com/xmlschemas/TrackPointExtension/v1">
            <gpxtpx:hr>109</gpxtpx:hr>
          </gpxtpx:TrackPointExtension>
        </extensions>
      </trkpt>
      <trkpt lat="45.9851" lon="6.22822">
        <ele>744.5</ele>
        <time>2021-03-02T13:49:46Z</time>
        <extensions>
          <gpxtpx:TrackPointExtension xmlns:gpxtpx="http://www.garmin.com/xmlschemas/TrackPointExtension/v1">
            <gpxtpx:hr>109</gpxtpx:hr>
          </gpxtpx:TrackPointExtension>
        </extensions>
      </trkpt>
      <trkpt lat="45.98521" lon="6.22823">
        <ele>743.8</ele>
        <time>2021-03-02T13:49:47Z</time>
        <extensions>
          <gpxtpx:TrackPointExtension xmlns:gpxtpx="http://www.garmin.com/xmlschemas/TrackPointExtension/v1">
            <gpxtpx:hr>108</gpxtpx:hr>
          </gpxtpx:TrackPointExtension>
        </extensions>
      </trkpt>
      <trkpt lat="45.98532" lon="6.22824">
        <ele>742.9</ele>
        <time>2021-03-02T13:49:48Z</time>
        <extensions>
          <gpxtpx:TrackPointExtension xmlns:gpxtpx="http://www.garmin.com/xmlschemas/TrackPointExtension/v1">
            <gpxtpx:hr>108</gpxtpx:hr>
          </gpxtpx:TrackPointExtension>
        </extensions>
      </trkpt>
      <trkpt lat="45.98543" lon="6.22828">
        <ele>742.1</ele>
        <time>2021-03-02T13:49:49Z</time>
        <extensions>
          <gpxtpx:TrackPointExtension xmlns:gpxtpx="http://www.garmin.com/xmlschemas/TrackPointExtension/v1">
            <gpxtpx:hr>107</gpxtpx:hr>
          </gpxtpx:TrackPointExtension>
        </extensions>
      </trkpt>
      <trkpt lat="45.98554" lon="6.22833">
        <ele>741.3</ele>
        <time>2021-03-02T13:49:50Z</time>
        <extensions>
          <gpxtpx:TrackPointExtension xmlns:gpxtpx="http://www.garmin.com/xmlschemas/TrackPointExtension/v1">
            <gpxtpx:hr>107</gpxtpx:hr>
          </gpxtpx:TrackPointExtension>
        </extensions>
      </trkpt>
      <trkpt lat="45.98565" lon="6.2284">
        <ele>740.5</ele>
        <time>2021-03-02T13:49:51Z</time>
        <extensions>
          <gpxtpx:TrackPointExtension xmlns:gpxtpx="http://www.garmin.com/xmlschemas/TrackPointExtension/v1">
            <gpxtpx:hr>107</gpxtpx:hr>
          </gpxtpx:TrackPointExtension>
        </extensions>
      </trkpt>
      <trkpt lat="45.98575" lon="6.22848">
        <ele>739.7</ele>
        <time>2021-03-02T13:49:52Z</time>
        <extensions>
          <gpxtpx:TrackPointExtension xmlns:gpxtpx="http://www.garmin.com/xmlschemas/TrackPointExtension/v1">
            <gpxtpx:hr>107</gpxtpx:hr>
          </gpxtpx:TrackPointExtension>
        </extensions>
      </trkpt>
      <trkpt lat="45.98585" lon="6.22858">
        <ele>738.9</ele>
        <time>2021-03-02T13:49:53Z</time>
        <extensions>
          <gpxtpx:TrackPointExtension xmlns:gpxtpx="http://www.garmin.com/xmlschemas/TrackPointExtension/v1">
            <gpxtpx:hr>108</gpxtpx:hr>
          </gpxtpx:TrackPointExtension>
        </extensions>
      </trkpt>
      <trkpt lat="45.98594" lon="6.22869">
        <ele>738.2</ele>
        <time>2021-03-02T13:49:54Z</time>
        <extensions>
          <gpxtpx:TrackPointExtension xmlns:gpxtpx="http://www.garmin.com/xmlschemas/TrackPointExtension/v1">
            <gpxtpx:hr>108</gpxtpx:hr>
          </gpxtpx:TrackPointExtension>
        </extensions>
      </trkpt>
      <trkpt lat="45.98602" lon="6.22882">
        <ele>737.4</ele>
        <time>2021-03-02T13:49:55Z</time>
        <extensions>
          <gpxtpx:TrackPointExtension xmlns:gpxtpx="http://www.garmin.com/xmlschemas/TrackPointExtension/v1">
            <gpxtpx:hr>108</gpxtpx:hr>
          </gpxtpx:TrackPointExtension>
        </extensions>
      </trkpt>
      <trkpt lat="45.98609" lon="6.22896">
        <ele>736.6</ele>
        <time>2021-03-02T13:49:56Z</time>
        <extensions>
          <gpxtpx:TrackPointExtension xmlns:gpxtpx="http://www.garmin.com/xmlschemas/TrackPointExtension/v1">
            <gpxtpx:hr>108</gpxtpx:hr>
          </gpxtpx:TrackPointExtension>
        </extensions>
      </trkpt>
      <trkpt lat="45.98616" lon="6.2291">
        <ele>735.8</ele>
        <time>2021-03-02T13:49:57Z</time>
        <extensions>
          <gpxtpx:TrackPointExtension xmlns:gpxtpx="http://www.garmin.com/xmlschemas/TrackPointExtension/v1">
            <gpxtpx:hr>109</gpxtpx:hr>
          </gpxtpx:TrackPointExtension>
        </extensions>
      </trkpt>
      <trkpt lat="45.98621" lon="6.22926">
        <ele>734.9</ele>
        <time>2021-03-02T13:49:58Z</time>
        <extensions>
          <gpxtpx:TrackPointExtension xmlns:gpxtpx="http://www.garmin.com/xmlschemas/TrackPointExtension/v1">
            <gpxtpx:hr>109</gpxtpx:hr>
          </gpxtpx:TrackPointExtension>
        </extensions>
      </trkpt>
      <trkpt lat="45.98626" lon="6.22942">
        <ele>734</ele>
        <time>2021-03-02T13:49:59Z</time>
        <extensions>
          <gpxtpx:TrackPointExtension xmlns:gpxtpx="http://www.garmin.com/xmlschemas/TrackPointExtension/v1">
            <gpxtpx:hr>109</gpxtpx:hr>
          </gpxtpx:TrackPointExtension>
        </extensions>
      </trkpt>
      <trkpt lat="45.98629" lon="6.22959">
        <ele>733.1</ele>
        <time>2021-03-02T13:50:00Z</time>
        <extensions>
          <gpxtpx:TrackPointExtension xmlns:gpxtpx="http://www.garmin.com/xmlschemas/TrackPointExtension/v1">
            <gpxtpx:hr>109</gpxtpx:hr>
          </gpxtpx:TrackPointExtension>
        </extensions>
      </trkpt>
      <trkpt lat="45.98631" lon="6.22976">
        <ele>732.2</ele>
        <time>2021-03-02T13:50:01Z</time>
        <extensions>
          <gpxtpx:TrackPointExtension xmlns:gpxtpx="http://www.garmin.com/xmlschemas/TrackPointExtension/v1">
            <gpxtpx:hr>109</gpxtpx:hr>
          </gpxtpx:TrackPointExtension>
        </extensions>
      </trkpt>
      <trkpt lat="45.98633" lon="6.22994">
        <ele>731.4</ele>
        <time>2021-03-02T13:50:02Z</time>
        <extensions>
          <gpxtpx:TrackPointExtension xmlns:gpxtpx="http://www.garmin.com/xmlschemas/TrackPointExtension/v1">
            <gpxtpx:hr>109</gpxtpx:hr>
          </gpxtpx:TrackPointExtension>
        </extensions>
      </trkpt>
      <trkpt lat="45.98633" lon="6.23012">
        <ele>730.6</ele>
        <time>2021-03-02T13:50:03Z</time>
        <extensions>
          <gpxtpx:TrackPointExtension xmlns:gpxtpx="http://www.garmin.com/xmlschemas/TrackPointExtension/v1">
            <gpxtpx:hr>109</gpxtpx:hr>
          </gpxtpx:TrackPointExtension>
        </extensions>
      </trkpt>
      <trkpt lat="45.98633" lon="6.23029">
        <ele>729.9</ele>
        <time>2021-03-02T13:50:04Z</time>
        <extensions>
          <gpxtpx:TrackPointExtension xmlns:gpxtpx="http://www.garmin.com/xmlschemas/TrackPointExtension/v1">
            <gpxtpx:hr>109</gpxtpx:hr>
          </gpxtpx:TrackPointExtension>
        </extensions>
      </trkpt>
      <trkpt lat="45.98633" lon="6.23047">
        <ele>729.1</ele>
        <time>2021-03-02T13:50:05Z</time>
        <extensions>
          <gpxtpx:TrackPointExtension xmlns:gpxtpx="http://www.garmin.com/xmlschemas/TrackPointExtension/v1">
            <gpxtpx:hr>109</gpxtpx:hr>
          </gpxtpx:TrackPointExtension>
        </extensions>
      </trkpt>
      <trkpt lat="45.98633" lon="6.23065">
        <ele>728.2</ele>
        <time>2021-03-02T13:50:06Z</time>
        <extensions>
          <gpxtpx:TrackPointExtension xmlns:gpxtpx="http://www.garmin.com/xmlschemas/TrackPointExtension/v1">
            <gpxtpx:hr>109</gpxtpx:hr>
          </gpxtpx:TrackPointExtension>
        </extensions>
      </trkpt>
      <trkpt lat="45.98633" lon="6.23084">
        <ele>727.3</ele>
        <time>2021-03-02T13:50:07Z</time>
        <extensions>
          <gpxtpx:TrackPointExtension xmlns:gpxtpx="http://www.garmin.com/xmlschemas/TrackPointExtension/v1">
            <gpxtpx:hr>109</gpxtpx:hr>
          </gpxtpx:TrackPointExtension>
        </extensions>
      </trkpt>
      <trkpt lat="45.98633" lon="6.23102">
        <ele>726.4</ele>
        <time>2021-03-02T13:50:08Z</time>
        <extensions>
          <gpxtpx:TrackPointExtension xmlns:gpxtpx="http://www.garmin.com/xmlschemas/TrackPointExtension/v1">
            <gpxtpx:hr>109</gpxtpx:hr>
          </gpxtpx:TrackPointExtension>
        </extensions>
      </trkpt>
      <trkpt lat="45.98634" lon="6.23121">
        <ele>725.5</ele>
        <time>2021-03-02T13:50:09Z</time>
        <extensions>
          <gpxtpx:TrackPointExtension xmlns:gpxtpx="http://www.garmin.com/xmlschemas/TrackPointExtension/v1">
            <gpxtpx:hr>109</gpxtpx:hr>
          </gpxtpx:TrackPointExtension>
        </extensions>
      </trkpt>
      <trkpt lat="45.98635" lon="6.23139">
        <ele>724.7</ele>
        <time>2021-03-02T13:50:10Z</time>
        <extensions>
          <gpxtpx:TrackPointExtension xmlns:gpxtpx="http://www.garmin.com/xmlschemas/TrackPointExtension/v1">
            <gpxtpx:hr>109</gpxtpx:hr>
          </gpxtpx:TrackPointExtension>
        </extensions>
      </trkpt>
      <trkpt lat="45.98637" lon="6.23158">
        <ele>723.8</ele>
        <time>2021-03-02T13:50:11Z</time>
        <extensions>
          <gpxtpx:TrackPointExtension xmlns:gpxtpx="http://www.garmin.com/xmlschemas/TrackPointExtension/v1">
            <gpxtpx:hr>109</gpxtpx:hr>
          </gpxtpx:TrackPointExtension>
        </extensions>
      </trkpt>
      <trkpt lat="45.9864" lon="6.23177">
        <ele>723</ele>
        <time>2021-03-02T13:50:12Z</time>
        <extensions>
          <gpxtpx:TrackPointExtension xmlns:gpxtpx="http://www.garmin.com/xmlschemas/TrackPointExtension/v1">
            <gpxtpx:hr>109</gpxtpx:hr>
          </gpxtpx:TrackPointExtension>
        </extensions>
      </trkpt>
      <trkpt lat="45.98643" lon="6.23195">
        <ele>722.2</ele>
        <time>2021-03-02T13:50:13Z</time>
        <extensions>
          <gpxtpx:TrackPointExtension xmlns:gpxtpx="http://www.garmin.com/xmlschemas/TrackPointExtension/v1">
            <gpxtpx:hr>108</gpxtpx:hr>
          </gpxtpx:TrackPointExtension>
        </extensions>
      </trkpt>
      <trkpt lat="45.98648" lon="6.23213">
        <ele>721.4</ele>
        <time>2021-03-02T13:50:14Z</time>
        <extensions>
          <gpxtpx:TrackPointExtension xmlns:gpxtpx="http://www.garmin.com/xmlschemas/TrackPointExtension/v1">
            <gpxtpx:hr>108</gpxtpx:hr>
          </gpxtpx:TrackPointExtension>
        </extensions>
      </trkpt>
      <trkpt lat="45.98654" lon="6.23231">
        <ele>720.6</ele>
        <time>2021-03-02T13:50:15Z</time>
        <extensions>
          <gpxtpx:TrackPointExtension xmlns:gpxtpx="http://www.garmin.com/xmlschemas/TrackPointExtension/v1">
            <gpxtpx:hr>108</gpxtpx:hr>
          </gpxtpx:TrackPointExtension>
        </extensions>
      </trkpt>
      <trkpt lat="45.9866" lon="6.23248">
        <ele>719.7</ele>
        <time>2021-03-02T13:50:16Z</time>
        <extensions>
          <gpxtpx:TrackPointExtension xmlns:gpxtpx="http://www.garmin.com/xmlschemas/TrackPointExtension/v1">
            <gpxtpx:hr>108</gpxtpx:hr>
          </gpxtpx:TrackPointExtension>
        </extensions>
      </trkpt>
      <trkpt lat="45.98665" lon="6.23266">
        <ele>718.7</ele>
        <time>2021-03-02T13:50:17Z</time>
        <extensions>
          <gpxtpx:TrackPointExtension xmlns:gpxtpx="http://www.garmin.com/xmlschemas/TrackPointExtension/v1">
            <gpxtpx:hr>108</gpxtpx:hr>
          </gpxtpx:TrackPointExtension>
        </extensions>
      </trkpt>
      <trkpt lat="45.98671" lon="6.23284">
        <ele>717.8</ele>
        <time>2021-03-02T13:50:18Z</time>
        <extensions>
          <gpxtpx:TrackPointExtension xmlns:gpxtpx="http://www.garmin.com/xmlschemas/TrackPointExtension/v1">
            <gpxtpx:hr>108</gpxtpx:hr>
          </gpxtpx:TrackPointExtension>
        </extensions>
      </trkpt>
      <trkpt lat="45.98677" lon="6.23302">
        <ele>716.7</ele>
        <time>2021-03-02T13:50:19Z</time>
        <extensions>
          <gpxtpx:TrackPointExtension xmlns:gpxtpx="http://www.garmin.com/xmlschemas/TrackPointExtension/v1">
            <gpxtpx:hr>108</gpxtpx:hr>
          </gpxtpx:TrackPointExtension>
        </extensions>
      </trkpt>
      <trkpt lat="45.98683" lon="6.2332">
        <ele>715.7</ele>
        <time>2021-03-02T13:50:20Z</time>
        <extensions>
          <gpxtpx:TrackPointExtension xmlns:gpxtpx="http://www.garmin.com/xmlschemas/TrackPointExtension/v1">
            <gpxtpx:hr>108</gpxtpx:hr>
          </gpxtpx:TrackPointExtension>
        </extensions>
      </trkpt>
      <trkpt lat="45.98689" lon="6.23338">
        <ele>714.7</ele>
        <time>2021-03-02T13:50:21Z</time>
        <extensions>
          <gpxtpx:TrackPointExtension xmlns:gpxtpx="http://www.garmin.com/xmlschemas/TrackPointExtension/v1">
            <gpxtpx:hr>107</gpxtpx:hr>
          </gpxtpx:TrackPointExtension>
        </extensions>
      </trkpt>
      <trkpt lat="45.98694" lon="6.23357">
        <ele>713.8</ele>
        <time>2021-03-02T13:50:22Z</time>
        <extensions>
          <gpxtpx:TrackPointExtension xmlns:gpxtpx="http://www.garmin.com/xmlschemas/TrackPointExtension/v1">
            <gpxtpx:hr>107</gpxtpx:hr>
          </gpxtpx:TrackPointExtension>
        </extensions>
      </trkpt>
      <trkpt lat="45.98699" lon="6.23376">
        <ele>712.8</ele>
        <time>2021-03-02T13:50:23Z</time>
        <extensions>
          <gpxtpx:TrackPointExtension xmlns:gpxtpx="http://www.garmin.com/xmlschemas/TrackPointExtension/v1">
            <gpxtpx:hr>107</gpxtpx:hr>
          </gpxtpx:TrackPointExtension>
        </extensions>
      </trkpt>
      <trkpt lat="45.98702" lon="6.23396">
        <ele>711.9</ele>
        <time>2021-03-02T13:50:24Z</time>
        <extensions>
          <gpxtpx:TrackPointExtension xmlns:gpxtpx="http://www.garmin.com/xmlschemas/TrackPointExtension/v1">
            <gpxtpx:hr>108</gpxtpx:hr>
          </gpxtpx:TrackPointExtension>
        </extensions>
      </trkpt>
      <trkpt lat="45.98703" lon="6.23416">
        <ele>711</ele>
        <time>2021-03-02T13:50:25Z</time>
        <extensions>
          <gpxtpx:TrackPointExtension xmlns:gpxtpx="http://www.garmin.com/xmlschemas/TrackPointExtension/v1">
            <gpxtpx:hr>109</gpxtpx:hr>
          </gpxtpx:TrackPointExtension>
        </extensions>
      </trkpt>
      <trkpt lat="45.98703" lon="6.23436">
        <ele>710.2</ele>
        <time>2021-03-02T13:50:26Z</time>
        <extensions>
          <gpxtpx:TrackPointExtension xmlns:gpxtpx="http://www.garmin.com/xmlschemas/TrackPointExtension/v1">
            <gpxtpx:hr>110</gpxtpx:hr>
          </gpxtpx:TrackPointExtension>
        </extensions>
      </trkpt>
      <trkpt lat="45.98703" lon="6.23455">
        <ele>709.3</ele>
        <time>2021-03-02T13:50:27Z</time>
        <extensions>
          <gpxtpx:TrackPointExtension xmlns:gpxtpx="http://www.garmin.com/xmlschemas/TrackPointExtension/v1">
            <gpxtpx:hr>111</gpxtpx:hr>
          </gpxtpx:TrackPointExtension>
        </extensions>
      </trkpt>
      <trkpt lat="45.987" lon="6.23475">
        <ele>708.3</ele>
        <time>2021-03-02T13:50:28Z</time>
        <extensions>
          <gpxtpx:TrackPointExtension xmlns:gpxtpx="http://www.garmin.com/xmlschemas/TrackPointExtension/v1">
            <gpxtpx:hr>111</gpxtpx:hr>
          </gpxtpx:TrackPointExtension>
        </extensions>
      </trkpt>
      <trkpt lat="45.98696" lon="6.23493">
        <ele>707.4</ele>
        <time>2021-03-02T13:50:29Z</time>
        <extensions>
          <gpxtpx:TrackPointExtension xmlns:gpxtpx="http://www.garmin.com/xmlschemas/TrackPointExtension/v1">
            <gpxtpx:hr>111</gpxtpx:hr>
          </gpxtpx:TrackPointExtension>
        </extensions>
      </trkpt>
      <trkpt lat="45.98692" lon="6.23512">
        <ele>706.4</ele>
        <time>2021-03-02T13:50:30Z</time>
        <extensions>
          <gpxtpx:TrackPointExtension xmlns:gpxtpx="http://www.garmin.com/xmlschemas/TrackPointExtension/v1">
            <gpxtpx:hr>111</gpxtpx:hr>
          </gpxtpx:TrackPointExtension>
        </extensions>
      </trkpt>
      <trkpt lat="45.98687" lon="6.2353">
        <ele>705.5</ele>
        <time>2021-03-02T13:50:31Z</time>
        <extensions>
          <gpxtpx:TrackPointExtension xmlns:gpxtpx="http://www.garmin.com/xmlschemas/TrackPointExtension/v1">
            <gpxtpx:hr>110</gpxtpx:hr>
          </gpxtpx:TrackPointExtension>
        </extensions>
      </trkpt>
      <trkpt lat="45.98684" lon="6.23548">
        <ele>704.7</ele>
        <time>2021-03-02T13:50:32Z</time>
        <extensions>
          <gpxtpx:TrackPointExtension xmlns:gpxtpx="http://www.garmin.com/xmlschemas/TrackPointExtension/v1">
            <gpxtpx:hr>110</gpxtpx:hr>
          </gpxtpx:TrackPointExtension>
        </extensions>
      </trkpt>
      <trkpt lat="45.98681" lon="6.23567">
        <ele>703.8</ele>
        <time>2021-03-02T13:50:33Z</time>
        <extensions>
          <gpxtpx:TrackPointExtension xmlns:gpxtpx="http://www.garmin.com/xmlschemas/TrackPointExtension/v1">
            <gpxtpx:hr>110</gpxtpx:hr>
          </gpxtpx:TrackPointExtension>
        </extensions>
      </trkpt>
      <trkpt lat="45.98681" lon="6.23585">
        <ele>702.9</ele>
        <time>2021-03-02T13:50:34Z</time>
        <extensions>
          <gpxtpx:TrackPointExtension xmlns:gpxtpx="http://www.garmin.com/xmlschemas/TrackPointExtension/v1">
            <gpxtpx:hr>110</gpxtpx:hr>
          </gpxtpx:TrackPointExtension>
        </extensions>
      </trkpt>
      <trkpt lat="45.98683" lon="6.23603">
        <ele>702.1</ele>
        <time>2021-03-02T13:50:35Z</time>
        <extensions>
          <gpxtpx:TrackPointExtension xmlns:gpxtpx="http://www.garmin.com/xmlschemas/TrackPointExtension/v1">
            <gpxtpx:hr>109</gpxtpx:hr>
          </gpxtpx:TrackPointExtension>
        </extensions>
      </trkpt>
      <trkpt lat="45.98688" lon="6.2362">
        <ele>701.3</ele>
        <time>2021-03-02T13:50:36Z</time>
        <extensions>
          <gpxtpx:TrackPointExtension xmlns:gpxtpx="http://www.garmin.com/xmlschemas/TrackPointExtension/v1">
            <gpxtpx:hr>109</gpxtpx:hr>
          </gpxtpx:TrackPointExtension>
        </extensions>
      </trkpt>
      <trkpt lat="45.98696" lon="6.23636">
        <ele>700.4</ele>
        <time>2021-03-02T13:50:37Z</time>
        <extensions>
          <gpxtpx:TrackPointExtension xmlns:gpxtpx="http://www.garmin.com/xmlschemas/TrackPointExtension/v1">
            <gpxtpx:hr>109</gpxtpx:hr>
          </gpxtpx:TrackPointExtension>
        </extensions>
      </trkpt>
      <trkpt lat="45.98703" lon="6.23652">
        <ele>699.5</ele>
        <time>2021-03-02T13:50:38Z</time>
        <extensions>
          <gpxtpx:TrackPointExtension xmlns:gpxtpx="http://www.garmin.com/xmlschemas/TrackPointExtension/v1">
            <gpxtpx:hr>109</gpxtpx:hr>
          </gpxtpx:TrackPointExtension>
        </extensions>
      </trkpt>
      <trkpt lat="45.98709" lon="6.23669">
        <ele>698.7</ele>
        <time>2021-03-02T13:50:39Z</time>
        <extensions>
          <gpxtpx:TrackPointExtension xmlns:gpxtpx="http://www.garmin.com/xmlschemas/TrackPointExtension/v1">
            <gpxtpx:hr>108</gpxtpx:hr>
          </gpxtpx:TrackPointExtension>
        </extensions>
      </trkpt>
      <trkpt lat="45.98715" lon="6.23686">
        <ele>697.8</ele>
        <time>2021-03-02T13:50:40Z</time>
        <extensions>
          <gpxtpx:TrackPointExtension xmlns:gpxtpx="http://www.garmin.com/xmlschemas/TrackPointExtension/v1">
            <gpxtpx:hr>108</gpxtpx:hr>
          </gpxtpx:TrackPointExtension>
        </extensions>
      </trkpt>
      <trkpt lat="45.98721" lon="6.23703">
        <ele>696.9</ele>
        <time>2021-03-02T13:50:41Z</time>
        <extensions>
          <gpxtpx:TrackPointExtension xmlns:gpxtpx="http://www.garmin.com/xmlschemas/TrackPointExtension/v1">
            <gpxtpx:hr>107</gpxtpx:hr>
          </gpxtpx:TrackPointExtension>
        </extensions>
      </trkpt>
      <trkpt lat="45.98728" lon="6.23719">
        <ele>695.9</ele>
        <time>2021-03-02T13:50:42Z</time>
        <extensions>
          <gpxtpx:TrackPointExtension xmlns:gpxtpx="http://www.garmin.com/xmlschemas/TrackPointExtension/v1">
            <gpxtpx:hr>106</gpxtpx:hr>
          </gpxtpx:TrackPointExtension>
        </extensions>
      </trkpt>
      <trkpt lat="45.98737" lon="6.23735">
        <ele>694.9</ele>
        <time>2021-03-02T13:50:43Z</time>
        <extensions>
          <gpxtpx:TrackPointExtension xmlns:gpxtpx="http://www.garmin.com/xmlschemas/TrackPointExtension/v1">
            <gpxtpx:hr>105</gpxtpx:hr>
          </gpxtpx:TrackPointExtension>
        </extensions>
      </trkpt>
      <trkpt lat="45.98747" lon="6.23748">
        <ele>694</ele>
        <time>2021-03-02T13:50:44Z</time>
        <extensions>
          <gpxtpx:TrackPointExtension xmlns:gpxtpx="http://www.garmin.com/xmlschemas/TrackPointExtension/v1">
            <gpxtpx:hr>105</gpxtpx:hr>
          </gpxtpx:TrackPointExtension>
        </extensions>
      </trkpt>
      <trkpt lat="45.98758" lon="6.2376">
        <ele>693.2</ele>
        <time>2021-03-02T13:50:45Z</time>
        <extensions>
          <gpxtpx:TrackPointExtension xmlns:gpxtpx="http://www.garmin.com/xmlschemas/TrackPointExtension/v1">
            <gpxtpx:hr>104</gpxtpx:hr>
          </gpxtpx:TrackPointExtension>
        </extensions>
      </trkpt>
      <trkpt lat="45.98768" lon="6.23774">
        <ele>692.4</ele>
        <time>2021-03-02T13:50:46Z</time>
        <extensions>
          <gpxtpx:TrackPointExtension xmlns:gpxtpx="http://www.garmin.com/xmlschemas/TrackPointExtension/v1">
            <gpxtpx:hr>103</gpxtpx:hr>
          </gpxtpx:TrackPointExtension>
        </extensions>
      </trkpt>
      <trkpt lat="45.98776" lon="6.23789">
        <ele>691.6</ele>
        <time>2021-03-02T13:50:47Z</time>
        <extensions>
          <gpxtpx:TrackPointExtension xmlns:gpxtpx="http://www.garmin.com/xmlschemas/TrackPointExtension/v1">
            <gpxtpx:hr>103</gpxtpx:hr>
          </gpxtpx:TrackPointExtension>
        </extensions>
      </trkpt>
      <trkpt lat="45.9878" lon="6.23805">
        <ele>690.8</ele>
        <time>2021-03-02T13:50:48Z</time>
        <extensions>
          <gpxtpx:TrackPointExtension xmlns:gpxtpx="http://www.garmin.com/xmlschemas/TrackPointExtension/v1">
            <gpxtpx:hr>103</gpxtpx:hr>
          </gpxtpx:TrackPointExtension>
        </extensions>
      </trkpt>
      <trkpt lat="45.98781" lon="6.23821">
        <ele>690</ele>
        <time>2021-03-02T13:50:49Z</time>
        <extensions>
          <gpxtpx:TrackPointExtension xmlns:gpxtpx="http://www.garmin.com/xmlschemas/TrackPointExtension/v1">
            <gpxtpx:hr>103</gpxtpx:hr>
          </gpxtpx:TrackPointExtension>
        </extensions>
      </trkpt>
      <trkpt lat="45.98778" lon="6.23837">
        <ele>689.3</ele>
        <time>2021-03-02T13:50:50Z</time>
        <extensions>
          <gpxtpx:TrackPointExtension xmlns:gpxtpx="http://www.garmin.com/xmlschemas/TrackPointExtension/v1">
            <gpxtpx:hr>103</gpxtpx:hr>
          </gpxtpx:TrackPointExtension>
        </extensions>
      </trkpt>
      <trkpt lat="45.98774" lon="6.23851">
        <ele>688.5</ele>
        <time>2021-03-02T13:50:51Z</time>
        <extensions>
          <gpxtpx:TrackPointExtension xmlns:gpxtpx="http://www.garmin.com/xmlschemas/TrackPointExtension/v1">
            <gpxtpx:hr>103</gpxtpx:hr>
          </gpxtpx:TrackPointExtension>
        </extensions>
      </trkpt>
      <trkpt lat="45.9877" lon="6.23866">
        <ele>687.8</ele>
        <time>2021-03-02T13:50:52Z</time>
        <extensions>
          <gpxtpx:TrackPointExtension xmlns:gpxtpx="http://www.garmin.com/xmlschemas/TrackPointExtension/v1">
            <gpxtpx:hr>103</gpxtpx:hr>
          </gpxtpx:TrackPointExtension>
        </extensions>
      </trkpt>
      <trkpt lat="45.98766" lon="6.23881">
        <ele>687</ele>
        <time>2021-03-02T13:50:53Z</time>
        <extensions>
          <gpxtpx:TrackPointExtension xmlns:gpxtpx="http://www.garmin.com/xmlschemas/TrackPointExtension/v1">
            <gpxtpx:hr>103</gpxtpx:hr>
          </gpxtpx:TrackPointExtension>
        </extensions>
      </trkpt>
      <trkpt lat="45.98765" lon="6.23896">
        <ele>686.2</ele>
        <time>2021-03-02T13:50:54Z</time>
        <extensions>
          <gpxtpx:TrackPointExtension xmlns:gpxtpx="http://www.garmin.com/xmlschemas/TrackPointExtension/v1">
            <gpxtpx:hr>102</gpxtpx:hr>
          </gpxtpx:TrackPointExtension>
        </extensions>
      </trkpt>
      <trkpt lat="45.98765" lon="6.23911">
        <ele>685.5</ele>
        <time>2021-03-02T13:50:55Z</time>
        <extensions>
          <gpxtpx:TrackPointExtension xmlns:gpxtpx="http://www.garmin.com/xmlschemas/TrackPointExtension/v1">
            <gpxtpx:hr>102</gpxtpx:hr>
          </gpxtpx:TrackPointExtension>
        </extensions>
      </trkpt>
      <trkpt lat="45.98767" lon="6.23926">
        <ele>684.8</ele>
        <time>2021-03-02T13:50:56Z</time>
        <extensions>
          <gpxtpx:TrackPointExtension xmlns:gpxtpx="http://www.garmin.com/xmlschemas/TrackPointExtension/v1">
            <gpxtpx:hr>101</gpxtpx:hr>
          </gpxtpx:TrackPointExtension>
        </extensions>
      </trkpt>
      <trkpt lat="45.98774" lon="6.23939">
        <ele>683.9</ele>
        <time>2021-03-02T13:50:57Z</time>
        <extensions>
          <gpxtpx:TrackPointExtension xmlns:gpxtpx="http://www.garmin.com/xmlschemas/TrackPointExtension/v1">
            <gpxtpx:hr>101</gpxtpx:hr>
          </gpxtpx:TrackPointExtension>
        </extensions>
      </trkpt>
      <trkpt lat="45.98783" lon="6.23951">
        <ele>683.1</ele>
        <time>2021-03-02T13:50:58Z</time>
        <extensions>
          <gpxtpx:TrackPointExtension xmlns:gpxtpx="http://www.garmin.com/xmlschemas/TrackPointExtension/v1">
            <gpxtpx:hr>100</gpxtpx:hr>
          </gpxtpx:TrackPointExtension>
        </extensions>
      </trkpt>
      <trkpt lat="45.98791" lon="6.23964">
        <ele>682.2</ele>
        <time>2021-03-02T13:50:59Z</time>
        <extensions>
          <gpxtpx:TrackPointExtension xmlns:gpxtpx="http://www.garmin.com/xmlschemas/TrackPointExtension/v1">
            <gpxtpx:hr>100</gpxtpx:hr>
          </gpxtpx:TrackPointExtension>
        </extensions>
      </trkpt>
      <trkpt lat="45.98798" lon="6.23978">
        <ele>681.4</ele>
        <time>2021-03-02T13:51:00Z</time>
        <extensions>
          <gpxtpx:TrackPointExtension xmlns:gpxtpx="http://www.garmin.com/xmlschemas/TrackPointExtension/v1">
            <gpxtpx:hr>99</gpxtpx:hr>
          </gpxtpx:TrackPointExtension>
        </extensions>
      </trkpt>
      <trkpt lat="45.98804" lon="6.23993">
        <ele>680.5</ele>
        <time>2021-03-02T13:51:01Z</time>
        <extensions>
          <gpxtpx:TrackPointExtension xmlns:gpxtpx="http://www.garmin.com/xmlschemas/TrackPointExtension/v1">
            <gpxtpx:hr>99</gpxtpx:hr>
          </gpxtpx:TrackPointExtension>
        </extensions>
      </trkpt>
      <trkpt lat="45.98808" lon="6.2401">
        <ele>679.6</ele>
        <time>2021-03-02T13:51:02Z</time>
        <extensions>
          <gpxtpx:TrackPointExtension xmlns:gpxtpx="http://www.garmin.com/xmlschemas/TrackPointExtension/v1">
            <gpxtpx:hr>98</gpxtpx:hr>
          </gpxtpx:TrackPointExtension>
        </extensions>
      </trkpt>
      <trkpt lat="45.98812" lon="6.24026">
        <ele>678.8</ele>
        <time>2021-03-02T13:51:03Z</time>
        <extensions>
          <gpxtpx:TrackPointExtension xmlns:gpxtpx="http://www.garmin.com/xmlschemas/TrackPointExtension/v1">
            <gpxtpx:hr>98</gpxtpx:hr>
          </gpxtpx:TrackPointExtension>
        </extensions>
      </trkpt>
      <trkpt lat="45.98815" lon="6.24043">
        <ele>678</ele>
        <time>2021-03-02T13:51:04Z</time>
        <extensions>
          <gpxtpx:TrackPointExtension xmlns:gpxtpx="http://www.garmin.com/xmlschemas/TrackPointExtension/v1">
            <gpxtpx:hr>98</gpxtpx:hr>
          </gpxtpx:TrackPointExtension>
        </extensions>
      </trkpt>
      <trkpt lat="45.98818" lon="6.24061">
        <ele>677.2</ele>
        <time>2021-03-02T13:51:05Z</time>
        <extensions>
          <gpxtpx:TrackPointExtension xmlns:gpxtpx="http://www.garmin.com/xmlschemas/TrackPointExtension/v1">
            <gpxtpx:hr>97</gpxtpx:hr>
          </gpxtpx:TrackPointExtension>
        </extensions>
      </trkpt>
      <trkpt lat="45.98821" lon="6.24078">
        <ele>676.3</ele>
        <time>2021-03-02T13:51:06Z</time>
        <extensions>
          <gpxtpx:TrackPointExtension xmlns:gpxtpx="http://www.garmin.com/xmlschemas/TrackPointExtension/v1">
            <gpxtpx:hr>97</gpxtpx:hr>
          </gpxtpx:TrackPointExtension>
        </extensions>
      </trkpt>
      <trkpt lat="45.98824" lon="6.24096">
        <ele>675.5</ele>
        <time>2021-03-02T13:51:07Z</time>
        <extensions>
          <gpxtpx:TrackPointExtension xmlns:gpxtpx="http://www.garmin.com/xmlschemas/TrackPointExtension/v1">
            <gpxtpx:hr>97</gpxtpx:hr>
          </gpxtpx:TrackPointExtension>
        </extensions>
      </trkpt>
      <trkpt lat="45.98827" lon="6.24114">
        <ele>674.6</ele>
        <time>2021-03-02T13:51:08Z</time>
        <extensions>
          <gpxtpx:TrackPointExtension xmlns:gpxtpx="http://www.garmin.com/xmlschemas/TrackPointExtension/v1">
            <gpxtpx:hr>96</gpxtpx:hr>
          </gpxtpx:TrackPointExtension>
        </extensions>
      </trkpt>
      <trkpt lat="45.9883" lon="6.24132">
        <ele>673.6</ele>
        <time>2021-03-02T13:51:09Z</time>
        <extensions>
          <gpxtpx:TrackPointExtension xmlns:gpxtpx="http://www.garmin.com/xmlschemas/TrackPointExtension/v1">
            <gpxtpx:hr>96</gpxtpx:hr>
          </gpxtpx:TrackPointExtension>
        </extensions>
      </trkpt>
      <trkpt lat="45.98834" lon="6.24151">
        <ele>672.7</ele>
        <time>2021-03-02T13:51:10Z</time>
        <extensions>
          <gpxtpx:TrackPointExtension xmlns:gpxtpx="http://www.garmin.com/xmlschemas/TrackPointExtension/v1">
            <gpxtpx:hr>95</gpxtpx:hr>
          </gpxtpx:TrackPointExtension>
        </extensions>
      </trkpt>
      <trkpt lat="45.98837" lon="6.24169">
        <ele>671.8</ele>
        <time>2021-03-02T13:51:11Z</time>
        <extensions>
          <gpxtpx:TrackPointExtension xmlns:gpxtpx="http://www.garmin.com/xmlschemas/TrackPointExtension/v1">
            <gpxtpx:hr>94</gpxtpx:hr>
          </gpxtpx:TrackPointExtension>
        </extensions>
      </trkpt>
      <trkpt lat="45.9884" lon="6.24188">
        <ele>670.9</ele>
        <time>2021-03-02T13:51:12Z</time>
        <extensions>
          <gpxtpx:TrackPointExtension xmlns:gpxtpx="http://www.garmin.com/xmlschemas/TrackPointExtension/v1">
            <gpxtpx:hr>93</gpxtpx:hr>
          </gpxtpx:TrackPointExtension>
        </extensions>
      </trkpt>
      <trkpt lat="45.98843" lon="6.24207">
        <ele>670.1</ele>
        <time>2021-03-02T13:51:13Z</time>
        <extensions>
          <gpxtpx:TrackPointExtension xmlns:gpxtpx="http://www.garmin.com/xmlschemas/TrackPointExtension/v1">
            <gpxtpx:hr>93</gpxtpx:hr>
          </gpxtpx:TrackPointExtension>
        </extensions>
      </trkpt>
      <trkpt lat="45.98845" lon="6.24226">
        <ele>669.2</ele>
        <time>2021-03-02T13:51:14Z</time>
        <extensions>
          <gpxtpx:TrackPointExtension xmlns:gpxtpx="http://www.garmin.com/xmlschemas/TrackPointExtension/v1">
            <gpxtpx:hr>93</gpxtpx:hr>
          </gpxtpx:TrackPointExtension>
        </extensions>
      </trkpt>
      <trkpt lat="45.98847" lon="6.24245">
        <ele>668.3</ele>
        <time>2021-03-02T13:51:15Z</time>
        <extensions>
          <gpxtpx:TrackPointExtension xmlns:gpxtpx="http://www.garmin.com/xmlschemas/TrackPointExtension/v1">
            <gpxtpx:hr>93</gpxtpx:hr>
          </gpxtpx:TrackPointExtension>
        </extensions>
      </trkpt>
      <trkpt lat="45.98848" lon="6.24264">
        <ele>667.4</ele>
        <time>2021-03-02T13:51:16Z</time>
        <extensions>
          <gpxtpx:TrackPointExtension xmlns:gpxtpx="http://www.garmin.com/xmlschemas/TrackPointExtension/v1">
            <gpxtpx:hr>93</gpxtpx:hr>
          </gpxtpx:TrackPointExtension>
        </extensions>
      </trkpt>
      <trkpt lat="45.98846" lon="6.24283">
        <ele>666.5</ele>
        <time>2021-03-02T13:51:17Z</time>
        <extensions>
          <gpxtpx:TrackPointExtension xmlns:gpxtpx="http://www.garmin.com/xmlschemas/TrackPointExtension/v1">
            <gpxtpx:hr>92</gpxtpx:hr>
          </gpxtpx:TrackPointExtension>
        </extensions>
      </trkpt>
      <trkpt lat="45.98844" lon="6.24302">
        <ele>665.7</ele>
        <time>2021-03-02T13:51:18Z</time>
        <extensions>
          <gpxtpx:TrackPointExtension xmlns:gpxtpx="http://www.garmin.com/xmlschemas/TrackPointExtension/v1">
            <gpxtpx:hr>93</gpxtpx:hr>
          </gpxtpx:TrackPointExtension>
        </extensions>
      </trkpt>
      <trkpt lat="45.98843" lon="6.24321">
        <ele>664.9</ele>
        <time>2021-03-02T13:51:19Z</time>
        <extensions>
          <gpxtpx:TrackPointExtension xmlns:gpxtpx="http://www.garmin.com/xmlschemas/TrackPointExtension/v1">
            <gpxtpx:hr>93</gpxtpx:hr>
          </gpxtpx:TrackPointExtension>
        </extensions>
      </trkpt>
      <trkpt lat="45.98842" lon="6.2434">
        <ele>664.2</ele>
        <time>2021-03-02T13:51:20Z</time>
        <extensions>
          <gpxtpx:TrackPointExtension xmlns:gpxtpx="http://www.garmin.com/xmlschemas/TrackPointExtension/v1">
            <gpxtpx:hr>93</gpxtpx:hr>
          </gpxtpx:TrackPointExtension>
        </extensions>
      </trkpt>
      <trkpt lat="45.98843" lon="6.24359">
        <ele>663.5</ele>
        <time>2021-03-02T13:51:21Z</time>
        <extensions>
          <gpxtpx:TrackPointExtension xmlns:gpxtpx="http://www.garmin.com/xmlschemas/TrackPointExtension/v1">
            <gpxtpx:hr>93</gpxtpx:hr>
          </gpxtpx:TrackPointExtension>
        </extensions>
      </trkpt>
      <trkpt lat="45.98846" lon="6.24377">
        <ele>662.8</ele>
        <time>2021-03-02T13:51:22Z</time>
        <extensions>
          <gpxtpx:TrackPointExtension xmlns:gpxtpx="http://www.garmin.com/xmlschemas/TrackPointExtension/v1">
            <gpxtpx:hr>93</gpxtpx:hr>
          </gpxtpx:TrackPointExtension>
        </extensions>
      </trkpt>
      <trkpt lat="45.98849" lon="6.24395">
        <ele>662.1</ele>
        <time>2021-03-02T13:51:23Z</time>
        <extensions>
          <gpxtpx:TrackPointExtension xmlns:gpxtpx="http://www.garmin.com/xmlschemas/TrackPointExtension/v1">
            <gpxtpx:hr>93</gpxtpx:hr>
          </gpxtpx:TrackPointExtension>
        </extensions>
      </trkpt>
      <trkpt lat="45.98854" lon="6.24413">
        <ele>661.4</ele>
        <time>2021-03-02T13:51:24Z</time>
        <extensions>
          <gpxtpx:TrackPointExtension xmlns:gpxtpx="http://www.garmin.com/xmlschemas/TrackPointExtension/v1">
            <gpxtpx:hr>93</gpxtpx:hr>
          </gpxtpx:TrackPointExtension>
        </extensions>
      </trkpt>
      <trkpt lat="45.98859" lon="6.24431">
        <ele>660.8</ele>
        <time>2021-03-02T13:51:25Z</time>
        <extensions>
          <gpxtpx:TrackPointExtension xmlns:gpxtpx="http://www.garmin.com/xmlschemas/TrackPointExtension/v1">
            <gpxtpx:hr>93</gpxtpx:hr>
          </gpxtpx:TrackPointExtension>
        </extensions>
      </trkpt>
      <trkpt lat="45.98864" lon="6.24449">
        <ele>660.2</ele>
        <time>2021-03-02T13:51:26Z</time>
        <extensions>
          <gpxtpx:TrackPointExtension xmlns:gpxtpx="http://www.garmin.com/xmlschemas/TrackPointExtension/v1">
            <gpxtpx:hr>93</gpxtpx:hr>
          </gpxtpx:TrackPointExtension>
        </extensions>
      </trkpt>
      <trkpt lat="45.9887" lon="6.24466">
        <ele>659.6</ele>
        <time>2021-03-02T13:51:27Z</time>
        <extensions>
          <gpxtpx:TrackPointExtension xmlns:gpxtpx="http://www.garmin.com/xmlschemas/TrackPointExtension/v1">
            <gpxtpx:hr>94</gpxtpx:hr>
          </gpxtpx:TrackPointExtension>
        </extensions>
      </trkpt>
      <trkpt lat="45.98875" lon="6.24484">
        <ele>659</ele>
        <time>2021-03-02T13:51:28Z</time>
        <extensions>
          <gpxtpx:TrackPointExtension xmlns:gpxtpx="http://www.garmin.com/xmlschemas/TrackPointExtension/v1">
            <gpxtpx:hr>94</gpxtpx:hr>
          </gpxtpx:TrackPointExtension>
        </extensions>
      </trkpt>
      <trkpt lat="45.9888" lon="6.24502">
        <ele>658.3</ele>
        <time>2021-03-02T13:51:29Z</time>
        <extensions>
          <gpxtpx:TrackPointExtension xmlns:gpxtpx="http://www.garmin.com/xmlschemas/TrackPointExtension/v1">
            <gpxtpx:hr>95</gpxtpx:hr>
          </gpxtpx:TrackPointExtension>
        </extensions>
      </trkpt>
      <trkpt lat="45.98885" lon="6.2452">
        <ele>657.6</ele>
        <time>2021-03-02T13:51:30Z</time>
        <extensions>
          <gpxtpx:TrackPointExtension xmlns:gpxtpx="http://www.garmin.com/xmlschemas/TrackPointExtension/v1">
            <gpxtpx:hr>95</gpxtpx:hr>
          </gpxtpx:TrackPointExtension>
        </extensions>
      </trkpt>
      <trkpt lat="45.9889" lon="6.24538">
        <ele>657</ele>
        <time>2021-03-02T13:51:31Z</time>
        <extensions>
          <gpxtpx:TrackPointExtension xmlns:gpxtpx="http://www.garmin.com/xmlschemas/TrackPointExtension/v1">
            <gpxtpx:hr>96</gpxtpx:hr>
          </gpxtpx:TrackPointExtension>
        </extensions>
      </trkpt>
      <trkpt lat="45.98895" lon="6.24555">
        <ele>656.4</ele>
        <time>2021-03-02T13:51:32Z</time>
        <extensions>
          <gpxtpx:TrackPointExtension xmlns:gpxtpx="http://www.garmin.com/xmlschemas/TrackPointExtension/v1">
            <gpxtpx:hr>96</gpxtpx:hr>
          </gpxtpx:TrackPointExtension>
        </extensions>
      </trkpt>
      <trkpt lat="45.98899" lon="6.24573">
        <ele>655.8</ele>
        <time>2021-03-02T13:51:33Z</time>
        <extensions>
          <gpxtpx:TrackPointExtension xmlns:gpxtpx="http://www.garmin.com/xmlschemas/TrackPointExtension/v1">
            <gpxtpx:hr>96</gpxtpx:hr>
          </gpxtpx:TrackPointExtension>
        </extensions>
      </trkpt>
      <trkpt lat="45.98901" lon="6.24592">
        <ele>655.2</ele>
        <time>2021-03-02T13:51:34Z</time>
        <extensions>
          <gpxtpx:TrackPointExtension xmlns:gpxtpx="http://www.garmin.com/xmlschemas/TrackPointExtension/v1">
            <gpxtpx:hr>96</gpxtpx:hr>
          </gpxtpx:TrackPointExtension>
        </extensions>
      </trkpt>
      <trkpt lat="45.98903" lon="6.2461">
        <ele>654.5</ele>
        <time>2021-03-02T13:51:35Z</time>
        <extensions>
          <gpxtpx:TrackPointExtension xmlns:gpxtpx="http://www.garmin.com/xmlschemas/TrackPointExtension/v1">
            <gpxtpx:hr>97</gpxtpx:hr>
          </gpxtpx:TrackPointExtension>
        </extensions>
      </trkpt>
      <trkpt lat="45.98903" lon="6.24629">
        <ele>653.8</ele>
        <time>2021-03-02T13:51:36Z</time>
        <extensions>
          <gpxtpx:TrackPointExtension xmlns:gpxtpx="http://www.garmin.com/xmlschemas/TrackPointExtension/v1">
            <gpxtpx:hr>98</gpxtpx:hr>
          </gpxtpx:TrackPointExtension>
        </extensions>
      </trkpt>
      <trkpt lat="45.98903" lon="6.24648">
        <ele>653</ele>
        <time>2021-03-02T13:51:37Z</time>
        <extensions>
          <gpxtpx:TrackPointExtension xmlns:gpxtpx="http://www.garmin.com/xmlschemas/TrackPointExtension/v1">
            <gpxtpx:hr>98</gpxtpx:hr>
          </gpxtpx:TrackPointExtension>
        </extensions>
      </trkpt>
      <trkpt lat="45.98903" lon="6.24666">
        <ele>652.2</ele>
        <time>2021-03-02T13:51:38Z</time>
        <extensions>
          <gpxtpx:TrackPointExtension xmlns:gpxtpx="http://www.garmin.com/xmlschemas/TrackPointExtension/v1">
            <gpxtpx:hr>98</gpxtpx:hr>
          </gpxtpx:TrackPointExtension>
        </extensions>
      </trkpt>
      <trkpt lat="45.98902" lon="6.24686">
        <ele>651.4</ele>
        <time>2021-03-02T13:51:39Z</time>
        <extensions>
          <gpxtpx:TrackPointExtension xmlns:gpxtpx="http://www.garmin.com/xmlschemas/TrackPointExtension/v1">
            <gpxtpx:hr>98</gpxtpx:hr>
          </gpxtpx:TrackPointExtension>
        </extensions>
      </trkpt>
      <trkpt lat="45.98902" lon="6.24705">
        <ele>650.8</ele>
        <time>2021-03-02T13:51:40Z</time>
        <extensions>
          <gpxtpx:TrackPointExtension xmlns:gpxtpx="http://www.garmin.com/xmlschemas/TrackPointExtension/v1">
            <gpxtpx:hr>97</gpxtpx:hr>
          </gpxtpx:TrackPointExtension>
        </extensions>
      </trkpt>
      <trkpt lat="45.98901" lon="6.24724">
        <ele>650.2</ele>
        <time>2021-03-02T13:51:41Z</time>
        <extensions>
          <gpxtpx:TrackPointExtension xmlns:gpxtpx="http://www.garmin.com/xmlschemas/TrackPointExtension/v1">
            <gpxtpx:hr>98</gpxtpx:hr>
          </gpxtpx:TrackPointExtension>
        </extensions>
      </trkpt>
      <trkpt lat="45.989" lon="6.24743">
        <ele>649.6</ele>
        <time>2021-03-02T13:51:42Z</time>
        <extensions>
          <gpxtpx:TrackPointExtension xmlns:gpxtpx="http://www.garmin.com/xmlschemas/TrackPointExtension/v1">
            <gpxtpx:hr>98</gpxtpx:hr>
          </gpxtpx:TrackPointExtension>
        </extensions>
      </trkpt>
      <trkpt lat="45.98899" lon="6.24762">
        <ele>648.9</ele>
        <time>2021-03-02T13:51:43Z</time>
        <extensions>
          <gpxtpx:TrackPointExtension xmlns:gpxtpx="http://www.garmin.com/xmlschemas/TrackPointExtension/v1">
            <gpxtpx:hr>98</gpxtpx:hr>
          </gpxtpx:TrackPointExtension>
        </extensions>
      </trkpt>
      <trkpt lat="45.98899" lon="6.24781">
        <ele>648.3</ele>
        <time>2021-03-02T13:51:44Z</time>
        <extensions>
          <gpxtpx:TrackPointExtension xmlns:gpxtpx="http://www.garmin.com/xmlschemas/TrackPointExtension/v1">
            <gpxtpx:hr>99</gpxtpx:hr>
          </gpxtpx:TrackPointExtension>
        </extensions>
      </trkpt>
      <trkpt lat="45.989" lon="6.248">
        <ele>647.6</ele>
        <time>2021-03-02T13:51:45Z</time>
        <extensions>
          <gpxtpx:TrackPointExtension xmlns:gpxtpx="http://www.garmin.com/xmlschemas/TrackPointExtension/v1">
            <gpxtpx:hr>99</gpxtpx:hr>
          </gpxtpx:TrackPointExtension>
        </extensions>
      </trkpt>
      <trkpt lat="45.98904" lon="6.24818">
        <ele>646.9</ele>
        <time>2021-03-02T13:51:46Z</time>
        <extensions>
          <gpxtpx:TrackPointExtension xmlns:gpxtpx="http://www.garmin.com/xmlschemas/TrackPointExtension/v1">
            <gpxtpx:hr>99</gpxtpx:hr>
          </gpxtpx:TrackPointExtension>
        </extensions>
      </trkpt>
      <trkpt lat="45.98909" lon="6.24834">
        <ele>646.2</ele>
        <time>2021-03-02T13:51:47Z</time>
        <extensions>
          <gpxtpx:TrackPointExtension xmlns:gpxtpx="http://www.garmin.com/xmlschemas/TrackPointExtension/v1">
            <gpxtpx:hr>99</gpxtpx:hr>
          </gpxtpx:TrackPointExtension>
        </extensions>
      </trkpt>
      <trkpt lat="45.98917" lon="6.24847">
        <ele>645.6</ele>
        <time>2021-03-02T13:51:48Z</time>
        <extensions>
          <gpxtpx:TrackPointExtension xmlns:gpxtpx="http://www.garmin.com/xmlschemas/TrackPointExtension/v1">
            <gpxtpx:hr>98</gpxtpx:hr>
          </gpxtpx:TrackPointExtension>
        </extensions>
      </trkpt>
      <trkpt lat="45.98928" lon="6.24857">
        <ele>645.1</ele>
        <time>2021-03-02T13:51:49Z</time>
        <extensions>
          <gpxtpx:TrackPointExtension xmlns:gpxtpx="http://www.garmin.com/xmlschemas/TrackPointExtension/v1">
            <gpxtpx:hr>98</gpxtpx:hr>
          </gpxtpx:TrackPointExtension>
        </extensions>
      </trkpt>
      <trkpt lat="45.9894" lon="6.24863">
        <ele>644.5</ele>
        <time>2021-03-02T13:51:50Z</time>
        <extensions>
          <gpxtpx:TrackPointExtension xmlns:gpxtpx="http://www.garmin.com/xmlschemas/TrackPointExtension/v1">
            <gpxtpx:hr>98</gpxtpx:hr>
          </gpxtpx:TrackPointExtension>
        </extensions>
      </trkpt>
      <trkpt lat="45.98952" lon="6.24865">
        <ele>643.8</ele>
        <time>2021-03-02T13:51:51Z</time>
        <extensions>
          <gpxtpx:TrackPointExtension xmlns:gpxtpx="http://www.garmin.com/xmlschemas/TrackPointExtension/v1">
            <gpxtpx:hr>99</gpxtpx:hr>
          </gpxtpx:TrackPointExtension>
        </extensions>
      </trkpt>
      <trkpt lat="45.98965" lon="6.24866">
        <ele>643.1</ele>
        <time>2021-03-02T13:51:52Z</time>
        <extensions>
          <gpxtpx:TrackPointExtension xmlns:gpxtpx="http://www.garmin.com/xmlschemas/TrackPointExtension/v1">
            <gpxtpx:hr>99</gpxtpx:hr>
          </gpxtpx:TrackPointExtension>
        </extensions>
      </trkpt>
      <trkpt lat="45.98977" lon="6.24865">
        <ele>642.5</ele>
        <time>2021-03-02T13:51:53Z</time>
        <extensions>
          <gpxtpx:TrackPointExtension xmlns:gpxtpx="http://www.garmin.com/xmlschemas/TrackPointExtension/v1">
            <gpxtpx:hr>99</gpxtpx:hr>
          </gpxtpx:TrackPointExtension>
        </extensions>
      </trkpt>
      <trkpt lat="45.98989" lon="6.24864">
        <ele>641.8</ele>
        <time>2021-03-02T13:51:54Z</time>
        <extensions>
          <gpxtpx:TrackPointExtension xmlns:gpxtpx="http://www.garmin.com/xmlschemas/TrackPointExtension/v1">
            <gpxtpx:hr>99</gpxtpx:hr>
          </gpxtpx:TrackPointExtension>
        </extensions>
      </trkpt>
      <trkpt lat="45.99002" lon="6.24862">
        <ele>641.1</ele>
        <time>2021-03-02T13:51:55Z</time>
        <extensions>
          <gpxtpx:TrackPointExtension xmlns:gpxtpx="http://www.garmin.com/xmlschemas/TrackPointExtension/v1">
            <gpxtpx:hr>99</gpxtpx:hr>
          </gpxtpx:TrackPointExtension>
        </extensions>
      </trkpt>
      <trkpt lat="45.99014" lon="6.2486">
        <ele>640.4</ele>
        <time>2021-03-02T13:51:56Z</time>
        <extensions>
          <gpxtpx:TrackPointExtension xmlns:gpxtpx="http://www.garmin.com/xmlschemas/TrackPointExtension/v1">
            <gpxtpx:hr>99</gpxtpx:hr>
          </gpxtpx:TrackPointExtension>
        </extensions>
      </trkpt>
      <trkpt lat="45.99026" lon="6.24858">
        <ele>639.9</ele>
        <time>2021-03-02T13:51:57Z</time>
        <extensions>
          <gpxtpx:TrackPointExtension xmlns:gpxtpx="http://www.garmin.com/xmlschemas/TrackPointExtension/v1">
            <gpxtpx:hr>100</gpxtpx:hr>
          </gpxtpx:TrackPointExtension>
        </extensions>
      </trkpt>
      <trkpt lat="45.99038" lon="6.24856">
        <ele>639.5</ele>
        <time>2021-03-02T13:51:58Z</time>
        <extensions>
          <gpxtpx:TrackPointExtension xmlns:gpxtpx="http://www.garmin.com/xmlschemas/TrackPointExtension/v1">
            <gpxtpx:hr>100</gpxtpx:hr>
          </gpxtpx:TrackPointExtension>
        </extensions>
      </trkpt>
      <trkpt lat="45.9905" lon="6.24854">
        <ele>638.9</ele>
        <time>2021-03-02T13:51:59Z</time>
        <extensions>
          <gpxtpx:TrackPointExtension xmlns:gpxtpx="http://www.garmin.com/xmlschemas/TrackPointExtension/v1">
            <gpxtpx:hr>100</gpxtpx:hr>
          </gpxtpx:TrackPointExtension>
        </extensions>
      </trkpt>
      <trkpt lat="45.99062" lon="6.24852">
        <ele>638.2</ele>
        <time>2021-03-02T13:52:00Z</time>
        <extensions>
          <gpxtpx:TrackPointExtension xmlns:gpxtpx="http://www.garmin.com/xmlschemas/TrackPointExtension/v1">
            <gpxtpx:hr>102</gpxtpx:hr>
          </gpxtpx:TrackPointExtension>
        </extensions>
      </trkpt>
      <trkpt lat="45.99075" lon="6.24849">
        <ele>637.4</ele>
        <time>2021-03-02T13:52:01Z</time>
        <extensions>
          <gpxtpx:TrackPointExtension xmlns:gpxtpx="http://www.garmin.com/xmlschemas/TrackPointExtension/v1">
            <gpxtpx:hr>102</gpxtpx:hr>
          </gpxtpx:TrackPointExtension>
        </extensions>
      </trkpt>
      <trkpt lat="45.99087" lon="6.24847">
        <ele>636.7</ele>
        <time>2021-03-02T13:52:02Z</time>
        <extensions>
          <gpxtpx:TrackPointExtension xmlns:gpxtpx="http://www.garmin.com/xmlschemas/TrackPointExtension/v1">
            <gpxtpx:hr>103</gpxtpx:hr>
          </gpxtpx:TrackPointExtension>
        </extensions>
      </trkpt>
      <trkpt lat="45.99099" lon="6.24844">
        <ele>636</ele>
        <time>2021-03-02T13:52:03Z</time>
        <extensions>
          <gpxtpx:TrackPointExtension xmlns:gpxtpx="http://www.garmin.com/xmlschemas/TrackPointExtension/v1">
            <gpxtpx:hr>104</gpxtpx:hr>
          </gpxtpx:TrackPointExtension>
        </extensions>
      </trkpt>
      <trkpt lat="45.99112" lon="6.24841">
        <ele>635.3</ele>
        <time>2021-03-02T13:52:04Z</time>
        <extensions>
          <gpxtpx:TrackPointExtension xmlns:gpxtpx="http://www.garmin.com/xmlschemas/TrackPointExtension/v1">
            <gpxtpx:hr>105</gpxtpx:hr>
          </gpxtpx:TrackPointExtension>
        </extensions>
      </trkpt>
      <trkpt lat="45.99124" lon="6.24839">
        <ele>634.6</ele>
        <time>2021-03-02T13:52:05Z</time>
        <extensions>
          <gpxtpx:TrackPointExtension xmlns:gpxtpx="http://www.garmin.com/xmlschemas/TrackPointExtension/v1">
            <gpxtpx:hr>105</gpxtpx:hr>
          </gpxtpx:TrackPointExtension>
        </extensions>
      </trkpt>
      <trkpt lat="45.99137" lon="6.24837">
        <ele>634</ele>
        <time>2021-03-02T13:52:06Z</time>
        <extensions>
          <gpxtpx:TrackPointExtension xmlns:gpxtpx="http://www.garmin.com/xmlschemas/TrackPointExtension/v1">
            <gpxtpx:hr>107</gpxtpx:hr>
          </gpxtpx:TrackPointExtension>
        </extensions>
      </trkpt>
      <trkpt lat="45.99149" lon="6.24834">
        <ele>633.5</ele>
        <time>2021-03-02T13:52:07Z</time>
        <extensions>
          <gpxtpx:TrackPointExtension xmlns:gpxtpx="http://www.garmin.com/xmlschemas/TrackPointExtension/v1">
            <gpxtpx:hr>108</gpxtpx:hr>
          </gpxtpx:TrackPointExtension>
        </extensions>
      </trkpt>
      <trkpt lat="45.99161" lon="6.24832">
        <ele>633.2</ele>
        <time>2021-03-02T13:52:08Z</time>
        <extensions>
          <gpxtpx:TrackPointExtension xmlns:gpxtpx="http://www.garmin.com/xmlschemas/TrackPointExtension/v1">
            <gpxtpx:hr>108</gpxtpx:hr>
          </gpxtpx:TrackPointExtension>
        </extensions>
      </trkpt>
      <trkpt lat="45.99172" lon="6.24831">
        <ele>633</ele>
        <time>2021-03-02T13:52:09Z</time>
        <extensions>
          <gpxtpx:TrackPointExtension xmlns:gpxtpx="http://www.garmin.com/xmlschemas/TrackPointExtension/v1">
            <gpxtpx:hr>109</gpxtpx:hr>
          </gpxtpx:TrackPointExtension>
        </extensions>
      </trkpt>
      <trkpt lat="45.99182" lon="6.24829">
        <ele>632.9</ele>
        <time>2021-03-02T13:52:10Z</time>
        <extensions>
          <gpxtpx:TrackPointExtension xmlns:gpxtpx="http://www.garmin.com/xmlschemas/TrackPointExtension/v1">
            <gpxtpx:hr>109</gpxtpx:hr>
          </gpxtpx:TrackPointExtension>
        </extensions>
      </trkpt>
      <trkpt lat="45.99192" lon="6.24827">
        <ele>632.8</ele>
        <time>2021-03-02T13:52:11Z</time>
        <extensions>
          <gpxtpx:TrackPointExtension xmlns:gpxtpx="http://www.garmin.com/xmlschemas/TrackPointExtension/v1">
            <gpxtpx:hr>110</gpxtpx:hr>
          </gpxtpx:TrackPointExtension>
        </extensions>
      </trkpt>
      <trkpt lat="45.99202" lon="6.24826">
        <ele>632.8</ele>
        <time>2021-03-02T13:52:12Z</time>
        <extensions>
          <gpxtpx:TrackPointExtension xmlns:gpxtpx="http://www.garmin.com/xmlschemas/TrackPointExtension/v1">
            <gpxtpx:hr>110</gpxtpx:hr>
          </gpxtpx:TrackPointExtension>
        </extensions>
      </trkpt>
      <trkpt lat="45.99211" lon="6.24824">
        <ele>632.8</ele>
        <time>2021-03-02T13:52:13Z</time>
        <extensions>
          <gpxtpx:TrackPointExtension xmlns:gpxtpx="http://www.garmin.com/xmlschemas/TrackPointExtension/v1">
            <gpxtpx:hr>110</gpxtpx:hr>
          </gpxtpx:TrackPointExtension>
        </extensions>
      </trkpt>
      <trkpt lat="45.9922" lon="6.24823">
        <ele>632.7</ele>
        <time>2021-03-02T13:52:14Z</time>
        <extensions>
          <gpxtpx:TrackPointExtension xmlns:gpxtpx="http://www.garmin.com/xmlschemas/TrackPointExtension/v1">
            <gpxtpx:hr>110</gpxtpx:hr>
          </gpxtpx:TrackPointExtension>
        </extensions>
      </trkpt>
      <trkpt lat="45.99229" lon="6.24822">
        <ele>632.6</ele>
        <time>2021-03-02T13:52:15Z</time>
        <extensions>
          <gpxtpx:TrackPointExtension xmlns:gpxtpx="http://www.garmin.com/xmlschemas/TrackPointExtension/v1">
            <gpxtpx:hr>110</gpxtpx:hr>
          </gpxtpx:TrackPointExtension>
        </extensions>
      </trkpt>
      <trkpt lat="45.99238" lon="6.2482">
        <ele>632.6</ele>
        <time>2021-03-02T13:52:16Z</time>
        <extensions>
          <gpxtpx:TrackPointExtension xmlns:gpxtpx="http://www.garmin.com/xmlschemas/TrackPointExtension/v1">
            <gpxtpx:hr>110</gpxtpx:hr>
          </gpxtpx:TrackPointExtension>
        </extensions>
      </trkpt>
      <trkpt lat="45.99246" lon="6.24819">
        <ele>632.8</ele>
        <time>2021-03-02T13:52:17Z</time>
        <extensions>
          <gpxtpx:TrackPointExtension xmlns:gpxtpx="http://www.garmin.com/xmlschemas/TrackPointExtension/v1">
            <gpxtpx:hr>110</gpxtpx:hr>
          </gpxtpx:TrackPointExtension>
        </extensions>
      </trkpt>
      <trkpt lat="45.99255" lon="6.24818">
        <ele>633</ele>
        <time>2021-03-02T13:52:18Z</time>
        <extensions>
          <gpxtpx:TrackPointExtension xmlns:gpxtpx="http://www.garmin.com/xmlschemas/TrackPointExtension/v1">
            <gpxtpx:hr>110</gpxtpx:hr>
          </gpxtpx:TrackPointExtension>
        </extensions>
      </trkpt>
      <trkpt lat="45.99263" lon="6.24817">
        <ele>633.3</ele>
        <time>2021-03-02T13:52:19Z</time>
        <extensions>
          <gpxtpx:TrackPointExtension xmlns:gpxtpx="http://www.garmin.com/xmlschemas/TrackPointExtension/v1">
            <gpxtpx:hr>110</gpxtpx:hr>
          </gpxtpx:TrackPointExtension>
        </extensions>
      </trkpt>
      <trkpt lat="45.99271" lon="6.24817">
        <ele>633.6</ele>
        <time>2021-03-02T13:52:20Z</time>
        <extensions>
          <gpxtpx:TrackPointExtension xmlns:gpxtpx="http://www.garmin.com/xmlschemas/TrackPointExtension/v1">
            <gpxtpx:hr>110</gpxtpx:hr>
          </gpxtpx:TrackPointExtension>
        </extensions>
      </trkpt>
      <trkpt lat="45.99278" lon="6.24816">
        <ele>634</ele>
        <time>2021-03-02T13:52:21Z</time>
        <extensions>
          <gpxtpx:TrackPointExtension xmlns:gpxtpx="http://www.garmin.com/xmlschemas/TrackPointExtension/v1">
            <gpxtpx:hr>110</gpxtpx:hr>
          </gpxtpx:TrackPointExtension>
        </extensions>
      </trkpt>
      <trkpt lat="45.99285" lon="6.24817">
        <ele>634.3</ele>
        <time>2021-03-02T13:52:22Z</time>
        <extensions>
          <gpxtpx:TrackPointExtension xmlns:gpxtpx="http://www.garmin.com/xmlschemas/TrackPointExtension/v1">
            <gpxtpx:hr>110</gpxtpx:hr>
          </gpxtpx:TrackPointExtension>
        </extensions>
      </trkpt>
      <trkpt lat="45.99291" lon="6.24818">
        <ele>634.6</ele>
        <time>2021-03-02T13:52:23Z</time>
        <extensions>
          <gpxtpx:TrackPointExtension xmlns:gpxtpx="http://www.garmin.com/xmlschemas/TrackPointExtension/v1">
            <gpxtpx:hr>110</gpxtpx:hr>
          </gpxtpx:TrackPointExtension>
        </extensions>
      </trkpt>
      <trkpt lat="45.99298" lon="6.24819">
        <ele>635</ele>
        <time>2021-03-02T13:52:24Z</time>
        <extensions>
          <gpxtpx:TrackPointExtension xmlns:gpxtpx="http://www.garmin.com/xmlschemas/TrackPointExtension/v1">
            <gpxtpx:hr>109</gpxtpx:hr>
          </gpxtpx:TrackPointExtension>
        </extensions>
      </trkpt>
      <trkpt lat="45.99303" lon="6.24821">
        <ele>635.3</ele>
        <time>2021-03-02T13:52:25Z</time>
        <extensions>
          <gpxtpx:TrackPointExtension xmlns:gpxtpx="http://www.garmin.com/xmlschemas/TrackPointExtension/v1">
            <gpxtpx:hr>109</gpxtpx:hr>
          </gpxtpx:TrackPointExtension>
        </extensions>
      </trkpt>
      <trkpt lat="45.99309" lon="6.24823">
        <ele>635.6</ele>
        <time>2021-03-02T13:52:26Z</time>
        <extensions>
          <gpxtpx:TrackPointExtension xmlns:gpxtpx="http://www.garmin.com/xmlschemas/TrackPointExtension/v1">
            <gpxtpx:hr>109</gpxtpx:hr>
          </gpxtpx:TrackPointExtension>
        </extensions>
      </trkpt>
      <trkpt lat="45.99314" lon="6.24825">
        <ele>635.9</ele>
        <time>2021-03-02T13:52:27Z</time>
        <extensions>
          <gpxtpx:TrackPointExtension xmlns:gpxtpx="http://www.garmin.com/xmlschemas/TrackPointExtension/v1">
            <gpxtpx:hr>109</gpxtpx:hr>
          </gpxtpx:TrackPointExtension>
        </extensions>
      </trkpt>
      <trkpt lat="45.99319" lon="6.24828">
        <ele>636.2</ele>
        <time>2021-03-02T13:52:28Z</time>
        <extensions>
          <gpxtpx:TrackPointExtension xmlns:gpxtpx="http://www.garmin.com/xmlschemas/TrackPointExtension/v1">
            <gpxtpx:hr>109</gpxtpx:hr>
          </gpxtpx:TrackPointExtension>
        </extensions>
      </trkpt>
      <trkpt lat="45.99324" lon="6.2483">
        <ele>636.5</ele>
        <time>2021-03-02T13:52:29Z</time>
        <extensions>
          <gpxtpx:TrackPointExtension xmlns:gpxtpx="http://www.garmin.com/xmlschemas/TrackPointExtension/v1">
            <gpxtpx:hr>108</gpxtpx:hr>
          </gpxtpx:TrackPointExtension>
        </extensions>
      </trkpt>
      <trkpt lat="45.99329" lon="6.24833">
        <ele>636.8</ele>
        <time>2021-03-02T13:52:30Z</time>
        <extensions>
          <gpxtpx:TrackPointExtension xmlns:gpxtpx="http://www.garmin.com/xmlschemas/TrackPointExtension/v1">
            <gpxtpx:hr>107</gpxtpx:hr>
          </gpxtpx:TrackPointExtension>
        </extensions>
      </trkpt>
      <trkpt lat="45.99333" lon="6.24837">
        <ele>637.1</ele>
        <time>2021-03-02T13:52:31Z</time>
        <extensions>
          <gpxtpx:TrackPointExtension xmlns:gpxtpx="http://www.garmin.com/xmlschemas/TrackPointExtension/v1">
            <gpxtpx:hr>106</gpxtpx:hr>
          </gpxtpx:TrackPointExtension>
        </extensions>
      </trkpt>
      <trkpt lat="45.99337" lon="6.2484">
        <ele>637.4</ele>
        <time>2021-03-02T13:52:32Z</time>
        <extensions>
          <gpxtpx:TrackPointExtension xmlns:gpxtpx="http://www.garmin.com/xmlschemas/TrackPointExtension/v1">
            <gpxtpx:hr>105</gpxtpx:hr>
          </gpxtpx:TrackPointExtension>
        </extensions>
      </trkpt>
      <trkpt lat="45.99341" lon="6.24844">
        <ele>637.7</ele>
        <time>2021-03-02T13:52:33Z</time>
        <extensions>
          <gpxtpx:TrackPointExtension xmlns:gpxtpx="http://www.garmin.com/xmlschemas/TrackPointExtension/v1">
            <gpxtpx:hr>104</gpxtpx:hr>
          </gpxtpx:TrackPointExtension>
        </extensions>
      </trkpt>
      <trkpt lat="45.99345" lon="6.24848">
        <ele>638</ele>
        <time>2021-03-02T13:52:34Z</time>
        <extensions>
          <gpxtpx:TrackPointExtension xmlns:gpxtpx="http://www.garmin.com/xmlschemas/TrackPointExtension/v1">
            <gpxtpx:hr>103</gpxtpx:hr>
          </gpxtpx:TrackPointExtension>
        </extensions>
      </trkpt>
      <trkpt lat="45.99349" lon="6.24852">
        <ele>638.3</ele>
        <time>2021-03-02T13:52:35Z</time>
        <extensions>
          <gpxtpx:TrackPointExtension xmlns:gpxtpx="http://www.garmin.com/xmlschemas/TrackPointExtension/v1">
            <gpxtpx:hr>103</gpxtpx:hr>
          </gpxtpx:TrackPointExtension>
        </extensions>
      </trkpt>
      <trkpt lat="45.99353" lon="6.24857">
        <ele>638.6</ele>
        <time>2021-03-02T13:52:36Z</time>
        <extensions>
          <gpxtpx:TrackPointExtension xmlns:gpxtpx="http://www.garmin.com/xmlschemas/TrackPointExtension/v1">
            <gpxtpx:hr>102</gpxtpx:hr>
          </gpxtpx:TrackPointExtension>
        </extensions>
      </trkpt>
      <trkpt lat="45.99356" lon="6.24861">
        <ele>638.9</ele>
        <time>2021-03-02T13:52:37Z</time>
        <extensions>
          <gpxtpx:TrackPointExtension xmlns:gpxtpx="http://www.garmin.com/xmlschemas/TrackPointExtension/v1">
            <gpxtpx:hr>102</gpxtpx:hr>
          </gpxtpx:TrackPointExtension>
        </extensions>
      </trkpt>
      <trkpt lat="45.9936" lon="6.24866">
        <ele>639.1</ele>
        <time>2021-03-02T13:52:38Z</time>
        <extensions>
          <gpxtpx:TrackPointExtension xmlns:gpxtpx="http://www.garmin.com/xmlschemas/TrackPointExtension/v1">
            <gpxtpx:hr>102</gpxtpx:hr>
          </gpxtpx:TrackPointExtension>
        </extensions>
      </trkpt>
      <trkpt lat="45.99363" lon="6.24872">
        <ele>639.4</ele>
        <time>2021-03-02T13:52:39Z</time>
        <extensions>
          <gpxtpx:TrackPointExtension xmlns:gpxtpx="http://www.garmin.com/xmlschemas/TrackPointExtension/v1">
            <gpxtpx:hr>101</gpxtpx:hr>
          </gpxtpx:TrackPointExtension>
        </extensions>
      </trkpt>
      <trkpt lat="45.99366" lon="6.24877">
        <ele>639.7</ele>
        <time>2021-03-02T13:52:40Z</time>
        <extensions>
          <gpxtpx:TrackPointExtension xmlns:gpxtpx="http://www.garmin.com/xmlschemas/TrackPointExtension/v1">
            <gpxtpx:hr>101</gpxtpx:hr>
          </gpxtpx:TrackPointExtension>
        </extensions>
      </trkpt>
      <trkpt lat="45.99369" lon="6.24883">
        <ele>640</ele>
        <time>2021-03-02T13:52:41Z</time>
        <extensions>
          <gpxtpx:TrackPointExtension xmlns:gpxtpx="http://www.garmin.com/xmlschemas/TrackPointExtension/v1">
            <gpxtpx:hr>101</gpxtpx:hr>
          </gpxtpx:TrackPointExtension>
        </extensions>
      </trkpt>
      <trkpt lat="45.99372" lon="6.24888">
        <ele>640.2</ele>
        <time>2021-03-02T13:52:42Z</time>
        <extensions>
          <gpxtpx:TrackPointExtension xmlns:gpxtpx="http://www.garmin.com/xmlschemas/TrackPointExtension/v1">
            <gpxtpx:hr>100</gpxtpx:hr>
          </gpxtpx:TrackPointExtension>
        </extensions>
      </trkpt>
      <trkpt lat="45.99374" lon="6.24894">
        <ele>640.5</ele>
        <time>2021-03-02T13:52:43Z</time>
        <extensions>
          <gpxtpx:TrackPointExtension xmlns:gpxtpx="http://www.garmin.com/xmlschemas/TrackPointExtension/v1">
            <gpxtpx:hr>100</gpxtpx:hr>
          </gpxtpx:TrackPointExtension>
        </extensions>
      </trkpt>
      <trkpt lat="45.99377" lon="6.249">
        <ele>640.8</ele>
        <time>2021-03-02T13:52:44Z</time>
        <extensions>
          <gpxtpx:TrackPointExtension xmlns:gpxtpx="http://www.garmin.com/xmlschemas/TrackPointExtension/v1">
            <gpxtpx:hr>99</gpxtpx:hr>
          </gpxtpx:TrackPointExtension>
        </extensions>
      </trkpt>
      <trkpt lat="45.99379" lon="6.24906">
        <ele>641.1</ele>
        <time>2021-03-02T13:52:45Z</time>
        <extensions>
          <gpxtpx:TrackPointExtension xmlns:gpxtpx="http://www.garmin.com/xmlschemas/TrackPointExtension/v1">
            <gpxtpx:hr>99</gpxtpx:hr>
          </gpxtpx:TrackPointExtension>
        </extensions>
      </trkpt>
      <trkpt lat="45.99381" lon="6.24912">
        <ele>641.4</ele>
        <time>2021-03-02T13:52:46Z</time>
        <extensions>
          <gpxtpx:TrackPointExtension xmlns:gpxtpx="http://www.garmin.com/xmlschemas/TrackPointExtension/v1">
            <gpxtpx:hr>98</gpxtpx:hr>
          </gpxtpx:TrackPointExtension>
        </extensions>
      </trkpt>
      <trkpt lat="45.99383" lon="6.24918">
        <ele>641.7</ele>
        <time>2021-03-02T13:52:47Z</time>
        <extensions>
          <gpxtpx:TrackPointExtension xmlns:gpxtpx="http://www.garmin.com/xmlschemas/TrackPointExtension/v1">
            <gpxtpx:hr>97</gpxtpx:hr>
          </gpxtpx:TrackPointExtension>
        </extensions>
      </trkpt>
      <trkpt lat="45.99384" lon="6.24925">
        <ele>642</ele>
        <time>2021-03-02T13:52:48Z</time>
        <extensions>
          <gpxtpx:TrackPointExtension xmlns:gpxtpx="http://www.garmin.com/xmlschemas/TrackPointExtension/v1">
            <gpxtpx:hr>97</gpxtpx:hr>
          </gpxtpx:TrackPointExtension>
        </extensions>
      </trkpt>
      <trkpt lat="45.99386" lon="6.24931">
        <ele>642.3</ele>
        <time>2021-03-02T13:52:49Z</time>
        <extensions>
          <gpxtpx:TrackPointExtension xmlns:gpxtpx="http://www.garmin.com/xmlschemas/TrackPointExtension/v1">
            <gpxtpx:hr>96</gpxtpx:hr>
          </gpxtpx:TrackPointExtension>
        </extensions>
      </trkpt>
      <trkpt lat="45.99387" lon="6.24938">
        <ele>642.6</ele>
        <time>2021-03-02T13:52:50Z</time>
        <extensions>
          <gpxtpx:TrackPointExtension xmlns:gpxtpx="http://www.garmin.com/xmlschemas/TrackPointExtension/v1">
            <gpxtpx:hr>96</gpxtpx:hr>
          </gpxtpx:TrackPointExtension>
        </extensions>
      </trkpt>
      <trkpt lat="45.99388" lon="6.24944">
        <ele>642.8</ele>
        <time>2021-03-02T13:52:51Z</time>
        <extensions>
          <gpxtpx:TrackPointExtension xmlns:gpxtpx="http://www.garmin.com/xmlschemas/TrackPointExtension/v1">
            <gpxtpx:hr>95</gpxtpx:hr>
          </gpxtpx:TrackPointExtension>
        </extensions>
      </trkpt>
      <trkpt lat="45.99389" lon="6.24951">
        <ele>643.1</ele>
        <time>2021-03-02T13:52:52Z</time>
        <extensions>
          <gpxtpx:TrackPointExtension xmlns:gpxtpx="http://www.garmin.com/xmlschemas/TrackPointExtension/v1">
            <gpxtpx:hr>94</gpxtpx:hr>
          </gpxtpx:TrackPointExtension>
        </extensions>
      </trkpt>
      <trkpt lat="45.9939" lon="6.24958">
        <ele>643.4</ele>
        <time>2021-03-02T13:52:53Z</time>
        <extensions>
          <gpxtpx:TrackPointExtension xmlns:gpxtpx="http://www.garmin.com/xmlschemas/TrackPointExtension/v1">
            <gpxtpx:hr>95</gpxtpx:hr>
          </gpxtpx:TrackPointExtension>
        </extensions>
      </trkpt>
      <trkpt lat="45.99391" lon="6.24964">
        <ele>643.7</ele>
        <time>2021-03-02T13:52:54Z</time>
        <extensions>
          <gpxtpx:TrackPointExtension xmlns:gpxtpx="http://www.garmin.com/xmlschemas/TrackPointExtension/v1">
            <gpxtpx:hr>97</gpxtpx:hr>
          </gpxtpx:TrackPointExtension>
        </extensions>
      </trkpt>
      <trkpt lat="45.99392" lon="6.24971">
        <ele>644</ele>
        <time>2021-03-02T13:52:55Z</time>
        <extensions>
          <gpxtpx:TrackPointExtension xmlns:gpxtpx="http://www.garmin.com/xmlschemas/TrackPointExtension/v1">
            <gpxtpx:hr>98</gpxtpx:hr>
          </gpxtpx:TrackPointExtension>
        </extensions>
      </trkpt>
      <trkpt lat="45.99392" lon="6.24978">
        <ele>644.2</ele>
        <time>2021-03-02T13:52:56Z</time>
        <extensions>
          <gpxtpx:TrackPointExtension xmlns:gpxtpx="http://www.garmin.com/xmlschemas/TrackPointExtension/v1">
            <gpxtpx:hr>99</gpxtpx:hr>
          </gpxtpx:TrackPointExtension>
        </extensions>
      </trkpt>
      <trkpt lat="45.99392" lon="6.24984">
        <ele>644.5</ele>
        <time>2021-03-02T13:52:57Z</time>
        <extensions>
          <gpxtpx:TrackPointExtension xmlns:gpxtpx="http://www.garmin.com/xmlschemas/TrackPointExtension/v1">
            <gpxtpx:hr>100</gpxtpx:hr>
          </gpxtpx:TrackPointExtension>
        </extensions>
      </trkpt>
      <trkpt lat="45.99392" lon="6.2499">
        <ele>644.7</ele>
        <time>2021-03-02T13:52:58Z</time>
        <extensions>
          <gpxtpx:TrackPointExtension xmlns:gpxtpx="http://www.garmin.com/xmlschemas/TrackPointExtension/v1">
            <gpxtpx:hr>101</gpxtpx:hr>
          </gpxtpx:TrackPointExtension>
        </extensions>
      </trkpt>
      <trkpt lat="45.99392" lon="6.24997">
        <ele>644.9</ele>
        <time>2021-03-02T13:52:59Z</time>
        <extensions>
          <gpxtpx:TrackPointExtension xmlns:gpxtpx="http://www.garmin.com/xmlschemas/TrackPointExtension/v1">
            <gpxtpx:hr>102</gpxtpx:hr>
          </gpxtpx:TrackPointExtension>
        </extensions>
      </trkpt>
      <trkpt lat="45.99392" lon="6.25003">
        <ele>645.1</ele>
        <time>2021-03-02T13:53:00Z</time>
        <extensions>
          <gpxtpx:TrackPointExtension xmlns:gpxtpx="http://www.garmin.com/xmlschemas/TrackPointExtension/v1">
            <gpxtpx:hr>103</gpxtpx:hr>
          </gpxtpx:TrackPointExtension>
        </extensions>
      </trkpt>
      <trkpt lat="45.99392" lon="6.25009">
        <ele>645.3</ele>
        <time>2021-03-02T13:53:01Z</time>
        <extensions>
          <gpxtpx:TrackPointExtension xmlns:gpxtpx="http://www.garmin.com/xmlschemas/TrackPointExtension/v1">
            <gpxtpx:hr>105</gpxtpx:hr>
          </gpxtpx:TrackPointExtension>
        </extensions>
      </trkpt>
      <trkpt lat="45.99392" lon="6.25015">
        <ele>645.5</ele>
        <time>2021-03-02T13:53:02Z</time>
        <extensions>
          <gpxtpx:TrackPointExtension xmlns:gpxtpx="http://www.garmin.com/xmlschemas/TrackPointExtension/v1">
            <gpxtpx:hr>106</gpxtpx:hr>
          </gpxtpx:TrackPointExtension>
        </extensions>
      </trkpt>
      <trkpt lat="45.99392" lon="6.25021">
        <ele>645.7</ele>
        <time>2021-03-02T13:53:03Z</time>
        <extensions>
          <gpxtpx:TrackPointExtension xmlns:gpxtpx="http://www.garmin.com/xmlschemas/TrackPointExtension/v1">
            <gpxtpx:hr>106</gpxtpx:hr>
          </gpxtpx:TrackPointExtension>
        </extensions>
      </trkpt>
      <trkpt lat="45.99392" lon="6.25027">
        <ele>645.8</ele>
        <time>2021-03-02T13:53:04Z</time>
        <extensions>
          <gpxtpx:TrackPointExtension xmlns:gpxtpx="http://www.garmin.com/xmlschemas/TrackPointExtension/v1">
            <gpxtpx:hr>106</gpxtpx:hr>
          </gpxtpx:TrackPointExtension>
        </extensions>
      </trkpt>
      <trkpt lat="45.99393" lon="6.25033">
        <ele>646</ele>
        <time>2021-03-02T13:53:05Z</time>
        <extensions>
          <gpxtpx:TrackPointExtension xmlns:gpxtpx="http://www.garmin.com/xmlschemas/TrackPointExtension/v1">
            <gpxtpx:hr>106</gpxtpx:hr>
          </gpxtpx:TrackPointExtension>
        </extensions>
      </trkpt>
      <trkpt lat="45.99393" lon="6.25039">
        <ele>646.2</ele>
        <time>2021-03-02T13:53:06Z</time>
        <extensions>
          <gpxtpx:TrackPointExtension xmlns:gpxtpx="http://www.garmin.com/xmlschemas/TrackPointExtension/v1">
            <gpxtpx:hr>106</gpxtpx:hr>
          </gpxtpx:TrackPointExtension>
        </extensions>
      </trkpt>
      <trkpt lat="45.99393" lon="6.25045">
        <ele>646.4</ele>
        <time>2021-03-02T13:53:07Z</time>
        <extensions>
          <gpxtpx:TrackPointExtension xmlns:gpxtpx="http://www.garmin.com/xmlschemas/TrackPointExtension/v1">
            <gpxtpx:hr>106</gpxtpx:hr>
          </gpxtpx:TrackPointExtension>
        </extensions>
      </trkpt>
      <trkpt lat="45.99393" lon="6.25051">
        <ele>646.6</ele>
        <time>2021-03-02T13:53:08Z</time>
        <extensions>
          <gpxtpx:TrackPointExtension xmlns:gpxtpx="http://www.garmin.com/xmlschemas/TrackPointExtension/v1">
            <gpxtpx:hr>106</gpxtpx:hr>
          </gpxtpx:TrackPointExtension>
        </extensions>
      </trkpt>
      <trkpt lat="45.99394" lon="6.25057">
        <ele>646.8</ele>
        <time>2021-03-02T13:53:09Z</time>
        <extensions>
          <gpxtpx:TrackPointExtension xmlns:gpxtpx="http://www.garmin.com/xmlschemas/TrackPointExtension/v1">
            <gpxtpx:hr>106</gpxtpx:hr>
          </gpxtpx:TrackPointExtension>
        </extensions>
      </trkpt>
      <trkpt lat="45.99394" lon="6.25063">
        <ele>647</ele>
        <time>2021-03-02T13:53:10Z</time>
        <extensions>
          <gpxtpx:TrackPointExtension xmlns:gpxtpx="http://www.garmin.com/xmlschemas/TrackPointExtension/v1">
            <gpxtpx:hr>106</gpxtpx:hr>
          </gpxtpx:TrackPointExtension>
        </extensions>
      </trkpt>
      <trkpt lat="45.99395" lon="6.25069">
        <ele>647.2</ele>
        <time>2021-03-02T13:53:11Z</time>
        <extensions>
          <gpxtpx:TrackPointExtension xmlns:gpxtpx="http://www.garmin.com/xmlschemas/TrackPointExtension/v1">
            <gpxtpx:hr>105</gpxtpx:hr>
          </gpxtpx:TrackPointExtension>
        </extensions>
      </trkpt>
      <trkpt lat="45.99395" lon="6.25075">
        <ele>647.3</ele>
        <time>2021-03-02T13:53:12Z</time>
        <extensions>
          <gpxtpx:TrackPointExtension xmlns:gpxtpx="http://www.garmin.com/xmlschemas/TrackPointExtension/v1">
            <gpxtpx:hr>105</gpxtpx:hr>
          </gpxtpx:TrackPointExtension>
        </extensions>
      </trkpt>
      <trkpt lat="45.99396" lon="6.25081">
        <ele>647.5</ele>
        <time>2021-03-02T13:53:13Z</time>
        <extensions>
          <gpxtpx:TrackPointExtension xmlns:gpxtpx="http://www.garmin.com/xmlschemas/TrackPointExtension/v1">
            <gpxtpx:hr>105</gpxtpx:hr>
          </gpxtpx:TrackPointExtension>
        </extensions>
      </trkpt>
      <trkpt lat="45.99397" lon="6.25086">
        <ele>647.7</ele>
        <time>2021-03-02T13:53:14Z</time>
        <extensions>
          <gpxtpx:TrackPointExtension xmlns:gpxtpx="http://www.garmin.com/xmlschemas/TrackPointExtension/v1">
            <gpxtpx:hr>105</gpxtpx:hr>
          </gpxtpx:TrackPointExtension>
        </extensions>
      </trkpt>
      <trkpt lat="45.99399" lon="6.25092">
        <ele>647.9</ele>
        <time>2021-03-02T13:53:15Z</time>
        <extensions>
          <gpxtpx:TrackPointExtension xmlns:gpxtpx="http://www.garmin.com/xmlschemas/TrackPointExtension/v1">
            <gpxtpx:hr>105</gpxtpx:hr>
          </gpxtpx:TrackPointExtension>
        </extensions>
      </trkpt>
      <trkpt lat="45.994" lon="6.25097">
        <ele>648</ele>
        <time>2021-03-02T13:53:16Z</time>
        <extensions>
          <gpxtpx:TrackPointExtension xmlns:gpxtpx="http://www.garmin.com/xmlschemas/TrackPointExtension/v1">
            <gpxtpx:hr>105</gpxtpx:hr>
          </gpxtpx:TrackPointExtension>
        </extensions>
      </trkpt>
      <trkpt lat="45.99402" lon="6.25103">
        <ele>648.2</ele>
        <time>2021-03-02T13:53:17Z</time>
        <extensions>
          <gpxtpx:TrackPointExtension xmlns:gpxtpx="http://www.garmin.com/xmlschemas/TrackPointExtension/v1">
            <gpxtpx:hr>105</gpxtpx:hr>
          </gpxtpx:TrackPointExtension>
        </extensions>
      </trkpt>
      <trkpt lat="45.99404" lon="6.25108">
        <ele>648.4</ele>
        <time>2021-03-02T13:53:18Z</time>
        <extensions>
          <gpxtpx:TrackPointExtension xmlns:gpxtpx="http://www.garmin.com/xmlschemas/TrackPointExtension/v1">
            <gpxtpx:hr>105</gpxtpx:hr>
          </gpxtpx:TrackPointExtension>
        </extensions>
      </trkpt>
      <trkpt lat="45.99406" lon="6.25114">
        <ele>648.6</ele>
        <time>2021-03-02T13:53:19Z</time>
        <extensions>
          <gpxtpx:TrackPointExtension xmlns:gpxtpx="http://www.garmin.com/xmlschemas/TrackPointExtension/v1">
            <gpxtpx:hr>105</gpxtpx:hr>
          </gpxtpx:TrackPointExtension>
        </extensions>
      </trkpt>
      <trkpt lat="45.99409" lon="6.25119">
        <ele>648.8</ele>
        <time>2021-03-02T13:53:20Z</time>
        <extensions>
          <gpxtpx:TrackPointExtension xmlns:gpxtpx="http://www.garmin.com/xmlschemas/TrackPointExtension/v1">
            <gpxtpx:hr>105</gpxtpx:hr>
          </gpxtpx:TrackPointExtension>
        </extensions>
      </trkpt>
      <trkpt lat="45.99412" lon="6.25124">
        <ele>649</ele>
        <time>2021-03-02T13:53:21Z</time>
        <extensions>
          <gpxtpx:TrackPointExtension xmlns:gpxtpx="http://www.garmin.com/xmlschemas/TrackPointExtension/v1">
            <gpxtpx:hr>105</gpxtpx:hr>
          </gpxtpx:TrackPointExtension>
        </extensions>
      </trkpt>
      <trkpt lat="45.99414" lon="6.2513">
        <ele>649.2</ele>
        <time>2021-03-02T13:53:22Z</time>
        <extensions>
          <gpxtpx:TrackPointExtension xmlns:gpxtpx="http://www.garmin.com/xmlschemas/TrackPointExtension/v1">
            <gpxtpx:hr>105</gpxtpx:hr>
          </gpxtpx:TrackPointExtension>
        </extensions>
      </trkpt>
      <trkpt lat="45.99417" lon="6.25135">
        <ele>649.3</ele>
        <time>2021-03-02T13:53:23Z</time>
        <extensions>
          <gpxtpx:TrackPointExtension xmlns:gpxtpx="http://www.garmin.com/xmlschemas/TrackPointExtension/v1">
            <gpxtpx:hr>105</gpxtpx:hr>
          </gpxtpx:TrackPointExtension>
        </extensions>
      </trkpt>
      <trkpt lat="45.99419" lon="6.2514">
        <ele>649.5</ele>
        <time>2021-03-02T13:53:24Z</time>
        <extensions>
          <gpxtpx:TrackPointExtension xmlns:gpxtpx="http://www.garmin.com/xmlschemas/TrackPointExtension/v1">
            <gpxtpx:hr>104</gpxtpx:hr>
          </gpxtpx:TrackPointExtension>
        </extensions>
      </trkpt>
      <trkpt lat="45.99421" lon="6.25145">
        <ele>649.7</ele>
        <time>2021-03-02T13:53:25Z</time>
        <extensions>
          <gpxtpx:TrackPointExtension xmlns:gpxtpx="http://www.garmin.com/xmlschemas/TrackPointExtension/v1">
            <gpxtpx:hr>104</gpxtpx:hr>
          </gpxtpx:TrackPointExtension>
        </extensions>
      </trkpt>
      <trkpt lat="45.99424" lon="6.2515">
        <ele>649.9</ele>
        <time>2021-03-02T13:53:26Z</time>
        <extensions>
          <gpxtpx:TrackPointExtension xmlns:gpxtpx="http://www.garmin.com/xmlschemas/TrackPointExtension/v1">
            <gpxtpx:hr>103</gpxtpx:hr>
          </gpxtpx:TrackPointExtension>
        </extensions>
      </trkpt>
      <trkpt lat="45.99427" lon="6.25154">
        <ele>650.1</ele>
        <time>2021-03-02T13:53:27Z</time>
        <extensions>
          <gpxtpx:TrackPointExtension xmlns:gpxtpx="http://www.garmin.com/xmlschemas/TrackPointExtension/v1">
            <gpxtpx:hr>103</gpxtpx:hr>
          </gpxtpx:TrackPointExtension>
        </extensions>
      </trkpt>
      <trkpt lat="45.99429" lon="6.25159">
        <ele>650.4</ele>
        <time>2021-03-02T13:53:28Z</time>
        <extensions>
          <gpxtpx:TrackPointExtension xmlns:gpxtpx="http://www.garmin.com/xmlschemas/TrackPointExtension/v1">
            <gpxtpx:hr>102</gpxtpx:hr>
          </gpxtpx:TrackPointExtension>
        </extensions>
      </trkpt>
      <trkpt lat="45.99432" lon="6.25164">
        <ele>650.6</ele>
        <time>2021-03-02T13:53:29Z</time>
        <extensions>
          <gpxtpx:TrackPointExtension xmlns:gpxtpx="http://www.garmin.com/xmlschemas/TrackPointExtension/v1">
            <gpxtpx:hr>102</gpxtpx:hr>
          </gpxtpx:TrackPointExtension>
        </extensions>
      </trkpt>
      <trkpt lat="45.99434" lon="6.25169">
        <ele>650.8</ele>
        <time>2021-03-02T13:53:30Z</time>
        <extensions>
          <gpxtpx:TrackPointExtension xmlns:gpxtpx="http://www.garmin.com/xmlschemas/TrackPointExtension/v1">
            <gpxtpx:hr>101</gpxtpx:hr>
          </gpxtpx:TrackPointExtension>
        </extensions>
      </trkpt>
      <trkpt lat="45.99436" lon="6.25173">
        <ele>651.1</ele>
        <time>2021-03-02T13:53:31Z</time>
        <extensions>
          <gpxtpx:TrackPointExtension xmlns:gpxtpx="http://www.garmin.com/xmlschemas/TrackPointExtension/v1">
            <gpxtpx:hr>101</gpxtpx:hr>
          </gpxtpx:TrackPointExtension>
        </extensions>
      </trkpt>
      <trkpt lat="45.99438" lon="6.25178">
        <ele>651.3</ele>
        <time>2021-03-02T13:53:32Z</time>
        <extensions>
          <gpxtpx:TrackPointExtension xmlns:gpxtpx="http://www.garmin.com/xmlschemas/TrackPointExtension/v1">
            <gpxtpx:hr>102</gpxtpx:hr>
          </gpxtpx:TrackPointExtension>
        </extensions>
      </trkpt>
      <trkpt lat="45.9944" lon="6.25183">
        <ele>651.5</ele>
        <time>2021-03-02T13:53:33Z</time>
        <extensions>
          <gpxtpx:TrackPointExtension xmlns:gpxtpx="http://www.garmin.com/xmlschemas/TrackPointExtension/v1">
            <gpxtpx:hr>102</gpxtpx:hr>
          </gpxtpx:TrackPointExtension>
        </extensions>
      </trkpt>
      <trkpt lat="45.99442" lon="6.25188">
        <ele>651.7</ele>
        <time>2021-03-02T13:53:34Z</time>
        <extensions>
          <gpxtpx:TrackPointExtension xmlns:gpxtpx="http://www.garmin.com/xmlschemas/TrackPointExtension/v1">
            <gpxtpx:hr>102</gpxtpx:hr>
          </gpxtpx:TrackPointExtension>
        </extensions>
      </trkpt>
      <trkpt lat="45.99444" lon="6.25193">
        <ele>651.9</ele>
        <time>2021-03-02T13:53:35Z</time>
        <extensions>
          <gpxtpx:TrackPointExtension xmlns:gpxtpx="http://www.garmin.com/xmlschemas/TrackPointExtension/v1">
            <gpxtpx:hr>102</gpxtpx:hr>
          </gpxtpx:TrackPointExtension>
        </extensions>
      </trkpt>
      <trkpt lat="45.99446" lon="6.25199">
        <ele>652.1</ele>
        <time>2021-03-02T13:53:36Z</time>
        <extensions>
          <gpxtpx:TrackPointExtension xmlns:gpxtpx="http://www.garmin.com/xmlschemas/TrackPointExtension/v1">
            <gpxtpx:hr>103</gpxtpx:hr>
          </gpxtpx:TrackPointExtension>
        </extensions>
      </trkpt>
      <trkpt lat="45.99448" lon="6.25204">
        <ele>652.3</ele>
        <time>2021-03-02T13:53:37Z</time>
        <extensions>
          <gpxtpx:TrackPointExtension xmlns:gpxtpx="http://www.garmin.com/xmlschemas/TrackPointExtension/v1">
            <gpxtpx:hr>103</gpxtpx:hr>
          </gpxtpx:TrackPointExtension>
        </extensions>
      </trkpt>
      <trkpt lat="45.99449" lon="6.2521">
        <ele>652.5</ele>
        <time>2021-03-02T13:53:38Z</time>
        <extensions>
          <gpxtpx:TrackPointExtension xmlns:gpxtpx="http://www.garmin.com/xmlschemas/TrackPointExtension/v1">
            <gpxtpx:hr>103</gpxtpx:hr>
          </gpxtpx:TrackPointExtension>
        </extensions>
      </trkpt>
      <trkpt lat="45.99451" lon="6.25215">
        <ele>652.6</ele>
        <time>2021-03-02T13:53:39Z</time>
        <extensions>
          <gpxtpx:TrackPointExtension xmlns:gpxtpx="http://www.garmin.com/xmlschemas/TrackPointExtension/v1">
            <gpxtpx:hr>103</gpxtpx:hr>
          </gpxtpx:TrackPointExtension>
        </extensions>
      </trkpt>
      <trkpt lat="45.99452" lon="6.2522">
        <ele>652.8</ele>
        <time>2021-03-02T13:53:40Z</time>
        <extensions>
          <gpxtpx:TrackPointExtension xmlns:gpxtpx="http://www.garmin.com/xmlschemas/TrackPointExtension/v1">
            <gpxtpx:hr>103</gpxtpx:hr>
          </gpxtpx:TrackPointExtension>
        </extensions>
      </trkpt>
      <trkpt lat="45.99454" lon="6.25226">
        <ele>653</ele>
        <time>2021-03-02T13:53:41Z</time>
        <extensions>
          <gpxtpx:TrackPointExtension xmlns:gpxtpx="http://www.garmin.com/xmlschemas/TrackPointExtension/v1">
            <gpxtpx:hr>103</gpxtpx:hr>
          </gpxtpx:TrackPointExtension>
        </extensions>
      </trkpt>
      <trkpt lat="45.99455" lon="6.25231">
        <ele>653.2</ele>
        <time>2021-03-02T13:53:42Z</time>
        <extensions>
          <gpxtpx:TrackPointExtension xmlns:gpxtpx="http://www.garmin.com/xmlschemas/TrackPointExtension/v1">
            <gpxtpx:hr>103</gpxtpx:hr>
          </gpxtpx:TrackPointExtension>
        </extensions>
      </trkpt>
      <trkpt lat="45.99457" lon="6.25236">
        <ele>653.3</ele>
        <time>2021-03-02T13:53:43Z</time>
        <extensions>
          <gpxtpx:TrackPointExtension xmlns:gpxtpx="http://www.garmin.com/xmlschemas/TrackPointExtension/v1">
            <gpxtpx:hr>103</gpxtpx:hr>
          </gpxtpx:TrackPointExtension>
        </extensions>
      </trkpt>
      <trkpt lat="45.99459" lon="6.25241">
        <ele>653.5</ele>
        <time>2021-03-02T13:53:44Z</time>
        <extensions>
          <gpxtpx:TrackPointExtension xmlns:gpxtpx="http://www.garmin.com/xmlschemas/TrackPointExtension/v1">
            <gpxtpx:hr>103</gpxtpx:hr>
          </gpxtpx:TrackPointExtension>
        </extensions>
      </trkpt>
      <trkpt lat="45.99461" lon="6.25247">
        <ele>653.7</ele>
        <time>2021-03-02T13:53:45Z</time>
        <extensions>
          <gpxtpx:TrackPointExtension xmlns:gpxtpx="http://www.garmin.com/xmlschemas/TrackPointExtension/v1">
            <gpxtpx:hr>104</gpxtpx:hr>
          </gpxtpx:TrackPointExtension>
        </extensions>
      </trkpt>
      <trkpt lat="45.99464" lon="6.25251">
        <ele>653.9</ele>
        <time>2021-03-02T13:53:46Z</time>
        <extensions>
          <gpxtpx:TrackPointExtension xmlns:gpxtpx="http://www.garmin.com/xmlschemas/TrackPointExtension/v1">
            <gpxtpx:hr>104</gpxtpx:hr>
          </gpxtpx:TrackPointExtension>
        </extensions>
      </trkpt>
      <trkpt lat="45.99466" lon="6.25256">
        <ele>654.1</ele>
        <time>2021-03-02T13:53:47Z</time>
        <extensions>
          <gpxtpx:TrackPointExtension xmlns:gpxtpx="http://www.garmin.com/xmlschemas/TrackPointExtension/v1">
            <gpxtpx:hr>104</gpxtpx:hr>
          </gpxtpx:TrackPointExtension>
        </extensions>
      </trkpt>
      <trkpt lat="45.99469" lon="6.2526">
        <ele>654.3</ele>
        <time>2021-03-02T13:53:48Z</time>
        <extensions>
          <gpxtpx:TrackPointExtension xmlns:gpxtpx="http://www.garmin.com/xmlschemas/TrackPointExtension/v1">
            <gpxtpx:hr>104</gpxtpx:hr>
          </gpxtpx:TrackPointExtension>
        </extensions>
      </trkpt>
      <trkpt lat="45.99472" lon="6.25264">
        <ele>654.4</ele>
        <time>2021-03-02T13:53:49Z</time>
        <extensions>
          <gpxtpx:TrackPointExtension xmlns:gpxtpx="http://www.garmin.com/xmlschemas/TrackPointExtension/v1">
            <gpxtpx:hr>104</gpxtpx:hr>
          </gpxtpx:TrackPointExtension>
        </extensions>
      </trkpt>
      <trkpt lat="45.99476" lon="6.25267">
        <ele>654.6</ele>
        <time>2021-03-02T13:53:50Z</time>
        <extensions>
          <gpxtpx:TrackPointExtension xmlns:gpxtpx="http://www.garmin.com/xmlschemas/TrackPointExtension/v1">
            <gpxtpx:hr>104</gpxtpx:hr>
          </gpxtpx:TrackPointExtension>
        </extensions>
      </trkpt>
      <trkpt lat="45.99479" lon="6.2527">
        <ele>654.8</ele>
        <time>2021-03-02T13:53:51Z</time>
        <extensions>
          <gpxtpx:TrackPointExtension xmlns:gpxtpx="http://www.garmin.com/xmlschemas/TrackPointExtension/v1">
            <gpxtpx:hr>104</gpxtpx:hr>
          </gpxtpx:TrackPointExtension>
        </extensions>
      </trkpt>
      <trkpt lat="45.99483" lon="6.25273">
        <ele>655</ele>
        <time>2021-03-02T13:53:52Z</time>
        <extensions>
          <gpxtpx:TrackPointExtension xmlns:gpxtpx="http://www.garmin.com/xmlschemas/TrackPointExtension/v1">
            <gpxtpx:hr>104</gpxtpx:hr>
          </gpxtpx:TrackPointExtension>
        </extensions>
      </trkpt>
      <trkpt lat="45.99487" lon="6.25275">
        <ele>655.2</ele>
        <time>2021-03-02T13:53:53Z</time>
        <extensions>
          <gpxtpx:TrackPointExtension xmlns:gpxtpx="http://www.garmin.com/xmlschemas/TrackPointExtension/v1">
            <gpxtpx:hr>104</gpxtpx:hr>
          </gpxtpx:TrackPointExtension>
        </extensions>
      </trkpt>
      <trkpt lat="45.9949" lon="6.25277">
        <ele>655.4</ele>
        <time>2021-03-02T13:53:54Z</time>
        <extensions>
          <gpxtpx:TrackPointExtension xmlns:gpxtpx="http://www.garmin.com/xmlschemas/TrackPointExtension/v1">
            <gpxtpx:hr>104</gpxtpx:hr>
          </gpxtpx:TrackPointExtension>
        </extensions>
      </trkpt>
      <trkpt lat="45.99494" lon="6.25279">
        <ele>655.6</ele>
        <time>2021-03-02T13:53:55Z</time>
        <extensions>
          <gpxtpx:TrackPointExtension xmlns:gpxtpx="http://www.garmin.com/xmlschemas/TrackPointExtension/v1">
            <gpxtpx:hr>104</gpxtpx:hr>
          </gpxtpx:TrackPointExtension>
        </extensions>
      </trkpt>
      <trkpt lat="45.99498" lon="6.2528">
        <ele>655.8</ele>
        <time>2021-03-02T13:53:56Z</time>
        <extensions>
          <gpxtpx:TrackPointExtension xmlns:gpxtpx="http://www.garmin.com/xmlschemas/TrackPointExtension/v1">
            <gpxtpx:hr>104</gpxtpx:hr>
          </gpxtpx:TrackPointExtension>
        </extensions>
      </trkpt>
      <trkpt lat="45.99502" lon="6.25282">
        <ele>656</ele>
        <time>2021-03-02T13:53:57Z</time>
        <extensions>
          <gpxtpx:TrackPointExtension xmlns:gpxtpx="http://www.garmin.com/xmlschemas/TrackPointExtension/v1">
            <gpxtpx:hr>104</gpxtpx:hr>
          </gpxtpx:TrackPointExtension>
        </extensions>
      </trkpt>
      <trkpt lat="45.99506" lon="6.25284">
        <ele>656.2</ele>
        <time>2021-03-02T13:53:58Z</time>
        <extensions>
          <gpxtpx:TrackPointExtension xmlns:gpxtpx="http://www.garmin.com/xmlschemas/TrackPointExtension/v1">
            <gpxtpx:hr>103</gpxtpx:hr>
          </gpxtpx:TrackPointExtension>
        </extensions>
      </trkpt>
      <trkpt lat="45.9951" lon="6.25285">
        <ele>656.4</ele>
        <time>2021-03-02T13:53:59Z</time>
        <extensions>
          <gpxtpx:TrackPointExtension xmlns:gpxtpx="http://www.garmin.com/xmlschemas/TrackPointExtension/v1">
            <gpxtpx:hr>103</gpxtpx:hr>
          </gpxtpx:TrackPointExtension>
        </extensions>
      </trkpt>
      <trkpt lat="45.99514" lon="6.25286">
        <ele>656.6</ele>
        <time>2021-03-02T13:54:00Z</time>
        <extensions>
          <gpxtpx:TrackPointExtension xmlns:gpxtpx="http://www.garmin.com/xmlschemas/TrackPointExtension/v1">
            <gpxtpx:hr>103</gpxtpx:hr>
          </gpxtpx:TrackPointExtension>
        </extensions>
      </trkpt>
      <trkpt lat="45.99518" lon="6.25287">
        <ele>656.8</ele>
        <time>2021-03-02T13:54:01Z</time>
        <extensions>
          <gpxtpx:TrackPointExtension xmlns:gpxtpx="http://www.garmin.com/xmlschemas/TrackPointExtension/v1">
            <gpxtpx:hr>103</gpxtpx:hr>
          </gpxtpx:TrackPointExtension>
        </extensions>
      </trkpt>
      <trkpt lat="45.99522" lon="6.25289">
        <ele>657.1</ele>
        <time>2021-03-02T13:54:02Z</time>
        <extensions>
          <gpxtpx:TrackPointExtension xmlns:gpxtpx="http://www.garmin.com/xmlschemas/TrackPointExtension/v1">
            <gpxtpx:hr>102</gpxtpx:hr>
          </gpxtpx:TrackPointExtension>
        </extensions>
      </trkpt>
      <trkpt lat="45.99526" lon="6.2529">
        <ele>657.3</ele>
        <time>2021-03-02T13:54:03Z</time>
        <extensions>
          <gpxtpx:TrackPointExtension xmlns:gpxtpx="http://www.garmin.com/xmlschemas/TrackPointExtension/v1">
            <gpxtpx:hr>101</gpxtpx:hr>
          </gpxtpx:TrackPointExtension>
        </extensions>
      </trkpt>
      <trkpt lat="45.9953" lon="6.25291">
        <ele>657.5</ele>
        <time>2021-03-02T13:54:04Z</time>
        <extensions>
          <gpxtpx:TrackPointExtension xmlns:gpxtpx="http://www.garmin.com/xmlschemas/TrackPointExtension/v1">
            <gpxtpx:hr>101</gpxtpx:hr>
          </gpxtpx:TrackPointExtension>
        </extensions>
      </trkpt>
      <trkpt lat="45.99534" lon="6.25292">
        <ele>657.8</ele>
        <time>2021-03-02T13:54:05Z</time>
        <extensions>
          <gpxtpx:TrackPointExtension xmlns:gpxtpx="http://www.garmin.com/xmlschemas/TrackPointExtension/v1">
            <gpxtpx:hr>101</gpxtpx:hr>
          </gpxtpx:TrackPointExtension>
        </extensions>
      </trkpt>
      <trkpt lat="45.99538" lon="6.25293">
        <ele>658</ele>
        <time>2021-03-02T13:54:06Z</time>
        <extensions>
          <gpxtpx:TrackPointExtension xmlns:gpxtpx="http://www.garmin.com/xmlschemas/TrackPointExtension/v1">
            <gpxtpx:hr>100</gpxtpx:hr>
          </gpxtpx:TrackPointExtension>
        </extensions>
      </trkpt>
      <trkpt lat="45.99541" lon="6.25295">
        <ele>658.3</ele>
        <time>2021-03-02T13:54:07Z</time>
        <extensions>
          <gpxtpx:TrackPointExtension xmlns:gpxtpx="http://www.garmin.com/xmlschemas/TrackPointExtension/v1">
            <gpxtpx:hr>100</gpxtpx:hr>
          </gpxtpx:TrackPointExtension>
        </extensions>
      </trkpt>
      <trkpt lat="45.99545" lon="6.25296">
        <ele>658.5</ele>
        <time>2021-03-02T13:54:08Z</time>
        <extensions>
          <gpxtpx:TrackPointExtension xmlns:gpxtpx="http://www.garmin.com/xmlschemas/TrackPointExtension/v1">
            <gpxtpx:hr>100</gpxtpx:hr>
          </gpxtpx:TrackPointExtension>
        </extensions>
      </trkpt>
      <trkpt lat="45.99548" lon="6.25298">
        <ele>658.7</ele>
        <time>2021-03-02T13:54:09Z</time>
        <extensions>
          <gpxtpx:TrackPointExtension xmlns:gpxtpx="http://www.garmin.com/xmlschemas/TrackPointExtension/v1">
            <gpxtpx:hr>100</gpxtpx:hr>
          </gpxtpx:TrackPointExtension>
        </extensions>
      </trkpt>
      <trkpt lat="45.99551" lon="6.253">
        <ele>659</ele>
        <time>2021-03-02T13:54:10Z</time>
        <extensions>
          <gpxtpx:TrackPointExtension xmlns:gpxtpx="http://www.garmin.com/xmlschemas/TrackPointExtension/v1">
            <gpxtpx:hr>99</gpxtpx:hr>
          </gpxtpx:TrackPointExtension>
        </extensions>
      </trkpt>
      <trkpt lat="45.99555" lon="6.25301">
        <ele>659.2</ele>
        <time>2021-03-02T13:54:11Z</time>
        <extensions>
          <gpxtpx:TrackPointExtension xmlns:gpxtpx="http://www.garmin.com/xmlschemas/TrackPointExtension/v1">
            <gpxtpx:hr>99</gpxtpx:hr>
          </gpxtpx:TrackPointExtension>
        </extensions>
      </trkpt>
      <trkpt lat="45.99558" lon="6.25303">
        <ele>659.4</ele>
        <time>2021-03-02T13:54:12Z</time>
        <extensions>
          <gpxtpx:TrackPointExtension xmlns:gpxtpx="http://www.garmin.com/xmlschemas/TrackPointExtension/v1">
            <gpxtpx:hr>99</gpxtpx:hr>
          </gpxtpx:TrackPointExtension>
        </extensions>
      </trkpt>
      <trkpt lat="45.99561" lon="6.25306">
        <ele>659.6</ele>
        <time>2021-03-02T13:54:13Z</time>
        <extensions>
          <gpxtpx:TrackPointExtension xmlns:gpxtpx="http://www.garmin.com/xmlschemas/TrackPointExtension/v1">
            <gpxtpx:hr>100</gpxtpx:hr>
          </gpxtpx:TrackPointExtension>
        </extensions>
      </trkpt>
      <trkpt lat="45.99564" lon="6.25308">
        <ele>659.9</ele>
        <time>2021-03-02T13:54:14Z</time>
        <extensions>
          <gpxtpx:TrackPointExtension xmlns:gpxtpx="http://www.garmin.com/xmlschemas/TrackPointExtension/v1">
            <gpxtpx:hr>100</gpxtpx:hr>
          </gpxtpx:TrackPointExtension>
        </extensions>
      </trkpt>
      <trkpt lat="45.99567" lon="6.25311">
        <ele>660.1</ele>
        <time>2021-03-02T13:54:15Z</time>
        <extensions>
          <gpxtpx:TrackPointExtension xmlns:gpxtpx="http://www.garmin.com/xmlschemas/TrackPointExtension/v1">
            <gpxtpx:hr>100</gpxtpx:hr>
          </gpxtpx:TrackPointExtension>
        </extensions>
      </trkpt>
      <trkpt lat="45.9957" lon="6.25314">
        <ele>660.3</ele>
        <time>2021-03-02T13:54:16Z</time>
        <extensions>
          <gpxtpx:TrackPointExtension xmlns:gpxtpx="http://www.garmin.com/xmlschemas/TrackPointExtension/v1">
            <gpxtpx:hr>99</gpxtpx:hr>
          </gpxtpx:TrackPointExtension>
        </extensions>
      </trkpt>
      <trkpt lat="45.99573" lon="6.25317">
        <ele>660.4</ele>
        <time>2021-03-02T13:54:17Z</time>
        <extensions>
          <gpxtpx:TrackPointExtension xmlns:gpxtpx="http://www.garmin.com/xmlschemas/TrackPointExtension/v1">
            <gpxtpx:hr>99</gpxtpx:hr>
          </gpxtpx:TrackPointExtension>
        </extensions>
      </trkpt>
      <trkpt lat="45.99576" lon="6.25319">
        <ele>660.6</ele>
        <time>2021-03-02T13:54:18Z</time>
        <extensions>
          <gpxtpx:TrackPointExtension xmlns:gpxtpx="http://www.garmin.com/xmlschemas/TrackPointExtension/v1">
            <gpxtpx:hr>99</gpxtpx:hr>
          </gpxtpx:TrackPointExtension>
        </extensions>
      </trkpt>
      <trkpt lat="45.9958" lon="6.25322">
        <ele>660.8</ele>
        <time>2021-03-02T13:54:19Z</time>
        <extensions>
          <gpxtpx:TrackPointExtension xmlns:gpxtpx="http://www.garmin.com/xmlschemas/TrackPointExtension/v1">
            <gpxtpx:hr>98</gpxtpx:hr>
          </gpxtpx:TrackPointExtension>
        </extensions>
      </trkpt>
      <trkpt lat="45.99583" lon="6.25325">
        <ele>661</ele>
        <time>2021-03-02T13:54:20Z</time>
        <extensions>
          <gpxtpx:TrackPointExtension xmlns:gpxtpx="http://www.garmin.com/xmlschemas/TrackPointExtension/v1">
            <gpxtpx:hr>98</gpxtpx:hr>
          </gpxtpx:TrackPointExtension>
        </extensions>
      </trkpt>
      <trkpt lat="45.99586" lon="6.25328">
        <ele>661.2</ele>
        <time>2021-03-02T13:54:21Z</time>
        <extensions>
          <gpxtpx:TrackPointExtension xmlns:gpxtpx="http://www.garmin.com/xmlschemas/TrackPointExtension/v1">
            <gpxtpx:hr>97</gpxtpx:hr>
          </gpxtpx:TrackPointExtension>
        </extensions>
      </trkpt>
      <trkpt lat="45.99589" lon="6.2533">
        <ele>661.4</ele>
        <time>2021-03-02T13:54:22Z</time>
        <extensions>
          <gpxtpx:TrackPointExtension xmlns:gpxtpx="http://www.garmin.com/xmlschemas/TrackPointExtension/v1">
            <gpxtpx:hr>96</gpxtpx:hr>
          </gpxtpx:TrackPointExtension>
        </extensions>
      </trkpt>
      <trkpt lat="45.99592" lon="6.25332">
        <ele>661.5</ele>
        <time>2021-03-02T13:54:23Z</time>
        <extensions>
          <gpxtpx:TrackPointExtension xmlns:gpxtpx="http://www.garmin.com/xmlschemas/TrackPointExtension/v1">
            <gpxtpx:hr>97</gpxtpx:hr>
          </gpxtpx:TrackPointExtension>
        </extensions>
      </trkpt>
      <trkpt lat="45.99596" lon="6.25334">
        <ele>661.7</ele>
        <time>2021-03-02T13:54:24Z</time>
        <extensions>
          <gpxtpx:TrackPointExtension xmlns:gpxtpx="http://www.garmin.com/xmlschemas/TrackPointExtension/v1">
            <gpxtpx:hr>97</gpxtpx:hr>
          </gpxtpx:TrackPointExtension>
        </extensions>
      </trkpt>
      <trkpt lat="45.996" lon="6.25336">
        <ele>661.9</ele>
        <time>2021-03-02T13:54:25Z</time>
        <extensions>
          <gpxtpx:TrackPointExtension xmlns:gpxtpx="http://www.garmin.com/xmlschemas/TrackPointExtension/v1">
            <gpxtpx:hr>97</gpxtpx:hr>
          </gpxtpx:TrackPointExtension>
        </extensions>
      </trkpt>
      <trkpt lat="45.99604" lon="6.25337">
        <ele>662</ele>
        <time>2021-03-02T13:54:26Z</time>
        <extensions>
          <gpxtpx:TrackPointExtension xmlns:gpxtpx="http://www.garmin.com/xmlschemas/TrackPointExtension/v1">
            <gpxtpx:hr>97</gpxtpx:hr>
          </gpxtpx:TrackPointExtension>
        </extensions>
      </trkpt>
      <trkpt lat="45.99608" lon="6.25338">
        <ele>662.2</ele>
        <time>2021-03-02T13:54:27Z</time>
        <extensions>
          <gpxtpx:TrackPointExtension xmlns:gpxtpx="http://www.garmin.com/xmlschemas/TrackPointExtension/v1">
            <gpxtpx:hr>97</gpxtpx:hr>
          </gpxtpx:TrackPointExtension>
        </extensions>
      </trkpt>
      <trkpt lat="45.99612" lon="6.25338">
        <ele>662.4</ele>
        <time>2021-03-02T13:54:28Z</time>
        <extensions>
          <gpxtpx:TrackPointExtension xmlns:gpxtpx="http://www.garmin.com/xmlschemas/TrackPointExtension/v1">
            <gpxtpx:hr>97</gpxtpx:hr>
          </gpxtpx:TrackPointExtension>
        </extensions>
      </trkpt>
      <trkpt lat="45.99616" lon="6.25339">
        <ele>662.6</ele>
        <time>2021-03-02T13:54:29Z</time>
        <extensions>
          <gpxtpx:TrackPointExtension xmlns:gpxtpx="http://www.garmin.com/xmlschemas/TrackPointExtension/v1">
            <gpxtpx:hr>97</gpxtpx:hr>
          </gpxtpx:TrackPointExtension>
        </extensions>
      </trkpt>
      <trkpt lat="45.99621" lon="6.2534">
        <ele>662.7</ele>
        <time>2021-03-02T13:54:30Z</time>
        <extensions>
          <gpxtpx:TrackPointExtension xmlns:gpxtpx="http://www.garmin.com/xmlschemas/TrackPointExtension/v1">
            <gpxtpx:hr>97</gpxtpx:hr>
          </gpxtpx:TrackPointExtension>
        </extensions>
      </trkpt>
      <trkpt lat="45.99625" lon="6.2534">
        <ele>662.9</ele>
        <time>2021-03-02T13:54:31Z</time>
        <extensions>
          <gpxtpx:TrackPointExtension xmlns:gpxtpx="http://www.garmin.com/xmlschemas/TrackPointExtension/v1">
            <gpxtpx:hr>97</gpxtpx:hr>
          </gpxtpx:TrackPointExtension>
        </extensions>
      </trkpt>
      <trkpt lat="45.9963" lon="6.25341">
        <ele>663</ele>
        <time>2021-03-02T13:54:32Z</time>
        <extensions>
          <gpxtpx:TrackPointExtension xmlns:gpxtpx="http://www.garmin.com/xmlschemas/TrackPointExtension/v1">
            <gpxtpx:hr>97</gpxtpx:hr>
          </gpxtpx:TrackPointExtension>
        </extensions>
      </trkpt>
      <trkpt lat="45.99634" lon="6.25341">
        <ele>663.2</ele>
        <time>2021-03-02T13:54:33Z</time>
        <extensions>
          <gpxtpx:TrackPointExtension xmlns:gpxtpx="http://www.garmin.com/xmlschemas/TrackPointExtension/v1">
            <gpxtpx:hr>97</gpxtpx:hr>
          </gpxtpx:TrackPointExtension>
        </extensions>
      </trkpt>
      <trkpt lat="45.99638" lon="6.25341">
        <ele>663.3</ele>
        <time>2021-03-02T13:54:34Z</time>
        <extensions>
          <gpxtpx:TrackPointExtension xmlns:gpxtpx="http://www.garmin.com/xmlschemas/TrackPointExtension/v1">
            <gpxtpx:hr>97</gpxtpx:hr>
          </gpxtpx:TrackPointExtension>
        </extensions>
      </trkpt>
      <trkpt lat="45.99643" lon="6.25342">
        <ele>663.5</ele>
        <time>2021-03-02T13:54:35Z</time>
        <extensions>
          <gpxtpx:TrackPointExtension xmlns:gpxtpx="http://www.garmin.com/xmlschemas/TrackPointExtension/v1">
            <gpxtpx:hr>97</gpxtpx:hr>
          </gpxtpx:TrackPointExtension>
        </extensions>
      </trkpt>
      <trkpt lat="45.99647" lon="6.25342">
        <ele>663.7</ele>
        <time>2021-03-02T13:54:36Z</time>
        <extensions>
          <gpxtpx:TrackPointExtension xmlns:gpxtpx="http://www.garmin.com/xmlschemas/TrackPointExtension/v1">
            <gpxtpx:hr>97</gpxtpx:hr>
          </gpxtpx:TrackPointExtension>
        </extensions>
      </trkpt>
      <trkpt lat="45.99652" lon="6.25343">
        <ele>663.8</ele>
        <time>2021-03-02T13:54:37Z</time>
        <extensions>
          <gpxtpx:TrackPointExtension xmlns:gpxtpx="http://www.garmin.com/xmlschemas/TrackPointExtension/v1">
            <gpxtpx:hr>97</gpxtpx:hr>
          </gpxtpx:TrackPointExtension>
        </extensions>
      </trkpt>
      <trkpt lat="45.99657" lon="6.25343">
        <ele>664</ele>
        <time>2021-03-02T13:54:38Z</time>
        <extensions>
          <gpxtpx:TrackPointExtension xmlns:gpxtpx="http://www.garmin.com/xmlschemas/TrackPointExtension/v1">
            <gpxtpx:hr>97</gpxtpx:hr>
          </gpxtpx:TrackPointExtension>
        </extensions>
      </trkpt>
      <trkpt lat="45.99661" lon="6.25343">
        <ele>664.1</ele>
        <time>2021-03-02T13:54:39Z</time>
        <extensions>
          <gpxtpx:TrackPointExtension xmlns:gpxtpx="http://www.garmin.com/xmlschemas/TrackPointExtension/v1">
            <gpxtpx:hr>97</gpxtpx:hr>
          </gpxtpx:TrackPointExtension>
        </extensions>
      </trkpt>
      <trkpt lat="45.99666" lon="6.25344">
        <ele>664.3</ele>
        <time>2021-03-02T13:54:40Z</time>
        <extensions>
          <gpxtpx:TrackPointExtension xmlns:gpxtpx="http://www.garmin.com/xmlschemas/TrackPointExtension/v1">
            <gpxtpx:hr>97</gpxtpx:hr>
          </gpxtpx:TrackPointExtension>
        </extensions>
      </trkpt>
      <trkpt lat="45.99671" lon="6.25344">
        <ele>664.5</ele>
        <time>2021-03-02T13:54:41Z</time>
        <extensions>
          <gpxtpx:TrackPointExtension xmlns:gpxtpx="http://www.garmin.com/xmlschemas/TrackPointExtension/v1">
            <gpxtpx:hr>97</gpxtpx:hr>
          </gpxtpx:TrackPointExtension>
        </extensions>
      </trkpt>
      <trkpt lat="45.99675" lon="6.25344">
        <ele>664.6</ele>
        <time>2021-03-02T13:54:42Z</time>
        <extensions>
          <gpxtpx:TrackPointExtension xmlns:gpxtpx="http://www.garmin.com/xmlschemas/TrackPointExtension/v1">
            <gpxtpx:hr>97</gpxtpx:hr>
          </gpxtpx:TrackPointExtension>
        </extensions>
      </trkpt>
      <trkpt lat="45.9968" lon="6.25345">
        <ele>664.8</ele>
        <time>2021-03-02T13:54:43Z</time>
        <extensions>
          <gpxtpx:TrackPointExtension xmlns:gpxtpx="http://www.garmin.com/xmlschemas/TrackPointExtension/v1">
            <gpxtpx:hr>97</gpxtpx:hr>
          </gpxtpx:TrackPointExtension>
        </extensions>
      </trkpt>
      <trkpt lat="45.99685" lon="6.25345">
        <ele>665</ele>
        <time>2021-03-02T13:54:44Z</time>
        <extensions>
          <gpxtpx:TrackPointExtension xmlns:gpxtpx="http://www.garmin.com/xmlschemas/TrackPointExtension/v1">
            <gpxtpx:hr>97</gpxtpx:hr>
          </gpxtpx:TrackPointExtension>
        </extensions>
      </trkpt>
      <trkpt lat="45.9969" lon="6.25345">
        <ele>665.2</ele>
        <time>2021-03-02T13:54:45Z</time>
        <extensions>
          <gpxtpx:TrackPointExtension xmlns:gpxtpx="http://www.garmin.com/xmlschemas/TrackPointExtension/v1">
            <gpxtpx:hr>98</gpxtpx:hr>
          </gpxtpx:TrackPointExtension>
        </extensions>
      </trkpt>
    </trkseg>
  </trk>
  <trk>
    <name><![CDATA[Les Glières 02 par les Ollières_3]]></name>
    <trkseg>
      <trkpt lat="45.99736" lon="6.25331">
        <ele>668.4</ele>
      </trkpt>
      <trkpt lat="45.99736" lon="6.25331">
        <ele>668.4</ele>
      </trkpt>
      <trkpt lat="45.99736" lon="6.25336">
        <ele>667.9</ele>
      </trkpt>
      <trkpt lat="45.99736" lon="6.2534">
        <ele>667.5</ele>
      </trkpt>
      <trkpt lat="45.99734" lon="6.2534">
        <ele>667.4</ele>
      </trkpt>
      <trkpt lat="45.99729" lon="6.25343">
        <ele>666.8</ele>
      </trkpt>
      <trkpt lat="45.99727" lon="6.25346">
        <ele>666.4</ele>
      </trkpt>
      <trkpt lat="45.99726" lon="6.2535">
        <ele>666</ele>
      </trkpt>
      <trkpt lat="45.99726" lon="6.25354">
        <ele>665.6</ele>
      </trkpt>
      <trkpt lat="45.99729" lon="6.25361">
        <ele>665.2</ele>
      </trkpt>
      <trkpt lat="45.99732" lon="6.25363">
        <ele>665.1</ele>
      </trkpt>
      <trkpt lat="45.99737" lon="6.25362">
        <ele>665.5</ele>
      </trkpt>
      <trkpt lat="45.99741" lon="6.25357">
        <ele>666.2</ele>
      </trkpt>
      <trkpt lat="45.99742" lon="6.25356">
        <ele>666.4</ele>
      </trkpt>
      <trkpt lat="45.99745" lon="6.25358">
        <ele>666.3</ele>
      </trkpt>
      <trkpt lat="45.99751" lon="6.25362">
        <ele>666.3</ele>
      </trkpt>
      <trkpt lat="45.99758" lon="6.25367">
        <ele>666.3</ele>
      </trkpt>
      <trkpt lat="45.99773" lon="6.25375">
        <ele>666.5</ele>
      </trkpt>
      <trkpt lat="45.99797" lon="6.25378">
        <ele>667.9</ele>
      </trkpt>
      <trkpt lat="45.99807" lon="6.25382">
        <ele>668.3</ele>
      </trkpt>
      <trkpt lat="45.99813" lon="6.25388">
        <ele>668.3</ele>
      </trkpt>
      <trkpt lat="45.9982" lon="6.25401">
        <ele>667.9</ele>
      </trkpt>
      <trkpt lat="45.9982" lon="6.25415">
        <ele>667</ele>
      </trkpt>
      <trkpt lat="45.99819" lon="6.25421">
        <ele>666.7</ele>
      </trkpt>
      <trkpt lat="45.99815" lon="6.25439">
        <ele>666</ele>
      </trkpt>
      <trkpt lat="45.99812" lon="6.2545">
        <ele>665.6</ele>
      </trkpt>
      <trkpt lat="45.99808" lon="6.25459">
        <ele>665.2</ele>
      </trkpt>
      <trkpt lat="45.99803" lon="6.25468">
        <ele>664.7</ele>
      </trkpt>
      <trkpt lat="45.9978" lon="6.25495">
        <ele>662.8</ele>
      </trkpt>
      <trkpt lat="45.99773" lon="6.25505">
        <ele>662.8</ele>
      </trkpt>
      <trkpt lat="45.99766" lon="6.25514">
        <ele>663.1</ele>
      </trkpt>
      <trkpt lat="45.99743" lon="6.25545">
        <ele>664.5</ele>
      </trkpt>
      <trkpt lat="45.99733" lon="6.25565">
        <ele>665.8</ele>
      </trkpt>
      <trkpt lat="45.99713" lon="6.25616">
        <ele>669.2</ele>
      </trkpt>
      <trkpt lat="45.99703" lon="6.25633">
        <ele>670.3</ele>
      </trkpt>
      <trkpt lat="45.99693" lon="6.25645">
        <ele>671.2</ele>
      </trkpt>
      <trkpt lat="45.99684" lon="6.25651">
        <ele>671.6</ele>
      </trkpt>
      <trkpt lat="45.9967" lon="6.25654">
        <ele>671.8</ele>
      </trkpt>
      <trkpt lat="45.99662" lon="6.25652">
        <ele>671.9</ele>
      </trkpt>
      <trkpt lat="45.9963" lon="6.25636">
        <ele>672.2</ele>
      </trkpt>
      <trkpt lat="45.99619" lon="6.25635">
        <ele>672.7</ele>
      </trkpt>
      <trkpt lat="45.99604" lon="6.25642">
        <ele>674.6</ele>
      </trkpt>
      <trkpt lat="45.99599" lon="6.25648">
        <ele>675.8</ele>
      </trkpt>
      <trkpt lat="45.99596" lon="6.25656">
        <ele>677.3</ele>
      </trkpt>
      <trkpt lat="45.99595" lon="6.25663">
        <ele>678.4</ele>
      </trkpt>
      <trkpt lat="45.99597" lon="6.25673">
        <ele>679.4</ele>
      </trkpt>
      <trkpt lat="45.99605" lon="6.25692">
        <ele>680.6</ele>
      </trkpt>
      <trkpt lat="45.99622" lon="6.25702">
        <ele>680.6</ele>
      </trkpt>
      <trkpt lat="45.99614" lon="6.25699">
        <ele>680.7</ele>
      </trkpt>
      <trkpt lat="45.99666" lon="6.25725">
        <ele>680.7</ele>
      </trkpt>
      <trkpt lat="45.99675" lon="6.25733">
        <ele>681.3</ele>
      </trkpt>
      <trkpt lat="45.99685" lon="6.25751">
        <ele>682.8</ele>
      </trkpt>
      <trkpt lat="45.99687" lon="6.25758">
        <ele>683.3</ele>
      </trkpt>
      <trkpt lat="45.99688" lon="6.25762">
        <ele>683.6</ele>
      </trkpt>
      <trkpt lat="45.99687" lon="6.25775">
        <ele>684.9</ele>
      </trkpt>
      <trkpt lat="45.99684" lon="6.25787">
        <ele>686.1</ele>
      </trkpt>
      <trkpt lat="45.99679" lon="6.25796">
        <ele>687.2</ele>
      </trkpt>
      <trkpt lat="45.99674" lon="6.25803">
        <ele>688.1</ele>
      </trkpt>
      <trkpt lat="45.99654" lon="6.25814">
        <ele>689.6</ele>
      </trkpt>
      <trkpt lat="45.9956" lon="6.25833">
        <ele>691.1</ele>
      </trkpt>
      <trkpt lat="45.99545" lon="6.25844">
        <ele>691.4</ele>
      </trkpt>
      <trkpt lat="45.99489" lon="6.25912">
        <ele>695.1</ele>
      </trkpt>
      <trkpt lat="45.99457" lon="6.25955">
        <ele>698</ele>
      </trkpt>
      <trkpt lat="45.99444" lon="6.25976">
        <ele>699</ele>
      </trkpt>
      <trkpt lat="45.99408" lon="6.26026">
        <ele>700.4</ele>
      </trkpt>
      <trkpt lat="45.99386" lon="6.26047">
        <ele>700.3</ele>
      </trkpt>
      <trkpt lat="45.9933" lon="6.26099">
        <ele>697.9</ele>
      </trkpt>
      <trkpt lat="45.99277" lon="6.26164">
        <ele>697.7</ele>
      </trkpt>
      <trkpt lat="45.99251" lon="6.26195">
        <ele>698.9</ele>
      </trkpt>
      <trkpt lat="45.99192" lon="6.26265">
        <ele>700.6</ele>
      </trkpt>
      <trkpt lat="45.99163" lon="6.26337">
        <ele>703.9</ele>
      </trkpt>
      <trkpt lat="45.9913" lon="6.26423">
        <ele>713.4</ele>
      </trkpt>
      <trkpt lat="45.99106" lon="6.26469">
        <ele>720.9</ele>
      </trkpt>
      <trkpt lat="45.99065" lon="6.265">
        <ele>721.2</ele>
      </trkpt>
      <trkpt lat="45.99031" lon="6.26515">
        <ele>724.2</ele>
      </trkpt>
      <trkpt lat="45.99017" lon="6.26518">
        <ele>724.3</ele>
      </trkpt>
      <trkpt lat="45.9897" lon="6.26544">
        <ele>720.3</ele>
      </trkpt>
      <trkpt lat="45.98943" lon="6.2658">
        <ele>721.9</ele>
      </trkpt>
      <trkpt lat="45.9892" lon="6.26665">
        <ele>734.6</ele>
      </trkpt>
      <trkpt lat="45.98891" lon="6.26707">
        <ele>725.4</ele>
      </trkpt>
      <trkpt lat="45.98886" lon="6.26743">
        <ele>731</ele>
      </trkpt>
      <trkpt lat="45.98888" lon="6.26785">
        <ele>737.6</ele>
      </trkpt>
      <trkpt lat="45.98874" lon="6.26879">
        <ele>736.7</ele>
      </trkpt>
      <trkpt lat="45.98873" lon="6.26882">
        <ele>736.4</ele>
      </trkpt>
      <trkpt lat="45.98835" lon="6.26984">
        <ele>736.9</ele>
      </trkpt>
      <trkpt lat="45.98803" lon="6.27099">
        <ele>743.5</ele>
      </trkpt>
      <trkpt lat="45.98736" lon="6.27281">
        <ele>749</ele>
      </trkpt>
      <trkpt lat="45.98704" lon="6.27344">
        <ele>747.8</ele>
      </trkpt>
      <trkpt lat="45.98686" lon="6.27373">
        <ele>748.4</ele>
      </trkpt>
      <trkpt lat="45.98666" lon="6.27398">
        <ele>745.2</ele>
      </trkpt>
      <trkpt lat="45.9864" lon="6.27442">
        <ele>746.8</ele>
      </trkpt>
      <trkpt lat="45.98616" lon="6.27493">
        <ele>747.5</ele>
      </trkpt>
      <trkpt lat="45.98601" lon="6.27578">
        <ele>750.3</ele>
      </trkpt>
      <trkpt lat="45.9859" lon="6.27619">
        <ele>746.8</ele>
      </trkpt>
      <trkpt lat="45.98586" lon="6.27643">
        <ele>745.6</ele>
      </trkpt>
      <trkpt lat="45.98584" lon="6.27664">
        <ele>745.2</ele>
      </trkpt>
      <trkpt lat="45.98586" lon="6.2769">
        <ele>747</ele>
      </trkpt>
      <trkpt lat="45.98586" lon="6.27707">
        <ele>747.6</ele>
      </trkpt>
      <trkpt lat="45.98589" lon="6.27774">
        <ele>753.6</ele>
      </trkpt>
      <trkpt lat="45.98589" lon="6.27786">
        <ele>755.2</ele>
      </trkpt>
      <trkpt lat="45.98589" lon="6.27793">
        <ele>756.1</ele>
      </trkpt>
      <trkpt lat="45.98587" lon="6.27809">
        <ele>757.4</ele>
      </trkpt>
      <trkpt lat="45.98586" lon="6.27812">
        <ele>757.4</ele>
      </trkpt>
      <trkpt lat="45.98582" lon="6.27826">
        <ele>757.9</ele>
      </trkpt>
      <trkpt lat="45.98574" lon="6.2784">
        <ele>758.6</ele>
      </trkpt>
      <trkpt lat="45.98563" lon="6.27851">
        <ele>758.6</ele>
      </trkpt>
      <trkpt lat="45.98553" lon="6.27859">
        <ele>758.4</ele>
      </trkpt>
      <trkpt lat="45.98547" lon="6.27861">
        <ele>757.9</ele>
      </trkpt>
      <trkpt lat="45.9854" lon="6.27863">
        <ele>757.2</ele>
      </trkpt>
      <trkpt lat="45.98514" lon="6.27873">
        <ele>755.1</ele>
      </trkpt>
      <trkpt lat="45.985" lon="6.27884">
        <ele>754.7</ele>
      </trkpt>
      <trkpt lat="45.98486" lon="6.27899">
        <ele>755.6</ele>
      </trkpt>
      <trkpt lat="45.98473" lon="6.27915">
        <ele>756.5</ele>
      </trkpt>
      <trkpt lat="45.98439" lon="6.27976">
        <ele>757.5</ele>
      </trkpt>
      <trkpt lat="45.98428" lon="6.27996">
        <ele>756.8</ele>
      </trkpt>
      <trkpt lat="45.98423" lon="6.28004">
        <ele>756.3</ele>
      </trkpt>
      <trkpt lat="45.98414" lon="6.28026">
        <ele>755.9</ele>
      </trkpt>
      <trkpt lat="45.9841" lon="6.2804">
        <ele>756</ele>
      </trkpt>
      <trkpt lat="45.98407" lon="6.28056">
        <ele>756.4</ele>
      </trkpt>
      <trkpt lat="45.98406" lon="6.28113">
        <ele>759.9</ele>
      </trkpt>
      <trkpt lat="45.98405" lon="6.28119">
        <ele>760.2</ele>
      </trkpt>
      <trkpt lat="45.98404" lon="6.28127">
        <ele>760.7</ele>
      </trkpt>
      <trkpt lat="45.98401" lon="6.28141">
        <ele>761.4</ele>
      </trkpt>
      <trkpt lat="45.98388" lon="6.28166">
        <ele>761.9</ele>
      </trkpt>
      <trkpt lat="45.98353" lon="6.28202">
        <ele>765.2</ele>
      </trkpt>
      <trkpt lat="45.98351" lon="6.28203">
        <ele>765.2</ele>
      </trkpt>
      <trkpt lat="45.98327" lon="6.28219">
        <ele>765.8</ele>
      </trkpt>
      <trkpt lat="45.98292" lon="6.28247">
        <ele>766.5</ele>
      </trkpt>
      <trkpt lat="45.98244" lon="6.28262">
        <ele>764.3</ele>
      </trkpt>
      <trkpt lat="45.98186" lon="6.28308">
        <ele>769.9</ele>
      </trkpt>
      <trkpt lat="45.98167" lon="6.28316">
        <ele>768.7</ele>
      </trkpt>
      <trkpt lat="45.98137" lon="6.2832">
        <ele>767.9</ele>
      </trkpt>
      <trkpt lat="45.98072" lon="6.28308">
        <ele>762.7</ele>
      </trkpt>
      <trkpt lat="45.98056" lon="6.28309">
        <ele>761.8</ele>
      </trkpt>
      <trkpt lat="45.98041" lon="6.28314">
        <ele>761.5</ele>
      </trkpt>
      <trkpt lat="45.98017" lon="6.28331">
        <ele>762</ele>
      </trkpt>
      <trkpt lat="45.97963" lon="6.28376">
        <ele>764.5</ele>
      </trkpt>
      <trkpt lat="45.97925" lon="6.28401">
        <ele>765.3</ele>
      </trkpt>
      <trkpt lat="45.97853" lon="6.28444">
        <ele>764.7</ele>
      </trkpt>
      <trkpt lat="45.97823" lon="6.28469">
        <ele>764.7</ele>
      </trkpt>
      <trkpt lat="45.97813" lon="6.2848">
        <ele>764.9</ele>
      </trkpt>
      <trkpt lat="45.97807" lon="6.28486">
        <ele>765</ele>
      </trkpt>
      <trkpt lat="45.97797" lon="6.28501">
        <ele>765.6</ele>
      </trkpt>
      <trkpt lat="45.97784" lon="6.28526">
        <ele>767</ele>
      </trkpt>
      <trkpt lat="45.97778" lon="6.28538">
        <ele>767.6</ele>
      </trkpt>
      <trkpt lat="45.97749" lon="6.28592">
        <ele>769.6</ele>
      </trkpt>
      <trkpt lat="45.9774" lon="6.28608">
        <ele>769.7</ele>
      </trkpt>
      <trkpt lat="45.97735" lon="6.28619">
        <ele>770.1</ele>
      </trkpt>
      <trkpt lat="45.97726" lon="6.28634">
        <ele>770.3</ele>
      </trkpt>
      <trkpt lat="45.97716" lon="6.28647">
        <ele>770.4</ele>
      </trkpt>
      <trkpt lat="45.97691" lon="6.28664">
        <ele>769.3</ele>
      </trkpt>
      <trkpt lat="45.97685" lon="6.28668">
        <ele>769.2</ele>
      </trkpt>
      <trkpt lat="45.97676" lon="6.28674">
        <ele>769.2</ele>
      </trkpt>
      <trkpt lat="45.97672" lon="6.28676">
        <ele>769.1</ele>
      </trkpt>
      <trkpt lat="45.97653" lon="6.28686">
        <ele>769.6</ele>
      </trkpt>
      <trkpt lat="45.9763" lon="6.28697">
        <ele>770.2</ele>
      </trkpt>
      <trkpt lat="45.97568" lon="6.28716">
        <ele>769.5</ele>
      </trkpt>
      <trkpt lat="45.9755" lon="6.28722">
        <ele>769.1</ele>
      </trkpt>
      <trkpt lat="45.97522" lon="6.28737">
        <ele>769.8</ele>
      </trkpt>
      <trkpt lat="45.97464" lon="6.28775">
        <ele>771.9</ele>
      </trkpt>
      <trkpt lat="45.97451" lon="6.28786">
        <ele>772.5</ele>
      </trkpt>
      <trkpt lat="45.97439" lon="6.28804">
        <ele>774.3</ele>
      </trkpt>
      <trkpt lat="45.97417" lon="6.28847">
        <ele>780</ele>
      </trkpt>
      <trkpt lat="45.9741" lon="6.28854">
        <ele>780.8</ele>
      </trkpt>
      <trkpt lat="45.9737" lon="6.28871">
        <ele>780.9</ele>
      </trkpt>
      <trkpt lat="45.97364" lon="6.28877">
        <ele>781.7</ele>
      </trkpt>
      <trkpt lat="45.97337" lon="6.28922">
        <ele>789.8</ele>
      </trkpt>
      <trkpt lat="45.97285" lon="6.28977">
        <ele>798.6</ele>
      </trkpt>
      <trkpt lat="45.97272" lon="6.28988">
        <ele>799.8</ele>
      </trkpt>
      <trkpt lat="45.97256" lon="6.28994">
        <ele>799.2</ele>
      </trkpt>
      <trkpt lat="45.97234" lon="6.28996">
        <ele>795.5</ele>
      </trkpt>
      <trkpt lat="45.97227" lon="6.28998">
        <ele>794.5</ele>
      </trkpt>
      <trkpt lat="45.97223" lon="6.29003">
        <ele>794.8</ele>
      </trkpt>
      <trkpt lat="45.97221" lon="6.29012">
        <ele>796.2</ele>
      </trkpt>
      <trkpt lat="45.97224" lon="6.2902">
        <ele>798.4</ele>
      </trkpt>
      <trkpt lat="45.97227" lon="6.29023">
        <ele>799.6</ele>
      </trkpt>
      <trkpt lat="45.97234" lon="6.29023">
        <ele>801</ele>
      </trkpt>
      <trkpt lat="45.97257" lon="6.29017">
        <ele>804.2</ele>
      </trkpt>
      <trkpt lat="45.97268" lon="6.29015">
        <ele>805.7</ele>
      </trkpt>
      <trkpt lat="45.97276" lon="6.29017">
        <ele>807.4</ele>
      </trkpt>
      <trkpt lat="45.97294" lon="6.29023">
        <ele>811.9</ele>
      </trkpt>
      <trkpt lat="45.9733" lon="6.29022">
        <ele>818</ele>
      </trkpt>
      <trkpt lat="45.97343" lon="6.29021">
        <ele>818.6</ele>
      </trkpt>
      <trkpt lat="45.97369" lon="6.29025">
        <ele>820.8</ele>
      </trkpt>
      <trkpt lat="45.9744" lon="6.29055">
        <ele>834</ele>
      </trkpt>
      <trkpt lat="45.97452" lon="6.29057">
        <ele>835.9</ele>
      </trkpt>
      <trkpt lat="45.97478" lon="6.29053">
        <ele>837.5</ele>
      </trkpt>
      <trkpt lat="45.97501" lon="6.29042">
        <ele>836.7</ele>
      </trkpt>
      <trkpt lat="45.97529" lon="6.29036">
        <ele>838.2</ele>
      </trkpt>
      <trkpt lat="45.97589" lon="6.29034">
        <ele>843.6</ele>
      </trkpt>
      <trkpt lat="45.97602" lon="6.29037">
        <ele>844.6</ele>
      </trkpt>
      <trkpt lat="45.97631" lon="6.2906">
        <ele>853.3</ele>
      </trkpt>
      <trkpt lat="45.97645" lon="6.29065">
        <ele>854.8</ele>
      </trkpt>
      <trkpt lat="45.97657" lon="6.29063">
        <ele>853.5</ele>
      </trkpt>
      <trkpt lat="45.97665" lon="6.29066">
        <ele>854.4</ele>
      </trkpt>
      <trkpt lat="45.9767" lon="6.29071">
        <ele>856.2</ele>
      </trkpt>
      <trkpt lat="45.97672" lon="6.29078">
        <ele>858.9</ele>
      </trkpt>
      <trkpt lat="45.97672" lon="6.29084">
        <ele>861.2</ele>
      </trkpt>
      <trkpt lat="45.97669" lon="6.29089">
        <ele>863.5</ele>
      </trkpt>
      <trkpt lat="45.97663" lon="6.29092">
        <ele>865.1</ele>
      </trkpt>
      <trkpt lat="45.97651" lon="6.29091">
        <ele>865.2</ele>
      </trkpt>
      <trkpt lat="45.97611" lon="6.2908">
        <ele>862.3</ele>
      </trkpt>
      <trkpt lat="45.97602" lon="6.29079">
        <ele>862.3</ele>
      </trkpt>
      <trkpt lat="45.97592" lon="6.29082">
        <ele>864</ele>
      </trkpt>
      <trkpt lat="45.97444" lon="6.29185">
        <ele>883.3</ele>
      </trkpt>
      <trkpt lat="45.974" lon="6.29198">
        <ele>881.3</ele>
      </trkpt>
      <trkpt lat="45.97385" lon="6.29205">
        <ele>882.7</ele>
      </trkpt>
      <trkpt lat="45.97239" lon="6.29331">
        <ele>910.1</ele>
      </trkpt>
      <trkpt lat="45.972" lon="6.29358">
        <ele>914.2</ele>
      </trkpt>
      <trkpt lat="45.97154" lon="6.29385">
        <ele>914.7</ele>
      </trkpt>
      <trkpt lat="45.97121" lon="6.29413">
        <ele>914.4</ele>
      </trkpt>
      <trkpt lat="45.97096" lon="6.29444">
        <ele>915.5</ele>
      </trkpt>
      <trkpt lat="45.97089" lon="6.29457">
        <ele>917</ele>
      </trkpt>
      <trkpt lat="45.97079" lon="6.29491">
        <ele>924.3</ele>
      </trkpt>
      <trkpt lat="45.97058" lon="6.29522">
        <ele>923.6</ele>
      </trkpt>
      <trkpt lat="45.97027" lon="6.2958">
        <ele>925.4</ele>
      </trkpt>
      <trkpt lat="45.97022" lon="6.29593">
        <ele>925.9</ele>
      </trkpt>
      <trkpt lat="45.96998" lon="6.29663">
        <ele>928.9</ele>
      </trkpt>
      <trkpt lat="45.96984" lon="6.29707">
        <ele>938.5</ele>
      </trkpt>
      <trkpt lat="45.96981" lon="6.29731">
        <ele>944.4</ele>
      </trkpt>
      <trkpt lat="45.96986" lon="6.29774">
        <ele>954.9</ele>
      </trkpt>
      <trkpt lat="45.96979" lon="6.29808">
        <ele>960.6</ele>
      </trkpt>
      <trkpt lat="45.96979" lon="6.29857">
        <ele>968.3</ele>
      </trkpt>
      <trkpt lat="45.96978" lon="6.29874">
        <ele>969.9</ele>
      </trkpt>
      <trkpt lat="45.96976" lon="6.29879">
        <ele>970.1</ele>
      </trkpt>
      <trkpt lat="45.96974" lon="6.29883">
        <ele>970.2</ele>
      </trkpt>
      <trkpt lat="45.96972" lon="6.29887">
        <ele>970.3</ele>
      </trkpt>
      <trkpt lat="45.96969" lon="6.29891">
        <ele>970.2</ele>
      </trkpt>
      <trkpt lat="45.96966" lon="6.29895">
        <ele>970.2</ele>
      </trkpt>
      <trkpt lat="45.96956" lon="6.29902">
        <ele>969.4</ele>
      </trkpt>
      <trkpt lat="45.96939" lon="6.29904">
        <ele>966.8</ele>
      </trkpt>
      <trkpt lat="45.96919" lon="6.29903">
        <ele>963.4</ele>
      </trkpt>
      <trkpt lat="45.96903" lon="6.29904">
        <ele>968.5</ele>
      </trkpt>
      <trkpt lat="45.96892" lon="6.29902">
        <ele>972.6</ele>
      </trkpt>
      <trkpt lat="45.96879" lon="6.29898">
        <ele>977</ele>
      </trkpt>
      <trkpt lat="45.96868" lon="6.29889">
        <ele>979.9</ele>
      </trkpt>
      <trkpt lat="45.9686" lon="6.29882">
        <ele>981.9</ele>
      </trkpt>
      <trkpt lat="45.9685" lon="6.29869">
        <ele>983.6</ele>
      </trkpt>
      <trkpt lat="45.96834" lon="6.2984">
        <ele>984.9</ele>
      </trkpt>
      <trkpt lat="45.96829" lon="6.29833">
        <ele>986.6</ele>
      </trkpt>
      <trkpt lat="45.96819" lon="6.29828">
        <ele>991.8</ele>
      </trkpt>
      <trkpt lat="45.96807" lon="6.2982">
        <ele>997.7</ele>
      </trkpt>
      <trkpt lat="45.96801" lon="6.29814">
        <ele>1000.3</ele>
      </trkpt>
      <trkpt lat="45.96796" lon="6.29797">
        <ele>1000.3</ele>
      </trkpt>
      <trkpt lat="45.96794" lon="6.29768">
        <ele>996.3</ele>
      </trkpt>
      <trkpt lat="45.96779" lon="6.297">
        <ele>999.2</ele>
      </trkpt>
      <trkpt lat="45.96765" lon="6.29652">
        <ele>1004.9</ele>
      </trkpt>
      <trkpt lat="45.96763" lon="6.29637">
        <ele>1004.5</ele>
      </trkpt>
      <trkpt lat="45.96761" lon="6.296">
        <ele>1001.4</ele>
      </trkpt>
      <trkpt lat="45.96758" lon="6.29589">
        <ele>1002.4</ele>
      </trkpt>
      <trkpt lat="45.96739" lon="6.29557">
        <ele>1005.7</ele>
      </trkpt>
      <trkpt lat="45.96727" lon="6.29533">
        <ele>1003.5</ele>
      </trkpt>
      <trkpt lat="45.96718" lon="6.29519">
        <ele>1002.5</ele>
      </trkpt>
      <trkpt lat="45.96675" lon="6.29485">
        <ele>1003.6</ele>
      </trkpt>
      <trkpt lat="45.96644" lon="6.29469">
        <ele>1002.4</ele>
      </trkpt>
      <trkpt lat="45.96616" lon="6.29465">
        <ele>1006.3</ele>
      </trkpt>
      <trkpt lat="45.9656" lon="6.29473">
        <ele>1022.3</ele>
      </trkpt>
      <trkpt lat="45.96547" lon="6.29466">
        <ele>1021.8</ele>
      </trkpt>
      <trkpt lat="45.96528" lon="6.29452">
        <ele>1019.8</ele>
      </trkpt>
      <trkpt lat="45.96514" lon="6.29445">
        <ele>1020.2</ele>
      </trkpt>
      <trkpt lat="45.96498" lon="6.29441">
        <ele>1022.2</ele>
      </trkpt>
      <trkpt lat="45.96484" lon="6.29442">
        <ele>1024.8</ele>
      </trkpt>
      <trkpt lat="45.96477" lon="6.29446">
        <ele>1027.5</ele>
      </trkpt>
      <trkpt lat="45.9647" lon="6.29453">
        <ele>1031.5</ele>
      </trkpt>
      <trkpt lat="45.96469" lon="6.29459">
        <ele>1034.1</ele>
      </trkpt>
      <trkpt lat="45.96471" lon="6.29467">
        <ele>1037.1</ele>
      </trkpt>
      <trkpt lat="45.96474" lon="6.29472">
        <ele>1038.7</ele>
      </trkpt>
      <trkpt lat="45.96479" lon="6.29473">
        <ele>1038.3</ele>
      </trkpt>
      <trkpt lat="45.96489" lon="6.29468">
        <ele>1034.7</ele>
      </trkpt>
      <trkpt lat="45.96506" lon="6.29466">
        <ele>1030.8</ele>
      </trkpt>
      <trkpt lat="45.96513" lon="6.29468">
        <ele>1030.1</ele>
      </trkpt>
      <trkpt lat="45.96519" lon="6.29473">
        <ele>1031</ele>
      </trkpt>
      <trkpt lat="45.96526" lon="6.29483">
        <ele>1033.9</ele>
      </trkpt>
      <trkpt lat="45.96534" lon="6.29505">
        <ele>1041.9</ele>
      </trkpt>
      <trkpt lat="45.96545" lon="6.29517">
        <ele>1045.1</ele>
      </trkpt>
      <trkpt lat="45.96598" lon="6.2952">
        <ele>1037.7</ele>
      </trkpt>
      <trkpt lat="45.96611" lon="6.29523">
        <ele>1036.5</ele>
      </trkpt>
      <trkpt lat="45.96626" lon="6.29531">
        <ele>1037.1</ele>
      </trkpt>
      <trkpt lat="45.96649" lon="6.29552">
        <ele>1041.9</ele>
      </trkpt>
      <trkpt lat="45.96675" lon="6.29583">
        <ele>1047.5</ele>
      </trkpt>
      <trkpt lat="45.96679" lon="6.29592">
        <ele>1047</ele>
      </trkpt>
      <trkpt lat="45.96679" lon="6.29599">
        <ele>1048.3</ele>
      </trkpt>
      <trkpt lat="45.96677" lon="6.29606">
        <ele>1050.7</ele>
      </trkpt>
      <trkpt lat="45.96674" lon="6.29609">
        <ele>1052.9</ele>
      </trkpt>
      <trkpt lat="45.9667" lon="6.2961">
        <ele>1055.3</ele>
      </trkpt>
      <trkpt lat="45.96665" lon="6.29605">
        <ele>1056.6</ele>
      </trkpt>
      <trkpt lat="45.96653" lon="6.29581">
        <ele>1054.1</ele>
      </trkpt>
      <trkpt lat="45.96639" lon="6.29566">
        <ele>1050.4</ele>
      </trkpt>
      <trkpt lat="45.96631" lon="6.29561">
        <ele>1049.9</ele>
      </trkpt>
      <trkpt lat="45.96612" lon="6.29556">
        <ele>1051.7</ele>
      </trkpt>
      <trkpt lat="45.9659" lon="6.29561">
        <ele>1058.8</ele>
      </trkpt>
      <trkpt lat="45.96532" lon="6.29591">
        <ele>1077.6</ele>
      </trkpt>
      <trkpt lat="45.9651" lon="6.29593">
        <ele>1080</ele>
      </trkpt>
      <trkpt lat="45.96471" lon="6.29585">
        <ele>1083.4</ele>
      </trkpt>
      <trkpt lat="45.9645" lon="6.29574">
        <ele>1083.7</ele>
      </trkpt>
      <trkpt lat="45.96437" lon="6.2957">
        <ele>1085</ele>
      </trkpt>
      <trkpt lat="45.96413" lon="6.29574">
        <ele>1091.7</ele>
      </trkpt>
      <trkpt lat="45.96386" lon="6.29571">
        <ele>1095</ele>
      </trkpt>
      <trkpt lat="45.9634" lon="6.29548">
        <ele>1091.2</ele>
      </trkpt>
      <trkpt lat="45.9633" lon="6.29545">
        <ele>1090.2</ele>
      </trkpt>
      <trkpt lat="45.96304" lon="6.29548">
        <ele>1087.6</ele>
      </trkpt>
      <trkpt lat="45.96276" lon="6.29555">
        <ele>1085.9</ele>
      </trkpt>
      <trkpt lat="45.96267" lon="6.2956">
        <ele>1086.2</ele>
      </trkpt>
      <trkpt lat="45.9626" lon="6.29569">
        <ele>1088.2</ele>
      </trkpt>
      <trkpt lat="45.96258" lon="6.29581">
        <ele>1092</ele>
      </trkpt>
      <trkpt lat="45.9626" lon="6.29587">
        <ele>1094.1</ele>
      </trkpt>
      <trkpt lat="45.96265" lon="6.29589">
        <ele>1095.8</ele>
      </trkpt>
      <trkpt lat="45.9629" lon="6.29578">
        <ele>1097.9</ele>
      </trkpt>
      <trkpt lat="45.96303" lon="6.29579">
        <ele>1101.2</ele>
      </trkpt>
      <trkpt lat="45.96311" lon="6.29584">
        <ele>1105.1</ele>
      </trkpt>
      <trkpt lat="45.96385" lon="6.29642">
        <ele>1126.7</ele>
      </trkpt>
      <trkpt lat="45.96394" lon="6.29647">
        <ele>1128</ele>
      </trkpt>
      <trkpt lat="45.9641" lon="6.29651">
        <ele>1128.2</ele>
      </trkpt>
      <trkpt lat="45.9642" lon="6.29657">
        <ele>1129.6</ele>
      </trkpt>
      <trkpt lat="45.96448" lon="6.29677">
        <ele>1132.4</ele>
      </trkpt>
      <trkpt lat="45.96468" lon="6.29705">
        <ele>1139.2</ele>
      </trkpt>
      <trkpt lat="45.96475" lon="6.2971">
        <ele>1139.5</ele>
      </trkpt>
      <trkpt lat="45.96512" lon="6.29712">
        <ele>1131.9</ele>
      </trkpt>
      <trkpt lat="45.96518" lon="6.29715">
        <ele>1131.7</ele>
      </trkpt>
      <trkpt lat="45.96523" lon="6.2972">
        <ele>1132.5</ele>
      </trkpt>
      <trkpt lat="45.96528" lon="6.29728">
        <ele>1134.2</ele>
      </trkpt>
      <trkpt lat="45.96544" lon="6.29768">
        <ele>1142.9</ele>
      </trkpt>
      <trkpt lat="45.96581" lon="6.29824">
        <ele>1148.2</ele>
      </trkpt>
      <trkpt lat="45.96591" lon="6.29847">
        <ele>1148.2</ele>
      </trkpt>
      <trkpt lat="45.96597" lon="6.29875">
        <ele>1150.7</ele>
      </trkpt>
      <trkpt lat="45.96608" lon="6.29943">
        <ele>1157.2</ele>
      </trkpt>
      <trkpt lat="45.96611" lon="6.29989">
        <ele>1162.4</ele>
      </trkpt>
      <trkpt lat="45.96614" lon="6.30013">
        <ele>1165.4</ele>
      </trkpt>
      <trkpt lat="45.96617" lon="6.30022">
        <ele>1165.8</ele>
      </trkpt>
      <trkpt lat="45.96631" lon="6.30044">
        <ele>1162.5</ele>
      </trkpt>
      <trkpt lat="45.96631" lon="6.30051">
        <ele>1164.4</ele>
      </trkpt>
      <trkpt lat="45.9663" lon="6.30055">
        <ele>1166.1</ele>
      </trkpt>
      <trkpt lat="45.9662" lon="6.30057">
        <ele>1173.1</ele>
      </trkpt>
      <trkpt lat="45.96616" lon="6.30052">
        <ele>1174.4</ele>
      </trkpt>
      <trkpt lat="45.96612" lon="6.30045">
        <ele>1175.1</ele>
      </trkpt>
      <trkpt lat="45.96607" lon="6.30034">
        <ele>1175.6</ele>
      </trkpt>
      <trkpt lat="45.96602" lon="6.30011">
        <ele>1173</ele>
      </trkpt>
      <trkpt lat="45.96595" lon="6.29959">
        <ele>1168.3</ele>
      </trkpt>
      <trkpt lat="45.96588" lon="6.29942">
        <ele>1170.2</ele>
      </trkpt>
      <trkpt lat="45.96567" lon="6.29904">
        <ele>1171.1</ele>
      </trkpt>
      <trkpt lat="45.9655" lon="6.29888">
        <ele>1172.5</ele>
      </trkpt>
      <trkpt lat="45.96539" lon="6.29878">
        <ele>1173.3</ele>
      </trkpt>
      <trkpt lat="45.96519" lon="6.29866">
        <ele>1176.1</ele>
      </trkpt>
      <trkpt lat="45.96496" lon="6.29855">
        <ele>1179.5</ele>
      </trkpt>
      <trkpt lat="45.96449" lon="6.29845">
        <ele>1185.1</ele>
      </trkpt>
      <trkpt lat="45.96422" lon="6.29841">
        <ele>1188.6</ele>
      </trkpt>
      <trkpt lat="45.96394" lon="6.29833">
        <ele>1188.8</ele>
      </trkpt>
      <trkpt lat="45.96366" lon="6.2983">
        <ele>1190.3</ele>
      </trkpt>
      <trkpt lat="45.96335" lon="6.29837">
        <ele>1195.2</ele>
      </trkpt>
      <trkpt lat="45.96327" lon="6.29841">
        <ele>1196</ele>
      </trkpt>
      <trkpt lat="45.96325" lon="6.29853">
        <ele>1200.2</ele>
      </trkpt>
      <trkpt lat="45.96327" lon="6.29859">
        <ele>1202.7</ele>
      </trkpt>
      <trkpt lat="45.96335" lon="6.29863">
        <ele>1204.9</ele>
      </trkpt>
      <trkpt lat="45.96355" lon="6.29852">
        <ele>1198.9</ele>
      </trkpt>
      <trkpt lat="45.96372" lon="6.2985">
        <ele>1196.6</ele>
      </trkpt>
      <trkpt lat="45.96384" lon="6.29855">
        <ele>1197.2</ele>
      </trkpt>
      <trkpt lat="45.96393" lon="6.29863">
        <ele>1199</ele>
      </trkpt>
      <trkpt lat="45.96405" lon="6.29876">
        <ele>1202.1</ele>
      </trkpt>
      <trkpt lat="45.96442" lon="6.29926">
        <ele>1210.6</ele>
      </trkpt>
      <trkpt lat="45.96474" lon="6.29951">
        <ele>1208.9</ele>
      </trkpt>
      <trkpt lat="45.96532" lon="6.30017">
        <ele>1206.4</ele>
      </trkpt>
      <trkpt lat="45.96539" lon="6.30028">
        <ele>1206.9</ele>
      </trkpt>
      <trkpt lat="45.96539" lon="6.30035">
        <ele>1208.9</ele>
      </trkpt>
      <trkpt lat="45.96533" lon="6.30043">
        <ele>1213.6</ele>
      </trkpt>
      <trkpt lat="45.96527" lon="6.30044">
        <ele>1216.3</ele>
      </trkpt>
      <trkpt lat="45.96522" lon="6.30041">
        <ele>1217.5</ele>
      </trkpt>
      <trkpt lat="45.96502" lon="6.30014">
        <ele>1216.8</ele>
      </trkpt>
      <trkpt lat="45.96494" lon="6.30005">
        <ele>1216.3</ele>
      </trkpt>
      <trkpt lat="45.96484" lon="6.29999">
        <ele>1217.2</ele>
      </trkpt>
      <trkpt lat="45.96431" lon="6.29993">
        <ele>1230.3</ele>
      </trkpt>
      <trkpt lat="45.9642" lon="6.2999">
        <ele>1232.5</ele>
      </trkpt>
      <trkpt lat="45.96403" lon="6.2998">
        <ele>1234</ele>
      </trkpt>
      <trkpt lat="45.9636" lon="6.29949">
        <ele>1233.2</ele>
      </trkpt>
      <trkpt lat="45.96351" lon="6.29945">
        <ele>1233.4</ele>
      </trkpt>
      <trkpt lat="45.96339" lon="6.29943">
        <ele>1234.7</ele>
      </trkpt>
      <trkpt lat="45.96322" lon="6.29948">
        <ele>1236.2</ele>
      </trkpt>
      <trkpt lat="45.96245" lon="6.29985">
        <ele>1241.2</ele>
      </trkpt>
      <trkpt lat="45.96237" lon="6.29993">
        <ele>1242.8</ele>
      </trkpt>
      <trkpt lat="45.96221" lon="6.30028">
        <ele>1255.2</ele>
      </trkpt>
      <trkpt lat="45.96205" lon="6.30045">
        <ele>1259.2</ele>
      </trkpt>
      <trkpt lat="45.96175" lon="6.30084">
        <ele>1269.5</ele>
      </trkpt>
      <trkpt lat="45.96165" lon="6.30094">
        <ele>1272</ele>
      </trkpt>
      <trkpt lat="45.96156" lon="6.30097">
        <ele>1273.5</ele>
      </trkpt>
      <trkpt lat="45.96148" lon="6.30097">
        <ele>1273.7</ele>
      </trkpt>
      <trkpt lat="45.96122" lon="6.30075">
        <ele>1263.4</ele>
      </trkpt>
      <trkpt lat="45.9611" lon="6.30072">
        <ele>1261.9</ele>
      </trkpt>
      <trkpt lat="45.96102" lon="6.3007">
        <ele>1260.8</ele>
      </trkpt>
      <trkpt lat="45.96083" lon="6.30072">
        <ele>1261.8</ele>
      </trkpt>
      <trkpt lat="45.96069" lon="6.3007">
        <ele>1257</ele>
      </trkpt>
      <trkpt lat="45.96061" lon="6.30073">
        <ele>1256.5</ele>
      </trkpt>
      <trkpt lat="45.96058" lon="6.30075">
        <ele>1256.8</ele>
      </trkpt>
      <trkpt lat="45.96056" lon="6.3008">
        <ele>1259</ele>
      </trkpt>
      <trkpt lat="45.96057" lon="6.30087">
        <ele>1262.8</ele>
      </trkpt>
      <trkpt lat="45.96064" lon="6.30093">
        <ele>1267.6</ele>
      </trkpt>
      <trkpt lat="45.96092" lon="6.30088">
        <ele>1270.1</ele>
      </trkpt>
      <trkpt lat="45.96112" lon="6.30092">
        <ele>1271.8</ele>
      </trkpt>
      <trkpt lat="45.96149" lon="6.30136">
        <ele>1292</ele>
      </trkpt>
      <trkpt lat="45.96163" lon="6.30139">
        <ele>1293.1</ele>
      </trkpt>
      <trkpt lat="45.9617" lon="6.30136">
        <ele>1292.5</ele>
      </trkpt>
      <trkpt lat="45.96192" lon="6.30113">
        <ele>1287.4</ele>
      </trkpt>
      <trkpt lat="45.96247" lon="6.30072">
        <ele>1282.8</ele>
      </trkpt>
      <trkpt lat="45.96271" lon="6.30056">
        <ele>1277</ele>
      </trkpt>
      <trkpt lat="45.96296" lon="6.30049">
        <ele>1275.4</ele>
      </trkpt>
      <trkpt lat="45.96305" lon="6.30049">
        <ele>1276</ele>
      </trkpt>
      <trkpt lat="45.96313" lon="6.30053">
        <ele>1278.2</ele>
      </trkpt>
      <trkpt lat="45.96321" lon="6.30061">
        <ele>1281.8</ele>
      </trkpt>
      <trkpt lat="45.9635" lon="6.30103">
        <ele>1293.4</ele>
      </trkpt>
      <trkpt lat="45.9637" lon="6.30155">
        <ele>1306.6</ele>
      </trkpt>
      <trkpt lat="45.96392" lon="6.30193">
        <ele>1312.5</ele>
      </trkpt>
      <trkpt lat="45.96405" lon="6.30211">
        <ele>1314.2</ele>
      </trkpt>
      <trkpt lat="45.96435" lon="6.30232">
        <ele>1311.1</ele>
      </trkpt>
      <trkpt lat="45.96464" lon="6.30257">
        <ele>1310.2</ele>
      </trkpt>
      <trkpt lat="45.96471" lon="6.3027">
        <ele>1312.7</ele>
      </trkpt>
      <trkpt lat="45.9647" lon="6.30284">
        <ele>1318.7</ele>
      </trkpt>
      <trkpt lat="45.96466" lon="6.30288">
        <ele>1321.9</ele>
      </trkpt>
      <trkpt lat="45.96461" lon="6.30288">
        <ele>1323.9</ele>
      </trkpt>
      <trkpt lat="45.96456" lon="6.30286">
        <ele>1325.1</ele>
      </trkpt>
      <trkpt lat="45.96438" lon="6.30263">
        <ele>1322.6</ele>
      </trkpt>
      <trkpt lat="45.96428" lon="6.30257">
        <ele>1323.8</ele>
      </trkpt>
      <trkpt lat="45.96393" lon="6.30246">
        <ele>1333.9</ele>
      </trkpt>
      <trkpt lat="45.96383" lon="6.30239">
        <ele>1335.4</ele>
      </trkpt>
      <trkpt lat="45.96363" lon="6.3022">
        <ele>1336.4</ele>
      </trkpt>
      <trkpt lat="45.96318" lon="6.30168">
        <ele>1327.4</ele>
      </trkpt>
      <trkpt lat="45.96311" lon="6.30163">
        <ele>1325.1</ele>
      </trkpt>
      <trkpt lat="45.96297" lon="6.30161">
        <ele>1324.1</ele>
      </trkpt>
      <trkpt lat="45.96293" lon="6.30163">
        <ele>1324.9</ele>
      </trkpt>
      <trkpt lat="45.96276" lon="6.30187">
        <ele>1335.4</ele>
      </trkpt>
      <trkpt lat="45.96237" lon="6.30222">
        <ele>1348.7</ele>
      </trkpt>
      <trkpt lat="45.96203" lon="6.30265">
        <ele>1363.1</ele>
      </trkpt>
      <trkpt lat="45.96167" lon="6.30289">
        <ele>1367.4</ele>
      </trkpt>
      <trkpt lat="45.96156" lon="6.30294">
        <ele>1369.4</ele>
      </trkpt>
      <trkpt lat="45.96143" lon="6.30294">
        <ele>1369.2</ele>
      </trkpt>
      <trkpt lat="45.96111" lon="6.30285">
        <ele>1365.2</ele>
      </trkpt>
      <trkpt lat="45.96101" lon="6.30285">
        <ele>1365.1</ele>
      </trkpt>
      <trkpt lat="45.96044" lon="6.30301">
        <ele>1361.5</ele>
      </trkpt>
      <trkpt lat="45.96036" lon="6.30306">
        <ele>1361.5</ele>
      </trkpt>
      <trkpt lat="45.9603" lon="6.30315">
        <ele>1363.6</ele>
      </trkpt>
      <trkpt lat="45.96017" lon="6.3034">
        <ele>1368.6</ele>
      </trkpt>
      <trkpt lat="45.95969" lon="6.30392">
        <ele>1370.2</ele>
      </trkpt>
      <trkpt lat="45.95955" lon="6.30412">
        <ele>1372.4</ele>
      </trkpt>
      <trkpt lat="45.95926" lon="6.30476">
        <ele>1394.6</ele>
      </trkpt>
      <trkpt lat="45.95919" lon="6.30486">
        <ele>1398.4</ele>
      </trkpt>
      <trkpt lat="45.95904" lon="6.30494">
        <ele>1401.8</ele>
      </trkpt>
      <trkpt lat="45.95881" lon="6.305">
        <ele>1403.6</ele>
      </trkpt>
      <trkpt lat="45.95848" lon="6.30515">
        <ele>1406.9</ele>
      </trkpt>
      <trkpt lat="45.95841" lon="6.30522">
        <ele>1407.9</ele>
      </trkpt>
      <trkpt lat="45.95827" lon="6.30551">
        <ele>1410.9</ele>
      </trkpt>
      <trkpt lat="45.95809" lon="6.30607">
        <ele>1408.7</ele>
      </trkpt>
      <trkpt lat="45.9579" lon="6.30683">
        <ele>1399.8</ele>
      </trkpt>
      <trkpt lat="45.95783" lon="6.30714">
        <ele>1397.2</ele>
      </trkpt>
      <trkpt lat="45.95776" lon="6.30752">
        <ele>1394</ele>
      </trkpt>
      <trkpt lat="45.95771" lon="6.30798">
        <ele>1391.3</ele>
      </trkpt>
      <trkpt lat="45.95765" lon="6.30894">
        <ele>1386.2</ele>
      </trkpt>
      <trkpt lat="45.95762" lon="6.30911">
        <ele>1382.8</ele>
      </trkpt>
      <trkpt lat="45.95753" lon="6.30946">
        <ele>1378.7</ele>
      </trkpt>
      <trkpt lat="45.95738" lon="6.31034">
        <ele>1383.2</ele>
      </trkpt>
      <trkpt lat="45.95727" lon="6.31063">
        <ele>1381.9</ele>
      </trkpt>
      <trkpt lat="45.95712" lon="6.31098">
        <ele>1379.5</ele>
      </trkpt>
      <trkpt lat="45.95702" lon="6.31136">
        <ele>1379.3</ele>
      </trkpt>
      <trkpt lat="45.9569" lon="6.31209">
        <ele>1377.4</ele>
      </trkpt>
      <trkpt lat="45.9569" lon="6.31227">
        <ele>1377.5</ele>
      </trkpt>
      <trkpt lat="45.95693" lon="6.31248">
        <ele>1379</ele>
      </trkpt>
      <trkpt lat="45.95707" lon="6.31319">
        <ele>1383.2</ele>
      </trkpt>
      <trkpt lat="45.95709" lon="6.31372">
        <ele>1382</ele>
      </trkpt>
      <trkpt lat="45.95718" lon="6.31453">
        <ele>1385.5</ele>
      </trkpt>
      <trkpt lat="45.95715" lon="6.31499">
        <ele>1383.8</ele>
      </trkpt>
      <trkpt lat="45.95718" lon="6.31522">
        <ele>1384</ele>
      </trkpt>
      <trkpt lat="45.95726" lon="6.31547">
        <ele>1387</ele>
      </trkpt>
      <trkpt lat="45.95754" lon="6.3161">
        <ele>1395.9</ele>
      </trkpt>
      <trkpt lat="45.95772" lon="6.31665">
        <ele>1396.6</ele>
      </trkpt>
      <trkpt lat="45.95776" lon="6.31683">
        <ele>1398.3</ele>
      </trkpt>
      <trkpt lat="45.95779" lon="6.31714">
        <ele>1399</ele>
      </trkpt>
      <trkpt lat="45.9579" lon="6.31759">
        <ele>1404.2</ele>
      </trkpt>
      <trkpt lat="45.95795" lon="6.31807">
        <ele>1407.2</ele>
      </trkpt>
      <trkpt lat="45.958" lon="6.31827">
        <ele>1409.4</ele>
      </trkpt>
      <trkpt lat="45.95912" lon="6.32035">
        <ele>1429.4</ele>
      </trkpt>
      <trkpt lat="45.95935" lon="6.32071">
        <ele>1432.6</ele>
      </trkpt>
      <trkpt lat="45.95936" lon="6.32073">
        <ele>1432.6</ele>
      </trkpt>
      <trkpt lat="45.95942" lon="6.3208">
        <ele>1433.7</ele>
      </trkpt>
      <trkpt lat="45.95948" lon="6.32086">
        <ele>1434.8</ele>
      </trkpt>
      <trkpt lat="45.95988" lon="6.32133">
        <ele>1436.6</ele>
      </trkpt>
      <trkpt lat="45.95998" lon="6.32146">
        <ele>1435.2</ele>
      </trkpt>
      <trkpt lat="45.9609" lon="6.32258">
        <ele>1427.4</ele>
      </trkpt>
      <trkpt lat="45.96092" lon="6.3226">
        <ele>1427.3</ele>
      </trkpt>
      <trkpt lat="45.961" lon="6.32272">
        <ele>1426.5</ele>
      </trkpt>
      <trkpt lat="45.96111" lon="6.32288">
        <ele>1425.4</ele>
      </trkpt>
      <trkpt lat="45.9613" lon="6.32313">
        <ele>1424.3</ele>
      </trkpt>
      <trkpt lat="45.96185" lon="6.32403">
        <ele>1421.9</ele>
      </trkpt>
      <trkpt lat="45.96254" lon="6.32524">
        <ele>1428.3</ele>
      </trkpt>
      <trkpt lat="45.96279" lon="6.32575">
        <ele>1430.7</ele>
      </trkpt>
      <trkpt lat="45.96317" lon="6.32642">
        <ele>1434.7</ele>
      </trkpt>
      <trkpt lat="45.9633" lon="6.32663">
        <ele>1435.7</ele>
      </trkpt>
      <trkpt lat="45.96339" lon="6.32677">
        <ele>1436.2</ele>
      </trkpt>
      <trkpt lat="45.96342" lon="6.32683">
        <ele>1436.2</ele>
      </trkpt>
      <trkpt lat="45.96346" lon="6.32689">
        <ele>1436.3</ele>
      </trkpt>
      <trkpt lat="45.96362" lon="6.32717">
        <ele>1435.9</ele>
      </trkpt>
      <trkpt lat="45.96368" lon="6.32726">
        <ele>1435.6</ele>
      </trkpt>
      <trkpt lat="45.96381" lon="6.3275">
        <ele>1434</ele>
      </trkpt>
      <trkpt lat="45.96386" lon="6.32757">
        <ele>1434.1</ele>
      </trkpt>
      <trkpt lat="45.9639" lon="6.32765">
        <ele>1434.1</ele>
      </trkpt>
      <trkpt lat="45.96445" lon="6.32854">
        <ele>1437.7</ele>
      </trkpt>
      <trkpt lat="45.96485" lon="6.3291">
        <ele>1436.3</ele>
      </trkpt>
      <trkpt lat="45.96519" lon="6.32962">
        <ele>1438.8</ele>
      </trkpt>
      <trkpt lat="45.96542" lon="6.33003">
        <ele>1439.8</ele>
      </trkpt>
      <trkpt lat="45.96559" lon="6.33031">
        <ele>1440.9</ele>
      </trkpt>
      <trkpt lat="45.96588" lon="6.33082">
        <ele>1441</ele>
      </trkpt>
      <trkpt lat="45.96592" lon="6.33087">
        <ele>1441.4</ele>
      </trkpt>
      <trkpt lat="45.96615" lon="6.33127">
        <ele>1442.9</ele>
      </trkpt>
      <trkpt lat="45.96618" lon="6.33133">
        <ele>1442.9</ele>
      </trkpt>
      <trkpt lat="45.96634" lon="6.33159">
        <ele>1443.5</ele>
      </trkpt>
      <trkpt lat="45.96665" lon="6.33213">
        <ele>1443.8</ele>
      </trkpt>
      <trkpt lat="45.96669" lon="6.33219">
        <ele>1443.8</ele>
      </trkpt>
      <trkpt lat="45.9667" lon="6.33221">
        <ele>1443.8</ele>
      </trkpt>
      <trkpt lat="45.96675" lon="6.33226">
        <ele>1443.8</ele>
      </trkpt>
      <trkpt lat="45.96719" lon="6.33284">
        <ele>1440.9</ele>
      </trkpt>
      <trkpt lat="45.9673" lon="6.33297">
        <ele>1440.5</ele>
      </trkpt>
      <trkpt lat="45.96779" lon="6.33368">
        <ele>1435.5</ele>
      </trkpt>
      <trkpt lat="45.96816" lon="6.33413">
        <ele>1429.3</ele>
      </trkpt>
      <trkpt lat="45.96831" lon="6.33436">
        <ele>1427.5</ele>
      </trkpt>
      <trkpt lat="45.96861" lon="6.33469">
        <ele>1427.6</ele>
      </trkpt>
      <trkpt lat="45.96895" lon="6.33513">
        <ele>1425.1</ele>
      </trkpt>
      <trkpt lat="45.96905" lon="6.33528">
        <ele>1423.7</ele>
      </trkpt>
      <trkpt lat="45.96923" lon="6.33565">
        <ele>1420.4</ele>
      </trkpt>
      <trkpt lat="45.9695" lon="6.336">
        <ele>1420.7</ele>
      </trkpt>
      <trkpt lat="45.96956" lon="6.33612">
        <ele>1420.9</ele>
      </trkpt>
      <trkpt lat="45.96978" lon="6.33678">
        <ele>1419.3</ele>
      </trkpt>
      <trkpt lat="45.96989" lon="6.33721">
        <ele>1416.9</ele>
      </trkpt>
      <trkpt lat="45.97007" lon="6.33764">
        <ele>1414.6</ele>
      </trkpt>
      <trkpt lat="45.97041" lon="6.33883">
        <ele>1409.5</ele>
      </trkpt>
      <trkpt lat="45.97046" lon="6.3391">
        <ele>1407.8</ele>
      </trkpt>
      <trkpt lat="45.97054" lon="6.33946">
        <ele>1404.8</ele>
      </trkpt>
      <trkpt lat="45.97061" lon="6.33966">
        <ele>1403</ele>
      </trkpt>
      <trkpt lat="45.97069" lon="6.34002">
        <ele>1399.9</ele>
      </trkpt>
      <trkpt lat="45.97068" lon="6.34013">
        <ele>1399.9</ele>
      </trkpt>
      <trkpt lat="45.97061" lon="6.34051">
        <ele>1400.3</ele>
      </trkpt>
      <trkpt lat="45.97061" lon="6.34056">
        <ele>1400.3</ele>
      </trkpt>
      <trkpt lat="45.9707" lon="6.34085">
        <ele>1399.8</ele>
      </trkpt>
      <trkpt lat="45.97101" lon="6.34151">
        <ele>1400.1</ele>
      </trkpt>
      <trkpt lat="45.97111" lon="6.34188">
        <ele>1400.3</ele>
      </trkpt>
      <trkpt lat="45.97129" lon="6.34245">
        <ele>1399.7</ele>
      </trkpt>
      <trkpt lat="45.97151" lon="6.34303">
        <ele>1396</ele>
      </trkpt>
      <trkpt lat="45.97162" lon="6.34353">
        <ele>1393.7</ele>
      </trkpt>
      <trkpt lat="45.97174" lon="6.34382">
        <ele>1392.8</ele>
      </trkpt>
      <trkpt lat="45.97188" lon="6.34408">
        <ele>1392.2</ele>
      </trkpt>
      <trkpt lat="45.97191" lon="6.34418">
        <ele>1392</ele>
      </trkpt>
      <trkpt lat="45.97191" lon="6.34441">
        <ele>1391.2</ele>
      </trkpt>
      <trkpt lat="45.97182" lon="6.34496">
        <ele>1389.7</ele>
      </trkpt>
      <trkpt lat="45.97183" lon="6.34522">
        <ele>1390</ele>
      </trkpt>
      <trkpt lat="45.97184" lon="6.34527">
        <ele>1390</ele>
      </trkpt>
      <trkpt lat="45.97209" lon="6.34581">
        <ele>1389.4</ele>
      </trkpt>
      <trkpt lat="45.97212" lon="6.34591">
        <ele>1389.3</ele>
      </trkpt>
      <trkpt lat="45.97214" lon="6.34599">
        <ele>1389.2</ele>
      </trkpt>
      <trkpt lat="45.97216" lon="6.34604">
        <ele>1389.1</ele>
      </trkpt>
      <trkpt lat="45.97221" lon="6.34649">
        <ele>1389</ele>
      </trkpt>
      <trkpt lat="45.97235" lon="6.34694">
        <ele>1388.2</ele>
      </trkpt>
      <trkpt lat="45.9726" lon="6.34747">
        <ele>1387.2</ele>
      </trkpt>
      <trkpt lat="45.97284" lon="6.34785">
        <ele>1388.1</ele>
      </trkpt>
      <trkpt lat="45.97309" lon="6.34818">
        <ele>1388.7</ele>
      </trkpt>
      <trkpt lat="45.97322" lon="6.34834">
        <ele>1388.8</ele>
      </trkpt>
      <trkpt lat="45.97332" lon="6.34852">
        <ele>1388.5</ele>
      </trkpt>
      <trkpt lat="45.97348" lon="6.3491">
        <ele>1388</ele>
      </trkpt>
      <trkpt lat="45.97363" lon="6.34947">
        <ele>1389.7</ele>
      </trkpt>
      <trkpt lat="45.97393" lon="6.35003">
        <ele>1392.9</ele>
      </trkpt>
      <trkpt lat="45.97384" lon="6.35011">
        <ele>1392.7</ele>
      </trkpt>
      <trkpt lat="45.9736" lon="6.35025">
        <ele>1392.3</ele>
      </trkpt>
      <trkpt lat="45.97303" lon="6.35051">
        <ele>1392.5</ele>
      </trkpt>
      <trkpt lat="45.97293" lon="6.3505">
        <ele>1392.2</ele>
      </trkpt>
      <trkpt lat="45.97255" lon="6.35036">
        <ele>1390.8</ele>
      </trkpt>
      <trkpt lat="45.97251" lon="6.35035">
        <ele>1390.7</ele>
      </trkpt>
      <trkpt lat="45.97248" lon="6.35035">
        <ele>1390.6</ele>
      </trkpt>
      <trkpt lat="45.97243" lon="6.35037">
        <ele>1390.6</ele>
      </trkpt>
      <trkpt lat="45.97241" lon="6.35041">
        <ele>1390.7</ele>
      </trkpt>
      <trkpt lat="45.97238" lon="6.35049">
        <ele>1390.9</ele>
      </trkpt>
      <trkpt lat="45.97237" lon="6.35051">
        <ele>1390.9</ele>
      </trkpt>
      <trkpt lat="45.97237" lon="6.35053">
        <ele>1391</ele>
      </trkpt>
      <trkpt lat="45.97236" lon="6.35055">
        <ele>1391</ele>
      </trkpt>
      <trkpt lat="45.97231" lon="6.35063">
        <ele>1390.9</ele>
      </trkpt>
      <trkpt lat="45.97214" lon="6.3508">
        <ele>1390</ele>
      </trkpt>
      <trkpt lat="45.97212" lon="6.35082">
        <ele>1389.8</ele>
      </trkpt>
      <trkpt lat="45.97208" lon="6.35085">
        <ele>1389.5</ele>
      </trkpt>
      <trkpt lat="45.97197" lon="6.35096">
        <ele>1388.5</ele>
      </trkpt>
      <trkpt lat="45.97191" lon="6.35106">
        <ele>1387.9</ele>
      </trkpt>
      <trkpt lat="45.97188" lon="6.35118">
        <ele>1387.6</ele>
      </trkpt>
      <trkpt lat="45.97181" lon="6.3516">
        <ele>1386.6</ele>
      </trkpt>
      <trkpt lat="45.97178" lon="6.35169">
        <ele>1386.2</ele>
      </trkpt>
      <trkpt lat="45.97172" lon="6.35178">
        <ele>1385.6</ele>
      </trkpt>
      <trkpt lat="45.97155" lon="6.35195">
        <ele>1385.6</ele>
      </trkpt>
      <trkpt lat="45.97142" lon="6.35228">
        <ele>1384.6</ele>
      </trkpt>
      <trkpt lat="45.97131" lon="6.35252">
        <ele>1382.6</ele>
      </trkpt>
      <trkpt lat="45.97129" lon="6.3526">
        <ele>1381.4</ele>
      </trkpt>
      <trkpt lat="45.97128" lon="6.35265">
        <ele>1380.7</ele>
      </trkpt>
      <trkpt lat="45.97127" lon="6.35288">
        <ele>1377.5</ele>
      </trkpt>
      <trkpt lat="45.97129" lon="6.35299">
        <ele>1376.3</ele>
      </trkpt>
      <trkpt lat="45.97135" lon="6.35327">
        <ele>1373.7</ele>
      </trkpt>
      <trkpt lat="45.97153" lon="6.35391">
        <ele>1365.3</ele>
      </trkpt>
      <trkpt lat="45.97156" lon="6.35408">
        <ele>1362.4</ele>
      </trkpt>
      <trkpt lat="45.97161" lon="6.35471">
        <ele>1351.9</ele>
      </trkpt>
      <trkpt lat="45.97175" lon="6.35524">
        <ele>1347.2</ele>
      </trkpt>
      <trkpt lat="45.97195" lon="6.35617">
        <ele>1346.5</ele>
      </trkpt>
      <trkpt lat="45.97197" lon="6.35629">
        <ele>1346.3</ele>
      </trkpt>
      <trkpt lat="45.97196" lon="6.35657">
        <ele>1342.7</ele>
      </trkpt>
      <trkpt lat="45.97198" lon="6.35694">
        <ele>1338.4</ele>
      </trkpt>
      <trkpt lat="45.97201" lon="6.35712">
        <ele>1337.2</ele>
      </trkpt>
      <trkpt lat="45.97215" lon="6.35767">
        <ele>1336.9</ele>
      </trkpt>
      <trkpt lat="45.97217" lon="6.35787">
        <ele>1335.9</ele>
      </trkpt>
      <trkpt lat="45.97218" lon="6.35812">
        <ele>1333.7</ele>
      </trkpt>
      <trkpt lat="45.97222" lon="6.35843">
        <ele>1332.5</ele>
      </trkpt>
      <trkpt lat="45.97224" lon="6.35867">
        <ele>1331.5</ele>
      </trkpt>
      <trkpt lat="45.97224" lon="6.35884">
        <ele>1330.2</ele>
      </trkpt>
      <trkpt lat="45.97217" lon="6.35913">
        <ele>1325.2</ele>
      </trkpt>
      <trkpt lat="45.97216" lon="6.35937">
        <ele>1322.2</ele>
      </trkpt>
      <trkpt lat="45.97217" lon="6.35955">
        <ele>1320.4</ele>
      </trkpt>
      <trkpt lat="45.97223" lon="6.36003">
        <ele>1316.7</ele>
      </trkpt>
      <trkpt lat="45.97222" lon="6.36028">
        <ele>1311.4</ele>
      </trkpt>
      <trkpt lat="45.97225" lon="6.36054">
        <ele>1307.3</ele>
      </trkpt>
      <trkpt lat="45.9723" lon="6.36076">
        <ele>1304.5</ele>
      </trkpt>
      <trkpt lat="45.97239" lon="6.36104">
        <ele>1300.3</ele>
      </trkpt>
      <trkpt lat="45.97306" lon="6.36243">
        <ele>1290.4</ele>
      </trkpt>
      <trkpt lat="45.97312" lon="6.3626">
        <ele>1288.5</ele>
      </trkpt>
      <trkpt lat="45.97315" lon="6.36274">
        <ele>1286.1</ele>
      </trkpt>
      <trkpt lat="45.97318" lon="6.3629">
        <ele>1282.8</ele>
      </trkpt>
      <trkpt lat="45.97321" lon="6.36334">
        <ele>1271.9</ele>
      </trkpt>
      <trkpt lat="45.97324" lon="6.36356">
        <ele>1268.4</ele>
      </trkpt>
      <trkpt lat="45.97335" lon="6.36389">
        <ele>1262.2</ele>
      </trkpt>
      <trkpt lat="45.97341" lon="6.36402">
        <ele>1261.6</ele>
      </trkpt>
      <trkpt lat="45.97348" lon="6.36414">
        <ele>1261.5</ele>
      </trkpt>
      <trkpt lat="45.97375" lon="6.36448">
        <ele>1263</ele>
      </trkpt>
      <trkpt lat="45.97384" lon="6.36465">
        <ele>1261.5</ele>
      </trkpt>
      <trkpt lat="45.97395" lon="6.365">
        <ele>1255.1</ele>
      </trkpt>
      <trkpt lat="45.97417" lon="6.36592">
        <ele>1235.7</ele>
      </trkpt>
      <trkpt lat="45.97423" lon="6.36615">
        <ele>1236.6</ele>
      </trkpt>
      <trkpt lat="45.97453" lon="6.36691">
        <ele>1233.2</ele>
      </trkpt>
      <trkpt lat="45.97467" lon="6.36733">
        <ele>1226.5</ele>
      </trkpt>
      <trkpt lat="45.97496" lon="6.36835">
        <ele>1210.9</ele>
      </trkpt>
      <trkpt lat="45.97505" lon="6.36857">
        <ele>1209.7</ele>
      </trkpt>
      <trkpt lat="45.97515" lon="6.36877">
        <ele>1210.1</ele>
      </trkpt>
      <trkpt lat="45.97526" lon="6.36891">
        <ele>1209.6</ele>
      </trkpt>
      <trkpt lat="45.97526" lon="6.36891">
        <ele>1209.6</ele>
      </trkpt>
      <trkpt lat="45.97541" lon="6.36906">
        <ele>1208.1</ele>
      </trkpt>
      <trkpt lat="45.97671" lon="6.37021">
        <ele>1212.7</ele>
      </trkpt>
      <trkpt lat="45.9768" lon="6.37041">
        <ele>1212.2</ele>
      </trkpt>
      <trkpt lat="45.97688" lon="6.37099">
        <ele>1205.6</ele>
      </trkpt>
      <trkpt lat="45.97693" lon="6.37115">
        <ele>1204.6</ele>
      </trkpt>
      <trkpt lat="45.97698" lon="6.37124">
        <ele>1204.1</ele>
      </trkpt>
      <trkpt lat="45.97705" lon="6.37131">
        <ele>1203.8</ele>
      </trkpt>
      <trkpt lat="45.97713" lon="6.37135">
        <ele>1203.8</ele>
      </trkpt>
      <trkpt lat="45.97756" lon="6.37141">
        <ele>1206.4</ele>
      </trkpt>
      <trkpt lat="45.9776" lon="6.37145">
        <ele>1206.6</ele>
      </trkpt>
      <trkpt lat="45.97763" lon="6.37153">
        <ele>1205.5</ele>
      </trkpt>
      <trkpt lat="45.97763" lon="6.37159">
        <ele>1204.2</ele>
      </trkpt>
      <trkpt lat="45.97761" lon="6.37166">
        <ele>1202.3</ele>
      </trkpt>
      <trkpt lat="45.97742" lon="6.37193">
        <ele>1194.5</ele>
      </trkpt>
      <trkpt lat="45.97742" lon="6.37198">
        <ele>1193.4</ele>
      </trkpt>
      <trkpt lat="45.97744" lon="6.37203">
        <ele>1192.3</ele>
      </trkpt>
      <trkpt lat="45.97752" lon="6.37208">
        <ele>1191.3</ele>
      </trkpt>
      <trkpt lat="45.97778" lon="6.37206">
        <ele>1195.3</ele>
      </trkpt>
      <trkpt lat="45.97783" lon="6.37209">
        <ele>1195.2</ele>
      </trkpt>
      <trkpt lat="45.97786" lon="6.37219">
        <ele>1192.9</ele>
      </trkpt>
      <trkpt lat="45.97785" lon="6.37225">
        <ele>1191.2</ele>
      </trkpt>
      <trkpt lat="45.97782" lon="6.3723">
        <ele>1189.5</ele>
      </trkpt>
      <trkpt lat="45.97766" lon="6.37245">
        <ele>1184.3</ele>
      </trkpt>
      <trkpt lat="45.97765" lon="6.37251">
        <ele>1182.9</ele>
      </trkpt>
      <trkpt lat="45.97767" lon="6.37255">
        <ele>1182.3</ele>
      </trkpt>
      <trkpt lat="45.97769" lon="6.37259">
        <ele>1181.6</ele>
      </trkpt>
      <trkpt lat="45.97774" lon="6.37261">
        <ele>1181.5</ele>
      </trkpt>
      <trkpt lat="45.97799" lon="6.37262">
        <ele>1182.7</ele>
      </trkpt>
      <trkpt lat="45.9781" lon="6.37269">
        <ele>1181.5</ele>
      </trkpt>
      <trkpt lat="45.97819" lon="6.37278">
        <ele>1179.5</ele>
      </trkpt>
      <trkpt lat="45.97866" lon="6.37365">
        <ele>1162.2</ele>
      </trkpt>
      <trkpt lat="45.97881" lon="6.37387">
        <ele>1156.8</ele>
      </trkpt>
      <trkpt lat="45.97885" lon="6.37398">
        <ele>1153.1</ele>
      </trkpt>
      <trkpt lat="45.97885" lon="6.37402">
        <ele>1151.7</ele>
      </trkpt>
      <trkpt lat="45.97882" lon="6.37404">
        <ele>1150.7</ele>
      </trkpt>
      <trkpt lat="45.97858" lon="6.37409">
        <ele>1147.9</ele>
      </trkpt>
      <trkpt lat="45.97847" lon="6.37419">
        <ele>1145</ele>
      </trkpt>
      <trkpt lat="45.9784" lon="6.37439">
        <ele>1142.9</ele>
      </trkpt>
      <trkpt lat="45.97841" lon="6.37453">
        <ele>1141.3</ele>
      </trkpt>
      <trkpt lat="45.97848" lon="6.37485">
        <ele>1136</ele>
      </trkpt>
      <trkpt lat="45.97849" lon="6.37499">
        <ele>1133.7</ele>
      </trkpt>
      <trkpt lat="45.97847" lon="6.37515">
        <ele>1132.9</ele>
      </trkpt>
      <trkpt lat="45.9784" lon="6.3755">
        <ele>1132.3</ele>
      </trkpt>
      <trkpt lat="45.9784" lon="6.37562">
        <ele>1131.2</ele>
      </trkpt>
      <trkpt lat="45.97842" lon="6.37568">
        <ele>1129.9</ele>
      </trkpt>
      <trkpt lat="45.97845" lon="6.37572">
        <ele>1128.4</ele>
      </trkpt>
      <trkpt lat="45.97848" lon="6.37573">
        <ele>1127.1</ele>
      </trkpt>
      <trkpt lat="45.97855" lon="6.37568">
        <ele>1124.9</ele>
      </trkpt>
      <trkpt lat="45.97857" lon="6.3756">
        <ele>1124.9</ele>
      </trkpt>
      <trkpt lat="45.97866" lon="6.37514">
        <ele>1126.2</ele>
      </trkpt>
      <trkpt lat="45.9787" lon="6.37499">
        <ele>1126.5</ele>
      </trkpt>
      <trkpt lat="45.97884" lon="6.37483">
        <ele>1126.4</ele>
      </trkpt>
      <trkpt lat="45.97905" lon="6.37474">
        <ele>1124.2</ele>
      </trkpt>
      <trkpt lat="45.9791" lon="6.37467">
        <ele>1126</ele>
      </trkpt>
      <trkpt lat="45.97917" lon="6.37448">
        <ele>1133.2</ele>
      </trkpt>
      <trkpt lat="45.97922" lon="6.37443">
        <ele>1136.5</ele>
      </trkpt>
      <trkpt lat="45.97931" lon="6.3744">
        <ele>1139.8</ele>
      </trkpt>
      <trkpt lat="45.97939" lon="6.37441">
        <ele>1141.2</ele>
      </trkpt>
      <trkpt lat="45.97949" lon="6.37451">
        <ele>1138.4</ele>
      </trkpt>
      <trkpt lat="45.97985" lon="6.37499">
        <ele>1118.8</ele>
      </trkpt>
      <trkpt lat="45.98014" lon="6.37521">
        <ele>1115.9</ele>
      </trkpt>
      <trkpt lat="45.98023" lon="6.37533">
        <ele>1114</ele>
      </trkpt>
      <trkpt lat="45.98042" lon="6.37564">
        <ele>1106.5</ele>
      </trkpt>
      <trkpt lat="45.98082" lon="6.37649">
        <ele>1077.7</ele>
      </trkpt>
      <trkpt lat="45.98099" lon="6.37677">
        <ele>1065.1</ele>
      </trkpt>
      <trkpt lat="45.98114" lon="6.37697">
        <ele>1057.9</ele>
      </trkpt>
      <trkpt lat="45.98115" lon="6.377">
        <ele>1056.7</ele>
      </trkpt>
      <trkpt lat="45.98113" lon="6.37706">
        <ele>1053.7</ele>
      </trkpt>
      <trkpt lat="45.98109" lon="6.37707">
        <ele>1052.7</ele>
      </trkpt>
      <trkpt lat="45.98105" lon="6.37705">
        <ele>1053</ele>
      </trkpt>
      <trkpt lat="45.9808" lon="6.37665">
        <ele>1067.8</ele>
      </trkpt>
      <trkpt lat="45.98063" lon="6.37643">
        <ele>1073.7</ele>
      </trkpt>
      <trkpt lat="45.9804" lon="6.37614">
        <ele>1079.3</ele>
      </trkpt>
      <trkpt lat="45.98026" lon="6.37602">
        <ele>1078.9</ele>
      </trkpt>
      <trkpt lat="45.98007" lon="6.37594">
        <ele>1073.7</ele>
      </trkpt>
      <trkpt lat="45.97979" lon="6.37586">
        <ele>1080</ele>
      </trkpt>
      <trkpt lat="45.97965" lon="6.37573">
        <ele>1088.9</ele>
      </trkpt>
      <trkpt lat="45.97959" lon="6.3757">
        <ele>1091.3</ele>
      </trkpt>
      <trkpt lat="45.97955" lon="6.37571">
        <ele>1091.9</ele>
      </trkpt>
      <trkpt lat="45.97952" lon="6.37575">
        <ele>1091.4</ele>
      </trkpt>
      <trkpt lat="45.97951" lon="6.37582">
        <ele>1089.5</ele>
      </trkpt>
      <trkpt lat="45.97954" lon="6.37589">
        <ele>1086.4</ele>
      </trkpt>
      <trkpt lat="45.97958" lon="6.37594">
        <ele>1083.6</ele>
      </trkpt>
      <trkpt lat="45.97976" lon="6.37605">
        <ele>1073.8</ele>
      </trkpt>
      <trkpt lat="45.98006" lon="6.37637">
        <ele>1054.2</ele>
      </trkpt>
      <trkpt lat="45.98023" lon="6.37665">
        <ele>1047.8</ele>
      </trkpt>
      <trkpt lat="45.98051" lon="6.37717">
        <ele>1034.8</ele>
      </trkpt>
      <trkpt lat="45.98072" lon="6.37745">
        <ele>1028.3</ele>
      </trkpt>
      <trkpt lat="45.98115" lon="6.37808">
        <ele>1010.1</ele>
      </trkpt>
      <trkpt lat="45.98118" lon="6.37808">
        <ele>1010.6</ele>
      </trkpt>
      <trkpt lat="45.98123" lon="6.37803">
        <ele>1013.5</ele>
      </trkpt>
      <trkpt lat="45.98135" lon="6.37784">
        <ele>1023.3</ele>
      </trkpt>
      <trkpt lat="45.98144" lon="6.37773">
        <ele>1029.2</ele>
      </trkpt>
      <trkpt lat="45.98169" lon="6.37765">
        <ele>1037.2</ele>
      </trkpt>
      <trkpt lat="45.98176" lon="6.3777">
        <ele>1038.8</ele>
      </trkpt>
      <trkpt lat="45.98179" lon="6.37782">
        <ele>1035.7</ele>
      </trkpt>
      <trkpt lat="45.9818" lon="6.37798">
        <ele>1030.1</ele>
      </trkpt>
      <trkpt lat="45.98178" lon="6.37808">
        <ele>1025.2</ele>
      </trkpt>
      <trkpt lat="45.98169" lon="6.37831">
        <ele>1011.2</ele>
      </trkpt>
      <trkpt lat="45.98171" lon="6.37848">
        <ele>1005.7</ele>
      </trkpt>
      <trkpt lat="45.98175" lon="6.37854">
        <ele>1005.4</ele>
      </trkpt>
      <trkpt lat="45.98197" lon="6.37876">
        <ele>1007.1</ele>
      </trkpt>
      <trkpt lat="45.98213" lon="6.37898">
        <ele>1004.3</ele>
      </trkpt>
      <trkpt lat="45.98288" lon="6.38038">
        <ele>974.1</ele>
      </trkpt>
      <trkpt lat="45.98309" lon="6.38071">
        <ele>970.5</ele>
      </trkpt>
      <trkpt lat="45.98325" lon="6.38103">
        <ele>965.7</ele>
      </trkpt>
      <trkpt lat="45.98341" lon="6.38128">
        <ele>963.5</ele>
      </trkpt>
      <trkpt lat="45.98351" lon="6.38137">
        <ele>963.7</ele>
      </trkpt>
      <trkpt lat="45.9838" lon="6.38156">
        <ele>965.7</ele>
      </trkpt>
      <trkpt lat="45.98417" lon="6.38198">
        <ele>958</ele>
      </trkpt>
      <trkpt lat="45.98429" lon="6.38212">
        <ele>954.1</ele>
      </trkpt>
      <trkpt lat="45.98437" lon="6.38218">
        <ele>952.9</ele>
      </trkpt>
      <trkpt lat="45.98458" lon="6.38226">
        <ele>953.5</ele>
      </trkpt>
      <trkpt lat="45.98461" lon="6.38229">
        <ele>952.5</ele>
      </trkpt>
      <trkpt lat="45.98461" lon="6.38234">
        <ele>949.9</ele>
      </trkpt>
      <trkpt lat="45.98458" lon="6.38237">
        <ele>947.7</ele>
      </trkpt>
      <trkpt lat="45.98439" lon="6.38237">
        <ele>943.8</ele>
      </trkpt>
      <trkpt lat="45.98428" lon="6.38234">
        <ele>943</ele>
      </trkpt>
      <trkpt lat="45.98395" lon="6.38211">
        <ele>944</ele>
      </trkpt>
      <trkpt lat="45.98387" lon="6.3821">
        <ele>941.7</ele>
      </trkpt>
      <trkpt lat="45.98357" lon="6.38212">
        <ele>930.1</ele>
      </trkpt>
      <trkpt lat="45.98349" lon="6.38212">
        <ele>927.3</ele>
      </trkpt>
      <trkpt lat="45.98339" lon="6.38206">
        <ele>926.7</ele>
      </trkpt>
      <trkpt lat="45.98319" lon="6.38198">
        <ele>920.6</ele>
      </trkpt>
      <trkpt lat="45.98308" lon="6.38191">
        <ele>917.6</ele>
      </trkpt>
      <trkpt lat="45.98294" lon="6.38176">
        <ele>916.3</ele>
      </trkpt>
      <trkpt lat="45.98237" lon="6.38098">
        <ele>917.8</ele>
      </trkpt>
      <trkpt lat="45.98232" lon="6.38098">
        <ele>915.9</ele>
      </trkpt>
      <trkpt lat="45.98231" lon="6.38102">
        <ele>913.8</ele>
      </trkpt>
      <trkpt lat="45.98232" lon="6.38107">
        <ele>912.1</ele>
      </trkpt>
      <trkpt lat="45.98253" lon="6.38146">
        <ele>904.5</ele>
      </trkpt>
      <trkpt lat="45.9829" lon="6.38232">
        <ele>889.5</ele>
      </trkpt>
      <trkpt lat="45.98295" lon="6.3824">
        <ele>888.6</ele>
      </trkpt>
      <trkpt lat="45.98301" lon="6.38244">
        <ele>889.8</ele>
      </trkpt>
      <trkpt lat="45.98322" lon="6.38246">
        <ele>899.3</ele>
      </trkpt>
      <trkpt lat="45.98329" lon="6.38252">
        <ele>899.9</ele>
      </trkpt>
      <trkpt lat="45.98345" lon="6.38279">
        <ele>892.2</ele>
      </trkpt>
      <trkpt lat="45.9836" lon="6.38294">
        <ele>889.7</ele>
      </trkpt>
      <trkpt lat="45.98369" lon="6.38313">
        <ele>883</ele>
      </trkpt>
      <trkpt lat="45.98376" lon="6.38337">
        <ele>873.4</ele>
      </trkpt>
      <trkpt lat="45.98382" lon="6.38344">
        <ele>872.7</ele>
      </trkpt>
      <trkpt lat="45.98383" lon="6.38345">
        <ele>872.6</ele>
      </trkpt>
      <trkpt lat="45.98392" lon="6.3835">
        <ele>873.5</ele>
      </trkpt>
      <trkpt lat="45.98417" lon="6.3835">
        <ele>881.6</ele>
      </trkpt>
      <trkpt lat="45.98427" lon="6.38349">
        <ele>883.2</ele>
      </trkpt>
      <trkpt lat="45.98438" lon="6.38354">
        <ele>882.1</ele>
      </trkpt>
      <trkpt lat="45.98474" lon="6.38372">
        <ele>875.9</ele>
      </trkpt>
      <trkpt lat="45.98485" lon="6.38372">
        <ele>876.7</ele>
      </trkpt>
      <trkpt lat="45.985" lon="6.38366">
        <ele>881.4</ele>
      </trkpt>
      <trkpt lat="45.98508" lon="6.38366">
        <ele>882.2</ele>
      </trkpt>
      <trkpt lat="45.98555" lon="6.3838">
        <ele>879</ele>
      </trkpt>
      <trkpt lat="45.98568" lon="6.38388">
        <ele>875.8</ele>
      </trkpt>
      <trkpt lat="45.98592" lon="6.38411">
        <ele>866.3</ele>
      </trkpt>
      <trkpt lat="45.98604" lon="6.38416">
        <ele>866.3</ele>
      </trkpt>
      <trkpt lat="45.98631" lon="6.38418">
        <ele>871.9</ele>
      </trkpt>
      <trkpt lat="45.98641" lon="6.38421">
        <ele>873.1</ele>
      </trkpt>
      <trkpt lat="45.98656" lon="6.38442">
        <ele>868.6</ele>
      </trkpt>
      <trkpt lat="45.98702" lon="6.38546">
        <ele>851.6</ele>
      </trkpt>
      <trkpt lat="45.98726" lon="6.38596">
        <ele>844.3</ele>
      </trkpt>
      <trkpt lat="45.98776" lon="6.38681">
        <ele>836.6</ele>
      </trkpt>
      <trkpt lat="45.98837" lon="6.38766">
        <ele>828.2</ele>
      </trkpt>
      <trkpt lat="45.98893" lon="6.38839">
        <ele>811.7</ele>
      </trkpt>
      <trkpt lat="45.98974" lon="6.38934">
        <ele>800.4</ele>
      </trkpt>
      <trkpt lat="45.98976" lon="6.38939">
        <ele>799.9</ele>
      </trkpt>
      <trkpt lat="45.98979" lon="6.3895">
        <ele>798.5</ele>
      </trkpt>
      <trkpt lat="45.98978" lon="6.3896">
        <ele>796.7</ele>
      </trkpt>
      <trkpt lat="45.98977" lon="6.38966">
        <ele>795.5</ele>
      </trkpt>
      <trkpt lat="45.98972" lon="6.38976">
        <ele>793</ele>
      </trkpt>
      <trkpt lat="45.98962" lon="6.38986">
        <ele>789.8</ele>
      </trkpt>
      <trkpt lat="45.98951" lon="6.38985">
        <ele>788.3</ele>
      </trkpt>
      <trkpt lat="45.98944" lon="6.38979">
        <ele>788.2</ele>
      </trkpt>
      <trkpt lat="45.98899" lon="6.38914">
        <ele>788.6</ele>
      </trkpt>
      <trkpt lat="45.9889" lon="6.38905">
        <ele>788.9</ele>
      </trkpt>
      <trkpt lat="45.98805" lon="6.38838">
        <ele>784.8</ele>
      </trkpt>
      <trkpt lat="45.98799" lon="6.38836">
        <ele>783.5</ele>
      </trkpt>
      <trkpt lat="45.98791" lon="6.3884">
        <ele>780</ele>
      </trkpt>
      <trkpt lat="45.98788" lon="6.38847">
        <ele>777.1</ele>
      </trkpt>
      <trkpt lat="45.98788" lon="6.38855">
        <ele>775</ele>
      </trkpt>
      <trkpt lat="45.98789" lon="6.38859">
        <ele>774.2</ele>
      </trkpt>
      <trkpt lat="45.98794" lon="6.38865">
        <ele>773.9</ele>
      </trkpt>
      <trkpt lat="45.98816" lon="6.38881">
        <ele>775.1</ele>
      </trkpt>
      <trkpt lat="45.98822" lon="6.38887">
        <ele>774.8</ele>
      </trkpt>
      <trkpt lat="45.98868" lon="6.38979">
        <ele>766.4</ele>
      </trkpt>
      <trkpt lat="45.9888" lon="6.38992">
        <ele>768.4</ele>
      </trkpt>
      <trkpt lat="45.98914" lon="6.39026">
        <ele>769.2</ele>
      </trkpt>
      <trkpt lat="45.9894" lon="6.39065">
        <ele>756.8</ele>
      </trkpt>
      <trkpt lat="45.98951" lon="6.39085">
        <ele>750.1</ele>
      </trkpt>
      <trkpt lat="45.98961" lon="6.39092">
        <ele>749.7</ele>
      </trkpt>
      <trkpt lat="45.98991" lon="6.391">
        <ele>751.2</ele>
      </trkpt>
      <trkpt lat="45.98997" lon="6.39104">
        <ele>750.7</ele>
      </trkpt>
      <trkpt lat="45.99001" lon="6.39111">
        <ele>749.1</ele>
      </trkpt>
      <trkpt lat="45.99001" lon="6.39116">
        <ele>747.6</ele>
      </trkpt>
      <trkpt lat="45.99001" lon="6.39121">
        <ele>746.2</ele>
      </trkpt>
      <trkpt lat="45.98997" lon="6.39131">
        <ele>743</ele>
      </trkpt>
      <trkpt lat="45.98987" lon="6.39135">
        <ele>741.1</ele>
      </trkpt>
      <trkpt lat="45.98974" lon="6.39136">
        <ele>739.8</ele>
      </trkpt>
      <trkpt lat="45.98952" lon="6.39131">
        <ele>739.2</ele>
      </trkpt>
      <trkpt lat="45.98941" lon="6.39131">
        <ele>738.3</ele>
      </trkpt>
      <trkpt lat="45.989" lon="6.39149">
        <ele>731</ele>
      </trkpt>
      <trkpt lat="45.98885" lon="6.39149">
        <ele>729.6</ele>
      </trkpt>
      <trkpt lat="45.98877" lon="6.39146">
        <ele>729.3</ele>
      </trkpt>
      <trkpt lat="45.98869" lon="6.39139">
        <ele>729.5</ele>
      </trkpt>
      <trkpt lat="45.98854" lon="6.39104">
        <ele>732.2</ele>
      </trkpt>
      <trkpt lat="45.98847" lon="6.39091">
        <ele>732.6</ele>
      </trkpt>
      <trkpt lat="45.98842" lon="6.39086">
        <ele>732.3</ele>
      </trkpt>
      <trkpt lat="45.98839" lon="6.39082">
        <ele>732.3</ele>
      </trkpt>
      <trkpt lat="45.9883" lon="6.39072">
        <ele>733</ele>
      </trkpt>
      <trkpt lat="45.98807" lon="6.39056">
        <ele>732.8</ele>
      </trkpt>
      <trkpt lat="45.98783" lon="6.39052">
        <ele>729.7</ele>
      </trkpt>
      <trkpt lat="45.98756" lon="6.39043">
        <ele>726.4</ele>
      </trkpt>
      <trkpt lat="45.98748" lon="6.39038">
        <ele>725.9</ele>
      </trkpt>
      <trkpt lat="45.98716" lon="6.39011">
        <ele>726.4</ele>
      </trkpt>
      <trkpt lat="45.98658" lon="6.38957">
        <ele>726.4</ele>
      </trkpt>
      <trkpt lat="45.98647" lon="6.38945">
        <ele>727.1</ele>
      </trkpt>
      <trkpt lat="45.98631" lon="6.38914">
        <ele>726.3</ele>
      </trkpt>
      <trkpt lat="45.98605" lon="6.38875">
        <ele>726.4</ele>
      </trkpt>
      <trkpt lat="45.98577" lon="6.38811">
        <ele>728.4</ele>
      </trkpt>
      <trkpt lat="45.98556" lon="6.38774">
        <ele>733.2</ele>
      </trkpt>
      <trkpt lat="45.98537" lon="6.38748">
        <ele>733.8</ele>
      </trkpt>
      <trkpt lat="45.98523" lon="6.38736">
        <ele>734.2</ele>
      </trkpt>
      <trkpt lat="45.98462" lon="6.38696">
        <ele>735.8</ele>
      </trkpt>
      <trkpt lat="45.98443" lon="6.38687">
        <ele>735.7</ele>
      </trkpt>
      <trkpt lat="45.98421" lon="6.38681">
        <ele>734.6</ele>
      </trkpt>
      <trkpt lat="45.98419" lon="6.38681">
        <ele>734.5</ele>
      </trkpt>
      <trkpt lat="45.98416" lon="6.38681">
        <ele>734.3</ele>
      </trkpt>
      <trkpt lat="45.98406" lon="6.38689">
        <ele>734</ele>
      </trkpt>
      <trkpt lat="45.98399" lon="6.38703">
        <ele>733.5</ele>
      </trkpt>
      <trkpt lat="45.98398" lon="6.38713">
        <ele>733.2</ele>
      </trkpt>
      <trkpt lat="45.98398" lon="6.38719">
        <ele>733</ele>
      </trkpt>
      <trkpt lat="45.98401" lon="6.38752">
        <ele>732.3</ele>
      </trkpt>
      <trkpt lat="45.98401" lon="6.38758">
        <ele>733.9</ele>
      </trkpt>
      <trkpt lat="45.98402" lon="6.38766">
        <ele>736</ele>
      </trkpt>
      <trkpt lat="45.98406" lon="6.38767">
        <ele>736</ele>
      </trkpt>
      <trkpt lat="45.98416" lon="6.38771">
        <ele>736.3</ele>
      </trkpt>
      <trkpt lat="45.9844" lon="6.38788">
        <ele>737.3</ele>
      </trkpt>
      <trkpt lat="45.98463" lon="6.38819">
        <ele>738</ele>
      </trkpt>
      <trkpt lat="45.98498" lon="6.38879">
        <ele>740.1</ele>
      </trkpt>
      <trkpt lat="45.98614" lon="6.39031">
        <ele>742.3</ele>
      </trkpt>
      <trkpt lat="45.98632" lon="6.39052">
        <ele>742.9</ele>
      </trkpt>
      <trkpt lat="45.98659" lon="6.39077">
        <ele>738.2</ele>
      </trkpt>
      <trkpt lat="45.98744" lon="6.39145">
        <ele>734.7</ele>
      </trkpt>
      <trkpt lat="45.9876" lon="6.39162">
        <ele>734.6</ele>
      </trkpt>
      <trkpt lat="45.98775" lon="6.39187">
        <ele>737</ele>
      </trkpt>
      <trkpt lat="45.98787" lon="6.3921">
        <ele>738.5</ele>
      </trkpt>
      <trkpt lat="45.98795" lon="6.39225">
        <ele>738.8</ele>
      </trkpt>
      <trkpt lat="45.98802" lon="6.39235">
        <ele>738.1</ele>
      </trkpt>
      <trkpt lat="45.98885" lon="6.39326">
        <ele>740.2</ele>
      </trkpt>
      <trkpt lat="45.98915" lon="6.39344">
        <ele>744.4</ele>
      </trkpt>
      <trkpt lat="45.98929" lon="6.39349">
        <ele>745</ele>
      </trkpt>
      <trkpt lat="45.98939" lon="6.39348">
        <ele>743.9</ele>
      </trkpt>
      <trkpt lat="45.98962" lon="6.39337">
        <ele>738</ele>
      </trkpt>
      <trkpt lat="45.98976" lon="6.39335">
        <ele>736</ele>
      </trkpt>
      <trkpt lat="45.98989" lon="6.39343">
        <ele>738</ele>
      </trkpt>
      <trkpt lat="45.99013" lon="6.3937">
        <ele>748.4</ele>
      </trkpt>
      <trkpt lat="45.99027" lon="6.3938">
        <ele>752.6</ele>
      </trkpt>
      <trkpt lat="45.99043" lon="6.39381">
        <ele>753.1</ele>
      </trkpt>
      <trkpt lat="45.99068" lon="6.39371">
        <ele>748.7</ele>
      </trkpt>
      <trkpt lat="45.99078" lon="6.39369">
        <ele>747.8</ele>
      </trkpt>
      <trkpt lat="45.99128" lon="6.39383">
        <ele>759.5</ele>
      </trkpt>
      <trkpt lat="45.99137" lon="6.39383">
        <ele>760.6</ele>
      </trkpt>
      <trkpt lat="45.99142" lon="6.3938">
        <ele>760</ele>
      </trkpt>
      <trkpt lat="45.99146" lon="6.39378">
        <ele>759.6</ele>
      </trkpt>
      <trkpt lat="45.99155" lon="6.39366">
        <ele>755.8</ele>
      </trkpt>
      <trkpt lat="45.9917" lon="6.39332">
        <ele>743.5</ele>
      </trkpt>
      <trkpt lat="45.99183" lon="6.39321">
        <ele>739.2</ele>
      </trkpt>
      <trkpt lat="45.99196" lon="6.39319">
        <ele>738.1</ele>
      </trkpt>
      <trkpt lat="45.99286" lon="6.39361">
        <ele>751.1</ele>
      </trkpt>
      <trkpt lat="45.99392" lon="6.39425">
        <ele>757.9</ele>
      </trkpt>
      <trkpt lat="45.99439" lon="6.39442">
        <ele>754.9</ele>
      </trkpt>
      <trkpt lat="45.99464" lon="6.39447">
        <ele>753</ele>
      </trkpt>
      <trkpt lat="45.99496" lon="6.39449">
        <ele>749.5</ele>
      </trkpt>
      <trkpt lat="45.9951" lon="6.39448">
        <ele>748.6</ele>
      </trkpt>
      <trkpt lat="45.99567" lon="6.39436">
        <ele>745</ele>
      </trkpt>
      <trkpt lat="45.99594" lon="6.39432">
        <ele>744.1</ele>
      </trkpt>
      <trkpt lat="45.99617" lon="6.39432">
        <ele>744.4</ele>
      </trkpt>
      <trkpt lat="45.9966" lon="6.39436">
        <ele>745.3</ele>
      </trkpt>
      <trkpt lat="45.99731" lon="6.39448">
        <ele>743.6</ele>
      </trkpt>
      <trkpt lat="45.99754" lon="6.3945">
        <ele>742.6</ele>
      </trkpt>
      <trkpt lat="45.99781" lon="6.39452">
        <ele>741.8</ele>
      </trkpt>
      <trkpt lat="45.99914" lon="6.39448">
        <ele>733</ele>
      </trkpt>
      <trkpt lat="45.99922" lon="6.39449">
        <ele>732.9</ele>
      </trkpt>
      <trkpt lat="45.99928" lon="6.39451">
        <ele>733.2</ele>
      </trkpt>
      <trkpt lat="45.99949" lon="6.39462">
        <ele>734.4</ele>
      </trkpt>
      <trkpt lat="45.9997" lon="6.3948">
        <ele>735.9</ele>
      </trkpt>
      <trkpt lat="45.9998" lon="6.39493">
        <ele>736.9</ele>
      </trkpt>
      <trkpt lat="45.99999" lon="6.39525">
        <ele>737</ele>
      </trkpt>
      <trkpt lat="46.00001" lon="6.39527">
        <ele>737</ele>
      </trkpt>
      <trkpt lat="46.00036" lon="6.39576">
        <ele>736.1</ele>
      </trkpt>
      <trkpt lat="46.00038" lon="6.39579">
        <ele>736.1</ele>
      </trkpt>
      <trkpt lat="46.00042" lon="6.39584">
        <ele>736</ele>
      </trkpt>
      <trkpt lat="46.0005" lon="6.39592">
        <ele>735.9</ele>
      </trkpt>
      <trkpt lat="46.0006" lon="6.396">
        <ele>735.7</ele>
      </trkpt>
      <trkpt lat="46.00065" lon="6.39604">
        <ele>735.6</ele>
      </trkpt>
      <trkpt lat="46.00101" lon="6.3962">
        <ele>733.7</ele>
      </trkpt>
      <trkpt lat="46.00107" lon="6.39621">
        <ele>733.3</ele>
      </trkpt>
      <trkpt lat="46.00119" lon="6.3962">
        <ele>732.4</ele>
      </trkpt>
      <trkpt lat="46.00146" lon="6.39618">
        <ele>730.5</ele>
      </trkpt>
      <trkpt lat="46.00176" lon="6.39618">
        <ele>728.5</ele>
      </trkpt>
      <trkpt lat="46.00201" lon="6.39622">
        <ele>727.3</ele>
      </trkpt>
      <trkpt lat="46.00232" lon="6.39633">
        <ele>726.3</ele>
      </trkpt>
      <trkpt lat="46.00247" lon="6.3964">
        <ele>726.2</ele>
      </trkpt>
      <trkpt lat="46.00277" lon="6.39655">
        <ele>726.1</ele>
      </trkpt>
      <trkpt lat="46.00288" lon="6.3966">
        <ele>726.1</ele>
      </trkpt>
      <trkpt lat="46.00309" lon="6.39675">
        <ele>726.3</ele>
      </trkpt>
      <trkpt lat="46.00316" lon="6.39681">
        <ele>726.3</ele>
      </trkpt>
      <trkpt lat="46.00324" lon="6.39686">
        <ele>726.3</ele>
      </trkpt>
      <trkpt lat="46.00346" lon="6.39698">
        <ele>725.7</ele>
      </trkpt>
      <trkpt lat="46.00359" lon="6.39704">
        <ele>725.1</ele>
      </trkpt>
      <trkpt lat="46.00362" lon="6.39705">
        <ele>725</ele>
      </trkpt>
      <trkpt lat="46.00369" lon="6.39708">
        <ele>724.6</ele>
      </trkpt>
      <trkpt lat="46.00386" lon="6.39718">
        <ele>723.9</ele>
      </trkpt>
      <trkpt lat="46.00413" lon="6.39733">
        <ele>722.6</ele>
      </trkpt>
      <trkpt lat="46.0043" lon="6.39742">
        <ele>722.4</ele>
      </trkpt>
      <trkpt lat="46.00436" lon="6.39745">
        <ele>722.5</ele>
      </trkpt>
      <trkpt lat="46.00447" lon="6.3975">
        <ele>722.6</ele>
      </trkpt>
      <trkpt lat="46.00464" lon="6.39755">
        <ele>723.2</ele>
      </trkpt>
      <trkpt lat="46.00479" lon="6.39756">
        <ele>723</ele>
      </trkpt>
      <trkpt lat="46.00484" lon="6.39756">
        <ele>723</ele>
      </trkpt>
      <trkpt lat="46.00492" lon="6.39753">
        <ele>722.4</ele>
      </trkpt>
      <trkpt lat="46.00498" lon="6.3975">
        <ele>722</ele>
      </trkpt>
      <trkpt lat="46.00504" lon="6.39745">
        <ele>721.7</ele>
      </trkpt>
      <trkpt lat="46.00511" lon="6.39737">
        <ele>721.1</ele>
      </trkpt>
      <trkpt lat="46.00514" lon="6.39734">
        <ele>720.9</ele>
      </trkpt>
      <trkpt lat="46.00522" lon="6.39724">
        <ele>720.1</ele>
      </trkpt>
      <trkpt lat="46.00543" lon="6.39706">
        <ele>718.7</ele>
      </trkpt>
      <trkpt lat="46.00555" lon="6.39701">
        <ele>718.6</ele>
      </trkpt>
      <trkpt lat="46.00574" lon="6.39697">
        <ele>719</ele>
      </trkpt>
      <trkpt lat="46.00776" lon="6.39673">
        <ele>721.7</ele>
      </trkpt>
      <trkpt lat="46.00858" lon="6.39677">
        <ele>721.4</ele>
      </trkpt>
      <trkpt lat="46.0097" lon="6.39686">
        <ele>722.8</ele>
      </trkpt>
      <trkpt lat="46.00987" lon="6.39688">
        <ele>723.8</ele>
      </trkpt>
      <trkpt lat="46.01004" lon="6.39688">
        <ele>724.5</ele>
      </trkpt>
      <trkpt lat="46.01017" lon="6.39687">
        <ele>724.9</ele>
      </trkpt>
      <trkpt lat="46.01028" lon="6.39684">
        <ele>725</ele>
      </trkpt>
      <trkpt lat="46.01049" lon="6.39676">
        <ele>724.9</ele>
      </trkpt>
      <trkpt lat="46.01068" lon="6.39662">
        <ele>723.9</ele>
      </trkpt>
      <trkpt lat="46.0113" lon="6.39599">
        <ele>719.4</ele>
      </trkpt>
      <trkpt lat="46.01146" lon="6.39587">
        <ele>718.1</ele>
      </trkpt>
      <trkpt lat="46.01162" lon="6.39582">
        <ele>717.6</ele>
      </trkpt>
      <trkpt lat="46.01172" lon="6.39582">
        <ele>717</ele>
      </trkpt>
      <trkpt lat="46.01196" lon="6.39587">
        <ele>715.2</ele>
      </trkpt>
      <trkpt lat="46.01205" lon="6.39592">
        <ele>715.1</ele>
      </trkpt>
      <trkpt lat="46.01254" lon="6.39613">
        <ele>713.7</ele>
      </trkpt>
      <trkpt lat="46.01331" lon="6.39648">
        <ele>714.4</ele>
      </trkpt>
      <trkpt lat="46.01337" lon="6.3965">
        <ele>714.7</ele>
      </trkpt>
      <trkpt lat="46.01342" lon="6.39651">
        <ele>715</ele>
      </trkpt>
      <trkpt lat="46.01359" lon="6.3965">
        <ele>715.1</ele>
      </trkpt>
      <trkpt lat="46.01393" lon="6.39644">
        <ele>714.7</ele>
      </trkpt>
      <trkpt lat="46.01462" lon="6.39628">
        <ele>716.6</ele>
      </trkpt>
      <trkpt lat="46.01488" lon="6.39622">
        <ele>717.9</ele>
      </trkpt>
      <trkpt lat="46.01545" lon="6.39604">
        <ele>719.1</ele>
      </trkpt>
      <trkpt lat="46.01568" lon="6.39598">
        <ele>719.3</ele>
      </trkpt>
      <trkpt lat="46.01578" lon="6.39595">
        <ele>719.2</ele>
      </trkpt>
      <trkpt lat="46.01596" lon="6.39594">
        <ele>718.1</ele>
      </trkpt>
      <trkpt lat="46.01618" lon="6.39597">
        <ele>716.6</ele>
      </trkpt>
      <trkpt lat="46.017" lon="6.39633">
        <ele>716.2</ele>
      </trkpt>
      <trkpt lat="46.01729" lon="6.39642">
        <ele>715.1</ele>
      </trkpt>
      <trkpt lat="46.01743" lon="6.39644">
        <ele>714.1</ele>
      </trkpt>
      <trkpt lat="46.01766" lon="6.39648">
        <ele>713.2</ele>
      </trkpt>
      <trkpt lat="46.01796" lon="6.39654">
        <ele>712.6</ele>
      </trkpt>
      <trkpt lat="46.01813" lon="6.3966">
        <ele>712.8</ele>
      </trkpt>
      <trkpt lat="46.0183" lon="6.39669">
        <ele>713.7</ele>
      </trkpt>
      <trkpt lat="46.01848" lon="6.39679">
        <ele>715.4</ele>
      </trkpt>
      <trkpt lat="46.0187" lon="6.39694">
        <ele>718.2</ele>
      </trkpt>
      <trkpt lat="46.01887" lon="6.39702">
        <ele>719.5</ele>
      </trkpt>
      <trkpt lat="46.01896" lon="6.39703">
        <ele>719.5</ele>
      </trkpt>
      <trkpt lat="46.01904" lon="6.39701">
        <ele>718.8</ele>
      </trkpt>
      <trkpt lat="46.01913" lon="6.39695">
        <ele>717.2</ele>
      </trkpt>
      <trkpt lat="46.01919" lon="6.39686">
        <ele>715.4</ele>
      </trkpt>
      <trkpt lat="46.01935" lon="6.39645">
        <ele>708.9</ele>
      </trkpt>
      <trkpt lat="46.01945" lon="6.39632">
        <ele>707.6</ele>
      </trkpt>
      <trkpt lat="46.01958" lon="6.39624">
        <ele>707.6</ele>
      </trkpt>
      <trkpt lat="46.01975" lon="6.39619">
        <ele>708.4</ele>
      </trkpt>
      <trkpt lat="46.01989" lon="6.3962">
        <ele>709.8</ele>
      </trkpt>
      <trkpt lat="46.02006" lon="6.39625">
        <ele>710.5</ele>
      </trkpt>
      <trkpt lat="46.02008" lon="6.39625">
        <ele>710.2</ele>
      </trkpt>
      <trkpt lat="46.02013" lon="6.39627">
        <ele>709.7</ele>
      </trkpt>
      <trkpt lat="46.0206" lon="6.39661">
        <ele>707.5</ele>
      </trkpt>
      <trkpt lat="46.0211" lon="6.39703">
        <ele>712.4</ele>
      </trkpt>
      <trkpt lat="46.02116" lon="6.39707">
        <ele>712.9</ele>
      </trkpt>
      <trkpt lat="46.02122" lon="6.39709">
        <ele>712.8</ele>
      </trkpt>
      <trkpt lat="46.02134" lon="6.39711">
        <ele>712</ele>
      </trkpt>
      <trkpt lat="46.02146" lon="6.39708">
        <ele>709.8</ele>
      </trkpt>
      <trkpt lat="46.02163" lon="6.39696">
        <ele>704.5</ele>
      </trkpt>
      <trkpt lat="46.02169" lon="6.39689">
        <ele>702.7</ele>
      </trkpt>
      <trkpt lat="46.02176" lon="6.39682">
        <ele>702.5</ele>
      </trkpt>
      <trkpt lat="46.02204" lon="6.39648">
        <ele>701.7</ele>
      </trkpt>
      <trkpt lat="46.02216" lon="6.39633">
        <ele>701.8</ele>
      </trkpt>
      <trkpt lat="46.02229" lon="6.39611">
        <ele>700.9</ele>
      </trkpt>
      <trkpt lat="46.02254" lon="6.39559">
        <ele>693</ele>
      </trkpt>
      <trkpt lat="46.02269" lon="6.39541">
        <ele>688.6</ele>
      </trkpt>
      <trkpt lat="46.02278" lon="6.39535">
        <ele>687.6</ele>
      </trkpt>
      <trkpt lat="46.02293" lon="6.39528">
        <ele>687.2</ele>
      </trkpt>
      <trkpt lat="46.02302" lon="6.39528">
        <ele>688.4</ele>
      </trkpt>
      <trkpt lat="46.02321" lon="6.39533">
        <ele>692.4</ele>
      </trkpt>
      <trkpt lat="46.02334" lon="6.39534">
        <ele>694.2</ele>
      </trkpt>
      <trkpt lat="46.02344" lon="6.39527">
        <ele>692.5</ele>
      </trkpt>
      <trkpt lat="46.02359" lon="6.39506">
        <ele>687</ele>
      </trkpt>
      <trkpt lat="46.0237" lon="6.39497">
        <ele>684.5</ele>
      </trkpt>
      <trkpt lat="46.02388" lon="6.3949">
        <ele>682.2</ele>
      </trkpt>
      <trkpt lat="46.02407" lon="6.39489">
        <ele>682.5</ele>
      </trkpt>
      <trkpt lat="46.02421" lon="6.39492">
        <ele>685.4</ele>
      </trkpt>
      <trkpt lat="46.02426" lon="6.39492">
        <ele>686.7</ele>
      </trkpt>
      <trkpt lat="46.02434" lon="6.39492">
        <ele>688.8</ele>
      </trkpt>
      <trkpt lat="46.02442" lon="6.39488">
        <ele>689.4</ele>
      </trkpt>
      <trkpt lat="46.02453" lon="6.39473">
        <ele>687.1</ele>
      </trkpt>
      <trkpt lat="46.02455" lon="6.39467">
        <ele>685.6</ele>
      </trkpt>
      <trkpt lat="46.02457" lon="6.39462">
        <ele>684.5</ele>
      </trkpt>
      <trkpt lat="46.02462" lon="6.39422">
        <ele>673.1</ele>
      </trkpt>
      <trkpt lat="46.02467" lon="6.39409">
        <ele>671.1</ele>
      </trkpt>
      <trkpt lat="46.02477" lon="6.39394">
        <ele>670.6</ele>
      </trkpt>
      <trkpt lat="46.0252" lon="6.39348">
        <ele>668.8</ele>
      </trkpt>
      <trkpt lat="46.02532" lon="6.39325">
        <ele>665.2</ele>
      </trkpt>
      <trkpt lat="46.02542" lon="6.3931">
        <ele>665</ele>
      </trkpt>
      <trkpt lat="46.0266" lon="6.39198">
        <ele>660.9</ele>
      </trkpt>
      <trkpt lat="46.02671" lon="6.39192">
        <ele>660.3</ele>
      </trkpt>
      <trkpt lat="46.02718" lon="6.39171">
        <ele>658.1</ele>
      </trkpt>
      <trkpt lat="46.02731" lon="6.39169">
        <ele>658.4</ele>
      </trkpt>
      <trkpt lat="46.02738" lon="6.39172">
        <ele>659.5</ele>
      </trkpt>
      <trkpt lat="46.02747" lon="6.39181">
        <ele>661.9</ele>
      </trkpt>
      <trkpt lat="46.02763" lon="6.3921">
        <ele>665.9</ele>
      </trkpt>
      <trkpt lat="46.02776" lon="6.39239">
        <ele>668.5</ele>
      </trkpt>
      <trkpt lat="46.02789" lon="6.39276">
        <ele>672.5</ele>
      </trkpt>
      <trkpt lat="46.02796" lon="6.39289">
        <ele>673.2</ele>
      </trkpt>
      <trkpt lat="46.0282" lon="6.39313">
        <ele>670.7</ele>
      </trkpt>
      <trkpt lat="46.02837" lon="6.39319">
        <ele>668.6</ele>
      </trkpt>
      <trkpt lat="46.02848" lon="6.39317">
        <ele>671.3</ele>
      </trkpt>
      <trkpt lat="46.02858" lon="6.3931">
        <ele>673.1</ele>
      </trkpt>
      <trkpt lat="46.02866" lon="6.393">
        <ele>674.2</ele>
      </trkpt>
      <trkpt lat="46.02869" lon="6.39293">
        <ele>674.3</ele>
      </trkpt>
      <trkpt lat="46.02873" lon="6.39276">
        <ele>673.6</ele>
      </trkpt>
      <trkpt lat="46.02875" lon="6.39249">
        <ele>671.4</ele>
      </trkpt>
      <trkpt lat="46.02875" lon="6.39134">
        <ele>655.9</ele>
      </trkpt>
      <trkpt lat="46.02878" lon="6.39115">
        <ele>653</ele>
      </trkpt>
      <trkpt lat="46.02888" lon="6.39101">
        <ele>652.2</ele>
      </trkpt>
      <trkpt lat="46.02892" lon="6.39097">
        <ele>652.1</ele>
      </trkpt>
      <trkpt lat="46.02899" lon="6.39095">
        <ele>652.9</ele>
      </trkpt>
      <trkpt lat="46.02908" lon="6.39096">
        <ele>654.8</ele>
      </trkpt>
      <trkpt lat="46.02932" lon="6.39106">
        <ele>659.2</ele>
      </trkpt>
      <trkpt lat="46.02943" lon="6.39108">
        <ele>660</ele>
      </trkpt>
      <trkpt lat="46.02997" lon="6.39103">
        <ele>659</ele>
      </trkpt>
      <trkpt lat="46.03016" lon="6.39096">
        <ele>657.7</ele>
      </trkpt>
      <trkpt lat="46.03063" lon="6.39062">
        <ele>651.9</ele>
      </trkpt>
      <trkpt lat="46.03073" lon="6.39054">
        <ele>651.3</ele>
      </trkpt>
      <trkpt lat="46.03087" lon="6.39039">
        <ele>649.3</ele>
      </trkpt>
      <trkpt lat="46.03116" lon="6.39005">
        <ele>639.6</ele>
      </trkpt>
      <trkpt lat="46.03132" lon="6.38989">
        <ele>634.8</ele>
      </trkpt>
      <trkpt lat="46.03159" lon="6.38968">
        <ele>630.3</ele>
      </trkpt>
      <trkpt lat="46.03238" lon="6.38908">
        <ele>654.4</ele>
      </trkpt>
      <trkpt lat="46.03259" lon="6.38888">
        <ele>655.6</ele>
      </trkpt>
      <trkpt lat="46.03271" lon="6.38874">
        <ele>656.9</ele>
      </trkpt>
      <trkpt lat="46.03362" lon="6.3873">
        <ele>638.6</ele>
      </trkpt>
      <trkpt lat="46.03385" lon="6.38677">
        <ele>636.7</ele>
      </trkpt>
      <trkpt lat="46.03411" lon="6.38638">
        <ele>640.5</ele>
      </trkpt>
      <trkpt lat="46.03417" lon="6.38624">
        <ele>640.6</ele>
      </trkpt>
      <trkpt lat="46.0342" lon="6.38602">
        <ele>639.9</ele>
      </trkpt>
      <trkpt lat="46.03416" lon="6.38572">
        <ele>635.9</ele>
      </trkpt>
      <trkpt lat="46.03416" lon="6.38564">
        <ele>635.8</ele>
      </trkpt>
      <trkpt lat="46.03425" lon="6.38527">
        <ele>639.2</ele>
      </trkpt>
      <trkpt lat="46.03431" lon="6.38507">
        <ele>641.1</ele>
      </trkpt>
      <trkpt lat="46.0348" lon="6.38431">
        <ele>626.1</ele>
      </trkpt>
      <trkpt lat="46.03511" lon="6.38394">
        <ele>619.3</ele>
      </trkpt>
      <trkpt lat="46.03526" lon="6.38381">
        <ele>619.5</ele>
      </trkpt>
      <trkpt lat="46.03536" lon="6.38378">
        <ele>619.8</ele>
      </trkpt>
      <trkpt lat="46.03571" lon="6.38385">
        <ele>631.2</ele>
      </trkpt>
      <trkpt lat="46.0358" lon="6.38384">
        <ele>632.2</ele>
      </trkpt>
      <trkpt lat="46.03605" lon="6.38373">
        <ele>629.4</ele>
      </trkpt>
      <trkpt lat="46.03621" lon="6.38369">
        <ele>631.7</ele>
      </trkpt>
      <trkpt lat="46.0364" lon="6.38354">
        <ele>626.8</ele>
      </trkpt>
      <trkpt lat="46.03659" lon="6.38346">
        <ele>629.3</ele>
      </trkpt>
      <trkpt lat="46.03695" lon="6.38314">
        <ele>614.5</ele>
      </trkpt>
      <trkpt lat="46.03722" lon="6.38299">
        <ele>606.4</ele>
      </trkpt>
      <trkpt lat="46.03738" lon="6.38297">
        <ele>605.7</ele>
      </trkpt>
      <trkpt lat="46.03751" lon="6.383">
        <ele>608.5</ele>
      </trkpt>
      <trkpt lat="46.03782" lon="6.38293">
        <ele>612.4</ele>
      </trkpt>
      <trkpt lat="46.03805" lon="6.3828">
        <ele>609.9</ele>
      </trkpt>
      <trkpt lat="46.03826" lon="6.38266">
        <ele>606.1</ele>
      </trkpt>
      <trkpt lat="46.03858" lon="6.38238">
        <ele>597.5</ele>
      </trkpt>
      <trkpt lat="46.03875" lon="6.38229">
        <ele>597.8</ele>
      </trkpt>
      <trkpt lat="46.03898" lon="6.38212">
        <ele>596.4</ele>
      </trkpt>
      <trkpt lat="46.03913" lon="6.38193">
        <ele>592.3</ele>
      </trkpt>
      <trkpt lat="46.03919" lon="6.38183">
        <ele>589.8</ele>
      </trkpt>
      <trkpt lat="46.03943" lon="6.3812">
        <ele>579.7</ele>
      </trkpt>
      <trkpt lat="46.03951" lon="6.38107">
        <ele>579.2</ele>
      </trkpt>
      <trkpt lat="46.0396" lon="6.38097">
        <ele>579.6</ele>
      </trkpt>
      <trkpt lat="46.04028" lon="6.38052">
        <ele>583.3</ele>
      </trkpt>
      <trkpt lat="46.0405" lon="6.38041">
        <ele>583.2</ele>
      </trkpt>
      <trkpt lat="46.0407" lon="6.38023">
        <ele>579.9</ele>
      </trkpt>
      <trkpt lat="46.04082" lon="6.38018">
        <ele>579.9</ele>
      </trkpt>
      <trkpt lat="46.04111" lon="6.3802">
        <ele>583.3</ele>
      </trkpt>
      <trkpt lat="46.04132" lon="6.38019">
        <ele>584.8</ele>
      </trkpt>
      <trkpt lat="46.04148" lon="6.38014">
        <ele>584.4</ele>
      </trkpt>
      <trkpt lat="46.04173" lon="6.38">
        <ele>582.5</ele>
      </trkpt>
      <trkpt lat="46.04195" lon="6.37992">
        <ele>585.5</ele>
      </trkpt>
      <trkpt lat="46.04205" lon="6.37986">
        <ele>585.9</ele>
      </trkpt>
      <trkpt lat="46.04216" lon="6.37975">
        <ele>584.6</ele>
      </trkpt>
      <trkpt lat="46.04233" lon="6.37949">
        <ele>578.1</ele>
      </trkpt>
      <trkpt lat="46.04246" lon="6.3794">
        <ele>576.1</ele>
      </trkpt>
      <trkpt lat="46.04254" lon="6.37938">
        <ele>576.1</ele>
      </trkpt>
      <trkpt lat="46.04269" lon="6.3794">
        <ele>578.6</ele>
      </trkpt>
      <trkpt lat="46.04318" lon="6.37949">
        <ele>588.1</ele>
      </trkpt>
      <trkpt lat="46.04338" lon="6.37946">
        <ele>590</ele>
      </trkpt>
      <trkpt lat="46.04353" lon="6.37938">
        <ele>591.3</ele>
      </trkpt>
      <trkpt lat="46.04362" lon="6.37929">
        <ele>590.5</ele>
      </trkpt>
      <trkpt lat="46.04368" lon="6.37922">
        <ele>589.6</ele>
      </trkpt>
      <trkpt lat="46.04377" lon="6.37905">
        <ele>587.8</ele>
      </trkpt>
      <trkpt lat="46.04393" lon="6.37889">
        <ele>587.9</ele>
      </trkpt>
      <trkpt lat="46.04411" lon="6.37859">
        <ele>580.4</ele>
      </trkpt>
      <trkpt lat="46.04429" lon="6.3784">
        <ele>576.2</ele>
      </trkpt>
      <trkpt lat="46.0447" lon="6.37825">
        <ele>581</ele>
      </trkpt>
      <trkpt lat="46.04492" lon="6.37824">
        <ele>584.8</ele>
      </trkpt>
      <trkpt lat="46.04507" lon="6.3782">
        <ele>586.1</ele>
      </trkpt>
      <trkpt lat="46.04524" lon="6.37818">
        <ele>589.8</ele>
      </trkpt>
      <trkpt lat="46.04532" lon="6.37815">
        <ele>590.6</ele>
      </trkpt>
      <trkpt lat="46.04544" lon="6.37803">
        <ele>589</ele>
      </trkpt>
      <trkpt lat="46.0455" lon="6.3779">
        <ele>585.5</ele>
      </trkpt>
      <trkpt lat="46.04551" lon="6.3777">
        <ele>577.8</ele>
      </trkpt>
      <trkpt lat="46.04548" lon="6.37734">
        <ele>566.2</ele>
      </trkpt>
      <trkpt lat="46.04556" lon="6.37692">
        <ele>561.3</ele>
      </trkpt>
      <trkpt lat="46.04559" lon="6.37682">
        <ele>559.9</ele>
      </trkpt>
      <trkpt lat="46.04569" lon="6.37671">
        <ele>558.8</ele>
      </trkpt>
      <trkpt lat="46.04589" lon="6.37665">
        <ele>560.2</ele>
      </trkpt>
      <trkpt lat="46.046" lon="6.37658">
        <ele>561</ele>
      </trkpt>
      <trkpt lat="46.04609" lon="6.37655">
        <ele>562.6</ele>
      </trkpt>
      <trkpt lat="46.04626" lon="6.37655">
        <ele>567.8</ele>
      </trkpt>
      <trkpt lat="46.04635" lon="6.3765">
        <ele>568.5</ele>
      </trkpt>
      <trkpt lat="46.04642" lon="6.37641">
        <ele>566.9</ele>
      </trkpt>
      <trkpt lat="46.04646" lon="6.3763">
        <ele>563.5</ele>
      </trkpt>
      <trkpt lat="46.04649" lon="6.37598">
        <ele>551</ele>
      </trkpt>
      <trkpt lat="46.04652" lon="6.37585">
        <ele>546.4</ele>
      </trkpt>
      <trkpt lat="46.04661" lon="6.37574">
        <ele>543.9</ele>
      </trkpt>
      <trkpt lat="46.04673" lon="6.37572">
        <ele>544.2</ele>
      </trkpt>
      <trkpt lat="46.04693" lon="6.3758">
        <ele>548</ele>
      </trkpt>
      <trkpt lat="46.04718" lon="6.37575">
        <ele>546.4</ele>
      </trkpt>
      <trkpt lat="46.04737" lon="6.37566">
        <ele>543.4</ele>
      </trkpt>
      <trkpt lat="46.04744" lon="6.37566">
        <ele>543.6</ele>
      </trkpt>
      <trkpt lat="46.04755" lon="6.37571">
        <ele>545.1</ele>
      </trkpt>
      <trkpt lat="46.04767" lon="6.37581">
        <ele>547.6</ele>
      </trkpt>
      <trkpt lat="46.04786" lon="6.3759">
        <ele>549</ele>
      </trkpt>
      <trkpt lat="46.04803" lon="6.37613">
        <ele>555</ele>
      </trkpt>
      <trkpt lat="46.04815" lon="6.37617">
        <ele>554.5</ele>
      </trkpt>
      <trkpt lat="46.04823" lon="6.37614">
        <ele>552.4</ele>
      </trkpt>
      <trkpt lat="46.04829" lon="6.37607">
        <ele>549.4</ele>
      </trkpt>
      <trkpt lat="46.04842" lon="6.3758">
        <ele>541</ele>
      </trkpt>
      <trkpt lat="46.04848" lon="6.37576">
        <ele>539.8</ele>
      </trkpt>
      <trkpt lat="46.04857" lon="6.37575">
        <ele>539.4</ele>
      </trkpt>
      <trkpt lat="46.04866" lon="6.37578">
        <ele>540.1</ele>
      </trkpt>
      <trkpt lat="46.04929" lon="6.37615">
        <ele>549.3</ele>
      </trkpt>
      <trkpt lat="46.04952" lon="6.37621">
        <ele>547.5</ele>
      </trkpt>
      <trkpt lat="46.04967" lon="6.37636">
        <ele>549.7</ele>
      </trkpt>
      <trkpt lat="46.04975" lon="6.37639">
        <ele>549.2</ele>
      </trkpt>
      <trkpt lat="46.04986" lon="6.37637">
        <ele>546.8</ele>
      </trkpt>
      <trkpt lat="46.05003" lon="6.37623">
        <ele>540.2</ele>
      </trkpt>
      <trkpt lat="46.05009" lon="6.37621">
        <ele>539</ele>
      </trkpt>
      <trkpt lat="46.05012" lon="6.3762">
        <ele>538.5</ele>
      </trkpt>
      <trkpt lat="46.0502" lon="6.37621">
        <ele>538</ele>
      </trkpt>
      <trkpt lat="46.05028" lon="6.37628">
        <ele>539.4</ele>
      </trkpt>
      <trkpt lat="46.05062" lon="6.37666">
        <ele>547.6</ele>
      </trkpt>
      <trkpt lat="46.05082" lon="6.37675">
        <ele>549.1</ele>
      </trkpt>
      <trkpt lat="46.05091" lon="6.37675">
        <ele>548.9</ele>
      </trkpt>
      <trkpt lat="46.05099" lon="6.37672">
        <ele>547.8</ele>
      </trkpt>
      <trkpt lat="46.05117" lon="6.37654">
        <ele>542.9</ele>
      </trkpt>
      <trkpt lat="46.05138" lon="6.37618">
        <ele>535.6</ele>
      </trkpt>
      <trkpt lat="46.05153" lon="6.37603">
        <ele>533.9</ele>
      </trkpt>
      <trkpt lat="46.05173" lon="6.37588">
        <ele>534.1</ele>
      </trkpt>
      <trkpt lat="46.05179" lon="6.37579">
        <ele>535.1</ele>
      </trkpt>
      <trkpt lat="46.05192" lon="6.3754">
        <ele>540</ele>
      </trkpt>
      <trkpt lat="46.05202" lon="6.37515">
        <ele>541.7</ele>
      </trkpt>
      <trkpt lat="46.05206" lon="6.37499">
        <ele>542.1</ele>
      </trkpt>
      <trkpt lat="46.05211" lon="6.37485">
        <ele>542.4</ele>
      </trkpt>
      <trkpt lat="46.05227" lon="6.37465">
        <ele>541.1</ele>
      </trkpt>
      <trkpt lat="46.05255" lon="6.37412">
        <ele>534.9</ele>
      </trkpt>
      <trkpt lat="46.05262" lon="6.37408">
        <ele>534.4</ele>
      </trkpt>
      <trkpt lat="46.05272" lon="6.37407">
        <ele>533.2</ele>
      </trkpt>
      <trkpt lat="46.05344" lon="6.37417">
        <ele>524.1</ele>
      </trkpt>
      <trkpt lat="46.05364" lon="6.37413">
        <ele>520.2</ele>
      </trkpt>
      <trkpt lat="46.0538" lon="6.37402">
        <ele>516</ele>
      </trkpt>
      <trkpt lat="46.05385" lon="6.37393">
        <ele>513.8</ele>
      </trkpt>
      <trkpt lat="46.0539" lon="6.37376">
        <ele>510.5</ele>
      </trkpt>
      <trkpt lat="46.05389" lon="6.37364">
        <ele>509.2</ele>
      </trkpt>
      <trkpt lat="46.05388" lon="6.37358">
        <ele>508.7</ele>
      </trkpt>
      <trkpt lat="46.05386" lon="6.37355">
        <ele>509</ele>
      </trkpt>
      <trkpt lat="46.05384" lon="6.37352">
        <ele>509.2</ele>
      </trkpt>
      <trkpt lat="46.05382" lon="6.37349">
        <ele>509.5</ele>
      </trkpt>
      <trkpt lat="46.05362" lon="6.3733">
        <ele>514.7</ele>
      </trkpt>
      <trkpt lat="46.05359" lon="6.37327">
        <ele>516</ele>
      </trkpt>
      <trkpt lat="46.05357" lon="6.37323">
        <ele>517.1</ele>
      </trkpt>
      <trkpt lat="46.05356" lon="6.37319">
        <ele>517.9</ele>
      </trkpt>
      <trkpt lat="46.05355" lon="6.37315">
        <ele>518.7</ele>
      </trkpt>
      <trkpt lat="46.05355" lon="6.37301">
        <ele>520.2</ele>
      </trkpt>
      <trkpt lat="46.05358" lon="6.3729">
        <ele>520.2</ele>
      </trkpt>
      <trkpt lat="46.05361" lon="6.37285">
        <ele>519.5</ele>
      </trkpt>
      <trkpt lat="46.05384" lon="6.37259">
        <ele>512.4</ele>
      </trkpt>
      <trkpt lat="46.05406" lon="6.37239">
        <ele>506</ele>
      </trkpt>
      <trkpt lat="46.05457" lon="6.37198">
        <ele>503.5</ele>
      </trkpt>
      <trkpt lat="46.05473" lon="6.3719">
        <ele>501.7</ele>
      </trkpt>
      <trkpt lat="46.05492" lon="6.37186">
        <ele>498.5</ele>
      </trkpt>
      <trkpt lat="46.05493" lon="6.37186">
        <ele>498.3</ele>
      </trkpt>
    </trkseg>
  </trk>
</gpx>